<?xml version="1.0" encoding="UTF-8"?>
<gpx
  version="1.0"
  creator="GPSBabel - http://www.gpsbabel.org"
  xmlns:xsi="http://www.w3.org/2001/XMLSchema-instance"
  xmlns="http://www.topografix.com/GPX/1/0"
  xsi:schemaLocation="http://www.topografix.com/GPX/1/0 http://www.topografix.com/GPX/1/0/gpx.xsd">
<time>2011-11-18T17:56:33Z</time>
<bounds minlat="31.749963760" minlon="35.289772034" maxlat="31.801198959" maxlon="35.452869415"/>
<trk>
  <name>Holux2011/11/18_08:31</name>
<trkseg>
<trkpt lat="31.767473221" lon="35.292938232">
  <ele>524.192383</ele>
  <time>2011-11-18T06:31:00Z</time>
  <speed>2.850000</speed>
</trkpt>
<trkpt lat="31.767473221" lon="35.292911530">
  <ele>525.489258</ele>
  <time>2011-11-18T06:31:01Z</time>
  <speed>2.170000</speed>
</trkpt>
<trkpt lat="31.767477036" lon="35.292873383">
  <ele>525.958008</ele>
  <time>2011-11-18T06:31:01Z</time>
  <speed>2.080000</speed>
</trkpt>
<trkpt lat="31.767490387" lon="35.292835236">
  <ele>525.395508</ele>
  <time>2011-11-18T06:31:03Z</time>
  <speed>2.870000</speed>
</trkpt>
<trkpt lat="31.767515182" lon="35.292819977">
  <ele>523.817383</ele>
  <time>2011-11-18T06:31:03Z</time>
  <speed>3.180000</speed>
</trkpt>
<trkpt lat="31.767543793" lon="35.292808533">
  <ele>523.348633</ele>
  <time>2011-11-18T06:31:04Z</time>
  <speed>3.210000</speed>
</trkpt>
<trkpt lat="31.767574310" lon="35.292797089">
  <ele>522.692383</ele>
  <time>2011-11-18T06:31:05Z</time>
  <speed>3.290000</speed>
</trkpt>
<trkpt lat="31.767602921" lon="35.292778015">
  <ele>522.473633</ele>
  <time>2011-11-18T06:31:06Z</time>
  <speed>3.300000</speed>
</trkpt>
<trkpt lat="31.767625809" lon="35.292758942">
  <ele>521.645508</ele>
  <time>2011-11-18T06:31:07Z</time>
  <speed>3.180000</speed>
</trkpt>
<trkpt lat="31.767652512" lon="35.292743683">
  <ele>520.520508</ele>
  <time>2011-11-18T06:31:08Z</time>
  <speed>3.230000</speed>
</trkpt>
<trkpt lat="31.767675400" lon="35.292724609">
  <ele>519.864258</ele>
  <time>2011-11-18T06:31:09Z</time>
  <speed>3.360000</speed>
</trkpt>
<trkpt lat="31.767698288" lon="35.292697906">
  <ele>519.286133</ele>
  <time>2011-11-18T06:31:10Z</time>
  <speed>3.620000</speed>
</trkpt>
<trkpt lat="31.767728806" lon="35.292659760">
  <ele>518.676758</ele>
  <time>2011-11-18T06:31:12Z</time>
  <speed>3.680000</speed>
</trkpt>
<trkpt lat="31.767744064" lon="35.292621613">
  <ele>518.239258</ele>
  <time>2011-11-18T06:31:13Z</time>
  <speed>3.370000</speed>
</trkpt>
<trkpt lat="31.767755508" lon="35.292591095">
  <ele>518.458008</ele>
  <time>2011-11-18T06:31:14Z</time>
  <speed>3.230000</speed>
</trkpt>
<trkpt lat="31.767766953" lon="35.292556763">
  <ele>518.629883</ele>
  <time>2011-11-18T06:31:15Z</time>
  <speed>3.400000</speed>
</trkpt>
<trkpt lat="31.767780304" lon="35.292526245">
  <ele>518.754883</ele>
  <time>2011-11-18T06:31:16Z</time>
  <speed>3.060000</speed>
</trkpt>
<trkpt lat="31.767793655" lon="35.292491913">
  <ele>518.598633</ele>
  <time>2011-11-18T06:31:17Z</time>
  <speed>3.630000</speed>
</trkpt>
<trkpt lat="31.767808914" lon="35.292449951">
  <ele>518.567383</ele>
  <time>2011-11-18T06:31:18Z</time>
  <speed>4.370000</speed>
</trkpt>
<trkpt lat="31.767820358" lon="35.292407990">
  <ele>517.989258</ele>
  <time>2011-11-18T06:31:19Z</time>
  <speed>3.890000</speed>
</trkpt>
<trkpt lat="31.767822266" lon="35.292362213">
  <ele>517.754883</ele>
  <time>2011-11-18T06:31:20Z</time>
  <speed>4.170000</speed>
</trkpt>
<trkpt lat="31.767826080" lon="35.292316437">
  <ele>517.364258</ele>
  <time>2011-11-18T06:31:21Z</time>
  <speed>4.350000</speed>
</trkpt>
<trkpt lat="31.767822266" lon="35.292266846">
  <ele>517.379883</ele>
  <time>2011-11-18T06:31:22Z</time>
  <speed>3.810000</speed>
</trkpt>
<trkpt lat="31.767824173" lon="35.292224884">
  <ele>517.848633</ele>
  <time>2011-11-18T06:31:23Z</time>
  <speed>4.130000</speed>
</trkpt>
<trkpt lat="31.767820358" lon="35.292179108">
  <ele>517.911133</ele>
  <time>2011-11-18T06:31:24Z</time>
  <speed>3.840000</speed>
</trkpt>
<trkpt lat="31.767818451" lon="35.292129517">
  <ele>518.286133</ele>
  <time>2011-11-18T06:31:25Z</time>
  <speed>4.040000</speed>
</trkpt>
<trkpt lat="31.767822266" lon="35.292087555">
  <ele>518.051758</ele>
  <time>2011-11-18T06:31:26Z</time>
  <speed>3.410000</speed>
</trkpt>
<trkpt lat="31.767822266" lon="35.292045593">
  <ele>517.895508</ele>
  <time>2011-11-18T06:31:27Z</time>
  <speed>3.320000</speed>
</trkpt>
<trkpt lat="31.767818451" lon="35.292015076">
  <ele>517.567383</ele>
  <time>2011-11-18T06:31:28Z</time>
  <speed>3.270000</speed>
</trkpt>
<trkpt lat="31.767812729" lon="35.291980743">
  <ele>517.661133</ele>
  <time>2011-11-18T06:31:29Z</time>
  <speed>3.230000</speed>
</trkpt>
<trkpt lat="31.767803192" lon="35.291938782">
  <ele>517.489258</ele>
  <time>2011-11-18T06:31:30Z</time>
  <speed>3.830000</speed>
</trkpt>
<trkpt lat="31.767793655" lon="35.291893005">
  <ele>517.973633</ele>
  <time>2011-11-18T06:31:31Z</time>
  <speed>4.040000</speed>
</trkpt>
<trkpt lat="31.767791748" lon="35.291839600">
  <ele>518.723633</ele>
  <time>2011-11-18T06:31:32Z</time>
  <speed>3.930000</speed>
</trkpt>
<trkpt lat="31.767793655" lon="35.291797638">
  <ele>518.129883</ele>
  <time>2011-11-18T06:31:33Z</time>
  <speed>3.710000</speed>
</trkpt>
<trkpt lat="31.767797470" lon="35.291755676">
  <ele>518.129883</ele>
  <time>2011-11-18T06:31:34Z</time>
  <speed>3.590000</speed>
</trkpt>
<trkpt lat="31.767805099" lon="35.291725159">
  <ele>518.114258</ele>
  <time>2011-11-18T06:31:35Z</time>
  <speed>3.160000</speed>
</trkpt>
<trkpt lat="31.767826080" lon="35.291667938">
  <ele>518.442383</ele>
  <time>2011-11-18T06:31:37Z</time>
  <speed>2.860000</speed>
</trkpt>
<trkpt lat="31.767826080" lon="35.291633606">
  <ele>519.661133</ele>
  <time>2011-11-18T06:31:38Z</time>
  <speed>3.320000</speed>
</trkpt>
<trkpt lat="31.767829895" lon="35.291595459">
  <ele>519.348633</ele>
  <time>2011-11-18T06:31:39Z</time>
  <speed>2.980000</speed>
</trkpt>
<trkpt lat="31.767829895" lon="35.291534424">
  <ele>519.864258</ele>
  <time>2011-11-18T06:31:41Z</time>
  <speed>2.460000</speed>
</trkpt>
<trkpt lat="31.767845154" lon="35.291469574">
  <ele>520.567383</ele>
  <time>2011-11-18T06:31:43Z</time>
  <speed>3.910000</speed>
</trkpt>
<trkpt lat="31.767866135" lon="35.291435242">
  <ele>519.817383</ele>
  <time>2011-11-18T06:31:44Z</time>
  <speed>3.740000</speed>
</trkpt>
<trkpt lat="31.767885208" lon="35.291400909">
  <ele>520.067383</ele>
  <time>2011-11-18T06:31:45Z</time>
  <speed>3.770000</speed>
</trkpt>
<trkpt lat="31.767902374" lon="35.291358948">
  <ele>520.004883</ele>
  <time>2011-11-18T06:31:46Z</time>
  <speed>3.690000</speed>
</trkpt>
<trkpt lat="31.767913818" lon="35.291324615">
  <ele>519.754883</ele>
  <time>2011-11-18T06:31:47Z</time>
  <speed>3.700000</speed>
</trkpt>
<trkpt lat="31.767915726" lon="35.291290283">
  <ele>520.083008</ele>
  <time>2011-11-18T06:31:48Z</time>
  <speed>3.120000</speed>
</trkpt>
<trkpt lat="31.767906189" lon="35.291255951">
  <ele>520.348633</ele>
  <time>2011-11-18T06:31:49Z</time>
  <speed>3.150000</speed>
</trkpt>
<trkpt lat="31.767904282" lon="35.291213989">
  <ele>520.645508</ele>
  <time>2011-11-18T06:31:50Z</time>
  <speed>3.240000</speed>
</trkpt>
<trkpt lat="31.767910004" lon="35.291183472">
  <ele>520.504883</ele>
  <time>2011-11-18T06:31:51Z</time>
  <speed>3.030000</speed>
</trkpt>
<trkpt lat="31.767917633" lon="35.291152954">
  <ele>520.239258</ele>
  <time>2011-11-18T06:31:52Z</time>
  <speed>2.970000</speed>
</trkpt>
<trkpt lat="31.767946243" lon="35.291099548">
  <ele>520.176758</ele>
  <time>2011-11-18T06:31:54Z</time>
  <speed>3.090000</speed>
</trkpt>
<trkpt lat="31.767957687" lon="35.291065216">
  <ele>520.098633</ele>
  <time>2011-11-18T06:31:55Z</time>
  <speed>3.130000</speed>
</trkpt>
<trkpt lat="31.767967224" lon="35.291030884">
  <ele>520.348633</ele>
  <time>2011-11-18T06:31:56Z</time>
  <speed>3.180000</speed>
</trkpt>
<trkpt lat="31.767974854" lon="35.290992737">
  <ele>520.661133</ele>
  <time>2011-11-18T06:31:57Z</time>
  <speed>3.200000</speed>
</trkpt>
<trkpt lat="31.767982483" lon="35.290954590">
  <ele>519.754883</ele>
  <time>2011-11-18T06:31:58Z</time>
  <speed>3.430000</speed>
</trkpt>
<trkpt lat="31.767984390" lon="35.290920258">
  <ele>519.676758</ele>
  <time>2011-11-18T06:31:59Z</time>
  <speed>2.940000</speed>
</trkpt>
<trkpt lat="31.767988205" lon="35.290882111">
  <ele>519.739258</ele>
  <time>2011-11-18T06:32:00Z</time>
  <speed>3.090000</speed>
</trkpt>
<trkpt lat="31.767993927" lon="35.290824890">
  <ele>519.489258</ele>
  <time>2011-11-18T06:32:02Z</time>
  <speed>3.270000</speed>
</trkpt>
<trkpt lat="31.768018723" lon="35.290760040">
  <ele>519.973633</ele>
  <time>2011-11-18T06:32:04Z</time>
  <speed>3.750000</speed>
</trkpt>
<trkpt lat="31.768035889" lon="35.290725708">
  <ele>519.754883</ele>
  <time>2011-11-18T06:32:05Z</time>
  <speed>3.750000</speed>
</trkpt>
<trkpt lat="31.768053055" lon="35.290691376">
  <ele>520.098633</ele>
  <time>2011-11-18T06:32:06Z</time>
  <speed>3.570000</speed>
</trkpt>
<trkpt lat="31.768070221" lon="35.290660858">
  <ele>520.114258</ele>
  <time>2011-11-18T06:32:07Z</time>
  <speed>3.530000</speed>
</trkpt>
<trkpt lat="31.768079758" lon="35.290622711">
  <ele>520.067383</ele>
  <time>2011-11-18T06:32:08Z</time>
  <speed>3.330000</speed>
</trkpt>
<trkpt lat="31.768091202" lon="35.290592194">
  <ele>520.098633</ele>
  <time>2011-11-18T06:32:09Z</time>
  <speed>3.300000</speed>
</trkpt>
<trkpt lat="31.768096924" lon="35.290561676">
  <ele>519.864258</ele>
  <time>2011-11-18T06:32:10Z</time>
  <speed>2.970000</speed>
</trkpt>
<trkpt lat="31.768102646" lon="35.290527344">
  <ele>520.364258</ele>
  <time>2011-11-18T06:32:11Z</time>
  <speed>3.020000</speed>
</trkpt>
<trkpt lat="31.768112183" lon="35.290496826">
  <ele>520.395508</ele>
  <time>2011-11-18T06:32:12Z</time>
  <speed>3.340000</speed>
</trkpt>
<trkpt lat="31.768127441" lon="35.290458679">
  <ele>520.426758</ele>
  <time>2011-11-18T06:32:13Z</time>
  <speed>3.760000</speed>
</trkpt>
<trkpt lat="31.768144608" lon="35.290424347">
  <ele>519.848633</ele>
  <time>2011-11-18T06:32:14Z</time>
  <speed>3.720000</speed>
</trkpt>
<trkpt lat="31.768157959" lon="35.290386200">
  <ele>519.333008</ele>
  <time>2011-11-18T06:32:15Z</time>
  <speed>3.240000</speed>
</trkpt>
<trkpt lat="31.768169403" lon="35.290355682">
  <ele>519.676758</ele>
  <time>2011-11-18T06:32:16Z</time>
  <speed>3.330000</speed>
</trkpt>
<trkpt lat="31.768177032" lon="35.290317535">
  <ele>519.848633</ele>
  <time>2011-11-18T06:32:17Z</time>
  <speed>3.340000</speed>
</trkpt>
<trkpt lat="31.768188477" lon="35.290283203">
  <ele>519.723633</ele>
  <time>2011-11-18T06:32:18Z</time>
  <speed>3.000000</speed>
</trkpt>
<trkpt lat="31.768178940" lon="35.290233612">
  <ele>519.598633</ele>
  <time>2011-11-18T06:32:20Z</time>
  <speed>1.990000</speed>
</trkpt>
<trkpt lat="31.768165588" lon="35.290195465">
  <ele>520.208008</ele>
  <time>2011-11-18T06:32:22Z</time>
  <speed>2.080000</speed>
</trkpt>
<trkpt lat="31.768148422" lon="35.290142059">
  <ele>520.989258</ele>
  <time>2011-11-18T06:32:24Z</time>
  <speed>3.220000</speed>
</trkpt>
<trkpt lat="31.768133163" lon="35.290115356">
  <ele>521.473633</ele>
  <time>2011-11-18T06:32:25Z</time>
  <speed>3.540000</speed>
</trkpt>
<trkpt lat="31.768114090" lon="35.290084839">
  <ele>521.770508</ele>
  <time>2011-11-18T06:32:26Z</time>
  <speed>3.600000</speed>
</trkpt>
<trkpt lat="31.768085480" lon="35.290050507">
  <ele>522.395508</ele>
  <time>2011-11-18T06:32:27Z</time>
  <speed>4.180000</speed>
</trkpt>
<trkpt lat="31.768054962" lon="35.290016174">
  <ele>523.333008</ele>
  <time>2011-11-18T06:32:28Z</time>
  <speed>4.500000</speed>
</trkpt>
<trkpt lat="31.768020630" lon="35.289989471">
  <ele>524.083008</ele>
  <time>2011-11-18T06:32:29Z</time>
  <speed>4.520000</speed>
</trkpt>
<trkpt lat="31.767982483" lon="35.289958954">
  <ele>524.708008</ele>
  <time>2011-11-18T06:32:30Z</time>
  <speed>4.290000</speed>
</trkpt>
<trkpt lat="31.767948151" lon="35.289932251">
  <ele>525.489258</ele>
  <time>2011-11-18T06:32:31Z</time>
  <speed>4.060000</speed>
</trkpt>
<trkpt lat="31.767913818" lon="35.289913177">
  <ele>525.801758</ele>
  <time>2011-11-18T06:32:32Z</time>
  <speed>4.380000</speed>
</trkpt>
<trkpt lat="31.767875671" lon="35.289890289">
  <ele>525.973633</ele>
  <time>2011-11-18T06:32:33Z</time>
  <speed>4.000000</speed>
</trkpt>
<trkpt lat="31.767837524" lon="35.289875031">
  <ele>525.879883</ele>
  <time>2011-11-18T06:32:34Z</time>
  <speed>3.190000</speed>
</trkpt>
<trkpt lat="31.767810822" lon="35.289859772">
  <ele>525.520508</ele>
  <time>2011-11-18T06:32:35Z</time>
  <speed>3.180000</speed>
</trkpt>
<trkpt lat="31.767786026" lon="35.289848328">
  <ele>525.864258</ele>
  <time>2011-11-18T06:32:36Z</time>
  <speed>2.670000</speed>
</trkpt>
<trkpt lat="31.767736435" lon="35.289825439">
  <ele>525.911133</ele>
  <time>2011-11-18T06:32:38Z</time>
  <speed>2.860000</speed>
</trkpt>
<trkpt lat="31.767692566" lon="35.289810181">
  <ele>525.770508</ele>
  <time>2011-11-18T06:32:40Z</time>
  <speed>2.750000</speed>
</trkpt>
<trkpt lat="31.767639160" lon="35.289798737">
  <ele>525.567383</ele>
  <time>2011-11-18T06:32:42Z</time>
  <speed>3.110000</speed>
</trkpt>
<trkpt lat="31.767612457" lon="35.289791107">
  <ele>525.208008</ele>
  <time>2011-11-18T06:32:43Z</time>
  <speed>3.020000</speed>
</trkpt>
<trkpt lat="31.767562866" lon="35.289775848">
  <ele>525.286133</ele>
  <time>2011-11-18T06:32:45Z</time>
  <speed>3.150000</speed>
</trkpt>
<trkpt lat="31.767534256" lon="35.289772034">
  <ele>525.911133</ele>
  <time>2011-11-18T06:32:46Z</time>
  <speed>3.060000</speed>
</trkpt>
<trkpt lat="31.767503738" lon="35.289779663">
  <ele>526.333008</ele>
  <time>2011-11-18T06:32:47Z</time>
  <speed>3.220000</speed>
</trkpt>
<trkpt lat="31.767473221" lon="35.289787292">
  <ele>526.833008</ele>
  <time>2011-11-18T06:32:48Z</time>
  <speed>3.360000</speed>
</trkpt>
<trkpt lat="31.767442703" lon="35.289794922">
  <ele>526.911133</ele>
  <time>2011-11-18T06:32:49Z</time>
  <speed>3.640000</speed>
</trkpt>
<trkpt lat="31.767408371" lon="35.289798737">
  <ele>527.114258</ele>
  <time>2011-11-18T06:32:50Z</time>
  <speed>3.720000</speed>
</trkpt>
<trkpt lat="31.767372131" lon="35.289813995">
  <ele>527.504883</ele>
  <time>2011-11-18T06:32:51Z</time>
  <speed>4.020000</speed>
</trkpt>
<trkpt lat="31.767337799" lon="35.289821625">
  <ele>527.895508</ele>
  <time>2011-11-18T06:32:52Z</time>
  <speed>3.910000</speed>
</trkpt>
<trkpt lat="31.767301559" lon="35.289829254">
  <ele>527.598633</ele>
  <time>2011-11-18T06:32:53Z</time>
  <speed>4.070000</speed>
</trkpt>
<trkpt lat="31.767265320" lon="35.289844513">
  <ele>528.208008</ele>
  <time>2011-11-18T06:32:54Z</time>
  <speed>3.920000</speed>
</trkpt>
<trkpt lat="31.767229080" lon="35.289852142">
  <ele>528.551758</ele>
  <time>2011-11-18T06:32:55Z</time>
  <speed>3.870000</speed>
</trkpt>
<trkpt lat="31.767194748" lon="35.289867401">
  <ele>529.067383</ele>
  <time>2011-11-18T06:32:56Z</time>
  <speed>3.810000</speed>
</trkpt>
<trkpt lat="31.767166138" lon="35.289882660">
  <ele>529.004883</ele>
  <time>2011-11-18T06:32:57Z</time>
  <speed>3.530000</speed>
</trkpt>
<trkpt lat="31.767135620" lon="35.289897919">
  <ele>528.708008</ele>
  <time>2011-11-18T06:32:58Z</time>
  <speed>3.600000</speed>
</trkpt>
<trkpt lat="31.767105103" lon="35.289913177">
  <ele>528.645508</ele>
  <time>2011-11-18T06:32:59Z</time>
  <speed>3.760000</speed>
</trkpt>
<trkpt lat="31.767074585" lon="35.289932251">
  <ele>528.895508</ele>
  <time>2011-11-18T06:33:00Z</time>
  <speed>3.760000</speed>
</trkpt>
<trkpt lat="31.767042160" lon="35.289951324">
  <ele>529.114258</ele>
  <time>2011-11-18T06:33:01Z</time>
  <speed>3.750000</speed>
</trkpt>
<trkpt lat="31.767017365" lon="35.289966583">
  <ele>529.051758</ele>
  <time>2011-11-18T06:33:02Z</time>
  <speed>3.250000</speed>
</trkpt>
<trkpt lat="31.766969681" lon="35.290004730">
  <ele>528.754883</ele>
  <time>2011-11-18T06:33:04Z</time>
  <speed>3.560000</speed>
</trkpt>
<trkpt lat="31.766944885" lon="35.290019989">
  <ele>528.551758</ele>
  <time>2011-11-18T06:33:05Z</time>
  <speed>3.630000</speed>
</trkpt>
<trkpt lat="31.766914368" lon="35.290039063">
  <ele>529.051758</ele>
  <time>2011-11-18T06:33:06Z</time>
  <speed>3.730000</speed>
</trkpt>
<trkpt lat="31.766880035" lon="35.290061951">
  <ele>529.723633</ele>
  <time>2011-11-18T06:33:07Z</time>
  <speed>3.730000</speed>
</trkpt>
<trkpt lat="31.766853333" lon="35.290088654">
  <ele>529.864258</ele>
  <time>2011-11-18T06:33:08Z</time>
  <speed>3.550000</speed>
</trkpt>
<trkpt lat="31.766828537" lon="35.290107727">
  <ele>529.598633</ele>
  <time>2011-11-18T06:33:09Z</time>
  <speed>3.590000</speed>
</trkpt>
<trkpt lat="31.766801834" lon="35.290130615">
  <ele>529.598633</ele>
  <time>2011-11-18T06:33:10Z</time>
  <speed>3.570000</speed>
</trkpt>
<trkpt lat="31.766773224" lon="35.290149689">
  <ele>529.520508</ele>
  <time>2011-11-18T06:33:11Z</time>
  <speed>3.640000</speed>
</trkpt>
<trkpt lat="31.766742706" lon="35.290168762">
  <ele>529.676758</ele>
  <time>2011-11-18T06:33:12Z</time>
  <speed>3.590000</speed>
</trkpt>
<trkpt lat="31.766716003" lon="35.290187836">
  <ele>530.161133</ele>
  <time>2011-11-18T06:33:13Z</time>
  <speed>3.660000</speed>
</trkpt>
<trkpt lat="31.766683578" lon="35.290203094">
  <ele>529.614258</ele>
  <time>2011-11-18T06:33:14Z</time>
  <speed>3.860000</speed>
</trkpt>
<trkpt lat="31.766651154" lon="35.290225983">
  <ele>529.395508</ele>
  <time>2011-11-18T06:33:15Z</time>
  <speed>4.050000</speed>
</trkpt>
<trkpt lat="31.766620636" lon="35.290252686">
  <ele>529.333008</ele>
  <time>2011-11-18T06:33:16Z</time>
  <speed>4.160000</speed>
</trkpt>
<trkpt lat="31.766586304" lon="35.290275574">
  <ele>529.395508</ele>
  <time>2011-11-18T06:33:17Z</time>
  <speed>4.370000</speed>
</trkpt>
<trkpt lat="31.766551971" lon="35.290306091">
  <ele>529.661133</ele>
  <time>2011-11-18T06:33:18Z</time>
  <speed>4.620000</speed>
</trkpt>
<trkpt lat="31.766515732" lon="35.290336609">
  <ele>529.598633</ele>
  <time>2011-11-18T06:33:19Z</time>
  <speed>4.870000</speed>
</trkpt>
<trkpt lat="31.766473770" lon="35.290363312">
  <ele>529.442383</ele>
  <time>2011-11-18T06:33:20Z</time>
  <speed>5.210000</speed>
</trkpt>
<trkpt lat="31.766433716" lon="35.290397644">
  <ele>529.286133</ele>
  <time>2011-11-18T06:33:21Z</time>
  <speed>5.150000</speed>
</trkpt>
<trkpt lat="31.766393661" lon="35.290428162">
  <ele>529.223633</ele>
  <time>2011-11-18T06:33:22Z</time>
  <speed>5.450000</speed>
</trkpt>
<trkpt lat="31.766351700" lon="35.290462494">
  <ele>529.192383</ele>
  <time>2011-11-18T06:33:23Z</time>
  <speed>5.750000</speed>
</trkpt>
<trkpt lat="31.766305923" lon="35.290500641">
  <ele>529.129883</ele>
  <time>2011-11-18T06:33:24Z</time>
  <speed>6.080000</speed>
</trkpt>
<trkpt lat="31.766256332" lon="35.290534973">
  <ele>528.786133</ele>
  <time>2011-11-18T06:33:25Z</time>
  <speed>6.230000</speed>
</trkpt>
<trkpt lat="31.766210556" lon="35.290573120">
  <ele>528.676758</ele>
  <time>2011-11-18T06:33:26Z</time>
  <speed>6.340000</speed>
</trkpt>
<trkpt lat="31.766160965" lon="35.290607452">
  <ele>528.051758</ele>
  <time>2011-11-18T06:33:27Z</time>
  <speed>6.650000</speed>
</trkpt>
<trkpt lat="31.766105652" lon="35.290641785">
  <ele>527.864258</ele>
  <time>2011-11-18T06:33:28Z</time>
  <speed>6.950000</speed>
</trkpt>
<trkpt lat="31.766050339" lon="35.290676117">
  <ele>527.473633</ele>
  <time>2011-11-18T06:33:29Z</time>
  <speed>7.250000</speed>
</trkpt>
<trkpt lat="31.765989304" lon="35.290702820">
  <ele>527.192383</ele>
  <time>2011-11-18T06:33:30Z</time>
  <speed>7.400000</speed>
</trkpt>
<trkpt lat="31.765924454" lon="35.290725708">
  <ele>526.848633</ele>
  <time>2011-11-18T06:33:31Z</time>
  <speed>7.720000</speed>
</trkpt>
<trkpt lat="31.765853882" lon="35.290744781">
  <ele>526.426758</ele>
  <time>2011-11-18T06:33:32Z</time>
  <speed>7.730000</speed>
</trkpt>
<trkpt lat="31.765787125" lon="35.290763855">
  <ele>525.879883</ele>
  <time>2011-11-18T06:33:33Z</time>
  <speed>8.050000</speed>
</trkpt>
<trkpt lat="31.765716553" lon="35.290775299">
  <ele>525.067383</ele>
  <time>2011-11-18T06:33:34Z</time>
  <speed>8.190000</speed>
</trkpt>
<trkpt lat="31.765642166" lon="35.290782928">
  <ele>524.379883</ele>
  <time>2011-11-18T06:33:35Z</time>
  <speed>8.320000</speed>
</trkpt>
<trkpt lat="31.765563965" lon="35.290782928">
  <ele>524.395508</ele>
  <time>2011-11-18T06:33:36Z</time>
  <speed>8.770000</speed>
</trkpt>
<trkpt lat="31.765481949" lon="35.290782928">
  <ele>524.098633</ele>
  <time>2011-11-18T06:33:37Z</time>
  <speed>9.010000</speed>
</trkpt>
<trkpt lat="31.765399933" lon="35.290782928">
  <ele>523.286133</ele>
  <time>2011-11-18T06:33:38Z</time>
  <speed>9.010000</speed>
</trkpt>
<trkpt lat="31.765317917" lon="35.290790558">
  <ele>522.442383</ele>
  <time>2011-11-18T06:33:39Z</time>
  <speed>8.910000</speed>
</trkpt>
<trkpt lat="31.765233994" lon="35.290805817">
  <ele>522.020508</ele>
  <time>2011-11-18T06:33:40Z</time>
  <speed>9.200000</speed>
</trkpt>
<trkpt lat="31.765150070" lon="35.290828705">
  <ele>521.879883</ele>
  <time>2011-11-18T06:33:41Z</time>
  <speed>9.510000</speed>
</trkpt>
<trkpt lat="31.765066147" lon="35.290855408">
  <ele>521.286133</ele>
  <time>2011-11-18T06:33:42Z</time>
  <speed>9.500000</speed>
</trkpt>
<trkpt lat="31.764984131" lon="35.290889740">
  <ele>520.801758</ele>
  <time>2011-11-18T06:33:43Z</time>
  <speed>9.480000</speed>
</trkpt>
<trkpt lat="31.764904022" lon="35.290931702">
  <ele>520.270508</ele>
  <time>2011-11-18T06:33:44Z</time>
  <speed>9.710000</speed>
</trkpt>
<trkpt lat="31.764820099" lon="35.290977478">
  <ele>520.098633</ele>
  <time>2011-11-18T06:33:45Z</time>
  <speed>10.220000</speed>
</trkpt>
<trkpt lat="31.764732361" lon="35.291023254">
  <ele>519.458008</ele>
  <time>2011-11-18T06:33:46Z</time>
  <speed>10.270000</speed>
</trkpt>
<trkpt lat="31.764650345" lon="35.291069031">
  <ele>519.051758</ele>
  <time>2011-11-18T06:33:47Z</time>
  <speed>10.140000</speed>
</trkpt>
<trkpt lat="31.764568329" lon="35.291118622">
  <ele>518.348633</ele>
  <time>2011-11-18T06:33:48Z</time>
  <speed>10.150000</speed>
</trkpt>
<trkpt lat="31.764482498" lon="35.291164398">
  <ele>517.989258</ele>
  <time>2011-11-18T06:33:49Z</time>
  <speed>10.310000</speed>
</trkpt>
<trkpt lat="31.764402390" lon="35.291198730">
  <ele>516.864258</ele>
  <time>2011-11-18T06:33:50Z</time>
  <speed>10.250000</speed>
</trkpt>
<trkpt lat="31.764322281" lon="35.291248322">
  <ele>516.223633</ele>
  <time>2011-11-18T06:33:51Z</time>
  <speed>10.200000</speed>
</trkpt>
<trkpt lat="31.764240265" lon="35.291290283">
  <ele>515.442383</ele>
  <time>2011-11-18T06:33:52Z</time>
  <speed>10.030000</speed>
</trkpt>
<trkpt lat="31.764156342" lon="35.291332245">
  <ele>515.129883</ele>
  <time>2011-11-18T06:33:53Z</time>
  <speed>10.170000</speed>
</trkpt>
<trkpt lat="31.764064789" lon="35.291381836">
  <ele>516.098633</ele>
  <time>2011-11-18T06:33:54Z</time>
  <speed>10.050000</speed>
</trkpt>
<trkpt lat="31.763982773" lon="35.291435242">
  <ele>516.583008</ele>
  <time>2011-11-18T06:33:55Z</time>
  <speed>9.800000</speed>
</trkpt>
<trkpt lat="31.763902664" lon="35.291484833">
  <ele>515.864258</ele>
  <time>2011-11-18T06:33:56Z</time>
  <speed>9.870000</speed>
</trkpt>
<trkpt lat="31.763822556" lon="35.291530609">
  <ele>515.036133</ele>
  <time>2011-11-18T06:33:57Z</time>
  <speed>9.780000</speed>
</trkpt>
<trkpt lat="31.763740540" lon="35.291580200">
  <ele>514.536133</ele>
  <time>2011-11-18T06:33:58Z</time>
  <speed>9.920001</speed>
</trkpt>
<trkpt lat="31.763656616" lon="35.291625977">
  <ele>514.176758</ele>
  <time>2011-11-18T06:33:59Z</time>
  <speed>9.990000</speed>
</trkpt>
<trkpt lat="31.763574600" lon="35.291667938">
  <ele>513.301758</ele>
  <time>2011-11-18T06:34:00Z</time>
  <speed>10.189999</speed>
</trkpt>
<trkpt lat="31.763483047" lon="35.291709900">
  <ele>513.004883</ele>
  <time>2011-11-18T06:34:01Z</time>
  <speed>10.380000</speed>
</trkpt>
<trkpt lat="31.763401031" lon="35.291751862">
  <ele>512.333008</ele>
  <time>2011-11-18T06:34:02Z</time>
  <speed>10.130000</speed>
</trkpt>
<trkpt lat="31.763317108" lon="35.291797638">
  <ele>511.557129</ele>
  <time>2011-11-18T06:34:03Z</time>
  <speed>10.350000</speed>
</trkpt>
<trkpt lat="31.763233185" lon="35.291847229">
  <ele>510.908691</ele>
  <time>2011-11-18T06:34:04Z</time>
  <speed>10.550000</speed>
</trkpt>
<trkpt lat="31.763151169" lon="35.291912079">
  <ele>510.900879</ele>
  <time>2011-11-18T06:34:05Z</time>
  <speed>10.830000</speed>
</trkpt>
<trkpt lat="31.763078690" lon="35.291984558">
  <ele>510.424316</ele>
  <time>2011-11-18T06:34:06Z</time>
  <speed>11.090000</speed>
</trkpt>
<trkpt lat="31.763000488" lon="35.292060852">
  <ele>510.533691</ele>
  <time>2011-11-18T06:34:07Z</time>
  <speed>11.310000</speed>
</trkpt>
<trkpt lat="31.762922287" lon="35.292140961">
  <ele>510.088379</ele>
  <time>2011-11-18T06:34:08Z</time>
  <speed>11.620000</speed>
</trkpt>
<trkpt lat="31.762853622" lon="35.292232513">
  <ele>509.510254</ele>
  <time>2011-11-18T06:34:09Z</time>
  <speed>11.430000</speed>
</trkpt>
<trkpt lat="31.762794495" lon="35.292327881">
  <ele>508.932129</ele>
  <time>2011-11-18T06:34:10Z</time>
  <speed>10.910000</speed>
</trkpt>
<trkpt lat="31.762744904" lon="35.292423248">
  <ele>508.471191</ele>
  <time>2011-11-18T06:34:11Z</time>
  <speed>10.760000</speed>
</trkpt>
<trkpt lat="31.762701035" lon="35.292522430">
  <ele>508.338379</ele>
  <time>2011-11-18T06:34:12Z</time>
  <speed>10.420000</speed>
</trkpt>
<trkpt lat="31.762664795" lon="35.292617798">
  <ele>508.104004</ele>
  <time>2011-11-18T06:34:13Z</time>
  <speed>9.820000</speed>
</trkpt>
<trkpt lat="31.762632370" lon="35.292713165">
  <ele>507.260254</ele>
  <time>2011-11-18T06:34:14Z</time>
  <speed>10.010000</speed>
</trkpt>
<trkpt lat="31.762609482" lon="35.292816162">
  <ele>506.510254</ele>
  <time>2011-11-18T06:34:15Z</time>
  <speed>10.270000</speed>
</trkpt>
<trkpt lat="31.762588501" lon="35.292926788">
  <ele>505.299316</ele>
  <time>2011-11-18T06:34:16Z</time>
  <speed>10.720000</speed>
</trkpt>
<trkpt lat="31.762577057" lon="35.293045044">
  <ele>504.205566</ele>
  <time>2011-11-18T06:34:17Z</time>
  <speed>10.980000</speed>
</trkpt>
<trkpt lat="31.762567520" lon="35.293167114">
  <ele>503.283691</ele>
  <time>2011-11-18T06:34:18Z</time>
  <speed>11.260000</speed>
</trkpt>
<trkpt lat="31.762565613" lon="35.293285370">
  <ele>502.127441</ele>
  <time>2011-11-18T06:34:19Z</time>
  <speed>11.210000</speed>
</trkpt>
<trkpt lat="31.762571335" lon="35.293407440">
  <ele>500.916504</ele>
  <time>2011-11-18T06:34:20Z</time>
  <speed>11.560000</speed>
</trkpt>
<trkpt lat="31.762586594" lon="35.293529510">
  <ele>499.830566</ele>
  <time>2011-11-18T06:34:21Z</time>
  <speed>11.650000</speed>
</trkpt>
<trkpt lat="31.762611389" lon="35.293659210">
  <ele>499.096191</ele>
  <time>2011-11-18T06:34:22Z</time>
  <speed>11.890000</speed>
</trkpt>
<trkpt lat="31.762643814" lon="35.293777466">
  <ele>498.080566</ele>
  <time>2011-11-18T06:34:23Z</time>
  <speed>12.220000</speed>
</trkpt>
<trkpt lat="31.762685776" lon="35.293899536">
  <ele>497.455566</ele>
  <time>2011-11-18T06:34:24Z</time>
  <speed>12.250000</speed>
</trkpt>
<trkpt lat="31.762737274" lon="35.294017792">
  <ele>496.947754</ele>
  <time>2011-11-18T06:34:25Z</time>
  <speed>12.300000</speed>
</trkpt>
<trkpt lat="31.762800217" lon="35.294136047">
  <ele>496.783691</ele>
  <time>2011-11-18T06:34:26Z</time>
  <speed>12.660000</speed>
</trkpt>
<trkpt lat="31.762874603" lon="35.294239044">
  <ele>496.072754</ele>
  <time>2011-11-18T06:34:27Z</time>
  <speed>12.490000</speed>
</trkpt>
<trkpt lat="31.762956619" lon="35.294326782">
  <ele>494.822754</ele>
  <time>2011-11-18T06:34:28Z</time>
  <speed>12.370000</speed>
</trkpt>
<trkpt lat="31.763046265" lon="35.294414520">
  <ele>493.650879</ele>
  <time>2011-11-18T06:34:29Z</time>
  <speed>12.760000</speed>
</trkpt>
<trkpt lat="31.763135910" lon="35.294506073">
  <ele>492.838379</ele>
  <time>2011-11-18T06:34:30Z</time>
  <speed>12.790000</speed>
</trkpt>
<trkpt lat="31.763221741" lon="35.294593811">
  <ele>491.760254</ele>
  <time>2011-11-18T06:34:31Z</time>
  <speed>12.870000</speed>
</trkpt>
<trkpt lat="31.763315201" lon="35.294685364">
  <ele>490.783691</ele>
  <time>2011-11-18T06:34:32Z</time>
  <speed>12.980000</speed>
</trkpt>
<trkpt lat="31.763397217" lon="35.294780731">
  <ele>489.369629</ele>
  <time>2011-11-18T06:34:33Z</time>
  <speed>12.780000</speed>
</trkpt>
<trkpt lat="31.763481140" lon="35.294883728">
  <ele>488.244629</ele>
  <time>2011-11-18T06:34:34Z</time>
  <speed>13.240000</speed>
</trkpt>
<trkpt lat="31.763555527" lon="35.294990540">
  <ele>486.682129</ele>
  <time>2011-11-18T06:34:35Z</time>
  <speed>12.960000</speed>
</trkpt>
<trkpt lat="31.763616562" lon="35.295104980">
  <ele>484.994629</ele>
  <time>2011-11-18T06:34:36Z</time>
  <speed>12.660000</speed>
</trkpt>
<trkpt lat="31.763671875" lon="35.295219421">
  <ele>483.463379</ele>
  <time>2011-11-18T06:34:37Z</time>
  <speed>12.500000</speed>
</trkpt>
<trkpt lat="31.763721466" lon="35.295341492">
  <ele>482.018066</ele>
  <time>2011-11-18T06:34:38Z</time>
  <speed>12.050000</speed>
</trkpt>
<trkpt lat="31.763751984" lon="35.295463562">
  <ele>480.557129</ele>
  <time>2011-11-18T06:34:39Z</time>
  <speed>12.340000</speed>
</trkpt>
<trkpt lat="31.763774872" lon="35.295589447">
  <ele>479.291504</ele>
  <time>2011-11-18T06:34:40Z</time>
  <speed>12.199999</speed>
</trkpt>
<trkpt lat="31.763784409" lon="35.295711517">
  <ele>478.088379</ele>
  <time>2011-11-18T06:34:41Z</time>
  <speed>12.040000</speed>
</trkpt>
<trkpt lat="31.763786316" lon="35.295841217">
  <ele>476.900879</ele>
  <time>2011-11-18T06:34:42Z</time>
  <speed>12.070000</speed>
</trkpt>
<trkpt lat="31.763780594" lon="35.295974731">
  <ele>475.908691</ele>
  <time>2011-11-18T06:34:43Z</time>
  <speed>12.230000</speed>
</trkpt>
<trkpt lat="31.763761520" lon="35.296104431">
  <ele>474.893066</ele>
  <time>2011-11-18T06:34:44Z</time>
  <speed>12.280000</speed>
</trkpt>
<trkpt lat="31.763734818" lon="35.296234131">
  <ele>474.143066</ele>
  <time>2011-11-18T06:34:45Z</time>
  <speed>12.400000</speed>
</trkpt>
<trkpt lat="31.763702393" lon="35.296360016">
  <ele>473.471191</ele>
  <time>2011-11-18T06:34:46Z</time>
  <speed>12.720000</speed>
</trkpt>
<trkpt lat="31.763660431" lon="35.296482086">
  <ele>472.369629</ele>
  <time>2011-11-18T06:34:47Z</time>
  <speed>12.370000</speed>
</trkpt>
<trkpt lat="31.763610840" lon="35.296600342">
  <ele>471.502441</ele>
  <time>2011-11-18T06:34:48Z</time>
  <speed>11.630000</speed>
</trkpt>
<trkpt lat="31.763559341" lon="35.296703339">
  <ele>470.088379</ele>
  <time>2011-11-18T06:34:49Z</time>
  <speed>11.250000</speed>
</trkpt>
<trkpt lat="31.763502121" lon="35.296794891">
  <ele>469.424316</ele>
  <time>2011-11-18T06:34:50Z</time>
  <speed>10.500000</speed>
</trkpt>
<trkpt lat="31.763442993" lon="35.296878815">
  <ele>468.627441</ele>
  <time>2011-11-18T06:34:51Z</time>
  <speed>9.290000</speed>
</trkpt>
<trkpt lat="31.763380051" lon="35.296943665">
  <ele>467.955566</ele>
  <time>2011-11-18T06:34:52Z</time>
  <speed>9.330000</speed>
</trkpt>
<trkpt lat="31.763313293" lon="35.297004700">
  <ele>467.049316</ele>
  <time>2011-11-18T06:34:53Z</time>
  <speed>9.540000</speed>
</trkpt>
<trkpt lat="31.763246536" lon="35.297069550">
  <ele>466.330566</ele>
  <time>2011-11-18T06:34:54Z</time>
  <speed>10.070000</speed>
</trkpt>
<trkpt lat="31.763177872" lon="35.297138214">
  <ele>465.783691</ele>
  <time>2011-11-18T06:34:55Z</time>
  <speed>10.330000</speed>
</trkpt>
<trkpt lat="31.763103485" lon="35.297206879">
  <ele>465.049316</ele>
  <time>2011-11-18T06:34:56Z</time>
  <speed>10.480000</speed>
</trkpt>
<trkpt lat="31.763023376" lon="35.297271729">
  <ele>464.510254</ele>
  <time>2011-11-18T06:34:57Z</time>
  <speed>10.730000</speed>
</trkpt>
<trkpt lat="31.762945175" lon="35.297336578">
  <ele>464.104004</ele>
  <time>2011-11-18T06:34:58Z</time>
  <speed>10.970000</speed>
</trkpt>
<trkpt lat="31.762866974" lon="35.297409058">
  <ele>463.244629</ele>
  <time>2011-11-18T06:34:59Z</time>
  <speed>11.140000</speed>
</trkpt>
<trkpt lat="31.762788773" lon="35.297481537">
  <ele>462.338379</ele>
  <time>2011-11-18T06:35:00Z</time>
  <speed>11.310000</speed>
</trkpt>
<trkpt lat="31.762706757" lon="35.297550201">
  <ele>460.924316</ele>
  <time>2011-11-18T06:35:01Z</time>
  <speed>11.370000</speed>
</trkpt>
<trkpt lat="31.762624741" lon="35.297626495">
  <ele>459.939941</ele>
  <time>2011-11-18T06:35:02Z</time>
  <speed>11.570000</speed>
</trkpt>
<trkpt lat="31.762544632" lon="35.297702789">
  <ele>459.494629</ele>
  <time>2011-11-18T06:35:03Z</time>
  <speed>11.560000</speed>
</trkpt>
<trkpt lat="31.762462616" lon="35.297779083">
  <ele>458.807129</ele>
  <time>2011-11-18T06:35:04Z</time>
  <speed>11.750000</speed>
</trkpt>
<trkpt lat="31.762376785" lon="35.297855377">
  <ele>458.049316</ele>
  <time>2011-11-18T06:35:05Z</time>
  <speed>11.850000</speed>
</trkpt>
<trkpt lat="31.762290955" lon="35.297931671">
  <ele>456.908691</ele>
  <time>2011-11-18T06:35:06Z</time>
  <speed>11.910000</speed>
</trkpt>
<trkpt lat="31.762207031" lon="35.298007965">
  <ele>455.932129</ele>
  <time>2011-11-18T06:35:07Z</time>
  <speed>12.020000</speed>
</trkpt>
<trkpt lat="31.762121201" lon="35.298088074">
  <ele>455.197754</ele>
  <time>2011-11-18T06:35:08Z</time>
  <speed>12.120000</speed>
</trkpt>
<trkpt lat="31.762035370" lon="35.298164368">
  <ele>454.088379</ele>
  <time>2011-11-18T06:35:09Z</time>
  <speed>12.100000</speed>
</trkpt>
<trkpt lat="31.761949539" lon="35.298248291">
  <ele>453.002441</ele>
  <time>2011-11-18T06:35:10Z</time>
  <speed>12.250000</speed>
</trkpt>
<trkpt lat="31.761861801" lon="35.298332214">
  <ele>451.736816</ele>
  <time>2011-11-18T06:35:11Z</time>
  <speed>12.220000</speed>
</trkpt>
<trkpt lat="31.761774063" lon="35.298419952">
  <ele>451.150879</ele>
  <time>2011-11-18T06:35:12Z</time>
  <speed>12.250000</speed>
</trkpt>
<trkpt lat="31.761688232" lon="35.298500061">
  <ele>449.791504</ele>
  <time>2011-11-18T06:35:13Z</time>
  <speed>12.330000</speed>
</trkpt>
<trkpt lat="31.761600494" lon="35.298583984">
  <ele>448.635254</ele>
  <time>2011-11-18T06:35:14Z</time>
  <speed>12.530000</speed>
</trkpt>
<trkpt lat="31.761514664" lon="35.298667908">
  <ele>447.518066</ele>
  <time>2011-11-18T06:35:15Z</time>
  <speed>12.410000</speed>
</trkpt>
<trkpt lat="31.761428833" lon="35.298751831">
  <ele>446.822754</ele>
  <time>2011-11-18T06:35:16Z</time>
  <speed>12.510000</speed>
</trkpt>
<trkpt lat="31.761344910" lon="35.298839569">
  <ele>445.900879</ele>
  <time>2011-11-18T06:35:17Z</time>
  <speed>12.570000</speed>
</trkpt>
<trkpt lat="31.761260986" lon="35.298927307">
  <ele>445.111816</ele>
  <time>2011-11-18T06:35:18Z</time>
  <speed>12.560000</speed>
</trkpt>
<trkpt lat="31.761178970" lon="35.299018860">
  <ele>444.244629</ele>
  <time>2011-11-18T06:35:19Z</time>
  <speed>12.579999</speed>
</trkpt>
<trkpt lat="31.761102676" lon="35.299114227">
  <ele>443.346191</ele>
  <time>2011-11-18T06:35:20Z</time>
  <speed>12.570000</speed>
</trkpt>
<trkpt lat="31.761024475" lon="35.299209595">
  <ele>442.471191</ele>
  <time>2011-11-18T06:35:21Z</time>
  <speed>12.610000</speed>
</trkpt>
<trkpt lat="31.760948181" lon="35.299308777">
  <ele>441.689941</ele>
  <time>2011-11-18T06:35:22Z</time>
  <speed>12.570000</speed>
</trkpt>
<trkpt lat="31.760873795" lon="35.299407959">
  <ele>440.807129</ele>
  <time>2011-11-18T06:35:23Z</time>
  <speed>12.560000</speed>
</trkpt>
<trkpt lat="31.760803223" lon="35.299507141">
  <ele>439.955566</ele>
  <time>2011-11-18T06:35:24Z</time>
  <speed>12.460000</speed>
</trkpt>
<trkpt lat="31.760736465" lon="35.299610138">
  <ele>439.252441</ele>
  <time>2011-11-18T06:35:25Z</time>
  <speed>12.440000</speed>
</trkpt>
<trkpt lat="31.760667801" lon="35.299716949">
  <ele>438.510254</ele>
  <time>2011-11-18T06:35:26Z</time>
  <speed>12.320000</speed>
</trkpt>
<trkpt lat="31.760604858" lon="35.299823761">
  <ele>437.697754</ele>
  <time>2011-11-18T06:35:27Z</time>
  <speed>12.290000</speed>
</trkpt>
<trkpt lat="31.760541916" lon="35.299934387">
  <ele>437.322754</ele>
  <time>2011-11-18T06:35:28Z</time>
  <speed>12.290000</speed>
</trkpt>
<trkpt lat="31.760480881" lon="35.300045013">
  <ele>436.893066</ele>
  <time>2011-11-18T06:35:29Z</time>
  <speed>12.300000</speed>
</trkpt>
<trkpt lat="31.760421753" lon="35.300159454">
  <ele>436.916504</ele>
  <time>2011-11-18T06:35:30Z</time>
  <speed>12.050000</speed>
</trkpt>
<trkpt lat="31.760370255" lon="35.300270081">
  <ele>436.908691</ele>
  <time>2011-11-18T06:35:31Z</time>
  <speed>12.040000</speed>
</trkpt>
<trkpt lat="31.760320663" lon="35.300384521">
  <ele>436.213379</ele>
  <time>2011-11-18T06:35:32Z</time>
  <speed>12.090000</speed>
</trkpt>
<trkpt lat="31.760271072" lon="35.300495148">
  <ele>435.721191</ele>
  <time>2011-11-18T06:35:33Z</time>
  <speed>11.870000</speed>
</trkpt>
<trkpt lat="31.760221481" lon="35.300613403">
  <ele>435.697754</ele>
  <time>2011-11-18T06:35:34Z</time>
  <speed>11.819999</speed>
</trkpt>
<trkpt lat="31.760171890" lon="35.300724030">
  <ele>434.955566</ele>
  <time>2011-11-18T06:35:35Z</time>
  <speed>11.400000</speed>
</trkpt>
<trkpt lat="31.760120392" lon="35.300827026">
  <ele>434.674316</ele>
  <time>2011-11-18T06:35:36Z</time>
  <speed>10.840000</speed>
</trkpt>
<trkpt lat="31.760072708" lon="35.300926208">
  <ele>433.814941</ele>
  <time>2011-11-18T06:35:37Z</time>
  <speed>10.510000</speed>
</trkpt>
<trkpt lat="31.760021210" lon="35.301013947">
  <ele>432.354004</ele>
  <time>2011-11-18T06:35:38Z</time>
  <speed>9.810001</speed>
</trkpt>
<trkpt lat="31.759971619" lon="35.301101685">
  <ele>431.088379</ele>
  <time>2011-11-18T06:35:39Z</time>
  <speed>9.980000</speed>
</trkpt>
<trkpt lat="31.759916306" lon="35.301181793">
  <ele>430.299316</ele>
  <time>2011-11-18T06:35:40Z</time>
  <speed>10.060000</speed>
</trkpt>
<trkpt lat="31.759862900" lon="35.301273346">
  <ele>429.775879</ele>
  <time>2011-11-18T06:35:41Z</time>
  <speed>10.430000</speed>
</trkpt>
<trkpt lat="31.759811401" lon="35.301364899">
  <ele>429.158691</ele>
  <time>2011-11-18T06:35:42Z</time>
  <speed>10.180000</speed>
</trkpt>
<trkpt lat="31.759752274" lon="35.301448822">
  <ele>427.955566</ele>
  <time>2011-11-18T06:35:43Z</time>
  <speed>10.360000</speed>
</trkpt>
<trkpt lat="31.759693146" lon="35.301521301">
  <ele>426.221191</ele>
  <time>2011-11-18T06:35:44Z</time>
  <speed>9.540000</speed>
</trkpt>
<trkpt lat="31.759635925" lon="35.301586151">
  <ele>425.338379</ele>
  <time>2011-11-18T06:35:45Z</time>
  <speed>8.900000</speed>
</trkpt>
<trkpt lat="31.759572983" lon="35.301643372">
  <ele>424.471191</ele>
  <time>2011-11-18T06:35:46Z</time>
  <speed>8.930000</speed>
</trkpt>
<trkpt lat="31.759510040" lon="35.301700592">
  <ele>423.768066</ele>
  <time>2011-11-18T06:35:47Z</time>
  <speed>8.540000</speed>
</trkpt>
<trkpt lat="31.759447098" lon="35.301757813">
  <ele>423.580566</ele>
  <time>2011-11-18T06:35:48Z</time>
  <speed>8.810000</speed>
</trkpt>
<trkpt lat="31.759387970" lon="35.301822662">
  <ele>423.666504</ele>
  <time>2011-11-18T06:35:49Z</time>
  <speed>8.070000</speed>
</trkpt>
<trkpt lat="31.759338379" lon="35.301872253">
  <ele>423.205566</ele>
  <time>2011-11-18T06:35:50Z</time>
  <speed>6.620000</speed>
</trkpt>
<trkpt lat="31.759292603" lon="35.301898956">
  <ele>422.783691</ele>
  <time>2011-11-18T06:35:51Z</time>
  <speed>5.410000</speed>
</trkpt>
<trkpt lat="31.759250641" lon="35.301918030">
  <ele>422.549316</ele>
  <time>2011-11-18T06:35:52Z</time>
  <speed>4.690000</speed>
</trkpt>
<trkpt lat="31.759212494" lon="35.301933289">
  <ele>422.268066</ele>
  <time>2011-11-18T06:35:53Z</time>
  <speed>3.870000</speed>
</trkpt>
<trkpt lat="31.759185791" lon="35.301944733">
  <ele>422.330566</ele>
  <time>2011-11-18T06:35:54Z</time>
  <speed>2.760000</speed>
</trkpt>
<trkpt lat="31.759174347" lon="35.301979065">
  <ele>423.127441</ele>
  <time>2011-11-18T06:36:20Z</time>
  <speed>1.470000</speed>
</trkpt>
<trkpt lat="31.759185791" lon="35.302021027">
  <ele>424.197754</ele>
  <time>2011-11-18T06:36:23Z</time>
  <speed>0.560000</speed>
</trkpt>
<trkpt lat="31.759202957" lon="35.302032471">
  <ele>426.111816</ele>
  <time>2011-11-18T06:36:46Z</time>
  <speed>0.360000</speed>
</trkpt>
<trkpt lat="31.759235382" lon="35.302040100">
  <ele>426.135254</ele>
  <time>2011-11-18T06:36:49Z</time>
  <speed>1.270000</speed>
</trkpt>
<trkpt lat="31.759263992" lon="35.302062988">
  <ele>426.783691</ele>
  <time>2011-11-18T06:36:52Z</time>
  <speed>0.660000</speed>
</trkpt>
<trkpt lat="31.759300232" lon="35.302085876">
  <ele>427.424316</ele>
  <time>2011-11-18T06:36:55Z</time>
  <speed>1.570000</speed>
</trkpt>
<trkpt lat="31.759336472" lon="35.302097321">
  <ele>428.088379</ele>
  <time>2011-11-18T06:36:57Z</time>
  <speed>1.570000</speed>
</trkpt>
<trkpt lat="31.759365082" lon="35.302101135">
  <ele>428.502441</ele>
  <time>2011-11-18T06:36:59Z</time>
  <speed>1.540000</speed>
</trkpt>
<trkpt lat="31.759395599" lon="35.302104950">
  <ele>429.010254</ele>
  <time>2011-11-18T06:37:01Z</time>
  <speed>1.590000</speed>
</trkpt>
<trkpt lat="31.759426117" lon="35.302127838">
  <ele>429.463379</ele>
  <time>2011-11-18T06:37:03Z</time>
  <speed>1.680000</speed>
</trkpt>
<trkpt lat="31.759458542" lon="35.302154541">
  <ele>430.525879</ele>
  <time>2011-11-18T06:37:06Z</time>
  <speed>1.620000</speed>
</trkpt>
<trkpt lat="31.759489059" lon="35.302169800">
  <ele>431.041504</ele>
  <time>2011-11-18T06:37:08Z</time>
  <speed>1.530000</speed>
</trkpt>
<trkpt lat="31.759529114" lon="35.302173615">
  <ele>430.760254</ele>
  <time>2011-11-18T06:37:10Z</time>
  <speed>1.530000</speed>
</trkpt>
<trkpt lat="31.759557724" lon="35.302177429">
  <ele>430.900879</ele>
  <time>2011-11-18T06:37:12Z</time>
  <speed>1.310000</speed>
</trkpt>
<trkpt lat="31.759584427" lon="35.302169800">
  <ele>430.229004</ele>
  <time>2011-11-18T06:37:14Z</time>
  <speed>1.490000</speed>
</trkpt>
<trkpt lat="31.759620667" lon="35.302143097">
  <ele>430.104004</ele>
  <time>2011-11-18T06:37:17Z</time>
  <speed>1.810000</speed>
</trkpt>
<trkpt lat="31.759649277" lon="35.302124023">
  <ele>430.166504</ele>
  <time>2011-11-18T06:37:19Z</time>
  <speed>1.660000</speed>
</trkpt>
<trkpt lat="31.759677887" lon="35.302112579">
  <ele>430.627441</ele>
  <time>2011-11-18T06:37:21Z</time>
  <speed>1.700000</speed>
</trkpt>
<trkpt lat="31.759706497" lon="35.302120209">
  <ele>430.533691</ele>
  <time>2011-11-18T06:37:24Z</time>
  <speed>1.190000</speed>
</trkpt>
<trkpt lat="31.759723663" lon="35.302143097">
  <ele>429.619629</ele>
  <time>2011-11-18T06:37:28Z</time>
  <speed>1.290000</speed>
</trkpt>
<trkpt lat="31.759727478" lon="35.302177429">
  <ele>429.689941</ele>
  <time>2011-11-18T06:37:30Z</time>
  <speed>1.900000</speed>
</trkpt>
<trkpt lat="31.759725571" lon="35.302227020">
  <ele>428.947754</ele>
  <time>2011-11-18T06:37:32Z</time>
  <speed>2.400000</speed>
</trkpt>
<trkpt lat="31.759717941" lon="35.302276611">
  <ele>428.346191</ele>
  <time>2011-11-18T06:37:34Z</time>
  <speed>2.190000</speed>
</trkpt>
<trkpt lat="31.759706497" lon="35.302337646">
  <ele>429.463379</ele>
  <time>2011-11-18T06:37:36Z</time>
  <speed>2.540000</speed>
</trkpt>
<trkpt lat="31.759696960" lon="35.302368164">
  <ele>429.979004</ele>
  <time>2011-11-18T06:37:37Z</time>
  <speed>2.170000</speed>
</trkpt>
<trkpt lat="31.759696960" lon="35.302421570">
  <ele>431.166504</ele>
  <time>2011-11-18T06:37:39Z</time>
  <speed>2.460000</speed>
</trkpt>
<trkpt lat="31.759704590" lon="35.302478790">
  <ele>432.119629</ele>
  <time>2011-11-18T06:37:41Z</time>
  <speed>2.710000</speed>
</trkpt>
<trkpt lat="31.759698868" lon="35.302528381">
  <ele>432.682129</ele>
  <time>2011-11-18T06:37:43Z</time>
  <speed>2.100000</speed>
</trkpt>
<trkpt lat="31.759683609" lon="35.302574158">
  <ele>433.354004</ele>
  <time>2011-11-18T06:37:45Z</time>
  <speed>2.090000</speed>
</trkpt>
<trkpt lat="31.759675980" lon="35.302616119">
  <ele>433.314941</ele>
  <time>2011-11-18T06:37:47Z</time>
  <speed>1.660000</speed>
</trkpt>
<trkpt lat="31.759689331" lon="35.302658081">
  <ele>434.900879</ele>
  <time>2011-11-18T06:37:57Z</time>
  <speed>1.030000</speed>
</trkpt>
<trkpt lat="31.759691238" lon="35.302696228">
  <ele>435.377441</ele>
  <time>2011-11-18T06:38:00Z</time>
  <speed>1.100000</speed>
</trkpt>
<trkpt lat="31.759696960" lon="35.302730560">
  <ele>434.643066</ele>
  <time>2011-11-18T06:38:03Z</time>
  <speed>1.830000</speed>
</trkpt>
<trkpt lat="31.759704590" lon="35.302768707">
  <ele>434.166504</ele>
  <time>2011-11-18T06:38:05Z</time>
  <speed>1.840000</speed>
</trkpt>
<trkpt lat="31.759712219" lon="35.302822113">
  <ele>434.533691</ele>
  <time>2011-11-18T06:38:07Z</time>
  <speed>2.080000</speed>
</trkpt>
<trkpt lat="31.759716034" lon="35.302875519">
  <ele>434.322754</ele>
  <time>2011-11-18T06:38:09Z</time>
  <speed>2.600000</speed>
</trkpt>
<trkpt lat="31.759719849" lon="35.302917480">
  <ele>433.791504</ele>
  <time>2011-11-18T06:38:11Z</time>
  <speed>2.010000</speed>
</trkpt>
<trkpt lat="31.759721756" lon="35.302951813">
  <ele>433.393066</ele>
  <time>2011-11-18T06:38:13Z</time>
  <speed>2.110000</speed>
</trkpt>
<trkpt lat="31.759727478" lon="35.303001404">
  <ele>433.299316</ele>
  <time>2011-11-18T06:38:15Z</time>
  <speed>2.340000</speed>
</trkpt>
<trkpt lat="31.759712219" lon="35.303039551">
  <ele>432.596191</ele>
  <time>2011-11-18T06:38:17Z</time>
  <speed>1.950000</speed>
</trkpt>
<trkpt lat="31.759706497" lon="35.303073883">
  <ele>433.166504</ele>
  <time>2011-11-18T06:38:19Z</time>
  <speed>1.260000</speed>
</trkpt>
<trkpt lat="31.759696960" lon="35.303115845">
  <ele>433.549316</ele>
  <time>2011-11-18T06:38:22Z</time>
  <speed>1.810000</speed>
</trkpt>
<trkpt lat="31.759706497" lon="35.303146362">
  <ele>433.846191</ele>
  <time>2011-11-18T06:38:24Z</time>
  <speed>1.010000</speed>
</trkpt>
<trkpt lat="31.759712219" lon="35.303180695">
  <ele>434.533691</ele>
  <time>2011-11-18T06:38:55Z</time>
  <speed>2.310000</speed>
</trkpt>
<trkpt lat="31.759719849" lon="35.303237915">
  <ele>434.494629</ele>
  <time>2011-11-18T06:38:57Z</time>
  <speed>2.700000</speed>
</trkpt>
<trkpt lat="31.759716034" lon="35.303272247">
  <ele>434.494629</ele>
  <time>2011-11-18T06:38:58Z</time>
  <speed>2.680000</speed>
</trkpt>
<trkpt lat="31.759723663" lon="35.303306580">
  <ele>434.393066</ele>
  <time>2011-11-18T06:38:59Z</time>
  <speed>3.190000</speed>
</trkpt>
<trkpt lat="31.759729385" lon="35.303340912">
  <ele>434.393066</ele>
  <time>2011-11-18T06:39:00Z</time>
  <speed>3.120000</speed>
</trkpt>
<trkpt lat="31.759738922" lon="35.303375244">
  <ele>434.299316</ele>
  <time>2011-11-18T06:39:01Z</time>
  <speed>3.210000</speed>
</trkpt>
<trkpt lat="31.759742737" lon="35.303413391">
  <ele>434.064941</ele>
  <time>2011-11-18T06:39:02Z</time>
  <speed>3.030000</speed>
</trkpt>
<trkpt lat="31.759744644" lon="35.303451538">
  <ele>433.736816</ele>
  <time>2011-11-18T06:39:03Z</time>
  <speed>2.960000</speed>
</trkpt>
<trkpt lat="31.759756088" lon="35.303482056">
  <ele>433.463379</ele>
  <time>2011-11-18T06:39:04Z</time>
  <speed>3.260000</speed>
</trkpt>
<trkpt lat="31.759769440" lon="35.303516388">
  <ele>432.830566</ele>
  <time>2011-11-18T06:39:05Z</time>
  <speed>3.800000</speed>
</trkpt>
<trkpt lat="31.759780884" lon="35.303558350">
  <ele>432.135254</ele>
  <time>2011-11-18T06:39:06Z</time>
  <speed>4.000000</speed>
</trkpt>
<trkpt lat="31.759798050" lon="35.303604126">
  <ele>431.908691</ele>
  <time>2011-11-18T06:39:07Z</time>
  <speed>4.210000</speed>
</trkpt>
<trkpt lat="31.759820938" lon="35.303646088">
  <ele>432.002441</ele>
  <time>2011-11-18T06:39:08Z</time>
  <speed>4.700000</speed>
</trkpt>
<trkpt lat="31.759836197" lon="35.303695679">
  <ele>431.674316</ele>
  <time>2011-11-18T06:39:09Z</time>
  <speed>5.030000</speed>
</trkpt>
<trkpt lat="31.759847641" lon="35.303745270">
  <ele>431.518066</ele>
  <time>2011-11-18T06:39:10Z</time>
  <speed>5.240000</speed>
</trkpt>
<trkpt lat="31.759860992" lon="35.303802490">
  <ele>431.572754</ele>
  <time>2011-11-18T06:39:11Z</time>
  <speed>5.020000</speed>
</trkpt>
<trkpt lat="31.759872437" lon="35.303852081">
  <ele>431.244629</ele>
  <time>2011-11-18T06:39:12Z</time>
  <speed>5.180000</speed>
</trkpt>
<trkpt lat="31.759881973" lon="35.303905487">
  <ele>430.979004</ele>
  <time>2011-11-18T06:39:13Z</time>
  <speed>4.960000</speed>
</trkpt>
<trkpt lat="31.759897232" lon="35.303955078">
  <ele>431.088379</ele>
  <time>2011-11-18T06:39:14Z</time>
  <speed>4.960000</speed>
</trkpt>
<trkpt lat="31.759908676" lon="35.304008484">
  <ele>431.213379</ele>
  <time>2011-11-18T06:39:15Z</time>
  <speed>4.430000</speed>
</trkpt>
<trkpt lat="31.759923935" lon="35.304042816">
  <ele>431.447754</ele>
  <time>2011-11-18T06:39:16Z</time>
  <speed>3.430000</speed>
</trkpt>
<trkpt lat="31.759931564" lon="35.304077148">
  <ele>431.439941</ele>
  <time>2011-11-18T06:39:17Z</time>
  <speed>3.310000</speed>
</trkpt>
<trkpt lat="31.759948730" lon="35.304122925">
  <ele>431.666504</ele>
  <time>2011-11-18T06:39:19Z</time>
  <speed>2.770000</speed>
</trkpt>
<trkpt lat="31.759962082" lon="35.304149628">
  <ele>431.564941</ele>
  <time>2011-11-18T06:39:20Z</time>
  <speed>3.060000</speed>
</trkpt>
<trkpt lat="31.759977341" lon="35.304180145">
  <ele>431.400879</ele>
  <time>2011-11-18T06:39:21Z</time>
  <speed>3.440000</speed>
</trkpt>
<trkpt lat="31.759996414" lon="35.304210663">
  <ele>431.033691</ele>
  <time>2011-11-18T06:39:22Z</time>
  <speed>3.460000</speed>
</trkpt>
<trkpt lat="31.760017395" lon="35.304241180">
  <ele>430.705566</ele>
  <time>2011-11-18T06:39:23Z</time>
  <speed>3.560000</speed>
</trkpt>
<trkpt lat="31.760038376" lon="35.304271698">
  <ele>430.541504</ele>
  <time>2011-11-18T06:39:24Z</time>
  <speed>3.780000</speed>
</trkpt>
<trkpt lat="31.760055542" lon="35.304298401">
  <ele>430.416504</ele>
  <time>2011-11-18T06:39:25Z</time>
  <speed>3.850000</speed>
</trkpt>
<trkpt lat="31.760074615" lon="35.304328918">
  <ele>430.611816</ele>
  <time>2011-11-18T06:39:26Z</time>
  <speed>3.100000</speed>
</trkpt>
<trkpt lat="31.760091782" lon="35.304382324">
  <ele>430.713379</ele>
  <time>2011-11-18T06:39:28Z</time>
  <speed>2.850000</speed>
</trkpt>
<trkpt lat="31.760105133" lon="35.304443359">
  <ele>429.822754</ele>
  <time>2011-11-18T06:39:30Z</time>
  <speed>2.970000</speed>
</trkpt>
<trkpt lat="31.760099411" lon="35.304500580">
  <ele>429.768066</ele>
  <time>2011-11-18T06:39:32Z</time>
  <speed>2.900000</speed>
</trkpt>
<trkpt lat="31.760087967" lon="35.304553986">
  <ele>430.221191</ele>
  <time>2011-11-18T06:39:34Z</time>
  <speed>2.390000</speed>
</trkpt>
<trkpt lat="31.760095596" lon="35.304607391">
  <ele>429.580566</ele>
  <time>2011-11-18T06:39:36Z</time>
  <speed>2.630000</speed>
</trkpt>
<trkpt lat="31.760116577" lon="35.304656982">
  <ele>428.838379</ele>
  <time>2011-11-18T06:39:38Z</time>
  <speed>2.580000</speed>
</trkpt>
<trkpt lat="31.760152817" lon="35.304695129">
  <ele>428.721191</ele>
  <time>2011-11-18T06:39:40Z</time>
  <speed>2.150000</speed>
</trkpt>
<trkpt lat="31.760168076" lon="35.304737091">
  <ele>429.064941</ele>
  <time>2011-11-18T06:39:42Z</time>
  <speed>2.110000</speed>
</trkpt>
<trkpt lat="31.760190964" lon="35.304786682">
  <ele>429.307129</ele>
  <time>2011-11-18T06:39:44Z</time>
  <speed>2.530000</speed>
</trkpt>
<trkpt lat="31.760219574" lon="35.304840088">
  <ele>429.502441</ele>
  <time>2011-11-18T06:39:46Z</time>
  <speed>2.990000</speed>
</trkpt>
<trkpt lat="31.760244370" lon="35.304897308">
  <ele>429.807129</ele>
  <time>2011-11-18T06:39:48Z</time>
  <speed>3.240000</speed>
</trkpt>
<trkpt lat="31.760263443" lon="35.304946899">
  <ele>430.893066</ele>
  <time>2011-11-18T06:39:50Z</time>
  <speed>2.960000</speed>
</trkpt>
<trkpt lat="31.760292053" lon="35.304996490">
  <ele>431.307129</ele>
  <time>2011-11-18T06:39:52Z</time>
  <speed>2.770000</speed>
</trkpt>
<trkpt lat="31.760335922" lon="35.305027008">
  <ele>431.322754</ele>
  <time>2011-11-18T06:39:54Z</time>
  <speed>2.570000</speed>
</trkpt>
<trkpt lat="31.760374069" lon="35.305057526">
  <ele>431.197754</ele>
  <time>2011-11-18T06:39:56Z</time>
  <speed>2.410000</speed>
</trkpt>
<trkpt lat="31.760395050" lon="35.305095673">
  <ele>430.854004</ele>
  <time>2011-11-18T06:39:58Z</time>
  <speed>2.140000</speed>
</trkpt>
<trkpt lat="31.760442734" lon="35.305126190">
  <ele>431.252441</ele>
  <time>2011-11-18T06:40:00Z</time>
  <speed>2.380000</speed>
</trkpt>
<trkpt lat="31.760475159" lon="35.305137634">
  <ele>431.580566</ele>
  <time>2011-11-18T06:40:02Z</time>
  <speed>1.580000</speed>
</trkpt>
<trkpt lat="31.760503769" lon="35.305141449">
  <ele>431.604004</ele>
  <time>2011-11-18T06:40:04Z</time>
  <speed>2.020000</speed>
</trkpt>
<trkpt lat="31.760538101" lon="35.305160522">
  <ele>431.525879</ele>
  <time>2011-11-18T06:40:06Z</time>
  <speed>2.350000</speed>
</trkpt>
<trkpt lat="31.760570526" lon="35.305194855">
  <ele>431.604004</ele>
  <time>2011-11-18T06:40:08Z</time>
  <speed>2.450000</speed>
</trkpt>
<trkpt lat="31.760606766" lon="35.305236816">
  <ele>432.080566</ele>
  <time>2011-11-18T06:40:10Z</time>
  <speed>2.830000</speed>
</trkpt>
<trkpt lat="31.760629654" lon="35.305255890">
  <ele>432.291504</ele>
  <time>2011-11-18T06:40:11Z</time>
  <speed>2.540000</speed>
</trkpt>
<trkpt lat="31.760658264" lon="35.305290222">
  <ele>432.564941</ele>
  <time>2011-11-18T06:40:13Z</time>
  <speed>2.120000</speed>
</trkpt>
<trkpt lat="31.760686874" lon="35.305332184">
  <ele>432.752441</ele>
  <time>2011-11-18T06:40:15Z</time>
  <speed>2.610000</speed>
</trkpt>
<trkpt lat="31.760705948" lon="35.305374146">
  <ele>433.338379</ele>
  <time>2011-11-18T06:40:17Z</time>
  <speed>2.850000</speed>
</trkpt>
<trkpt lat="31.760723114" lon="35.305400848">
  <ele>433.385254</ele>
  <time>2011-11-18T06:40:18Z</time>
  <speed>2.260000</speed>
</trkpt>
<trkpt lat="31.760749817" lon="35.305416107">
  <ele>433.400879</ele>
  <time>2011-11-18T06:40:20Z</time>
  <speed>0.240000</speed>
</trkpt>
<trkpt lat="31.760770798" lon="35.305438995">
  <ele>433.869629</ele>
  <time>2011-11-18T06:41:17Z</time>
  <speed>2.200000</speed>
</trkpt>
<trkpt lat="31.760795593" lon="35.305496216">
  <ele>433.807129</ele>
  <time>2011-11-18T06:41:19Z</time>
  <speed>3.550000</speed>
</trkpt>
<trkpt lat="31.760808945" lon="35.305526733">
  <ele>433.947754</ele>
  <time>2011-11-18T06:41:20Z</time>
  <speed>3.060000</speed>
</trkpt>
<trkpt lat="31.760816574" lon="35.305564880">
  <ele>433.799316</ele>
  <time>2011-11-18T06:41:21Z</time>
  <speed>3.340000</speed>
</trkpt>
<trkpt lat="31.760831833" lon="35.305599213">
  <ele>434.205566</ele>
  <time>2011-11-18T06:41:22Z</time>
  <speed>3.390000</speed>
</trkpt>
<trkpt lat="31.760845184" lon="35.305637360">
  <ele>434.213379</ele>
  <time>2011-11-18T06:41:23Z</time>
  <speed>3.460000</speed>
</trkpt>
<trkpt lat="31.760858536" lon="35.305671692">
  <ele>434.893066</ele>
  <time>2011-11-18T06:41:24Z</time>
  <speed>3.050000</speed>
</trkpt>
<trkpt lat="31.760868073" lon="35.305702209">
  <ele>434.713379</ele>
  <time>2011-11-18T06:41:25Z</time>
  <speed>3.090000</speed>
</trkpt>
<trkpt lat="31.760873795" lon="35.305740356">
  <ele>434.393066</ele>
  <time>2011-11-18T06:41:26Z</time>
  <speed>3.190000</speed>
</trkpt>
<trkpt lat="31.760881424" lon="35.305778503">
  <ele>434.283691</ele>
  <time>2011-11-18T06:41:27Z</time>
  <speed>3.330000</speed>
</trkpt>
<trkpt lat="31.760883331" lon="35.305809021">
  <ele>434.182129</ele>
  <time>2011-11-18T06:41:28Z</time>
  <speed>3.260000</speed>
</trkpt>
<trkpt lat="31.760889053" lon="35.305843353">
  <ele>434.275879</ele>
  <time>2011-11-18T06:41:29Z</time>
  <speed>3.220000</speed>
</trkpt>
<trkpt lat="31.760890961" lon="35.305900574">
  <ele>434.252441</ele>
  <time>2011-11-18T06:41:31Z</time>
  <speed>2.580000</speed>
</trkpt>
<trkpt lat="31.760898590" lon="35.305931091">
  <ele>434.541504</ele>
  <time>2011-11-18T06:41:32Z</time>
  <speed>2.850000</speed>
</trkpt>
<trkpt lat="31.760910034" lon="35.305988312">
  <ele>434.104004</ele>
  <time>2011-11-18T06:41:34Z</time>
  <speed>3.190000</speed>
</trkpt>
<trkpt lat="31.760915756" lon="35.306018829">
  <ele>434.307129</ele>
  <time>2011-11-18T06:41:35Z</time>
  <speed>2.880000</speed>
</trkpt>
<trkpt lat="31.760938644" lon="35.306076050">
  <ele>434.346191</ele>
  <time>2011-11-18T06:41:37Z</time>
  <speed>3.220000</speed>
</trkpt>
<trkpt lat="31.760955811" lon="35.306125641">
  <ele>433.924316</ele>
  <time>2011-11-18T06:41:39Z</time>
  <speed>2.300000</speed>
</trkpt>
<trkpt lat="31.760980606" lon="35.306152344">
  <ele>434.705566</ele>
  <time>2011-11-18T06:41:41Z</time>
  <speed>1.300000</speed>
</trkpt>
<trkpt lat="31.760999680" lon="35.306179047">
  <ele>435.533691</ele>
  <time>2011-11-18T06:41:43Z</time>
  <speed>1.530000</speed>
</trkpt>
<trkpt lat="31.761007309" lon="35.306209564">
  <ele>434.744629</ele>
  <time>2011-11-18T06:41:48Z</time>
  <speed>0.560000</speed>
</trkpt>
<trkpt lat="31.761039734" lon="35.306205750">
  <ele>434.213379</ele>
  <time>2011-11-18T06:41:56Z</time>
  <speed>0.820000</speed>
</trkpt>
<trkpt lat="31.761072159" lon="35.306205750">
  <ele>435.174316</ele>
  <time>2011-11-18T06:42:00Z</time>
  <speed>0.910000</speed>
</trkpt>
<trkpt lat="31.761102676" lon="35.306209564">
  <ele>436.861816</ele>
  <time>2011-11-18T06:42:03Z</time>
  <speed>0.690000</speed>
</trkpt>
<trkpt lat="31.761135101" lon="35.306209564">
  <ele>436.846191</ele>
  <time>2011-11-18T06:42:08Z</time>
  <speed>0.710000</speed>
</trkpt>
<trkpt lat="31.761161804" lon="35.306209564">
  <ele>437.533691</ele>
  <time>2011-11-18T06:42:13Z</time>
  <speed>0.870000</speed>
</trkpt>
<trkpt lat="31.761196136" lon="35.306217194">
  <ele>438.650879</ele>
  <time>2011-11-18T06:42:17Z</time>
  <speed>1.060000</speed>
</trkpt>
<trkpt lat="31.761217117" lon="35.306232452">
  <ele>438.916504</ele>
  <time>2011-11-18T06:42:19Z</time>
  <speed>0.950000</speed>
</trkpt>
<trkpt lat="31.761240005" lon="35.306259155">
  <ele>439.924316</ele>
  <time>2011-11-18T06:42:23Z</time>
  <speed>1.020000</speed>
</trkpt>
<trkpt lat="31.761262894" lon="35.306262970">
  <ele>441.799316</ele>
  <time>2011-11-18T06:42:27Z</time>
  <speed>0.920000</speed>
</trkpt>
<trkpt lat="31.761295319" lon="35.306274414">
  <ele>442.244629</ele>
  <time>2011-11-18T06:42:33Z</time>
  <speed>0.660000</speed>
</trkpt>
<trkpt lat="31.761323929" lon="35.306293488">
  <ele>442.643066</ele>
  <time>2011-11-18T06:42:37Z</time>
  <speed>0.860000</speed>
</trkpt>
<trkpt lat="31.761339188" lon="35.306335449">
  <ele>443.541504</ele>
  <time>2011-11-18T06:42:41Z</time>
  <speed>0.960000</speed>
</trkpt>
<trkpt lat="31.761365891" lon="35.306354523">
  <ele>443.611816</ele>
  <time>2011-11-18T06:42:45Z</time>
  <speed>1.010000</speed>
</trkpt>
<trkpt lat="31.761392593" lon="35.306358337">
  <ele>443.893066</ele>
  <time>2011-11-18T06:42:49Z</time>
  <speed>0.360000</speed>
</trkpt>
<trkpt lat="31.761426926" lon="35.306346893">
  <ele>445.885254</ele>
  <time>2011-11-18T06:42:55Z</time>
  <speed>0.950000</speed>
</trkpt>
<trkpt lat="31.761461258" lon="35.306365967">
  <ele>446.041504</ele>
  <time>2011-11-18T06:42:58Z</time>
  <speed>0.600000</speed>
</trkpt>
<trkpt lat="31.761478424" lon="35.306392670">
  <ele>446.025879</ele>
  <time>2011-11-18T06:43:04Z</time>
  <speed>0.720000</speed>
</trkpt>
<trkpt lat="31.761470795" lon="35.306427002">
  <ele>446.947754</ele>
  <time>2011-11-18T06:43:11Z</time>
  <speed>0.870000</speed>
</trkpt>
<trkpt lat="31.761484146" lon="35.306472778">
  <ele>447.158691</ele>
  <time>2011-11-18T06:43:13Z</time>
  <speed>2.880000</speed>
</trkpt>
<trkpt lat="31.761489868" lon="35.306503296">
  <ele>447.268066</ele>
  <time>2011-11-18T06:43:14Z</time>
  <speed>2.610000</speed>
</trkpt>
<trkpt lat="31.761512756" lon="35.306522369">
  <ele>447.541504</ele>
  <time>2011-11-18T06:43:15Z</time>
  <speed>2.620000</speed>
</trkpt>
<trkpt lat="31.761528015" lon="35.306579590">
  <ele>447.799316</ele>
  <time>2011-11-18T06:43:17Z</time>
  <speed>2.850000</speed>
</trkpt>
<trkpt lat="31.761537552" lon="35.306610107">
  <ele>447.760254</ele>
  <time>2011-11-18T06:43:18Z</time>
  <speed>2.950000</speed>
</trkpt>
<trkpt lat="31.761548996" lon="35.306640625">
  <ele>447.947754</ele>
  <time>2011-11-18T06:43:19Z</time>
  <speed>2.910000</speed>
</trkpt>
<trkpt lat="31.761569977" lon="35.306697845">
  <ele>448.236816</ele>
  <time>2011-11-18T06:43:21Z</time>
  <speed>3.080000</speed>
</trkpt>
<trkpt lat="31.761577606" lon="35.306732178">
  <ele>448.197754</ele>
  <time>2011-11-18T06:43:22Z</time>
  <speed>3.130000</speed>
</trkpt>
<trkpt lat="31.761589050" lon="35.306766510">
  <ele>448.822754</ele>
  <time>2011-11-18T06:43:23Z</time>
  <speed>3.500000</speed>
</trkpt>
<trkpt lat="31.761613846" lon="35.306793213">
  <ele>448.760254</ele>
  <time>2011-11-18T06:43:24Z</time>
  <speed>3.630000</speed>
</trkpt>
<trkpt lat="31.761650085" lon="35.306835175">
  <ele>448.986816</ele>
  <time>2011-11-18T06:43:26Z</time>
  <speed>2.770000</speed>
</trkpt>
<trkpt lat="31.761661530" lon="35.306865692">
  <ele>448.924316</ele>
  <time>2011-11-18T06:43:27Z</time>
  <speed>2.840000</speed>
</trkpt>
<trkpt lat="31.761672974" lon="35.306896210">
  <ele>449.158691</ele>
  <time>2011-11-18T06:43:28Z</time>
  <speed>3.160000</speed>
</trkpt>
<trkpt lat="31.761692047" lon="35.306922913">
  <ele>448.791504</ele>
  <time>2011-11-18T06:43:29Z</time>
  <speed>3.280000</speed>
</trkpt>
<trkpt lat="31.761709213" lon="35.306945801">
  <ele>448.111816</ele>
  <time>2011-11-18T06:43:30Z</time>
  <speed>3.140000</speed>
</trkpt>
<trkpt lat="31.761722565" lon="35.306980133">
  <ele>448.760254</ele>
  <time>2011-11-18T06:43:31Z</time>
  <speed>3.400000</speed>
</trkpt>
<trkpt lat="31.761737823" lon="35.307010651">
  <ele>449.314941</ele>
  <time>2011-11-18T06:43:32Z</time>
  <speed>3.090000</speed>
</trkpt>
<trkpt lat="31.761753082" lon="35.307041168">
  <ele>449.697754</ele>
  <time>2011-11-18T06:43:33Z</time>
  <speed>3.000000</speed>
</trkpt>
<trkpt lat="31.761781693" lon="35.307071686">
  <ele>449.557129</ele>
  <time>2011-11-18T06:43:35Z</time>
  <speed>2.220000</speed>
</trkpt>
<trkpt lat="31.761804581" lon="35.307125092">
  <ele>451.041504</ele>
  <time>2011-11-18T06:43:37Z</time>
  <speed>2.420000</speed>
</trkpt>
<trkpt lat="31.761840820" lon="35.307155609">
  <ele>450.869629</ele>
  <time>2011-11-18T06:43:39Z</time>
  <speed>3.010000</speed>
</trkpt>
<trkpt lat="31.761857986" lon="35.307209015">
  <ele>451.533691</ele>
  <time>2011-11-18T06:43:41Z</time>
  <speed>2.830000</speed>
</trkpt>
<trkpt lat="31.761873245" lon="35.307258606">
  <ele>451.533691</ele>
  <time>2011-11-18T06:43:43Z</time>
  <speed>2.510000</speed>
</trkpt>
<trkpt lat="31.761899948" lon="35.307308197">
  <ele>451.416504</ele>
  <time>2011-11-18T06:43:45Z</time>
  <speed>3.090000</speed>
</trkpt>
<trkpt lat="31.761917114" lon="35.307334900">
  <ele>451.650879</ele>
  <time>2011-11-18T06:43:46Z</time>
  <speed>3.220000</speed>
</trkpt>
<trkpt lat="31.761926651" lon="35.307373047">
  <ele>451.830566</ele>
  <time>2011-11-18T06:43:47Z</time>
  <speed>3.030000</speed>
</trkpt>
<trkpt lat="31.761940002" lon="35.307403564">
  <ele>452.471191</ele>
  <time>2011-11-18T06:43:48Z</time>
  <speed>2.640000</speed>
</trkpt>
<trkpt lat="31.761968613" lon="35.307430267">
  <ele>452.104004</ele>
  <time>2011-11-18T06:43:50Z</time>
  <speed>2.190000</speed>
</trkpt>
<trkpt lat="31.761957169" lon="35.307460785">
  <ele>451.627441</ele>
  <time>2011-11-18T06:43:51Z</time>
  <speed>2.340000</speed>
</trkpt>
<trkpt lat="31.761981964" lon="35.307521820">
  <ele>452.424316</ele>
  <time>2011-11-18T06:43:53Z</time>
  <speed>2.990000</speed>
</trkpt>
<trkpt lat="31.762002945" lon="35.307582855">
  <ele>452.260254</ele>
  <time>2011-11-18T06:43:55Z</time>
  <speed>3.280000</speed>
</trkpt>
<trkpt lat="31.762020111" lon="35.307609558">
  <ele>452.072754</ele>
  <time>2011-11-18T06:43:56Z</time>
  <speed>3.160000</speed>
</trkpt>
<trkpt lat="31.762022018" lon="35.307647705">
  <ele>452.260254</ele>
  <time>2011-11-18T06:43:57Z</time>
  <speed>3.070000</speed>
</trkpt>
<trkpt lat="31.762023926" lon="35.307685852">
  <ele>453.057129</ele>
  <time>2011-11-18T06:43:58Z</time>
  <speed>2.500000</speed>
</trkpt>
<trkpt lat="31.762025833" lon="35.307735443">
  <ele>452.604004</ele>
  <time>2011-11-18T06:44:00Z</time>
  <speed>2.720000</speed>
</trkpt>
<trkpt lat="31.762037277" lon="35.307796478">
  <ele>453.104004</ele>
  <time>2011-11-18T06:44:02Z</time>
  <speed>2.470000</speed>
</trkpt>
<trkpt lat="31.762060165" lon="35.307838440">
  <ele>453.432129</ele>
  <time>2011-11-18T06:44:04Z</time>
  <speed>2.770000</speed>
</trkpt>
<trkpt lat="31.762088776" lon="35.307888031">
  <ele>453.150879</ele>
  <time>2011-11-18T06:44:06Z</time>
  <speed>2.960000</speed>
</trkpt>
<trkpt lat="31.762115479" lon="35.307929993">
  <ele>452.955566</ele>
  <time>2011-11-18T06:44:08Z</time>
  <speed>2.270000</speed>
</trkpt>
<trkpt lat="31.762130737" lon="35.307971954">
  <ele>452.721191</ele>
  <time>2011-11-18T06:44:10Z</time>
  <speed>2.540000</speed>
</trkpt>
<trkpt lat="31.762144089" lon="35.308025360">
  <ele>452.533691</ele>
  <time>2011-11-18T06:44:12Z</time>
  <speed>3.120000</speed>
</trkpt>
<trkpt lat="31.762163162" lon="35.308082581">
  <ele>451.729004</ele>
  <time>2011-11-18T06:44:14Z</time>
  <speed>3.040000</speed>
</trkpt>
<trkpt lat="31.762168884" lon="35.308135986">
  <ele>450.682129</ele>
  <time>2011-11-18T06:44:16Z</time>
  <speed>3.090000</speed>
</trkpt>
<trkpt lat="31.762168884" lon="35.308166504">
  <ele>450.760254</ele>
  <time>2011-11-18T06:44:17Z</time>
  <speed>2.870000</speed>
</trkpt>
<trkpt lat="31.762168884" lon="35.308219910">
  <ele>451.096191</ele>
  <time>2011-11-18T06:44:19Z</time>
  <speed>2.550000</speed>
</trkpt>
<trkpt lat="31.762176514" lon="35.308277130">
  <ele>450.916504</ele>
  <time>2011-11-18T06:44:21Z</time>
  <speed>2.840000</speed>
</trkpt>
<trkpt lat="31.762172699" lon="35.308334351">
  <ele>450.588379</ele>
  <time>2011-11-18T06:44:23Z</time>
  <speed>2.450000</speed>
</trkpt>
<trkpt lat="31.762163162" lon="35.308372498">
  <ele>449.939941</ele>
  <time>2011-11-18T06:44:25Z</time>
  <speed>1.650000</speed>
</trkpt>
<trkpt lat="31.762184143" lon="35.308414459">
  <ele>450.049316</ele>
  <time>2011-11-18T06:44:28Z</time>
  <speed>2.240000</speed>
</trkpt>
<trkpt lat="31.762199402" lon="35.308460236">
  <ele>451.088379</ele>
  <time>2011-11-18T06:44:30Z</time>
  <speed>2.220000</speed>
</trkpt>
<trkpt lat="31.762229919" lon="35.308506012">
  <ele>451.830566</ele>
  <time>2011-11-18T06:44:32Z</time>
  <speed>2.940000</speed>
</trkpt>
<trkpt lat="31.762239456" lon="35.308532715">
  <ele>452.369629</ele>
  <time>2011-11-18T06:44:33Z</time>
  <speed>2.800000</speed>
</trkpt>
<trkpt lat="31.762271881" lon="35.308574677">
  <ele>451.721191</ele>
  <time>2011-11-18T06:44:35Z</time>
  <speed>2.290000</speed>
</trkpt>
<trkpt lat="31.762304306" lon="35.308601379">
  <ele>451.744629</ele>
  <time>2011-11-18T06:44:37Z</time>
  <speed>2.340000</speed>
</trkpt>
<trkpt lat="31.762329102" lon="35.308643341">
  <ele>451.330566</ele>
  <time>2011-11-18T06:44:39Z</time>
  <speed>2.520000</speed>
</trkpt>
<trkpt lat="31.762351990" lon="35.308689117">
  <ele>450.846191</ele>
  <time>2011-11-18T06:44:41Z</time>
  <speed>3.080000</speed>
</trkpt>
<trkpt lat="31.762365341" lon="35.308719635">
  <ele>450.705566</ele>
  <time>2011-11-18T06:44:42Z</time>
  <speed>3.440000</speed>
</trkpt>
<trkpt lat="31.762378693" lon="35.308750153">
  <ele>450.549316</ele>
  <time>2011-11-18T06:44:43Z</time>
  <speed>3.490000</speed>
</trkpt>
<trkpt lat="31.762390137" lon="35.308776855">
  <ele>450.658691</ele>
  <time>2011-11-18T06:44:44Z</time>
  <speed>2.980000</speed>
</trkpt>
<trkpt lat="31.762407303" lon="35.308837891">
  <ele>450.713379</ele>
  <time>2011-11-18T06:44:46Z</time>
  <speed>2.630000</speed>
</trkpt>
<trkpt lat="31.762407303" lon="35.308887482">
  <ele>450.213379</ele>
  <time>2011-11-18T06:44:48Z</time>
  <speed>2.180000</speed>
</trkpt>
<trkpt lat="31.762403488" lon="35.308929443">
  <ele>449.775879</ele>
  <time>2011-11-18T06:44:50Z</time>
  <speed>2.170000</speed>
</trkpt>
<trkpt lat="31.762407303" lon="35.308994293">
  <ele>449.533691</ele>
  <time>2011-11-18T06:44:52Z</time>
  <speed>2.890000</speed>
</trkpt>
<trkpt lat="31.762414932" lon="35.309024811">
  <ele>449.916504</ele>
  <time>2011-11-18T06:44:53Z</time>
  <speed>3.270000</speed>
</trkpt>
<trkpt lat="31.762420654" lon="35.309059143">
  <ele>449.791504</ele>
  <time>2011-11-18T06:44:54Z</time>
  <speed>3.330000</speed>
</trkpt>
<trkpt lat="31.762435913" lon="35.309120178">
  <ele>449.189941</ele>
  <time>2011-11-18T06:44:56Z</time>
  <speed>3.410000</speed>
</trkpt>
<trkpt lat="31.762445450" lon="35.309154510">
  <ele>449.322754</ele>
  <time>2011-11-18T06:44:57Z</time>
  <speed>3.670000</speed>
</trkpt>
<trkpt lat="31.762451172" lon="35.309196472">
  <ele>448.846191</ele>
  <time>2011-11-18T06:44:58Z</time>
  <speed>3.890000</speed>
</trkpt>
<trkpt lat="31.762466431" lon="35.309230804">
  <ele>448.822754</ele>
  <time>2011-11-18T06:44:59Z</time>
  <speed>3.400000</speed>
</trkpt>
<trkpt lat="31.762481689" lon="35.309268951">
  <ele>449.057129</ele>
  <time>2011-11-18T06:45:00Z</time>
  <speed>3.320000</speed>
</trkpt>
<trkpt lat="31.762504578" lon="35.309291840">
  <ele>449.018066</ele>
  <time>2011-11-18T06:45:01Z</time>
  <speed>2.980000</speed>
</trkpt>
<trkpt lat="31.762525558" lon="35.309345245">
  <ele>449.213379</ele>
  <time>2011-11-18T06:45:03Z</time>
  <speed>2.870000</speed>
</trkpt>
<trkpt lat="31.762542725" lon="35.309402466">
  <ele>448.947754</ele>
  <time>2011-11-18T06:45:05Z</time>
  <speed>2.500000</speed>
</trkpt>
<trkpt lat="31.762556076" lon="35.309452057">
  <ele>448.213379</ele>
  <time>2011-11-18T06:45:07Z</time>
  <speed>2.480000</speed>
</trkpt>
<trkpt lat="31.762569427" lon="35.309505463">
  <ele>448.369629</ele>
  <time>2011-11-18T06:45:09Z</time>
  <speed>2.770000</speed>
</trkpt>
<trkpt lat="31.762571335" lon="35.309539795">
  <ele>448.197754</ele>
  <time>2011-11-18T06:45:10Z</time>
  <speed>3.160000</speed>
</trkpt>
<trkpt lat="31.762575150" lon="35.309577942">
  <ele>448.307129</ele>
  <time>2011-11-18T06:45:11Z</time>
  <speed>3.770000</speed>
</trkpt>
<trkpt lat="31.762577057" lon="35.309616089">
  <ele>447.877441</ele>
  <time>2011-11-18T06:45:12Z</time>
  <speed>3.600000</speed>
</trkpt>
<trkpt lat="31.762578964" lon="35.309658051">
  <ele>447.768066</ele>
  <time>2011-11-18T06:45:13Z</time>
  <speed>3.510000</speed>
</trkpt>
<trkpt lat="31.762575150" lon="35.309722900">
  <ele>447.830566</ele>
  <time>2011-11-18T06:45:15Z</time>
  <speed>2.960000</speed>
</trkpt>
<trkpt lat="31.762580872" lon="35.309776306">
  <ele>448.033691</ele>
  <time>2011-11-18T06:45:17Z</time>
  <speed>3.070000</speed>
</trkpt>
<trkpt lat="31.762578964" lon="35.309810638">
  <ele>448.408691</ele>
  <time>2011-11-18T06:45:18Z</time>
  <speed>3.210000</speed>
</trkpt>
<trkpt lat="31.762575150" lon="35.309844971">
  <ele>448.689941</ele>
  <time>2011-11-18T06:45:19Z</time>
  <speed>3.370000</speed>
</trkpt>
<trkpt lat="31.762578964" lon="35.309875488">
  <ele>448.541504</ele>
  <time>2011-11-18T06:45:20Z</time>
  <speed>3.270000</speed>
</trkpt>
<trkpt lat="31.762578964" lon="35.309917450">
  <ele>447.971191</ele>
  <time>2011-11-18T06:45:21Z</time>
  <speed>3.510000</speed>
</trkpt>
<trkpt lat="31.762573242" lon="35.309947968">
  <ele>447.580566</ele>
  <time>2011-11-18T06:45:22Z</time>
  <speed>3.200000</speed>
</trkpt>
<trkpt lat="31.762573242" lon="35.309982300">
  <ele>446.799316</ele>
  <time>2011-11-18T06:45:23Z</time>
  <speed>3.770000</speed>
</trkpt>
<trkpt lat="31.762575150" lon="35.310024261">
  <ele>446.189941</ele>
  <time>2011-11-18T06:45:24Z</time>
  <speed>3.720000</speed>
</trkpt>
<trkpt lat="31.762573242" lon="35.310058594">
  <ele>445.158691</ele>
  <time>2011-11-18T06:45:25Z</time>
  <speed>2.730000</speed>
</trkpt>
<trkpt lat="31.762561798" lon="35.310104370">
  <ele>444.111816</ele>
  <time>2011-11-18T06:45:27Z</time>
  <speed>2.100000</speed>
</trkpt>
<trkpt lat="31.762557983" lon="35.310157776">
  <ele>443.346191</ele>
  <time>2011-11-18T06:45:29Z</time>
  <speed>2.670000</speed>
</trkpt>
<trkpt lat="31.762563705" lon="35.310218811">
  <ele>442.791504</ele>
  <time>2011-11-18T06:45:31Z</time>
  <speed>3.700000</speed>
</trkpt>
<trkpt lat="31.762565613" lon="35.310256958">
  <ele>441.947754</ele>
  <time>2011-11-18T06:45:32Z</time>
  <speed>3.600000</speed>
</trkpt>
<trkpt lat="31.762567520" lon="35.310295105">
  <ele>442.025879</ele>
  <time>2011-11-18T06:45:33Z</time>
  <speed>3.340000</speed>
</trkpt>
<trkpt lat="31.762573242" lon="35.310329437">
  <ele>441.541504</ele>
  <time>2011-11-18T06:45:34Z</time>
  <speed>3.440000</speed>
</trkpt>
<trkpt lat="31.762580872" lon="35.310386658">
  <ele>440.104004</ele>
  <time>2011-11-18T06:45:36Z</time>
  <speed>3.330000</speed>
</trkpt>
<trkpt lat="31.762584686" lon="35.310420990">
  <ele>439.182129</ele>
  <time>2011-11-18T06:45:37Z</time>
  <speed>3.570000</speed>
</trkpt>
<trkpt lat="31.762584686" lon="35.310451508">
  <ele>438.143066</ele>
  <time>2011-11-18T06:45:38Z</time>
  <speed>3.560000</speed>
</trkpt>
<trkpt lat="31.762569427" lon="35.310504913">
  <ele>437.416504</ele>
  <time>2011-11-18T06:45:40Z</time>
  <speed>2.170000</speed>
</trkpt>
<trkpt lat="31.762561798" lon="35.310554504">
  <ele>436.127441</ele>
  <time>2011-11-18T06:45:42Z</time>
  <speed>2.690000</speed>
</trkpt>
<trkpt lat="31.762554169" lon="35.310604095">
  <ele>436.104004</ele>
  <time>2011-11-18T06:45:44Z</time>
  <speed>2.450000</speed>
</trkpt>
<trkpt lat="31.762550354" lon="35.310653687">
  <ele>436.736816</ele>
  <time>2011-11-18T06:45:46Z</time>
  <speed>1.590000</speed>
</trkpt>
<trkpt lat="31.762550354" lon="35.310688019">
  <ele>437.291504</ele>
  <time>2011-11-18T06:45:48Z</time>
  <speed>1.480000</speed>
</trkpt>
<trkpt lat="31.762565613" lon="35.310722351">
  <ele>438.525879</ele>
  <time>2011-11-18T06:45:56Z</time>
  <speed>2.030000</speed>
</trkpt>
<trkpt lat="31.762567520" lon="35.310771942">
  <ele>438.697754</ele>
  <time>2011-11-18T06:45:58Z</time>
  <speed>2.530000</speed>
</trkpt>
<trkpt lat="31.762577057" lon="35.310829163">
  <ele>439.643066</ele>
  <time>2011-11-18T06:46:00Z</time>
  <speed>3.040000</speed>
</trkpt>
<trkpt lat="31.762584686" lon="35.310859680">
  <ele>439.900879</ele>
  <time>2011-11-18T06:46:01Z</time>
  <speed>3.060000</speed>
</trkpt>
<trkpt lat="31.762588501" lon="35.310924530">
  <ele>439.939941</ele>
  <time>2011-11-18T06:46:03Z</time>
  <speed>2.990000</speed>
</trkpt>
<trkpt lat="31.762588501" lon="35.310955048">
  <ele>439.791504</ele>
  <time>2011-11-18T06:46:04Z</time>
  <speed>2.770000</speed>
</trkpt>
<trkpt lat="31.762580872" lon="35.311004639">
  <ele>439.705566</ele>
  <time>2011-11-18T06:46:06Z</time>
  <speed>1.950000</speed>
</trkpt>
<trkpt lat="31.762573242" lon="35.311042786">
  <ele>439.705566</ele>
  <time>2011-11-18T06:46:08Z</time>
  <speed>1.380000</speed>
</trkpt>
<trkpt lat="31.762557983" lon="35.311069489">
  <ele>440.783691</ele>
  <time>2011-11-18T06:46:13Z</time>
  <speed>0.480000</speed>
</trkpt>
<trkpt lat="31.762546539" lon="35.311103821">
  <ele>441.229004</ele>
  <time>2011-11-18T06:46:16Z</time>
  <speed>1.290000</speed>
</trkpt>
<trkpt lat="31.762527466" lon="35.311130524">
  <ele>440.885254</ele>
  <time>2011-11-18T06:46:19Z</time>
  <speed>0.150000</speed>
</trkpt>
<trkpt lat="31.762527466" lon="35.311168671">
  <ele>441.049316</ele>
  <time>2011-11-18T06:46:28Z</time>
  <speed>1.320000</speed>
</trkpt>
<trkpt lat="31.762525558" lon="35.311210632">
  <ele>442.127441</ele>
  <time>2011-11-18T06:46:30Z</time>
  <speed>1.520000</speed>
</trkpt>
<trkpt lat="31.762529373" lon="35.311241150">
  <ele>442.268066</ele>
  <time>2011-11-18T06:46:33Z</time>
  <speed>0.890000</speed>
</trkpt>
<trkpt lat="31.762546539" lon="35.311275482">
  <ele>441.479004</ele>
  <time>2011-11-18T06:46:37Z</time>
  <speed>0.710000</speed>
</trkpt>
<trkpt lat="31.762540817" lon="35.311306000">
  <ele>440.869629</ele>
  <time>2011-11-18T06:46:40Z</time>
  <speed>0.380000</speed>
</trkpt>
<trkpt lat="31.762550354" lon="35.311332703">
  <ele>441.564941</ele>
  <time>2011-11-18T06:48:45Z</time>
  <speed>1.180000</speed>
</trkpt>
<trkpt lat="31.762567520" lon="35.311355591">
  <ele>440.338379</ele>
  <time>2011-11-18T06:48:48Z</time>
  <speed>0.230000</speed>
</trkpt>
<trkpt lat="31.762563705" lon="35.311397552">
  <ele>440.697754</ele>
  <time>2011-11-18T06:48:51Z</time>
  <speed>1.840000</speed>
</trkpt>
<trkpt lat="31.762559891" lon="35.311439514">
  <ele>441.080566</ele>
  <time>2011-11-18T06:48:53Z</time>
  <speed>2.170000</speed>
</trkpt>
<trkpt lat="31.762554169" lon="35.311489105">
  <ele>441.322754</ele>
  <time>2011-11-18T06:48:55Z</time>
  <speed>2.620000</speed>
</trkpt>
<trkpt lat="31.762544632" lon="35.311553955">
  <ele>440.986816</ele>
  <time>2011-11-18T06:48:57Z</time>
  <speed>3.200000</speed>
</trkpt>
<trkpt lat="31.762544632" lon="35.311592102">
  <ele>441.182129</ele>
  <time>2011-11-18T06:48:58Z</time>
  <speed>3.210000</speed>
</trkpt>
<trkpt lat="31.762546539" lon="35.311626434">
  <ele>441.447754</ele>
  <time>2011-11-18T06:48:59Z</time>
  <speed>3.150000</speed>
</trkpt>
<trkpt lat="31.762542725" lon="35.311664581">
  <ele>441.541504</ele>
  <time>2011-11-18T06:49:00Z</time>
  <speed>3.400000</speed>
</trkpt>
<trkpt lat="31.762537003" lon="35.311702728">
  <ele>441.393066</ele>
  <time>2011-11-18T06:49:01Z</time>
  <speed>3.280000</speed>
</trkpt>
<trkpt lat="31.762523651" lon="35.311733246">
  <ele>441.330566</ele>
  <time>2011-11-18T06:49:02Z</time>
  <speed>2.790000</speed>
</trkpt>
<trkpt lat="31.762523651" lon="35.311767578">
  <ele>441.752441</ele>
  <time>2011-11-18T06:49:03Z</time>
  <speed>2.380000</speed>
</trkpt>
<trkpt lat="31.762517929" lon="35.311813354">
  <ele>442.463379</ele>
  <time>2011-11-18T06:49:05Z</time>
  <speed>2.110000</speed>
</trkpt>
<trkpt lat="31.762514114" lon="35.311862946">
  <ele>441.213379</ele>
  <time>2011-11-18T06:49:07Z</time>
  <speed>2.560000</speed>
</trkpt>
<trkpt lat="31.762523651" lon="35.311904907">
  <ele>441.229004</ele>
  <time>2011-11-18T06:49:09Z</time>
  <speed>1.360000</speed>
</trkpt>
<trkpt lat="31.762542725" lon="35.311931610">
  <ele>441.705566</ele>
  <time>2011-11-18T06:49:12Z</time>
  <speed>1.450000</speed>
</trkpt>
<trkpt lat="31.762556076" lon="35.311969757">
  <ele>441.635254</ele>
  <time>2011-11-18T06:49:15Z</time>
  <speed>1.320000</speed>
</trkpt>
<trkpt lat="31.762569427" lon="35.312007904">
  <ele>442.354004</ele>
  <time>2011-11-18T06:49:18Z</time>
  <speed>1.410000</speed>
</trkpt>
<trkpt lat="31.762575150" lon="35.312038422">
  <ele>442.650879</ele>
  <time>2011-11-18T06:49:20Z</time>
  <speed>1.400000</speed>
</trkpt>
<trkpt lat="31.762578964" lon="35.312076569">
  <ele>443.486816</ele>
  <time>2011-11-18T06:49:24Z</time>
  <speed>1.040000</speed>
</trkpt>
<trkpt lat="31.762578964" lon="35.312114716">
  <ele>443.986816</ele>
  <time>2011-11-18T06:49:27Z</time>
  <speed>1.170000</speed>
</trkpt>
<trkpt lat="31.762573242" lon="35.312152863">
  <ele>443.900879</ele>
  <time>2011-11-18T06:49:30Z</time>
  <speed>1.210000</speed>
</trkpt>
<trkpt lat="31.762578964" lon="35.312191010">
  <ele>443.854004</ele>
  <time>2011-11-18T06:49:32Z</time>
  <speed>1.330000</speed>
</trkpt>
<trkpt lat="31.762580872" lon="35.312225342">
  <ele>443.307129</ele>
  <time>2011-11-18T06:49:35Z</time>
  <speed>0.760000</speed>
</trkpt>
<trkpt lat="31.762588501" lon="35.312255859">
  <ele>441.729004</ele>
  <time>2011-11-18T06:49:39Z</time>
  <speed>1.510000</speed>
</trkpt>
<trkpt lat="31.762573242" lon="35.312297821">
  <ele>441.510254</ele>
  <time>2011-11-18T06:49:41Z</time>
  <speed>2.460000</speed>
</trkpt>
<trkpt lat="31.762548447" lon="35.312358856">
  <ele>440.838379</ele>
  <time>2011-11-18T06:49:43Z</time>
  <speed>2.980000</speed>
</trkpt>
<trkpt lat="31.762538910" lon="35.312412262">
  <ele>440.885254</ele>
  <time>2011-11-18T06:49:45Z</time>
  <speed>2.290000</speed>
</trkpt>
<trkpt lat="31.762527466" lon="35.312465668">
  <ele>440.479004</ele>
  <time>2011-11-18T06:49:47Z</time>
  <speed>2.670000</speed>
</trkpt>
<trkpt lat="31.762504578" lon="35.312519073">
  <ele>440.424316</ele>
  <time>2011-11-18T06:49:49Z</time>
  <speed>2.460000</speed>
</trkpt>
<trkpt lat="31.762493134" lon="35.312576294">
  <ele>440.291504</ele>
  <time>2011-11-18T06:49:51Z</time>
  <speed>3.050000</speed>
</trkpt>
<trkpt lat="31.762485504" lon="35.312641144">
  <ele>440.666504</ele>
  <time>2011-11-18T06:49:53Z</time>
  <speed>2.950000</speed>
</trkpt>
<trkpt lat="31.762489319" lon="35.312671661">
  <ele>440.932129</ele>
  <time>2011-11-18T06:49:54Z</time>
  <speed>2.890000</speed>
</trkpt>
<trkpt lat="31.762491226" lon="35.312732697">
  <ele>441.229004</ele>
  <time>2011-11-18T06:49:56Z</time>
  <speed>2.510000</speed>
</trkpt>
<trkpt lat="31.762487411" lon="35.312763214">
  <ele>441.314941</ele>
  <time>2011-11-18T06:49:57Z</time>
  <speed>2.930000</speed>
</trkpt>
<trkpt lat="31.762487411" lon="35.312824249">
  <ele>441.166504</ele>
  <time>2011-11-18T06:49:59Z</time>
  <speed>2.390000</speed>
</trkpt>
<trkpt lat="31.762506485" lon="35.312885284">
  <ele>441.533691</ele>
  <time>2011-11-18T06:50:01Z</time>
  <speed>2.840000</speed>
</trkpt>
<trkpt lat="31.762514114" lon="35.312915802">
  <ele>442.010254</ele>
  <time>2011-11-18T06:50:02Z</time>
  <speed>2.620000</speed>
</trkpt>
<trkpt lat="31.762521744" lon="35.312973022">
  <ele>441.385254</ele>
  <time>2011-11-18T06:50:04Z</time>
  <speed>2.670000</speed>
</trkpt>
<trkpt lat="31.762516022" lon="35.313007355">
  <ele>441.127441</ele>
  <time>2011-11-18T06:50:05Z</time>
  <speed>3.040000</speed>
</trkpt>
<trkpt lat="31.762508392" lon="35.313041687">
  <ele>440.760254</ele>
  <time>2011-11-18T06:50:06Z</time>
  <speed>3.330000</speed>
</trkpt>
<trkpt lat="31.762502670" lon="35.313076019">
  <ele>440.705566</ele>
  <time>2011-11-18T06:50:07Z</time>
  <speed>3.360000</speed>
</trkpt>
<trkpt lat="31.762496948" lon="35.313110352">
  <ele>440.635254</ele>
  <time>2011-11-18T06:50:08Z</time>
  <speed>3.540000</speed>
</trkpt>
<trkpt lat="31.762500763" lon="35.313144684">
  <ele>440.463379</ele>
  <time>2011-11-18T06:50:09Z</time>
  <speed>3.460000</speed>
</trkpt>
<trkpt lat="31.762506485" lon="35.313175201">
  <ele>441.072754</ele>
  <time>2011-11-18T06:50:10Z</time>
  <speed>3.230000</speed>
</trkpt>
<trkpt lat="31.762512207" lon="35.313209534">
  <ele>441.564941</ele>
  <time>2011-11-18T06:50:11Z</time>
  <speed>3.220000</speed>
</trkpt>
<trkpt lat="31.762512207" lon="35.313243866">
  <ele>442.002441</ele>
  <time>2011-11-18T06:50:12Z</time>
  <speed>3.710000</speed>
</trkpt>
<trkpt lat="31.762517929" lon="35.313282013">
  <ele>442.096191</ele>
  <time>2011-11-18T06:50:13Z</time>
  <speed>4.010000</speed>
</trkpt>
<trkpt lat="31.762525558" lon="35.313323975">
  <ele>442.174316</ele>
  <time>2011-11-18T06:50:14Z</time>
  <speed>4.330000</speed>
</trkpt>
<trkpt lat="31.762527466" lon="35.313369751">
  <ele>442.119629</ele>
  <time>2011-11-18T06:50:15Z</time>
  <speed>3.810000</speed>
</trkpt>
<trkpt lat="31.762527466" lon="35.313411713">
  <ele>443.143066</ele>
  <time>2011-11-18T06:50:16Z</time>
  <speed>3.850000</speed>
</trkpt>
<trkpt lat="31.762531281" lon="35.313453674">
  <ele>443.518066</ele>
  <time>2011-11-18T06:50:17Z</time>
  <speed>3.890000</speed>
</trkpt>
<trkpt lat="31.762535095" lon="35.313495636">
  <ele>443.705566</ele>
  <time>2011-11-18T06:50:18Z</time>
  <speed>4.000000</speed>
</trkpt>
<trkpt lat="31.762537003" lon="35.313541412">
  <ele>444.072754</ele>
  <time>2011-11-18T06:50:19Z</time>
  <speed>3.610000</speed>
</trkpt>
<trkpt lat="31.762542725" lon="35.313579559">
  <ele>444.369629</ele>
  <time>2011-11-18T06:50:20Z</time>
  <speed>3.770000</speed>
</trkpt>
<trkpt lat="31.762552261" lon="35.313625336">
  <ele>444.314941</ele>
  <time>2011-11-18T06:50:21Z</time>
  <speed>4.220000</speed>
</trkpt>
<trkpt lat="31.762559891" lon="35.313663483">
  <ele>444.104004</ele>
  <time>2011-11-18T06:50:22Z</time>
  <speed>3.360000</speed>
</trkpt>
<trkpt lat="31.762569427" lon="35.313694000">
  <ele>443.377441</ele>
  <time>2011-11-18T06:50:23Z</time>
  <speed>3.140000</speed>
</trkpt>
<trkpt lat="31.762592316" lon="35.313747406">
  <ele>442.385254</ele>
  <time>2011-11-18T06:50:25Z</time>
  <speed>2.910000</speed>
</trkpt>
<trkpt lat="31.762599945" lon="35.313781738">
  <ele>442.486816</ele>
  <time>2011-11-18T06:50:26Z</time>
  <speed>2.910000</speed>
</trkpt>
<trkpt lat="31.762603760" lon="35.313819885">
  <ele>442.463379</ele>
  <time>2011-11-18T06:50:27Z</time>
  <speed>3.630000</speed>
</trkpt>
<trkpt lat="31.762611389" lon="35.313854218">
  <ele>441.729004</ele>
  <time>2011-11-18T06:50:28Z</time>
  <speed>3.430000</speed>
</trkpt>
<trkpt lat="31.762620926" lon="35.313884735">
  <ele>441.869629</ele>
  <time>2011-11-18T06:50:29Z</time>
  <speed>3.050000</speed>
</trkpt>
<trkpt lat="31.762626648" lon="35.313922882">
  <ele>441.752441</ele>
  <time>2011-11-18T06:50:30Z</time>
  <speed>3.420000</speed>
</trkpt>
<trkpt lat="31.762632370" lon="35.313957214">
  <ele>441.947754</ele>
  <time>2011-11-18T06:50:31Z</time>
  <speed>3.140000</speed>
</trkpt>
<trkpt lat="31.762636185" lon="35.313995361">
  <ele>441.932129</ele>
  <time>2011-11-18T06:50:32Z</time>
  <speed>3.410000</speed>
</trkpt>
<trkpt lat="31.762639999" lon="35.314033508">
  <ele>442.283691</ele>
  <time>2011-11-18T06:50:33Z</time>
  <speed>3.020000</speed>
</trkpt>
<trkpt lat="31.762636185" lon="35.314071655">
  <ele>442.213379</ele>
  <time>2011-11-18T06:50:34Z</time>
  <speed>3.520000</speed>
</trkpt>
<trkpt lat="31.762632370" lon="35.314109802">
  <ele>442.752441</ele>
  <time>2011-11-18T06:50:35Z</time>
  <speed>3.820000</speed>
</trkpt>
<trkpt lat="31.762622833" lon="35.314147949">
  <ele>443.104004</ele>
  <time>2011-11-18T06:50:36Z</time>
  <speed>3.530000</speed>
</trkpt>
<trkpt lat="31.762624741" lon="35.314208984">
  <ele>443.494629</ele>
  <time>2011-11-18T06:50:38Z</time>
  <speed>3.170000</speed>
</trkpt>
<trkpt lat="31.762615204" lon="35.314273834">
  <ele>443.955566</ele>
  <time>2011-11-18T06:50:40Z</time>
  <speed>3.280000</speed>
</trkpt>
<trkpt lat="31.762605667" lon="35.314308167">
  <ele>444.455566</ele>
  <time>2011-11-18T06:50:41Z</time>
  <speed>3.260000</speed>
</trkpt>
<trkpt lat="31.762596130" lon="35.314342499">
  <ele>444.658691</ele>
  <time>2011-11-18T06:50:42Z</time>
  <speed>3.200000</speed>
</trkpt>
<trkpt lat="31.762592316" lon="35.314376831">
  <ele>445.260254</ele>
  <time>2011-11-18T06:50:43Z</time>
  <speed>3.530000</speed>
</trkpt>
<trkpt lat="31.762582779" lon="35.314414978">
  <ele>445.658691</ele>
  <time>2011-11-18T06:50:44Z</time>
  <speed>3.450000</speed>
</trkpt>
<trkpt lat="31.762578964" lon="35.314449310">
  <ele>446.377441</ele>
  <time>2011-11-18T06:50:45Z</time>
  <speed>3.010000</speed>
</trkpt>
<trkpt lat="31.762578964" lon="35.314506531">
  <ele>446.182129</ele>
  <time>2011-11-18T06:50:47Z</time>
  <speed>3.090000</speed>
</trkpt>
<trkpt lat="31.762563705" lon="35.314552307">
  <ele>445.354004</ele>
  <time>2011-11-18T06:50:49Z</time>
  <speed>2.470000</speed>
</trkpt>
<trkpt lat="31.762554169" lon="35.314605713">
  <ele>445.650879</ele>
  <time>2011-11-18T06:50:51Z</time>
  <speed>2.880000</speed>
</trkpt>
<trkpt lat="31.762557983" lon="35.314666748">
  <ele>444.721191</ele>
  <time>2011-11-18T06:50:53Z</time>
  <speed>3.120000</speed>
</trkpt>
<trkpt lat="31.762552261" lon="35.314701080">
  <ele>444.791504</ele>
  <time>2011-11-18T06:50:54Z</time>
  <speed>3.620000</speed>
</trkpt>
<trkpt lat="31.762548447" lon="35.314739227">
  <ele>444.955566</ele>
  <time>2011-11-18T06:50:55Z</time>
  <speed>3.590000</speed>
</trkpt>
<trkpt lat="31.762542725" lon="35.314781189">
  <ele>444.814941</ele>
  <time>2011-11-18T06:50:56Z</time>
  <speed>4.040000</speed>
</trkpt>
<trkpt lat="31.762538910" lon="35.314823151">
  <ele>444.869629</ele>
  <time>2011-11-18T06:50:57Z</time>
  <speed>4.520000</speed>
</trkpt>
<trkpt lat="31.762542725" lon="35.314868927">
  <ele>444.963379</ele>
  <time>2011-11-18T06:50:58Z</time>
  <speed>4.540000</speed>
</trkpt>
<trkpt lat="31.762550354" lon="35.314910889">
  <ele>445.158691</ele>
  <time>2011-11-18T06:50:59Z</time>
  <speed>4.410000</speed>
</trkpt>
<trkpt lat="31.762554169" lon="35.314952850">
  <ele>445.314941</ele>
  <time>2011-11-18T06:51:00Z</time>
  <speed>4.050000</speed>
</trkpt>
<trkpt lat="31.762559891" lon="35.314987183">
  <ele>445.322754</ele>
  <time>2011-11-18T06:51:01Z</time>
  <speed>3.510000</speed>
</trkpt>
<trkpt lat="31.762557983" lon="35.315021515">
  <ele>444.939941</ele>
  <time>2011-11-18T06:51:02Z</time>
  <speed>3.400000</speed>
</trkpt>
<trkpt lat="31.762556076" lon="35.315055847">
  <ele>444.846191</ele>
  <time>2011-11-18T06:51:03Z</time>
  <speed>3.470000</speed>
</trkpt>
<trkpt lat="31.762552261" lon="35.315093994">
  <ele>444.541504</ele>
  <time>2011-11-18T06:51:04Z</time>
  <speed>3.450000</speed>
</trkpt>
<trkpt lat="31.762546539" lon="35.315132141">
  <ele>444.393066</ele>
  <time>2011-11-18T06:51:05Z</time>
  <speed>3.730000</speed>
</trkpt>
<trkpt lat="31.762542725" lon="35.315166473">
  <ele>443.650879</ele>
  <time>2011-11-18T06:51:06Z</time>
  <speed>3.000000</speed>
</trkpt>
<trkpt lat="31.762523651" lon="35.315223694">
  <ele>443.307129</ele>
  <time>2011-11-18T06:51:08Z</time>
  <speed>3.370000</speed>
</trkpt>
<trkpt lat="31.762510300" lon="35.315258026">
  <ele>443.143066</ele>
  <time>2011-11-18T06:51:09Z</time>
  <speed>3.610000</speed>
</trkpt>
<trkpt lat="31.762498856" lon="35.315288544">
  <ele>443.166504</ele>
  <time>2011-11-18T06:51:10Z</time>
  <speed>2.720000</speed>
</trkpt>
<trkpt lat="31.762493134" lon="35.315334320">
  <ele>443.143066</ele>
  <time>2011-11-18T06:51:12Z</time>
  <speed>2.180000</speed>
</trkpt>
<trkpt lat="31.762491226" lon="35.315383911">
  <ele>443.713379</ele>
  <time>2011-11-18T06:51:14Z</time>
  <speed>3.000000</speed>
</trkpt>
<trkpt lat="31.762487411" lon="35.315414429">
  <ele>443.994629</ele>
  <time>2011-11-18T06:51:15Z</time>
  <speed>3.260000</speed>
</trkpt>
<trkpt lat="31.762491226" lon="35.315448761">
  <ele>444.588379</ele>
  <time>2011-11-18T06:51:16Z</time>
  <speed>3.280000</speed>
</trkpt>
<trkpt lat="31.762495041" lon="35.315483093">
  <ele>445.322754</ele>
  <time>2011-11-18T06:51:17Z</time>
  <speed>3.300000</speed>
</trkpt>
<trkpt lat="31.762504578" lon="35.315517426">
  <ele>445.322754</ele>
  <time>2011-11-18T06:51:18Z</time>
  <speed>3.380000</speed>
</trkpt>
<trkpt lat="31.762514114" lon="35.315547943">
  <ele>445.416504</ele>
  <time>2011-11-18T06:51:19Z</time>
  <speed>3.280000</speed>
</trkpt>
<trkpt lat="31.762519836" lon="35.315578461">
  <ele>445.486816</ele>
  <time>2011-11-18T06:51:20Z</time>
  <speed>3.120000</speed>
</trkpt>
<trkpt lat="31.762527466" lon="35.315612793">
  <ele>445.627441</ele>
  <time>2011-11-18T06:51:21Z</time>
  <speed>2.840000</speed>
</trkpt>
<trkpt lat="31.762548447" lon="35.315673828">
  <ele>445.096191</ele>
  <time>2011-11-18T06:51:23Z</time>
  <speed>3.220000</speed>
</trkpt>
<trkpt lat="31.762556076" lon="35.315708160">
  <ele>445.041504</ele>
  <time>2011-11-18T06:51:24Z</time>
  <speed>3.610000</speed>
</trkpt>
<trkpt lat="31.762559891" lon="35.315742493">
  <ele>444.705566</ele>
  <time>2011-11-18T06:51:25Z</time>
  <speed>3.560000</speed>
</trkpt>
<trkpt lat="31.762561798" lon="35.315776825">
  <ele>444.697754</ele>
  <time>2011-11-18T06:51:26Z</time>
  <speed>3.660000</speed>
</trkpt>
<trkpt lat="31.762557983" lon="35.315811157">
  <ele>444.463379</ele>
  <time>2011-11-18T06:51:27Z</time>
  <speed>3.730000</speed>
</trkpt>
<trkpt lat="31.762554169" lon="35.315845490">
  <ele>444.400879</ele>
  <time>2011-11-18T06:51:28Z</time>
  <speed>3.140000</speed>
</trkpt>
<trkpt lat="31.762552261" lon="35.315883636">
  <ele>443.869629</ele>
  <time>2011-11-18T06:51:29Z</time>
  <speed>3.350000</speed>
</trkpt>
<trkpt lat="31.762554169" lon="35.315917969">
  <ele>443.619629</ele>
  <time>2011-11-18T06:51:30Z</time>
  <speed>3.420000</speed>
</trkpt>
<trkpt lat="31.762559891" lon="35.315952301">
  <ele>442.994629</ele>
  <time>2011-11-18T06:51:31Z</time>
  <speed>3.270000</speed>
</trkpt>
<trkpt lat="31.762567520" lon="35.315986633">
  <ele>442.455566</ele>
  <time>2011-11-18T06:51:32Z</time>
  <speed>3.720000</speed>
</trkpt>
<trkpt lat="31.762573242" lon="35.316028595">
  <ele>441.854004</ele>
  <time>2011-11-18T06:51:33Z</time>
  <speed>3.830000</speed>
</trkpt>
<trkpt lat="31.762580872" lon="35.316066742">
  <ele>441.736816</ele>
  <time>2011-11-18T06:51:34Z</time>
  <speed>3.800000</speed>
</trkpt>
<trkpt lat="31.762584686" lon="35.316112518">
  <ele>440.861816</ele>
  <time>2011-11-18T06:51:35Z</time>
  <speed>4.020000</speed>
</trkpt>
<trkpt lat="31.762584686" lon="35.316150665">
  <ele>440.486816</ele>
  <time>2011-11-18T06:51:36Z</time>
  <speed>4.060000</speed>
</trkpt>
<trkpt lat="31.762586594" lon="35.316196442">
  <ele>440.119629</ele>
  <time>2011-11-18T06:51:37Z</time>
  <speed>4.370000</speed>
</trkpt>
<trkpt lat="31.762588501" lon="35.316246033">
  <ele>439.994629</ele>
  <time>2011-11-18T06:51:38Z</time>
  <speed>4.580000</speed>
</trkpt>
<trkpt lat="31.762588501" lon="35.316299438">
  <ele>439.736816</ele>
  <time>2011-11-18T06:51:39Z</time>
  <speed>4.740000</speed>
</trkpt>
<trkpt lat="31.762590408" lon="35.316352844">
  <ele>439.791504</ele>
  <time>2011-11-18T06:51:40Z</time>
  <speed>5.340000</speed>
</trkpt>
<trkpt lat="31.762598038" lon="35.316402435">
  <ele>438.900879</ele>
  <time>2011-11-18T06:51:41Z</time>
  <speed>5.390000</speed>
</trkpt>
<trkpt lat="31.762605667" lon="35.316455841">
  <ele>438.635254</ele>
  <time>2011-11-18T06:51:42Z</time>
  <speed>5.730000</speed>
</trkpt>
<trkpt lat="31.762613297" lon="35.316516876">
  <ele>438.525879</ele>
  <time>2011-11-18T06:51:43Z</time>
  <speed>5.770000</speed>
</trkpt>
<trkpt lat="31.762613297" lon="35.316577911">
  <ele>438.502441</ele>
  <time>2011-11-18T06:51:44Z</time>
  <speed>5.930000</speed>
</trkpt>
<trkpt lat="31.762624741" lon="35.316646576">
  <ele>438.283691</ele>
  <time>2011-11-18T06:51:45Z</time>
  <speed>6.460000</speed>
</trkpt>
<trkpt lat="31.762649536" lon="35.316711426">
  <ele>438.143066</ele>
  <time>2011-11-18T06:51:46Z</time>
  <speed>6.490000</speed>
</trkpt>
<trkpt lat="31.762657166" lon="35.316780090">
  <ele>437.916504</ele>
  <time>2011-11-18T06:51:47Z</time>
  <speed>6.450000</speed>
</trkpt>
<trkpt lat="31.762660980" lon="35.316852570">
  <ele>437.611816</ele>
  <time>2011-11-18T06:51:48Z</time>
  <speed>6.750000</speed>
</trkpt>
<trkpt lat="31.762668610" lon="35.316925049">
  <ele>437.861816</ele>
  <time>2011-11-18T06:51:49Z</time>
  <speed>6.970000</speed>
</trkpt>
<trkpt lat="31.762689590" lon="35.316997528">
  <ele>438.674316</ele>
  <time>2011-11-18T06:51:50Z</time>
  <speed>6.980000</speed>
</trkpt>
<trkpt lat="31.762710571" lon="35.317070007">
  <ele>438.947754</ele>
  <time>2011-11-18T06:51:51Z</time>
  <speed>6.940000</speed>
</trkpt>
<trkpt lat="31.762725830" lon="35.317134857">
  <ele>438.619629</ele>
  <time>2011-11-18T06:51:52Z</time>
  <speed>7.030000</speed>
</trkpt>
<trkpt lat="31.762729645" lon="35.317211151">
  <ele>438.557129</ele>
  <time>2011-11-18T06:51:53Z</time>
  <speed>6.740000</speed>
</trkpt>
<trkpt lat="31.762735367" lon="35.317283630">
  <ele>438.697754</ele>
  <time>2011-11-18T06:51:54Z</time>
  <speed>6.530000</speed>
</trkpt>
<trkpt lat="31.762742996" lon="35.317348480">
  <ele>438.408691</ele>
  <time>2011-11-18T06:51:55Z</time>
  <speed>6.320000</speed>
</trkpt>
<trkpt lat="31.762750626" lon="35.317409515">
  <ele>438.307129</ele>
  <time>2011-11-18T06:51:56Z</time>
  <speed>6.160000</speed>
</trkpt>
<trkpt lat="31.762756348" lon="35.317474365">
  <ele>437.979004</ele>
  <time>2011-11-18T06:51:57Z</time>
  <speed>6.190000</speed>
</trkpt>
<trkpt lat="31.762762070" lon="35.317543030">
  <ele>437.822754</ele>
  <time>2011-11-18T06:51:58Z</time>
  <speed>6.580000</speed>
</trkpt>
<trkpt lat="31.762763977" lon="35.317615509">
  <ele>437.369629</ele>
  <time>2011-11-18T06:51:59Z</time>
  <speed>6.340000</speed>
</trkpt>
<trkpt lat="31.762760162" lon="35.317680359">
  <ele>437.346191</ele>
  <time>2011-11-18T06:52:00Z</time>
  <speed>6.170000</speed>
</trkpt>
<trkpt lat="31.762762070" lon="35.317741394">
  <ele>436.893066</ele>
  <time>2011-11-18T06:52:01Z</time>
  <speed>5.680000</speed>
</trkpt>
<trkpt lat="31.762763977" lon="35.317798615">
  <ele>436.502441</ele>
  <time>2011-11-18T06:52:02Z</time>
  <speed>5.110000</speed>
</trkpt>
<trkpt lat="31.762763977" lon="35.317855835">
  <ele>435.721191</ele>
  <time>2011-11-18T06:52:03Z</time>
  <speed>5.040000</speed>
</trkpt>
<trkpt lat="31.762769699" lon="35.317905426">
  <ele>435.479004</ele>
  <time>2011-11-18T06:52:04Z</time>
  <speed>4.790000</speed>
</trkpt>
<trkpt lat="31.762769699" lon="35.317951202">
  <ele>434.822754</ele>
  <time>2011-11-18T06:52:05Z</time>
  <speed>4.640000</speed>
</trkpt>
<trkpt lat="31.762765884" lon="35.318000793">
  <ele>434.588379</ele>
  <time>2011-11-18T06:52:06Z</time>
  <speed>4.900000</speed>
</trkpt>
<trkpt lat="31.762756348" lon="35.318054199">
  <ele>434.588379</ele>
  <time>2011-11-18T06:52:07Z</time>
  <speed>5.250000</speed>
</trkpt>
<trkpt lat="31.762741089" lon="35.318103790">
  <ele>434.588379</ele>
  <time>2011-11-18T06:52:08Z</time>
  <speed>4.700000</speed>
</trkpt>
<trkpt lat="31.762735367" lon="35.318145752">
  <ele>434.322754</ele>
  <time>2011-11-18T06:52:09Z</time>
  <speed>4.400000</speed>
</trkpt>
<trkpt lat="31.762735367" lon="35.318191528">
  <ele>434.471191</ele>
  <time>2011-11-18T06:52:10Z</time>
  <speed>4.350000</speed>
</trkpt>
<trkpt lat="31.762735367" lon="35.318233490">
  <ele>434.330566</ele>
  <time>2011-11-18T06:52:11Z</time>
  <speed>4.460000</speed>
</trkpt>
<trkpt lat="31.762739182" lon="35.318275452">
  <ele>433.971191</ele>
  <time>2011-11-18T06:52:12Z</time>
  <speed>4.070000</speed>
</trkpt>
<trkpt lat="31.762737274" lon="35.318317413">
  <ele>433.393066</ele>
  <time>2011-11-18T06:52:13Z</time>
  <speed>4.530000</speed>
</trkpt>
<trkpt lat="31.762742996" lon="35.318363190">
  <ele>433.432129</ele>
  <time>2011-11-18T06:52:14Z</time>
  <speed>4.590000</speed>
</trkpt>
<trkpt lat="31.762744904" lon="35.318416595">
  <ele>432.994629</ele>
  <time>2011-11-18T06:52:15Z</time>
  <speed>5.100000</speed>
</trkpt>
<trkpt lat="31.762756348" lon="35.318473816">
  <ele>432.908691</ele>
  <time>2011-11-18T06:52:16Z</time>
  <speed>5.140000</speed>
</trkpt>
<trkpt lat="31.762754440" lon="35.318527222">
  <ele>432.346191</ele>
  <time>2011-11-18T06:52:17Z</time>
  <speed>5.420000</speed>
</trkpt>
<trkpt lat="31.762763977" lon="35.318584442">
  <ele>432.471191</ele>
  <time>2011-11-18T06:52:18Z</time>
  <speed>5.820000</speed>
</trkpt>
<trkpt lat="31.762779236" lon="35.318641663">
  <ele>431.916504</ele>
  <time>2011-11-18T06:52:19Z</time>
  <speed>5.890000</speed>
</trkpt>
<trkpt lat="31.762800217" lon="35.318698883">
  <ele>431.252441</ele>
  <time>2011-11-18T06:52:20Z</time>
  <speed>6.280000</speed>
</trkpt>
<trkpt lat="31.762825012" lon="35.318759918">
  <ele>430.674316</ele>
  <time>2011-11-18T06:52:21Z</time>
  <speed>6.480000</speed>
</trkpt>
<trkpt lat="31.762859344" lon="35.318817139">
  <ele>430.502441</ele>
  <time>2011-11-18T06:52:22Z</time>
  <speed>6.330000</speed>
</trkpt>
<trkpt lat="31.762878418" lon="35.318870544">
  <ele>430.369629</ele>
  <time>2011-11-18T06:52:23Z</time>
  <speed>6.430000</speed>
</trkpt>
<trkpt lat="31.762903214" lon="35.318927765">
  <ele>430.330566</ele>
  <time>2011-11-18T06:52:24Z</time>
  <speed>6.090000</speed>
</trkpt>
<trkpt lat="31.762918472" lon="35.318992615">
  <ele>430.213379</ele>
  <time>2011-11-18T06:52:25Z</time>
  <speed>6.290000</speed>
</trkpt>
<trkpt lat="31.762926102" lon="35.319057465">
  <ele>430.479004</ele>
  <time>2011-11-18T06:52:26Z</time>
  <speed>6.070000</speed>
</trkpt>
<trkpt lat="31.762929916" lon="35.319122314">
  <ele>430.471191</ele>
  <time>2011-11-18T06:52:27Z</time>
  <speed>5.670000</speed>
</trkpt>
<trkpt lat="31.762939453" lon="35.319179535">
  <ele>431.354004</ele>
  <time>2011-11-18T06:52:28Z</time>
  <speed>5.270000</speed>
</trkpt>
<trkpt lat="31.762943268" lon="35.319236755">
  <ele>431.221191</ele>
  <time>2011-11-18T06:52:29Z</time>
  <speed>5.520000</speed>
</trkpt>
<trkpt lat="31.762948990" lon="35.319293976">
  <ele>431.385254</ele>
  <time>2011-11-18T06:52:30Z</time>
  <speed>5.720000</speed>
</trkpt>
<trkpt lat="31.762958527" lon="35.319358826">
  <ele>431.525879</ele>
  <time>2011-11-18T06:52:31Z</time>
  <speed>5.730000</speed>
</trkpt>
<trkpt lat="31.762977600" lon="35.319412231">
  <ele>431.471191</ele>
  <time>2011-11-18T06:52:32Z</time>
  <speed>5.080000</speed>
</trkpt>
<trkpt lat="31.763004303" lon="35.319461823">
  <ele>431.135254</ele>
  <time>2011-11-18T06:52:33Z</time>
  <speed>4.800000</speed>
</trkpt>
<trkpt lat="31.763025284" lon="35.319503784">
  <ele>431.096191</ele>
  <time>2011-11-18T06:52:34Z</time>
  <speed>4.650000</speed>
</trkpt>
<trkpt lat="31.763040543" lon="35.319545746">
  <ele>430.533691</ele>
  <time>2011-11-18T06:52:35Z</time>
  <speed>4.420000</speed>
</trkpt>
<trkpt lat="31.763046265" lon="35.319580078">
  <ele>430.643066</ele>
  <time>2011-11-18T06:52:36Z</time>
  <speed>2.470000</speed>
</trkpt>
<trkpt lat="31.763032913" lon="35.319606781">
  <ele>430.994629</ele>
  <time>2011-11-18T06:52:38Z</time>
  <speed>0.340000</speed>
</trkpt>
<trkpt lat="31.763019562" lon="35.319652557">
  <ele>432.510254</ele>
  <time>2011-11-18T06:52:45Z</time>
  <speed>1.940000</speed>
</trkpt>
<trkpt lat="31.763025284" lon="35.319690704">
  <ele>432.971191</ele>
  <time>2011-11-18T06:52:47Z</time>
  <speed>2.120000</speed>
</trkpt>
<trkpt lat="31.763044357" lon="35.319744110">
  <ele>432.518066</ele>
  <time>2011-11-18T06:52:49Z</time>
  <speed>3.080000</speed>
</trkpt>
<trkpt lat="31.763057709" lon="35.319774628">
  <ele>431.916504</ele>
  <time>2011-11-18T06:52:50Z</time>
  <speed>3.660000</speed>
</trkpt>
<trkpt lat="31.763071060" lon="35.319812775">
  <ele>431.760254</ele>
  <time>2011-11-18T06:52:51Z</time>
  <speed>4.130000</speed>
</trkpt>
<trkpt lat="31.763086319" lon="35.319854736">
  <ele>431.361816</ele>
  <time>2011-11-18T06:52:52Z</time>
  <speed>4.610000</speed>
</trkpt>
<trkpt lat="31.763097763" lon="35.319900513">
  <ele>430.541504</ele>
  <time>2011-11-18T06:52:53Z</time>
  <speed>4.860000</speed>
</trkpt>
<trkpt lat="31.763116837" lon="35.319950104">
  <ele>429.760254</ele>
  <time>2011-11-18T06:52:54Z</time>
  <speed>5.440000</speed>
</trkpt>
<trkpt lat="31.763141632" lon="35.320003510">
  <ele>429.221191</ele>
  <time>2011-11-18T06:52:55Z</time>
  <speed>5.890000</speed>
</trkpt>
<trkpt lat="31.763166428" lon="35.320060730">
  <ele>428.549316</ele>
  <time>2011-11-18T06:52:56Z</time>
  <speed>6.450000</speed>
</trkpt>
<trkpt lat="31.763195038" lon="35.320121765">
  <ele>427.885254</ele>
  <time>2011-11-18T06:52:57Z</time>
  <speed>6.850000</speed>
</trkpt>
<trkpt lat="31.763225555" lon="35.320190430">
  <ele>427.393066</ele>
  <time>2011-11-18T06:52:58Z</time>
  <speed>7.210000</speed>
</trkpt>
<trkpt lat="31.763254166" lon="35.320255280">
  <ele>426.369629</ele>
  <time>2011-11-18T06:52:59Z</time>
  <speed>7.270000</speed>
</trkpt>
<trkpt lat="31.763277054" lon="35.320331573">
  <ele>425.541504</ele>
  <time>2011-11-18T06:53:00Z</time>
  <speed>7.640000</speed>
</trkpt>
<trkpt lat="31.763309479" lon="35.320400238">
  <ele>424.893066</ele>
  <time>2011-11-18T06:53:01Z</time>
  <speed>7.330000</speed>
</trkpt>
<trkpt lat="31.763334274" lon="35.320468903">
  <ele>424.635254</ele>
  <time>2011-11-18T06:53:02Z</time>
  <speed>7.230000</speed>
</trkpt>
<trkpt lat="31.763360977" lon="35.320541382">
  <ele>424.354004</ele>
  <time>2011-11-18T06:53:03Z</time>
  <speed>7.800000</speed>
</trkpt>
<trkpt lat="31.763391495" lon="35.320610046">
  <ele>423.424316</ele>
  <time>2011-11-18T06:53:04Z</time>
  <speed>7.720000</speed>
</trkpt>
<trkpt lat="31.763423920" lon="35.320690155">
  <ele>423.463379</ele>
  <time>2011-11-18T06:53:05Z</time>
  <speed>7.940000</speed>
</trkpt>
<trkpt lat="31.763450623" lon="35.320770264">
  <ele>423.486816</ele>
  <time>2011-11-18T06:53:06Z</time>
  <speed>7.590000</speed>
</trkpt>
<trkpt lat="31.763460159" lon="35.320846558">
  <ele>423.330566</ele>
  <time>2011-11-18T06:53:07Z</time>
  <speed>7.560000</speed>
</trkpt>
<trkpt lat="31.763469696" lon="35.320922852">
  <ele>423.369629</ele>
  <time>2011-11-18T06:53:08Z</time>
  <speed>7.140000</speed>
</trkpt>
<trkpt lat="31.763477325" lon="35.320995331">
  <ele>423.463379</ele>
  <time>2011-11-18T06:53:09Z</time>
  <speed>7.190000</speed>
</trkpt>
<trkpt lat="31.763477325" lon="35.321067810">
  <ele>423.377441</ele>
  <time>2011-11-18T06:53:10Z</time>
  <speed>6.370000</speed>
</trkpt>
<trkpt lat="31.763486862" lon="35.321136475">
  <ele>423.869629</ele>
  <time>2011-11-18T06:53:11Z</time>
  <speed>5.990000</speed>
</trkpt>
<trkpt lat="31.763484955" lon="35.321201324">
  <ele>423.752441</ele>
  <time>2011-11-18T06:53:12Z</time>
  <speed>6.150000</speed>
</trkpt>
<trkpt lat="31.763483047" lon="35.321266174">
  <ele>423.760254</ele>
  <time>2011-11-18T06:53:13Z</time>
  <speed>6.530000</speed>
</trkpt>
<trkpt lat="31.763477325" lon="35.321338654">
  <ele>423.229004</ele>
  <time>2011-11-18T06:53:14Z</time>
  <speed>6.220000</speed>
</trkpt>
<trkpt lat="31.763479233" lon="35.321399689">
  <ele>422.791504</ele>
  <time>2011-11-18T06:53:15Z</time>
  <speed>6.160000</speed>
</trkpt>
<trkpt lat="31.763481140" lon="35.321468353">
  <ele>422.744629</ele>
  <time>2011-11-18T06:53:16Z</time>
  <speed>5.790000</speed>
</trkpt>
<trkpt lat="31.763483047" lon="35.321529388">
  <ele>423.041504</ele>
  <time>2011-11-18T06:53:17Z</time>
  <speed>5.490000</speed>
</trkpt>
<trkpt lat="31.763486862" lon="35.321586609">
  <ele>423.166504</ele>
  <time>2011-11-18T06:53:18Z</time>
  <speed>5.440000</speed>
</trkpt>
<trkpt lat="31.763494492" lon="35.321647644">
  <ele>423.658691</ele>
  <time>2011-11-18T06:53:19Z</time>
  <speed>5.500000</speed>
</trkpt>
<trkpt lat="31.763502121" lon="35.321708679">
  <ele>423.338379</ele>
  <time>2011-11-18T06:53:20Z</time>
  <speed>5.650000</speed>
</trkpt>
<trkpt lat="31.763507843" lon="35.321765900">
  <ele>423.377441</ele>
  <time>2011-11-18T06:53:21Z</time>
  <speed>5.230000</speed>
</trkpt>
<trkpt lat="31.763517380" lon="35.321811676">
  <ele>422.947754</ele>
  <time>2011-11-18T06:53:22Z</time>
  <speed>4.560000</speed>
</trkpt>
<trkpt lat="31.763528824" lon="35.321853638">
  <ele>423.041504</ele>
  <time>2011-11-18T06:53:23Z</time>
  <speed>4.900000</speed>
</trkpt>
<trkpt lat="31.763542175" lon="35.321910858">
  <ele>422.885254</ele>
  <time>2011-11-18T06:53:24Z</time>
  <speed>5.450000</speed>
</trkpt>
<trkpt lat="31.763559341" lon="35.321968079">
  <ele>422.760254</ele>
  <time>2011-11-18T06:53:25Z</time>
  <speed>5.570000</speed>
</trkpt>
<trkpt lat="31.763574600" lon="35.322025299">
  <ele>422.252441</ele>
  <time>2011-11-18T06:53:26Z</time>
  <speed>5.610000</speed>
</trkpt>
<trkpt lat="31.763586044" lon="35.322078705">
  <ele>421.924316</ele>
  <time>2011-11-18T06:53:27Z</time>
  <speed>5.720000</speed>
</trkpt>
<trkpt lat="31.763601303" lon="35.322139740">
  <ele>421.479004</ele>
  <time>2011-11-18T06:53:28Z</time>
  <speed>5.790000</speed>
</trkpt>
<trkpt lat="31.763614655" lon="35.322204590">
  <ele>421.221191</ele>
  <time>2011-11-18T06:53:29Z</time>
  <speed>6.130000</speed>
</trkpt>
<trkpt lat="31.763626099" lon="35.322265625">
  <ele>420.760254</ele>
  <time>2011-11-18T06:53:30Z</time>
  <speed>6.350000</speed>
</trkpt>
<trkpt lat="31.763650894" lon="35.322330475">
  <ele>420.471191</ele>
  <time>2011-11-18T06:53:31Z</time>
  <speed>6.800000</speed>
</trkpt>
<trkpt lat="31.763685226" lon="35.322399139">
  <ele>420.049316</ele>
  <time>2011-11-18T06:53:32Z</time>
  <speed>7.110000</speed>
</trkpt>
<trkpt lat="31.763727188" lon="35.322463989">
  <ele>419.979004</ele>
  <time>2011-11-18T06:53:33Z</time>
  <speed>7.600000</speed>
</trkpt>
<trkpt lat="31.763774872" lon="35.322528839">
  <ele>419.447754</ele>
  <time>2011-11-18T06:53:34Z</time>
  <speed>8.320000</speed>
</trkpt>
<trkpt lat="31.763824463" lon="35.322589874">
  <ele>418.986816</ele>
  <time>2011-11-18T06:53:35Z</time>
  <speed>8.250000</speed>
</trkpt>
<trkpt lat="31.763872147" lon="35.322650909">
  <ele>417.947754</ele>
  <time>2011-11-18T06:53:36Z</time>
  <speed>7.930000</speed>
</trkpt>
<trkpt lat="31.763917923" lon="35.322711945">
  <ele>417.393066</ele>
  <time>2011-11-18T06:53:37Z</time>
  <speed>7.500000</speed>
</trkpt>
<trkpt lat="31.763952255" lon="35.322776794">
  <ele>417.213379</ele>
  <time>2011-11-18T06:53:38Z</time>
  <speed>7.230000</speed>
</trkpt>
<trkpt lat="31.763986588" lon="35.322837830">
  <ele>416.627441</ele>
  <time>2011-11-18T06:53:39Z</time>
  <speed>7.550000</speed>
</trkpt>
<trkpt lat="31.764020920" lon="35.322906494">
  <ele>416.104004</ele>
  <time>2011-11-18T06:53:40Z</time>
  <speed>7.760000</speed>
</trkpt>
<trkpt lat="31.764053345" lon="35.322978973">
  <ele>415.354004</ele>
  <time>2011-11-18T06:53:41Z</time>
  <speed>7.700000</speed>
</trkpt>
<trkpt lat="31.764083862" lon="35.323055267">
  <ele>415.088379</ele>
  <time>2011-11-18T06:53:42Z</time>
  <speed>7.710000</speed>
</trkpt>
<trkpt lat="31.764112473" lon="35.323112488">
  <ele>415.377441</ele>
  <time>2011-11-18T06:53:43Z</time>
  <speed>7.300000</speed>
</trkpt>
<trkpt lat="31.764150620" lon="35.323165894">
  <ele>415.143066</ele>
  <time>2011-11-18T06:53:44Z</time>
  <speed>6.670000</speed>
</trkpt>
<trkpt lat="31.764186859" lon="35.323215485">
  <ele>414.627441</ele>
  <time>2011-11-18T06:53:45Z</time>
  <speed>5.970000</speed>
</trkpt>
<trkpt lat="31.764211655" lon="35.323261261">
  <ele>413.174316</ele>
  <time>2011-11-18T06:53:46Z</time>
  <speed>5.620000</speed>
</trkpt>
<trkpt lat="31.764234543" lon="35.323318481">
  <ele>412.689941</ele>
  <time>2011-11-18T06:53:47Z</time>
  <speed>5.250000</speed>
</trkpt>
<trkpt lat="31.764257431" lon="35.323368073">
  <ele>411.729004</ele>
  <time>2011-11-18T06:53:48Z</time>
  <speed>5.680000</speed>
</trkpt>
<trkpt lat="31.764287949" lon="35.323421478">
  <ele>410.885254</ele>
  <time>2011-11-18T06:53:49Z</time>
  <speed>6.210000</speed>
</trkpt>
<trkpt lat="31.764318466" lon="35.323486328">
  <ele>409.916504</ele>
  <time>2011-11-18T06:53:50Z</time>
  <speed>6.670000</speed>
</trkpt>
<trkpt lat="31.764348984" lon="35.323547363">
  <ele>409.252441</ele>
  <time>2011-11-18T06:53:51Z</time>
  <speed>6.920000</speed>
</trkpt>
<trkpt lat="31.764385223" lon="35.323608398">
  <ele>408.455566</ele>
  <time>2011-11-18T06:53:52Z</time>
  <speed>6.990000</speed>
</trkpt>
<trkpt lat="31.764425278" lon="35.323669434">
  <ele>407.189941</ele>
  <time>2011-11-18T06:53:53Z</time>
  <speed>7.390000</speed>
</trkpt>
<trkpt lat="31.764459610" lon="35.323734283">
  <ele>405.533691</ele>
  <time>2011-11-18T06:53:54Z</time>
  <speed>7.490000</speed>
</trkpt>
<trkpt lat="31.764493942" lon="35.323806763">
  <ele>404.018066</ele>
  <time>2011-11-18T06:53:55Z</time>
  <speed>8.050000</speed>
</trkpt>
<trkpt lat="31.764520645" lon="35.323886871">
  <ele>402.650879</ele>
  <time>2011-11-18T06:53:56Z</time>
  <speed>8.330000</speed>
</trkpt>
<trkpt lat="31.764543533" lon="35.323970795">
  <ele>401.189941</ele>
  <time>2011-11-18T06:53:57Z</time>
  <speed>8.310000</speed>
</trkpt>
<trkpt lat="31.764577866" lon="35.324054718">
  <ele>399.400879</ele>
  <time>2011-11-18T06:53:58Z</time>
  <speed>8.790000</speed>
</trkpt>
<trkpt lat="31.764623642" lon="35.324138641">
  <ele>398.236816</ele>
  <time>2011-11-18T06:53:59Z</time>
  <speed>9.430001</speed>
</trkpt>
<trkpt lat="31.764667511" lon="35.324226379">
  <ele>397.229004</ele>
  <time>2011-11-18T06:54:00Z</time>
  <speed>9.350000</speed>
</trkpt>
<trkpt lat="31.764715195" lon="35.324314117">
  <ele>395.721191</ele>
  <time>2011-11-18T06:54:01Z</time>
  <speed>10.050000</speed>
</trkpt>
<trkpt lat="31.764766693" lon="35.324405670">
  <ele>394.580566</ele>
  <time>2011-11-18T06:54:02Z</time>
  <speed>10.170000</speed>
</trkpt>
<trkpt lat="31.764827728" lon="35.324493408">
  <ele>393.752441</ele>
  <time>2011-11-18T06:54:03Z</time>
  <speed>10.540000</speed>
</trkpt>
<trkpt lat="31.764877319" lon="35.324588776">
  <ele>392.549316</ele>
  <time>2011-11-18T06:54:04Z</time>
  <speed>10.050000</speed>
</trkpt>
<trkpt lat="31.764921188" lon="35.324684143">
  <ele>391.697754</ele>
  <time>2011-11-18T06:54:05Z</time>
  <speed>10.020000</speed>
</trkpt>
<trkpt lat="31.764959335" lon="35.324779510">
  <ele>391.221191</ele>
  <time>2011-11-18T06:54:06Z</time>
  <speed>9.460000</speed>
</trkpt>
<trkpt lat="31.764995575" lon="35.324867249">
  <ele>391.650879</ele>
  <time>2011-11-18T06:54:07Z</time>
  <speed>8.750000</speed>
</trkpt>
<trkpt lat="31.765028000" lon="35.324939728">
  <ele>392.760254</ele>
  <time>2011-11-18T06:54:08Z</time>
  <speed>7.190000</speed>
</trkpt>
<trkpt lat="31.765058517" lon="35.324993134">
  <ele>393.236816</ele>
  <time>2011-11-18T06:54:09Z</time>
  <speed>5.510000</speed>
</trkpt>
<trkpt lat="31.765085220" lon="35.325035095">
  <ele>393.416504</ele>
  <time>2011-11-18T06:54:10Z</time>
  <speed>4.940000</speed>
</trkpt>
<trkpt lat="31.765110016" lon="35.325073242">
  <ele>393.861816</ele>
  <time>2011-11-18T06:54:11Z</time>
  <speed>4.740000</speed>
</trkpt>
<trkpt lat="31.765123367" lon="35.325122833">
  <ele>394.760254</ele>
  <time>2011-11-18T06:54:12Z</time>
  <speed>4.590000</speed>
</trkpt>
<trkpt lat="31.765140533" lon="35.325164795">
  <ele>395.635254</ele>
  <time>2011-11-18T06:54:13Z</time>
  <speed>5.060000</speed>
</trkpt>
<trkpt lat="31.765151978" lon="35.325218201">
  <ele>395.510254</ele>
  <time>2011-11-18T06:54:14Z</time>
  <speed>5.530000</speed>
</trkpt>
<trkpt lat="31.765172958" lon="35.325271606">
  <ele>395.541504</ele>
  <time>2011-11-18T06:54:15Z</time>
  <speed>5.340000</speed>
</trkpt>
<trkpt lat="31.765192032" lon="35.325321198">
  <ele>395.275879</ele>
  <time>2011-11-18T06:54:16Z</time>
  <speed>5.390000</speed>
</trkpt>
<trkpt lat="31.765209198" lon="35.325366974">
  <ele>395.189941</ele>
  <time>2011-11-18T06:54:17Z</time>
  <speed>5.400000</speed>
</trkpt>
<trkpt lat="31.765237808" lon="35.325424194">
  <ele>394.994629</ele>
  <time>2011-11-18T06:54:18Z</time>
  <speed>5.600000</speed>
</trkpt>
<trkpt lat="31.765268326" lon="35.325469971">
  <ele>394.682129</ele>
  <time>2011-11-18T06:54:19Z</time>
  <speed>5.650000</speed>
</trkpt>
<trkpt lat="31.765291214" lon="35.325519562">
  <ele>394.049316</ele>
  <time>2011-11-18T06:54:20Z</time>
  <speed>5.950000</speed>
</trkpt>
<trkpt lat="31.765316010" lon="35.325580597">
  <ele>394.385254</ele>
  <time>2011-11-18T06:54:21Z</time>
  <speed>5.990000</speed>
</trkpt>
<trkpt lat="31.765333176" lon="35.325637817">
  <ele>394.361816</ele>
  <time>2011-11-18T06:54:22Z</time>
  <speed>5.790000</speed>
</trkpt>
<trkpt lat="31.765344620" lon="35.325695038">
  <ele>394.627441</ele>
  <time>2011-11-18T06:54:23Z</time>
  <speed>5.460000</speed>
</trkpt>
<trkpt lat="31.765350342" lon="35.325744629">
  <ele>394.439941</ele>
  <time>2011-11-18T06:54:24Z</time>
  <speed>5.140000</speed>
</trkpt>
<trkpt lat="31.765354156" lon="35.325801849">
  <ele>394.486816</ele>
  <time>2011-11-18T06:54:25Z</time>
  <speed>5.280000</speed>
</trkpt>
<trkpt lat="31.765354156" lon="35.325862885">
  <ele>394.861816</ele>
  <time>2011-11-18T06:54:26Z</time>
  <speed>5.360000</speed>
</trkpt>
<trkpt lat="31.765357971" lon="35.325916290">
  <ele>395.018066</ele>
  <time>2011-11-18T06:54:27Z</time>
  <speed>5.210000</speed>
</trkpt>
<trkpt lat="31.765357971" lon="35.325965881">
  <ele>394.760254</ele>
  <time>2011-11-18T06:54:28Z</time>
  <speed>5.070000</speed>
</trkpt>
<trkpt lat="31.765359879" lon="35.326007843">
  <ele>395.369629</ele>
  <time>2011-11-18T06:54:29Z</time>
  <speed>3.460000</speed>
</trkpt>
<trkpt lat="31.765365601" lon="35.326049805">
  <ele>395.658691</ele>
  <time>2011-11-18T06:54:31Z</time>
  <speed>1.130000</speed>
</trkpt>
<trkpt lat="31.765359879" lon="35.326084137">
  <ele>396.486816</ele>
  <time>2011-11-18T06:54:45Z</time>
  <speed>0.230000</speed>
</trkpt>
<trkpt lat="31.765365601" lon="35.326114655">
  <ele>394.463379</ele>
  <time>2011-11-18T06:57:54Z</time>
  <speed>3.150000</speed>
</trkpt>
<trkpt lat="31.765373230" lon="35.326152802">
  <ele>394.096191</ele>
  <time>2011-11-18T06:57:55Z</time>
  <speed>3.670000</speed>
</trkpt>
<trkpt lat="31.765377045" lon="35.326194763">
  <ele>394.158691</ele>
  <time>2011-11-18T06:57:56Z</time>
  <speed>4.580000</speed>
</trkpt>
<trkpt lat="31.765392303" lon="35.326248169">
  <ele>393.729004</ele>
  <time>2011-11-18T06:57:57Z</time>
  <speed>4.700000</speed>
</trkpt>
<trkpt lat="31.765405655" lon="35.326301575">
  <ele>393.369629</ele>
  <time>2011-11-18T06:57:58Z</time>
  <speed>4.890000</speed>
</trkpt>
<trkpt lat="31.765411377" lon="35.326354980">
  <ele>392.924316</ele>
  <time>2011-11-18T06:57:59Z</time>
  <speed>5.150000</speed>
</trkpt>
<trkpt lat="31.765420914" lon="35.326416016">
  <ele>392.814941</ele>
  <time>2011-11-18T06:58:00Z</time>
  <speed>5.200000</speed>
</trkpt>
<trkpt lat="31.765426636" lon="35.326473236">
  <ele>392.354004</ele>
  <time>2011-11-18T06:58:01Z</time>
  <speed>5.210000</speed>
</trkpt>
<trkpt lat="31.765445709" lon="35.326526642">
  <ele>391.908691</ele>
  <time>2011-11-18T06:58:02Z</time>
  <speed>5.650000</speed>
</trkpt>
<trkpt lat="31.765457153" lon="35.326591492">
  <ele>391.447754</ele>
  <time>2011-11-18T06:58:03Z</time>
  <speed>6.240000</speed>
</trkpt>
<trkpt lat="31.765472412" lon="35.326652527">
  <ele>391.650879</ele>
  <time>2011-11-18T06:58:04Z</time>
  <speed>6.190000</speed>
</trkpt>
<trkpt lat="31.765489578" lon="35.326721191">
  <ele>391.400879</ele>
  <time>2011-11-18T06:58:05Z</time>
  <speed>6.530000</speed>
</trkpt>
<trkpt lat="31.765510559" lon="35.326782227">
  <ele>390.221191</ele>
  <time>2011-11-18T06:58:06Z</time>
  <speed>5.970000</speed>
</trkpt>
<trkpt lat="31.765525818" lon="35.326854706">
  <ele>389.955566</ele>
  <time>2011-11-18T06:58:07Z</time>
  <speed>6.800000</speed>
</trkpt>
<trkpt lat="31.765537262" lon="35.326923370">
  <ele>389.439941</ele>
  <time>2011-11-18T06:58:08Z</time>
  <speed>6.720000</speed>
</trkpt>
<trkpt lat="31.765541077" lon="35.326995850">
  <ele>388.502441</ele>
  <time>2011-11-18T06:58:09Z</time>
  <speed>6.800000</speed>
</trkpt>
<trkpt lat="31.765546799" lon="35.327068329">
  <ele>387.885254</ele>
  <time>2011-11-18T06:58:10Z</time>
  <speed>6.960000</speed>
</trkpt>
<trkpt lat="31.765554428" lon="35.327144623">
  <ele>386.619629</ele>
  <time>2011-11-18T06:58:11Z</time>
  <speed>6.780000</speed>
</trkpt>
<trkpt lat="31.765563965" lon="35.327213287">
  <ele>386.088379</ele>
  <time>2011-11-18T06:58:12Z</time>
  <speed>7.290000</speed>
</trkpt>
<trkpt lat="31.765563965" lon="35.327289581">
  <ele>385.260254</ele>
  <time>2011-11-18T06:58:13Z</time>
  <speed>7.190000</speed>
</trkpt>
<trkpt lat="31.765573502" lon="35.327365875">
  <ele>384.814941</ele>
  <time>2011-11-18T06:58:14Z</time>
  <speed>7.670000</speed>
</trkpt>
<trkpt lat="31.765573502" lon="35.327445984">
  <ele>384.010254</ele>
  <time>2011-11-18T06:58:15Z</time>
  <speed>7.500000</speed>
</trkpt>
<trkpt lat="31.765577316" lon="35.327522278">
  <ele>383.369629</ele>
  <time>2011-11-18T06:58:16Z</time>
  <speed>7.430000</speed>
</trkpt>
<trkpt lat="31.765579224" lon="35.327606201">
  <ele>383.268066</ele>
  <time>2011-11-18T06:58:17Z</time>
  <speed>7.590000</speed>
</trkpt>
<trkpt lat="31.765583038" lon="35.327686310">
  <ele>382.900879</ele>
  <time>2011-11-18T06:58:18Z</time>
  <speed>7.370000</speed>
</trkpt>
<trkpt lat="31.765594482" lon="35.327766418">
  <ele>382.275879</ele>
  <time>2011-11-18T06:58:19Z</time>
  <speed>7.690000</speed>
</trkpt>
<trkpt lat="31.765609741" lon="35.327846527">
  <ele>381.518066</ele>
  <time>2011-11-18T06:58:20Z</time>
  <speed>7.390000</speed>
</trkpt>
<trkpt lat="31.765623093" lon="35.327922821">
  <ele>381.002441</ele>
  <time>2011-11-18T06:58:21Z</time>
  <speed>7.160000</speed>
</trkpt>
<trkpt lat="31.765628815" lon="35.327995300">
  <ele>380.635254</ele>
  <time>2011-11-18T06:58:22Z</time>
  <speed>6.350000</speed>
</trkpt>
<trkpt lat="31.765636444" lon="35.328060150">
  <ele>379.713379</ele>
  <time>2011-11-18T06:58:23Z</time>
  <speed>6.300000</speed>
</trkpt>
<trkpt lat="31.765655518" lon="35.328125000">
  <ele>379.096191</ele>
  <time>2011-11-18T06:58:24Z</time>
  <speed>6.350000</speed>
</trkpt>
<trkpt lat="31.765674591" lon="35.328186035">
  <ele>378.189941</ele>
  <time>2011-11-18T06:58:25Z</time>
  <speed>5.840000</speed>
</trkpt>
<trkpt lat="31.765689850" lon="35.328243256">
  <ele>377.557129</ele>
  <time>2011-11-18T06:58:26Z</time>
  <speed>5.960000</speed>
</trkpt>
<trkpt lat="31.765699387" lon="35.328311920">
  <ele>376.369629</ele>
  <time>2011-11-18T06:58:27Z</time>
  <speed>6.030000</speed>
</trkpt>
<trkpt lat="31.765705109" lon="35.328380585">
  <ele>375.971191</ele>
  <time>2011-11-18T06:58:28Z</time>
  <speed>6.320000</speed>
</trkpt>
<trkpt lat="31.765707016" lon="35.328449249">
  <ele>374.885254</ele>
  <time>2011-11-18T06:58:29Z</time>
  <speed>6.770000</speed>
</trkpt>
<trkpt lat="31.765707016" lon="35.328517914">
  <ele>373.955566</ele>
  <time>2011-11-18T06:58:30Z</time>
  <speed>6.610000</speed>
</trkpt>
<trkpt lat="31.765714645" lon="35.328598022">
  <ele>372.799316</ele>
  <time>2011-11-18T06:58:31Z</time>
  <speed>7.240000</speed>
</trkpt>
<trkpt lat="31.765722275" lon="35.328674316">
  <ele>371.838379</ele>
  <time>2011-11-18T06:58:32Z</time>
  <speed>7.130000</speed>
</trkpt>
<trkpt lat="31.765737534" lon="35.328754425">
  <ele>370.557129</ele>
  <time>2011-11-18T06:58:33Z</time>
  <speed>7.490000</speed>
</trkpt>
<trkpt lat="31.765758514" lon="35.328830719">
  <ele>368.838379</ele>
  <time>2011-11-18T06:58:34Z</time>
  <speed>8.020000</speed>
</trkpt>
<trkpt lat="31.765779495" lon="35.328914642">
  <ele>367.518066</ele>
  <time>2011-11-18T06:58:35Z</time>
  <speed>8.070000</speed>
</trkpt>
<trkpt lat="31.765798569" lon="35.329002380">
  <ele>366.322754</ele>
  <time>2011-11-18T06:58:36Z</time>
  <speed>8.950000</speed>
</trkpt>
<trkpt lat="31.765813828" lon="35.329101563">
  <ele>365.400879</ele>
  <time>2011-11-18T06:58:37Z</time>
  <speed>9.190000</speed>
</trkpt>
<trkpt lat="31.765819550" lon="35.329204559">
  <ele>364.650879</ele>
  <time>2011-11-18T06:58:38Z</time>
  <speed>9.640000</speed>
</trkpt>
<trkpt lat="31.765819550" lon="35.329303741">
  <ele>363.877441</ele>
  <time>2011-11-18T06:58:39Z</time>
  <speed>9.760000</speed>
</trkpt>
<trkpt lat="31.765817642" lon="35.329410553">
  <ele>363.314941</ele>
  <time>2011-11-18T06:58:40Z</time>
  <speed>9.330000</speed>
</trkpt>
<trkpt lat="31.765808105" lon="35.329505920">
  <ele>362.330566</ele>
  <time>2011-11-18T06:58:41Z</time>
  <speed>8.950000</speed>
</trkpt>
<trkpt lat="31.765798569" lon="35.329601288">
  <ele>361.682129</ele>
  <time>2011-11-18T06:58:42Z</time>
  <speed>8.790000</speed>
</trkpt>
<trkpt lat="31.765789032" lon="35.329689026">
  <ele>361.713379</ele>
  <time>2011-11-18T06:58:43Z</time>
  <speed>7.680000</speed>
</trkpt>
<trkpt lat="31.765779495" lon="35.329765320">
  <ele>361.775879</ele>
  <time>2011-11-18T06:58:44Z</time>
  <speed>6.980000</speed>
</trkpt>
<trkpt lat="31.765771866" lon="35.329845428">
  <ele>361.900879</ele>
  <time>2011-11-18T06:58:45Z</time>
  <speed>6.880000</speed>
</trkpt>
<trkpt lat="31.765768051" lon="35.329914093">
  <ele>361.986816</ele>
  <time>2011-11-18T06:58:46Z</time>
  <speed>6.470000</speed>
</trkpt>
<trkpt lat="31.765777588" lon="35.329978943">
  <ele>362.080566</ele>
  <time>2011-11-18T06:58:47Z</time>
  <speed>6.070000</speed>
</trkpt>
<trkpt lat="31.765790939" lon="35.330039978">
  <ele>361.627441</ele>
  <time>2011-11-18T06:58:48Z</time>
  <speed>5.870000</speed>
</trkpt>
<trkpt lat="31.765796661" lon="35.330093384">
  <ele>361.814941</ele>
  <time>2011-11-18T06:58:49Z</time>
  <speed>5.730000</speed>
</trkpt>
<trkpt lat="31.765800476" lon="35.330150604">
  <ele>361.416504</ele>
  <time>2011-11-18T06:58:50Z</time>
  <speed>5.220000</speed>
</trkpt>
<trkpt lat="31.765806198" lon="35.330196381">
  <ele>360.830566</ele>
  <time>2011-11-18T06:58:51Z</time>
  <speed>4.940000</speed>
</trkpt>
<trkpt lat="31.765806198" lon="35.330242157">
  <ele>360.291504</ele>
  <time>2011-11-18T06:58:52Z</time>
  <speed>3.960000</speed>
</trkpt>
<trkpt lat="31.765802383" lon="35.330276489">
  <ele>359.643066</ele>
  <time>2011-11-18T06:58:53Z</time>
  <speed>3.520000</speed>
</trkpt>
<trkpt lat="31.765796661" lon="35.330310822">
  <ele>359.447754</ele>
  <time>2011-11-18T06:58:54Z</time>
  <speed>3.200000</speed>
</trkpt>
<trkpt lat="31.765790939" lon="35.330368042">
  <ele>360.283691</ele>
  <time>2011-11-18T06:58:56Z</time>
  <speed>2.590000</speed>
</trkpt>
<trkpt lat="31.765789032" lon="35.330417633">
  <ele>360.299316</ele>
  <time>2011-11-18T06:58:58Z</time>
  <speed>2.880000</speed>
</trkpt>
<trkpt lat="31.765785217" lon="35.330474854">
  <ele>360.400879</ele>
  <time>2011-11-18T06:59:00Z</time>
  <speed>2.870000</speed>
</trkpt>
<trkpt lat="31.765790939" lon="35.330532074">
  <ele>360.713379</ele>
  <time>2011-11-18T06:59:02Z</time>
  <speed>2.980000</speed>
</trkpt>
<trkpt lat="31.765796661" lon="35.330562592">
  <ele>360.385254</ele>
  <time>2011-11-18T06:59:03Z</time>
  <speed>2.920000</speed>
</trkpt>
<trkpt lat="31.765798569" lon="35.330596924">
  <ele>360.455566</ele>
  <time>2011-11-18T06:59:04Z</time>
  <speed>3.290000</speed>
</trkpt>
<trkpt lat="31.765798569" lon="35.330631256">
  <ele>360.955566</ele>
  <time>2011-11-18T06:59:05Z</time>
  <speed>3.330000</speed>
</trkpt>
<trkpt lat="31.765798569" lon="35.330665588">
  <ele>360.963379</ele>
  <time>2011-11-18T06:59:06Z</time>
  <speed>3.260000</speed>
</trkpt>
<trkpt lat="31.765802383" lon="35.330707550">
  <ele>361.088379</ele>
  <time>2011-11-18T06:59:07Z</time>
  <speed>3.670000</speed>
</trkpt>
<trkpt lat="31.765806198" lon="35.330753326">
  <ele>361.408691</ele>
  <time>2011-11-18T06:59:08Z</time>
  <speed>3.770000</speed>
</trkpt>
<trkpt lat="31.765811920" lon="35.330791473">
  <ele>361.416504</ele>
  <time>2011-11-18T06:59:09Z</time>
  <speed>3.810000</speed>
</trkpt>
<trkpt lat="31.765817642" lon="35.330829620">
  <ele>361.557129</ele>
  <time>2011-11-18T06:59:10Z</time>
  <speed>4.220000</speed>
</trkpt>
<trkpt lat="31.765821457" lon="35.330875397">
  <ele>361.596191</ele>
  <time>2011-11-18T06:59:11Z</time>
  <speed>4.590000</speed>
</trkpt>
<trkpt lat="31.765830994" lon="35.330924988">
  <ele>361.564941</ele>
  <time>2011-11-18T06:59:12Z</time>
  <speed>4.590000</speed>
</trkpt>
<trkpt lat="31.765832901" lon="35.330978394">
  <ele>361.314941</ele>
  <time>2011-11-18T06:59:13Z</time>
  <speed>4.530000</speed>
</trkpt>
<trkpt lat="31.765834808" lon="35.331020355">
  <ele>361.127441</ele>
  <time>2011-11-18T06:59:14Z</time>
  <speed>4.170000</speed>
</trkpt>
<trkpt lat="31.765844345" lon="35.331062317">
  <ele>360.666504</ele>
  <time>2011-11-18T06:59:15Z</time>
  <speed>4.380000</speed>
</trkpt>
<trkpt lat="31.765851974" lon="35.331108093">
  <ele>360.111816</ele>
  <time>2011-11-18T06:59:16Z</time>
  <speed>4.720000</speed>
</trkpt>
<trkpt lat="31.765855789" lon="35.331157684">
  <ele>359.533691</ele>
  <time>2011-11-18T06:59:17Z</time>
  <speed>4.840000</speed>
</trkpt>
<trkpt lat="31.765857697" lon="35.331207275">
  <ele>359.729004</ele>
  <time>2011-11-18T06:59:18Z</time>
  <speed>5.070000</speed>
</trkpt>
<trkpt lat="31.765855789" lon="35.331260681">
  <ele>359.471191</ele>
  <time>2011-11-18T06:59:19Z</time>
  <speed>5.280000</speed>
</trkpt>
<trkpt lat="31.765848160" lon="35.331314087">
  <ele>359.158691</ele>
  <time>2011-11-18T06:59:20Z</time>
  <speed>5.540000</speed>
</trkpt>
<trkpt lat="31.765842438" lon="35.331371307">
  <ele>358.596191</ele>
  <time>2011-11-18T06:59:21Z</time>
  <speed>5.310000</speed>
</trkpt>
<trkpt lat="31.765832901" lon="35.331428528">
  <ele>358.393066</ele>
  <time>2011-11-18T06:59:22Z</time>
  <speed>5.820000</speed>
</trkpt>
<trkpt lat="31.765815735" lon="35.331489563">
  <ele>357.908691</ele>
  <time>2011-11-18T06:59:23Z</time>
  <speed>6.340000</speed>
</trkpt>
<trkpt lat="31.765800476" lon="35.331554413">
  <ele>357.963379</ele>
  <time>2011-11-18T06:59:24Z</time>
  <speed>5.950000</speed>
</trkpt>
<trkpt lat="31.765783310" lon="35.331615448">
  <ele>357.682129</ele>
  <time>2011-11-18T06:59:25Z</time>
  <speed>6.350000</speed>
</trkpt>
<trkpt lat="31.765769958" lon="35.331676483">
  <ele>357.455566</ele>
  <time>2011-11-18T06:59:26Z</time>
  <speed>6.320000</speed>
</trkpt>
<trkpt lat="31.765764236" lon="35.331741333">
  <ele>356.955566</ele>
  <time>2011-11-18T06:59:27Z</time>
  <speed>6.060000</speed>
</trkpt>
<trkpt lat="31.765760422" lon="35.331806183">
  <ele>356.268066</ele>
  <time>2011-11-18T06:59:28Z</time>
  <speed>6.080000</speed>
</trkpt>
<trkpt lat="31.765756607" lon="35.331871033">
  <ele>355.189941</ele>
  <time>2011-11-18T06:59:29Z</time>
  <speed>6.250000</speed>
</trkpt>
<trkpt lat="31.765752792" lon="35.331935883">
  <ele>354.947754</ele>
  <time>2011-11-18T06:59:30Z</time>
  <speed>6.400000</speed>
</trkpt>
<trkpt lat="31.765752792" lon="35.332008362">
  <ele>354.775879</ele>
  <time>2011-11-18T06:59:31Z</time>
  <speed>7.040000</speed>
</trkpt>
<trkpt lat="31.765754700" lon="35.332084656">
  <ele>353.869629</ele>
  <time>2011-11-18T06:59:32Z</time>
  <speed>7.330000</speed>
</trkpt>
<trkpt lat="31.765752792" lon="35.332160950">
  <ele>353.291504</ele>
  <time>2011-11-18T06:59:33Z</time>
  <speed>6.960000</speed>
</trkpt>
<trkpt lat="31.765758514" lon="35.332233429">
  <ele>352.791504</ele>
  <time>2011-11-18T06:59:34Z</time>
  <speed>6.620000</speed>
</trkpt>
<trkpt lat="31.765760422" lon="35.332305908">
  <ele>352.252441</ele>
  <time>2011-11-18T06:59:35Z</time>
  <speed>6.820000</speed>
</trkpt>
<trkpt lat="31.765758514" lon="35.332378387">
  <ele>351.338379</ele>
  <time>2011-11-18T06:59:36Z</time>
  <speed>6.350000</speed>
</trkpt>
<trkpt lat="31.765756607" lon="35.332439423">
  <ele>350.354004</ele>
  <time>2011-11-18T06:59:37Z</time>
  <speed>6.080000</speed>
</trkpt>
<trkpt lat="31.765758514" lon="35.332508087">
  <ele>349.572754</ele>
  <time>2011-11-18T06:59:38Z</time>
  <speed>6.360000</speed>
</trkpt>
<trkpt lat="31.765760422" lon="35.332572937">
  <ele>348.963379</ele>
  <time>2011-11-18T06:59:39Z</time>
  <speed>6.070000</speed>
</trkpt>
<trkpt lat="31.765760422" lon="35.332637787">
  <ele>348.611816</ele>
  <time>2011-11-18T06:59:40Z</time>
  <speed>6.150000</speed>
</trkpt>
<trkpt lat="31.765769958" lon="35.332706451">
  <ele>348.510254</ele>
  <time>2011-11-18T06:59:41Z</time>
  <speed>6.420000</speed>
</trkpt>
<trkpt lat="31.765781403" lon="35.332782745">
  <ele>348.205566</ele>
  <time>2011-11-18T06:59:42Z</time>
  <speed>6.790000</speed>
</trkpt>
<trkpt lat="31.765785217" lon="35.332859039">
  <ele>347.971191</ele>
  <time>2011-11-18T06:59:43Z</time>
  <speed>7.400000</speed>
</trkpt>
<trkpt lat="31.765783310" lon="35.332931519">
  <ele>347.346191</ele>
  <time>2011-11-18T06:59:44Z</time>
  <speed>7.200000</speed>
</trkpt>
<trkpt lat="31.765773773" lon="35.333007813">
  <ele>347.229004</ele>
  <time>2011-11-18T06:59:45Z</time>
  <speed>6.690000</speed>
</trkpt>
<trkpt lat="31.765769958" lon="35.333084106">
  <ele>346.822754</ele>
  <time>2011-11-18T06:59:46Z</time>
  <speed>6.770000</speed>
</trkpt>
<trkpt lat="31.765766144" lon="35.333156586">
  <ele>346.260254</ele>
  <time>2011-11-18T06:59:47Z</time>
  <speed>6.970000</speed>
</trkpt>
<trkpt lat="31.765756607" lon="35.333232880">
  <ele>345.924316</ele>
  <time>2011-11-18T06:59:48Z</time>
  <speed>7.100000</speed>
</trkpt>
<trkpt lat="31.765747070" lon="35.333297729">
  <ele>345.549316</ele>
  <time>2011-11-18T06:59:49Z</time>
  <speed>6.930000</speed>
</trkpt>
<trkpt lat="31.765741348" lon="35.333370209">
  <ele>344.564941</ele>
  <time>2011-11-18T06:59:50Z</time>
  <speed>6.840000</speed>
</trkpt>
<trkpt lat="31.765737534" lon="35.333446503">
  <ele>343.697754</ele>
  <time>2011-11-18T06:59:51Z</time>
  <speed>7.400000</speed>
</trkpt>
<trkpt lat="31.765731812" lon="35.333530426">
  <ele>342.752441</ele>
  <time>2011-11-18T06:59:52Z</time>
  <speed>8.260000</speed>
</trkpt>
<trkpt lat="31.765722275" lon="35.333618164">
  <ele>341.822754</ele>
  <time>2011-11-18T06:59:53Z</time>
  <speed>8.600000</speed>
</trkpt>
<trkpt lat="31.765716553" lon="35.333713531">
  <ele>340.893066</ele>
  <time>2011-11-18T06:59:54Z</time>
  <speed>8.670000</speed>
</trkpt>
<trkpt lat="31.765703201" lon="35.333805084">
  <ele>339.971191</ele>
  <time>2011-11-18T06:59:55Z</time>
  <speed>9.120000</speed>
</trkpt>
<trkpt lat="31.765687943" lon="35.333892822">
  <ele>338.541504</ele>
  <time>2011-11-18T06:59:56Z</time>
  <speed>9.140000</speed>
</trkpt>
<trkpt lat="31.765670776" lon="35.333984375">
  <ele>337.814941</ele>
  <time>2011-11-18T06:59:57Z</time>
  <speed>9.010000</speed>
</trkpt>
<trkpt lat="31.765651703" lon="35.334083557">
  <ele>336.705566</ele>
  <time>2011-11-18T06:59:58Z</time>
  <speed>9.380000</speed>
</trkpt>
<trkpt lat="31.765636444" lon="35.334182739">
  <ele>335.572754</ele>
  <time>2011-11-18T06:59:59Z</time>
  <speed>9.450000</speed>
</trkpt>
<trkpt lat="31.765617371" lon="35.334278107">
  <ele>334.424316</ele>
  <time>2011-11-18T07:00:00Z</time>
  <speed>8.820000</speed>
</trkpt>
<trkpt lat="31.765604019" lon="35.334362030">
  <ele>333.814941</ele>
  <time>2011-11-18T07:00:01Z</time>
  <speed>8.540000</speed>
</trkpt>
<trkpt lat="31.765592575" lon="35.334449768">
  <ele>333.549316</ele>
  <time>2011-11-18T07:00:02Z</time>
  <speed>8.200000</speed>
</trkpt>
<trkpt lat="31.765577316" lon="35.334529877">
  <ele>333.111816</ele>
  <time>2011-11-18T07:00:03Z</time>
  <speed>7.840000</speed>
</trkpt>
<trkpt lat="31.765563965" lon="35.334613800">
  <ele>332.885254</ele>
  <time>2011-11-18T07:00:04Z</time>
  <speed>7.590000</speed>
</trkpt>
<trkpt lat="31.765556335" lon="35.334686279">
  <ele>332.775879</ele>
  <time>2011-11-18T07:00:05Z</time>
  <speed>7.370000</speed>
</trkpt>
<trkpt lat="31.765552521" lon="35.334758759">
  <ele>332.830566</ele>
  <time>2011-11-18T07:00:06Z</time>
  <speed>6.310000</speed>
</trkpt>
<trkpt lat="31.765556335" lon="35.334819794">
  <ele>332.783691</ele>
  <time>2011-11-18T07:00:07Z</time>
  <speed>5.520000</speed>
</trkpt>
<trkpt lat="31.765560150" lon="35.334873199">
  <ele>332.611816</ele>
  <time>2011-11-18T07:00:08Z</time>
  <speed>5.030000</speed>
</trkpt>
<trkpt lat="31.765560150" lon="35.334918976">
  <ele>332.158691</ele>
  <time>2011-11-18T07:00:09Z</time>
  <speed>4.750000</speed>
</trkpt>
<trkpt lat="31.765560150" lon="35.334964752">
  <ele>331.018066</ele>
  <time>2011-11-18T07:00:10Z</time>
  <speed>4.860000</speed>
</trkpt>
<trkpt lat="31.765565872" lon="35.335018158">
  <ele>330.080566</ele>
  <time>2011-11-18T07:00:11Z</time>
  <speed>5.570000</speed>
</trkpt>
<trkpt lat="31.765565872" lon="35.335083008">
  <ele>329.479004</ele>
  <time>2011-11-18T07:00:12Z</time>
  <speed>6.280000</speed>
</trkpt>
<trkpt lat="31.765563965" lon="35.335151672">
  <ele>329.502441</ele>
  <time>2011-11-18T07:00:13Z</time>
  <speed>6.760000</speed>
</trkpt>
<trkpt lat="31.765567780" lon="35.335227966">
  <ele>329.455566</ele>
  <time>2011-11-18T07:00:14Z</time>
  <speed>7.040000</speed>
</trkpt>
<trkpt lat="31.765573502" lon="35.335296631">
  <ele>329.752441</ele>
  <time>2011-11-18T07:00:15Z</time>
  <speed>6.350000</speed>
</trkpt>
<trkpt lat="31.765577316" lon="35.335357666">
  <ele>329.666504</ele>
  <time>2011-11-18T07:00:16Z</time>
  <speed>5.740000</speed>
</trkpt>
<trkpt lat="31.765577316" lon="35.335411072">
  <ele>330.111816</ele>
  <time>2011-11-18T07:00:17Z</time>
  <speed>4.910000</speed>
</trkpt>
<trkpt lat="31.765579224" lon="35.335464478">
  <ele>330.010254</ele>
  <time>2011-11-18T07:00:18Z</time>
  <speed>4.560000</speed>
</trkpt>
<trkpt lat="31.765581131" lon="35.335514069">
  <ele>330.549316</ele>
  <time>2011-11-18T07:00:19Z</time>
  <speed>4.460000</speed>
</trkpt>
<trkpt lat="31.765579224" lon="35.335556030">
  <ele>330.018066</ele>
  <time>2011-11-18T07:00:20Z</time>
  <speed>4.190000</speed>
</trkpt>
<trkpt lat="31.765583038" lon="35.335597992">
  <ele>330.213379</ele>
  <time>2011-11-18T07:00:21Z</time>
  <speed>3.920000</speed>
</trkpt>
<trkpt lat="31.765579224" lon="35.335639954">
  <ele>330.330566</ele>
  <time>2011-11-18T07:00:22Z</time>
  <speed>4.120000</speed>
</trkpt>
<trkpt lat="31.765577316" lon="35.335681915">
  <ele>330.689941</ele>
  <time>2011-11-18T07:00:23Z</time>
  <speed>3.660000</speed>
</trkpt>
<trkpt lat="31.765573502" lon="35.335723877">
  <ele>330.893066</ele>
  <time>2011-11-18T07:00:24Z</time>
  <speed>4.290000</speed>
</trkpt>
<trkpt lat="31.765573502" lon="35.335765839">
  <ele>331.236816</ele>
  <time>2011-11-18T07:00:25Z</time>
  <speed>3.590000</speed>
</trkpt>
<trkpt lat="31.765575409" lon="35.335807800">
  <ele>331.330566</ele>
  <time>2011-11-18T07:00:26Z</time>
  <speed>3.440000</speed>
</trkpt>
<trkpt lat="31.765571594" lon="35.335842133">
  <ele>331.135254</ele>
  <time>2011-11-18T07:00:27Z</time>
  <speed>3.590000</speed>
</trkpt>
<trkpt lat="31.765567780" lon="35.335880280">
  <ele>330.955566</ele>
  <time>2011-11-18T07:00:28Z</time>
  <speed>3.360000</speed>
</trkpt>
<trkpt lat="31.765562057" lon="35.335914612">
  <ele>331.479004</ele>
  <time>2011-11-18T07:00:29Z</time>
  <speed>3.630000</speed>
</trkpt>
<trkpt lat="31.765554428" lon="35.335952759">
  <ele>331.814941</ele>
  <time>2011-11-18T07:00:30Z</time>
  <speed>3.550000</speed>
</trkpt>
<trkpt lat="31.765548706" lon="35.335987091">
  <ele>331.689941</ele>
  <time>2011-11-18T07:00:31Z</time>
  <speed>3.210000</speed>
</trkpt>
<trkpt lat="31.765537262" lon="35.336040497">
  <ele>331.221191</ele>
  <time>2011-11-18T07:00:33Z</time>
  <speed>2.680000</speed>
</trkpt>
<trkpt lat="31.765533447" lon="35.336093903">
  <ele>331.541504</ele>
  <time>2011-11-18T07:00:35Z</time>
  <speed>2.520000</speed>
</trkpt>
<trkpt lat="31.765527725" lon="35.336143494">
  <ele>331.971191</ele>
  <time>2011-11-18T07:00:37Z</time>
  <speed>2.700000</speed>
</trkpt>
<trkpt lat="31.765525818" lon="35.336177826">
  <ele>331.580566</ele>
  <time>2011-11-18T07:00:38Z</time>
  <speed>2.470000</speed>
</trkpt>
<trkpt lat="31.765531540" lon="35.336235046">
  <ele>331.611816</ele>
  <time>2011-11-18T07:00:40Z</time>
  <speed>2.550000</speed>
</trkpt>
<trkpt lat="31.765535355" lon="35.336280823">
  <ele>330.486816</ele>
  <time>2011-11-18T07:00:42Z</time>
  <speed>1.810000</speed>
</trkpt>
<trkpt lat="31.765535355" lon="35.336322784">
  <ele>330.260254</ele>
  <time>2011-11-18T07:00:44Z</time>
  <speed>2.060000</speed>
</trkpt>
<trkpt lat="31.765548706" lon="35.336349487">
  <ele>330.838379</ele>
  <time>2011-11-18T07:00:46Z</time>
  <speed>0.530000</speed>
</trkpt>
<trkpt lat="31.765579224" lon="35.336345673">
  <ele>331.557129</ele>
  <time>2011-11-18T07:01:17Z</time>
  <speed>0.760000</speed>
</trkpt>
<trkpt lat="31.765594482" lon="35.336303711">
  <ele>331.471191</ele>
  <time>2011-11-18T07:01:20Z</time>
  <speed>1.220000</speed>
</trkpt>
<trkpt lat="31.765598297" lon="35.336265564">
  <ele>331.299316</ele>
  <time>2011-11-18T07:01:22Z</time>
  <speed>1.300000</speed>
</trkpt>
<trkpt lat="31.765605927" lon="35.336227417">
  <ele>330.682129</ele>
  <time>2011-11-18T07:01:24Z</time>
  <speed>1.050000</speed>
</trkpt>
<trkpt lat="31.765625000" lon="35.336185455">
  <ele>330.986816</ele>
  <time>2011-11-18T07:01:27Z</time>
  <speed>1.310000</speed>
</trkpt>
<trkpt lat="31.765636444" lon="35.336154938">
  <ele>330.447754</ele>
  <time>2011-11-18T07:01:29Z</time>
  <speed>1.280000</speed>
</trkpt>
<trkpt lat="31.765647888" lon="35.336116791">
  <ele>329.705566</ele>
  <time>2011-11-18T07:01:31Z</time>
  <speed>1.490000</speed>
</trkpt>
<trkpt lat="31.765661240" lon="35.336082458">
  <ele>329.486816</ele>
  <time>2011-11-18T07:01:33Z</time>
  <speed>1.650000</speed>
</trkpt>
<trkpt lat="31.765668869" lon="35.336044312">
  <ele>329.799316</ele>
  <time>2011-11-18T07:01:36Z</time>
  <speed>1.560000</speed>
</trkpt>
<trkpt lat="31.765678406" lon="35.336002350">
  <ele>329.854004</ele>
  <time>2011-11-18T07:01:38Z</time>
  <speed>1.380000</speed>
</trkpt>
<trkpt lat="31.765680313" lon="35.335971832">
  <ele>330.158691</ele>
  <time>2011-11-18T07:01:40Z</time>
  <speed>1.280000</speed>
</trkpt>
<trkpt lat="31.765682220" lon="35.335922241">
  <ele>330.314941</ele>
  <time>2011-11-18T07:01:43Z</time>
  <speed>1.110000</speed>
</trkpt>
<trkpt lat="31.765687943" lon="35.335884094">
  <ele>330.861816</ele>
  <time>2011-11-18T07:01:45Z</time>
  <speed>1.310000</speed>
</trkpt>
<trkpt lat="31.765689850" lon="35.335845947">
  <ele>330.525879</ele>
  <time>2011-11-18T07:01:48Z</time>
  <speed>1.200000</speed>
</trkpt>
<trkpt lat="31.765682220" lon="35.335815430">
  <ele>330.674316</ele>
  <time>2011-11-18T07:01:51Z</time>
  <speed>1.330000</speed>
</trkpt>
<trkpt lat="31.765682220" lon="35.335777283">
  <ele>331.010254</ele>
  <time>2011-11-18T07:01:53Z</time>
  <speed>1.570000</speed>
</trkpt>
<trkpt lat="31.765691757" lon="35.335739136">
  <ele>331.064941</ele>
  <time>2011-11-18T07:01:55Z</time>
  <speed>1.160000</speed>
</trkpt>
<trkpt lat="31.765695572" lon="35.335700989">
  <ele>331.104004</ele>
  <time>2011-11-18T07:01:58Z</time>
  <speed>1.520000</speed>
</trkpt>
<trkpt lat="31.765705109" lon="35.335666656">
  <ele>331.697754</ele>
  <time>2011-11-18T07:02:01Z</time>
  <speed>0.600000</speed>
</trkpt>
<trkpt lat="31.765722275" lon="35.335681915">
  <ele>329.736816</ele>
  <time>2011-11-18T07:02:45Z</time>
  <speed>0.200000</speed>
</trkpt>
<trkpt lat="31.765741348" lon="35.335712433">
  <ele>330.127441</ele>
  <time>2011-11-18T07:02:47Z</time>
  <speed>0.540000</speed>
</trkpt>
<trkpt lat="31.765745163" lon="35.335754395">
  <ele>329.658691</ele>
  <time>2011-11-18T07:02:51Z</time>
  <speed>0.860000</speed>
</trkpt>
<trkpt lat="31.765750885" lon="35.335800171">
  <ele>329.541504</ele>
  <time>2011-11-18T07:02:53Z</time>
  <speed>2.780000</speed>
</trkpt>
<trkpt lat="31.765771866" lon="35.335834503">
  <ele>329.541504</ele>
  <time>2011-11-18T07:02:54Z</time>
  <speed>3.640000</speed>
</trkpt>
<trkpt lat="31.765794754" lon="35.335868835">
  <ele>329.213379</ele>
  <time>2011-11-18T07:02:55Z</time>
  <speed>3.650000</speed>
</trkpt>
<trkpt lat="31.765819550" lon="35.335903168">
  <ele>328.822754</ele>
  <time>2011-11-18T07:02:56Z</time>
  <speed>3.600000</speed>
</trkpt>
<trkpt lat="31.765842438" lon="35.335941315">
  <ele>328.838379</ele>
  <time>2011-11-18T07:02:57Z</time>
  <speed>3.740000</speed>
</trkpt>
<trkpt lat="31.765855789" lon="35.335979462">
  <ele>328.275879</ele>
  <time>2011-11-18T07:02:58Z</time>
  <speed>3.790000</speed>
</trkpt>
<trkpt lat="31.765876770" lon="35.336013794">
  <ele>328.002441</ele>
  <time>2011-11-18T07:02:59Z</time>
  <speed>3.240000</speed>
</trkpt>
<trkpt lat="31.765897751" lon="35.336044312">
  <ele>327.025879</ele>
  <time>2011-11-18T07:03:00Z</time>
  <speed>3.430000</speed>
</trkpt>
<trkpt lat="31.765916824" lon="35.336067200">
  <ele>326.494629</ele>
  <time>2011-11-18T07:03:01Z</time>
  <speed>3.340000</speed>
</trkpt>
<trkpt lat="31.765939713" lon="35.336090088">
  <ele>326.088379</ele>
  <time>2011-11-18T07:03:02Z</time>
  <speed>2.620000</speed>
</trkpt>
<trkpt lat="31.765979767" lon="35.336124420">
  <ele>325.018066</ele>
  <time>2011-11-18T07:03:04Z</time>
  <speed>2.700000</speed>
</trkpt>
<trkpt lat="31.766025543" lon="35.336162567">
  <ele>323.939941</ele>
  <time>2011-11-18T07:03:06Z</time>
  <speed>2.840000</speed>
</trkpt>
<trkpt lat="31.766048431" lon="35.336177826">
  <ele>323.205566</ele>
  <time>2011-11-18T07:03:07Z</time>
  <speed>2.960000</speed>
</trkpt>
<trkpt lat="31.766071320" lon="35.336193085">
  <ele>322.494629</ele>
  <time>2011-11-18T07:03:08Z</time>
  <speed>3.080000</speed>
</trkpt>
<trkpt lat="31.766098022" lon="35.336212158">
  <ele>321.385254</ele>
  <time>2011-11-18T07:03:09Z</time>
  <speed>3.050000</speed>
</trkpt>
<trkpt lat="31.766126633" lon="35.336227417">
  <ele>320.158691</ele>
  <time>2011-11-18T07:03:10Z</time>
  <speed>3.350000</speed>
</trkpt>
<trkpt lat="31.766149521" lon="35.336250305">
  <ele>319.549316</ele>
  <time>2011-11-18T07:03:11Z</time>
  <speed>2.940000</speed>
</trkpt>
<trkpt lat="31.766191483" lon="35.336280823">
  <ele>317.885254</ele>
  <time>2011-11-18T07:03:13Z</time>
  <speed>2.930000</speed>
</trkpt>
<trkpt lat="31.766212463" lon="35.336303711">
  <ele>316.533691</ele>
  <time>2011-11-18T07:03:14Z</time>
  <speed>3.280000</speed>
</trkpt>
<trkpt lat="31.766235352" lon="35.336318970">
  <ele>315.049316</ele>
  <time>2011-11-18T07:03:15Z</time>
  <speed>3.300000</speed>
</trkpt>
<trkpt lat="31.766260147" lon="35.336330414">
  <ele>313.611816</ele>
  <time>2011-11-18T07:03:16Z</time>
  <speed>2.940000</speed>
</trkpt>
<trkpt lat="31.766286850" lon="35.336349487">
  <ele>312.135254</ele>
  <time>2011-11-18T07:03:17Z</time>
  <speed>3.370000</speed>
</trkpt>
<trkpt lat="31.766313553" lon="35.336368561">
  <ele>310.744629</ele>
  <time>2011-11-18T07:03:18Z</time>
  <speed>3.280000</speed>
</trkpt>
<trkpt lat="31.766342163" lon="35.336383820">
  <ele>309.369629</ele>
  <time>2011-11-18T07:03:19Z</time>
  <speed>3.400000</speed>
</trkpt>
<trkpt lat="31.766368866" lon="35.336399078">
  <ele>308.439941</ele>
  <time>2011-11-18T07:03:20Z</time>
  <speed>3.460000</speed>
</trkpt>
<trkpt lat="31.766399384" lon="35.336418152">
  <ele>307.072754</ele>
  <time>2011-11-18T07:03:21Z</time>
  <speed>3.880000</speed>
</trkpt>
<trkpt lat="31.766422272" lon="35.336433411">
  <ele>305.572754</ele>
  <time>2011-11-18T07:03:22Z</time>
  <speed>3.300000</speed>
</trkpt>
<trkpt lat="31.766447067" lon="35.336448669">
  <ele>304.072754</ele>
  <time>2011-11-18T07:03:23Z</time>
  <speed>3.030000</speed>
</trkpt>
<trkpt lat="31.766471863" lon="35.336460114">
  <ele>302.822754</ele>
  <time>2011-11-18T07:03:24Z</time>
  <speed>2.760000</speed>
</trkpt>
<trkpt lat="31.766496658" lon="35.336467743">
  <ele>301.611816</ele>
  <time>2011-11-18T07:03:25Z</time>
  <speed>2.800000</speed>
</trkpt>
<trkpt lat="31.766523361" lon="35.336483002">
  <ele>300.588379</ele>
  <time>2011-11-18T07:03:26Z</time>
  <speed>3.100000</speed>
</trkpt>
<trkpt lat="31.766548157" lon="35.336498260">
  <ele>299.143066</ele>
  <time>2011-11-18T07:03:27Z</time>
  <speed>3.340000</speed>
</trkpt>
<trkpt lat="31.766578674" lon="35.336521149">
  <ele>297.955566</ele>
  <time>2011-11-18T07:03:28Z</time>
  <speed>3.860000</speed>
</trkpt>
<trkpt lat="31.766614914" lon="35.336544037">
  <ele>296.463379</ele>
  <time>2011-11-18T07:03:29Z</time>
  <speed>4.610000</speed>
</trkpt>
<trkpt lat="31.766656876" lon="35.336570740">
  <ele>295.119629</ele>
  <time>2011-11-18T07:03:30Z</time>
  <speed>5.550000</speed>
</trkpt>
<trkpt lat="31.766706467" lon="35.336597443">
  <ele>293.721191</ele>
  <time>2011-11-18T07:03:31Z</time>
  <speed>5.910000</speed>
</trkpt>
<trkpt lat="31.766756058" lon="35.336631775">
  <ele>291.877441</ele>
  <time>2011-11-18T07:03:32Z</time>
  <speed>6.440000</speed>
</trkpt>
<trkpt lat="31.766811371" lon="35.336666107">
  <ele>289.955566</ele>
  <time>2011-11-18T07:03:33Z</time>
  <speed>6.930000</speed>
</trkpt>
<trkpt lat="31.766870499" lon="35.336700439">
  <ele>287.572754</ele>
  <time>2011-11-18T07:03:34Z</time>
  <speed>7.460000</speed>
</trkpt>
<trkpt lat="31.766937256" lon="35.336738586">
  <ele>285.627441</ele>
  <time>2011-11-18T07:03:35Z</time>
  <speed>7.840000</speed>
</trkpt>
<trkpt lat="31.767002106" lon="35.336784363">
  <ele>284.439941</ele>
  <time>2011-11-18T07:03:36Z</time>
  <speed>8.410000</speed>
</trkpt>
<trkpt lat="31.767076492" lon="35.336826324">
  <ele>283.283691</ele>
  <time>2011-11-18T07:03:37Z</time>
  <speed>8.380000</speed>
</trkpt>
<trkpt lat="31.767137527" lon="35.336868286">
  <ele>282.096191</ele>
  <time>2011-11-18T07:03:38Z</time>
  <speed>8.140000</speed>
</trkpt>
<trkpt lat="31.767204285" lon="35.336906433">
  <ele>281.307129</ele>
  <time>2011-11-18T07:03:39Z</time>
  <speed>7.990000</speed>
</trkpt>
<trkpt lat="31.767267227" lon="35.336952209">
  <ele>280.486816</ele>
  <time>2011-11-18T07:03:40Z</time>
  <speed>7.900000</speed>
</trkpt>
<trkpt lat="31.767330170" lon="35.336997986">
  <ele>279.682129</ele>
  <time>2011-11-18T07:03:41Z</time>
  <speed>8.170000</speed>
</trkpt>
<trkpt lat="31.767391205" lon="35.337051392">
  <ele>279.041504</ele>
  <time>2011-11-18T07:03:42Z</time>
  <speed>8.380000</speed>
</trkpt>
<trkpt lat="31.767448425" lon="35.337108612">
  <ele>278.814941</ele>
  <time>2011-11-18T07:03:43Z</time>
  <speed>8.330000</speed>
</trkpt>
<trkpt lat="31.767507553" lon="35.337158203">
  <ele>278.721191</ele>
  <time>2011-11-18T07:03:44Z</time>
  <speed>8.140000</speed>
</trkpt>
<trkpt lat="31.767568588" lon="35.337203979">
  <ele>278.471191</ele>
  <time>2011-11-18T07:03:45Z</time>
  <speed>7.760000</speed>
</trkpt>
<trkpt lat="31.767620087" lon="35.337249756">
  <ele>278.283691</ele>
  <time>2011-11-18T07:03:46Z</time>
  <speed>7.270000</speed>
</trkpt>
<trkpt lat="31.767667770" lon="35.337295532">
  <ele>278.275879</ele>
  <time>2011-11-18T07:03:47Z</time>
  <speed>7.130000</speed>
</trkpt>
<trkpt lat="31.767707825" lon="35.337356567">
  <ele>277.713379</ele>
  <time>2011-11-18T07:03:48Z</time>
  <speed>7.140000</speed>
</trkpt>
<trkpt lat="31.767751694" lon="35.337413788">
  <ele>277.275879</ele>
  <time>2011-11-18T07:03:49Z</time>
  <speed>7.470000</speed>
</trkpt>
<trkpt lat="31.767797470" lon="35.337467194">
  <ele>276.979004</ele>
  <time>2011-11-18T07:03:50Z</time>
  <speed>7.390000</speed>
</trkpt>
<trkpt lat="31.767845154" lon="35.337516785">
  <ele>276.361816</ele>
  <time>2011-11-18T07:03:51Z</time>
  <speed>7.740000</speed>
</trkpt>
<trkpt lat="31.767892838" lon="35.337566376">
  <ele>275.346191</ele>
  <time>2011-11-18T07:03:52Z</time>
  <speed>7.250000</speed>
</trkpt>
<trkpt lat="31.767938614" lon="35.337623596">
  <ele>274.658691</ele>
  <time>2011-11-18T07:03:53Z</time>
  <speed>7.660000</speed>
</trkpt>
<trkpt lat="31.767982483" lon="35.337688446">
  <ele>274.143066</ele>
  <time>2011-11-18T07:03:54Z</time>
  <speed>7.790000</speed>
</trkpt>
<trkpt lat="31.768028259" lon="35.337753296">
  <ele>273.736816</ele>
  <time>2011-11-18T07:03:55Z</time>
  <speed>7.980000</speed>
</trkpt>
<trkpt lat="31.768075943" lon="35.337818146">
  <ele>272.729004</ele>
  <time>2011-11-18T07:03:56Z</time>
  <speed>7.520000</speed>
</trkpt>
<trkpt lat="31.768123627" lon="35.337875366">
  <ele>272.096191</ele>
  <time>2011-11-18T07:03:57Z</time>
  <speed>7.210000</speed>
</trkpt>
<trkpt lat="31.768165588" lon="35.337928772">
  <ele>270.486816</ele>
  <time>2011-11-18T07:03:58Z</time>
  <speed>7.340000</speed>
</trkpt>
<trkpt lat="31.768213272" lon="35.337985992">
  <ele>269.150879</ele>
  <time>2011-11-18T07:03:59Z</time>
  <speed>7.390000</speed>
</trkpt>
<trkpt lat="31.768260956" lon="35.338039398">
  <ele>267.385254</ele>
  <time>2011-11-18T07:04:00Z</time>
  <speed>7.560000</speed>
</trkpt>
<trkpt lat="31.768308640" lon="35.338096619">
  <ele>265.557129</ele>
  <time>2011-11-18T07:04:01Z</time>
  <speed>7.650000</speed>
</trkpt>
<trkpt lat="31.768360138" lon="35.338150024">
  <ele>263.447754</ele>
  <time>2011-11-18T07:04:02Z</time>
  <speed>7.910000</speed>
</trkpt>
<trkpt lat="31.768409729" lon="35.338211060">
  <ele>261.314941</ele>
  <time>2011-11-18T07:04:03Z</time>
  <speed>8.320000</speed>
</trkpt>
<trkpt lat="31.768466949" lon="35.338279724">
  <ele>259.604004</ele>
  <time>2011-11-18T07:04:04Z</time>
  <speed>8.610000</speed>
</trkpt>
<trkpt lat="31.768518448" lon="35.338348389">
  <ele>258.393066</ele>
  <time>2011-11-18T07:04:05Z</time>
  <speed>8.660000</speed>
</trkpt>
<trkpt lat="31.768575668" lon="35.338420868">
  <ele>256.533691</ele>
  <time>2011-11-18T07:04:06Z</time>
  <speed>9.240000</speed>
</trkpt>
<trkpt lat="31.768630981" lon="35.338497162">
  <ele>254.348877</ele>
  <time>2011-11-18T07:04:07Z</time>
  <speed>9.200000</speed>
</trkpt>
<trkpt lat="31.768690109" lon="35.338573456">
  <ele>252.145752</ele>
  <time>2011-11-18T07:04:08Z</time>
  <speed>9.960000</speed>
</trkpt>
<trkpt lat="31.768745422" lon="35.338653564">
  <ele>250.040283</ele>
  <time>2011-11-18T07:04:09Z</time>
  <speed>10.110000</speed>
</trkpt>
<trkpt lat="31.768814087" lon="35.338733673">
  <ele>248.134033</ele>
  <time>2011-11-18T07:04:10Z</time>
  <speed>10.290000</speed>
</trkpt>
<trkpt lat="31.768878937" lon="35.338817596">
  <ele>246.489502</ele>
  <time>2011-11-18T07:04:11Z</time>
  <speed>10.420000</speed>
</trkpt>
<trkpt lat="31.768939972" lon="35.338897705">
  <ele>244.884033</ele>
  <time>2011-11-18T07:04:12Z</time>
  <speed>10.200000</speed>
</trkpt>
<trkpt lat="31.769002914" lon="35.338985443">
  <ele>244.712158</ele>
  <time>2011-11-18T07:04:13Z</time>
  <speed>10.079999</speed>
</trkpt>
<trkpt lat="31.769058228" lon="35.339069366">
  <ele>245.509033</ele>
  <time>2011-11-18T07:04:14Z</time>
  <speed>9.930000</speed>
</trkpt>
<trkpt lat="31.769107819" lon="35.339149475">
  <ele>245.610596</ele>
  <time>2011-11-18T07:04:15Z</time>
  <speed>8.490000</speed>
</trkpt>
<trkpt lat="31.769149780" lon="35.339221954">
  <ele>245.012939</ele>
  <time>2011-11-18T07:04:16Z</time>
  <speed>7.390000</speed>
</trkpt>
<trkpt lat="31.769184113" lon="35.339275360">
  <ele>245.313721</ele>
  <time>2011-11-18T07:04:17Z</time>
  <speed>5.020000</speed>
</trkpt>
<trkpt lat="31.769220352" lon="35.339305878">
  <ele>244.895752</ele>
  <time>2011-11-18T07:04:18Z</time>
  <speed>4.710000</speed>
</trkpt>
<trkpt lat="31.769250870" lon="35.339336395">
  <ele>243.610596</ele>
  <time>2011-11-18T07:04:19Z</time>
  <speed>5.110000</speed>
</trkpt>
<trkpt lat="31.769283295" lon="35.339374542">
  <ele>243.075439</ele>
  <time>2011-11-18T07:04:20Z</time>
  <speed>4.820000</speed>
</trkpt>
<trkpt lat="31.769311905" lon="35.339393616">
  <ele>242.512939</ele>
  <time>2011-11-18T07:04:21Z</time>
  <speed>3.210000</speed>
</trkpt>
<trkpt lat="31.769348145" lon="35.339397430">
  <ele>241.684814</ele>
  <time>2011-11-18T07:05:42Z</time>
  <speed>1.400000</speed>
</trkpt>
<trkpt lat="31.769382477" lon="35.339412689">
  <ele>241.243408</ele>
  <time>2011-11-18T07:05:45Z</time>
  <speed>1.590000</speed>
</trkpt>
<trkpt lat="31.769409180" lon="35.339416504">
  <ele>241.055908</ele>
  <time>2011-11-18T07:05:47Z</time>
  <speed>1.000000</speed>
</trkpt>
<trkpt lat="31.769435883" lon="35.339431763">
  <ele>240.848877</ele>
  <time>2011-11-18T07:05:50Z</time>
  <speed>1.150000</speed>
</trkpt>
<trkpt lat="31.769468307" lon="35.339427948">
  <ele>240.946533</ele>
  <time>2011-11-18T07:05:54Z</time>
  <speed>1.280000</speed>
</trkpt>
<trkpt lat="31.769500732" lon="35.339435577">
  <ele>240.309814</ele>
  <time>2011-11-18T07:05:57Z</time>
  <speed>1.220000</speed>
</trkpt>
<trkpt lat="31.769531250" lon="35.339420319">
  <ele>239.618408</ele>
  <time>2011-11-18T07:06:00Z</time>
  <speed>1.270000</speed>
</trkpt>
<trkpt lat="31.769563675" lon="35.339424133">
  <ele>240.719971</ele>
  <time>2011-11-18T07:06:03Z</time>
  <speed>0.760000</speed>
</trkpt>
<trkpt lat="31.769598007" lon="35.339416504">
  <ele>241.290283</ele>
  <time>2011-11-18T07:06:06Z</time>
  <speed>1.150000</speed>
</trkpt>
<trkpt lat="31.769626617" lon="35.339420319">
  <ele>241.802002</ele>
  <time>2011-11-18T07:06:09Z</time>
  <speed>0.990000</speed>
</trkpt>
<trkpt lat="31.769659042" lon="35.339412689">
  <ele>241.665283</ele>
  <time>2011-11-18T07:06:12Z</time>
  <speed>0.960000</speed>
</trkpt>
<trkpt lat="31.769704819" lon="35.339420319">
  <ele>241.966064</ele>
  <time>2011-11-18T07:06:16Z</time>
  <speed>2.620000</speed>
</trkpt>
<trkpt lat="31.769731522" lon="35.339416504">
  <ele>242.130127</ele>
  <time>2011-11-18T07:06:17Z</time>
  <speed>3.060000</speed>
</trkpt>
<trkpt lat="31.769762039" lon="35.339416504">
  <ele>242.063721</ele>
  <time>2011-11-18T07:06:18Z</time>
  <speed>3.600000</speed>
</trkpt>
<trkpt lat="31.769794464" lon="35.339416504">
  <ele>241.649658</ele>
  <time>2011-11-18T07:06:19Z</time>
  <speed>3.550000</speed>
</trkpt>
<trkpt lat="31.769826889" lon="35.339416504">
  <ele>241.243408</ele>
  <time>2011-11-18T07:06:20Z</time>
  <speed>3.790000</speed>
</trkpt>
<trkpt lat="31.769859314" lon="35.339416504">
  <ele>241.012939</ele>
  <time>2011-11-18T07:06:21Z</time>
  <speed>3.560000</speed>
</trkpt>
<trkpt lat="31.769891739" lon="35.339420319">
  <ele>240.696533</ele>
  <time>2011-11-18T07:06:22Z</time>
  <speed>3.510000</speed>
</trkpt>
<trkpt lat="31.769924164" lon="35.339420319">
  <ele>240.602783</ele>
  <time>2011-11-18T07:06:23Z</time>
  <speed>3.750000</speed>
</trkpt>
<trkpt lat="31.769958496" lon="35.339424133">
  <ele>240.704346</ele>
  <time>2011-11-18T07:06:24Z</time>
  <speed>4.130000</speed>
</trkpt>
<trkpt lat="31.769998550" lon="35.339427948">
  <ele>240.587158</ele>
  <time>2011-11-18T07:06:25Z</time>
  <speed>4.250000</speed>
</trkpt>
<trkpt lat="31.770038605" lon="35.339427948">
  <ele>240.891846</ele>
  <time>2011-11-18T07:06:26Z</time>
  <speed>4.200000</speed>
</trkpt>
<trkpt lat="31.770071030" lon="35.339427948">
  <ele>240.548096</ele>
  <time>2011-11-18T07:06:27Z</time>
  <speed>4.040000</speed>
</trkpt>
<trkpt lat="31.770105362" lon="35.339431763">
  <ele>240.317627</ele>
  <time>2011-11-18T07:06:28Z</time>
  <speed>4.060000</speed>
</trkpt>
<trkpt lat="31.770139694" lon="35.339439392">
  <ele>239.837158</ele>
  <time>2011-11-18T07:06:29Z</time>
  <speed>4.150000</speed>
</trkpt>
<trkpt lat="31.770177841" lon="35.339443207">
  <ele>239.536377</ele>
  <time>2011-11-18T07:06:30Z</time>
  <speed>4.520000</speed>
</trkpt>
<trkpt lat="31.770219803" lon="35.339447021">
  <ele>239.247314</ele>
  <time>2011-11-18T07:06:31Z</time>
  <speed>4.100000</speed>
</trkpt>
<trkpt lat="31.770256042" lon="35.339447021">
  <ele>239.009033</ele>
  <time>2011-11-18T07:06:32Z</time>
  <speed>4.130000</speed>
</trkpt>
<trkpt lat="31.770294189" lon="35.339450836">
  <ele>238.134033</ele>
  <time>2011-11-18T07:06:33Z</time>
  <speed>3.900000</speed>
</trkpt>
<trkpt lat="31.770330429" lon="35.339462280">
  <ele>237.469971</ele>
  <time>2011-11-18T07:06:34Z</time>
  <speed>4.090000</speed>
</trkpt>
<trkpt lat="31.770364761" lon="35.339473724">
  <ele>236.716064</ele>
  <time>2011-11-18T07:06:35Z</time>
  <speed>3.750000</speed>
</trkpt>
<trkpt lat="31.770391464" lon="35.339485168">
  <ele>236.567627</ele>
  <time>2011-11-18T07:06:36Z</time>
  <speed>3.670000</speed>
</trkpt>
<trkpt lat="31.770423889" lon="35.339496613">
  <ele>236.481689</ele>
  <time>2011-11-18T07:06:37Z</time>
  <speed>3.550000</speed>
</trkpt>
<trkpt lat="31.770452499" lon="35.339515686">
  <ele>236.028564</ele>
  <time>2011-11-18T07:06:38Z</time>
  <speed>3.370000</speed>
</trkpt>
<trkpt lat="31.770479202" lon="35.339527130">
  <ele>235.669189</ele>
  <time>2011-11-18T07:06:39Z</time>
  <speed>3.180000</speed>
</trkpt>
<trkpt lat="31.770507813" lon="35.339534760">
  <ele>235.739502</ele>
  <time>2011-11-18T07:06:40Z</time>
  <speed>3.280000</speed>
</trkpt>
<trkpt lat="31.770538330" lon="35.339530945">
  <ele>236.352783</ele>
  <time>2011-11-18T07:06:41Z</time>
  <speed>3.250000</speed>
</trkpt>
<trkpt lat="31.770566940" lon="35.339527130">
  <ele>236.665283</ele>
  <time>2011-11-18T07:06:42Z</time>
  <speed>2.550000</speed>
</trkpt>
<trkpt lat="31.770593643" lon="35.339515686">
  <ele>237.552002</ele>
  <time>2011-11-18T07:06:44Z</time>
  <speed>1.130000</speed>
</trkpt>
<trkpt lat="31.770627975" lon="35.339508057">
  <ele>238.009033</ele>
  <time>2011-11-18T07:06:47Z</time>
  <speed>1.380000</speed>
</trkpt>
<trkpt lat="31.770660400" lon="35.339508057">
  <ele>238.305908</ele>
  <time>2011-11-18T07:06:51Z</time>
  <speed>0.780000</speed>
</trkpt>
<trkpt lat="31.770708084" lon="35.339508057">
  <ele>237.395752</ele>
  <time>2011-11-18T07:06:54Z</time>
  <speed>2.840000</speed>
</trkpt>
<trkpt lat="31.770734787" lon="35.339496613">
  <ele>236.884033</ele>
  <time>2011-11-18T07:06:55Z</time>
  <speed>3.250000</speed>
</trkpt>
<trkpt lat="31.770763397" lon="35.339481354">
  <ele>235.942627</ele>
  <time>2011-11-18T07:06:56Z</time>
  <speed>4.260000</speed>
</trkpt>
<trkpt lat="31.770797729" lon="35.339462280">
  <ele>235.841064</ele>
  <time>2011-11-18T07:06:57Z</time>
  <speed>4.630000</speed>
</trkpt>
<trkpt lat="31.770835876" lon="35.339439392">
  <ele>235.286377</ele>
  <time>2011-11-18T07:06:58Z</time>
  <speed>5.210000</speed>
</trkpt>
<trkpt lat="31.770875931" lon="35.339416504">
  <ele>235.083252</ele>
  <time>2011-11-18T07:06:59Z</time>
  <speed>4.860000</speed>
</trkpt>
<trkpt lat="31.770906448" lon="35.339393616">
  <ele>235.063721</ele>
  <time>2011-11-18T07:07:00Z</time>
  <speed>3.720000</speed>
</trkpt>
<trkpt lat="31.770931244" lon="35.339374542">
  <ele>234.653564</ele>
  <time>2011-11-18T07:07:01Z</time>
  <speed>3.480000</speed>
</trkpt>
<trkpt lat="31.770977020" lon="35.339359283">
  <ele>234.122314</ele>
  <time>2011-11-18T07:07:03Z</time>
  <speed>2.810000</speed>
</trkpt>
<trkpt lat="31.771017075" lon="35.339347839">
  <ele>234.473877</ele>
  <time>2011-11-18T07:07:05Z</time>
  <speed>2.040000</speed>
</trkpt>
<trkpt lat="31.771036148" lon="35.339298248">
  <ele>234.509033</ele>
  <time>2011-11-18T07:07:07Z</time>
  <speed>2.920000</speed>
</trkpt>
<trkpt lat="31.771074295" lon="35.339275360">
  <ele>233.837158</ele>
  <time>2011-11-18T07:07:09Z</time>
  <speed>2.860000</speed>
</trkpt>
<trkpt lat="31.771129608" lon="35.339263916">
  <ele>233.302002</ele>
  <time>2011-11-18T07:07:11Z</time>
  <speed>3.590000</speed>
</trkpt>
<trkpt lat="31.771179199" lon="35.339237213">
  <ele>233.184814</ele>
  <time>2011-11-18T07:07:13Z</time>
  <speed>2.600000</speed>
</trkpt>
<trkpt lat="31.771223068" lon="35.339229584">
  <ele>233.149658</ele>
  <time>2011-11-18T07:07:15Z</time>
  <speed>3.020000</speed>
</trkpt>
<trkpt lat="31.771278381" lon="35.339233398">
  <ele>233.411377</ele>
  <time>2011-11-18T07:07:17Z</time>
  <speed>3.020000</speed>
</trkpt>
<trkpt lat="31.771324158" lon="35.339267731">
  <ele>233.180908</ele>
  <time>2011-11-18T07:07:19Z</time>
  <speed>3.310000</speed>
</trkpt>
<trkpt lat="31.771347046" lon="35.339294434">
  <ele>233.579346</ele>
  <time>2011-11-18T07:07:20Z</time>
  <speed>3.330000</speed>
</trkpt>
<trkpt lat="31.771375656" lon="35.339309692">
  <ele>233.657471</ele>
  <time>2011-11-18T07:07:21Z</time>
  <speed>3.190000</speed>
</trkpt>
<trkpt lat="31.771427155" lon="35.339324951">
  <ele>233.696533</ele>
  <time>2011-11-18T07:07:23Z</time>
  <speed>3.120000</speed>
</trkpt>
<trkpt lat="31.771455765" lon="35.339340210">
  <ele>233.712158</ele>
  <time>2011-11-18T07:07:24Z</time>
  <speed>3.600000</speed>
</trkpt>
<trkpt lat="31.771482468" lon="35.339351654">
  <ele>233.427002</ele>
  <time>2011-11-18T07:07:25Z</time>
  <speed>3.120000</speed>
</trkpt>
<trkpt lat="31.771514893" lon="35.339363098">
  <ele>233.372314</ele>
  <time>2011-11-18T07:07:26Z</time>
  <speed>3.440000</speed>
</trkpt>
<trkpt lat="31.771545410" lon="35.339374542">
  <ele>233.094971</ele>
  <time>2011-11-18T07:07:27Z</time>
  <speed>3.340000</speed>
</trkpt>
<trkpt lat="31.771574020" lon="35.339382172">
  <ele>233.204346</ele>
  <time>2011-11-18T07:07:28Z</time>
  <speed>3.040000</speed>
</trkpt>
<trkpt lat="31.771600723" lon="35.339385986">
  <ele>233.028564</ele>
  <time>2011-11-18T07:07:29Z</time>
  <speed>3.220000</speed>
</trkpt>
<trkpt lat="31.771644592" lon="35.339416504">
  <ele>232.864502</ele>
  <time>2011-11-18T07:07:31Z</time>
  <speed>2.700000</speed>
</trkpt>
<trkpt lat="31.771684647" lon="35.339454651">
  <ele>231.594971</ele>
  <time>2011-11-18T07:07:33Z</time>
  <speed>2.740000</speed>
</trkpt>
<trkpt lat="31.771709442" lon="35.339473724">
  <ele>231.442627</ele>
  <time>2011-11-18T07:07:34Z</time>
  <speed>3.290000</speed>
</trkpt>
<trkpt lat="31.771738052" lon="35.339492798">
  <ele>230.903564</ele>
  <time>2011-11-18T07:07:35Z</time>
  <speed>3.470000</speed>
</trkpt>
<trkpt lat="31.771772385" lon="35.339504242">
  <ele>230.645752</ele>
  <time>2011-11-18T07:07:36Z</time>
  <speed>4.010000</speed>
</trkpt>
<trkpt lat="31.771804810" lon="35.339519501">
  <ele>230.380127</ele>
  <time>2011-11-18T07:07:37Z</time>
  <speed>3.860000</speed>
</trkpt>
<trkpt lat="31.771837234" lon="35.339534760">
  <ele>230.114502</ele>
  <time>2011-11-18T07:07:38Z</time>
  <speed>3.880000</speed>
</trkpt>
<trkpt lat="31.771871567" lon="35.339542389">
  <ele>229.770752</ele>
  <time>2011-11-18T07:07:39Z</time>
  <speed>3.680000</speed>
</trkpt>
<trkpt lat="31.771902084" lon="35.339557648">
  <ele>229.790283</ele>
  <time>2011-11-18T07:07:40Z</time>
  <speed>3.300000</speed>
</trkpt>
<trkpt lat="31.771930695" lon="35.339569092">
  <ele>229.673096</ele>
  <time>2011-11-18T07:07:41Z</time>
  <speed>3.250000</speed>
</trkpt>
<trkpt lat="31.771959305" lon="35.339584351">
  <ele>229.653564</ele>
  <time>2011-11-18T07:07:42Z</time>
  <speed>3.230000</speed>
</trkpt>
<trkpt lat="31.771987915" lon="35.339588165">
  <ele>229.575439</ele>
  <time>2011-11-18T07:07:43Z</time>
  <speed>3.120000</speed>
</trkpt>
<trkpt lat="31.772037506" lon="35.339603424">
  <ele>230.094971</ele>
  <time>2011-11-18T07:07:45Z</time>
  <speed>3.020000</speed>
</trkpt>
<trkpt lat="31.772066116" lon="35.339618683">
  <ele>230.169189</ele>
  <time>2011-11-18T07:07:46Z</time>
  <speed>3.130000</speed>
</trkpt>
<trkpt lat="31.772100449" lon="35.339656830">
  <ele>230.485596</ele>
  <time>2011-11-18T07:07:48Z</time>
  <speed>2.450000</speed>
</trkpt>
<trkpt lat="31.772134781" lon="35.339679718">
  <ele>230.610596</ele>
  <time>2011-11-18T07:07:50Z</time>
  <speed>1.780000</speed>
</trkpt>
<trkpt lat="31.772155762" lon="35.339717865">
  <ele>230.899658</ele>
  <time>2011-11-18T07:07:52Z</time>
  <speed>1.810000</speed>
</trkpt>
<trkpt lat="31.772174835" lon="35.339763641">
  <ele>231.442627</ele>
  <time>2011-11-18T07:07:54Z</time>
  <speed>2.840000</speed>
</trkpt>
<trkpt lat="31.772182465" lon="35.339824677">
  <ele>231.356689</ele>
  <time>2011-11-18T07:07:56Z</time>
  <speed>2.470000</speed>
</trkpt>
<trkpt lat="31.772188187" lon="35.339878082">
  <ele>231.880127</ele>
  <time>2011-11-18T07:07:58Z</time>
  <speed>2.600000</speed>
</trkpt>
<trkpt lat="31.772184372" lon="35.339935303">
  <ele>232.399658</ele>
  <time>2011-11-18T07:08:00Z</time>
  <speed>2.740000</speed>
</trkpt>
<trkpt lat="31.772169113" lon="35.339992523">
  <ele>232.489502</ele>
  <time>2011-11-18T07:08:02Z</time>
  <speed>2.780000</speed>
</trkpt>
<trkpt lat="31.772161484" lon="35.340053558">
  <ele>233.520752</ele>
  <time>2011-11-18T07:08:04Z</time>
  <speed>2.570000</speed>
</trkpt>
<trkpt lat="31.772148132" lon="35.340110779">
  <ele>234.739502</ele>
  <time>2011-11-18T07:08:06Z</time>
  <speed>2.900000</speed>
</trkpt>
<trkpt lat="31.772136688" lon="35.340160370">
  <ele>234.645752</ele>
  <time>2011-11-18T07:08:08Z</time>
  <speed>2.470000</speed>
</trkpt>
<trkpt lat="31.772121429" lon="35.340194702">
  <ele>233.602783</ele>
  <time>2011-11-18T07:08:10Z</time>
  <speed>2.000000</speed>
</trkpt>
<trkpt lat="31.772098541" lon="35.340221405">
  <ele>233.985596</ele>
  <time>2011-11-18T07:08:12Z</time>
  <speed>1.910000</speed>
</trkpt>
<trkpt lat="31.772079468" lon="35.340244293">
  <ele>233.743408</ele>
  <time>2011-11-18T07:08:15Z</time>
  <speed>0.560000</speed>
</trkpt>
<trkpt lat="31.772054672" lon="35.340259552">
  <ele>233.719971</ele>
  <time>2011-11-18T07:08:28Z</time>
  <speed>1.010000</speed>
</trkpt>
<trkpt lat="31.772024155" lon="35.340248108">
  <ele>234.430908</ele>
  <time>2011-11-18T07:08:31Z</time>
  <speed>1.110000</speed>
</trkpt>
<trkpt lat="31.771995544" lon="35.340232849">
  <ele>235.032471</ele>
  <time>2011-11-18T07:08:34Z</time>
  <speed>1.160000</speed>
</trkpt>
<trkpt lat="31.771961212" lon="35.340221405">
  <ele>235.954346</ele>
  <time>2011-11-18T07:08:37Z</time>
  <speed>1.280000</speed>
</trkpt>
<trkpt lat="31.771930695" lon="35.340213776">
  <ele>236.364502</ele>
  <time>2011-11-18T07:08:40Z</time>
  <speed>0.960000</speed>
</trkpt>
<trkpt lat="31.771900177" lon="35.340209961">
  <ele>237.309814</ele>
  <time>2011-11-18T07:08:43Z</time>
  <speed>1.230000</speed>
</trkpt>
<trkpt lat="31.771862030" lon="35.340209961">
  <ele>238.364502</ele>
  <time>2011-11-18T07:08:46Z</time>
  <speed>1.180000</speed>
</trkpt>
<trkpt lat="31.771825790" lon="35.340221405">
  <ele>239.243408</ele>
  <time>2011-11-18T07:08:49Z</time>
  <speed>0.890000</speed>
</trkpt>
<trkpt lat="31.771799088" lon="35.340217590">
  <ele>240.669189</ele>
  <time>2011-11-18T07:08:56Z</time>
  <speed>1.260000</speed>
</trkpt>
<trkpt lat="31.771770477" lon="35.340221405">
  <ele>241.153564</ele>
  <time>2011-11-18T07:08:58Z</time>
  <speed>1.660000</speed>
</trkpt>
<trkpt lat="31.771738052" lon="35.340236664">
  <ele>240.817627</ele>
  <time>2011-11-18T07:09:00Z</time>
  <speed>1.910000</speed>
</trkpt>
<trkpt lat="31.771701813" lon="35.340259552">
  <ele>242.075439</ele>
  <time>2011-11-18T07:09:02Z</time>
  <speed>1.830000</speed>
</trkpt>
<trkpt lat="31.771673203" lon="35.340290070">
  <ele>242.540283</ele>
  <time>2011-11-18T07:09:04Z</time>
  <speed>2.280000</speed>
</trkpt>
<trkpt lat="31.771642685" lon="35.340328217">
  <ele>243.610596</ele>
  <time>2011-11-18T07:09:06Z</time>
  <speed>2.240000</speed>
</trkpt>
<trkpt lat="31.771604538" lon="35.340362549">
  <ele>244.880127</ele>
  <time>2011-11-18T07:09:08Z</time>
  <speed>2.000000</speed>
</trkpt>
<trkpt lat="31.771572113" lon="35.340389252">
  <ele>246.321533</ele>
  <time>2011-11-18T07:09:10Z</time>
  <speed>1.990000</speed>
</trkpt>
<trkpt lat="31.771543503" lon="35.340415955">
  <ele>247.376221</ele>
  <time>2011-11-18T07:09:12Z</time>
  <speed>1.860000</speed>
</trkpt>
<trkpt lat="31.771512985" lon="35.340423584">
  <ele>247.880127</ele>
  <time>2011-11-18T07:09:14Z</time>
  <speed>1.630000</speed>
</trkpt>
<trkpt lat="31.771488190" lon="35.340438843">
  <ele>248.782471</ele>
  <time>2011-11-18T07:09:16Z</time>
  <speed>1.590000</speed>
</trkpt>
<trkpt lat="31.771450043" lon="35.340450287">
  <ele>248.950439</ele>
  <time>2011-11-18T07:09:19Z</time>
  <speed>1.540000</speed>
</trkpt>
<trkpt lat="31.771417618" lon="35.340454102">
  <ele>248.848877</ele>
  <time>2011-11-18T07:09:21Z</time>
  <speed>1.790000</speed>
</trkpt>
<trkpt lat="31.771383286" lon="35.340461731">
  <ele>249.606689</ele>
  <time>2011-11-18T07:09:23Z</time>
  <speed>1.780000</speed>
</trkpt>
<trkpt lat="31.771352768" lon="35.340469360">
  <ele>250.067627</ele>
  <time>2011-11-18T07:09:25Z</time>
  <speed>1.890000</speed>
</trkpt>
<trkpt lat="31.771322250" lon="35.340469360">
  <ele>250.212158</ele>
  <time>2011-11-18T07:09:27Z</time>
  <speed>1.600000</speed>
</trkpt>
<trkpt lat="31.771295547" lon="35.340476990">
  <ele>250.411377</ele>
  <time>2011-11-18T07:09:29Z</time>
  <speed>2.050000</speed>
</trkpt>
<trkpt lat="31.771263123" lon="35.340484619">
  <ele>250.356689</ele>
  <time>2011-11-18T07:09:31Z</time>
  <speed>1.890000</speed>
</trkpt>
<trkpt lat="31.771236420" lon="35.340499878">
  <ele>250.223877</ele>
  <time>2011-11-18T07:09:33Z</time>
  <speed>1.700000</speed>
</trkpt>
<trkpt lat="31.771203995" lon="35.340503693">
  <ele>250.602783</ele>
  <time>2011-11-18T07:09:35Z</time>
  <speed>1.840000</speed>
</trkpt>
<trkpt lat="31.771163940" lon="35.340496063">
  <ele>250.813721</ele>
  <time>2011-11-18T07:09:38Z</time>
  <speed>1.640000</speed>
</trkpt>
<trkpt lat="31.771131516" lon="35.340499878">
  <ele>251.216064</ele>
  <time>2011-11-18T07:09:40Z</time>
  <speed>1.800000</speed>
</trkpt>
<trkpt lat="31.771095276" lon="35.340496063">
  <ele>251.880127</ele>
  <time>2011-11-18T07:09:42Z</time>
  <speed>1.820000</speed>
</trkpt>
<trkpt lat="31.771064758" lon="35.340496063">
  <ele>252.200439</ele>
  <time>2011-11-18T07:09:44Z</time>
  <speed>1.680000</speed>
</trkpt>
<trkpt lat="31.771028519" lon="35.340492249">
  <ele>252.637939</ele>
  <time>2011-11-18T07:09:46Z</time>
  <speed>1.910000</speed>
</trkpt>
<trkpt lat="31.770996094" lon="35.340492249">
  <ele>252.673096</ele>
  <time>2011-11-18T07:09:48Z</time>
  <speed>1.860000</speed>
</trkpt>
<trkpt lat="31.770956039" lon="35.340492249">
  <ele>252.739502</ele>
  <time>2011-11-18T07:09:51Z</time>
  <speed>1.530000</speed>
</trkpt>
<trkpt lat="31.770919800" lon="35.340476990">
  <ele>252.641846</ele>
  <time>2011-11-18T07:09:54Z</time>
  <speed>1.750000</speed>
</trkpt>
<trkpt lat="31.770883560" lon="35.340476990">
  <ele>253.356689</ele>
  <time>2011-11-18T07:09:56Z</time>
  <speed>1.760000</speed>
</trkpt>
<trkpt lat="31.770853043" lon="35.340473175">
  <ele>253.778564</ele>
  <time>2011-11-18T07:09:58Z</time>
  <speed>1.750000</speed>
</trkpt>
<trkpt lat="31.770816803" lon="35.340465546">
  <ele>254.141846</ele>
  <time>2011-11-18T07:10:00Z</time>
  <speed>1.560000</speed>
</trkpt>
<trkpt lat="31.770784378" lon="35.340461731">
  <ele>254.919189</ele>
  <time>2011-11-18T07:10:02Z</time>
  <speed>1.820000</speed>
</trkpt>
<trkpt lat="31.770750046" lon="35.340457916">
  <ele>255.173096</ele>
  <time>2011-11-18T07:10:04Z</time>
  <speed>2.080000</speed>
</trkpt>
<trkpt lat="31.770715714" lon="35.340454102">
  <ele>255.321533</ele>
  <time>2011-11-18T07:10:06Z</time>
  <speed>1.940000</speed>
</trkpt>
<trkpt lat="31.770679474" lon="35.340446472">
  <ele>255.200439</ele>
  <time>2011-11-18T07:10:08Z</time>
  <speed>2.050000</speed>
</trkpt>
<trkpt lat="31.770637512" lon="35.340446472">
  <ele>255.661377</ele>
  <time>2011-11-18T07:10:10Z</time>
  <speed>2.070000</speed>
</trkpt>
<trkpt lat="31.770597458" lon="35.340446472">
  <ele>255.692627</ele>
  <time>2011-11-18T07:10:12Z</time>
  <speed>2.230000</speed>
</trkpt>
<trkpt lat="31.770559311" lon="35.340438843">
  <ele>255.204346</ele>
  <time>2011-11-18T07:10:14Z</time>
  <speed>2.050000</speed>
</trkpt>
<trkpt lat="31.770524979" lon="35.340438843">
  <ele>255.192627</ele>
  <time>2011-11-18T07:10:16Z</time>
  <speed>2.200000</speed>
</trkpt>
<trkpt lat="31.770484924" lon="35.340427399">
  <ele>255.134033</ele>
  <time>2011-11-18T07:10:18Z</time>
  <speed>1.990000</speed>
</trkpt>
<trkpt lat="31.770444870" lon="35.340415955">
  <ele>255.864502</ele>
  <time>2011-11-18T07:10:20Z</time>
  <speed>2.050000</speed>
</trkpt>
<trkpt lat="31.770406723" lon="35.340408325">
  <ele>256.580566</ele>
  <time>2011-11-18T07:10:22Z</time>
  <speed>2.080000</speed>
</trkpt>
<trkpt lat="31.770370483" lon="35.340412140">
  <ele>255.954346</ele>
  <time>2011-11-18T07:10:24Z</time>
  <speed>2.020000</speed>
</trkpt>
<trkpt lat="31.770330429" lon="35.340415955">
  <ele>256.479004</ele>
  <time>2011-11-18T07:10:26Z</time>
  <speed>2.000000</speed>
</trkpt>
<trkpt lat="31.770294189" lon="35.340404510">
  <ele>256.705566</ele>
  <time>2011-11-18T07:10:28Z</time>
  <speed>2.090000</speed>
</trkpt>
<trkpt lat="31.770257950" lon="35.340393066">
  <ele>256.877441</ele>
  <time>2011-11-18T07:10:30Z</time>
  <speed>2.360000</speed>
</trkpt>
<trkpt lat="31.770217896" lon="35.340389252">
  <ele>256.932129</ele>
  <time>2011-11-18T07:10:32Z</time>
  <speed>2.360000</speed>
</trkpt>
<trkpt lat="31.770179749" lon="35.340381622">
  <ele>256.869629</ele>
  <time>2011-11-18T07:10:34Z</time>
  <speed>2.120000</speed>
</trkpt>
<trkpt lat="31.770137787" lon="35.340377808">
  <ele>256.955566</ele>
  <time>2011-11-18T07:10:36Z</time>
  <speed>2.080000</speed>
</trkpt>
<trkpt lat="31.770103455" lon="35.340377808">
  <ele>257.221191</ele>
  <time>2011-11-18T07:10:38Z</time>
  <speed>1.970000</speed>
</trkpt>
<trkpt lat="31.770067215" lon="35.340370178">
  <ele>257.385254</ele>
  <time>2011-11-18T07:10:40Z</time>
  <speed>1.970000</speed>
</trkpt>
<trkpt lat="31.770032883" lon="35.340373993">
  <ele>257.510254</ele>
  <time>2011-11-18T07:10:42Z</time>
  <speed>2.120000</speed>
</trkpt>
<trkpt lat="31.769996643" lon="35.340381622">
  <ele>257.557129</ele>
  <time>2011-11-18T07:10:44Z</time>
  <speed>2.030000</speed>
</trkpt>
<trkpt lat="31.769956589" lon="35.340377808">
  <ele>257.705566</ele>
  <time>2011-11-18T07:10:46Z</time>
  <speed>2.080000</speed>
</trkpt>
<trkpt lat="31.769918442" lon="35.340381622">
  <ele>257.791504</ele>
  <time>2011-11-18T07:10:48Z</time>
  <speed>2.260000</speed>
</trkpt>
<trkpt lat="31.769878387" lon="35.340389252">
  <ele>258.564941</ele>
  <time>2011-11-18T07:10:50Z</time>
  <speed>2.200000</speed>
</trkpt>
<trkpt lat="31.769838333" lon="35.340389252">
  <ele>258.939941</ele>
  <time>2011-11-18T07:10:52Z</time>
  <speed>2.100000</speed>
</trkpt>
<trkpt lat="31.769802094" lon="35.340389252">
  <ele>259.150879</ele>
  <time>2011-11-18T07:10:54Z</time>
  <speed>2.340000</speed>
</trkpt>
<trkpt lat="31.769758224" lon="35.340389252">
  <ele>259.596191</ele>
  <time>2011-11-18T07:10:56Z</time>
  <speed>2.210000</speed>
</trkpt>
<trkpt lat="31.769718170" lon="35.340389252">
  <ele>260.338379</ele>
  <time>2011-11-18T07:10:58Z</time>
  <speed>2.210000</speed>
</trkpt>
<trkpt lat="31.769678116" lon="35.340393066">
  <ele>260.682129</ele>
  <time>2011-11-18T07:11:00Z</time>
  <speed>2.240000</speed>
</trkpt>
<trkpt lat="31.769634247" lon="35.340400696">
  <ele>261.252441</ele>
  <time>2011-11-18T07:11:02Z</time>
  <speed>2.510000</speed>
</trkpt>
<trkpt lat="31.769592285" lon="35.340396881">
  <ele>261.127441</ele>
  <time>2011-11-18T07:11:04Z</time>
  <speed>2.330000</speed>
</trkpt>
<trkpt lat="31.769552231" lon="35.340389252">
  <ele>261.229004</ele>
  <time>2011-11-18T07:11:06Z</time>
  <speed>2.270000</speed>
</trkpt>
<trkpt lat="31.769523621" lon="35.340385437">
  <ele>261.221191</ele>
  <time>2011-11-18T07:11:08Z</time>
  <speed>2.090000</speed>
</trkpt>
<trkpt lat="31.769475937" lon="35.340377808">
  <ele>261.533691</ele>
  <time>2011-11-18T07:11:10Z</time>
  <speed>2.240000</speed>
</trkpt>
<trkpt lat="31.769428253" lon="35.340370178">
  <ele>262.010254</ele>
  <time>2011-11-18T07:11:12Z</time>
  <speed>2.410000</speed>
</trkpt>
<trkpt lat="31.769386292" lon="35.340362549">
  <ele>261.783691</ele>
  <time>2011-11-18T07:11:14Z</time>
  <speed>2.580000</speed>
</trkpt>
<trkpt lat="31.769336700" lon="35.340354919">
  <ele>262.041504</ele>
  <time>2011-11-18T07:11:16Z</time>
  <speed>2.620000</speed>
</trkpt>
<trkpt lat="31.769296646" lon="35.340335846">
  <ele>262.119629</ele>
  <time>2011-11-18T07:11:18Z</time>
  <speed>2.480000</speed>
</trkpt>
<trkpt lat="31.769248962" lon="35.340312958">
  <ele>262.104004</ele>
  <time>2011-11-18T07:11:20Z</time>
  <speed>2.250000</speed>
</trkpt>
<trkpt lat="31.769203186" lon="35.340305328">
  <ele>262.330566</ele>
  <time>2011-11-18T07:11:22Z</time>
  <speed>2.730000</speed>
</trkpt>
<trkpt lat="31.769157410" lon="35.340286255">
  <ele>262.221191</ele>
  <time>2011-11-18T07:11:24Z</time>
  <speed>2.770000</speed>
</trkpt>
<trkpt lat="31.769130707" lon="35.340278625">
  <ele>262.197754</ele>
  <time>2011-11-18T07:11:25Z</time>
  <speed>2.870000</speed>
</trkpt>
<trkpt lat="31.769077301" lon="35.340267181">
  <ele>262.455566</ele>
  <time>2011-11-18T07:11:27Z</time>
  <speed>2.900000</speed>
</trkpt>
<trkpt lat="31.769048691" lon="35.340259552">
  <ele>262.479004</ele>
  <time>2011-11-18T07:11:28Z</time>
  <speed>2.800000</speed>
</trkpt>
<trkpt lat="31.769004822" lon="35.340251923">
  <ele>262.010254</ele>
  <time>2011-11-18T07:11:30Z</time>
  <speed>2.520000</speed>
</trkpt>
<trkpt lat="31.768960953" lon="35.340240479">
  <ele>262.143066</ele>
  <time>2011-11-18T07:11:32Z</time>
  <speed>2.690000</speed>
</trkpt>
<trkpt lat="31.768934250" lon="35.340240479">
  <ele>262.471191</ele>
  <time>2011-11-18T07:11:33Z</time>
  <speed>2.700000</speed>
</trkpt>
<trkpt lat="31.768886566" lon="35.340229034">
  <ele>262.291504</ele>
  <time>2011-11-18T07:11:35Z</time>
  <speed>2.920000</speed>
</trkpt>
<trkpt lat="31.768857956" lon="35.340225220">
  <ele>262.369629</ele>
  <time>2011-11-18T07:11:36Z</time>
  <speed>3.080000</speed>
</trkpt>
<trkpt lat="31.768829346" lon="35.340213776">
  <ele>262.369629</ele>
  <time>2011-11-18T07:11:37Z</time>
  <speed>2.900000</speed>
</trkpt>
<trkpt lat="31.768774033" lon="35.340213776">
  <ele>263.111816</ele>
  <time>2011-11-18T07:11:39Z</time>
  <speed>2.840000</speed>
</trkpt>
<trkpt lat="31.768728256" lon="35.340209961">
  <ele>263.018066</ele>
  <time>2011-11-18T07:11:41Z</time>
  <speed>2.390000</speed>
</trkpt>
<trkpt lat="31.768686295" lon="35.340198517">
  <ele>263.596191</ele>
  <time>2011-11-18T07:11:43Z</time>
  <speed>2.410000</speed>
</trkpt>
<trkpt lat="31.768634796" lon="35.340194702">
  <ele>264.354004</ele>
  <time>2011-11-18T07:11:45Z</time>
  <speed>2.850000</speed>
</trkpt>
<trkpt lat="31.768587112" lon="35.340198517">
  <ele>264.322754</ele>
  <time>2011-11-18T07:11:47Z</time>
  <speed>2.590000</speed>
</trkpt>
<trkpt lat="31.768539429" lon="35.340206146">
  <ele>264.393066</ele>
  <time>2011-11-18T07:11:49Z</time>
  <speed>2.790000</speed>
</trkpt>
<trkpt lat="31.768497467" lon="35.340206146">
  <ele>264.408691</ele>
  <time>2011-11-18T07:11:51Z</time>
  <speed>2.570000</speed>
</trkpt>
<trkpt lat="31.768453598" lon="35.340209961">
  <ele>264.455566</ele>
  <time>2011-11-18T07:11:53Z</time>
  <speed>2.710000</speed>
</trkpt>
<trkpt lat="31.768405914" lon="35.340217590">
  <ele>264.947754</ele>
  <time>2011-11-18T07:11:55Z</time>
  <speed>2.310000</speed>
</trkpt>
<trkpt lat="31.768373489" lon="35.340232849">
  <ele>264.650879</ele>
  <time>2011-11-18T07:11:57Z</time>
  <speed>1.760000</speed>
</trkpt>
<trkpt lat="31.768337250" lon="35.340240479">
  <ele>264.713379</ele>
  <time>2011-11-18T07:11:59Z</time>
  <speed>1.920000</speed>
</trkpt>
<trkpt lat="31.768302917" lon="35.340251923">
  <ele>265.932129</ele>
  <time>2011-11-18T07:12:01Z</time>
  <speed>1.400000</speed>
</trkpt>
<trkpt lat="31.768280029" lon="35.340267181">
  <ele>266.682129</ele>
  <time>2011-11-18T07:12:03Z</time>
  <speed>1.780000</speed>
</trkpt>
<trkpt lat="31.768253326" lon="35.340290070">
  <ele>266.627441</ele>
  <time>2011-11-18T07:12:05Z</time>
  <speed>1.970000</speed>
</trkpt>
<trkpt lat="31.768224716" lon="35.340297699">
  <ele>266.260254</ele>
  <time>2011-11-18T07:12:07Z</time>
  <speed>1.570000</speed>
</trkpt>
<trkpt lat="31.768201828" lon="35.340278625">
  <ele>266.822754</ele>
  <time>2011-11-18T07:12:11Z</time>
  <speed>0.360000</speed>
</trkpt>
<trkpt lat="31.768220901" lon="35.340255737">
  <ele>267.338379</ele>
  <time>2011-11-18T07:12:28Z</time>
  <speed>0.020000</speed>
</trkpt>
<trkpt lat="31.768228531" lon="35.340286255">
  <ele>267.299316</ele>
  <time>2011-11-18T07:12:54Z</time>
</trkpt>
<trkpt lat="31.768226624" lon="35.340301514">
  <ele>264.596191</ele>
  <time>2011-11-18T07:13:06Z</time>
</trkpt>
<trkpt lat="31.768203735" lon="35.340320587">
  <ele>265.314941</ele>
  <time>2011-11-18T07:13:21Z</time>
  <speed>1.360000</speed>
</trkpt>
<trkpt lat="31.768178940" lon="35.340347290">
  <ele>264.986816</ele>
  <time>2011-11-18T07:13:23Z</time>
  <speed>1.260000</speed>
</trkpt>
<trkpt lat="31.768138885" lon="35.340366364">
  <ele>264.807129</ele>
  <time>2011-11-18T07:13:26Z</time>
  <speed>1.520000</speed>
</trkpt>
<trkpt lat="31.768108368" lon="35.340373993">
  <ele>264.150879</ele>
  <time>2011-11-18T07:13:28Z</time>
  <speed>2.030000</speed>
</trkpt>
<trkpt lat="31.768068314" lon="35.340381622">
  <ele>264.361816</ele>
  <time>2011-11-18T07:13:30Z</time>
  <speed>2.090000</speed>
</trkpt>
<trkpt lat="31.768037796" lon="35.340400696">
  <ele>264.580566</ele>
  <time>2011-11-18T07:13:32Z</time>
  <speed>2.120000</speed>
</trkpt>
<trkpt lat="31.767995834" lon="35.340415955">
  <ele>265.564941</ele>
  <time>2011-11-18T07:13:34Z</time>
  <speed>2.260000</speed>
</trkpt>
<trkpt lat="31.767957687" lon="35.340438843">
  <ele>266.432129</ele>
  <time>2011-11-18T07:13:36Z</time>
  <speed>2.490000</speed>
</trkpt>
<trkpt lat="31.767910004" lon="35.340454102">
  <ele>267.479004</ele>
  <time>2011-11-18T07:13:38Z</time>
  <speed>2.370000</speed>
</trkpt>
<trkpt lat="31.767875671" lon="35.340469360">
  <ele>267.096191</ele>
  <time>2011-11-18T07:13:40Z</time>
  <speed>2.490000</speed>
</trkpt>
<trkpt lat="31.767831802" lon="35.340496063">
  <ele>267.580566</ele>
  <time>2011-11-18T07:13:42Z</time>
  <speed>2.560000</speed>
</trkpt>
<trkpt lat="31.767805099" lon="35.340515137">
  <ele>267.541504</ele>
  <time>2011-11-18T07:13:43Z</time>
  <speed>2.620000</speed>
</trkpt>
<trkpt lat="31.767765045" lon="35.340530396">
  <ele>267.588379</ele>
  <time>2011-11-18T07:13:45Z</time>
  <speed>2.690000</speed>
</trkpt>
<trkpt lat="31.767721176" lon="35.340549469">
  <ele>268.205566</ele>
  <time>2011-11-18T07:13:47Z</time>
  <speed>2.630000</speed>
</trkpt>
<trkpt lat="31.767673492" lon="35.340568542">
  <ele>268.791504</ele>
  <time>2011-11-18T07:13:49Z</time>
  <speed>2.870000</speed>
</trkpt>
<trkpt lat="31.767623901" lon="35.340602875">
  <ele>269.619629</ele>
  <time>2011-11-18T07:13:51Z</time>
  <speed>3.060000</speed>
</trkpt>
<trkpt lat="31.767595291" lon="35.340621948">
  <ele>270.252441</ele>
  <time>2011-11-18T07:13:52Z</time>
  <speed>3.050000</speed>
</trkpt>
<trkpt lat="31.767570496" lon="35.340641022">
  <ele>270.494629</ele>
  <time>2011-11-18T07:13:53Z</time>
  <speed>2.910000</speed>
</trkpt>
<trkpt lat="31.767524719" lon="35.340667725">
  <ele>270.846191</ele>
  <time>2011-11-18T07:13:55Z</time>
  <speed>2.420000</speed>
</trkpt>
<trkpt lat="31.767478943" lon="35.340686798">
  <ele>271.400879</ele>
  <time>2011-11-18T07:13:57Z</time>
  <speed>3.250000</speed>
</trkpt>
<trkpt lat="31.767452240" lon="35.340698242">
  <ele>271.814941</ele>
  <time>2011-11-18T07:13:58Z</time>
  <speed>3.390000</speed>
</trkpt>
<trkpt lat="31.767425537" lon="35.340709686">
  <ele>271.799316</ele>
  <time>2011-11-18T07:13:59Z</time>
  <speed>3.430000</speed>
</trkpt>
<trkpt lat="31.767395020" lon="35.340721130">
  <ele>272.268066</ele>
  <time>2011-11-18T07:14:00Z</time>
  <speed>3.070000</speed>
</trkpt>
<trkpt lat="31.767341614" lon="35.340744019">
  <ele>272.197754</ele>
  <time>2011-11-18T07:14:02Z</time>
  <speed>3.340000</speed>
</trkpt>
<trkpt lat="31.767288208" lon="35.340763092">
  <ele>272.182129</ele>
  <time>2011-11-18T07:14:04Z</time>
  <speed>3.290000</speed>
</trkpt>
<trkpt lat="31.767255783" lon="35.340774536">
  <ele>272.689941</ele>
  <time>2011-11-18T07:14:05Z</time>
  <speed>3.460000</speed>
</trkpt>
<trkpt lat="31.767223358" lon="35.340789795">
  <ele>272.783691</ele>
  <time>2011-11-18T07:14:06Z</time>
  <speed>3.550000</speed>
</trkpt>
<trkpt lat="31.767166138" lon="35.340812683">
  <ele>273.088379</ele>
  <time>2011-11-18T07:14:08Z</time>
  <speed>3.450000</speed>
</trkpt>
<trkpt lat="31.767139435" lon="35.340827942">
  <ele>273.189941</ele>
  <time>2011-11-18T07:14:09Z</time>
  <speed>3.480000</speed>
</trkpt>
<trkpt lat="31.767112732" lon="35.340843201">
  <ele>273.244629</ele>
  <time>2011-11-18T07:14:10Z</time>
  <speed>3.160000</speed>
</trkpt>
<trkpt lat="31.767084122" lon="35.340850830">
  <ele>273.736816</ele>
  <time>2011-11-18T07:14:11Z</time>
  <speed>3.200000</speed>
</trkpt>
<trkpt lat="31.767055511" lon="35.340866089">
  <ele>273.385254</ele>
  <time>2011-11-18T07:14:12Z</time>
  <speed>3.300000</speed>
</trkpt>
<trkpt lat="31.767026901" lon="35.340885162">
  <ele>273.900879</ele>
  <time>2011-11-18T07:14:13Z</time>
  <speed>3.240000</speed>
</trkpt>
<trkpt lat="31.767002106" lon="35.340900421">
  <ele>273.572754</ele>
  <time>2011-11-18T07:14:14Z</time>
  <speed>3.300000</speed>
</trkpt>
<trkpt lat="31.766975403" lon="35.340908051">
  <ele>273.736816</ele>
  <time>2011-11-18T07:14:15Z</time>
  <speed>3.350000</speed>
</trkpt>
<trkpt lat="31.766948700" lon="35.340923309">
  <ele>273.471191</ele>
  <time>2011-11-18T07:14:16Z</time>
  <speed>3.230000</speed>
</trkpt>
<trkpt lat="31.766899109" lon="35.340946198">
  <ele>273.393066</ele>
  <time>2011-11-18T07:14:18Z</time>
  <speed>3.150000</speed>
</trkpt>
<trkpt lat="31.766870499" lon="35.340957642">
  <ele>273.721191</ele>
  <time>2011-11-18T07:14:19Z</time>
  <speed>3.350000</speed>
</trkpt>
<trkpt lat="31.766841888" lon="35.340972900">
  <ele>273.439941</ele>
  <time>2011-11-18T07:14:20Z</time>
  <speed>3.280000</speed>
</trkpt>
<trkpt lat="31.766786575" lon="35.340995789">
  <ele>273.744629</ele>
  <time>2011-11-18T07:14:22Z</time>
  <speed>3.460000</speed>
</trkpt>
<trkpt lat="31.766759872" lon="35.341011047">
  <ele>273.768066</ele>
  <time>2011-11-18T07:14:23Z</time>
  <speed>3.610000</speed>
</trkpt>
<trkpt lat="31.766731262" lon="35.341022491">
  <ele>273.479004</ele>
  <time>2011-11-18T07:14:24Z</time>
  <speed>3.700000</speed>
</trkpt>
<trkpt lat="31.766704559" lon="35.341037750">
  <ele>273.604004</ele>
  <time>2011-11-18T07:14:25Z</time>
  <speed>3.660000</speed>
</trkpt>
<trkpt lat="31.766675949" lon="35.341045380">
  <ele>273.244629</ele>
  <time>2011-11-18T07:14:26Z</time>
  <speed>3.750000</speed>
</trkpt>
<trkpt lat="31.766641617" lon="35.341060638">
  <ele>273.205566</ele>
  <time>2011-11-18T07:14:27Z</time>
  <speed>3.620000</speed>
</trkpt>
<trkpt lat="31.766614914" lon="35.341072083">
  <ele>272.994629</ele>
  <time>2011-11-18T07:14:28Z</time>
  <speed>3.490000</speed>
</trkpt>
<trkpt lat="31.766586304" lon="35.341083527">
  <ele>272.869629</ele>
  <time>2011-11-18T07:14:29Z</time>
  <speed>3.180000</speed>
</trkpt>
<trkpt lat="31.766561508" lon="35.341098785">
  <ele>272.807129</ele>
  <time>2011-11-18T07:14:30Z</time>
  <speed>3.050000</speed>
</trkpt>
<trkpt lat="31.766534805" lon="35.341114044">
  <ele>272.908691</ele>
  <time>2011-11-18T07:14:31Z</time>
  <speed>3.430000</speed>
</trkpt>
<trkpt lat="31.766508102" lon="35.341133118">
  <ele>273.385254</ele>
  <time>2011-11-18T07:14:32Z</time>
  <speed>3.170000</speed>
</trkpt>
<trkpt lat="31.766481400" lon="35.341152191">
  <ele>273.580566</ele>
  <time>2011-11-18T07:14:33Z</time>
  <speed>3.470000</speed>
</trkpt>
<trkpt lat="31.766454697" lon="35.341175079">
  <ele>274.479004</ele>
  <time>2011-11-18T07:14:34Z</time>
  <speed>3.460000</speed>
</trkpt>
<trkpt lat="31.766426086" lon="35.341194153">
  <ele>274.400879</ele>
  <time>2011-11-18T07:14:35Z</time>
  <speed>3.290000</speed>
</trkpt>
<trkpt lat="31.766374588" lon="35.341224670">
  <ele>274.463379</ele>
  <time>2011-11-18T07:14:37Z</time>
  <speed>3.500000</speed>
</trkpt>
<trkpt lat="31.766347885" lon="35.341239929">
  <ele>274.439941</ele>
  <time>2011-11-18T07:14:38Z</time>
  <speed>3.390000</speed>
</trkpt>
<trkpt lat="31.766323090" lon="35.341255188">
  <ele>274.283691</ele>
  <time>2011-11-18T07:14:39Z</time>
  <speed>3.230000</speed>
</trkpt>
<trkpt lat="31.766298294" lon="35.341274261">
  <ele>274.400879</ele>
  <time>2011-11-18T07:14:40Z</time>
  <speed>3.200000</speed>
</trkpt>
<trkpt lat="31.766271591" lon="35.341293335">
  <ele>274.580566</ele>
  <time>2011-11-18T07:14:41Z</time>
  <speed>3.200000</speed>
</trkpt>
<trkpt lat="31.766246796" lon="35.341312408">
  <ele>274.955566</ele>
  <time>2011-11-18T07:14:42Z</time>
  <speed>3.230000</speed>
</trkpt>
<trkpt lat="31.766222000" lon="35.341335297">
  <ele>275.221191</ele>
  <time>2011-11-18T07:14:43Z</time>
  <speed>3.340000</speed>
</trkpt>
<trkpt lat="31.766197205" lon="35.341358185">
  <ele>275.689941</ele>
  <time>2011-11-18T07:14:44Z</time>
  <speed>3.260000</speed>
</trkpt>
<trkpt lat="31.766172409" lon="35.341377258">
  <ele>276.314941</ele>
  <time>2011-11-18T07:14:45Z</time>
  <speed>3.130000</speed>
</trkpt>
<trkpt lat="31.766134262" lon="35.341426849">
  <ele>276.971191</ele>
  <time>2011-11-18T07:14:47Z</time>
  <speed>3.440000</speed>
</trkpt>
<trkpt lat="31.766115189" lon="35.341449738">
  <ele>277.252441</ele>
  <time>2011-11-18T07:14:48Z</time>
  <speed>3.280000</speed>
</trkpt>
<trkpt lat="31.766092300" lon="35.341476440">
  <ele>277.729004</ele>
  <time>2011-11-18T07:14:49Z</time>
  <speed>3.100000</speed>
</trkpt>
<trkpt lat="31.766067505" lon="35.341495514">
  <ele>277.971191</ele>
  <time>2011-11-18T07:14:50Z</time>
  <speed>3.180000</speed>
</trkpt>
<trkpt lat="31.766038895" lon="35.341518402">
  <ele>278.354004</ele>
  <time>2011-11-18T07:14:51Z</time>
  <speed>3.180000</speed>
</trkpt>
<trkpt lat="31.766014099" lon="35.341537476">
  <ele>278.822754</ele>
  <time>2011-11-18T07:14:52Z</time>
  <speed>3.180000</speed>
</trkpt>
<trkpt lat="31.765991211" lon="35.341560364">
  <ele>279.127441</ele>
  <time>2011-11-18T07:14:53Z</time>
  <speed>3.130000</speed>
</trkpt>
<trkpt lat="31.765945435" lon="35.341598511">
  <ele>279.377441</ele>
  <time>2011-11-18T07:14:55Z</time>
  <speed>3.210000</speed>
</trkpt>
<trkpt lat="31.765922546" lon="35.341617584">
  <ele>279.643066</ele>
  <time>2011-11-18T07:14:56Z</time>
  <speed>3.020000</speed>
</trkpt>
<trkpt lat="31.765880585" lon="35.341655731">
  <ele>279.627441</ele>
  <time>2011-11-18T07:14:58Z</time>
  <speed>3.030000</speed>
</trkpt>
<trkpt lat="31.765853882" lon="35.341670990">
  <ele>279.627441</ele>
  <time>2011-11-18T07:14:59Z</time>
  <speed>3.150000</speed>
</trkpt>
<trkpt lat="31.765827179" lon="35.341682434">
  <ele>279.354004</ele>
  <time>2011-11-18T07:15:00Z</time>
  <speed>3.080000</speed>
</trkpt>
<trkpt lat="31.765800476" lon="35.341690063">
  <ele>279.221191</ele>
  <time>2011-11-18T07:15:01Z</time>
  <speed>2.930000</speed>
</trkpt>
<trkpt lat="31.765773773" lon="35.341705322">
  <ele>279.572754</ele>
  <time>2011-11-18T07:15:02Z</time>
  <speed>2.930000</speed>
</trkpt>
<trkpt lat="31.765750885" lon="35.341724396">
  <ele>279.752441</ele>
  <time>2011-11-18T07:15:03Z</time>
  <speed>3.160000</speed>
</trkpt>
<trkpt lat="31.765726089" lon="35.341747284">
  <ele>280.291504</ele>
  <time>2011-11-18T07:15:04Z</time>
  <speed>3.180000</speed>
</trkpt>
<trkpt lat="31.765682220" lon="35.341785431">
  <ele>280.619629</ele>
  <time>2011-11-18T07:15:06Z</time>
  <speed>3.100000</speed>
</trkpt>
<trkpt lat="31.765661240" lon="35.341804504">
  <ele>281.166504</ele>
  <time>2011-11-18T07:15:07Z</time>
  <speed>2.880000</speed>
</trkpt>
<trkpt lat="31.765638351" lon="35.341823578">
  <ele>281.627441</ele>
  <time>2011-11-18T07:15:08Z</time>
  <speed>3.090000</speed>
</trkpt>
<trkpt lat="31.765598297" lon="35.341865540">
  <ele>281.916504</ele>
  <time>2011-11-18T07:15:10Z</time>
  <speed>2.920000</speed>
</trkpt>
<trkpt lat="31.765562057" lon="35.341907501">
  <ele>282.947754</ele>
  <time>2011-11-18T07:15:12Z</time>
  <speed>2.840000</speed>
</trkpt>
<trkpt lat="31.765527725" lon="35.341945648">
  <ele>283.369629</ele>
  <time>2011-11-18T07:15:14Z</time>
  <speed>2.790000</speed>
</trkpt>
<trkpt lat="31.765493393" lon="35.341991425">
  <ele>284.471191</ele>
  <time>2011-11-18T07:15:16Z</time>
  <speed>2.670000</speed>
</trkpt>
<trkpt lat="31.765459061" lon="35.342033386">
  <ele>284.830566</ele>
  <time>2011-11-18T07:15:18Z</time>
  <speed>2.660000</speed>
</trkpt>
<trkpt lat="31.765430450" lon="35.342063904">
  <ele>285.432129</ele>
  <time>2011-11-18T07:15:20Z</time>
  <speed>2.010000</speed>
</trkpt>
<trkpt lat="31.765399933" lon="35.342094421">
  <ele>285.877441</ele>
  <time>2011-11-18T07:15:22Z</time>
  <speed>2.300000</speed>
</trkpt>
<trkpt lat="31.765361786" lon="35.342124939">
  <ele>286.689941</ele>
  <time>2011-11-18T07:15:24Z</time>
  <speed>2.750000</speed>
</trkpt>
<trkpt lat="31.765321732" lon="35.342147827">
  <ele>286.908691</ele>
  <time>2011-11-18T07:15:26Z</time>
  <speed>2.310000</speed>
</trkpt>
<trkpt lat="31.765287399" lon="35.342182159">
  <ele>287.822754</ele>
  <time>2011-11-18T07:15:28Z</time>
  <speed>2.040000</speed>
</trkpt>
<trkpt lat="31.765254974" lon="35.342205048">
  <ele>288.900879</ele>
  <time>2011-11-18T07:15:30Z</time>
  <speed>2.030000</speed>
</trkpt>
<trkpt lat="31.765228271" lon="35.342235565">
  <ele>288.596191</ele>
  <time>2011-11-18T07:15:32Z</time>
  <speed>2.200000</speed>
</trkpt>
<trkpt lat="31.765199661" lon="35.342258453">
  <ele>289.322754</ele>
  <time>2011-11-18T07:15:34Z</time>
  <speed>2.120000</speed>
</trkpt>
<trkpt lat="31.765167236" lon="35.342288971">
  <ele>290.338379</ele>
  <time>2011-11-18T07:15:36Z</time>
  <speed>1.660000</speed>
</trkpt>
<trkpt lat="31.765140533" lon="35.342300415">
  <ele>290.189941</ele>
  <time>2011-11-18T07:15:38Z</time>
  <speed>1.410000</speed>
</trkpt>
<trkpt lat="31.765104294" lon="35.342323303">
  <ele>291.283691</ele>
  <time>2011-11-18T07:15:40Z</time>
  <speed>1.700000</speed>
</trkpt>
<trkpt lat="31.765066147" lon="35.342342377">
  <ele>291.119629</ele>
  <time>2011-11-18T07:15:43Z</time>
  <speed>1.480000</speed>
</trkpt>
<trkpt lat="31.765039444" lon="35.342346191">
  <ele>291.111816</ele>
  <time>2011-11-18T07:15:45Z</time>
  <speed>1.670000</speed>
</trkpt>
<trkpt lat="31.765014648" lon="35.342361450">
  <ele>291.400879</ele>
  <time>2011-11-18T07:15:47Z</time>
  <speed>1.930000</speed>
</trkpt>
<trkpt lat="31.764982224" lon="35.342369080">
  <ele>291.588379</ele>
  <time>2011-11-18T07:15:49Z</time>
  <speed>1.590000</speed>
</trkpt>
<trkpt lat="31.764944077" lon="35.342384338">
  <ele>291.986816</ele>
  <time>2011-11-18T07:15:52Z</time>
  <speed>1.810000</speed>
</trkpt>
<trkpt lat="31.764915466" lon="35.342395782">
  <ele>291.916504</ele>
  <time>2011-11-18T07:15:54Z</time>
  <speed>1.930000</speed>
</trkpt>
<trkpt lat="31.764892578" lon="35.342414856">
  <ele>291.830566</ele>
  <time>2011-11-18T07:15:56Z</time>
  <speed>1.630000</speed>
</trkpt>
<trkpt lat="31.764863968" lon="35.342433929">
  <ele>292.010254</ele>
  <time>2011-11-18T07:15:58Z</time>
  <speed>1.800000</speed>
</trkpt>
<trkpt lat="31.764831543" lon="35.342449188">
  <ele>292.885254</ele>
  <time>2011-11-18T07:16:00Z</time>
  <speed>2.070000</speed>
</trkpt>
<trkpt lat="31.764799118" lon="35.342464447">
  <ele>293.471191</ele>
  <time>2011-11-18T07:16:02Z</time>
  <speed>1.830000</speed>
</trkpt>
<trkpt lat="31.764760971" lon="35.342479706">
  <ele>293.580566</ele>
  <time>2011-11-18T07:16:05Z</time>
  <speed>1.820000</speed>
</trkpt>
<trkpt lat="31.764728546" lon="35.342494965">
  <ele>294.385254</ele>
  <time>2011-11-18T07:16:07Z</time>
  <speed>1.810000</speed>
</trkpt>
<trkpt lat="31.764698029" lon="35.342498779">
  <ele>294.658691</ele>
  <time>2011-11-18T07:16:09Z</time>
  <speed>1.770000</speed>
</trkpt>
<trkpt lat="31.764669418" lon="35.342498779">
  <ele>294.666504</ele>
  <time>2011-11-18T07:16:11Z</time>
  <speed>1.720000</speed>
</trkpt>
<trkpt lat="31.764636993" lon="35.342529297">
  <ele>294.166504</ele>
  <time>2011-11-18T07:16:14Z</time>
  <speed>1.690000</speed>
</trkpt>
<trkpt lat="31.764600754" lon="35.342540741">
  <ele>294.822754</ele>
  <time>2011-11-18T07:16:16Z</time>
  <speed>1.330000</speed>
</trkpt>
<trkpt lat="31.764562607" lon="35.342548370">
  <ele>295.291504</ele>
  <time>2011-11-18T07:16:19Z</time>
  <speed>1.410000</speed>
</trkpt>
<trkpt lat="31.764524460" lon="35.342559814">
  <ele>295.604004</ele>
  <time>2011-11-18T07:16:22Z</time>
  <speed>1.460000</speed>
</trkpt>
<trkpt lat="31.764497757" lon="35.342559814">
  <ele>295.260254</ele>
  <time>2011-11-18T07:16:24Z</time>
  <speed>1.630000</speed>
</trkpt>
<trkpt lat="31.764469147" lon="35.342567444">
  <ele>295.479004</ele>
  <time>2011-11-18T07:16:26Z</time>
  <speed>1.490000</speed>
</trkpt>
<trkpt lat="31.764442444" lon="35.342575073">
  <ele>294.971191</ele>
  <time>2011-11-18T07:16:28Z</time>
  <speed>1.760000</speed>
</trkpt>
<trkpt lat="31.764413834" lon="35.342578888">
  <ele>295.252441</ele>
  <time>2011-11-18T07:16:30Z</time>
  <speed>1.550000</speed>
</trkpt>
<trkpt lat="31.764381409" lon="35.342582703">
  <ele>295.760254</ele>
  <time>2011-11-18T07:16:32Z</time>
  <speed>1.530000</speed>
</trkpt>
<trkpt lat="31.764354706" lon="35.342586517">
  <ele>296.213379</ele>
  <time>2011-11-18T07:16:34Z</time>
  <speed>1.320000</speed>
</trkpt>
<trkpt lat="31.764328003" lon="35.342597961">
  <ele>296.689941</ele>
  <time>2011-11-18T07:16:36Z</time>
  <speed>1.500000</speed>
</trkpt>
<trkpt lat="31.764297485" lon="35.342597961">
  <ele>296.924316</ele>
  <time>2011-11-18T07:16:38Z</time>
  <speed>1.600000</speed>
</trkpt>
<trkpt lat="31.764261246" lon="35.342597961">
  <ele>297.229004</ele>
  <time>2011-11-18T07:16:41Z</time>
  <speed>1.630000</speed>
</trkpt>
<trkpt lat="31.764234543" lon="35.342590332">
  <ele>297.814941</ele>
  <time>2011-11-18T07:16:43Z</time>
  <speed>1.440000</speed>
</trkpt>
<trkpt lat="31.764207840" lon="35.342586517">
  <ele>297.971191</ele>
  <time>2011-11-18T07:16:45Z</time>
  <speed>1.360000</speed>
</trkpt>
<trkpt lat="31.764165878" lon="35.342590332">
  <ele>297.846191</ele>
  <time>2011-11-18T07:16:48Z</time>
  <speed>1.590000</speed>
</trkpt>
<trkpt lat="31.764135361" lon="35.342594147">
  <ele>298.502441</ele>
  <time>2011-11-18T07:16:50Z</time>
  <speed>1.370000</speed>
</trkpt>
<trkpt lat="31.764106750" lon="35.342586517">
  <ele>298.666504</ele>
  <time>2011-11-18T07:16:52Z</time>
  <speed>1.560000</speed>
</trkpt>
<trkpt lat="31.764068604" lon="35.342582703">
  <ele>299.299316</ele>
  <time>2011-11-18T07:16:54Z</time>
  <speed>1.600000</speed>
</trkpt>
<trkpt lat="31.764038086" lon="35.342575073">
  <ele>299.557129</ele>
  <time>2011-11-18T07:16:56Z</time>
  <speed>1.540000</speed>
</trkpt>
<trkpt lat="31.764007568" lon="35.342567444">
  <ele>299.830566</ele>
  <time>2011-11-18T07:16:58Z</time>
  <speed>1.750000</speed>
</trkpt>
<trkpt lat="31.763969421" lon="35.342567444">
  <ele>300.885254</ele>
  <time>2011-11-18T07:17:00Z</time>
  <speed>1.630000</speed>
</trkpt>
<trkpt lat="31.763931274" lon="35.342571259">
  <ele>301.666504</ele>
  <time>2011-11-18T07:17:02Z</time>
  <speed>1.780000</speed>
</trkpt>
<trkpt lat="31.763904572" lon="35.342556000">
  <ele>301.744629</ele>
  <time>2011-11-18T07:17:04Z</time>
  <speed>1.800000</speed>
</trkpt>
<trkpt lat="31.763870239" lon="35.342540741">
  <ele>301.768066</ele>
  <time>2011-11-18T07:17:06Z</time>
  <speed>1.970000</speed>
</trkpt>
<trkpt lat="31.763839722" lon="35.342529297">
  <ele>302.135254</ele>
  <time>2011-11-18T07:17:08Z</time>
  <speed>1.730000</speed>
</trkpt>
<trkpt lat="31.763809204" lon="35.342517853">
  <ele>302.408691</ele>
  <time>2011-11-18T07:17:10Z</time>
  <speed>1.910000</speed>
</trkpt>
<trkpt lat="31.763778687" lon="35.342498779">
  <ele>302.432129</ele>
  <time>2011-11-18T07:17:12Z</time>
  <speed>1.820000</speed>
</trkpt>
<trkpt lat="31.763751984" lon="35.342479706">
  <ele>302.564941</ele>
  <time>2011-11-18T07:17:14Z</time>
  <speed>1.790000</speed>
</trkpt>
<trkpt lat="31.763721466" lon="35.342464447">
  <ele>302.510254</ele>
  <time>2011-11-18T07:17:16Z</time>
  <speed>1.660000</speed>
</trkpt>
<trkpt lat="31.763694763" lon="35.342449188">
  <ele>302.791504</ele>
  <time>2011-11-18T07:17:18Z</time>
  <speed>1.730000</speed>
</trkpt>
<trkpt lat="31.763668060" lon="35.342433929">
  <ele>302.830566</ele>
  <time>2011-11-18T07:17:20Z</time>
  <speed>1.950000</speed>
</trkpt>
<trkpt lat="31.763633728" lon="35.342426300">
  <ele>303.650879</ele>
  <time>2011-11-18T07:17:22Z</time>
  <speed>1.780000</speed>
</trkpt>
<trkpt lat="31.763601303" lon="35.342411041">
  <ele>303.846191</ele>
  <time>2011-11-18T07:17:24Z</time>
  <speed>2.020000</speed>
</trkpt>
<trkpt lat="31.763572693" lon="35.342391968">
  <ele>304.119629</ele>
  <time>2011-11-18T07:17:26Z</time>
  <speed>1.780000</speed>
</trkpt>
<trkpt lat="31.763544083" lon="35.342376709">
  <ele>304.494629</ele>
  <time>2011-11-18T07:17:28Z</time>
  <speed>1.840000</speed>
</trkpt>
<trkpt lat="31.763515472" lon="35.342350006">
  <ele>304.611816</ele>
  <time>2011-11-18T07:17:30Z</time>
  <speed>2.210000</speed>
</trkpt>
<trkpt lat="31.763483047" lon="35.342334747">
  <ele>305.346191</ele>
  <time>2011-11-18T07:17:32Z</time>
  <speed>2.190000</speed>
</trkpt>
<trkpt lat="31.763452530" lon="35.342315674">
  <ele>305.697754</ele>
  <time>2011-11-18T07:17:34Z</time>
  <speed>1.900000</speed>
</trkpt>
<trkpt lat="31.763416290" lon="35.342315674">
  <ele>306.432129</ele>
  <time>2011-11-18T07:17:36Z</time>
  <speed>2.050000</speed>
</trkpt>
<trkpt lat="31.763383865" lon="35.342288971">
  <ele>306.854004</ele>
  <time>2011-11-18T07:17:38Z</time>
  <speed>1.930000</speed>
</trkpt>
<trkpt lat="31.763345718" lon="35.342281342">
  <ele>307.627441</ele>
  <time>2011-11-18T07:17:40Z</time>
  <speed>1.760000</speed>
</trkpt>
<trkpt lat="31.763313293" lon="35.342269897">
  <ele>307.549316</ele>
  <time>2011-11-18T07:17:42Z</time>
  <speed>2.010000</speed>
</trkpt>
<trkpt lat="31.763284683" lon="35.342243195">
  <ele>307.994629</ele>
  <time>2011-11-18T07:17:44Z</time>
  <speed>1.830000</speed>
</trkpt>
<trkpt lat="31.763248444" lon="35.342224121">
  <ele>308.768066</ele>
  <time>2011-11-18T07:17:46Z</time>
  <speed>2.030000</speed>
</trkpt>
<trkpt lat="31.763210297" lon="35.342201233">
  <ele>309.338379</ele>
  <time>2011-11-18T07:17:48Z</time>
  <speed>2.230000</speed>
</trkpt>
<trkpt lat="31.763174057" lon="35.342182159">
  <ele>309.471191</ele>
  <time>2011-11-18T07:17:50Z</time>
  <speed>2.220000</speed>
</trkpt>
<trkpt lat="31.763143539" lon="35.342159271">
  <ele>309.525879</ele>
  <time>2011-11-18T07:17:52Z</time>
  <speed>2.320000</speed>
</trkpt>
<trkpt lat="31.763109207" lon="35.342144012">
  <ele>310.354004</ele>
  <time>2011-11-18T07:17:54Z</time>
  <speed>1.640000</speed>
</trkpt>
<trkpt lat="31.763080597" lon="35.342124939">
  <ele>310.650879</ele>
  <time>2011-11-18T07:17:56Z</time>
  <speed>1.840000</speed>
</trkpt>
<trkpt lat="31.763061523" lon="35.342094421">
  <ele>310.596191</ele>
  <time>2011-11-18T07:17:58Z</time>
  <speed>1.640000</speed>
</trkpt>
<trkpt lat="31.763029099" lon="35.342075348">
  <ele>312.104004</ele>
  <time>2011-11-18T07:18:00Z</time>
  <speed>1.970000</speed>
</trkpt>
<trkpt lat="31.763000488" lon="35.342063904">
  <ele>312.518066</ele>
  <time>2011-11-18T07:18:02Z</time>
  <speed>2.060000</speed>
</trkpt>
<trkpt lat="31.762971878" lon="35.342044830">
  <ele>312.689941</ele>
  <time>2011-11-18T07:18:04Z</time>
  <speed>2.030000</speed>
</trkpt>
<trkpt lat="31.762945175" lon="35.342021942">
  <ele>313.189941</ele>
  <time>2011-11-18T07:18:06Z</time>
  <speed>2.050000</speed>
</trkpt>
<trkpt lat="31.762920380" lon="35.341999054">
  <ele>313.658691</ele>
  <time>2011-11-18T07:18:08Z</time>
  <speed>1.610000</speed>
</trkpt>
<trkpt lat="31.762895584" lon="35.341976166">
  <ele>314.283691</ele>
  <time>2011-11-18T07:18:10Z</time>
  <speed>1.440000</speed>
</trkpt>
<trkpt lat="31.762868881" lon="35.341964722">
  <ele>315.041504</ele>
  <time>2011-11-18T07:18:12Z</time>
  <speed>1.750000</speed>
</trkpt>
<trkpt lat="31.762844086" lon="35.341945648">
  <ele>315.213379</ele>
  <time>2011-11-18T07:18:14Z</time>
  <speed>1.410000</speed>
</trkpt>
<trkpt lat="31.762819290" lon="35.341926575">
  <ele>315.744629</ele>
  <time>2011-11-18T07:18:16Z</time>
  <speed>1.260000</speed>
</trkpt>
<trkpt lat="31.762800217" lon="35.341903687">
  <ele>315.916504</ele>
  <time>2011-11-18T07:18:18Z</time>
  <speed>1.380000</speed>
</trkpt>
<trkpt lat="31.762771606" lon="35.341888428">
  <ele>316.244629</ele>
  <time>2011-11-18T07:18:20Z</time>
  <speed>1.510000</speed>
</trkpt>
<trkpt lat="31.762754440" lon="35.341861725">
  <ele>316.510254</ele>
  <time>2011-11-18T07:18:22Z</time>
  <speed>1.430000</speed>
</trkpt>
<trkpt lat="31.762720108" lon="35.341835022">
  <ele>317.127441</ele>
  <time>2011-11-18T07:18:25Z</time>
  <speed>1.440000</speed>
</trkpt>
<trkpt lat="31.762683868" lon="35.341812134">
  <ele>317.299316</ele>
  <time>2011-11-18T07:18:28Z</time>
  <speed>1.610000</speed>
</trkpt>
<trkpt lat="31.762662888" lon="35.341793060">
  <ele>317.611816</ele>
  <time>2011-11-18T07:18:30Z</time>
  <speed>1.780000</speed>
</trkpt>
<trkpt lat="31.762643814" lon="35.341766357">
  <ele>317.486816</ele>
  <time>2011-11-18T07:18:32Z</time>
  <speed>1.680000</speed>
</trkpt>
<trkpt lat="31.762628555" lon="35.341732025">
  <ele>317.627441</ele>
  <time>2011-11-18T07:18:34Z</time>
  <speed>1.660000</speed>
</trkpt>
<trkpt lat="31.762611389" lon="35.341701508">
  <ele>317.643066</ele>
  <time>2011-11-18T07:18:36Z</time>
  <speed>1.820000</speed>
</trkpt>
<trkpt lat="31.762580872" lon="35.341674805">
  <ele>317.705566</ele>
  <time>2011-11-18T07:18:38Z</time>
  <speed>1.900000</speed>
</trkpt>
<trkpt lat="31.762544632" lon="35.341648102">
  <ele>317.674316</ele>
  <time>2011-11-18T07:18:41Z</time>
  <speed>1.830000</speed>
</trkpt>
<trkpt lat="31.762521744" lon="35.341617584">
  <ele>317.682129</ele>
  <time>2011-11-18T07:18:43Z</time>
  <speed>1.640000</speed>
</trkpt>
<trkpt lat="31.762502670" lon="35.341594696">
  <ele>317.439941</ele>
  <time>2011-11-18T07:18:45Z</time>
  <speed>1.890000</speed>
</trkpt>
<trkpt lat="31.762479782" lon="35.341571808">
  <ele>317.213379</ele>
  <time>2011-11-18T07:18:47Z</time>
  <speed>1.470000</speed>
</trkpt>
<trkpt lat="31.762458801" lon="35.341548920">
  <ele>317.260254</ele>
  <time>2011-11-18T07:18:49Z</time>
  <speed>1.730000</speed>
</trkpt>
<trkpt lat="31.762437820" lon="35.341522217">
  <ele>317.533691</ele>
  <time>2011-11-18T07:18:51Z</time>
  <speed>1.550000</speed>
</trkpt>
<trkpt lat="31.762411118" lon="35.341495514">
  <ele>317.580566</ele>
  <time>2011-11-18T07:18:53Z</time>
  <speed>1.900000</speed>
</trkpt>
<trkpt lat="31.762382507" lon="35.341476440">
  <ele>318.111816</ele>
  <time>2011-11-18T07:18:55Z</time>
  <speed>1.880000</speed>
</trkpt>
<trkpt lat="31.762353897" lon="35.341449738">
  <ele>318.104004</ele>
  <time>2011-11-18T07:18:57Z</time>
  <speed>1.810000</speed>
</trkpt>
<trkpt lat="31.762336731" lon="35.341423035">
  <ele>317.799316</ele>
  <time>2011-11-18T07:18:59Z</time>
  <speed>1.660000</speed>
</trkpt>
<trkpt lat="31.762310028" lon="35.341400146">
  <ele>318.229004</ele>
  <time>2011-11-18T07:19:01Z</time>
  <speed>1.790000</speed>
</trkpt>
<trkpt lat="31.762283325" lon="35.341377258">
  <ele>318.580566</ele>
  <time>2011-11-18T07:19:03Z</time>
  <speed>1.570000</speed>
</trkpt>
<trkpt lat="31.762262344" lon="35.341354370">
  <ele>318.557129</ele>
  <time>2011-11-18T07:19:05Z</time>
  <speed>1.870000</speed>
</trkpt>
<trkpt lat="31.762237549" lon="35.341331482">
  <ele>318.510254</ele>
  <time>2011-11-18T07:19:07Z</time>
  <speed>1.670000</speed>
</trkpt>
<trkpt lat="31.762214661" lon="35.341308594">
  <ele>318.268066</ele>
  <time>2011-11-18T07:19:09Z</time>
  <speed>1.970000</speed>
</trkpt>
<trkpt lat="31.762191772" lon="35.341285706">
  <ele>318.275879</ele>
  <time>2011-11-18T07:19:11Z</time>
  <speed>1.850000</speed>
</trkpt>
<trkpt lat="31.762166977" lon="35.341262817">
  <ele>319.064941</ele>
  <time>2011-11-18T07:19:13Z</time>
  <speed>1.750000</speed>
</trkpt>
<trkpt lat="31.762144089" lon="35.341236115">
  <ele>318.979004</ele>
  <time>2011-11-18T07:19:15Z</time>
  <speed>1.890000</speed>
</trkpt>
<trkpt lat="31.762121201" lon="35.341213226">
  <ele>319.291504</ele>
  <time>2011-11-18T07:19:17Z</time>
  <speed>1.640000</speed>
</trkpt>
<trkpt lat="31.762094498" lon="35.341190338">
  <ele>320.096191</ele>
  <time>2011-11-18T07:19:19Z</time>
  <speed>1.820000</speed>
</trkpt>
<trkpt lat="31.762073517" lon="35.341167450">
  <ele>320.354004</ele>
  <time>2011-11-18T07:19:21Z</time>
  <speed>1.880000</speed>
</trkpt>
<trkpt lat="31.762044907" lon="35.341144562">
  <ele>320.361816</ele>
  <time>2011-11-18T07:19:23Z</time>
  <speed>1.820000</speed>
</trkpt>
<trkpt lat="31.762018204" lon="35.341129303">
  <ele>320.979004</ele>
  <time>2011-11-18T07:19:25Z</time>
  <speed>1.860000</speed>
</trkpt>
<trkpt lat="31.761987686" lon="35.341110229">
  <ele>321.721191</ele>
  <time>2011-11-18T07:19:27Z</time>
  <speed>1.710000</speed>
</trkpt>
<trkpt lat="31.761962891" lon="35.341094971">
  <ele>322.150879</ele>
  <time>2011-11-18T07:19:29Z</time>
  <speed>1.660000</speed>
</trkpt>
<trkpt lat="31.761934280" lon="35.341075897">
  <ele>322.564941</ele>
  <time>2011-11-18T07:19:31Z</time>
  <speed>1.650000</speed>
</trkpt>
<trkpt lat="31.761913300" lon="35.341053009">
  <ele>323.150879</ele>
  <time>2011-11-18T07:19:33Z</time>
  <speed>1.830000</speed>
</trkpt>
<trkpt lat="31.761882782" lon="35.341041565">
  <ele>323.986816</ele>
  <time>2011-11-18T07:19:35Z</time>
  <speed>1.530000</speed>
</trkpt>
<trkpt lat="31.761842728" lon="35.341026306">
  <ele>324.416504</ele>
  <time>2011-11-18T07:19:38Z</time>
  <speed>1.600000</speed>
</trkpt>
<trkpt lat="31.761816025" lon="35.341011047">
  <ele>324.611816</ele>
  <time>2011-11-18T07:19:40Z</time>
  <speed>1.940000</speed>
</trkpt>
<trkpt lat="31.761787415" lon="35.340995789">
  <ele>324.525879</ele>
  <time>2011-11-18T07:19:42Z</time>
  <speed>1.860000</speed>
</trkpt>
<trkpt lat="31.761762619" lon="35.340965271">
  <ele>324.299316</ele>
  <time>2011-11-18T07:19:44Z</time>
  <speed>1.830000</speed>
</trkpt>
<trkpt lat="31.761734009" lon="35.340946198">
  <ele>325.033691</ele>
  <time>2011-11-18T07:19:46Z</time>
  <speed>1.940000</speed>
</trkpt>
<trkpt lat="31.761701584" lon="35.340927124">
  <ele>325.955566</ele>
  <time>2011-11-18T07:19:48Z</time>
  <speed>1.990000</speed>
</trkpt>
<trkpt lat="31.761671066" lon="35.340908051">
  <ele>326.611816</ele>
  <time>2011-11-18T07:19:50Z</time>
  <speed>1.670000</speed>
</trkpt>
<trkpt lat="31.761642456" lon="35.340888977">
  <ele>327.205566</ele>
  <time>2011-11-18T07:19:52Z</time>
  <speed>1.900000</speed>
</trkpt>
<trkpt lat="31.761610031" lon="35.340873718">
  <ele>327.752441</ele>
  <time>2011-11-18T07:19:54Z</time>
  <speed>1.750000</speed>
</trkpt>
<trkpt lat="31.761587143" lon="35.340858459">
  <ele>327.822754</ele>
  <time>2011-11-18T07:19:56Z</time>
  <speed>1.730000</speed>
</trkpt>
<trkpt lat="31.761554718" lon="35.340839386">
  <ele>328.549316</ele>
  <time>2011-11-18T07:19:58Z</time>
  <speed>1.930000</speed>
</trkpt>
<trkpt lat="31.761522293" lon="35.340816498">
  <ele>329.385254</ele>
  <time>2011-11-18T07:20:00Z</time>
  <speed>1.750000</speed>
</trkpt>
<trkpt lat="31.761499405" lon="35.340789795">
  <ele>329.744629</ele>
  <time>2011-11-18T07:20:02Z</time>
  <speed>1.800000</speed>
</trkpt>
<trkpt lat="31.761482239" lon="35.340751648">
  <ele>329.807129</ele>
  <time>2011-11-18T07:20:04Z</time>
  <speed>1.800000</speed>
</trkpt>
<trkpt lat="31.761461258" lon="35.340728760">
  <ele>329.979004</ele>
  <time>2011-11-18T07:20:06Z</time>
  <speed>1.790000</speed>
</trkpt>
<trkpt lat="31.761423111" lon="35.340702057">
  <ele>330.182129</ele>
  <time>2011-11-18T07:20:09Z</time>
  <speed>1.830000</speed>
</trkpt>
<trkpt lat="31.761396408" lon="35.340686798">
  <ele>330.705566</ele>
  <time>2011-11-18T07:20:11Z</time>
  <speed>1.540000</speed>
</trkpt>
<trkpt lat="31.761371613" lon="35.340663910">
  <ele>330.979004</ele>
  <time>2011-11-18T07:20:13Z</time>
  <speed>1.880000</speed>
</trkpt>
<trkpt lat="31.761346817" lon="35.340641022">
  <ele>331.502441</ele>
  <time>2011-11-18T07:20:15Z</time>
  <speed>1.450000</speed>
</trkpt>
<trkpt lat="31.761320114" lon="35.340625763">
  <ele>332.369629</ele>
  <time>2011-11-18T07:20:17Z</time>
  <speed>1.800000</speed>
</trkpt>
<trkpt lat="31.761297226" lon="35.340602875">
  <ele>332.541504</ele>
  <time>2011-11-18T07:20:19Z</time>
  <speed>1.640000</speed>
</trkpt>
<trkpt lat="31.761274338" lon="35.340576172">
  <ele>332.830566</ele>
  <time>2011-11-18T07:20:21Z</time>
  <speed>1.620000</speed>
</trkpt>
<trkpt lat="31.761245728" lon="35.340553284">
  <ele>333.619629</ele>
  <time>2011-11-18T07:20:23Z</time>
  <speed>1.580000</speed>
</trkpt>
<trkpt lat="31.761222839" lon="35.340515137">
  <ele>333.439941</ele>
  <time>2011-11-18T07:20:26Z</time>
  <speed>1.610000</speed>
</trkpt>
<trkpt lat="31.761201859" lon="35.340492249">
  <ele>333.572754</ele>
  <time>2011-11-18T07:20:28Z</time>
  <speed>1.610000</speed>
</trkpt>
<trkpt lat="31.761171341" lon="35.340461731">
  <ele>333.971191</ele>
  <time>2011-11-18T07:20:31Z</time>
  <speed>1.390000</speed>
</trkpt>
<trkpt lat="31.761144638" lon="35.340446472">
  <ele>334.229004</ele>
  <time>2011-11-18T07:20:33Z</time>
  <speed>1.410000</speed>
</trkpt>
<trkpt lat="31.761123657" lon="35.340427399">
  <ele>334.135254</ele>
  <time>2011-11-18T07:20:35Z</time>
  <speed>1.420000</speed>
</trkpt>
<trkpt lat="31.761096954" lon="35.340393066">
  <ele>334.252441</ele>
  <time>2011-11-18T07:20:38Z</time>
  <speed>1.700000</speed>
</trkpt>
<trkpt lat="31.761068344" lon="35.340358734">
  <ele>334.807129</ele>
  <time>2011-11-18T07:20:41Z</time>
  <speed>1.630000</speed>
</trkpt>
<trkpt lat="31.761049271" lon="35.340332031">
  <ele>334.721191</ele>
  <time>2011-11-18T07:20:43Z</time>
  <speed>1.740000</speed>
</trkpt>
<trkpt lat="31.761028290" lon="35.340305328">
  <ele>334.846191</ele>
  <time>2011-11-18T07:20:45Z</time>
  <speed>1.600000</speed>
</trkpt>
<trkpt lat="31.761009216" lon="35.340278625">
  <ele>334.486816</ele>
  <time>2011-11-18T07:20:47Z</time>
  <speed>1.760000</speed>
</trkpt>
<trkpt lat="31.761001587" lon="35.340236664">
  <ele>334.588379</ele>
  <time>2011-11-18T07:20:49Z</time>
  <speed>1.760000</speed>
</trkpt>
<trkpt lat="31.760984421" lon="35.340198517">
  <ele>334.541504</ele>
  <time>2011-11-18T07:20:51Z</time>
  <speed>1.690000</speed>
</trkpt>
<trkpt lat="31.760969162" lon="35.340164185">
  <ele>334.369629</ele>
  <time>2011-11-18T07:20:53Z</time>
  <speed>1.720000</speed>
</trkpt>
<trkpt lat="31.760951996" lon="35.340126038">
  <ele>334.455566</ele>
  <time>2011-11-18T07:20:55Z</time>
  <speed>1.620000</speed>
</trkpt>
<trkpt lat="31.760940552" lon="35.340095520">
  <ele>334.314941</ele>
  <time>2011-11-18T07:20:57Z</time>
  <speed>1.430000</speed>
</trkpt>
<trkpt lat="31.760911942" lon="35.340065002">
  <ele>334.104004</ele>
  <time>2011-11-18T07:21:00Z</time>
  <speed>1.400000</speed>
</trkpt>
<trkpt lat="31.760894775" lon="35.340030670">
  <ele>333.643066</ele>
  <time>2011-11-18T07:21:03Z</time>
  <speed>0.940000</speed>
</trkpt>
<trkpt lat="31.760887146" lon="35.340000153">
  <ele>334.275879</ele>
  <time>2011-11-18T07:25:07Z</time>
  <speed>0.080000</speed>
</trkpt>
<trkpt lat="31.760869980" lon="35.339973450">
  <ele>335.408691</ele>
  <time>2011-11-18T07:28:06Z</time>
  <speed>0.860000</speed>
</trkpt>
<trkpt lat="31.760854721" lon="35.339931488">
  <ele>335.158691</ele>
  <time>2011-11-18T07:28:09Z</time>
  <speed>1.630000</speed>
</trkpt>
<trkpt lat="31.760837555" lon="35.339893341">
  <ele>335.486816</ele>
  <time>2011-11-18T07:28:11Z</time>
  <speed>2.490000</speed>
</trkpt>
<trkpt lat="31.760812759" lon="35.339843750">
  <ele>335.588379</ele>
  <time>2011-11-18T07:28:13Z</time>
  <speed>2.360000</speed>
</trkpt>
<trkpt lat="31.760787964" lon="35.339801788">
  <ele>335.486816</ele>
  <time>2011-11-18T07:28:15Z</time>
  <speed>2.190000</speed>
</trkpt>
<trkpt lat="31.760766983" lon="35.339752197">
  <ele>335.502441</ele>
  <time>2011-11-18T07:28:17Z</time>
  <speed>2.600000</speed>
</trkpt>
<trkpt lat="31.760742188" lon="35.339702606">
  <ele>334.877441</ele>
  <time>2011-11-18T07:28:19Z</time>
  <speed>2.870000</speed>
</trkpt>
<trkpt lat="31.760728836" lon="35.339675903">
  <ele>334.385254</ele>
  <time>2011-11-18T07:28:20Z</time>
  <speed>2.590000</speed>
</trkpt>
<trkpt lat="31.760715485" lon="35.339649200">
  <ele>334.611816</ele>
  <time>2011-11-18T07:28:21Z</time>
  <speed>2.760000</speed>
</trkpt>
<trkpt lat="31.760704041" lon="35.339618683">
  <ele>334.666504</ele>
  <time>2011-11-18T07:28:22Z</time>
  <speed>2.710000</speed>
</trkpt>
<trkpt lat="31.760681152" lon="35.339565277">
  <ele>334.744629</ele>
  <time>2011-11-18T07:28:24Z</time>
  <speed>3.010000</speed>
</trkpt>
<trkpt lat="31.760667801" lon="35.339534760">
  <ele>334.439941</ele>
  <time>2011-11-18T07:28:25Z</time>
  <speed>3.060000</speed>
</trkpt>
<trkpt lat="31.760637283" lon="35.339477539">
  <ele>334.541504</ele>
  <time>2011-11-18T07:28:27Z</time>
  <speed>2.870000</speed>
</trkpt>
<trkpt lat="31.760623932" lon="35.339447021">
  <ele>334.275879</ele>
  <time>2011-11-18T07:28:28Z</time>
  <speed>3.370000</speed>
</trkpt>
<trkpt lat="31.760608673" lon="35.339416504">
  <ele>334.041504</ele>
  <time>2011-11-18T07:28:29Z</time>
  <speed>3.340000</speed>
</trkpt>
<trkpt lat="31.760591507" lon="35.339385986">
  <ele>334.166504</ele>
  <time>2011-11-18T07:28:30Z</time>
  <speed>3.240000</speed>
</trkpt>
<trkpt lat="31.760576248" lon="35.339351654">
  <ele>333.994629</ele>
  <time>2011-11-18T07:28:31Z</time>
  <speed>3.320000</speed>
</trkpt>
<trkpt lat="31.760562897" lon="35.339317322">
  <ele>333.814941</ele>
  <time>2011-11-18T07:28:32Z</time>
  <speed>3.440000</speed>
</trkpt>
<trkpt lat="31.760545731" lon="35.339286804">
  <ele>333.486816</ele>
  <time>2011-11-18T07:28:33Z</time>
  <speed>3.130000</speed>
</trkpt>
<trkpt lat="31.760532379" lon="35.339256287">
  <ele>332.924316</ele>
  <time>2011-11-18T07:28:34Z</time>
  <speed>2.980000</speed>
</trkpt>
<trkpt lat="31.760517120" lon="35.339225769">
  <ele>332.986816</ele>
  <time>2011-11-18T07:28:35Z</time>
  <speed>3.050000</speed>
</trkpt>
<trkpt lat="31.760505676" lon="35.339195251">
  <ele>332.604004</ele>
  <time>2011-11-18T07:28:36Z</time>
  <speed>3.060000</speed>
</trkpt>
<trkpt lat="31.760490417" lon="35.339164734">
  <ele>332.455566</ele>
  <time>2011-11-18T07:28:37Z</time>
  <speed>3.340000</speed>
</trkpt>
<trkpt lat="31.760471344" lon="35.339138031">
  <ele>332.229004</ele>
  <time>2011-11-18T07:28:38Z</time>
  <speed>3.400000</speed>
</trkpt>
<trkpt lat="31.760454178" lon="35.339111328">
  <ele>332.939941</ele>
  <time>2011-11-18T07:28:39Z</time>
  <speed>3.270000</speed>
</trkpt>
<trkpt lat="31.760435104" lon="35.339076996">
  <ele>333.205566</ele>
  <time>2011-11-18T07:28:40Z</time>
  <speed>3.470000</speed>
</trkpt>
<trkpt lat="31.760416031" lon="35.339050293">
  <ele>333.236816</ele>
  <time>2011-11-18T07:28:41Z</time>
  <speed>3.220000</speed>
</trkpt>
<trkpt lat="31.760396957" lon="35.339027405">
  <ele>333.658691</ele>
  <time>2011-11-18T07:28:42Z</time>
  <speed>3.520000</speed>
</trkpt>
<trkpt lat="31.760377884" lon="35.338993073">
  <ele>333.979004</ele>
  <time>2011-11-18T07:28:43Z</time>
  <speed>3.690000</speed>
</trkpt>
<trkpt lat="31.760358810" lon="35.338966370">
  <ele>334.174316</ele>
  <time>2011-11-18T07:28:44Z</time>
  <speed>3.450000</speed>
</trkpt>
<trkpt lat="31.760341644" lon="35.338935852">
  <ele>334.041504</ele>
  <time>2011-11-18T07:28:45Z</time>
  <speed>3.380000</speed>
</trkpt>
<trkpt lat="31.760326385" lon="35.338901520">
  <ele>334.088379</ele>
  <time>2011-11-18T07:28:46Z</time>
  <speed>3.520000</speed>
</trkpt>
<trkpt lat="31.760309219" lon="35.338874817">
  <ele>334.338379</ele>
  <time>2011-11-18T07:28:47Z</time>
  <speed>3.090000</speed>
</trkpt>
<trkpt lat="31.760292053" lon="35.338844299">
  <ele>334.822754</ele>
  <time>2011-11-18T07:28:48Z</time>
  <speed>3.260000</speed>
</trkpt>
<trkpt lat="31.760259628" lon="35.338798523">
  <ele>334.971191</ele>
  <time>2011-11-18T07:28:50Z</time>
  <speed>3.210000</speed>
</trkpt>
<trkpt lat="31.760234833" lon="35.338771820">
  <ele>335.189941</ele>
  <time>2011-11-18T07:28:51Z</time>
  <speed>3.160000</speed>
</trkpt>
<trkpt lat="31.760217667" lon="35.338745117">
  <ele>335.439941</ele>
  <time>2011-11-18T07:28:52Z</time>
  <speed>3.190000</speed>
</trkpt>
<trkpt lat="31.760192871" lon="35.338703156">
  <ele>335.416504</ele>
  <time>2011-11-18T07:28:54Z</time>
  <speed>2.880000</speed>
</trkpt>
<trkpt lat="31.760160446" lon="35.338661194">
  <ele>335.197754</ele>
  <time>2011-11-18T07:28:56Z</time>
  <speed>3.280000</speed>
</trkpt>
<trkpt lat="31.760141373" lon="35.338634491">
  <ele>335.916504</ele>
  <time>2011-11-18T07:28:57Z</time>
  <speed>3.190000</speed>
</trkpt>
<trkpt lat="31.760124207" lon="35.338611603">
  <ele>336.252441</ele>
  <time>2011-11-18T07:28:58Z</time>
  <speed>2.850000</speed>
</trkpt>
<trkpt lat="31.760105133" lon="35.338588715">
  <ele>336.424316</ele>
  <time>2011-11-18T07:28:59Z</time>
  <speed>2.840000</speed>
</trkpt>
<trkpt lat="31.760070801" lon="35.338542938">
  <ele>336.244629</ele>
  <time>2011-11-18T07:29:01Z</time>
  <speed>2.930000</speed>
</trkpt>
<trkpt lat="31.760036469" lon="35.338497162">
  <ele>336.557129</ele>
  <time>2011-11-18T07:29:03Z</time>
  <speed>2.710000</speed>
</trkpt>
<trkpt lat="31.760019302" lon="35.338470459">
  <ele>336.838379</ele>
  <time>2011-11-18T07:29:04Z</time>
  <speed>2.750000</speed>
</trkpt>
<trkpt lat="31.759990692" lon="35.338424683">
  <ele>336.525879</ele>
  <time>2011-11-18T07:29:06Z</time>
  <speed>2.850000</speed>
</trkpt>
<trkpt lat="31.759958267" lon="35.338386536">
  <ele>336.057129</ele>
  <time>2011-11-18T07:29:08Z</time>
  <speed>2.930000</speed>
</trkpt>
<trkpt lat="31.759920120" lon="35.338348389">
  <ele>336.643066</ele>
  <time>2011-11-18T07:29:10Z</time>
  <speed>3.100000</speed>
</trkpt>
<trkpt lat="31.759899139" lon="35.338314056">
  <ele>337.057129</ele>
  <time>2011-11-18T07:29:11Z</time>
  <speed>3.270000</speed>
</trkpt>
<trkpt lat="31.759880066" lon="35.338287354">
  <ele>337.268066</ele>
  <time>2011-11-18T07:29:12Z</time>
  <speed>3.200000</speed>
</trkpt>
<trkpt lat="31.759860992" lon="35.338260651">
  <ele>337.354004</ele>
  <time>2011-11-18T07:29:13Z</time>
  <speed>3.060000</speed>
</trkpt>
<trkpt lat="31.759840012" lon="35.338233948">
  <ele>337.775879</ele>
  <time>2011-11-18T07:29:14Z</time>
  <speed>2.890000</speed>
</trkpt>
<trkpt lat="31.759813309" lon="35.338195801">
  <ele>337.471191</ele>
  <time>2011-11-18T07:29:16Z</time>
  <speed>2.770000</speed>
</trkpt>
<trkpt lat="31.759778976" lon="35.338157654">
  <ele>337.572754</ele>
  <time>2011-11-18T07:29:18Z</time>
  <speed>2.820000</speed>
</trkpt>
<trkpt lat="31.759756088" lon="35.338138580">
  <ele>338.111816</ele>
  <time>2011-11-18T07:29:19Z</time>
  <speed>2.700000</speed>
</trkpt>
<trkpt lat="31.759735107" lon="35.338115692">
  <ele>338.150879</ele>
  <time>2011-11-18T07:29:20Z</time>
  <speed>2.700000</speed>
</trkpt>
<trkpt lat="31.759712219" lon="35.338092804">
  <ele>338.486816</ele>
  <time>2011-11-18T07:29:21Z</time>
  <speed>2.660000</speed>
</trkpt>
<trkpt lat="31.759675980" lon="35.338062286">
  <ele>338.479004</ele>
  <time>2011-11-18T07:29:23Z</time>
  <speed>2.440000</speed>
</trkpt>
<trkpt lat="31.759645462" lon="35.338031769">
  <ele>338.291504</ele>
  <time>2011-11-18T07:29:25Z</time>
  <speed>2.290000</speed>
</trkpt>
<trkpt lat="31.759609222" lon="35.338012695">
  <ele>338.713379</ele>
  <time>2011-11-18T07:29:27Z</time>
  <speed>2.000000</speed>
</trkpt>
<trkpt lat="31.759582520" lon="35.337978363">
  <ele>338.604004</ele>
  <time>2011-11-18T07:29:29Z</time>
  <speed>2.220000</speed>
</trkpt>
<trkpt lat="31.759553909" lon="35.337959290">
  <ele>338.244629</ele>
  <time>2011-11-18T07:29:31Z</time>
  <speed>2.050000</speed>
</trkpt>
<trkpt lat="31.759508133" lon="35.337940216">
  <ele>339.127441</ele>
  <time>2011-11-18T07:29:33Z</time>
  <speed>2.350000</speed>
</trkpt>
<trkpt lat="31.759458542" lon="35.337940216">
  <ele>340.721191</ele>
  <time>2011-11-18T07:29:35Z</time>
  <speed>2.390000</speed>
</trkpt>
<trkpt lat="31.759428024" lon="35.337959290">
  <ele>341.268066</ele>
  <time>2011-11-18T07:29:37Z</time>
  <speed>1.230000</speed>
</trkpt>
<trkpt lat="31.759397507" lon="35.337982178">
  <ele>341.479004</ele>
  <time>2011-11-18T07:29:39Z</time>
  <speed>1.540000</speed>
</trkpt>
<trkpt lat="31.759370804" lon="35.337974548">
  <ele>341.236816</ele>
  <time>2011-11-18T07:29:42Z</time>
  <speed>0.190000</speed>
</trkpt>
<trkpt lat="31.759349823" lon="35.337955475">
  <ele>342.604004</ele>
  <time>2011-11-18T07:33:08Z</time>
  <speed>1.590000</speed>
</trkpt>
<trkpt lat="31.759317398" lon="35.337932587">
  <ele>342.525879</ele>
  <time>2011-11-18T07:33:10Z</time>
  <speed>2.060000</speed>
</trkpt>
<trkpt lat="31.759269714" lon="35.337913513">
  <ele>342.588379</ele>
  <time>2011-11-18T07:33:12Z</time>
  <speed>2.410000</speed>
</trkpt>
<trkpt lat="31.759223938" lon="35.337905884">
  <ele>342.846191</ele>
  <time>2011-11-18T07:33:14Z</time>
  <speed>2.210000</speed>
</trkpt>
<trkpt lat="31.759174347" lon="35.337886810">
  <ele>343.205566</ele>
  <time>2011-11-18T07:33:16Z</time>
  <speed>2.770000</speed>
</trkpt>
<trkpt lat="31.759130478" lon="35.337867737">
  <ele>343.314941</ele>
  <time>2011-11-18T07:33:18Z</time>
  <speed>2.600000</speed>
</trkpt>
<trkpt lat="31.759099960" lon="35.337867737">
  <ele>343.424316</ele>
  <time>2011-11-18T07:33:19Z</time>
  <speed>3.040000</speed>
</trkpt>
<trkpt lat="31.759067535" lon="35.337875366">
  <ele>343.166504</ele>
  <time>2011-11-18T07:33:20Z</time>
  <speed>3.680000</speed>
</trkpt>
<trkpt lat="31.759038925" lon="35.337890625">
  <ele>343.393066</ele>
  <time>2011-11-18T07:33:21Z</time>
  <speed>3.520000</speed>
</trkpt>
<trkpt lat="31.759010315" lon="35.337909698">
  <ele>343.580566</ele>
  <time>2011-11-18T07:33:22Z</time>
  <speed>3.840000</speed>
</trkpt>
<trkpt lat="31.758979797" lon="35.337932587">
  <ele>343.947754</ele>
  <time>2011-11-18T07:33:23Z</time>
  <speed>3.370000</speed>
</trkpt>
<trkpt lat="31.758958817" lon="35.337959290">
  <ele>343.986816</ele>
  <time>2011-11-18T07:33:24Z</time>
  <speed>2.870000</speed>
</trkpt>
<trkpt lat="31.758926392" lon="35.338001251">
  <ele>343.650879</ele>
  <time>2011-11-18T07:33:26Z</time>
  <speed>2.180000</speed>
</trkpt>
<trkpt lat="31.758899689" lon="35.338035583">
  <ele>343.604004</ele>
  <time>2011-11-18T07:33:28Z</time>
  <speed>1.780000</speed>
</trkpt>
<trkpt lat="31.758869171" lon="35.338066101">
  <ele>343.799316</ele>
  <time>2011-11-18T07:33:30Z</time>
  <speed>2.020000</speed>
</trkpt>
<trkpt lat="31.758840561" lon="35.338085175">
  <ele>343.502441</ele>
  <time>2011-11-18T07:33:32Z</time>
  <speed>2.040000</speed>
</trkpt>
<trkpt lat="31.758802414" lon="35.338108063">
  <ele>344.002441</ele>
  <time>2011-11-18T07:33:34Z</time>
  <speed>2.350000</speed>
</trkpt>
<trkpt lat="31.758768082" lon="35.338138580">
  <ele>344.354004</ele>
  <time>2011-11-18T07:33:36Z</time>
  <speed>2.470000</speed>
</trkpt>
<trkpt lat="31.758737564" lon="35.338165283">
  <ele>344.346191</ele>
  <time>2011-11-18T07:33:38Z</time>
  <speed>2.130000</speed>
</trkpt>
<trkpt lat="31.758708954" lon="35.338195801">
  <ele>344.580566</ele>
  <time>2011-11-18T07:33:40Z</time>
  <speed>1.860000</speed>
</trkpt>
<trkpt lat="31.758682251" lon="35.338226318">
  <ele>344.197754</ele>
  <time>2011-11-18T07:33:42Z</time>
  <speed>1.830000</speed>
</trkpt>
<trkpt lat="31.758659363" lon="35.338253021">
  <ele>344.127441</ele>
  <time>2011-11-18T07:33:44Z</time>
  <speed>1.760000</speed>
</trkpt>
<trkpt lat="31.758634567" lon="35.338283539">
  <ele>344.221191</ele>
  <time>2011-11-18T07:33:46Z</time>
  <speed>1.400000</speed>
</trkpt>
<trkpt lat="31.758607864" lon="35.338317871">
  <ele>343.588379</ele>
  <time>2011-11-18T07:33:49Z</time>
  <speed>1.630000</speed>
</trkpt>
<trkpt lat="31.758579254" lon="35.338340759">
  <ele>343.025879</ele>
  <time>2011-11-18T07:33:52Z</time>
  <speed>1.610000</speed>
</trkpt>
<trkpt lat="31.758554459" lon="35.338359833">
  <ele>343.697754</ele>
  <time>2011-11-18T07:33:56Z</time>
  <speed>0.240000</speed>
</trkpt>
<trkpt lat="31.758533478" lon="35.338394165">
  <ele>343.994629</ele>
  <time>2011-11-18T07:34:08Z</time>
  <speed>2.740000</speed>
</trkpt>
<trkpt lat="31.758508682" lon="35.338409424">
  <ele>343.846191</ele>
  <time>2011-11-18T07:34:09Z</time>
  <speed>3.520000</speed>
</trkpt>
<trkpt lat="31.758480072" lon="35.338432312">
  <ele>343.861816</ele>
  <time>2011-11-18T07:34:10Z</time>
  <speed>4.060000</speed>
</trkpt>
<trkpt lat="31.758447647" lon="35.338466644">
  <ele>343.643066</ele>
  <time>2011-11-18T07:34:11Z</time>
  <speed>4.600000</speed>
</trkpt>
<trkpt lat="31.758409500" lon="35.338493347">
  <ele>343.166504</ele>
  <time>2011-11-18T07:34:12Z</time>
  <speed>4.980000</speed>
</trkpt>
<trkpt lat="31.758371353" lon="35.338535309">
  <ele>342.752441</ele>
  <time>2011-11-18T07:34:13Z</time>
  <speed>5.840000</speed>
</trkpt>
<trkpt lat="31.758327484" lon="35.338573456">
  <ele>342.135254</ele>
  <time>2011-11-18T07:34:14Z</time>
  <speed>6.430000</speed>
</trkpt>
<trkpt lat="31.758274078" lon="35.338615417">
  <ele>341.291504</ele>
  <time>2011-11-18T07:34:15Z</time>
  <speed>6.780000</speed>
</trkpt>
<trkpt lat="31.758222580" lon="35.338661194">
  <ele>340.268066</ele>
  <time>2011-11-18T07:34:16Z</time>
  <speed>6.730000</speed>
</trkpt>
<trkpt lat="31.758176804" lon="35.338718414">
  <ele>338.971191</ele>
  <time>2011-11-18T07:34:17Z</time>
  <speed>6.890000</speed>
</trkpt>
<trkpt lat="31.758132935" lon="35.338775635">
  <ele>337.916504</ele>
  <time>2011-11-18T07:34:18Z</time>
  <speed>6.930000</speed>
</trkpt>
<trkpt lat="31.758096695" lon="35.338844299">
  <ele>336.830566</ele>
  <time>2011-11-18T07:34:19Z</time>
  <speed>7.270000</speed>
</trkpt>
<trkpt lat="31.758069992" lon="35.338912964">
  <ele>335.893066</ele>
  <time>2011-11-18T07:34:20Z</time>
  <speed>7.640000</speed>
</trkpt>
<trkpt lat="31.758047104" lon="35.339000702">
  <ele>335.252441</ele>
  <time>2011-11-18T07:34:21Z</time>
  <speed>8.190000</speed>
</trkpt>
<trkpt lat="31.758031845" lon="35.339088440">
  <ele>334.275879</ele>
  <time>2011-11-18T07:34:22Z</time>
  <speed>8.470000</speed>
</trkpt>
<trkpt lat="31.758024216" lon="35.339176178">
  <ele>333.408691</ele>
  <time>2011-11-18T07:34:23Z</time>
  <speed>8.240000</speed>
</trkpt>
<trkpt lat="31.758010864" lon="35.339263916">
  <ele>332.986816</ele>
  <time>2011-11-18T07:34:24Z</time>
  <speed>7.680000</speed>
</trkpt>
<trkpt lat="31.757995605" lon="35.339344025">
  <ele>332.596191</ele>
  <time>2011-11-18T07:34:25Z</time>
  <speed>7.440000</speed>
</trkpt>
<trkpt lat="31.757982254" lon="35.339416504">
  <ele>332.002441</ele>
  <time>2011-11-18T07:34:26Z</time>
  <speed>6.700000</speed>
</trkpt>
<trkpt lat="31.757972717" lon="35.339485168">
  <ele>331.846191</ele>
  <time>2011-11-18T07:34:27Z</time>
  <speed>6.230000</speed>
</trkpt>
<trkpt lat="31.757966995" lon="35.339550018">
  <ele>330.611816</ele>
  <time>2011-11-18T07:34:28Z</time>
  <speed>5.580000</speed>
</trkpt>
<trkpt lat="31.757957458" lon="35.339607239">
  <ele>330.479004</ele>
  <time>2011-11-18T07:34:29Z</time>
  <speed>5.120000</speed>
</trkpt>
<trkpt lat="31.757947922" lon="35.339660645">
  <ele>329.494629</ele>
  <time>2011-11-18T07:34:30Z</time>
  <speed>4.830000</speed>
</trkpt>
<trkpt lat="31.757942200" lon="35.339706421">
  <ele>329.557129</ele>
  <time>2011-11-18T07:34:31Z</time>
  <speed>4.100000</speed>
</trkpt>
<trkpt lat="31.757936478" lon="35.339744568">
  <ele>328.268066</ele>
  <time>2011-11-18T07:34:32Z</time>
  <speed>3.550000</speed>
</trkpt>
<trkpt lat="31.757932663" lon="35.339778900">
  <ele>327.830566</ele>
  <time>2011-11-18T07:34:33Z</time>
  <speed>2.980000</speed>
</trkpt>
<trkpt lat="31.757921219" lon="35.339809418">
  <ele>327.041504</ele>
  <time>2011-11-18T07:34:34Z</time>
  <speed>3.570000</speed>
</trkpt>
<trkpt lat="31.757907867" lon="35.339839935">
  <ele>326.432129</ele>
  <time>2011-11-18T07:34:35Z</time>
  <speed>3.510000</speed>
</trkpt>
<trkpt lat="31.757892609" lon="35.339870453">
  <ele>326.229004</ele>
  <time>2011-11-18T07:34:36Z</time>
  <speed>3.030000</speed>
</trkpt>
<trkpt lat="31.757873535" lon="35.339897156">
  <ele>325.533691</ele>
  <time>2011-11-18T07:34:37Z</time>
  <speed>2.880000</speed>
</trkpt>
<trkpt lat="31.757835388" lon="35.339935303">
  <ele>323.643066</ele>
  <time>2011-11-18T07:34:39Z</time>
  <speed>2.850000</speed>
</trkpt>
<trkpt lat="31.757787704" lon="35.339962006">
  <ele>321.744629</ele>
  <time>2011-11-18T07:34:41Z</time>
  <speed>2.990000</speed>
</trkpt>
<trkpt lat="31.757761002" lon="35.339973450">
  <ele>320.658691</ele>
  <time>2011-11-18T07:34:42Z</time>
  <speed>3.090000</speed>
</trkpt>
<trkpt lat="31.757734299" lon="35.339988708">
  <ele>319.908691</ele>
  <time>2011-11-18T07:34:43Z</time>
  <speed>3.370000</speed>
</trkpt>
<trkpt lat="31.757699966" lon="35.340003967">
  <ele>318.369629</ele>
  <time>2011-11-18T07:34:44Z</time>
  <speed>3.410000</speed>
</trkpt>
<trkpt lat="31.757675171" lon="35.340023041">
  <ele>317.354004</ele>
  <time>2011-11-18T07:34:45Z</time>
  <speed>3.490000</speed>
</trkpt>
<trkpt lat="31.757640839" lon="35.340026855">
  <ele>315.666504</ele>
  <time>2011-11-18T07:34:46Z</time>
  <speed>3.400000</speed>
</trkpt>
<trkpt lat="31.757608414" lon="35.340034485">
  <ele>314.463379</ele>
  <time>2011-11-18T07:34:47Z</time>
  <speed>3.800000</speed>
</trkpt>
<trkpt lat="31.757574081" lon="35.340049744">
  <ele>313.307129</ele>
  <time>2011-11-18T07:34:48Z</time>
  <speed>3.760000</speed>
</trkpt>
<trkpt lat="31.757545471" lon="35.340065002">
  <ele>312.244629</ele>
  <time>2011-11-18T07:34:49Z</time>
  <speed>2.990000</speed>
</trkpt>
<trkpt lat="31.757520676" lon="35.340080261">
  <ele>311.057129</ele>
  <time>2011-11-18T07:34:50Z</time>
  <speed>3.160000</speed>
</trkpt>
<trkpt lat="31.757493973" lon="35.340080261">
  <ele>308.994629</ele>
  <time>2011-11-18T07:34:51Z</time>
  <speed>3.490000</speed>
</trkpt>
<trkpt lat="31.757457733" lon="35.340095520">
  <ele>307.525879</ele>
  <time>2011-11-18T07:34:52Z</time>
  <speed>4.280000</speed>
</trkpt>
<trkpt lat="31.757427216" lon="35.340110779">
  <ele>306.096191</ele>
  <time>2011-11-18T07:34:53Z</time>
  <speed>4.160000</speed>
</trkpt>
<trkpt lat="31.757400513" lon="35.340126038">
  <ele>305.432129</ele>
  <time>2011-11-18T07:34:54Z</time>
  <speed>3.420000</speed>
</trkpt>
<trkpt lat="31.757369995" lon="35.340148926">
  <ele>304.361816</ele>
  <time>2011-11-18T07:34:55Z</time>
  <speed>3.740000</speed>
</trkpt>
<trkpt lat="31.757339478" lon="35.340167999">
  <ele>304.018066</ele>
  <time>2011-11-18T07:34:56Z</time>
  <speed>3.780000</speed>
</trkpt>
<trkpt lat="31.757307053" lon="35.340187073">
  <ele>303.229004</ele>
  <time>2011-11-18T07:34:57Z</time>
  <speed>3.930000</speed>
</trkpt>
<trkpt lat="31.757272720" lon="35.340206146">
  <ele>302.611816</ele>
  <time>2011-11-18T07:34:58Z</time>
  <speed>4.070000</speed>
</trkpt>
<trkpt lat="31.757236481" lon="35.340232849">
  <ele>301.736816</ele>
  <time>2011-11-18T07:34:59Z</time>
  <speed>4.110000</speed>
</trkpt>
<trkpt lat="31.757205963" lon="35.340251923">
  <ele>300.893066</ele>
  <time>2011-11-18T07:35:00Z</time>
  <speed>3.740000</speed>
</trkpt>
<trkpt lat="31.757173538" lon="35.340270996">
  <ele>299.518066</ele>
  <time>2011-11-18T07:35:01Z</time>
  <speed>4.320000</speed>
</trkpt>
<trkpt lat="31.757133484" lon="35.340293884">
  <ele>298.307129</ele>
  <time>2011-11-18T07:35:02Z</time>
  <speed>5.040000</speed>
</trkpt>
<trkpt lat="31.757093430" lon="35.340320587">
  <ele>297.307129</ele>
  <time>2011-11-18T07:35:03Z</time>
  <speed>5.640000</speed>
</trkpt>
<trkpt lat="31.757053375" lon="35.340354919">
  <ele>296.846191</ele>
  <time>2011-11-18T07:35:04Z</time>
  <speed>5.850000</speed>
</trkpt>
<trkpt lat="31.757011414" lon="35.340400696">
  <ele>295.986816</ele>
  <time>2011-11-18T07:35:05Z</time>
  <speed>6.020000</speed>
</trkpt>
<trkpt lat="31.756977081" lon="35.340446472">
  <ele>294.588379</ele>
  <time>2011-11-18T07:35:06Z</time>
  <speed>6.410000</speed>
</trkpt>
<trkpt lat="31.756952286" lon="35.340480804">
  <ele>292.416504</ele>
  <time>2011-11-18T07:35:07Z</time>
  <speed>5.470000</speed>
</trkpt>
<trkpt lat="31.756933212" lon="35.340538025">
  <ele>290.893066</ele>
  <time>2011-11-18T07:35:08Z</time>
  <speed>5.830000</speed>
</trkpt>
<trkpt lat="31.756927490" lon="35.340595245">
  <ele>289.807129</ele>
  <time>2011-11-18T07:35:09Z</time>
  <speed>6.580000</speed>
</trkpt>
<trkpt lat="31.756917953" lon="35.340663910">
  <ele>288.479004</ele>
  <time>2011-11-18T07:35:10Z</time>
  <speed>6.870000</speed>
</trkpt>
<trkpt lat="31.756910324" lon="35.340740204">
  <ele>287.900879</ele>
  <time>2011-11-18T07:35:11Z</time>
  <speed>7.400000</speed>
</trkpt>
<trkpt lat="31.756910324" lon="35.340820313">
  <ele>288.018066</ele>
  <time>2011-11-18T07:35:12Z</time>
  <speed>7.000000</speed>
</trkpt>
<trkpt lat="31.756916046" lon="35.340904236">
  <ele>288.088379</ele>
  <time>2011-11-18T07:35:13Z</time>
  <speed>7.300000</speed>
</trkpt>
<trkpt lat="31.756933212" lon="35.340988159">
  <ele>287.650879</ele>
  <time>2011-11-18T07:35:14Z</time>
  <speed>7.300000</speed>
</trkpt>
<trkpt lat="31.756948471" lon="35.341060638">
  <ele>286.557129</ele>
  <time>2011-11-18T07:35:15Z</time>
  <speed>6.640000</speed>
</trkpt>
<trkpt lat="31.756961823" lon="35.341129303">
  <ele>285.705566</ele>
  <time>2011-11-18T07:35:16Z</time>
  <speed>6.530000</speed>
</trkpt>
<trkpt lat="31.756965637" lon="35.341197968">
  <ele>284.564941</ele>
  <time>2011-11-18T07:35:17Z</time>
  <speed>6.310000</speed>
</trkpt>
<trkpt lat="31.756969452" lon="35.341266632">
  <ele>283.846191</ele>
  <time>2011-11-18T07:35:18Z</time>
  <speed>6.590000</speed>
</trkpt>
<trkpt lat="31.756967545" lon="35.341331482">
  <ele>281.814941</ele>
  <time>2011-11-18T07:35:19Z</time>
  <speed>6.390000</speed>
</trkpt>
<trkpt lat="31.756961823" lon="35.341392517">
  <ele>281.447754</ele>
  <time>2011-11-18T07:35:20Z</time>
  <speed>6.070000</speed>
</trkpt>
<trkpt lat="31.756954193" lon="35.341449738">
  <ele>280.275879</ele>
  <time>2011-11-18T07:35:21Z</time>
  <speed>5.360000</speed>
</trkpt>
<trkpt lat="31.756931305" lon="35.341495514">
  <ele>279.252441</ele>
  <time>2011-11-18T07:35:22Z</time>
  <speed>4.770000</speed>
</trkpt>
<trkpt lat="31.756908417" lon="35.341537476">
  <ele>278.338379</ele>
  <time>2011-11-18T07:35:23Z</time>
  <speed>3.720000</speed>
</trkpt>
<trkpt lat="31.756881714" lon="35.341556549">
  <ele>277.127441</ele>
  <time>2011-11-18T07:35:24Z</time>
  <speed>3.410000</speed>
</trkpt>
<trkpt lat="31.756856918" lon="35.341571808">
  <ele>276.299316</ele>
  <time>2011-11-18T07:35:25Z</time>
  <speed>3.640000</speed>
</trkpt>
<trkpt lat="31.756828308" lon="35.341579437">
  <ele>275.643066</ele>
  <time>2011-11-18T07:35:26Z</time>
  <speed>2.830000</speed>
</trkpt>
<trkpt lat="31.756795883" lon="35.341567993">
  <ele>273.869629</ele>
  <time>2011-11-18T07:35:27Z</time>
  <speed>2.350000</speed>
</trkpt>
<trkpt lat="31.756767273" lon="35.341560364">
  <ele>272.564941</ele>
  <time>2011-11-18T07:35:28Z</time>
  <speed>3.150000</speed>
</trkpt>
<trkpt lat="31.756731033" lon="35.341541290">
  <ele>271.111816</ele>
  <time>2011-11-18T07:35:29Z</time>
  <speed>3.740000</speed>
</trkpt>
<trkpt lat="31.756687164" lon="35.341529846">
  <ele>269.963379</ele>
  <time>2011-11-18T07:35:30Z</time>
  <speed>4.590000</speed>
</trkpt>
<trkpt lat="31.756647110" lon="35.341510773">
  <ele>269.768066</ele>
  <time>2011-11-18T07:35:31Z</time>
  <speed>4.220000</speed>
</trkpt>
<trkpt lat="31.756612778" lon="35.341491699">
  <ele>268.072754</ele>
  <time>2011-11-18T07:35:32Z</time>
  <speed>4.120000</speed>
</trkpt>
<trkpt lat="31.756576538" lon="35.341464996">
  <ele>266.119629</ele>
  <time>2011-11-18T07:35:33Z</time>
  <speed>4.730000</speed>
</trkpt>
<trkpt lat="31.756534576" lon="35.341445923">
  <ele>265.611816</ele>
  <time>2011-11-18T07:35:34Z</time>
  <speed>4.950000</speed>
</trkpt>
<trkpt lat="31.756484985" lon="35.341426849">
  <ele>264.697754</ele>
  <time>2011-11-18T07:35:35Z</time>
  <speed>5.270000</speed>
</trkpt>
<trkpt lat="31.756443024" lon="35.341407776">
  <ele>263.963379</ele>
  <time>2011-11-18T07:35:36Z</time>
  <speed>5.110000</speed>
</trkpt>
<trkpt lat="31.756401062" lon="35.341388702">
  <ele>262.650879</ele>
  <time>2011-11-18T07:35:37Z</time>
  <speed>4.570000</speed>
</trkpt>
<trkpt lat="31.756368637" lon="35.341365814">
  <ele>261.377441</ele>
  <time>2011-11-18T07:35:38Z</time>
  <speed>3.810000</speed>
</trkpt>
<trkpt lat="31.756351471" lon="35.341320038">
  <ele>260.807129</ele>
  <time>2011-11-18T07:35:40Z</time>
  <speed>1.730000</speed>
</trkpt>
<trkpt lat="31.756357193" lon="35.341285706">
  <ele>259.338379</ele>
  <time>2011-11-18T07:35:42Z</time>
  <speed>1.120000</speed>
</trkpt>
<trkpt lat="31.756368637" lon="35.341247559">
  <ele>258.736816</ele>
  <time>2011-11-18T07:35:44Z</time>
  <speed>1.720000</speed>
</trkpt>
<trkpt lat="31.756381989" lon="35.341209412">
  <ele>258.697754</ele>
  <time>2011-11-18T07:35:46Z</time>
  <speed>1.630000</speed>
</trkpt>
<trkpt lat="31.756374359" lon="35.341171265">
  <ele>258.697754</ele>
  <time>2011-11-18T07:35:48Z</time>
  <speed>1.640000</speed>
</trkpt>
<trkpt lat="31.756389618" lon="35.341129303">
  <ele>258.721191</ele>
  <time>2011-11-18T07:35:51Z</time>
  <speed>1.520000</speed>
</trkpt>
<trkpt lat="31.756395340" lon="35.341087341">
  <ele>259.400879</ele>
  <time>2011-11-18T07:35:54Z</time>
  <speed>1.670000</speed>
</trkpt>
<trkpt lat="31.756389618" lon="35.341045380">
  <ele>258.799316</ele>
  <time>2011-11-18T07:35:56Z</time>
  <speed>1.410000</speed>
</trkpt>
<trkpt lat="31.756385803" lon="35.340995789">
  <ele>259.705566</ele>
  <time>2011-11-18T07:36:13Z</time>
  <speed>1.690000</speed>
</trkpt>
<trkpt lat="31.756378174" lon="35.340953827">
  <ele>259.830566</ele>
  <time>2011-11-18T07:36:15Z</time>
  <speed>1.840000</speed>
</trkpt>
<trkpt lat="31.756359100" lon="35.340904236">
  <ele>260.572754</ele>
  <time>2011-11-18T07:36:17Z</time>
  <speed>1.780000</speed>
</trkpt>
<trkpt lat="31.756341934" lon="35.340866089">
  <ele>260.908691</ele>
  <time>2011-11-18T07:36:19Z</time>
  <speed>2.110000</speed>
</trkpt>
<trkpt lat="31.756330490" lon="35.340824127">
  <ele>261.510254</ele>
  <time>2011-11-18T07:36:21Z</time>
  <speed>2.240000</speed>
</trkpt>
<trkpt lat="31.756311417" lon="35.340782166">
  <ele>261.932129</ele>
  <time>2011-11-18T07:36:23Z</time>
  <speed>2.270000</speed>
</trkpt>
<trkpt lat="31.756294250" lon="35.340728760">
  <ele>262.854004</ele>
  <time>2011-11-18T07:36:25Z</time>
  <speed>2.440000</speed>
</trkpt>
<trkpt lat="31.756267548" lon="35.340694427">
  <ele>262.322754</ele>
  <time>2011-11-18T07:36:27Z</time>
  <speed>2.400000</speed>
</trkpt>
<trkpt lat="31.756229401" lon="35.340660095">
  <ele>262.229004</ele>
  <time>2011-11-18T07:36:29Z</time>
  <speed>2.490000</speed>
</trkpt>
<trkpt lat="31.756191254" lon="35.340633392">
  <ele>261.846191</ele>
  <time>2011-11-18T07:36:31Z</time>
  <speed>2.220000</speed>
</trkpt>
<trkpt lat="31.756151199" lon="35.340614319">
  <ele>261.854004</ele>
  <time>2011-11-18T07:36:33Z</time>
  <speed>2.280000</speed>
</trkpt>
<trkpt lat="31.756107330" lon="35.340583801">
  <ele>262.471191</ele>
  <time>2011-11-18T07:36:35Z</time>
  <speed>2.170000</speed>
</trkpt>
<trkpt lat="31.756059647" lon="35.340564728">
  <ele>262.963379</ele>
  <time>2011-11-18T07:36:37Z</time>
  <speed>2.800000</speed>
</trkpt>
<trkpt lat="31.756027222" lon="35.340557098">
  <ele>263.557129</ele>
  <time>2011-11-18T07:36:38Z</time>
  <speed>2.840000</speed>
</trkpt>
<trkpt lat="31.755998611" lon="35.340549469">
  <ele>263.838379</ele>
  <time>2011-11-18T07:36:39Z</time>
  <speed>2.920000</speed>
</trkpt>
<trkpt lat="31.755971909" lon="35.340541840">
  <ele>263.955566</ele>
  <time>2011-11-18T07:36:40Z</time>
  <speed>2.560000</speed>
</trkpt>
<trkpt lat="31.755924225" lon="35.340530396">
  <ele>263.932129</ele>
  <time>2011-11-18T07:36:42Z</time>
  <speed>2.630000</speed>
</trkpt>
<trkpt lat="31.755895615" lon="35.340522766">
  <ele>263.986816</ele>
  <time>2011-11-18T07:36:43Z</time>
  <speed>2.700000</speed>
</trkpt>
<trkpt lat="31.755847931" lon="35.340526581">
  <ele>264.041504</ele>
  <time>2011-11-18T07:36:45Z</time>
  <speed>2.810000</speed>
</trkpt>
<trkpt lat="31.755794525" lon="35.340526581">
  <ele>264.205566</ele>
  <time>2011-11-18T07:36:47Z</time>
  <speed>2.880000</speed>
</trkpt>
<trkpt lat="31.755744934" lon="35.340522766">
  <ele>264.244629</ele>
  <time>2011-11-18T07:36:49Z</time>
  <speed>2.860000</speed>
</trkpt>
<trkpt lat="31.755701065" lon="35.340534210">
  <ele>264.814941</ele>
  <time>2011-11-18T07:36:51Z</time>
  <speed>2.330000</speed>
</trkpt>
<trkpt lat="31.755647659" lon="35.340557098">
  <ele>265.354004</ele>
  <time>2011-11-18T07:36:53Z</time>
  <speed>2.580000</speed>
</trkpt>
<trkpt lat="31.755596161" lon="35.340583801">
  <ele>265.955566</ele>
  <time>2011-11-18T07:36:55Z</time>
  <speed>2.520000</speed>
</trkpt>
<trkpt lat="31.755563736" lon="35.340610504">
  <ele>266.814941</ele>
  <time>2011-11-18T07:36:57Z</time>
  <speed>1.690000</speed>
</trkpt>
<trkpt lat="31.755538940" lon="35.340637207">
  <ele>267.354004</ele>
  <time>2011-11-18T07:36:59Z</time>
  <speed>2.190000</speed>
</trkpt>
<trkpt lat="31.755516052" lon="35.340675354">
  <ele>267.260254</ele>
  <time>2011-11-18T07:37:01Z</time>
  <speed>2.250000</speed>
</trkpt>
<trkpt lat="31.755502701" lon="35.340709686">
  <ele>267.299316</ele>
  <time>2011-11-18T07:37:03Z</time>
  <speed>1.820000</speed>
</trkpt>
<trkpt lat="31.755498886" lon="35.340744019">
  <ele>268.127441</ele>
  <time>2011-11-18T07:37:05Z</time>
  <speed>1.910000</speed>
</trkpt>
<trkpt lat="31.755496979" lon="35.340797424">
  <ele>270.424316</ele>
  <time>2011-11-18T07:37:07Z</time>
  <speed>2.050000</speed>
</trkpt>
<trkpt lat="31.755495071" lon="35.340839386">
  <ele>271.377441</ele>
  <time>2011-11-18T07:37:09Z</time>
  <speed>2.020000</speed>
</trkpt>
<trkpt lat="31.755487442" lon="35.340885162">
  <ele>273.010254</ele>
  <time>2011-11-18T07:37:11Z</time>
  <speed>1.930000</speed>
</trkpt>
<trkpt lat="31.755496979" lon="35.340923309">
  <ele>274.557129</ele>
  <time>2011-11-18T07:37:13Z</time>
  <speed>1.890000</speed>
</trkpt>
<trkpt lat="31.755504608" lon="35.340961456">
  <ele>276.080566</ele>
  <time>2011-11-18T07:37:16Z</time>
  <speed>1.510000</speed>
</trkpt>
<trkpt lat="31.755506516" lon="35.341003418">
  <ele>276.354004</ele>
  <time>2011-11-18T07:37:19Z</time>
  <speed>1.220000</speed>
</trkpt>
<trkpt lat="31.755512238" lon="35.341045380">
  <ele>277.760254</ele>
  <time>2011-11-18T07:37:22Z</time>
  <speed>1.400000</speed>
</trkpt>
<trkpt lat="31.755500793" lon="35.341072083">
  <ele>279.580566</ele>
  <time>2011-11-18T07:37:24Z</time>
  <speed>1.570000</speed>
</trkpt>
<trkpt lat="31.755502701" lon="35.341114044">
  <ele>281.572754</ele>
  <time>2011-11-18T07:37:26Z</time>
  <speed>1.760000</speed>
</trkpt>
<trkpt lat="31.755483627" lon="35.341144562">
  <ele>281.666504</ele>
  <time>2011-11-18T07:37:28Z</time>
  <speed>1.470000</speed>
</trkpt>
<trkpt lat="31.755498886" lon="35.341175079">
  <ele>282.127441</ele>
  <time>2011-11-18T07:37:31Z</time>
  <speed>1.130000</speed>
</trkpt>
<trkpt lat="31.755521774" lon="35.341209412">
  <ele>282.299316</ele>
  <time>2011-11-18T07:37:34Z</time>
  <speed>1.650000</speed>
</trkpt>
<trkpt lat="31.755519867" lon="35.341251373">
  <ele>282.596191</ele>
  <time>2011-11-18T07:37:36Z</time>
  <speed>2.170000</speed>
</trkpt>
<trkpt lat="31.755519867" lon="35.341293335">
  <ele>283.275879</ele>
  <time>2011-11-18T07:37:38Z</time>
  <speed>1.800000</speed>
</trkpt>
<trkpt lat="31.755521774" lon="35.341339111">
  <ele>284.541504</ele>
  <time>2011-11-18T07:37:40Z</time>
  <speed>1.660000</speed>
</trkpt>
<trkpt lat="31.755525589" lon="35.341369629">
  <ele>285.494629</ele>
  <time>2011-11-18T07:37:42Z</time>
  <speed>1.560000</speed>
</trkpt>
<trkpt lat="31.755525589" lon="35.341403961">
  <ele>285.564941</ele>
  <time>2011-11-18T07:37:44Z</time>
  <speed>1.670000</speed>
</trkpt>
<trkpt lat="31.755523682" lon="35.341449738">
  <ele>285.979004</ele>
  <time>2011-11-18T07:37:46Z</time>
  <speed>1.510000</speed>
</trkpt>
<trkpt lat="31.755523682" lon="35.341484070">
  <ele>286.018066</ele>
  <time>2011-11-18T07:37:48Z</time>
  <speed>1.730000</speed>
</trkpt>
<trkpt lat="31.755514145" lon="35.341526031">
  <ele>287.010254</ele>
  <time>2011-11-18T07:37:50Z</time>
  <speed>1.780000</speed>
</trkpt>
<trkpt lat="31.755514145" lon="35.341564178">
  <ele>288.775879</ele>
  <time>2011-11-18T07:37:52Z</time>
  <speed>1.870000</speed>
</trkpt>
<trkpt lat="31.755517960" lon="35.341609955">
  <ele>289.791504</ele>
  <time>2011-11-18T07:37:54Z</time>
  <speed>1.320000</speed>
</trkpt>
<trkpt lat="31.755512238" lon="35.341655731">
  <ele>289.744629</ele>
  <time>2011-11-18T07:37:57Z</time>
  <speed>1.800000</speed>
</trkpt>
<trkpt lat="31.755516052" lon="35.341693878">
  <ele>289.744629</ele>
  <time>2011-11-18T07:38:00Z</time>
  <speed>1.830000</speed>
</trkpt>
<trkpt lat="31.755517960" lon="35.341728210">
  <ele>290.354004</ele>
  <time>2011-11-18T07:38:02Z</time>
  <speed>1.730000</speed>
</trkpt>
<trkpt lat="31.755523682" lon="35.341758728">
  <ele>291.197754</ele>
  <time>2011-11-18T07:38:04Z</time>
  <speed>1.600000</speed>
</trkpt>
<trkpt lat="31.755533218" lon="35.341793060">
  <ele>291.018066</ele>
  <time>2011-11-18T07:38:06Z</time>
  <speed>1.860000</speed>
</trkpt>
<trkpt lat="31.755540848" lon="35.341842651">
  <ele>291.893066</ele>
  <time>2011-11-18T07:38:09Z</time>
  <speed>1.300000</speed>
</trkpt>
<trkpt lat="31.755538940" lon="35.341876984">
  <ele>292.564941</ele>
  <time>2011-11-18T07:38:12Z</time>
  <speed>1.170000</speed>
</trkpt>
<trkpt lat="31.755531311" lon="35.341918945">
  <ele>293.846191</ele>
  <time>2011-11-18T07:38:15Z</time>
  <speed>1.180000</speed>
</trkpt>
<trkpt lat="31.755523682" lon="35.341957092">
  <ele>294.416504</ele>
  <time>2011-11-18T07:38:18Z</time>
  <speed>1.270000</speed>
</trkpt>
<trkpt lat="31.755510330" lon="35.341991425">
  <ele>294.322754</ele>
  <time>2011-11-18T07:38:20Z</time>
  <speed>1.300000</speed>
</trkpt>
<trkpt lat="31.755504608" lon="35.342029572">
  <ele>294.666504</ele>
  <time>2011-11-18T07:38:23Z</time>
  <speed>1.570000</speed>
</trkpt>
<trkpt lat="31.755502701" lon="35.342063904">
  <ele>294.463379</ele>
  <time>2011-11-18T07:38:25Z</time>
  <speed>1.780000</speed>
</trkpt>
<trkpt lat="31.755495071" lon="35.342102051">
  <ele>293.791504</ele>
  <time>2011-11-18T07:38:29Z</time>
  <speed>0.180000</speed>
</trkpt>
<trkpt lat="31.755481720" lon="35.342094421">
  <ele>291.213379</ele>
  <time>2011-11-18T07:39:32Z</time>
  <speed>0.020000</speed>
</trkpt>
<trkpt lat="31.755455017" lon="35.342098236">
  <ele>290.072754</ele>
  <time>2011-11-18T07:39:45Z</time>
  <speed>0.070000</speed>
</trkpt>
<trkpt lat="31.755477905" lon="35.342117310">
  <ele>291.338379</ele>
  <time>2011-11-18T07:40:33Z</time>
  <speed>0.050000</speed>
</trkpt>
<trkpt lat="31.755483627" lon="35.342151642">
  <ele>292.604004</ele>
  <time>2011-11-18T07:41:09Z</time>
</trkpt>
<trkpt lat="31.755506516" lon="35.342132568">
  <ele>291.338379</ele>
  <time>2011-11-18T07:41:27Z</time>
</trkpt>
<trkpt lat="31.755475998" lon="35.342159271">
  <ele>291.010254</ele>
  <time>2011-11-18T07:49:24Z</time>
  <speed>2.060000</speed>
</trkpt>
<trkpt lat="31.755464554" lon="35.342216492">
  <ele>290.775879</ele>
  <time>2011-11-18T07:49:26Z</time>
  <speed>3.440000</speed>
</trkpt>
<trkpt lat="31.755453110" lon="35.342269897">
  <ele>290.291504</ele>
  <time>2011-11-18T07:49:27Z</time>
  <speed>4.700000</speed>
</trkpt>
<trkpt lat="31.755430222" lon="35.342319489">
  <ele>289.072754</ele>
  <time>2011-11-18T07:49:28Z</time>
  <speed>5.970000</speed>
</trkpt>
<trkpt lat="31.755401611" lon="35.342388153">
  <ele>287.510254</ele>
  <time>2011-11-18T07:49:29Z</time>
  <speed>7.230000</speed>
</trkpt>
<trkpt lat="31.755363464" lon="35.342464447">
  <ele>285.877441</ele>
  <time>2011-11-18T07:49:30Z</time>
  <speed>7.950000</speed>
</trkpt>
<trkpt lat="31.755319595" lon="35.342536926">
  <ele>284.416504</ele>
  <time>2011-11-18T07:49:31Z</time>
  <speed>8.220000</speed>
</trkpt>
<trkpt lat="31.755270004" lon="35.342613220">
  <ele>283.580566</ele>
  <time>2011-11-18T07:49:32Z</time>
  <speed>8.670000</speed>
</trkpt>
<trkpt lat="31.755222321" lon="35.342685699">
  <ele>283.518066</ele>
  <time>2011-11-18T07:49:33Z</time>
  <speed>8.890000</speed>
</trkpt>
<trkpt lat="31.755180359" lon="35.342765808">
  <ele>283.494629</ele>
  <time>2011-11-18T07:49:34Z</time>
  <speed>8.250000</speed>
</trkpt>
<trkpt lat="31.755142212" lon="35.342842102">
  <ele>284.088379</ele>
  <time>2011-11-18T07:49:35Z</time>
  <speed>7.790000</speed>
</trkpt>
<trkpt lat="31.755107880" lon="35.342906952">
  <ele>284.088379</ele>
  <time>2011-11-18T07:49:36Z</time>
  <speed>7.300000</speed>
</trkpt>
<trkpt lat="31.755071640" lon="35.342971802">
  <ele>283.322754</ele>
  <time>2011-11-18T07:49:37Z</time>
  <speed>7.220000</speed>
</trkpt>
<trkpt lat="31.755035400" lon="35.343044281">
  <ele>282.799316</ele>
  <time>2011-11-18T07:49:38Z</time>
  <speed>8.020000</speed>
</trkpt>
<trkpt lat="31.755006790" lon="35.343124390">
  <ele>281.369629</ele>
  <time>2011-11-18T07:49:39Z</time>
  <speed>8.270000</speed>
</trkpt>
<trkpt lat="31.754981995" lon="35.343204498">
  <ele>282.260254</ele>
  <time>2011-11-18T07:49:40Z</time>
  <speed>7.810000</speed>
</trkpt>
<trkpt lat="31.754953384" lon="35.343276978">
  <ele>282.893066</ele>
  <time>2011-11-18T07:49:41Z</time>
  <speed>6.970000</speed>
</trkpt>
<trkpt lat="31.754920959" lon="35.343330383">
  <ele>283.494629</ele>
  <time>2011-11-18T07:49:42Z</time>
  <speed>6.060000</speed>
</trkpt>
<trkpt lat="31.754884720" lon="35.343372345">
  <ele>285.033691</ele>
  <time>2011-11-18T07:49:43Z</time>
  <speed>5.170000</speed>
</trkpt>
<trkpt lat="31.754848480" lon="35.343402863">
  <ele>284.963379</ele>
  <time>2011-11-18T07:49:44Z</time>
  <speed>4.410000</speed>
</trkpt>
<trkpt lat="31.754821777" lon="35.343425751">
  <ele>285.291504</ele>
  <time>2011-11-18T07:49:45Z</time>
  <speed>3.310000</speed>
</trkpt>
<trkpt lat="31.754800797" lon="35.343448639">
  <ele>284.838379</ele>
  <time>2011-11-18T07:49:46Z</time>
  <speed>2.950000</speed>
</trkpt>
<trkpt lat="31.754770279" lon="35.343475342">
  <ele>284.119629</ele>
  <time>2011-11-18T07:49:48Z</time>
  <speed>1.810000</speed>
</trkpt>
<trkpt lat="31.754747391" lon="35.343494415">
  <ele>284.057129</ele>
  <time>2011-11-18T07:49:50Z</time>
  <speed>2.280000</speed>
</trkpt>
<trkpt lat="31.754705429" lon="35.343536377">
  <ele>283.721191</ele>
  <time>2011-11-18T07:49:52Z</time>
  <speed>4.370000</speed>
</trkpt>
<trkpt lat="31.754673004" lon="35.343566895">
  <ele>283.041504</ele>
  <time>2011-11-18T07:49:53Z</time>
  <speed>4.760000</speed>
</trkpt>
<trkpt lat="31.754638672" lon="35.343601227">
  <ele>282.096191</ele>
  <time>2011-11-18T07:49:54Z</time>
  <speed>5.090000</speed>
</trkpt>
<trkpt lat="31.754606247" lon="35.343639374">
  <ele>281.916504</ele>
  <time>2011-11-18T07:49:55Z</time>
  <speed>4.910000</speed>
</trkpt>
<trkpt lat="31.754579544" lon="35.343677521">
  <ele>281.494629</ele>
  <time>2011-11-18T07:49:56Z</time>
  <speed>4.690000</speed>
</trkpt>
<trkpt lat="31.754566193" lon="35.343715668">
  <ele>282.018066</ele>
  <time>2011-11-18T07:49:57Z</time>
  <speed>3.950000</speed>
</trkpt>
<trkpt lat="31.754554749" lon="35.343746185">
  <ele>282.018066</ele>
  <time>2011-11-18T07:49:58Z</time>
  <speed>3.260000</speed>
</trkpt>
<trkpt lat="31.754545212" lon="35.343776703">
  <ele>282.096191</ele>
  <time>2011-11-18T07:49:59Z</time>
  <speed>3.360000</speed>
</trkpt>
<trkpt lat="31.754535675" lon="35.343811035">
  <ele>282.166504</ele>
  <time>2011-11-18T07:50:00Z</time>
  <speed>3.490000</speed>
</trkpt>
<trkpt lat="31.754529953" lon="35.343841553">
  <ele>282.494629</ele>
  <time>2011-11-18T07:50:01Z</time>
  <speed>2.900000</speed>
</trkpt>
<trkpt lat="31.754505157" lon="35.343887329">
  <ele>282.705566</ele>
  <time>2011-11-18T07:50:03Z</time>
  <speed>2.700000</speed>
</trkpt>
<trkpt lat="31.754482269" lon="35.343902588">
  <ele>281.604004</ele>
  <time>2011-11-18T07:50:04Z</time>
  <speed>2.530000</speed>
</trkpt>
<trkpt lat="31.754446030" lon="35.343940735">
  <ele>280.947754</ele>
  <time>2011-11-18T07:50:06Z</time>
  <speed>2.940000</speed>
</trkpt>
<trkpt lat="31.754430771" lon="35.343971252">
  <ele>280.916504</ele>
  <time>2011-11-18T07:50:07Z</time>
  <speed>3.770000</speed>
</trkpt>
<trkpt lat="31.754411697" lon="35.344001770">
  <ele>279.760254</ele>
  <time>2011-11-18T07:50:08Z</time>
  <speed>4.430000</speed>
</trkpt>
<trkpt lat="31.754390717" lon="35.344051361">
  <ele>278.877441</ele>
  <time>2011-11-18T07:50:09Z</time>
  <speed>5.430000</speed>
</trkpt>
<trkpt lat="31.754365921" lon="35.344104767">
  <ele>278.307129</ele>
  <time>2011-11-18T07:50:10Z</time>
  <speed>5.840000</speed>
</trkpt>
<trkpt lat="31.754352570" lon="35.344161987">
  <ele>279.244629</ele>
  <time>2011-11-18T07:50:11Z</time>
  <speed>5.550000</speed>
</trkpt>
<trkpt lat="31.754343033" lon="35.344223022">
  <ele>280.463379</ele>
  <time>2011-11-18T07:50:12Z</time>
  <speed>4.870000</speed>
</trkpt>
<trkpt lat="31.754337311" lon="35.344276428">
  <ele>279.971191</ele>
  <time>2011-11-18T07:50:13Z</time>
  <speed>4.690000</speed>
</trkpt>
<trkpt lat="31.754335403" lon="35.344318390">
  <ele>279.924316</ele>
  <time>2011-11-18T07:50:14Z</time>
  <speed>4.690000</speed>
</trkpt>
<trkpt lat="31.754335403" lon="35.344367981">
  <ele>279.502441</ele>
  <time>2011-11-18T07:50:15Z</time>
  <speed>5.000000</speed>
</trkpt>
<trkpt lat="31.754335403" lon="35.344421387">
  <ele>279.979004</ele>
  <time>2011-11-18T07:50:16Z</time>
  <speed>4.710000</speed>
</trkpt>
<trkpt lat="31.754339218" lon="35.344470978">
  <ele>280.221191</ele>
  <time>2011-11-18T07:50:17Z</time>
  <speed>5.280000</speed>
</trkpt>
<trkpt lat="31.754339218" lon="35.344528198">
  <ele>278.627441</ele>
  <time>2011-11-18T07:50:18Z</time>
  <speed>5.890000</speed>
</trkpt>
<trkpt lat="31.754360199" lon="35.344585419">
  <ele>279.252441</ele>
  <time>2011-11-18T07:50:19Z</time>
  <speed>5.950000</speed>
</trkpt>
<trkpt lat="31.754371643" lon="35.344642639">
  <ele>278.955566</ele>
  <time>2011-11-18T07:50:20Z</time>
  <speed>5.430000</speed>
</trkpt>
<trkpt lat="31.754388809" lon="35.344684601">
  <ele>280.189941</ele>
  <time>2011-11-18T07:50:21Z</time>
  <speed>4.600000</speed>
</trkpt>
<trkpt lat="31.754404068" lon="35.344726563">
  <ele>280.838379</ele>
  <time>2011-11-18T07:50:22Z</time>
  <speed>3.450000</speed>
</trkpt>
<trkpt lat="31.754419327" lon="35.344779968">
  <ele>281.596191</ele>
  <time>2011-11-18T07:50:24Z</time>
  <speed>2.690000</speed>
</trkpt>
<trkpt lat="31.754434586" lon="35.344825745">
  <ele>281.893066</ele>
  <time>2011-11-18T07:50:26Z</time>
  <speed>3.050000</speed>
</trkpt>
<trkpt lat="31.754449844" lon="35.344882965">
  <ele>281.799316</ele>
  <time>2011-11-18T07:50:28Z</time>
  <speed>3.160000</speed>
</trkpt>
<trkpt lat="31.754459381" lon="35.344936371">
  <ele>282.658691</ele>
  <time>2011-11-18T07:50:30Z</time>
  <speed>2.880000</speed>
</trkpt>
<trkpt lat="31.754467010" lon="35.344993591">
  <ele>282.869629</ele>
  <time>2011-11-18T07:50:32Z</time>
  <speed>2.080000</speed>
</trkpt>
<trkpt lat="31.754476547" lon="35.345035553">
  <ele>283.385254</ele>
  <time>2011-11-18T07:50:34Z</time>
  <speed>1.920000</speed>
</trkpt>
<trkpt lat="31.754493713" lon="35.345073700">
  <ele>283.650879</ele>
  <time>2011-11-18T07:50:36Z</time>
  <speed>1.870000</speed>
</trkpt>
<trkpt lat="31.754518509" lon="35.345111847">
  <ele>283.369629</ele>
  <time>2011-11-18T07:50:38Z</time>
  <speed>2.760000</speed>
</trkpt>
<trkpt lat="31.754531860" lon="35.345142365">
  <ele>283.799316</ele>
  <time>2011-11-18T07:50:39Z</time>
  <speed>2.770000</speed>
</trkpt>
<trkpt lat="31.754549026" lon="35.345180511">
  <ele>283.908691</ele>
  <time>2011-11-18T07:50:41Z</time>
  <speed>1.360000</speed>
</trkpt>
<trkpt lat="31.754554749" lon="35.345237732">
  <ele>285.354004</ele>
  <time>2011-11-18T07:51:03Z</time>
  <speed>2.750000</speed>
</trkpt>
<trkpt lat="31.754560471" lon="35.345298767">
  <ele>285.557129</ele>
  <time>2011-11-18T07:51:05Z</time>
  <speed>2.580000</speed>
</trkpt>
<trkpt lat="31.754573822" lon="35.345340729">
  <ele>284.877441</ele>
  <time>2011-11-18T07:51:07Z</time>
  <speed>2.370000</speed>
</trkpt>
<trkpt lat="31.754583359" lon="35.345401764">
  <ele>283.518066</ele>
  <time>2011-11-18T07:51:09Z</time>
  <speed>3.090000</speed>
</trkpt>
<trkpt lat="31.754585266" lon="35.345458984">
  <ele>283.604004</ele>
  <time>2011-11-18T07:51:11Z</time>
  <speed>1.940000</speed>
</trkpt>
<trkpt lat="31.754583359" lon="35.345516205">
  <ele>282.807129</ele>
  <time>2011-11-18T07:51:13Z</time>
  <speed>3.150000</speed>
</trkpt>
<trkpt lat="31.754583359" lon="35.345554352">
  <ele>281.611816</ele>
  <time>2011-11-18T07:51:14Z</time>
  <speed>4.440000</speed>
</trkpt>
<trkpt lat="31.754594803" lon="35.345607758">
  <ele>282.611816</ele>
  <time>2011-11-18T07:51:15Z</time>
  <speed>4.550000</speed>
</trkpt>
<trkpt lat="31.754594803" lon="35.345645905">
  <ele>282.408691</ele>
  <time>2011-11-18T07:51:16Z</time>
  <speed>3.340000</speed>
</trkpt>
<trkpt lat="31.754598618" lon="35.345680237">
  <ele>282.338379</ele>
  <time>2011-11-18T07:51:17Z</time>
  <speed>2.640000</speed>
</trkpt>
<trkpt lat="31.754604340" lon="35.345737457">
  <ele>282.877441</ele>
  <time>2011-11-18T07:51:19Z</time>
  <speed>3.010000</speed>
</trkpt>
<trkpt lat="31.754610062" lon="35.345771790">
  <ele>283.783691</ele>
  <time>2011-11-18T07:51:20Z</time>
  <speed>2.710000</speed>
</trkpt>
<trkpt lat="31.754617691" lon="35.345840454">
  <ele>283.854004</ele>
  <time>2011-11-18T07:51:22Z</time>
  <speed>3.330000</speed>
</trkpt>
<trkpt lat="31.754619598" lon="35.345886230">
  <ele>285.049316</ele>
  <time>2011-11-18T07:51:23Z</time>
  <speed>3.690000</speed>
</trkpt>
<trkpt lat="31.754613876" lon="35.345924377">
  <ele>283.939941</ele>
  <time>2011-11-18T07:51:24Z</time>
  <speed>3.770000</speed>
</trkpt>
<trkpt lat="31.754619598" lon="35.345962524">
  <ele>283.541504</ele>
  <time>2011-11-18T07:51:25Z</time>
  <speed>3.810000</speed>
</trkpt>
<trkpt lat="31.754617691" lon="35.346000671">
  <ele>283.424316</ele>
  <time>2011-11-18T07:51:26Z</time>
  <speed>3.740000</speed>
</trkpt>
<trkpt lat="31.754621506" lon="35.346042633">
  <ele>284.049316</ele>
  <time>2011-11-18T07:51:27Z</time>
  <speed>3.620000</speed>
</trkpt>
<trkpt lat="31.754619598" lon="35.346080780">
  <ele>284.525879</ele>
  <time>2011-11-18T07:51:28Z</time>
  <speed>3.180000</speed>
</trkpt>
<trkpt lat="31.754619598" lon="35.346111298">
  <ele>284.924316</ele>
  <time>2011-11-18T07:51:29Z</time>
  <speed>2.790000</speed>
</trkpt>
<trkpt lat="31.754621506" lon="35.346176147">
  <ele>285.393066</ele>
  <time>2011-11-18T07:51:31Z</time>
  <speed>2.930000</speed>
</trkpt>
<trkpt lat="31.754610062" lon="35.346225739">
  <ele>284.908691</ele>
  <time>2011-11-18T07:51:33Z</time>
  <speed>1.830000</speed>
</trkpt>
<trkpt lat="31.754596710" lon="35.346256256">
  <ele>283.869629</ele>
  <time>2011-11-18T07:51:35Z</time>
  <speed>1.040000</speed>
</trkpt>
<trkpt lat="31.754573822" lon="35.346263885">
  <ele>281.861816</ele>
  <time>2011-11-18T07:51:42Z</time>
  <speed>0.010000</speed>
</trkpt>
<trkpt lat="31.754550934" lon="35.346294403">
  <ele>282.135254</ele>
  <time>2011-11-18T07:51:48Z</time>
  <speed>2.130000</speed>
</trkpt>
<trkpt lat="31.754526138" lon="35.346336365">
  <ele>280.955566</ele>
  <time>2011-11-18T07:51:50Z</time>
  <speed>2.950000</speed>
</trkpt>
<trkpt lat="31.754507065" lon="35.346355438">
  <ele>280.814941</ele>
  <time>2011-11-18T07:51:51Z</time>
  <speed>3.220000</speed>
</trkpt>
<trkpt lat="31.754486084" lon="35.346378326">
  <ele>280.721191</ele>
  <time>2011-11-18T07:51:52Z</time>
  <speed>3.070000</speed>
</trkpt>
<trkpt lat="31.754438400" lon="35.346401215">
  <ele>279.893066</ele>
  <time>2011-11-18T07:51:54Z</time>
  <speed>3.480000</speed>
</trkpt>
<trkpt lat="31.754404068" lon="35.346420288">
  <ele>279.463379</ele>
  <time>2011-11-18T07:51:55Z</time>
  <speed>4.270000</speed>
</trkpt>
<trkpt lat="31.754358292" lon="35.346439362">
  <ele>278.877441</ele>
  <time>2011-11-18T07:51:56Z</time>
  <speed>5.460000</speed>
</trkpt>
<trkpt lat="31.754310608" lon="35.346466064">
  <ele>277.666504</ele>
  <time>2011-11-18T07:51:57Z</time>
  <speed>5.760000</speed>
</trkpt>
<trkpt lat="31.754262924" lon="35.346492767">
  <ele>277.166504</ele>
  <time>2011-11-18T07:51:58Z</time>
  <speed>6.160000</speed>
</trkpt>
<trkpt lat="31.754209518" lon="35.346515656">
  <ele>275.182129</ele>
  <time>2011-11-18T07:51:59Z</time>
  <speed>6.200000</speed>
</trkpt>
<trkpt lat="31.754158020" lon="35.346549988">
  <ele>274.143066</ele>
  <time>2011-11-18T07:52:00Z</time>
  <speed>6.330000</speed>
</trkpt>
<trkpt lat="31.754110336" lon="35.346565247">
  <ele>272.064941</ele>
  <time>2011-11-18T07:52:01Z</time>
  <speed>6.870000</speed>
</trkpt>
<trkpt lat="31.754066467" lon="35.346607208">
  <ele>271.229004</ele>
  <time>2011-11-18T07:52:02Z</time>
  <speed>5.790000</speed>
</trkpt>
<trkpt lat="31.754026413" lon="35.346630096">
  <ele>270.049316</ele>
  <time>2011-11-18T07:52:03Z</time>
  <speed>5.850000</speed>
</trkpt>
<trkpt lat="31.753986359" lon="35.346668243">
  <ele>269.260254</ele>
  <time>2011-11-18T07:52:04Z</time>
  <speed>5.910000</speed>
</trkpt>
<trkpt lat="31.753944397" lon="35.346702576">
  <ele>267.869629</ele>
  <time>2011-11-18T07:52:05Z</time>
  <speed>5.270000</speed>
</trkpt>
<trkpt lat="31.753910065" lon="35.346717834">
  <ele>266.682129</ele>
  <time>2011-11-18T07:52:06Z</time>
  <speed>3.940000</speed>
</trkpt>
<trkpt lat="31.753877640" lon="35.346721649">
  <ele>265.814941</ele>
  <time>2011-11-18T07:52:07Z</time>
  <speed>3.380000</speed>
</trkpt>
<trkpt lat="31.753843307" lon="35.346717834">
  <ele>264.900879</ele>
  <time>2011-11-18T07:52:08Z</time>
  <speed>3.560000</speed>
</trkpt>
<trkpt lat="31.753810883" lon="35.346721649">
  <ele>263.877441</ele>
  <time>2011-11-18T07:52:09Z</time>
  <speed>3.580000</speed>
</trkpt>
<trkpt lat="31.753780365" lon="35.346706390">
  <ele>262.736816</ele>
  <time>2011-11-18T07:52:10Z</time>
  <speed>3.540000</speed>
</trkpt>
<trkpt lat="31.753751755" lon="35.346710205">
  <ele>262.752441</ele>
  <time>2011-11-18T07:52:11Z</time>
  <speed>3.840000</speed>
</trkpt>
<trkpt lat="31.753717422" lon="35.346714020">
  <ele>262.330566</ele>
  <time>2011-11-18T07:52:13Z</time>
  <speed>1.900000</speed>
</trkpt>
<trkpt lat="31.753717422" lon="35.346748352">
  <ele>261.479004</ele>
  <time>2011-11-18T07:52:15Z</time>
  <speed>2.330000</speed>
</trkpt>
<trkpt lat="31.753715515" lon="35.346801758">
  <ele>260.900879</ele>
  <time>2011-11-18T07:52:17Z</time>
  <speed>2.720000</speed>
</trkpt>
<trkpt lat="31.753726959" lon="35.346866608">
  <ele>260.127441</ele>
  <time>2011-11-18T07:52:19Z</time>
  <speed>2.500000</speed>
</trkpt>
<trkpt lat="31.753736496" lon="35.346904755">
  <ele>258.400879</ele>
  <time>2011-11-18T07:52:21Z</time>
  <speed>1.110000</speed>
</trkpt>
<trkpt lat="31.753757477" lon="35.346935272">
  <ele>257.377441</ele>
  <time>2011-11-18T07:52:24Z</time>
  <speed>1.590000</speed>
</trkpt>
<trkpt lat="31.753774643" lon="35.346977234">
  <ele>258.158691</ele>
  <time>2011-11-18T07:52:26Z</time>
  <speed>2.050000</speed>
</trkpt>
<trkpt lat="31.753797531" lon="35.347007751">
  <ele>257.479004</ele>
  <time>2011-11-18T07:52:28Z</time>
  <speed>1.210000</speed>
</trkpt>
<trkpt lat="31.753826141" lon="35.347026825">
  <ele>257.205566</ele>
  <time>2011-11-18T07:52:35Z</time>
  <speed>0.490000</speed>
</trkpt>
<trkpt lat="31.753860474" lon="35.347030640">
  <ele>258.924316</ele>
  <time>2011-11-18T07:52:38Z</time>
  <speed>1.020000</speed>
</trkpt>
<trkpt lat="31.753894806" lon="35.347049713">
  <ele>259.291504</ele>
  <time>2011-11-18T07:52:41Z</time>
  <speed>1.910000</speed>
</trkpt>
<trkpt lat="31.753917694" lon="35.347084045">
  <ele>260.283691</ele>
  <time>2011-11-18T07:52:43Z</time>
  <speed>1.750000</speed>
</trkpt>
<trkpt lat="31.753936768" lon="35.347114563">
  <ele>262.416504</ele>
  <time>2011-11-18T07:52:45Z</time>
  <speed>1.070000</speed>
</trkpt>
<trkpt lat="31.753957748" lon="35.347137451">
  <ele>263.768066</ele>
  <time>2011-11-18T07:52:48Z</time>
  <speed>1.230000</speed>
</trkpt>
<trkpt lat="31.753982544" lon="35.347156525">
  <ele>265.564941</ele>
  <time>2011-11-18T07:52:51Z</time>
  <speed>0.940000</speed>
</trkpt>
<trkpt lat="31.754009247" lon="35.347164154">
  <ele>266.994629</ele>
  <time>2011-11-18T07:52:53Z</time>
  <speed>1.240000</speed>
</trkpt>
<trkpt lat="31.754034042" lon="35.347175598">
  <ele>267.635254</ele>
  <time>2011-11-18T07:52:56Z</time>
  <speed>0.780000</speed>
</trkpt>
<trkpt lat="31.754055023" lon="35.347198486">
  <ele>268.666504</ele>
  <time>2011-11-18T07:52:59Z</time>
  <speed>0.950000</speed>
</trkpt>
<trkpt lat="31.754055023" lon="35.347229004">
  <ele>268.244629</ele>
  <time>2011-11-18T07:53:02Z</time>
  <speed>1.080000</speed>
</trkpt>
<trkpt lat="31.754077911" lon="35.347267151">
  <ele>268.932129</ele>
  <time>2011-11-18T07:53:05Z</time>
  <speed>1.150000</speed>
</trkpt>
<trkpt lat="31.754096985" lon="35.347297668">
  <ele>269.018066</ele>
  <time>2011-11-18T07:53:07Z</time>
  <speed>1.230000</speed>
</trkpt>
<trkpt lat="31.754089355" lon="35.347328186">
  <ele>269.916504</ele>
  <time>2011-11-18T07:53:12Z</time>
  <speed>0.710000</speed>
</trkpt>
<trkpt lat="31.754077911" lon="35.347366333">
  <ele>269.682129</ele>
  <time>2011-11-18T07:53:15Z</time>
  <speed>1.120000</speed>
</trkpt>
<trkpt lat="31.754055023" lon="35.347400665">
  <ele>269.432129</ele>
  <time>2011-11-18T07:53:18Z</time>
  <speed>1.310000</speed>
</trkpt>
<trkpt lat="31.754037857" lon="35.347423553">
  <ele>268.900879</ele>
  <time>2011-11-18T07:53:20Z</time>
  <speed>1.170000</speed>
</trkpt>
<trkpt lat="31.754018784" lon="35.347461700">
  <ele>269.814941</ele>
  <time>2011-11-18T07:53:23Z</time>
  <speed>1.360000</speed>
</trkpt>
<trkpt lat="31.753995895" lon="35.347499847">
  <ele>270.393066</ele>
  <time>2011-11-18T07:53:26Z</time>
  <speed>1.250000</speed>
</trkpt>
<trkpt lat="31.753971100" lon="35.347534180">
  <ele>269.674316</ele>
  <time>2011-11-18T07:53:29Z</time>
  <speed>1.600000</speed>
</trkpt>
<trkpt lat="31.753950119" lon="35.347572327">
  <ele>270.018066</ele>
  <time>2011-11-18T07:53:32Z</time>
  <speed>1.340000</speed>
</trkpt>
<trkpt lat="31.753938675" lon="35.347602844">
  <ele>270.393066</ele>
  <time>2011-11-18T07:53:34Z</time>
  <speed>1.510000</speed>
</trkpt>
<trkpt lat="31.753927231" lon="35.347629547">
  <ele>269.877441</ele>
  <time>2011-11-18T07:53:36Z</time>
  <speed>1.300000</speed>
</trkpt>
<trkpt lat="31.753921509" lon="35.347671509">
  <ele>269.682129</ele>
  <time>2011-11-18T07:53:39Z</time>
  <speed>1.510000</speed>
</trkpt>
<trkpt lat="31.753940582" lon="35.347698212">
  <ele>269.049316</ele>
  <time>2011-11-18T07:53:42Z</time>
  <speed>1.040000</speed>
</trkpt>
<trkpt lat="31.753953934" lon="35.347728729">
  <ele>269.080566</ele>
  <time>2011-11-18T07:53:47Z</time>
  <speed>0.740000</speed>
</trkpt>
<trkpt lat="31.753978729" lon="35.347721100">
  <ele>269.627441</ele>
  <time>2011-11-18T07:54:20Z</time>
</trkpt>
<trkpt lat="31.754011154" lon="35.347728729">
  <ele>271.361816</ele>
  <time>2011-11-18T07:54:32Z</time>
  <speed>0.740000</speed>
</trkpt>
<trkpt lat="31.754037857" lon="35.347721100">
  <ele>272.385254</ele>
  <time>2011-11-18T07:54:34Z</time>
  <speed>0.930000</speed>
</trkpt>
<trkpt lat="31.754074097" lon="35.347732544">
  <ele>273.596191</ele>
  <time>2011-11-18T07:54:37Z</time>
  <speed>1.100000</speed>
</trkpt>
<trkpt lat="31.754112244" lon="35.347736359">
  <ele>274.783691</ele>
  <time>2011-11-18T07:54:40Z</time>
  <speed>1.060000</speed>
</trkpt>
<trkpt lat="31.754138947" lon="35.347747803">
  <ele>275.768066</ele>
  <time>2011-11-18T07:54:42Z</time>
  <speed>1.420000</speed>
</trkpt>
<trkpt lat="31.754175186" lon="35.347743988">
  <ele>277.697754</ele>
  <time>2011-11-18T07:54:45Z</time>
  <speed>1.210000</speed>
</trkpt>
<trkpt lat="31.754199982" lon="35.347755432">
  <ele>278.010254</ele>
  <time>2011-11-18T07:54:47Z</time>
  <speed>1.230000</speed>
</trkpt>
<trkpt lat="31.754232407" lon="35.347782135">
  <ele>278.541504</ele>
  <time>2011-11-18T07:54:51Z</time>
  <speed>1.370000</speed>
</trkpt>
<trkpt lat="31.754262924" lon="35.347789764">
  <ele>280.189941</ele>
  <time>2011-11-18T07:54:53Z</time>
  <speed>1.460000</speed>
</trkpt>
<trkpt lat="31.754293442" lon="35.347808838">
  <ele>280.721191</ele>
  <time>2011-11-18T07:54:55Z</time>
  <speed>1.270000</speed>
</trkpt>
<trkpt lat="31.754316330" lon="35.347824097">
  <ele>282.135254</ele>
  <time>2011-11-18T07:54:57Z</time>
  <speed>1.070000</speed>
</trkpt>
<trkpt lat="31.754329681" lon="35.347858429">
  <ele>282.346191</ele>
  <time>2011-11-18T07:55:01Z</time>
  <speed>1.150000</speed>
</trkpt>
<trkpt lat="31.754352570" lon="35.347892761">
  <ele>282.252441</ele>
  <time>2011-11-18T07:55:04Z</time>
  <speed>1.170000</speed>
</trkpt>
<trkpt lat="31.754358292" lon="35.347927094">
  <ele>281.658691</ele>
  <time>2011-11-18T07:55:07Z</time>
  <speed>1.190000</speed>
</trkpt>
<trkpt lat="31.754358292" lon="35.347961426">
  <ele>280.525879</ele>
  <time>2011-11-18T07:55:10Z</time>
  <speed>0.700000</speed>
</trkpt>
<trkpt lat="31.754373550" lon="35.347991943">
  <ele>280.213379</ele>
  <time>2011-11-18T08:00:53Z</time>
  <speed>1.230000</speed>
</trkpt>
<trkpt lat="31.754386902" lon="35.348026276">
  <ele>280.439941</ele>
  <time>2011-11-18T08:00:55Z</time>
  <speed>2.050000</speed>
</trkpt>
<trkpt lat="31.754396439" lon="35.348072052">
  <ele>279.658691</ele>
  <time>2011-11-18T08:00:57Z</time>
  <speed>2.640000</speed>
</trkpt>
<trkpt lat="31.754413605" lon="35.348133087">
  <ele>279.252441</ele>
  <time>2011-11-18T08:00:59Z</time>
  <speed>2.860000</speed>
</trkpt>
<trkpt lat="31.754413605" lon="35.348163605">
  <ele>278.557129</ele>
  <time>2011-11-18T08:01:00Z</time>
  <speed>3.110000</speed>
</trkpt>
<trkpt lat="31.754421234" lon="35.348197937">
  <ele>278.846191</ele>
  <time>2011-11-18T08:01:01Z</time>
  <speed>3.150000</speed>
</trkpt>
<trkpt lat="31.754430771" lon="35.348228455">
  <ele>279.361816</ele>
  <time>2011-11-18T08:01:02Z</time>
  <speed>3.060000</speed>
</trkpt>
<trkpt lat="31.754436493" lon="35.348266602">
  <ele>279.479004</ele>
  <time>2011-11-18T08:01:03Z</time>
  <speed>2.730000</speed>
</trkpt>
<trkpt lat="31.754453659" lon="35.348320007">
  <ele>279.174316</ele>
  <time>2011-11-18T08:01:05Z</time>
  <speed>3.030000</speed>
</trkpt>
<trkpt lat="31.754474640" lon="35.348361969">
  <ele>279.197754</ele>
  <time>2011-11-18T08:01:07Z</time>
  <speed>2.290000</speed>
</trkpt>
<trkpt lat="31.754499435" lon="35.348396301">
  <ele>280.439941</ele>
  <time>2011-11-18T08:01:09Z</time>
  <speed>2.060000</speed>
</trkpt>
<trkpt lat="31.754518509" lon="35.348434448">
  <ele>280.635254</ele>
  <time>2011-11-18T08:01:11Z</time>
  <speed>2.220000</speed>
</trkpt>
<trkpt lat="31.754535675" lon="35.348464966">
  <ele>281.064941</ele>
  <time>2011-11-18T08:01:13Z</time>
  <speed>2.110000</speed>
</trkpt>
<trkpt lat="31.754556656" lon="35.348514557">
  <ele>281.275879</ele>
  <time>2011-11-18T08:01:15Z</time>
  <speed>2.410000</speed>
</trkpt>
<trkpt lat="31.754573822" lon="35.348564148">
  <ele>281.080566</ele>
  <time>2011-11-18T08:01:17Z</time>
  <speed>1.910000</speed>
</trkpt>
<trkpt lat="31.754587173" lon="35.348602295">
  <ele>280.611816</ele>
  <time>2011-11-18T08:01:19Z</time>
  <speed>1.670000</speed>
</trkpt>
<trkpt lat="31.754604340" lon="35.348636627">
  <ele>280.127441</ele>
  <time>2011-11-18T08:01:21Z</time>
  <speed>2.410000</speed>
</trkpt>
<trkpt lat="31.754619598" lon="35.348663330">
  <ele>279.400879</ele>
  <time>2011-11-18T08:01:22Z</time>
  <speed>3.680000</speed>
</trkpt>
<trkpt lat="31.754642487" lon="35.348690033">
  <ele>278.596191</ele>
  <time>2011-11-18T08:01:23Z</time>
  <speed>4.110000</speed>
</trkpt>
<trkpt lat="31.754673004" lon="35.348724365">
  <ele>277.518066</ele>
  <time>2011-11-18T08:01:24Z</time>
  <speed>4.610000</speed>
</trkpt>
<trkpt lat="31.754705429" lon="35.348758698">
  <ele>279.072754</ele>
  <time>2011-11-18T08:01:25Z</time>
  <speed>3.870000</speed>
</trkpt>
<trkpt lat="31.754734039" lon="35.348773956">
  <ele>280.002441</ele>
  <time>2011-11-18T08:01:26Z</time>
  <speed>2.700000</speed>
</trkpt>
<trkpt lat="31.754774094" lon="35.348785400">
  <ele>280.385254</ele>
  <time>2011-11-18T08:01:28Z</time>
  <speed>2.080000</speed>
</trkpt>
<trkpt lat="31.754812241" lon="35.348796844">
  <ele>280.260254</ele>
  <time>2011-11-18T08:01:30Z</time>
  <speed>2.440000</speed>
</trkpt>
<trkpt lat="31.754848480" lon="35.348804474">
  <ele>280.369629</ele>
  <time>2011-11-18T08:01:32Z</time>
  <speed>1.820000</speed>
</trkpt>
<trkpt lat="31.754886627" lon="35.348815918">
  <ele>281.369629</ele>
  <time>2011-11-18T08:01:34Z</time>
  <speed>1.770000</speed>
</trkpt>
<trkpt lat="31.754911423" lon="35.348819733">
  <ele>282.643066</ele>
  <time>2011-11-18T08:01:35Z</time>
  <speed>2.130000</speed>
</trkpt>
<trkpt lat="31.754949570" lon="35.348831177">
  <ele>283.221191</ele>
  <time>2011-11-18T08:01:37Z</time>
  <speed>2.150000</speed>
</trkpt>
<trkpt lat="31.754981995" lon="35.348854065">
  <ele>284.166504</ele>
  <time>2011-11-18T08:01:39Z</time>
  <speed>1.890000</speed>
</trkpt>
<trkpt lat="31.755014420" lon="35.348876953">
  <ele>285.174316</ele>
  <time>2011-11-18T08:01:41Z</time>
  <speed>1.880000</speed>
</trkpt>
<trkpt lat="31.755043030" lon="35.348896027">
  <ele>285.955566</ele>
  <time>2011-11-18T08:01:43Z</time>
  <speed>1.670000</speed>
</trkpt>
<trkpt lat="31.755071640" lon="35.348918915">
  <ele>286.588379</ele>
  <time>2011-11-18T08:01:45Z</time>
  <speed>1.950000</speed>
</trkpt>
<trkpt lat="31.755098343" lon="35.348945618">
  <ele>286.635254</ele>
  <time>2011-11-18T08:01:47Z</time>
  <speed>1.940000</speed>
</trkpt>
<trkpt lat="31.755119324" lon="35.348968506">
  <ele>286.775879</ele>
  <time>2011-11-18T08:01:49Z</time>
  <speed>1.890000</speed>
</trkpt>
<trkpt lat="31.755138397" lon="35.349002838">
  <ele>287.104004</ele>
  <time>2011-11-18T08:01:51Z</time>
  <speed>1.880000</speed>
</trkpt>
<trkpt lat="31.755159378" lon="35.349040985">
  <ele>288.143066</ele>
  <time>2011-11-18T08:01:53Z</time>
  <speed>2.230000</speed>
</trkpt>
<trkpt lat="31.755187988" lon="35.349067688">
  <ele>288.791504</ele>
  <time>2011-11-18T08:01:55Z</time>
  <speed>1.700000</speed>
</trkpt>
<trkpt lat="31.755195618" lon="35.349105835">
  <ele>289.080566</ele>
  <time>2011-11-18T08:01:57Z</time>
  <speed>1.550000</speed>
</trkpt>
<trkpt lat="31.755208969" lon="35.349143982">
  <ele>289.643066</ele>
  <time>2011-11-18T08:01:59Z</time>
  <speed>1.660000</speed>
</trkpt>
<trkpt lat="31.755222321" lon="35.349178314">
  <ele>290.135254</ele>
  <time>2011-11-18T08:02:01Z</time>
  <speed>1.860000</speed>
</trkpt>
<trkpt lat="31.755233765" lon="35.349208832">
  <ele>291.064941</ele>
  <time>2011-11-18T08:02:03Z</time>
  <speed>1.790000</speed>
</trkpt>
<trkpt lat="31.755235672" lon="35.349254608">
  <ele>291.604004</ele>
  <time>2011-11-18T08:02:05Z</time>
  <speed>1.570000</speed>
</trkpt>
<trkpt lat="31.755241394" lon="35.349292755">
  <ele>291.963379</ele>
  <time>2011-11-18T08:02:07Z</time>
  <speed>1.890000</speed>
</trkpt>
<trkpt lat="31.755250931" lon="35.349330902">
  <ele>293.354004</ele>
  <time>2011-11-18T08:02:09Z</time>
  <speed>1.810000</speed>
</trkpt>
<trkpt lat="31.755258560" lon="35.349361420">
  <ele>294.385254</ele>
  <time>2011-11-18T08:02:11Z</time>
  <speed>1.440000</speed>
</trkpt>
<trkpt lat="31.755256653" lon="35.349395752">
  <ele>294.275879</ele>
  <time>2011-11-18T08:02:13Z</time>
  <speed>1.730000</speed>
</trkpt>
<trkpt lat="31.755266190" lon="35.349422455">
  <ele>295.525879</ele>
  <time>2011-11-18T08:02:15Z</time>
  <speed>1.690000</speed>
</trkpt>
<trkpt lat="31.755273819" lon="35.349460602">
  <ele>296.666504</ele>
  <time>2011-11-18T08:02:17Z</time>
  <speed>1.600000</speed>
</trkpt>
<trkpt lat="31.755273819" lon="35.349498749">
  <ele>296.822754</ele>
  <time>2011-11-18T08:02:19Z</time>
  <speed>1.730000</speed>
</trkpt>
<trkpt lat="31.755275726" lon="35.349536896">
  <ele>297.236816</ele>
  <time>2011-11-18T08:02:21Z</time>
  <speed>1.530000</speed>
</trkpt>
<trkpt lat="31.755277634" lon="35.349582672">
  <ele>297.619629</ele>
  <time>2011-11-18T08:02:24Z</time>
  <speed>1.380000</speed>
</trkpt>
<trkpt lat="31.755281448" lon="35.349620819">
  <ele>298.502441</ele>
  <time>2011-11-18T08:02:27Z</time>
  <speed>1.280000</speed>
</trkpt>
<trkpt lat="31.755285263" lon="35.349666595">
  <ele>299.486816</ele>
  <time>2011-11-18T08:02:29Z</time>
  <speed>1.310000</speed>
</trkpt>
<trkpt lat="31.755287170" lon="35.349708557">
  <ele>300.736816</ele>
  <time>2011-11-18T08:02:32Z</time>
  <speed>1.150000</speed>
</trkpt>
<trkpt lat="31.755285263" lon="35.349739075">
  <ele>301.541504</ele>
  <time>2011-11-18T08:02:35Z</time>
  <speed>1.200000</speed>
</trkpt>
<trkpt lat="31.755285263" lon="35.349784851">
  <ele>302.854004</ele>
  <time>2011-11-18T08:02:39Z</time>
  <speed>1.320000</speed>
</trkpt>
<trkpt lat="31.755275726" lon="35.349826813">
  <ele>303.018066</ele>
  <time>2011-11-18T08:02:42Z</time>
  <speed>1.550000</speed>
</trkpt>
<trkpt lat="31.755281448" lon="35.349864960">
  <ele>303.971191</ele>
  <time>2011-11-18T08:02:44Z</time>
  <speed>1.640000</speed>
</trkpt>
<trkpt lat="31.755273819" lon="35.349895477">
  <ele>304.213379</ele>
  <time>2011-11-18T08:02:47Z</time>
  <speed>1.000000</speed>
</trkpt>
<trkpt lat="31.755275726" lon="35.349933624">
  <ele>304.393066</ele>
  <time>2011-11-18T08:02:50Z</time>
  <speed>1.470000</speed>
</trkpt>
<trkpt lat="31.755271912" lon="35.349971771">
  <ele>305.064941</ele>
  <time>2011-11-18T08:02:52Z</time>
  <speed>1.710000</speed>
</trkpt>
<trkpt lat="31.755268097" lon="35.350013733">
  <ele>305.439941</ele>
  <time>2011-11-18T08:02:54Z</time>
  <speed>1.640000</speed>
</trkpt>
<trkpt lat="31.755262375" lon="35.350051880">
  <ele>304.041504</ele>
  <time>2011-11-18T08:02:57Z</time>
  <speed>1.650000</speed>
</trkpt>
<trkpt lat="31.755256653" lon="35.350097656">
  <ele>303.330566</ele>
  <time>2011-11-18T08:03:00Z</time>
  <speed>1.720000</speed>
</trkpt>
<trkpt lat="31.755247116" lon="35.350131989">
  <ele>303.252441</ele>
  <time>2011-11-18T08:03:02Z</time>
  <speed>1.430000</speed>
</trkpt>
<trkpt lat="31.755235672" lon="35.350166321">
  <ele>303.205566</ele>
  <time>2011-11-18T08:03:04Z</time>
  <speed>1.470000</speed>
</trkpt>
<trkpt lat="31.755237579" lon="35.350200653">
  <ele>302.939941</ele>
  <time>2011-11-18T08:03:06Z</time>
  <speed>1.800000</speed>
</trkpt>
<trkpt lat="31.755233765" lon="35.350238800">
  <ele>302.799316</ele>
  <time>2011-11-18T08:03:08Z</time>
  <speed>1.670000</speed>
</trkpt>
<trkpt lat="31.755228043" lon="35.350276947">
  <ele>302.416504</ele>
  <time>2011-11-18T08:03:10Z</time>
  <speed>1.740000</speed>
</trkpt>
<trkpt lat="31.755228043" lon="35.350311279">
  <ele>302.025879</ele>
  <time>2011-11-18T08:03:12Z</time>
  <speed>1.960000</speed>
</trkpt>
<trkpt lat="31.755218506" lon="35.350353241">
  <ele>301.682129</ele>
  <time>2011-11-18T08:03:15Z</time>
  <speed>1.630000</speed>
</trkpt>
<trkpt lat="31.755218506" lon="35.350387573">
  <ele>301.924316</ele>
  <time>2011-11-18T08:03:17Z</time>
  <speed>1.700000</speed>
</trkpt>
<trkpt lat="31.755210876" lon="35.350421906">
  <ele>302.143066</ele>
  <time>2011-11-18T08:03:19Z</time>
  <speed>1.850000</speed>
</trkpt>
<trkpt lat="31.755205154" lon="35.350460052">
  <ele>301.330566</ele>
  <time>2011-11-18T08:03:21Z</time>
  <speed>2.160000</speed>
</trkpt>
<trkpt lat="31.755208969" lon="35.350498199">
  <ele>300.963379</ele>
  <time>2011-11-18T08:03:23Z</time>
  <speed>1.960000</speed>
</trkpt>
<trkpt lat="31.755210876" lon="35.350543976">
  <ele>300.986816</ele>
  <time>2011-11-18T08:03:25Z</time>
  <speed>1.940000</speed>
</trkpt>
<trkpt lat="31.755216599" lon="35.350578308">
  <ele>301.291504</ele>
  <time>2011-11-18T08:03:27Z</time>
  <speed>1.690000</speed>
</trkpt>
<trkpt lat="31.755216599" lon="35.350620270">
  <ele>301.455566</ele>
  <time>2011-11-18T08:03:29Z</time>
  <speed>1.890000</speed>
</trkpt>
<trkpt lat="31.755210876" lon="35.350658417">
  <ele>302.174316</ele>
  <time>2011-11-18T08:03:31Z</time>
  <speed>1.720000</speed>
</trkpt>
<trkpt lat="31.755208969" lon="35.350696564">
  <ele>302.174316</ele>
  <time>2011-11-18T08:03:33Z</time>
  <speed>1.760000</speed>
</trkpt>
<trkpt lat="31.755207062" lon="35.350730896">
  <ele>302.986816</ele>
  <time>2011-11-18T08:03:35Z</time>
  <speed>1.810000</speed>
</trkpt>
<trkpt lat="31.755201340" lon="35.350776672">
  <ele>303.416504</ele>
  <time>2011-11-18T08:03:37Z</time>
  <speed>1.930000</speed>
</trkpt>
<trkpt lat="31.755189896" lon="35.350811005">
  <ele>303.096191</ele>
  <time>2011-11-18T08:03:39Z</time>
  <speed>1.850000</speed>
</trkpt>
<trkpt lat="31.755172729" lon="35.350845337">
  <ele>303.229004</ele>
  <time>2011-11-18T08:03:41Z</time>
  <speed>1.550000</speed>
</trkpt>
<trkpt lat="31.755151749" lon="35.350872040">
  <ele>303.486816</ele>
  <time>2011-11-18T08:03:43Z</time>
  <speed>1.600000</speed>
</trkpt>
<trkpt lat="31.755121231" lon="35.350879669">
  <ele>303.229004</ele>
  <time>2011-11-18T08:03:46Z</time>
  <speed>1.650000</speed>
</trkpt>
<trkpt lat="31.755088806" lon="35.350891113">
  <ele>303.635254</ele>
  <time>2011-11-18T08:03:48Z</time>
  <speed>1.890000</speed>
</trkpt>
<trkpt lat="31.755050659" lon="35.350898743">
  <ele>303.838379</ele>
  <time>2011-11-18T08:03:50Z</time>
  <speed>1.750000</speed>
</trkpt>
<trkpt lat="31.755016327" lon="35.350883484">
  <ele>304.346191</ele>
  <time>2011-11-18T08:03:52Z</time>
  <speed>1.790000</speed>
</trkpt>
<trkpt lat="31.754974365" lon="35.350872040">
  <ele>304.611816</ele>
  <time>2011-11-18T08:03:54Z</time>
  <speed>1.760000</speed>
</trkpt>
<trkpt lat="31.754943848" lon="35.350837708">
  <ele>304.361816</ele>
  <time>2011-11-18T08:03:56Z</time>
  <speed>1.790000</speed>
</trkpt>
<trkpt lat="31.754936218" lon="35.350791931">
  <ele>304.205566</ele>
  <time>2011-11-18T08:03:58Z</time>
  <speed>1.920000</speed>
</trkpt>
<trkpt lat="31.754930496" lon="35.350746155">
  <ele>303.932129</ele>
  <time>2011-11-18T08:04:00Z</time>
  <speed>1.910000</speed>
</trkpt>
<trkpt lat="31.754909515" lon="35.350715637">
  <ele>304.010254</ele>
  <time>2011-11-18T08:04:02Z</time>
  <speed>1.780000</speed>
</trkpt>
<trkpt lat="31.754894257" lon="35.350673676">
  <ele>304.635254</ele>
  <time>2011-11-18T08:04:04Z</time>
  <speed>1.890000</speed>
</trkpt>
<trkpt lat="31.754871368" lon="35.350646973">
  <ele>305.510254</ele>
  <time>2011-11-18T08:04:06Z</time>
  <speed>1.510000</speed>
</trkpt>
<trkpt lat="31.754859924" lon="35.350605011">
  <ele>307.346191</ele>
  <time>2011-11-18T08:04:09Z</time>
  <speed>1.540000</speed>
</trkpt>
<trkpt lat="31.754848480" lon="35.350566864">
  <ele>307.775879</ele>
  <time>2011-11-18T08:04:11Z</time>
  <speed>1.610000</speed>
</trkpt>
<trkpt lat="31.754838943" lon="35.350524902">
  <ele>307.533691</ele>
  <time>2011-11-18T08:04:13Z</time>
  <speed>1.750000</speed>
</trkpt>
<trkpt lat="31.754817963" lon="35.350486755">
  <ele>307.416504</ele>
  <time>2011-11-18T08:04:15Z</time>
  <speed>2.110000</speed>
</trkpt>
<trkpt lat="31.754791260" lon="35.350452423">
  <ele>307.580566</ele>
  <time>2011-11-18T08:04:17Z</time>
  <speed>2.130000</speed>
</trkpt>
<trkpt lat="31.754766464" lon="35.350425720">
  <ele>307.674316</ele>
  <time>2011-11-18T08:04:19Z</time>
  <speed>1.880000</speed>
</trkpt>
<trkpt lat="31.754743576" lon="35.350387573">
  <ele>307.682129</ele>
  <time>2011-11-18T08:04:21Z</time>
  <speed>1.670000</speed>
</trkpt>
<trkpt lat="31.754726410" lon="35.350349426">
  <ele>307.557129</ele>
  <time>2011-11-18T08:04:23Z</time>
  <speed>1.720000</speed>
</trkpt>
<trkpt lat="31.754714966" lon="35.350322723">
  <ele>309.393066</ele>
  <time>2011-11-18T08:04:26Z</time>
  <speed>1.510000</speed>
</trkpt>
<trkpt lat="31.754684448" lon="35.350311279">
  <ele>309.658691</ele>
  <time>2011-11-18T08:04:36Z</time>
  <speed>0.830000</speed>
</trkpt>
<trkpt lat="31.754655838" lon="35.350330353">
  <ele>309.424316</ele>
  <time>2011-11-18T08:04:39Z</time>
  <speed>0.910000</speed>
</trkpt>
<trkpt lat="31.754627228" lon="35.350360870">
  <ele>309.127441</ele>
  <time>2011-11-18T08:04:42Z</time>
  <speed>0.890000</speed>
</trkpt>
<trkpt lat="31.754604340" lon="35.350383759">
  <ele>309.197754</ele>
  <time>2011-11-18T08:04:45Z</time>
  <speed>0.720000</speed>
</trkpt>
<trkpt lat="31.754590988" lon="35.350418091">
  <ele>310.572754</ele>
  <time>2011-11-18T08:04:49Z</time>
  <speed>0.840000</speed>
</trkpt>
<trkpt lat="31.754564285" lon="35.350429535">
  <ele>313.057129</ele>
  <time>2011-11-18T08:04:54Z</time>
  <speed>0.460000</speed>
</trkpt>
<trkpt lat="31.754533768" lon="35.350444794">
  <ele>313.494629</ele>
  <time>2011-11-18T08:04:57Z</time>
  <speed>1.100000</speed>
</trkpt>
<trkpt lat="31.754507065" lon="35.350475311">
  <ele>313.830566</ele>
  <time>2011-11-18T08:05:00Z</time>
  <speed>0.940000</speed>
</trkpt>
<trkpt lat="31.754476547" lon="35.350490570">
  <ele>313.838379</ele>
  <time>2011-11-18T08:05:03Z</time>
  <speed>0.820000</speed>
</trkpt>
<trkpt lat="31.754447937" lon="35.350502014">
  <ele>313.557129</ele>
  <time>2011-11-18T08:05:06Z</time>
  <speed>1.210000</speed>
</trkpt>
<trkpt lat="31.754411697" lon="35.350502014">
  <ele>314.260254</ele>
  <time>2011-11-18T08:05:09Z</time>
  <speed>0.910000</speed>
</trkpt>
<trkpt lat="31.754388809" lon="35.350532532">
  <ele>314.236816</ele>
  <time>2011-11-18T08:05:12Z</time>
  <speed>1.220000</speed>
</trkpt>
<trkpt lat="31.754364014" lon="35.350559235">
  <ele>314.908691</ele>
  <time>2011-11-18T08:05:16Z</time>
  <speed>1.030000</speed>
</trkpt>
<trkpt lat="31.754335403" lon="35.350582123">
  <ele>316.229004</ele>
  <time>2011-11-18T08:05:20Z</time>
  <speed>1.240000</speed>
</trkpt>
<trkpt lat="31.754306793" lon="35.350601196">
  <ele>316.463379</ele>
  <time>2011-11-18T08:05:23Z</time>
  <speed>0.700000</speed>
</trkpt>
<trkpt lat="31.754276276" lon="35.350601196">
  <ele>316.346191</ele>
  <time>2011-11-18T08:05:25Z</time>
  <speed>1.140000</speed>
</trkpt>
<trkpt lat="31.754245758" lon="35.350608826">
  <ele>316.221191</ele>
  <time>2011-11-18T08:05:29Z</time>
  <speed>0.590000</speed>
</trkpt>
<trkpt lat="31.754224777" lon="35.350646973">
  <ele>315.869629</ele>
  <time>2011-11-18T08:05:32Z</time>
  <speed>1.100000</speed>
</trkpt>
<trkpt lat="31.754207611" lon="35.350612640">
  <ele>315.166504</ele>
  <time>2011-11-18T08:05:34Z</time>
  <speed>0.310000</speed>
</trkpt>
<trkpt lat="31.754228592" lon="35.350601196">
  <ele>317.283691</ele>
  <time>2011-11-18T08:05:37Z</time>
  <speed>0.010000</speed>
</trkpt>
<trkpt lat="31.754251480" lon="35.350582123">
  <ele>319.791504</ele>
  <time>2011-11-18T08:05:42Z</time>
  <speed>0.060000</speed>
</trkpt>
<trkpt lat="31.754215240" lon="35.350605011">
  <ele>321.057129</ele>
  <time>2011-11-18T08:05:48Z</time>
  <speed>0.970000</speed>
</trkpt>
<trkpt lat="31.754186630" lon="35.350620270">
  <ele>322.369629</ele>
  <time>2011-11-18T08:05:51Z</time>
  <speed>1.060000</speed>
</trkpt>
<trkpt lat="31.754154205" lon="35.350627899">
  <ele>322.518066</ele>
  <time>2011-11-18T08:05:54Z</time>
  <speed>1.040000</speed>
</trkpt>
<trkpt lat="31.754131317" lon="35.350646973">
  <ele>322.197754</ele>
  <time>2011-11-18T08:05:57Z</time>
  <speed>0.960000</speed>
</trkpt>
<trkpt lat="31.754102707" lon="35.350658417">
  <ele>321.314941</ele>
  <time>2011-11-18T08:06:00Z</time>
  <speed>0.580000</speed>
</trkpt>
<trkpt lat="31.754072189" lon="35.350654602">
  <ele>321.369629</ele>
  <time>2011-11-18T08:06:05Z</time>
  <speed>0.590000</speed>
</trkpt>
<trkpt lat="31.754043579" lon="35.350673676">
  <ele>321.986816</ele>
  <time>2011-11-18T08:06:09Z</time>
  <speed>0.850000</speed>
</trkpt>
<trkpt lat="31.754014969" lon="35.350669861">
  <ele>322.439941</ele>
  <time>2011-11-18T08:06:16Z</time>
  <speed>0.670000</speed>
</trkpt>
<trkpt lat="31.753982544" lon="35.350662231">
  <ele>322.744629</ele>
  <time>2011-11-18T08:06:21Z</time>
  <speed>0.570000</speed>
</trkpt>
<trkpt lat="31.753955841" lon="35.350654602">
  <ele>322.307129</ele>
  <time>2011-11-18T08:06:25Z</time>
  <speed>0.580000</speed>
</trkpt>
<trkpt lat="31.753929138" lon="35.350654602">
  <ele>323.213379</ele>
  <time>2011-11-18T08:06:30Z</time>
  <speed>0.350000</speed>
</trkpt>
<trkpt lat="31.753906250" lon="35.350666046">
  <ele>325.127441</ele>
  <time>2011-11-18T08:06:41Z</time>
  <speed>0.670000</speed>
</trkpt>
<trkpt lat="31.753889084" lon="35.350654602">
  <ele>327.213379</ele>
  <time>2011-11-18T08:06:50Z</time>
  <speed>0.390000</speed>
</trkpt>
<trkpt lat="31.753871918" lon="35.350677490">
  <ele>327.010254</ele>
  <time>2011-11-18T08:06:53Z</time>
  <speed>0.530000</speed>
</trkpt>
<trkpt lat="31.753866196" lon="35.350704193">
  <ele>328.400879</ele>
  <time>2011-11-18T08:06:56Z</time>
  <speed>0.930000</speed>
</trkpt>
<trkpt lat="31.753841400" lon="35.350727081">
  <ele>329.041504</ele>
  <time>2011-11-18T08:06:59Z</time>
  <speed>0.830000</speed>
</trkpt>
<trkpt lat="31.753814697" lon="35.350738525">
  <ele>329.549316</ele>
  <time>2011-11-18T08:07:05Z</time>
  <speed>0.390000</speed>
</trkpt>
<trkpt lat="31.753789902" lon="35.350761414">
  <ele>330.744629</ele>
  <time>2011-11-18T08:07:10Z</time>
  <speed>0.900000</speed>
</trkpt>
<trkpt lat="31.753759384" lon="35.350776672">
  <ele>331.291504</ele>
  <time>2011-11-18T08:07:13Z</time>
  <speed>0.860000</speed>
</trkpt>
<trkpt lat="31.753725052" lon="35.350784302">
  <ele>331.979004</ele>
  <time>2011-11-18T08:07:18Z</time>
  <speed>0.810000</speed>
</trkpt>
<trkpt lat="31.753700256" lon="35.350799561">
  <ele>331.721191</ele>
  <time>2011-11-18T08:07:22Z</time>
  <speed>1.090000</speed>
</trkpt>
<trkpt lat="31.753679276" lon="35.350822449">
  <ele>332.236816</ele>
  <time>2011-11-18T08:07:25Z</time>
  <speed>0.940000</speed>
</trkpt>
<trkpt lat="31.753662109" lon="35.350849152">
  <ele>333.205566</ele>
  <time>2011-11-18T08:07:28Z</time>
  <speed>0.890000</speed>
</trkpt>
<trkpt lat="31.753635406" lon="35.350856781">
  <ele>332.299316</ele>
  <time>2011-11-18T08:07:32Z</time>
  <speed>0.890000</speed>
</trkpt>
<trkpt lat="31.753599167" lon="35.350860596">
  <ele>332.252441</ele>
  <time>2011-11-18T08:07:36Z</time>
  <speed>1.000000</speed>
</trkpt>
<trkpt lat="31.753574371" lon="35.350887299">
  <ele>332.994629</ele>
  <time>2011-11-18T08:07:40Z</time>
  <speed>0.560000</speed>
</trkpt>
<trkpt lat="31.753547668" lon="35.350902557">
  <ele>333.525879</ele>
  <time>2011-11-18T08:07:44Z</time>
  <speed>0.890000</speed>
</trkpt>
<trkpt lat="31.753528595" lon="35.350929260">
  <ele>333.971191</ele>
  <time>2011-11-18T08:07:47Z</time>
  <speed>0.890000</speed>
</trkpt>
<trkpt lat="31.753499985" lon="35.350936890">
  <ele>333.775879</ele>
  <time>2011-11-18T08:07:50Z</time>
  <speed>1.130000</speed>
</trkpt>
<trkpt lat="31.753471375" lon="35.350948334">
  <ele>333.807129</ele>
  <time>2011-11-18T08:07:53Z</time>
  <speed>1.220000</speed>
</trkpt>
<trkpt lat="31.753452301" lon="35.350967407">
  <ele>334.986816</ele>
  <time>2011-11-18T08:07:56Z</time>
  <speed>1.190000</speed>
</trkpt>
<trkpt lat="31.753419876" lon="35.350975037">
  <ele>335.236816</ele>
  <time>2011-11-18T08:08:00Z</time>
  <speed>1.020000</speed>
</trkpt>
<trkpt lat="31.753393173" lon="35.350986481">
  <ele>335.627441</ele>
  <time>2011-11-18T08:08:03Z</time>
  <speed>1.070000</speed>
</trkpt>
<trkpt lat="31.753370285" lon="35.351005554">
  <ele>335.643066</ele>
  <time>2011-11-18T08:08:06Z</time>
  <speed>1.050000</speed>
</trkpt>
<trkpt lat="31.753339767" lon="35.351020813">
  <ele>334.697754</ele>
  <time>2011-11-18T08:08:09Z</time>
  <speed>1.270000</speed>
</trkpt>
<trkpt lat="31.753307343" lon="35.351028442">
  <ele>334.596191</ele>
  <time>2011-11-18T08:08:12Z</time>
  <speed>1.150000</speed>
</trkpt>
<trkpt lat="31.753288269" lon="35.351062775">
  <ele>334.322754</ele>
  <time>2011-11-18T08:08:15Z</time>
  <speed>0.890000</speed>
</trkpt>
<trkpt lat="31.753261566" lon="35.351081848">
  <ele>333.189941</ele>
  <time>2011-11-18T08:08:18Z</time>
  <speed>1.380000</speed>
</trkpt>
<trkpt lat="31.753227234" lon="35.351093292">
  <ele>333.604004</ele>
  <time>2011-11-18T08:08:21Z</time>
  <speed>1.080000</speed>
</trkpt>
<trkpt lat="31.753198624" lon="35.351100922">
  <ele>332.572754</ele>
  <time>2011-11-18T08:08:24Z</time>
  <speed>0.970000</speed>
</trkpt>
<trkpt lat="31.753177643" lon="35.351123810">
  <ele>331.650879</ele>
  <time>2011-11-18T08:08:28Z</time>
  <speed>1.190000</speed>
</trkpt>
<trkpt lat="31.753149033" lon="35.351142883">
  <ele>330.775879</ele>
  <time>2011-11-18T08:08:31Z</time>
  <speed>1.170000</speed>
</trkpt>
<trkpt lat="31.753122330" lon="35.351158142">
  <ele>332.268066</ele>
  <time>2011-11-18T08:08:35Z</time>
  <speed>1.040000</speed>
</trkpt>
<trkpt lat="31.753103256" lon="35.351154327">
  <ele>334.525879</ele>
  <time>2011-11-18T08:08:39Z</time>
  <speed>1.010000</speed>
</trkpt>
<trkpt lat="31.753084183" lon="35.351169586">
  <ele>336.893066</ele>
  <time>2011-11-18T08:08:42Z</time>
  <speed>0.490000</speed>
</trkpt>
<trkpt lat="31.753061295" lon="35.351177216">
  <ele>339.174316</ele>
  <time>2011-11-18T08:08:46Z</time>
  <speed>0.800000</speed>
</trkpt>
<trkpt lat="31.753036499" lon="35.351192474">
  <ele>341.041504</ele>
  <time>2011-11-18T08:08:49Z</time>
  <speed>0.970000</speed>
</trkpt>
<trkpt lat="31.753015518" lon="35.351207733">
  <ele>342.346191</ele>
  <time>2011-11-18T08:08:52Z</time>
  <speed>1.510000</speed>
</trkpt>
<trkpt lat="31.752986908" lon="35.351230621">
  <ele>343.314941</ele>
  <time>2011-11-18T08:08:55Z</time>
  <speed>0.970000</speed>
</trkpt>
<trkpt lat="31.752954483" lon="35.351245880">
  <ele>343.939941</ele>
  <time>2011-11-18T08:08:58Z</time>
  <speed>1.510000</speed>
</trkpt>
<trkpt lat="31.752931595" lon="35.351257324">
  <ele>344.658691</ele>
  <time>2011-11-18T08:09:01Z</time>
  <speed>1.490000</speed>
</trkpt>
<trkpt lat="31.752899170" lon="35.351264954">
  <ele>344.666504</ele>
  <time>2011-11-18T08:09:05Z</time>
  <speed>0.880000</speed>
</trkpt>
<trkpt lat="31.752862930" lon="35.351264954">
  <ele>345.088379</ele>
  <time>2011-11-18T08:09:08Z</time>
  <speed>1.250000</speed>
</trkpt>
<trkpt lat="31.752832413" lon="35.351264954">
  <ele>345.564941</ele>
  <time>2011-11-18T08:09:11Z</time>
  <speed>1.160000</speed>
</trkpt>
<trkpt lat="31.752801895" lon="35.351257324">
  <ele>345.838379</ele>
  <time>2011-11-18T08:09:14Z</time>
  <speed>1.080000</speed>
</trkpt>
<trkpt lat="31.752771378" lon="35.351242065">
  <ele>345.869629</ele>
  <time>2011-11-18T08:09:17Z</time>
  <speed>1.030000</speed>
</trkpt>
<trkpt lat="31.752744675" lon="35.351230621">
  <ele>345.502441</ele>
  <time>2011-11-18T08:09:20Z</time>
  <speed>0.990000</speed>
</trkpt>
<trkpt lat="31.752712250" lon="35.351245880">
  <ele>345.236816</ele>
  <time>2011-11-18T08:09:23Z</time>
  <speed>1.000000</speed>
</trkpt>
<trkpt lat="31.752676010" lon="35.351242065">
  <ele>344.807129</ele>
  <time>2011-11-18T08:09:26Z</time>
  <speed>1.310000</speed>
</trkpt>
<trkpt lat="31.752647400" lon="35.351238251">
  <ele>344.916504</ele>
  <time>2011-11-18T08:09:28Z</time>
  <speed>1.160000</speed>
</trkpt>
<trkpt lat="31.752616882" lon="35.351249695">
  <ele>344.838379</ele>
  <time>2011-11-18T08:09:31Z</time>
  <speed>1.030000</speed>
</trkpt>
<trkpt lat="31.752597809" lon="35.351280212">
  <ele>343.736816</ele>
  <time>2011-11-18T08:09:35Z</time>
  <speed>0.960000</speed>
</trkpt>
<trkpt lat="31.752582550" lon="35.351314545">
  <ele>342.674316</ele>
  <time>2011-11-18T08:09:38Z</time>
  <speed>1.030000</speed>
</trkpt>
<trkpt lat="31.752561569" lon="35.351337433">
  <ele>342.260254</ele>
  <time>2011-11-18T08:09:41Z</time>
  <speed>1.150000</speed>
</trkpt>
<trkpt lat="31.752536774" lon="35.351360321">
  <ele>341.846191</ele>
  <time>2011-11-18T08:09:44Z</time>
  <speed>1.230000</speed>
</trkpt>
<trkpt lat="31.752517700" lon="35.351383209">
  <ele>341.916504</ele>
  <time>2011-11-18T08:09:47Z</time>
  <speed>1.420000</speed>
</trkpt>
<trkpt lat="31.752494812" lon="35.351409912">
  <ele>342.252441</ele>
  <time>2011-11-18T08:09:50Z</time>
  <speed>1.160000</speed>
</trkpt>
<trkpt lat="31.752473831" lon="35.351428986">
  <ele>342.932129</ele>
  <time>2011-11-18T08:09:53Z</time>
  <speed>0.910000</speed>
</trkpt>
<trkpt lat="31.752441406" lon="35.351425171">
  <ele>344.041504</ele>
  <time>2011-11-18T08:09:56Z</time>
  <speed>0.840000</speed>
</trkpt>
<trkpt lat="31.752416611" lon="35.351440430">
  <ele>344.377441</ele>
  <time>2011-11-18T08:09:59Z</time>
  <speed>0.880000</speed>
</trkpt>
<trkpt lat="31.752378464" lon="35.351444244">
  <ele>344.971191</ele>
  <time>2011-11-18T08:10:03Z</time>
  <speed>0.960000</speed>
</trkpt>
<trkpt lat="31.752342224" lon="35.351440430">
  <ele>345.025879</ele>
  <time>2011-11-18T08:10:07Z</time>
  <speed>0.950000</speed>
</trkpt>
<trkpt lat="31.752317429" lon="35.351432800">
  <ele>345.885254</ele>
  <time>2011-11-18T08:10:09Z</time>
  <speed>1.040000</speed>
</trkpt>
<trkpt lat="31.752315521" lon="35.351463318">
  <ele>347.111816</ele>
  <time>2011-11-18T08:10:19Z</time>
</trkpt>
<trkpt lat="31.752315521" lon="35.351444244">
  <ele>349.518066</ele>
  <time>2011-11-18T08:10:44Z</time>
</trkpt>
<trkpt lat="31.752296448" lon="35.351470947">
  <ele>348.799316</ele>
  <time>2011-11-18T08:13:15Z</time>
  <speed>0.330000</speed>
</trkpt>
<trkpt lat="31.752290726" lon="35.351493835">
  <ele>346.643066</ele>
  <time>2011-11-18T08:13:22Z</time>
  <speed>1.310000</speed>
</trkpt>
<trkpt lat="31.752265930" lon="35.351512909">
  <ele>346.541504</ele>
  <time>2011-11-18T08:13:24Z</time>
  <speed>1.340000</speed>
</trkpt>
<trkpt lat="31.752244949" lon="35.351535797">
  <ele>346.221191</ele>
  <time>2011-11-18T08:13:26Z</time>
  <speed>1.330000</speed>
</trkpt>
<trkpt lat="31.752220154" lon="35.351547241">
  <ele>347.057129</ele>
  <time>2011-11-18T08:13:28Z</time>
  <speed>1.370000</speed>
</trkpt>
<trkpt lat="31.752202988" lon="35.351577759">
  <ele>346.900879</ele>
  <time>2011-11-18T08:13:30Z</time>
  <speed>1.430000</speed>
</trkpt>
<trkpt lat="31.752180099" lon="35.351593018">
  <ele>346.830566</ele>
  <time>2011-11-18T08:13:32Z</time>
  <speed>1.100000</speed>
</trkpt>
<trkpt lat="31.752151489" lon="35.351612091">
  <ele>346.971191</ele>
  <time>2011-11-18T08:13:35Z</time>
  <speed>1.240000</speed>
</trkpt>
<trkpt lat="31.752119064" lon="35.351627350">
  <ele>347.760254</ele>
  <time>2011-11-18T08:13:38Z</time>
  <speed>1.270000</speed>
</trkpt>
<trkpt lat="31.752092361" lon="35.351650238">
  <ele>347.986816</ele>
  <time>2011-11-18T08:13:42Z</time>
  <speed>0.820000</speed>
</trkpt>
<trkpt lat="31.752069473" lon="35.351680756">
  <ele>348.010254</ele>
  <time>2011-11-18T08:13:45Z</time>
  <speed>1.390000</speed>
</trkpt>
<trkpt lat="31.752044678" lon="35.351703644">
  <ele>347.947754</ele>
  <time>2011-11-18T08:13:48Z</time>
  <speed>1.300000</speed>
</trkpt>
<trkpt lat="31.752025604" lon="35.351737976">
  <ele>347.971191</ele>
  <time>2011-11-18T08:13:53Z</time>
  <speed>1.040000</speed>
</trkpt>
<trkpt lat="31.752006531" lon="35.351772308">
  <ele>348.096191</ele>
  <time>2011-11-18T08:13:56Z</time>
  <speed>1.610000</speed>
</trkpt>
<trkpt lat="31.751987457" lon="35.351806641">
  <ele>348.268066</ele>
  <time>2011-11-18T08:13:59Z</time>
  <speed>1.150000</speed>
</trkpt>
<trkpt lat="31.751974106" lon="35.351840973">
  <ele>348.174316</ele>
  <time>2011-11-18T08:14:02Z</time>
  <speed>1.400000</speed>
</trkpt>
<trkpt lat="31.751976013" lon="35.351886749">
  <ele>347.775879</ele>
  <time>2011-11-18T08:14:05Z</time>
  <speed>1.560000</speed>
</trkpt>
<trkpt lat="31.751987457" lon="35.351917267">
  <ele>347.424316</ele>
  <time>2011-11-18T08:14:07Z</time>
  <speed>1.610000</speed>
</trkpt>
<trkpt lat="31.752004623" lon="35.351951599">
  <ele>346.447754</ele>
  <time>2011-11-18T08:14:10Z</time>
  <speed>1.180000</speed>
</trkpt>
<trkpt lat="31.752021790" lon="35.351985931">
  <ele>346.119629</ele>
  <time>2011-11-18T08:14:13Z</time>
  <speed>0.740000</speed>
</trkpt>
<trkpt lat="31.752017975" lon="35.352020264">
  <ele>346.205566</ele>
  <time>2011-11-18T08:14:22Z</time>
  <speed>0.620000</speed>
</trkpt>
<trkpt lat="31.752017975" lon="35.352054596">
  <ele>345.619629</ele>
  <time>2011-11-18T08:14:26Z</time>
  <speed>0.630000</speed>
</trkpt>
<trkpt lat="31.752031326" lon="35.352092743">
  <ele>346.010254</ele>
  <time>2011-11-18T08:14:30Z</time>
  <speed>0.920000</speed>
</trkpt>
<trkpt lat="31.752040863" lon="35.352123260">
  <ele>345.291504</ele>
  <time>2011-11-18T08:14:33Z</time>
  <speed>1.020000</speed>
</trkpt>
<trkpt lat="31.752037048" lon="35.352157593">
  <ele>344.822754</ele>
  <time>2011-11-18T08:14:36Z</time>
  <speed>1.300000</speed>
</trkpt>
<trkpt lat="31.752016068" lon="35.352180481">
  <ele>344.650879</ele>
  <time>2011-11-18T08:14:39Z</time>
  <speed>0.180000</speed>
</trkpt>
<trkpt lat="31.752002716" lon="35.352210999">
  <ele>343.650879</ele>
  <time>2011-11-18T08:14:45Z</time>
  <speed>0.650000</speed>
</trkpt>
<trkpt lat="31.751993179" lon="35.352260590">
  <ele>343.393066</ele>
  <time>2011-11-18T08:14:52Z</time>
  <speed>1.320000</speed>
</trkpt>
<trkpt lat="31.751977921" lon="35.352291107">
  <ele>342.611816</ele>
  <time>2011-11-18T08:14:54Z</time>
  <speed>1.700000</speed>
</trkpt>
<trkpt lat="31.751970291" lon="35.352348328">
  <ele>342.799316</ele>
  <time>2011-11-18T08:14:57Z</time>
  <speed>2.290000</speed>
</trkpt>
<trkpt lat="31.751964569" lon="35.352394104">
  <ele>343.064941</ele>
  <time>2011-11-18T08:14:59Z</time>
  <speed>2.080000</speed>
</trkpt>
<trkpt lat="31.751947403" lon="35.352436066">
  <ele>342.385254</ele>
  <time>2011-11-18T08:15:01Z</time>
  <speed>2.700000</speed>
</trkpt>
<trkpt lat="31.751922607" lon="35.352481842">
  <ele>341.861816</ele>
  <time>2011-11-18T08:15:03Z</time>
  <speed>2.710000</speed>
</trkpt>
<trkpt lat="31.751907349" lon="35.352512360">
  <ele>342.096191</ele>
  <time>2011-11-18T08:15:04Z</time>
  <speed>3.190000</speed>
</trkpt>
<trkpt lat="31.751874924" lon="35.352565765">
  <ele>341.432129</ele>
  <time>2011-11-18T08:15:06Z</time>
  <speed>2.930000</speed>
</trkpt>
<trkpt lat="31.751865387" lon="35.352607727">
  <ele>341.447754</ele>
  <time>2011-11-18T08:15:08Z</time>
  <speed>2.230000</speed>
</trkpt>
<trkpt lat="31.751848221" lon="35.352653503">
  <ele>341.729004</ele>
  <time>2011-11-18T08:15:10Z</time>
  <speed>2.290000</speed>
</trkpt>
<trkpt lat="31.751815796" lon="35.352676392">
  <ele>340.760254</ele>
  <time>2011-11-18T08:15:12Z</time>
  <speed>2.510000</speed>
</trkpt>
<trkpt lat="31.751791000" lon="35.352718353">
  <ele>340.471191</ele>
  <time>2011-11-18T08:15:14Z</time>
  <speed>2.680000</speed>
</trkpt>
<trkpt lat="31.751754761" lon="35.352745056">
  <ele>340.096191</ele>
  <time>2011-11-18T08:15:16Z</time>
  <speed>2.170000</speed>
</trkpt>
<trkpt lat="31.751718521" lon="35.352775574">
  <ele>339.572754</ele>
  <time>2011-11-18T08:15:18Z</time>
  <speed>2.370000</speed>
</trkpt>
<trkpt lat="31.751670837" lon="35.352809906">
  <ele>339.330566</ele>
  <time>2011-11-18T08:15:20Z</time>
  <speed>3.200000</speed>
</trkpt>
<trkpt lat="31.751642227" lon="35.352825165">
  <ele>339.119629</ele>
  <time>2011-11-18T08:15:21Z</time>
  <speed>3.120000</speed>
</trkpt>
<trkpt lat="31.751619339" lon="35.352844238">
  <ele>338.658691</ele>
  <time>2011-11-18T08:15:22Z</time>
  <speed>3.130000</speed>
</trkpt>
<trkpt lat="31.751583099" lon="35.352878571">
  <ele>338.158691</ele>
  <time>2011-11-18T08:15:24Z</time>
  <speed>2.860000</speed>
</trkpt>
<trkpt lat="31.751544952" lon="35.352912903">
  <ele>338.213379</ele>
  <time>2011-11-18T08:15:26Z</time>
  <speed>2.430000</speed>
</trkpt>
<trkpt lat="31.751504898" lon="35.352951050">
  <ele>338.307129</ele>
  <time>2011-11-18T08:15:28Z</time>
  <speed>2.920000</speed>
</trkpt>
<trkpt lat="31.751468658" lon="35.352973938">
  <ele>336.721191</ele>
  <time>2011-11-18T08:15:30Z</time>
  <speed>2.370000</speed>
</trkpt>
<trkpt lat="31.751440048" lon="35.352996826">
  <ele>336.229004</ele>
  <time>2011-11-18T08:15:32Z</time>
  <speed>1.550000</speed>
</trkpt>
<trkpt lat="31.751411438" lon="35.353012085">
  <ele>335.939941</ele>
  <time>2011-11-18T08:15:35Z</time>
  <speed>1.010000</speed>
</trkpt>
<trkpt lat="31.751379013" lon="35.353019714">
  <ele>335.197754</ele>
  <time>2011-11-18T08:15:40Z</time>
  <speed>0.380000</speed>
</trkpt>
<trkpt lat="31.751358032" lon="35.353034973">
  <ele>334.104004</ele>
  <time>2011-11-18T08:15:45Z</time>
  <speed>0.780000</speed>
</trkpt>
<trkpt lat="31.751352310" lon="35.353076935">
  <ele>333.924316</ele>
  <time>2011-11-18T08:15:50Z</time>
  <speed>0.990000</speed>
</trkpt>
<trkpt lat="31.751329422" lon="35.353096008">
  <ele>333.557129</ele>
  <time>2011-11-18T08:15:52Z</time>
  <speed>1.660000</speed>
</trkpt>
<trkpt lat="31.751306534" lon="35.353134155">
  <ele>332.830566</ele>
  <time>2011-11-18T08:15:54Z</time>
  <speed>2.230000</speed>
</trkpt>
<trkpt lat="31.751276016" lon="35.353168488">
  <ele>333.502441</ele>
  <time>2011-11-18T08:15:56Z</time>
  <speed>2.190000</speed>
</trkpt>
<trkpt lat="31.751258850" lon="35.353195190">
  <ele>334.643066</ele>
  <time>2011-11-18T08:15:57Z</time>
  <speed>2.190000</speed>
</trkpt>
<trkpt lat="31.751220703" lon="35.353221893">
  <ele>335.322754</ele>
  <time>2011-11-18T08:15:59Z</time>
  <speed>2.190000</speed>
</trkpt>
<trkpt lat="31.751197815" lon="35.353252411">
  <ele>336.447754</ele>
  <time>2011-11-18T08:16:01Z</time>
  <speed>2.160000</speed>
</trkpt>
<trkpt lat="31.751190186" lon="35.353302002">
  <ele>337.127441</ele>
  <time>2011-11-18T08:16:03Z</time>
  <speed>1.990000</speed>
</trkpt>
<trkpt lat="31.751184464" lon="35.353332520">
  <ele>338.205566</ele>
  <time>2011-11-18T08:16:04Z</time>
  <speed>1.960000</speed>
</trkpt>
<trkpt lat="31.751167297" lon="35.353366852">
  <ele>338.994629</ele>
  <time>2011-11-18T08:16:06Z</time>
  <speed>2.140000</speed>
</trkpt>
<trkpt lat="31.751155853" lon="35.353412628">
  <ele>340.338379</ele>
  <time>2011-11-18T08:16:08Z</time>
  <speed>2.510000</speed>
</trkpt>
<trkpt lat="31.751165390" lon="35.353462219">
  <ele>341.463379</ele>
  <time>2011-11-18T08:16:10Z</time>
  <speed>2.460000</speed>
</trkpt>
<trkpt lat="31.751165390" lon="35.353519440">
  <ele>341.502441</ele>
  <time>2011-11-18T08:16:12Z</time>
  <speed>2.580000</speed>
</trkpt>
<trkpt lat="31.751152039" lon="35.353580475">
  <ele>341.799316</ele>
  <time>2011-11-18T08:16:14Z</time>
  <speed>2.880000</speed>
</trkpt>
<trkpt lat="31.751148224" lon="35.353610992">
  <ele>342.354004</ele>
  <time>2011-11-18T08:16:15Z</time>
  <speed>2.930000</speed>
</trkpt>
<trkpt lat="31.751129150" lon="35.353664398">
  <ele>342.127441</ele>
  <time>2011-11-18T08:16:17Z</time>
  <speed>2.680000</speed>
</trkpt>
<trkpt lat="31.751119614" lon="35.353721619">
  <ele>342.479004</ele>
  <time>2011-11-18T08:16:19Z</time>
  <speed>2.720000</speed>
</trkpt>
<trkpt lat="31.751106262" lon="35.353782654">
  <ele>343.096191</ele>
  <time>2011-11-18T08:16:21Z</time>
  <speed>2.770000</speed>
</trkpt>
<trkpt lat="31.751091003" lon="35.353839874">
  <ele>343.807129</ele>
  <time>2011-11-18T08:16:23Z</time>
  <speed>2.980000</speed>
</trkpt>
<trkpt lat="31.751075745" lon="35.353897095">
  <ele>345.049316</ele>
  <time>2011-11-18T08:16:25Z</time>
  <speed>2.480000</speed>
</trkpt>
<trkpt lat="31.751060486" lon="35.353939056">
  <ele>345.900879</ele>
  <time>2011-11-18T08:16:27Z</time>
  <speed>2.680000</speed>
</trkpt>
<trkpt lat="31.751045227" lon="35.353992462">
  <ele>346.705566</ele>
  <time>2011-11-18T08:16:29Z</time>
  <speed>2.920000</speed>
</trkpt>
<trkpt lat="31.751022339" lon="35.354042053">
  <ele>346.533691</ele>
  <time>2011-11-18T08:16:31Z</time>
  <speed>2.810000</speed>
</trkpt>
<trkpt lat="31.751001358" lon="35.354087830">
  <ele>346.854004</ele>
  <time>2011-11-18T08:16:33Z</time>
  <speed>2.890000</speed>
</trkpt>
<trkpt lat="31.750976563" lon="35.354137421">
  <ele>346.650879</ele>
  <time>2011-11-18T08:16:35Z</time>
  <speed>2.660000</speed>
</trkpt>
<trkpt lat="31.750940323" lon="35.354171753">
  <ele>345.354004</ele>
  <time>2011-11-18T08:16:37Z</time>
  <speed>2.870000</speed>
</trkpt>
<trkpt lat="31.750917435" lon="35.354194641">
  <ele>345.080566</ele>
  <time>2011-11-18T08:16:38Z</time>
  <speed>3.090000</speed>
</trkpt>
<trkpt lat="31.750894547" lon="35.354209900">
  <ele>345.283691</ele>
  <time>2011-11-18T08:16:39Z</time>
  <speed>3.090000</speed>
</trkpt>
<trkpt lat="31.750869751" lon="35.354221344">
  <ele>344.783691</ele>
  <time>2011-11-18T08:16:40Z</time>
  <speed>2.960000</speed>
</trkpt>
<trkpt lat="31.750820160" lon="35.354251862">
  <ele>344.205566</ele>
  <time>2011-11-18T08:16:42Z</time>
  <speed>3.120000</speed>
</trkpt>
<trkpt lat="31.750774384" lon="35.354282379">
  <ele>343.799316</ele>
  <time>2011-11-18T08:16:44Z</time>
  <speed>2.900000</speed>
</trkpt>
<trkpt lat="31.750736237" lon="35.354328156">
  <ele>343.291504</ele>
  <time>2011-11-18T08:16:46Z</time>
  <speed>3.450000</speed>
</trkpt>
<trkpt lat="31.750686646" lon="35.354358673">
  <ele>341.830566</ele>
  <time>2011-11-18T08:16:48Z</time>
  <speed>3.000000</speed>
</trkpt>
<trkpt lat="31.750644684" lon="35.354385376">
  <ele>341.697754</ele>
  <time>2011-11-18T08:16:50Z</time>
  <speed>2.540000</speed>
</trkpt>
<trkpt lat="31.750606537" lon="35.354404449">
  <ele>342.002441</ele>
  <time>2011-11-18T08:16:52Z</time>
  <speed>1.630000</speed>
</trkpt>
<trkpt lat="31.750576019" lon="35.354408264">
  <ele>342.510254</ele>
  <time>2011-11-18T08:16:54Z</time>
  <speed>2.280000</speed>
</trkpt>
<trkpt lat="31.750530243" lon="35.354412079">
  <ele>341.775879</ele>
  <time>2011-11-18T08:16:56Z</time>
  <speed>2.310000</speed>
</trkpt>
<trkpt lat="31.750501633" lon="35.354415894">
  <ele>342.346191</ele>
  <time>2011-11-18T08:16:58Z</time>
  <speed>1.560000</speed>
</trkpt>
<trkpt lat="31.750459671" lon="35.354415894">
  <ele>341.650879</ele>
  <time>2011-11-18T08:17:01Z</time>
  <speed>2.100000</speed>
</trkpt>
<trkpt lat="31.750425339" lon="35.354438782">
  <ele>341.268066</ele>
  <time>2011-11-18T08:17:03Z</time>
  <speed>2.370000</speed>
</trkpt>
<trkpt lat="31.750404358" lon="35.354480743">
  <ele>341.369629</ele>
  <time>2011-11-18T08:17:05Z</time>
  <speed>2.530000</speed>
</trkpt>
<trkpt lat="31.750398636" lon="35.354511261">
  <ele>342.314941</ele>
  <time>2011-11-18T08:17:06Z</time>
  <speed>2.520000</speed>
</trkpt>
<trkpt lat="31.750398636" lon="35.354560852">
  <ele>343.705566</ele>
  <time>2011-11-18T08:17:08Z</time>
  <speed>2.300000</speed>
</trkpt>
<trkpt lat="31.750394821" lon="35.354614258">
  <ele>344.463379</ele>
  <time>2011-11-18T08:17:10Z</time>
  <speed>2.210000</speed>
</trkpt>
<trkpt lat="31.750387192" lon="35.354667664">
  <ele>344.541504</ele>
  <time>2011-11-18T08:17:12Z</time>
  <speed>2.000000</speed>
</trkpt>
<trkpt lat="31.750371933" lon="35.354705811">
  <ele>344.393066</ele>
  <time>2011-11-18T08:17:14Z</time>
  <speed>1.780000</speed>
</trkpt>
<trkpt lat="31.750356674" lon="35.354736328">
  <ele>344.518066</ele>
  <time>2011-11-18T08:17:16Z</time>
  <speed>1.630000</speed>
</trkpt>
<trkpt lat="31.750335693" lon="35.354755402">
  <ele>343.760254</ele>
  <time>2011-11-18T08:17:18Z</time>
  <speed>2.060000</speed>
</trkpt>
<trkpt lat="31.750297546" lon="35.354774475">
  <ele>342.150879</ele>
  <time>2011-11-18T08:17:20Z</time>
  <speed>2.440000</speed>
</trkpt>
<trkpt lat="31.750280380" lon="35.354804993">
  <ele>342.666504</ele>
  <time>2011-11-18T08:17:21Z</time>
  <speed>2.300000</speed>
</trkpt>
<trkpt lat="31.750246048" lon="35.354843140">
  <ele>342.377441</ele>
  <time>2011-11-18T08:17:23Z</time>
  <speed>2.600000</speed>
</trkpt>
<trkpt lat="31.750226974" lon="35.354904175">
  <ele>343.135254</ele>
  <time>2011-11-18T08:17:25Z</time>
  <speed>2.580000</speed>
</trkpt>
<trkpt lat="31.750213623" lon="35.354949951">
  <ele>343.041504</ele>
  <time>2011-11-18T08:17:27Z</time>
  <speed>2.130000</speed>
</trkpt>
<trkpt lat="31.750196457" lon="35.354980469">
  <ele>343.197754</ele>
  <time>2011-11-18T08:17:29Z</time>
  <speed>1.960000</speed>
</trkpt>
<trkpt lat="31.750171661" lon="35.355003357">
  <ele>343.666504</ele>
  <time>2011-11-18T08:17:31Z</time>
  <speed>2.150000</speed>
</trkpt>
<trkpt lat="31.750144958" lon="35.355026245">
  <ele>343.604004</ele>
  <time>2011-11-18T08:17:33Z</time>
  <speed>1.790000</speed>
</trkpt>
<trkpt lat="31.750106812" lon="35.355037689">
  <ele>343.447754</ele>
  <time>2011-11-18T08:17:35Z</time>
  <speed>1.580000</speed>
</trkpt>
<trkpt lat="31.750091553" lon="35.355045319">
  <ele>341.049316</ele>
  <time>2011-11-18T08:17:44Z</time>
  <speed>0.020000</speed>
</trkpt>
<trkpt lat="31.750064850" lon="35.355041504">
  <ele>340.893066</ele>
  <time>2011-11-18T08:17:50Z</time>
  <speed>1.200000</speed>
</trkpt>
<trkpt lat="31.750053406" lon="35.355072021">
  <ele>343.002441</ele>
  <time>2011-11-18T08:17:55Z</time>
  <speed>1.700000</speed>
</trkpt>
<trkpt lat="31.750076294" lon="35.355113983">
  <ele>344.166504</ele>
  <time>2011-11-18T08:17:57Z</time>
  <speed>1.630000</speed>
</trkpt>
<trkpt lat="31.750093460" lon="35.355155945">
  <ele>345.463379</ele>
  <time>2011-11-18T08:17:59Z</time>
  <speed>2.170000</speed>
</trkpt>
<trkpt lat="31.750123978" lon="35.355201721">
  <ele>346.158691</ele>
  <time>2011-11-18T08:18:01Z</time>
  <speed>2.640000</speed>
</trkpt>
<trkpt lat="31.750141144" lon="35.355247498">
  <ele>346.908691</ele>
  <time>2011-11-18T08:18:03Z</time>
  <speed>2.000000</speed>
</trkpt>
<trkpt lat="31.750141144" lon="35.355285645">
  <ele>346.541504</ele>
  <time>2011-11-18T08:18:05Z</time>
  <speed>1.620000</speed>
</trkpt>
<trkpt lat="31.750122070" lon="35.355312347">
  <ele>346.580566</ele>
  <time>2011-11-18T08:18:08Z</time>
  <speed>1.090000</speed>
</trkpt>
<trkpt lat="31.750091553" lon="35.355327606">
  <ele>347.924316</ele>
  <time>2011-11-18T08:18:11Z</time>
  <speed>1.280000</speed>
</trkpt>
<trkpt lat="31.750053406" lon="35.355342865">
  <ele>347.205566</ele>
  <time>2011-11-18T08:18:14Z</time>
  <speed>1.330000</speed>
</trkpt>
<trkpt lat="31.750015259" lon="35.355358124">
  <ele>346.689941</ele>
  <time>2011-11-18T08:18:17Z</time>
  <speed>1.370000</speed>
</trkpt>
<trkpt lat="31.749988556" lon="35.355396271">
  <ele>346.088379</ele>
  <time>2011-11-18T08:18:20Z</time>
  <speed>2.340000</speed>
</trkpt>
<trkpt lat="31.749967575" lon="35.355438232">
  <ele>343.338379</ele>
  <time>2011-11-18T08:18:22Z</time>
  <speed>3.510000</speed>
</trkpt>
<trkpt lat="31.749963760" lon="35.355472565">
  <ele>343.791504</ele>
  <time>2011-11-18T08:18:23Z</time>
  <speed>2.330000</speed>
</trkpt>
<trkpt lat="31.749975204" lon="35.355499268">
  <ele>344.979004</ele>
  <time>2011-11-18T08:18:24Z</time>
  <speed>2.490000</speed>
</trkpt>
<trkpt lat="31.749988556" lon="35.355529785">
  <ele>346.041504</ele>
  <time>2011-11-18T08:18:25Z</time>
  <speed>2.310000</speed>
</trkpt>
<trkpt lat="31.750019073" lon="35.355567932">
  <ele>347.877441</ele>
  <time>2011-11-18T08:18:27Z</time>
  <speed>1.840000</speed>
</trkpt>
<trkpt lat="31.750051498" lon="35.355606079">
  <ele>349.885254</ele>
  <time>2011-11-18T08:18:29Z</time>
  <speed>2.090000</speed>
</trkpt>
<trkpt lat="31.750076294" lon="35.355640411">
  <ele>350.752441</ele>
  <time>2011-11-18T08:18:31Z</time>
  <speed>2.200000</speed>
</trkpt>
<trkpt lat="31.750099182" lon="35.355686188">
  <ele>351.197754</ele>
  <time>2011-11-18T08:18:33Z</time>
  <speed>2.390000</speed>
</trkpt>
<trkpt lat="31.750112534" lon="35.355739594">
  <ele>351.260254</ele>
  <time>2011-11-18T08:18:35Z</time>
  <speed>2.680000</speed>
</trkpt>
<trkpt lat="31.750108719" lon="35.355792999">
  <ele>351.182129</ele>
  <time>2011-11-18T08:18:37Z</time>
  <speed>2.560000</speed>
</trkpt>
<trkpt lat="31.750106812" lon="35.355846405">
  <ele>351.643066</ele>
  <time>2011-11-18T08:18:39Z</time>
  <speed>2.740000</speed>
</trkpt>
<trkpt lat="31.750102997" lon="35.355899811">
  <ele>352.369629</ele>
  <time>2011-11-18T08:18:41Z</time>
  <speed>2.590000</speed>
</trkpt>
<trkpt lat="31.750101089" lon="35.355964661">
  <ele>353.713379</ele>
  <time>2011-11-18T08:18:43Z</time>
  <speed>2.540000</speed>
</trkpt>
<trkpt lat="31.750091553" lon="35.356014252">
  <ele>354.682129</ele>
  <time>2011-11-18T08:18:45Z</time>
  <speed>2.440000</speed>
</trkpt>
<trkpt lat="31.750087738" lon="35.356067657">
  <ele>355.549316</ele>
  <time>2011-11-18T08:18:47Z</time>
  <speed>2.650000</speed>
</trkpt>
<trkpt lat="31.750091553" lon="35.356121063">
  <ele>356.369629</ele>
  <time>2011-11-18T08:18:49Z</time>
  <speed>2.650000</speed>
</trkpt>
<trkpt lat="31.750101089" lon="35.356170654">
  <ele>356.557129</ele>
  <time>2011-11-18T08:18:51Z</time>
  <speed>2.200000</speed>
</trkpt>
<trkpt lat="31.750116348" lon="35.356208801">
  <ele>355.900879</ele>
  <time>2011-11-18T08:18:53Z</time>
  <speed>2.550000</speed>
</trkpt>
<trkpt lat="31.750116348" lon="35.356254578">
  <ele>355.432129</ele>
  <time>2011-11-18T08:18:55Z</time>
  <speed>1.860000</speed>
</trkpt>
<trkpt lat="31.750114441" lon="35.356296539">
  <ele>355.479004</ele>
  <time>2011-11-18T08:18:57Z</time>
  <speed>1.570000</speed>
</trkpt>
<trkpt lat="31.750120163" lon="35.356330872">
  <ele>355.322754</ele>
  <time>2011-11-18T08:18:59Z</time>
  <speed>1.340000</speed>
</trkpt>
<trkpt lat="31.750116348" lon="35.356376648">
  <ele>355.455566</ele>
  <time>2011-11-18T08:19:02Z</time>
  <speed>1.110000</speed>
</trkpt>
<trkpt lat="31.750108719" lon="35.356403351">
  <ele>356.947754</ele>
  <time>2011-11-18T08:19:08Z</time>
  <speed>0.070000</speed>
</trkpt>
<trkpt lat="31.750110626" lon="35.356437683">
  <ele>357.197754</ele>
  <time>2011-11-18T08:19:51Z</time>
  <speed>1.110000</speed>
</trkpt>
<trkpt lat="31.750120163" lon="35.356472015">
  <ele>357.377441</ele>
  <time>2011-11-18T08:19:53Z</time>
  <speed>1.310000</speed>
</trkpt>
<trkpt lat="31.750120163" lon="35.356517792">
  <ele>357.963379</ele>
  <time>2011-11-18T08:19:56Z</time>
  <speed>1.650000</speed>
</trkpt>
<trkpt lat="31.750122070" lon="35.356552124">
  <ele>357.822754</ele>
  <time>2011-11-18T08:19:58Z</time>
  <speed>1.860000</speed>
</trkpt>
<trkpt lat="31.750112534" lon="35.356586456">
  <ele>357.502441</ele>
  <time>2011-11-18T08:20:00Z</time>
  <speed>1.760000</speed>
</trkpt>
<trkpt lat="31.750114441" lon="35.356624603">
  <ele>357.713379</ele>
  <time>2011-11-18T08:20:02Z</time>
  <speed>1.420000</speed>
</trkpt>
<trkpt lat="31.750122070" lon="35.356674194">
  <ele>357.994629</ele>
  <time>2011-11-18T08:20:05Z</time>
  <speed>1.320000</speed>
</trkpt>
<trkpt lat="31.750133514" lon="35.356712341">
  <ele>358.854004</ele>
  <time>2011-11-18T08:20:08Z</time>
  <speed>0.390000</speed>
</trkpt>
<trkpt lat="31.750116348" lon="35.356689453">
  <ele>359.354004</ele>
  <time>2011-11-18T08:20:26Z</time>
</trkpt>
<trkpt lat="31.750148773" lon="35.356670380">
  <ele>360.658691</ele>
  <time>2011-11-18T08:20:55Z</time>
  <speed>0.740000</speed>
</trkpt>
<trkpt lat="31.750173569" lon="35.356685638">
  <ele>361.455566</ele>
  <time>2011-11-18T08:21:00Z</time>
  <speed>0.700000</speed>
</trkpt>
<trkpt lat="31.750209808" lon="35.356708527">
  <ele>363.533691</ele>
  <time>2011-11-18T08:21:05Z</time>
  <speed>0.980000</speed>
</trkpt>
<trkpt lat="31.750244141" lon="35.356731415">
  <ele>363.861816</ele>
  <time>2011-11-18T08:21:08Z</time>
  <speed>1.410000</speed>
</trkpt>
<trkpt lat="31.750265121" lon="35.356754303">
  <ele>364.799316</ele>
  <time>2011-11-18T08:21:10Z</time>
  <speed>1.750000</speed>
</trkpt>
<trkpt lat="31.750284195" lon="35.356781006">
  <ele>364.955566</ele>
  <time>2011-11-18T08:21:12Z</time>
  <speed>1.610000</speed>
</trkpt>
<trkpt lat="31.750305176" lon="35.356815338">
  <ele>364.900879</ele>
  <time>2011-11-18T08:21:14Z</time>
  <speed>1.990000</speed>
</trkpt>
<trkpt lat="31.750324249" lon="35.356838226">
  <ele>365.814941</ele>
  <time>2011-11-18T08:21:16Z</time>
  <speed>1.370000</speed>
</trkpt>
<trkpt lat="31.750350952" lon="35.356864929">
  <ele>367.674316</ele>
  <time>2011-11-18T08:21:19Z</time>
  <speed>1.430000</speed>
</trkpt>
<trkpt lat="31.750366211" lon="35.356895447">
  <ele>368.111816</ele>
  <time>2011-11-18T08:21:21Z</time>
  <speed>1.690000</speed>
</trkpt>
<trkpt lat="31.750389099" lon="35.356922150">
  <ele>369.010254</ele>
  <time>2011-11-18T08:21:23Z</time>
  <speed>1.680000</speed>
</trkpt>
<trkpt lat="31.750404358" lon="35.356956482">
  <ele>369.236816</ele>
  <time>2011-11-18T08:21:25Z</time>
  <speed>1.580000</speed>
</trkpt>
<trkpt lat="31.750411987" lon="35.356994629">
  <ele>369.080566</ele>
  <time>2011-11-18T08:21:27Z</time>
  <speed>1.650000</speed>
</trkpt>
<trkpt lat="31.750432968" lon="35.357025146">
  <ele>370.104004</ele>
  <time>2011-11-18T08:21:29Z</time>
  <speed>1.740000</speed>
</trkpt>
<trkpt lat="31.750442505" lon="35.357063293">
  <ele>370.650879</ele>
  <time>2011-11-18T08:21:31Z</time>
  <speed>1.780000</speed>
</trkpt>
<trkpt lat="31.750455856" lon="35.357101440">
  <ele>371.135254</ele>
  <time>2011-11-18T08:21:33Z</time>
  <speed>1.970000</speed>
</trkpt>
<trkpt lat="31.750469208" lon="35.357135773">
  <ele>371.783691</ele>
  <time>2011-11-18T08:21:35Z</time>
  <speed>1.710000</speed>
</trkpt>
<trkpt lat="31.750474930" lon="35.357177734">
  <ele>371.541504</ele>
  <time>2011-11-18T08:21:37Z</time>
  <speed>2.020000</speed>
</trkpt>
<trkpt lat="31.750482559" lon="35.357215881">
  <ele>371.775879</ele>
  <time>2011-11-18T08:21:39Z</time>
  <speed>2.370000</speed>
</trkpt>
<trkpt lat="31.750488281" lon="35.357257843">
  <ele>372.338379</ele>
  <time>2011-11-18T08:21:41Z</time>
  <speed>1.980000</speed>
</trkpt>
<trkpt lat="31.750492096" lon="35.357303619">
  <ele>371.682129</ele>
  <time>2011-11-18T08:21:43Z</time>
  <speed>1.980000</speed>
</trkpt>
<trkpt lat="31.750494003" lon="35.357345581">
  <ele>372.307129</ele>
  <time>2011-11-18T08:21:45Z</time>
  <speed>2.150000</speed>
</trkpt>
<trkpt lat="31.750503540" lon="35.357387543">
  <ele>373.025879</ele>
  <time>2011-11-18T08:21:47Z</time>
  <speed>1.910000</speed>
</trkpt>
<trkpt lat="31.750507355" lon="35.357433319">
  <ele>373.463379</ele>
  <time>2011-11-18T08:21:49Z</time>
  <speed>1.980000</speed>
</trkpt>
<trkpt lat="31.750509262" lon="35.357482910">
  <ele>373.674316</ele>
  <time>2011-11-18T08:21:51Z</time>
  <speed>2.140000</speed>
</trkpt>
<trkpt lat="31.750514984" lon="35.357528687">
  <ele>374.096191</ele>
  <time>2011-11-18T08:21:53Z</time>
  <speed>2.190000</speed>
</trkpt>
<trkpt lat="31.750514984" lon="35.357578278">
  <ele>374.002441</ele>
  <time>2011-11-18T08:21:55Z</time>
  <speed>2.190000</speed>
</trkpt>
<trkpt lat="31.750509262" lon="35.357620239">
  <ele>374.119629</ele>
  <time>2011-11-18T08:21:57Z</time>
  <speed>2.110000</speed>
</trkpt>
<trkpt lat="31.750511169" lon="35.357662201">
  <ele>373.846191</ele>
  <time>2011-11-18T08:21:59Z</time>
  <speed>2.210000</speed>
</trkpt>
<trkpt lat="31.750509262" lon="35.357704163">
  <ele>372.729004</ele>
  <time>2011-11-18T08:22:01Z</time>
  <speed>2.070000</speed>
</trkpt>
<trkpt lat="31.750513077" lon="35.357746124">
  <ele>372.268066</ele>
  <time>2011-11-18T08:22:03Z</time>
  <speed>2.070000</speed>
</trkpt>
<trkpt lat="31.750526428" lon="35.357791901">
  <ele>372.346191</ele>
  <time>2011-11-18T08:22:05Z</time>
  <speed>2.080000</speed>
</trkpt>
<trkpt lat="31.750539780" lon="35.357826233">
  <ele>371.322754</ele>
  <time>2011-11-18T08:22:07Z</time>
  <speed>1.880000</speed>
</trkpt>
<trkpt lat="31.750558853" lon="35.357856750">
  <ele>371.354004</ele>
  <time>2011-11-18T08:22:09Z</time>
  <speed>2.000000</speed>
</trkpt>
<trkpt lat="31.750585556" lon="35.357887268">
  <ele>371.494629</ele>
  <time>2011-11-18T08:22:11Z</time>
  <speed>2.040000</speed>
</trkpt>
<trkpt lat="31.750612259" lon="35.357921600">
  <ele>371.463379</ele>
  <time>2011-11-18T08:22:13Z</time>
  <speed>2.430000</speed>
</trkpt>
<trkpt lat="31.750631332" lon="35.357940674">
  <ele>369.775879</ele>
  <time>2011-11-18T08:22:14Z</time>
  <speed>2.980000</speed>
</trkpt>
<trkpt lat="31.750669479" lon="35.357990265">
  <ele>368.604004</ele>
  <time>2011-11-18T08:22:16Z</time>
  <speed>3.030000</speed>
</trkpt>
<trkpt lat="31.750684738" lon="35.358020782">
  <ele>368.088379</ele>
  <time>2011-11-18T08:22:17Z</time>
  <speed>2.990000</speed>
</trkpt>
<trkpt lat="31.750699997" lon="35.358047485">
  <ele>367.674316</ele>
  <time>2011-11-18T08:22:18Z</time>
  <speed>3.580000</speed>
</trkpt>
<trkpt lat="31.750719070" lon="35.358081818">
  <ele>367.080566</ele>
  <time>2011-11-18T08:22:19Z</time>
  <speed>4.100000</speed>
</trkpt>
<trkpt lat="31.750743866" lon="35.358116150">
  <ele>366.955566</ele>
  <time>2011-11-18T08:22:20Z</time>
  <speed>4.720000</speed>
</trkpt>
<trkpt lat="31.750770569" lon="35.358158112">
  <ele>366.846191</ele>
  <time>2011-11-18T08:22:21Z</time>
  <speed>4.950000</speed>
</trkpt>
<trkpt lat="31.750799179" lon="35.358200073">
  <ele>365.854004</ele>
  <time>2011-11-18T08:22:22Z</time>
  <speed>4.850000</speed>
</trkpt>
<trkpt lat="31.750831604" lon="35.358242035">
  <ele>364.455566</ele>
  <time>2011-11-18T08:22:23Z</time>
  <speed>4.730000</speed>
</trkpt>
<trkpt lat="31.750856400" lon="35.358283997">
  <ele>363.643066</ele>
  <time>2011-11-18T08:22:24Z</time>
  <speed>5.350000</speed>
</trkpt>
<trkpt lat="31.750888824" lon="35.358329773">
  <ele>363.939941</ele>
  <time>2011-11-18T08:22:25Z</time>
  <speed>5.310000</speed>
</trkpt>
<trkpt lat="31.750919342" lon="35.358371735">
  <ele>363.744629</ele>
  <time>2011-11-18T08:22:26Z</time>
  <speed>5.750000</speed>
</trkpt>
<trkpt lat="31.750940323" lon="35.358413696">
  <ele>363.432129</ele>
  <time>2011-11-18T08:22:27Z</time>
  <speed>5.010000</speed>
</trkpt>
<trkpt lat="31.750963211" lon="35.358459473">
  <ele>363.096191</ele>
  <time>2011-11-18T08:22:28Z</time>
  <speed>4.770000</speed>
</trkpt>
<trkpt lat="31.750986099" lon="35.358493805">
  <ele>362.908691</ele>
  <time>2011-11-18T08:22:29Z</time>
  <speed>3.940000</speed>
</trkpt>
<trkpt lat="31.751003265" lon="35.358520508">
  <ele>362.533691</ele>
  <time>2011-11-18T08:22:30Z</time>
  <speed>3.470000</speed>
</trkpt>
<trkpt lat="31.751020432" lon="35.358551025">
  <ele>362.432129</ele>
  <time>2011-11-18T08:22:31Z</time>
  <speed>3.720000</speed>
</trkpt>
<trkpt lat="31.751037598" lon="35.358585358">
  <ele>362.244629</ele>
  <time>2011-11-18T08:22:32Z</time>
  <speed>3.390000</speed>
</trkpt>
<trkpt lat="31.751060486" lon="35.358615875">
  <ele>363.135254</ele>
  <time>2011-11-18T08:22:33Z</time>
  <speed>3.380000</speed>
</trkpt>
<trkpt lat="31.751068115" lon="35.358646393">
  <ele>362.752441</ele>
  <time>2011-11-18T08:22:34Z</time>
  <speed>3.990000</speed>
</trkpt>
<trkpt lat="31.751089096" lon="35.358680725">
  <ele>362.885254</ele>
  <time>2011-11-18T08:22:35Z</time>
  <speed>4.160000</speed>
</trkpt>
<trkpt lat="31.751110077" lon="35.358715057">
  <ele>362.658691</ele>
  <time>2011-11-18T08:22:36Z</time>
  <speed>4.460000</speed>
</trkpt>
<trkpt lat="31.751125336" lon="35.358760834">
  <ele>361.869629</ele>
  <time>2011-11-18T08:22:37Z</time>
  <speed>4.870000</speed>
</trkpt>
<trkpt lat="31.751142502" lon="35.358810425">
  <ele>361.307129</ele>
  <time>2011-11-18T08:22:38Z</time>
  <speed>5.190000</speed>
</trkpt>
<trkpt lat="31.751163483" lon="35.358867645">
  <ele>361.416504</ele>
  <time>2011-11-18T08:22:39Z</time>
  <speed>5.590000</speed>
</trkpt>
<trkpt lat="31.751182556" lon="35.358924866">
  <ele>361.533691</ele>
  <time>2011-11-18T08:22:40Z</time>
  <speed>5.790000</speed>
</trkpt>
<trkpt lat="31.751195908" lon="35.358982086">
  <ele>361.096191</ele>
  <time>2011-11-18T08:22:41Z</time>
  <speed>5.460000</speed>
</trkpt>
<trkpt lat="31.751211166" lon="35.359035492">
  <ele>360.963379</ele>
  <time>2011-11-18T08:22:42Z</time>
  <speed>5.380000</speed>
</trkpt>
<trkpt lat="31.751226425" lon="35.359085083">
  <ele>361.111816</ele>
  <time>2011-11-18T08:22:43Z</time>
  <speed>5.110000</speed>
</trkpt>
<trkpt lat="31.751245499" lon="35.359138489">
  <ele>361.861816</ele>
  <time>2011-11-18T08:22:44Z</time>
  <speed>5.010000</speed>
</trkpt>
<trkpt lat="31.751262665" lon="35.359188080">
  <ele>362.900879</ele>
  <time>2011-11-18T08:22:45Z</time>
  <speed>5.050000</speed>
</trkpt>
<trkpt lat="31.751276016" lon="35.359245300">
  <ele>364.111816</ele>
  <time>2011-11-18T08:22:46Z</time>
  <speed>5.120000</speed>
</trkpt>
<trkpt lat="31.751287460" lon="35.359294891">
  <ele>364.314941</ele>
  <time>2011-11-18T08:22:47Z</time>
  <speed>4.330000</speed>
</trkpt>
<trkpt lat="31.751296997" lon="35.359336853">
  <ele>363.885254</ele>
  <time>2011-11-18T08:22:48Z</time>
  <speed>4.210000</speed>
</trkpt>
<trkpt lat="31.751304626" lon="35.359382629">
  <ele>363.846191</ele>
  <time>2011-11-18T08:22:49Z</time>
  <speed>3.880000</speed>
</trkpt>
<trkpt lat="31.751304626" lon="35.359420776">
  <ele>364.111816</ele>
  <time>2011-11-18T08:22:50Z</time>
  <speed>3.700000</speed>
</trkpt>
<trkpt lat="31.751304626" lon="35.359458923">
  <ele>363.838379</ele>
  <time>2011-11-18T08:22:51Z</time>
  <speed>3.270000</speed>
</trkpt>
<trkpt lat="31.751312256" lon="35.359497070">
  <ele>365.119629</ele>
  <time>2011-11-18T08:22:52Z</time>
  <speed>3.120000</speed>
</trkpt>
<trkpt lat="31.751314163" lon="35.359546661">
  <ele>365.158691</ele>
  <time>2011-11-18T08:22:54Z</time>
  <speed>2.330000</speed>
</trkpt>
<trkpt lat="31.751321793" lon="35.359588623">
  <ele>366.119629</ele>
  <time>2011-11-18T08:22:56Z</time>
  <speed>2.220000</speed>
</trkpt>
<trkpt lat="31.751337051" lon="35.359615326">
  <ele>366.979004</ele>
  <time>2011-11-18T08:22:57Z</time>
  <speed>2.210000</speed>
</trkpt>
<trkpt lat="31.751350403" lon="35.359657288">
  <ele>365.939941</ele>
  <time>2011-11-18T08:22:59Z</time>
  <speed>2.440000</speed>
</trkpt>
<trkpt lat="31.751369476" lon="35.359699249">
  <ele>365.377441</ele>
  <time>2011-11-18T08:23:01Z</time>
  <speed>2.730000</speed>
</trkpt>
<trkpt lat="31.751407623" lon="35.359748840">
  <ele>364.908691</ele>
  <time>2011-11-18T08:23:03Z</time>
  <speed>3.460000</speed>
</trkpt>
<trkpt lat="31.751430511" lon="35.359771729">
  <ele>364.674316</ele>
  <time>2011-11-18T08:23:04Z</time>
  <speed>3.750000</speed>
</trkpt>
<trkpt lat="31.751451492" lon="35.359798431">
  <ele>364.104004</ele>
  <time>2011-11-18T08:23:05Z</time>
  <speed>3.680000</speed>
</trkpt>
<trkpt lat="31.751480103" lon="35.359825134">
  <ele>363.900879</ele>
  <time>2011-11-18T08:23:06Z</time>
  <speed>4.410000</speed>
</trkpt>
<trkpt lat="31.751508713" lon="35.359859467">
  <ele>362.619629</ele>
  <time>2011-11-18T08:23:07Z</time>
  <speed>5.100000</speed>
</trkpt>
<trkpt lat="31.751527786" lon="35.359905243">
  <ele>362.119629</ele>
  <time>2011-11-18T08:23:08Z</time>
  <speed>5.380000</speed>
</trkpt>
<trkpt lat="31.751539230" lon="35.359962463">
  <ele>360.432129</ele>
  <time>2011-11-18T08:23:09Z</time>
  <speed>5.830000</speed>
</trkpt>
<trkpt lat="31.751541138" lon="35.360031128">
  <ele>359.580566</ele>
  <time>2011-11-18T08:23:10Z</time>
  <speed>6.320000</speed>
</trkpt>
<trkpt lat="31.751531601" lon="35.360095978">
  <ele>360.104004</ele>
  <time>2011-11-18T08:23:11Z</time>
  <speed>6.360000</speed>
</trkpt>
<trkpt lat="31.751522064" lon="35.360164642">
  <ele>360.408691</ele>
  <time>2011-11-18T08:23:12Z</time>
  <speed>5.780000</speed>
</trkpt>
<trkpt lat="31.751518250" lon="35.360225677">
  <ele>360.580566</ele>
  <time>2011-11-18T08:23:13Z</time>
  <speed>5.650000</speed>
</trkpt>
<trkpt lat="31.751520157" lon="35.360282898">
  <ele>361.041504</ele>
  <time>2011-11-18T08:23:14Z</time>
  <speed>4.800000</speed>
</trkpt>
<trkpt lat="31.751523972" lon="35.360328674">
  <ele>360.658691</ele>
  <time>2011-11-18T08:23:15Z</time>
  <speed>4.020000</speed>
</trkpt>
<trkpt lat="31.751533508" lon="35.360370636">
  <ele>361.283691</ele>
  <time>2011-11-18T08:23:16Z</time>
  <speed>3.460000</speed>
</trkpt>
<trkpt lat="31.751544952" lon="35.360404968">
  <ele>361.939941</ele>
  <time>2011-11-18T08:23:17Z</time>
  <speed>3.900000</speed>
</trkpt>
<trkpt lat="31.751560211" lon="35.360443115">
  <ele>362.018066</ele>
  <time>2011-11-18T08:23:18Z</time>
  <speed>3.640000</speed>
</trkpt>
<trkpt lat="31.751581192" lon="35.360469818">
  <ele>362.510254</ele>
  <time>2011-11-18T08:23:19Z</time>
  <speed>3.390000</speed>
</trkpt>
<trkpt lat="31.751611710" lon="35.360488892">
  <ele>363.752441</ele>
  <time>2011-11-18T08:23:20Z</time>
  <speed>3.790000</speed>
</trkpt>
<trkpt lat="31.751651764" lon="35.360500336">
  <ele>363.314941</ele>
  <time>2011-11-18T08:23:21Z</time>
  <speed>5.250000</speed>
</trkpt>
<trkpt lat="31.751701355" lon="35.360515594">
  <ele>362.049316</ele>
  <time>2011-11-18T08:23:22Z</time>
  <speed>5.720000</speed>
</trkpt>
<trkpt lat="31.751754761" lon="35.360530853">
  <ele>361.189941</ele>
  <time>2011-11-18T08:23:23Z</time>
  <speed>6.030000</speed>
</trkpt>
<trkpt lat="31.751792908" lon="35.360565186">
  <ele>360.252441</ele>
  <time>2011-11-18T08:23:24Z</time>
  <speed>5.080000</speed>
</trkpt>
<trkpt lat="31.751823425" lon="35.360607147">
  <ele>359.244629</ele>
  <time>2011-11-18T08:23:25Z</time>
  <speed>4.370000</speed>
</trkpt>
<trkpt lat="31.751842499" lon="35.360645294">
  <ele>358.885254</ele>
  <time>2011-11-18T08:23:26Z</time>
  <speed>3.760000</speed>
</trkpt>
<trkpt lat="31.751859665" lon="35.360679626">
  <ele>358.689941</ele>
  <time>2011-11-18T08:23:27Z</time>
  <speed>3.420000</speed>
</trkpt>
<trkpt lat="31.751880646" lon="35.360706329">
  <ele>358.307129</ele>
  <time>2011-11-18T08:23:28Z</time>
  <speed>3.860000</speed>
</trkpt>
<trkpt lat="31.751905441" lon="35.360736847">
  <ele>358.244629</ele>
  <time>2011-11-18T08:23:29Z</time>
  <speed>3.480000</speed>
</trkpt>
<trkpt lat="31.751953125" lon="35.360763550">
  <ele>358.049316</ele>
  <time>2011-11-18T08:23:31Z</time>
  <speed>3.060000</speed>
</trkpt>
<trkpt lat="31.752004623" lon="35.360782623">
  <ele>356.986816</ele>
  <time>2011-11-18T08:23:33Z</time>
  <speed>2.920000</speed>
</trkpt>
<trkpt lat="31.752010345" lon="35.360832214">
  <ele>358.064941</ele>
  <time>2011-11-18T08:23:35Z</time>
  <speed>2.770000</speed>
</trkpt>
<trkpt lat="31.752023697" lon="35.360885620">
  <ele>359.197754</ele>
  <time>2011-11-18T08:23:37Z</time>
  <speed>2.900000</speed>
</trkpt>
<trkpt lat="31.752038956" lon="35.360916138">
  <ele>360.393066</ele>
  <time>2011-11-18T08:23:38Z</time>
  <speed>3.070000</speed>
</trkpt>
<trkpt lat="31.752059937" lon="35.360939026">
  <ele>361.088379</ele>
  <time>2011-11-18T08:23:39Z</time>
  <speed>3.650000</speed>
</trkpt>
<trkpt lat="31.752088547" lon="35.360969543">
  <ele>361.314941</ele>
  <time>2011-11-18T08:23:40Z</time>
  <speed>3.560000</speed>
</trkpt>
<trkpt lat="31.752117157" lon="35.360984802">
  <ele>361.682129</ele>
  <time>2011-11-18T08:23:41Z</time>
  <speed>3.080000</speed>
</trkpt>
<trkpt lat="31.752161026" lon="35.360996246">
  <ele>360.330566</ele>
  <time>2011-11-18T08:23:43Z</time>
  <speed>2.500000</speed>
</trkpt>
<trkpt lat="31.752187729" lon="35.361000061">
  <ele>358.721191</ele>
  <time>2011-11-18T08:23:44Z</time>
  <speed>2.530000</speed>
</trkpt>
<trkpt lat="31.752222061" lon="35.361045837">
  <ele>358.799316</ele>
  <time>2011-11-18T08:23:46Z</time>
  <speed>2.940000</speed>
</trkpt>
<trkpt lat="31.752229691" lon="35.361080170">
  <ele>359.127441</ele>
  <time>2011-11-18T08:23:47Z</time>
  <speed>3.230000</speed>
</trkpt>
<trkpt lat="31.752233505" lon="35.361114502">
  <ele>359.057129</ele>
  <time>2011-11-18T08:23:48Z</time>
  <speed>2.990000</speed>
</trkpt>
<trkpt lat="31.752250671" lon="35.361160278">
  <ele>360.268066</ele>
  <time>2011-11-18T08:23:50Z</time>
  <speed>2.080000</speed>
</trkpt>
<trkpt lat="31.752283096" lon="35.361194611">
  <ele>361.080566</ele>
  <time>2011-11-18T08:23:52Z</time>
  <speed>2.230000</speed>
</trkpt>
<trkpt lat="31.752300262" lon="35.361221313">
  <ele>361.236816</ele>
  <time>2011-11-18T08:23:54Z</time>
  <speed>1.210000</speed>
</trkpt>
<trkpt lat="31.752325058" lon="35.361236572">
  <ele>360.604004</ele>
  <time>2011-11-18T08:24:01Z</time>
  <speed>0.450000</speed>
</trkpt>
<trkpt lat="31.752342224" lon="35.361263275">
  <ele>360.635254</ele>
  <time>2011-11-18T08:24:09Z</time>
  <speed>0.710000</speed>
</trkpt>
<trkpt lat="31.752363205" lon="35.361286163">
  <ele>360.994629</ele>
  <time>2011-11-18T08:24:51Z</time>
  <speed>0.780000</speed>
</trkpt>
<trkpt lat="31.752388000" lon="35.361301422">
  <ele>361.057129</ele>
  <time>2011-11-18T08:24:55Z</time>
  <speed>0.820000</speed>
</trkpt>
<trkpt lat="31.752412796" lon="35.361320496">
  <ele>361.518066</ele>
  <time>2011-11-18T08:24:59Z</time>
  <speed>1.690000</speed>
</trkpt>
<trkpt lat="31.752439499" lon="35.361351013">
  <ele>362.236816</ele>
  <time>2011-11-18T08:25:01Z</time>
  <speed>1.920000</speed>
</trkpt>
<trkpt lat="31.752464294" lon="35.361400604">
  <ele>362.260254</ele>
  <time>2011-11-18T08:25:03Z</time>
  <speed>2.980000</speed>
</trkpt>
<trkpt lat="31.752477646" lon="35.361434937">
  <ele>363.447754</ele>
  <time>2011-11-18T08:25:04Z</time>
  <speed>3.340000</speed>
</trkpt>
<trkpt lat="31.752492905" lon="35.361465454">
  <ele>364.393066</ele>
  <time>2011-11-18T08:25:05Z</time>
  <speed>2.880000</speed>
</trkpt>
<trkpt lat="31.752513885" lon="35.361488342">
  <ele>365.354004</ele>
  <time>2011-11-18T08:25:06Z</time>
  <speed>2.950000</speed>
</trkpt>
<trkpt lat="31.752559662" lon="35.361526489">
  <ele>366.010254</ele>
  <time>2011-11-18T08:25:08Z</time>
  <speed>3.860000</speed>
</trkpt>
<trkpt lat="31.752590179" lon="35.361534119">
  <ele>366.361816</ele>
  <time>2011-11-18T08:25:09Z</time>
  <speed>3.750000</speed>
</trkpt>
<trkpt lat="31.752624512" lon="35.361530304">
  <ele>366.283691</ele>
  <time>2011-11-18T08:25:10Z</time>
  <speed>3.690000</speed>
</trkpt>
<trkpt lat="31.752664566" lon="35.361530304">
  <ele>365.611816</ele>
  <time>2011-11-18T08:25:11Z</time>
  <speed>4.670000</speed>
</trkpt>
<trkpt lat="31.752708435" lon="35.361530304">
  <ele>365.346191</ele>
  <time>2011-11-18T08:25:12Z</time>
  <speed>4.890000</speed>
</trkpt>
<trkpt lat="31.752752304" lon="35.361534119">
  <ele>365.533691</ele>
  <time>2011-11-18T08:25:13Z</time>
  <speed>4.900000</speed>
</trkpt>
<trkpt lat="31.752799988" lon="35.361541748">
  <ele>365.947754</ele>
  <time>2011-11-18T08:25:14Z</time>
  <speed>5.440000</speed>
</trkpt>
<trkpt lat="31.752851486" lon="35.361553192">
  <ele>365.885254</ele>
  <time>2011-11-18T08:25:15Z</time>
  <speed>5.290000</speed>
</trkpt>
<trkpt lat="31.752899170" lon="35.361560822">
  <ele>365.799316</ele>
  <time>2011-11-18T08:25:16Z</time>
  <speed>5.030000</speed>
</trkpt>
<trkpt lat="31.752944946" lon="35.361576080">
  <ele>365.432129</ele>
  <time>2011-11-18T08:25:17Z</time>
  <speed>5.140000</speed>
</trkpt>
<trkpt lat="31.752994537" lon="35.361598969">
  <ele>364.752441</ele>
  <time>2011-11-18T08:25:18Z</time>
  <speed>5.000000</speed>
</trkpt>
<trkpt lat="31.753034592" lon="35.361621857">
  <ele>364.424316</ele>
  <time>2011-11-18T08:25:19Z</time>
  <speed>4.360000</speed>
</trkpt>
<trkpt lat="31.753067017" lon="35.361637115">
  <ele>364.002441</ele>
  <time>2011-11-18T08:25:20Z</time>
  <speed>3.610000</speed>
</trkpt>
<trkpt lat="31.753112793" lon="35.361640930">
  <ele>363.541504</ele>
  <time>2011-11-18T08:25:22Z</time>
  <speed>2.430000</speed>
</trkpt>
<trkpt lat="31.753147125" lon="35.361633301">
  <ele>363.752441</ele>
  <time>2011-11-18T08:25:23Z</time>
  <speed>3.730000</speed>
</trkpt>
<trkpt lat="31.753183365" lon="35.361621857">
  <ele>362.791504</ele>
  <time>2011-11-18T08:25:24Z</time>
  <speed>3.160000</speed>
</trkpt>
<trkpt lat="31.753211975" lon="35.361629486">
  <ele>361.830566</ele>
  <time>2011-11-18T08:25:25Z</time>
  <speed>3.010000</speed>
</trkpt>
<trkpt lat="31.753240585" lon="35.361648560">
  <ele>361.689941</ele>
  <time>2011-11-18T08:25:26Z</time>
  <speed>3.480000</speed>
</trkpt>
<trkpt lat="31.753267288" lon="35.361682892">
  <ele>361.518066</ele>
  <time>2011-11-18T08:25:27Z</time>
  <speed>4.020000</speed>
</trkpt>
<trkpt lat="31.753288269" lon="35.361717224">
  <ele>361.150879</ele>
  <time>2011-11-18T08:25:28Z</time>
  <speed>4.310000</speed>
</trkpt>
<trkpt lat="31.753307343" lon="35.361755371">
  <ele>361.807129</ele>
  <time>2011-11-18T08:25:29Z</time>
  <speed>4.020000</speed>
</trkpt>
<trkpt lat="31.753324509" lon="35.361804962">
  <ele>361.424316</ele>
  <time>2011-11-18T08:25:30Z</time>
  <speed>5.000000</speed>
</trkpt>
<trkpt lat="31.753337860" lon="35.361854553">
  <ele>360.580566</ele>
  <time>2011-11-18T08:25:31Z</time>
  <speed>4.700000</speed>
</trkpt>
<trkpt lat="31.753337860" lon="35.361900330">
  <ele>361.393066</ele>
  <time>2011-11-18T08:25:32Z</time>
  <speed>3.690000</speed>
</trkpt>
<trkpt lat="31.753339767" lon="35.361953735">
  <ele>360.650879</ele>
  <time>2011-11-18T08:25:33Z</time>
  <speed>3.980000</speed>
</trkpt>
<trkpt lat="31.753355026" lon="35.361995697">
  <ele>359.627441</ele>
  <time>2011-11-18T08:25:34Z</time>
  <speed>4.500000</speed>
</trkpt>
<trkpt lat="31.753370285" lon="35.362045288">
  <ele>361.244629</ele>
  <time>2011-11-18T08:25:35Z</time>
  <speed>3.870000</speed>
</trkpt>
<trkpt lat="31.753389359" lon="35.362075806">
  <ele>360.525879</ele>
  <time>2011-11-18T08:25:36Z</time>
  <speed>4.240000</speed>
</trkpt>
<trkpt lat="31.753417969" lon="35.362113953">
  <ele>359.322754</ele>
  <time>2011-11-18T08:25:37Z</time>
  <speed>4.510000</speed>
</trkpt>
<trkpt lat="31.753444672" lon="35.362144470">
  <ele>359.236816</ele>
  <time>2011-11-18T08:25:38Z</time>
  <speed>4.640000</speed>
</trkpt>
<trkpt lat="31.753475189" lon="35.362174988">
  <ele>358.994629</ele>
  <time>2011-11-18T08:25:39Z</time>
  <speed>4.550000</speed>
</trkpt>
<trkpt lat="31.753505707" lon="35.362213135">
  <ele>358.494629</ele>
  <time>2011-11-18T08:25:40Z</time>
  <speed>4.680000</speed>
</trkpt>
<trkpt lat="31.753536224" lon="35.362247467">
  <ele>358.572754</ele>
  <time>2011-11-18T08:25:41Z</time>
  <speed>4.780000</speed>
</trkpt>
<trkpt lat="31.753568649" lon="35.362277985">
  <ele>358.424316</ele>
  <time>2011-11-18T08:25:42Z</time>
  <speed>4.400000</speed>
</trkpt>
<trkpt lat="31.753602982" lon="35.362304688">
  <ele>358.471191</ele>
  <time>2011-11-18T08:25:43Z</time>
  <speed>4.630000</speed>
</trkpt>
<trkpt lat="31.753629684" lon="35.362335205">
  <ele>358.283691</ele>
  <time>2011-11-18T08:25:44Z</time>
  <speed>4.170000</speed>
</trkpt>
<trkpt lat="31.753665924" lon="35.362358093">
  <ele>358.369629</ele>
  <time>2011-11-18T08:25:45Z</time>
  <speed>4.620000</speed>
</trkpt>
<trkpt lat="31.753709793" lon="35.362377167">
  <ele>359.213379</ele>
  <time>2011-11-18T08:25:46Z</time>
  <speed>4.520000</speed>
</trkpt>
<trkpt lat="31.753751755" lon="35.362384796">
  <ele>360.213379</ele>
  <time>2011-11-18T08:25:47Z</time>
  <speed>4.730000</speed>
</trkpt>
<trkpt lat="31.753789902" lon="35.362400055">
  <ele>360.689941</ele>
  <time>2011-11-18T08:25:48Z</time>
  <speed>4.470000</speed>
</trkpt>
<trkpt lat="31.753820419" lon="35.362415314">
  <ele>361.346191</ele>
  <time>2011-11-18T08:25:49Z</time>
  <speed>3.650000</speed>
</trkpt>
<trkpt lat="31.753849030" lon="35.362426758">
  <ele>361.533691</ele>
  <time>2011-11-18T08:25:50Z</time>
  <speed>3.400000</speed>
</trkpt>
<trkpt lat="31.753875732" lon="35.362442017">
  <ele>362.064941</ele>
  <time>2011-11-18T08:25:51Z</time>
  <speed>3.460000</speed>
</trkpt>
<trkpt lat="31.753898621" lon="35.362457275">
  <ele>362.666504</ele>
  <time>2011-11-18T08:25:52Z</time>
  <speed>3.720000</speed>
</trkpt>
<trkpt lat="31.753923416" lon="35.362476349">
  <ele>362.275879</ele>
  <time>2011-11-18T08:25:53Z</time>
  <speed>3.460000</speed>
</trkpt>
<trkpt lat="31.753950119" lon="35.362491608">
  <ele>362.744629</ele>
  <time>2011-11-18T08:25:54Z</time>
  <speed>3.560000</speed>
</trkpt>
<trkpt lat="31.753973007" lon="35.362518311">
  <ele>363.510254</ele>
  <time>2011-11-18T08:25:55Z</time>
  <speed>3.560000</speed>
</trkpt>
<trkpt lat="31.754001617" lon="35.362541199">
  <ele>362.525879</ele>
  <time>2011-11-18T08:25:56Z</time>
  <speed>3.250000</speed>
</trkpt>
<trkpt lat="31.754026413" lon="35.362564087">
  <ele>362.283691</ele>
  <time>2011-11-18T08:25:57Z</time>
  <speed>3.330000</speed>
</trkpt>
<trkpt lat="31.754045486" lon="35.362583160">
  <ele>363.229004</ele>
  <time>2011-11-18T08:25:58Z</time>
  <speed>2.790000</speed>
</trkpt>
<trkpt lat="31.754072189" lon="35.362625122">
  <ele>362.424316</ele>
  <time>2011-11-18T08:26:00Z</time>
  <speed>2.480000</speed>
</trkpt>
<trkpt lat="31.754072189" lon="35.362674713">
  <ele>362.135254</ele>
  <time>2011-11-18T08:26:02Z</time>
  <speed>2.360000</speed>
</trkpt>
<trkpt lat="31.754064560" lon="35.362705231">
  <ele>361.705566</ele>
  <time>2011-11-18T08:26:03Z</time>
  <speed>3.050000</speed>
</trkpt>
<trkpt lat="31.754055023" lon="35.362739563">
  <ele>361.041504</ele>
  <time>2011-11-18T08:26:04Z</time>
  <speed>3.430000</speed>
</trkpt>
<trkpt lat="31.754043579" lon="35.362773895">
  <ele>360.611816</ele>
  <time>2011-11-18T08:26:05Z</time>
  <speed>3.480000</speed>
</trkpt>
<trkpt lat="31.754030228" lon="35.362812042">
  <ele>360.275879</ele>
  <time>2011-11-18T08:26:06Z</time>
  <speed>3.620000</speed>
</trkpt>
<trkpt lat="31.754014969" lon="35.362850189">
  <ele>359.908691</ele>
  <time>2011-11-18T08:26:07Z</time>
  <speed>3.820000</speed>
</trkpt>
<trkpt lat="31.754001617" lon="35.362888336">
  <ele>358.689941</ele>
  <time>2011-11-18T08:26:08Z</time>
  <speed>3.520000</speed>
</trkpt>
<trkpt lat="31.753990173" lon="35.362922668">
  <ele>357.775879</ele>
  <time>2011-11-18T08:26:09Z</time>
  <speed>3.100000</speed>
</trkpt>
<trkpt lat="31.753986359" lon="35.362957001">
  <ele>356.518066</ele>
  <time>2011-11-18T08:26:10Z</time>
  <speed>2.680000</speed>
</trkpt>
<trkpt lat="31.753976822" lon="35.363006592">
  <ele>355.580566</ele>
  <time>2011-11-18T08:26:12Z</time>
  <speed>2.230000</speed>
</trkpt>
<trkpt lat="31.753957748" lon="35.363040924">
  <ele>355.135254</ele>
  <time>2011-11-18T08:26:14Z</time>
  <speed>1.370000</speed>
</trkpt>
<trkpt lat="31.753946304" lon="35.363071442">
  <ele>354.025879</ele>
  <time>2011-11-18T08:26:17Z</time>
  <speed>0.060000</speed>
</trkpt>
<trkpt lat="31.753938675" lon="35.363105774">
  <ele>352.705566</ele>
  <time>2011-11-18T08:26:33Z</time>
  <speed>2.080000</speed>
</trkpt>
<trkpt lat="31.753923416" lon="35.363155365">
  <ele>352.252441</ele>
  <time>2011-11-18T08:26:35Z</time>
  <speed>3.010000</speed>
</trkpt>
<trkpt lat="31.753915787" lon="35.363185883">
  <ele>351.760254</ele>
  <time>2011-11-18T08:26:36Z</time>
  <speed>3.150000</speed>
</trkpt>
<trkpt lat="31.753908157" lon="35.363216400">
  <ele>351.135254</ele>
  <time>2011-11-18T08:26:37Z</time>
  <speed>3.360000</speed>
</trkpt>
<trkpt lat="31.753906250" lon="35.363258362">
  <ele>350.580566</ele>
  <time>2011-11-18T08:26:38Z</time>
  <speed>3.810000</speed>
</trkpt>
<trkpt lat="31.753898621" lon="35.363300323">
  <ele>349.541504</ele>
  <time>2011-11-18T08:26:39Z</time>
  <speed>3.960000</speed>
</trkpt>
<trkpt lat="31.753889084" lon="35.363342285">
  <ele>349.689941</ele>
  <time>2011-11-18T08:26:40Z</time>
  <speed>4.430000</speed>
</trkpt>
<trkpt lat="31.753877640" lon="35.363391876">
  <ele>349.127441</ele>
  <time>2011-11-18T08:26:41Z</time>
  <speed>5.280000</speed>
</trkpt>
<trkpt lat="31.753871918" lon="35.363456726">
  <ele>348.283691</ele>
  <time>2011-11-18T08:26:42Z</time>
  <speed>5.250000</speed>
</trkpt>
<trkpt lat="31.753871918" lon="35.363513947">
  <ele>347.760254</ele>
  <time>2011-11-18T08:26:43Z</time>
  <speed>5.940000</speed>
</trkpt>
<trkpt lat="31.753883362" lon="35.363574982">
  <ele>346.611816</ele>
  <time>2011-11-18T08:26:44Z</time>
  <speed>5.820000</speed>
</trkpt>
<trkpt lat="31.753900528" lon="35.363639832">
  <ele>346.814941</ele>
  <time>2011-11-18T08:26:45Z</time>
  <speed>5.760000</speed>
</trkpt>
<trkpt lat="31.753913879" lon="35.363697052">
  <ele>346.221191</ele>
  <time>2011-11-18T08:26:46Z</time>
  <speed>5.110000</speed>
</trkpt>
<trkpt lat="31.753919601" lon="35.363750458">
  <ele>345.689941</ele>
  <time>2011-11-18T08:26:47Z</time>
  <speed>5.340000</speed>
</trkpt>
<trkpt lat="31.753929138" lon="35.363811493">
  <ele>344.588379</ele>
  <time>2011-11-18T08:26:48Z</time>
  <speed>6.180000</speed>
</trkpt>
<trkpt lat="31.753942490" lon="35.363883972">
  <ele>344.666504</ele>
  <time>2011-11-18T08:26:49Z</time>
  <speed>6.690000</speed>
</trkpt>
<trkpt lat="31.753955841" lon="35.363952637">
  <ele>344.682129</ele>
  <time>2011-11-18T08:26:50Z</time>
  <speed>6.560000</speed>
</trkpt>
<trkpt lat="31.753978729" lon="35.364017487">
  <ele>344.111816</ele>
  <time>2011-11-18T08:26:51Z</time>
  <speed>6.650000</speed>
</trkpt>
<trkpt lat="31.754007339" lon="35.364082336">
  <ele>343.893066</ele>
  <time>2011-11-18T08:26:52Z</time>
  <speed>6.630000</speed>
</trkpt>
<trkpt lat="31.754041672" lon="35.364143372">
  <ele>343.424316</ele>
  <time>2011-11-18T08:26:53Z</time>
  <speed>6.690000</speed>
</trkpt>
<trkpt lat="31.754077911" lon="35.364200592">
  <ele>342.525879</ele>
  <time>2011-11-18T08:26:54Z</time>
  <speed>6.660000</speed>
</trkpt>
<trkpt lat="31.754116058" lon="35.364250183">
  <ele>341.908691</ele>
  <time>2011-11-18T08:26:55Z</time>
  <speed>6.960000</speed>
</trkpt>
<trkpt lat="31.754163742" lon="35.364303589">
  <ele>342.049316</ele>
  <time>2011-11-18T08:26:56Z</time>
  <speed>6.930000</speed>
</trkpt>
<trkpt lat="31.754211426" lon="35.364349365">
  <ele>341.971191</ele>
  <time>2011-11-18T08:26:57Z</time>
  <speed>6.900000</speed>
</trkpt>
<trkpt lat="31.754259109" lon="35.364395142">
  <ele>341.861816</ele>
  <time>2011-11-18T08:26:58Z</time>
  <speed>6.430000</speed>
</trkpt>
<trkpt lat="31.754306793" lon="35.364433289">
  <ele>342.424316</ele>
  <time>2011-11-18T08:26:59Z</time>
  <speed>6.070000</speed>
</trkpt>
<trkpt lat="31.754356384" lon="35.364467621">
  <ele>342.486816</ele>
  <time>2011-11-18T08:27:00Z</time>
  <speed>5.350000</speed>
</trkpt>
<trkpt lat="31.754396439" lon="35.364501953">
  <ele>342.400879</ele>
  <time>2011-11-18T08:27:01Z</time>
  <speed>5.090000</speed>
</trkpt>
<trkpt lat="31.754434586" lon="35.364524841">
  <ele>342.150879</ele>
  <time>2011-11-18T08:27:02Z</time>
  <speed>4.860000</speed>
</trkpt>
<trkpt lat="31.754468918" lon="35.364551544">
  <ele>341.900879</ele>
  <time>2011-11-18T08:27:03Z</time>
  <speed>5.000000</speed>
</trkpt>
<trkpt lat="31.754512787" lon="35.364570618">
  <ele>342.322754</ele>
  <time>2011-11-18T08:27:04Z</time>
  <speed>5.370000</speed>
</trkpt>
<trkpt lat="31.754560471" lon="35.364582062">
  <ele>341.955566</ele>
  <time>2011-11-18T08:27:05Z</time>
  <speed>5.440000</speed>
</trkpt>
<trkpt lat="31.754610062" lon="35.364589691">
  <ele>341.525879</ele>
  <time>2011-11-18T08:27:06Z</time>
  <speed>5.120000</speed>
</trkpt>
<trkpt lat="31.754663467" lon="35.364601135">
  <ele>340.635254</ele>
  <time>2011-11-18T08:27:07Z</time>
  <speed>4.730000</speed>
</trkpt>
<trkpt lat="31.754705429" lon="35.364620209">
  <ele>340.721191</ele>
  <time>2011-11-18T08:27:08Z</time>
  <speed>4.990000</speed>
</trkpt>
<trkpt lat="31.754749298" lon="35.364646912">
  <ele>340.658691</ele>
  <time>2011-11-18T08:27:09Z</time>
  <speed>4.850000</speed>
</trkpt>
<trkpt lat="31.754789352" lon="35.364673615">
  <ele>339.564941</ele>
  <time>2011-11-18T08:27:10Z</time>
  <speed>5.020000</speed>
</trkpt>
<trkpt lat="31.754825592" lon="35.364711761">
  <ele>338.721191</ele>
  <time>2011-11-18T08:27:11Z</time>
  <speed>5.090000</speed>
</trkpt>
<trkpt lat="31.754848480" lon="35.364757538">
  <ele>338.549316</ele>
  <time>2011-11-18T08:27:12Z</time>
  <speed>5.100000</speed>
</trkpt>
<trkpt lat="31.754861832" lon="35.364810944">
  <ele>337.611816</ele>
  <time>2011-11-18T08:27:13Z</time>
  <speed>5.230000</speed>
</trkpt>
<trkpt lat="31.754871368" lon="35.364868164">
  <ele>337.580566</ele>
  <time>2011-11-18T08:27:14Z</time>
  <speed>5.170000</speed>
</trkpt>
<trkpt lat="31.754871368" lon="35.364921570">
  <ele>337.361816</ele>
  <time>2011-11-18T08:27:15Z</time>
  <speed>5.320000</speed>
</trkpt>
<trkpt lat="31.754873276" lon="35.364978790">
  <ele>336.822754</ele>
  <time>2011-11-18T08:27:16Z</time>
  <speed>5.880000</speed>
</trkpt>
<trkpt lat="31.754877090" lon="35.365043640">
  <ele>335.705566</ele>
  <time>2011-11-18T08:27:17Z</time>
  <speed>6.230000</speed>
</trkpt>
<trkpt lat="31.754886627" lon="35.365112305">
  <ele>335.307129</ele>
  <time>2011-11-18T08:27:18Z</time>
  <speed>6.310000</speed>
</trkpt>
<trkpt lat="31.754898071" lon="35.365184784">
  <ele>334.908691</ele>
  <time>2011-11-18T08:27:19Z</time>
  <speed>6.420000</speed>
</trkpt>
<trkpt lat="31.754913330" lon="35.365253448">
  <ele>334.393066</ele>
  <time>2011-11-18T08:27:20Z</time>
  <speed>6.920000</speed>
</trkpt>
<trkpt lat="31.754924774" lon="35.365325928">
  <ele>334.025879</ele>
  <time>2011-11-18T08:27:21Z</time>
  <speed>7.130000</speed>
</trkpt>
<trkpt lat="31.754936218" lon="35.365406036">
  <ele>333.791504</ele>
  <time>2011-11-18T08:27:22Z</time>
  <speed>7.420000</speed>
</trkpt>
<trkpt lat="31.754957199" lon="35.365486145">
  <ele>333.807129</ele>
  <time>2011-11-18T08:27:23Z</time>
  <speed>7.900000</speed>
</trkpt>
<trkpt lat="31.754985809" lon="35.365562439">
  <ele>333.697754</ele>
  <time>2011-11-18T08:27:24Z</time>
  <speed>7.620000</speed>
</trkpt>
<trkpt lat="31.755006790" lon="35.365631104">
  <ele>333.885254</ele>
  <time>2011-11-18T08:27:25Z</time>
  <speed>7.170000</speed>
</trkpt>
<trkpt lat="31.755023956" lon="35.365707397">
  <ele>333.244629</ele>
  <time>2011-11-18T08:27:26Z</time>
  <speed>6.660000</speed>
</trkpt>
<trkpt lat="31.755029678" lon="35.365776062">
  <ele>332.705566</ele>
  <time>2011-11-18T08:27:27Z</time>
  <speed>6.320000</speed>
</trkpt>
<trkpt lat="31.755027771" lon="35.365844727">
  <ele>331.924316</ele>
  <time>2011-11-18T08:27:28Z</time>
  <speed>6.190000</speed>
</trkpt>
<trkpt lat="31.755029678" lon="35.365913391">
  <ele>330.916504</ele>
  <time>2011-11-18T08:27:29Z</time>
  <speed>6.740000</speed>
</trkpt>
<trkpt lat="31.755033493" lon="35.365985870">
  <ele>329.408691</ele>
  <time>2011-11-18T08:27:30Z</time>
  <speed>7.350000</speed>
</trkpt>
<trkpt lat="31.755039215" lon="35.366062164">
  <ele>327.674316</ele>
  <time>2011-11-18T08:27:31Z</time>
  <speed>7.550000</speed>
</trkpt>
<trkpt lat="31.755044937" lon="35.366134644">
  <ele>327.268066</ele>
  <time>2011-11-18T08:27:32Z</time>
  <speed>7.160000</speed>
</trkpt>
<trkpt lat="31.755052567" lon="35.366207123">
  <ele>325.932129</ele>
  <time>2011-11-18T08:27:33Z</time>
  <speed>6.390000</speed>
</trkpt>
<trkpt lat="31.755052567" lon="35.366271973">
  <ele>325.189941</ele>
  <time>2011-11-18T08:27:34Z</time>
  <speed>5.600000</speed>
</trkpt>
<trkpt lat="31.755054474" lon="35.366329193">
  <ele>324.838379</ele>
  <time>2011-11-18T08:27:35Z</time>
  <speed>5.290000</speed>
</trkpt>
<trkpt lat="31.755052567" lon="35.366382599">
  <ele>324.947754</ele>
  <time>2011-11-18T08:27:36Z</time>
  <speed>4.570000</speed>
</trkpt>
<trkpt lat="31.755043030" lon="35.366432190">
  <ele>324.314941</ele>
  <time>2011-11-18T08:27:37Z</time>
  <speed>4.420000</speed>
</trkpt>
<trkpt lat="31.755027771" lon="35.366470337">
  <ele>324.643066</ele>
  <time>2011-11-18T08:27:38Z</time>
  <speed>4.430000</speed>
</trkpt>
<trkpt lat="31.755020142" lon="35.366516113">
  <ele>323.432129</ele>
  <time>2011-11-18T08:27:39Z</time>
  <speed>4.130000</speed>
</trkpt>
<trkpt lat="31.755016327" lon="35.366558075">
  <ele>322.291504</ele>
  <time>2011-11-18T08:27:40Z</time>
  <speed>4.820000</speed>
</trkpt>
<trkpt lat="31.755020142" lon="35.366611481">
  <ele>321.369629</ele>
  <time>2011-11-18T08:27:41Z</time>
  <speed>5.700000</speed>
</trkpt>
<trkpt lat="31.755029678" lon="35.366672516">
  <ele>320.869629</ele>
  <time>2011-11-18T08:27:42Z</time>
  <speed>5.740000</speed>
</trkpt>
<trkpt lat="31.755041122" lon="35.366729736">
  <ele>319.627441</ele>
  <time>2011-11-18T08:27:43Z</time>
  <speed>5.070000</speed>
</trkpt>
<trkpt lat="31.755043030" lon="35.366771698">
  <ele>319.416504</ele>
  <time>2011-11-18T08:27:44Z</time>
  <speed>4.520000</speed>
</trkpt>
<trkpt lat="31.755046844" lon="35.366817474">
  <ele>318.510254</ele>
  <time>2011-11-18T08:27:45Z</time>
  <speed>4.120000</speed>
</trkpt>
<trkpt lat="31.755044937" lon="35.366859436">
  <ele>316.963379</ele>
  <time>2011-11-18T08:27:46Z</time>
  <speed>3.820000</speed>
</trkpt>
<trkpt lat="31.755043030" lon="35.366897583">
  <ele>316.025879</ele>
  <time>2011-11-18T08:27:47Z</time>
  <speed>3.680000</speed>
</trkpt>
<trkpt lat="31.755039215" lon="35.366931915">
  <ele>315.807129</ele>
  <time>2011-11-18T08:27:48Z</time>
  <speed>3.730000</speed>
</trkpt>
<trkpt lat="31.755035400" lon="35.366973877">
  <ele>315.830566</ele>
  <time>2011-11-18T08:27:49Z</time>
  <speed>3.840000</speed>
</trkpt>
<trkpt lat="31.755035400" lon="35.367012024">
  <ele>315.314941</ele>
  <time>2011-11-18T08:27:50Z</time>
  <speed>3.590000</speed>
</trkpt>
<trkpt lat="31.755023956" lon="35.367050171">
  <ele>314.799316</ele>
  <time>2011-11-18T08:27:52Z</time>
  <speed>1.110000</speed>
</trkpt>
<trkpt lat="31.755039215" lon="35.367027283">
  <ele>314.502441</ele>
  <time>2011-11-18T08:28:32Z</time>
  <speed>1.220000</speed>
</trkpt>
<trkpt lat="31.755071640" lon="35.367012024">
  <ele>314.885254</ele>
  <time>2011-11-18T08:28:35Z</time>
  <speed>0.810000</speed>
</trkpt>
<trkpt lat="31.755083084" lon="35.366992950">
  <ele>316.713379</ele>
  <time>2011-11-18T08:28:40Z</time>
  <speed>0.070000</speed>
</trkpt>
<trkpt lat="31.755086899" lon="35.366943359">
  <ele>317.455566</ele>
  <time>2011-11-18T08:30:04Z</time>
  <speed>1.390000</speed>
</trkpt>
<trkpt lat="31.755088806" lon="35.366901398">
  <ele>317.729004</ele>
  <time>2011-11-18T08:30:06Z</time>
  <speed>1.330000</speed>
</trkpt>
<trkpt lat="31.755094528" lon="35.366870880">
  <ele>318.385254</ele>
  <time>2011-11-18T08:30:09Z</time>
  <speed>0.680000</speed>
</trkpt>
<trkpt lat="31.755105972" lon="35.366825104">
  <ele>319.111816</ele>
  <time>2011-11-18T08:30:12Z</time>
  <speed>1.400000</speed>
</trkpt>
<trkpt lat="31.755111694" lon="35.366786957">
  <ele>319.791504</ele>
  <time>2011-11-18T08:30:14Z</time>
  <speed>1.630000</speed>
</trkpt>
<trkpt lat="31.755109787" lon="35.366744995">
  <ele>320.346191</ele>
  <time>2011-11-18T08:30:16Z</time>
  <speed>1.100000</speed>
</trkpt>
<trkpt lat="31.755105972" lon="35.366703033">
  <ele>321.096191</ele>
  <time>2011-11-18T08:30:19Z</time>
  <speed>1.110000</speed>
</trkpt>
<trkpt lat="31.755105972" lon="35.366664886">
  <ele>321.705566</ele>
  <time>2011-11-18T08:30:22Z</time>
  <speed>1.000000</speed>
</trkpt>
<trkpt lat="31.755104065" lon="35.366630554">
  <ele>322.424316</ele>
  <time>2011-11-18T08:30:24Z</time>
  <speed>1.170000</speed>
</trkpt>
<trkpt lat="31.755104065" lon="35.366600037">
  <ele>322.104004</ele>
  <time>2011-11-18T08:30:27Z</time>
  <speed>0.800000</speed>
</trkpt>
<trkpt lat="31.755096436" lon="35.366569519">
  <ele>321.916504</ele>
  <time>2011-11-18T08:30:29Z</time>
  <speed>1.330000</speed>
</trkpt>
<trkpt lat="31.755105972" lon="35.366527557">
  <ele>322.041504</ele>
  <time>2011-11-18T08:30:35Z</time>
  <speed>1.230000</speed>
</trkpt>
<trkpt lat="31.755126953" lon="35.366497040">
  <ele>322.119629</ele>
  <time>2011-11-18T08:30:37Z</time>
  <speed>1.960000</speed>
</trkpt>
<trkpt lat="31.755155563" lon="35.366455078">
  <ele>322.385254</ele>
  <time>2011-11-18T08:30:39Z</time>
  <speed>2.200000</speed>
</trkpt>
<trkpt lat="31.755170822" lon="35.366424561">
  <ele>322.416504</ele>
  <time>2011-11-18T08:30:41Z</time>
  <speed>1.620000</speed>
</trkpt>
<trkpt lat="31.755191803" lon="35.366378784">
  <ele>324.549316</ele>
  <time>2011-11-18T08:30:44Z</time>
  <speed>1.840000</speed>
</trkpt>
<trkpt lat="31.755224228" lon="35.366359711">
  <ele>325.471191</ele>
  <time>2011-11-18T08:30:46Z</time>
  <speed>2.120000</speed>
</trkpt>
<trkpt lat="31.755256653" lon="35.366340637">
  <ele>326.557129</ele>
  <time>2011-11-18T08:30:48Z</time>
  <speed>1.760000</speed>
</trkpt>
<trkpt lat="31.755279541" lon="35.366298676">
  <ele>328.088379</ele>
  <time>2011-11-18T08:30:50Z</time>
  <speed>2.300000</speed>
</trkpt>
<trkpt lat="31.755311966" lon="35.366260529">
  <ele>329.033691</ele>
  <time>2011-11-18T08:30:52Z</time>
  <speed>3.030000</speed>
</trkpt>
<trkpt lat="31.755329132" lon="35.366237640">
  <ele>329.189941</ele>
  <time>2011-11-18T08:30:53Z</time>
  <speed>2.680000</speed>
</trkpt>
<trkpt lat="31.755357742" lon="35.366191864">
  <ele>329.275879</ele>
  <time>2011-11-18T08:30:55Z</time>
  <speed>2.490000</speed>
</trkpt>
<trkpt lat="31.755392075" lon="35.366165161">
  <ele>328.119629</ele>
  <time>2011-11-18T08:30:57Z</time>
  <speed>3.090000</speed>
</trkpt>
<trkpt lat="31.755422592" lon="35.366149902">
  <ele>328.213379</ele>
  <time>2011-11-18T08:30:58Z</time>
  <speed>3.390000</speed>
</trkpt>
<trkpt lat="31.755445480" lon="35.366130829">
  <ele>328.416504</ele>
  <time>2011-11-18T08:30:59Z</time>
  <speed>2.900000</speed>
</trkpt>
<trkpt lat="31.755485535" lon="35.366115570">
  <ele>327.018066</ele>
  <time>2011-11-18T08:31:01Z</time>
  <speed>1.990000</speed>
</trkpt>
<trkpt lat="31.755525589" lon="35.366107941">
  <ele>326.557129</ele>
  <time>2011-11-18T08:31:03Z</time>
  <speed>2.290000</speed>
</trkpt>
<trkpt lat="31.755569458" lon="35.366100311">
  <ele>326.908691</ele>
  <time>2011-11-18T08:31:05Z</time>
  <speed>2.480000</speed>
</trkpt>
<trkpt lat="31.755615234" lon="35.366107941">
  <ele>326.502441</ele>
  <time>2011-11-18T08:31:07Z</time>
  <speed>2.160000</speed>
</trkpt>
<trkpt lat="31.755659103" lon="35.366104126">
  <ele>324.979004</ele>
  <time>2011-11-18T08:31:09Z</time>
  <speed>2.870000</speed>
</trkpt>
<trkpt lat="31.755685806" lon="35.366107941">
  <ele>324.338379</ele>
  <time>2011-11-18T08:31:10Z</time>
  <speed>3.090000</speed>
</trkpt>
<trkpt lat="31.755716324" lon="35.366107941">
  <ele>324.377441</ele>
  <time>2011-11-18T08:31:11Z</time>
  <speed>3.420000</speed>
</trkpt>
<trkpt lat="31.755744934" lon="35.366104126">
  <ele>326.088379</ele>
  <time>2011-11-18T08:31:12Z</time>
  <speed>3.140000</speed>
</trkpt>
<trkpt lat="31.755771637" lon="35.366104126">
  <ele>325.689941</ele>
  <time>2011-11-18T08:31:13Z</time>
  <speed>2.680000</speed>
</trkpt>
<trkpt lat="31.755815506" lon="35.366104126">
  <ele>326.447754</ele>
  <time>2011-11-18T08:31:15Z</time>
  <speed>2.110000</speed>
</trkpt>
<trkpt lat="31.755840302" lon="35.366115570">
  <ele>327.127441</ele>
  <time>2011-11-18T08:31:19Z</time>
  <speed>1.680000</speed>
</trkpt>
<trkpt lat="31.755880356" lon="35.366130829">
  <ele>327.197754</ele>
  <time>2011-11-18T08:31:21Z</time>
  <speed>2.190000</speed>
</trkpt>
<trkpt lat="31.755931854" lon="35.366142273">
  <ele>327.752441</ele>
  <time>2011-11-18T08:31:23Z</time>
  <speed>2.890000</speed>
</trkpt>
<trkpt lat="31.755983353" lon="35.366153717">
  <ele>329.729004</ele>
  <time>2011-11-18T08:31:25Z</time>
  <speed>3.090000</speed>
</trkpt>
<trkpt lat="31.756034851" lon="35.366176605">
  <ele>330.041504</ele>
  <time>2011-11-18T08:31:27Z</time>
  <speed>3.110000</speed>
</trkpt>
<trkpt lat="31.756061554" lon="35.366191864">
  <ele>329.510254</ele>
  <time>2011-11-18T08:31:28Z</time>
  <speed>3.100000</speed>
</trkpt>
<trkpt lat="31.756086349" lon="35.366210938">
  <ele>328.588379</ele>
  <time>2011-11-18T08:31:29Z</time>
  <speed>3.210000</speed>
</trkpt>
<trkpt lat="31.756126404" lon="35.366249084">
  <ele>328.916504</ele>
  <time>2011-11-18T08:31:31Z</time>
  <speed>3.000000</speed>
</trkpt>
<trkpt lat="31.756168365" lon="35.366279602">
  <ele>328.674316</ele>
  <time>2011-11-18T08:31:33Z</time>
  <speed>2.870000</speed>
</trkpt>
<trkpt lat="31.756195068" lon="35.366294861">
  <ele>329.338379</ele>
  <time>2011-11-18T08:31:34Z</time>
  <speed>3.530000</speed>
</trkpt>
<trkpt lat="31.756225586" lon="35.366306305">
  <ele>328.846191</ele>
  <time>2011-11-18T08:31:35Z</time>
  <speed>3.630000</speed>
</trkpt>
<trkpt lat="31.756256104" lon="35.366317749">
  <ele>328.564941</ele>
  <time>2011-11-18T08:31:36Z</time>
  <speed>4.150000</speed>
</trkpt>
<trkpt lat="31.756290436" lon="35.366333008">
  <ele>328.361816</ele>
  <time>2011-11-18T08:31:37Z</time>
  <speed>4.270000</speed>
</trkpt>
<trkpt lat="31.756326675" lon="35.366348267">
  <ele>327.807129</ele>
  <time>2011-11-18T08:31:38Z</time>
  <speed>4.050000</speed>
</trkpt>
<trkpt lat="31.756361008" lon="35.366371155">
  <ele>326.838379</ele>
  <time>2011-11-18T08:31:39Z</time>
  <speed>3.980000</speed>
</trkpt>
<trkpt lat="31.756395340" lon="35.366394043">
  <ele>326.572754</ele>
  <time>2011-11-18T08:31:40Z</time>
  <speed>3.780000</speed>
</trkpt>
<trkpt lat="31.756422043" lon="35.366413116">
  <ele>326.252441</ele>
  <time>2011-11-18T08:31:41Z</time>
  <speed>4.020000</speed>
</trkpt>
<trkpt lat="31.756452560" lon="35.366439819">
  <ele>326.580566</ele>
  <time>2011-11-18T08:31:42Z</time>
  <speed>4.130000</speed>
</trkpt>
<trkpt lat="31.756479263" lon="35.366466522">
  <ele>326.869629</ele>
  <time>2011-11-18T08:31:43Z</time>
  <speed>4.020000</speed>
</trkpt>
<trkpt lat="31.756504059" lon="35.366497040">
  <ele>327.424316</ele>
  <time>2011-11-18T08:31:44Z</time>
  <speed>3.640000</speed>
</trkpt>
<trkpt lat="31.756519318" lon="35.366527557">
  <ele>328.463379</ele>
  <time>2011-11-18T08:31:45Z</time>
  <speed>3.230000</speed>
</trkpt>
<trkpt lat="31.756526947" lon="35.366561890">
  <ele>328.502441</ele>
  <time>2011-11-18T08:31:46Z</time>
  <speed>3.690000</speed>
</trkpt>
<trkpt lat="31.756546021" lon="35.366596222">
  <ele>328.650879</ele>
  <time>2011-11-18T08:31:47Z</time>
  <speed>3.910000</speed>
</trkpt>
<trkpt lat="31.756565094" lon="35.366638184">
  <ele>328.385254</ele>
  <time>2011-11-18T08:31:48Z</time>
  <speed>4.400000</speed>
</trkpt>
<trkpt lat="31.756593704" lon="35.366680145">
  <ele>328.955566</ele>
  <time>2011-11-18T08:31:49Z</time>
  <speed>4.400000</speed>
</trkpt>
<trkpt lat="31.756616592" lon="35.366718292">
  <ele>328.939941</ele>
  <time>2011-11-18T08:31:50Z</time>
  <speed>4.270000</speed>
</trkpt>
<trkpt lat="31.756633759" lon="35.366756439">
  <ele>327.861816</ele>
  <time>2011-11-18T08:31:51Z</time>
  <speed>3.940000</speed>
</trkpt>
<trkpt lat="31.756650925" lon="35.366790771">
  <ele>327.275879</ele>
  <time>2011-11-18T08:31:52Z</time>
  <speed>4.160000</speed>
</trkpt>
<trkpt lat="31.756668091" lon="35.366825104">
  <ele>326.432129</ele>
  <time>2011-11-18T08:31:53Z</time>
  <speed>3.570000</speed>
</trkpt>
<trkpt lat="31.756690979" lon="35.366855621">
  <ele>325.119629</ele>
  <time>2011-11-18T08:31:54Z</time>
  <speed>3.250000</speed>
</trkpt>
<trkpt lat="31.756708145" lon="35.366886139">
  <ele>324.111816</ele>
  <time>2011-11-18T08:31:55Z</time>
  <speed>3.350000</speed>
</trkpt>
<trkpt lat="31.756721497" lon="35.366920471">
  <ele>324.314941</ele>
  <time>2011-11-18T08:31:56Z</time>
  <speed>3.550000</speed>
</trkpt>
<trkpt lat="31.756757736" lon="35.366943359">
  <ele>322.955566</ele>
  <time>2011-11-18T08:31:57Z</time>
  <speed>3.530000</speed>
</trkpt>
<trkpt lat="31.756780624" lon="35.366970062">
  <ele>322.557129</ele>
  <time>2011-11-18T08:31:58Z</time>
  <speed>3.300000</speed>
</trkpt>
<trkpt lat="31.756820679" lon="35.367000580">
  <ele>322.088379</ele>
  <time>2011-11-18T08:32:00Z</time>
  <speed>2.400000</speed>
</trkpt>
<trkpt lat="31.756849289" lon="35.367012024">
  <ele>320.455566</ele>
  <time>2011-11-18T08:32:02Z</time>
  <speed>1.170000</speed>
</trkpt>
<trkpt lat="31.756879807" lon="35.367008209">
  <ele>319.291504</ele>
  <time>2011-11-18T08:32:05Z</time>
  <speed>1.070000</speed>
</trkpt>
<trkpt lat="31.756896973" lon="35.366977692">
  <ele>320.893066</ele>
  <time>2011-11-18T08:32:08Z</time>
  <speed>1.310000</speed>
</trkpt>
<trkpt lat="31.756919861" lon="35.366954803">
  <ele>320.979004</ele>
  <time>2011-11-18T08:32:11Z</time>
  <speed>0.840000</speed>
</trkpt>
<trkpt lat="31.756940842" lon="35.366928101">
  <ele>320.744629</ele>
  <time>2011-11-18T08:32:14Z</time>
  <speed>1.680000</speed>
</trkpt>
<trkpt lat="31.756963730" lon="35.366889954">
  <ele>320.861816</ele>
  <time>2011-11-18T08:32:16Z</time>
  <speed>2.250000</speed>
</trkpt>
<trkpt lat="31.756988525" lon="35.366847992">
  <ele>320.596191</ele>
  <time>2011-11-18T08:32:18Z</time>
  <speed>2.880000</speed>
</trkpt>
<trkpt lat="31.757011414" lon="35.366817474">
  <ele>321.377441</ele>
  <time>2011-11-18T08:32:19Z</time>
  <speed>3.560000</speed>
</trkpt>
<trkpt lat="31.757032394" lon="35.366786957">
  <ele>321.393066</ele>
  <time>2011-11-18T08:32:20Z</time>
  <speed>3.960000</speed>
</trkpt>
<trkpt lat="31.757055283" lon="35.366748810">
  <ele>321.252441</ele>
  <time>2011-11-18T08:32:21Z</time>
  <speed>3.850000</speed>
</trkpt>
<trkpt lat="31.757074356" lon="35.366718292">
  <ele>321.400879</ele>
  <time>2011-11-18T08:32:22Z</time>
  <speed>3.570000</speed>
</trkpt>
<trkpt lat="31.757081985" lon="35.366680145">
  <ele>321.486816</ele>
  <time>2011-11-18T08:32:23Z</time>
  <speed>3.530000</speed>
</trkpt>
<trkpt lat="31.757093430" lon="35.366641998">
  <ele>321.057129</ele>
  <time>2011-11-18T08:32:24Z</time>
  <speed>3.020000</speed>
</trkpt>
<trkpt lat="31.757093430" lon="35.366611481">
  <ele>320.768066</ele>
  <time>2011-11-18T08:32:25Z</time>
  <speed>3.280000</speed>
</trkpt>
<trkpt lat="31.757110596" lon="35.366561890">
  <ele>321.080566</ele>
  <time>2011-11-18T08:32:27Z</time>
  <speed>2.710000</speed>
</trkpt>
<trkpt lat="31.757164001" lon="35.366527557">
  <ele>321.611816</ele>
  <time>2011-11-18T08:32:29Z</time>
  <speed>3.900000</speed>
</trkpt>
<trkpt lat="31.757194519" lon="35.366508484">
  <ele>321.541504</ele>
  <time>2011-11-18T08:32:30Z</time>
  <speed>3.310000</speed>
</trkpt>
<trkpt lat="31.757225037" lon="35.366489410">
  <ele>321.744629</ele>
  <time>2011-11-18T08:32:31Z</time>
  <speed>3.640000</speed>
</trkpt>
<trkpt lat="31.757246017" lon="35.366458893">
  <ele>322.994629</ele>
  <time>2011-11-18T08:32:32Z</time>
  <speed>3.280000</speed>
</trkpt>
<trkpt lat="31.757268906" lon="35.366443634">
  <ele>323.002441</ele>
  <time>2011-11-18T08:32:33Z</time>
  <speed>2.950000</speed>
</trkpt>
<trkpt lat="31.757320404" lon="35.366409302">
  <ele>322.439941</ele>
  <time>2011-11-18T08:32:35Z</time>
  <speed>3.270000</speed>
</trkpt>
<trkpt lat="31.757339478" lon="35.366386414">
  <ele>322.424316</ele>
  <time>2011-11-18T08:32:36Z</time>
  <speed>2.840000</speed>
</trkpt>
<trkpt lat="31.757366180" lon="35.366333008">
  <ele>322.768066</ele>
  <time>2011-11-18T08:32:38Z</time>
  <speed>2.440000</speed>
</trkpt>
<trkpt lat="31.757369995" lon="35.366294861">
  <ele>324.010254</ele>
  <time>2011-11-18T08:32:39Z</time>
  <speed>2.690000</speed>
</trkpt>
<trkpt lat="31.757421494" lon="35.366268158">
  <ele>325.080566</ele>
  <time>2011-11-18T08:32:41Z</time>
  <speed>3.350000</speed>
</trkpt>
<trkpt lat="31.757471085" lon="35.366237640">
  <ele>323.299316</ele>
  <time>2011-11-18T08:32:43Z</time>
  <speed>3.880000</speed>
</trkpt>
<trkpt lat="31.757505417" lon="35.366230011">
  <ele>322.791504</ele>
  <time>2011-11-18T08:32:44Z</time>
  <speed>3.950000</speed>
</trkpt>
<trkpt lat="31.757545471" lon="35.366222382">
  <ele>321.643066</ele>
  <time>2011-11-18T08:32:45Z</time>
  <speed>4.870000</speed>
</trkpt>
<trkpt lat="31.757593155" lon="35.366214752">
  <ele>320.400879</ele>
  <time>2011-11-18T08:32:46Z</time>
  <speed>5.130000</speed>
</trkpt>
<trkpt lat="31.757637024" lon="35.366203308">
  <ele>319.596191</ele>
  <time>2011-11-18T08:32:47Z</time>
  <speed>4.790000</speed>
</trkpt>
<trkpt lat="31.757686615" lon="35.366195679">
  <ele>319.150879</ele>
  <time>2011-11-18T08:32:48Z</time>
  <speed>5.380000</speed>
</trkpt>
<trkpt lat="31.757738113" lon="35.366191864">
  <ele>317.541504</ele>
  <time>2011-11-18T08:32:49Z</time>
  <speed>5.730000</speed>
</trkpt>
<trkpt lat="31.757787704" lon="35.366176605">
  <ele>316.932129</ele>
  <time>2011-11-18T08:32:50Z</time>
  <speed>5.920000</speed>
</trkpt>
<trkpt lat="31.757837296" lon="35.366157532">
  <ele>316.525879</ele>
  <time>2011-11-18T08:32:51Z</time>
  <speed>6.400000</speed>
</trkpt>
<trkpt lat="31.757890701" lon="35.366146088">
  <ele>315.775879</ele>
  <time>2011-11-18T08:32:52Z</time>
  <speed>6.220000</speed>
</trkpt>
<trkpt lat="31.757951736" lon="35.366123199">
  <ele>315.260254</ele>
  <time>2011-11-18T08:32:53Z</time>
  <speed>6.040000</speed>
</trkpt>
<trkpt lat="31.758010864" lon="35.366104126">
  <ele>314.729004</ele>
  <time>2011-11-18T08:32:54Z</time>
  <speed>6.220000</speed>
</trkpt>
<trkpt lat="31.758068085" lon="35.366081238">
  <ele>313.979004</ele>
  <time>2011-11-18T08:32:55Z</time>
  <speed>6.490000</speed>
</trkpt>
<trkpt lat="31.758129120" lon="35.366065979">
  <ele>312.354004</ele>
  <time>2011-11-18T08:32:56Z</time>
  <speed>6.420000</speed>
</trkpt>
<trkpt lat="31.758190155" lon="35.366069794">
  <ele>309.479004</ele>
  <time>2011-11-18T08:32:57Z</time>
  <speed>5.710000</speed>
</trkpt>
<trkpt lat="31.758239746" lon="35.366065979">
  <ele>308.510254</ele>
  <time>2011-11-18T08:32:58Z</time>
  <speed>4.160000</speed>
</trkpt>
<trkpt lat="31.758277893" lon="35.366069794">
  <ele>308.502441</ele>
  <time>2011-11-18T08:32:59Z</time>
  <speed>5.070000</speed>
</trkpt>
<trkpt lat="31.758321762" lon="35.366058350">
  <ele>308.096191</ele>
  <time>2011-11-18T08:33:00Z</time>
  <speed>5.360000</speed>
</trkpt>
<trkpt lat="31.758367538" lon="35.366050720">
  <ele>307.221191</ele>
  <time>2011-11-18T08:33:01Z</time>
  <speed>4.980000</speed>
</trkpt>
<trkpt lat="31.758419037" lon="35.366050720">
  <ele>306.682129</ele>
  <time>2011-11-18T08:33:02Z</time>
  <speed>5.240000</speed>
</trkpt>
<trkpt lat="31.758464813" lon="35.366058350">
  <ele>306.158691</ele>
  <time>2011-11-18T08:33:03Z</time>
  <speed>5.410000</speed>
</trkpt>
<trkpt lat="31.758512497" lon="35.366081238">
  <ele>305.854004</ele>
  <time>2011-11-18T08:33:04Z</time>
  <speed>5.540000</speed>
</trkpt>
<trkpt lat="31.758563995" lon="35.366107941">
  <ele>305.619629</ele>
  <time>2011-11-18T08:33:05Z</time>
  <speed>5.260000</speed>
</trkpt>
<trkpt lat="31.758602142" lon="35.366134644">
  <ele>304.260254</ele>
  <time>2011-11-18T08:33:06Z</time>
  <speed>4.280000</speed>
</trkpt>
<trkpt lat="31.758632660" lon="35.366153717">
  <ele>304.619629</ele>
  <time>2011-11-18T08:33:07Z</time>
  <speed>3.030000</speed>
</trkpt>
<trkpt lat="31.758665085" lon="35.366165161">
  <ele>305.861816</ele>
  <time>2011-11-18T08:33:09Z</time>
  <speed>2.230000</speed>
</trkpt>
<trkpt lat="31.758701324" lon="35.366172791">
  <ele>305.838379</ele>
  <time>2011-11-18T08:33:11Z</time>
  <speed>1.990000</speed>
</trkpt>
<trkpt lat="31.758739471" lon="35.366207123">
  <ele>305.354004</ele>
  <time>2011-11-18T08:33:13Z</time>
  <speed>2.940000</speed>
</trkpt>
<trkpt lat="31.758781433" lon="35.366245270">
  <ele>304.666504</ele>
  <time>2011-11-18T08:33:15Z</time>
  <speed>3.110000</speed>
</trkpt>
<trkpt lat="31.758804321" lon="35.366268158">
  <ele>304.158691</ele>
  <time>2011-11-18T08:33:16Z</time>
  <speed>3.270000</speed>
</trkpt>
<trkpt lat="31.758829117" lon="35.366283417">
  <ele>303.697754</ele>
  <time>2011-11-18T08:33:17Z</time>
  <speed>3.020000</speed>
</trkpt>
<trkpt lat="31.758880615" lon="35.366317749">
  <ele>303.580566</ele>
  <time>2011-11-18T08:33:19Z</time>
  <speed>3.170000</speed>
</trkpt>
<trkpt lat="31.758895874" lon="35.366340637">
  <ele>303.814941</ele>
  <time>2011-11-18T08:33:20Z</time>
  <speed>3.150000</speed>
</trkpt>
<trkpt lat="31.758926392" lon="35.366386414">
  <ele>303.057129</ele>
  <time>2011-11-18T08:33:22Z</time>
  <speed>2.840000</speed>
</trkpt>
<trkpt lat="31.758939743" lon="35.366416931">
  <ele>302.432129</ele>
  <time>2011-11-18T08:33:23Z</time>
  <speed>2.960000</speed>
</trkpt>
<trkpt lat="31.758949280" lon="35.366451263">
  <ele>302.221191</ele>
  <time>2011-11-18T08:33:24Z</time>
  <speed>3.420000</speed>
</trkpt>
<trkpt lat="31.758953094" lon="35.366489410">
  <ele>301.947754</ele>
  <time>2011-11-18T08:33:25Z</time>
  <speed>3.600000</speed>
</trkpt>
<trkpt lat="31.758968353" lon="35.366527557">
  <ele>301.979004</ele>
  <time>2011-11-18T08:33:26Z</time>
  <speed>3.260000</speed>
</trkpt>
<trkpt lat="31.758981705" lon="35.366558075">
  <ele>302.307129</ele>
  <time>2011-11-18T08:33:27Z</time>
  <speed>3.010000</speed>
</trkpt>
<trkpt lat="31.758996964" lon="35.366588593">
  <ele>302.439941</ele>
  <time>2011-11-18T08:33:28Z</time>
  <speed>2.850000</speed>
</trkpt>
<trkpt lat="31.759021759" lon="35.366641998">
  <ele>303.689941</ele>
  <time>2011-11-18T08:33:30Z</time>
  <speed>3.240000</speed>
</trkpt>
<trkpt lat="31.759037018" lon="35.366668701">
  <ele>304.135254</ele>
  <time>2011-11-18T08:33:31Z</time>
  <speed>3.550000</speed>
</trkpt>
<trkpt lat="31.759050369" lon="35.366710663">
  <ele>304.510254</ele>
  <time>2011-11-18T08:33:32Z</time>
  <speed>3.770000</speed>
</trkpt>
<trkpt lat="31.759067535" lon="35.366752625">
  <ele>304.768066</ele>
  <time>2011-11-18T08:33:33Z</time>
  <speed>3.930000</speed>
</trkpt>
<trkpt lat="31.759078979" lon="35.366786957">
  <ele>304.736816</ele>
  <time>2011-11-18T08:33:34Z</time>
  <speed>3.780000</speed>
</trkpt>
<trkpt lat="31.759086609" lon="35.366832733">
  <ele>304.525879</ele>
  <time>2011-11-18T08:33:35Z</time>
  <speed>4.090000</speed>
</trkpt>
<trkpt lat="31.759101868" lon="35.366874695">
  <ele>304.236816</ele>
  <time>2011-11-18T08:33:36Z</time>
  <speed>4.020000</speed>
</trkpt>
<trkpt lat="31.759120941" lon="35.366916656">
  <ele>304.549316</ele>
  <time>2011-11-18T08:33:37Z</time>
  <speed>4.200000</speed>
</trkpt>
<trkpt lat="31.759138107" lon="35.366954803">
  <ele>304.369629</ele>
  <time>2011-11-18T08:33:38Z</time>
  <speed>4.590000</speed>
</trkpt>
<trkpt lat="31.759157181" lon="35.367000580">
  <ele>304.541504</ele>
  <time>2011-11-18T08:33:39Z</time>
  <speed>4.270000</speed>
</trkpt>
<trkpt lat="31.759174347" lon="35.367038727">
  <ele>304.408691</ele>
  <time>2011-11-18T08:33:40Z</time>
  <speed>4.230000</speed>
</trkpt>
<trkpt lat="31.759191513" lon="35.367080688">
  <ele>304.205566</ele>
  <time>2011-11-18T08:33:41Z</time>
  <speed>4.210000</speed>
</trkpt>
<trkpt lat="31.759210587" lon="35.367122650">
  <ele>303.752441</ele>
  <time>2011-11-18T08:33:42Z</time>
  <speed>4.300000</speed>
</trkpt>
<trkpt lat="31.759229660" lon="35.367160797">
  <ele>303.705566</ele>
  <time>2011-11-18T08:33:43Z</time>
  <speed>4.050000</speed>
</trkpt>
<trkpt lat="31.759250641" lon="35.367195129">
  <ele>303.158691</ele>
  <time>2011-11-18T08:33:44Z</time>
  <speed>4.310000</speed>
</trkpt>
<trkpt lat="31.759284973" lon="35.367225647">
  <ele>303.033691</ele>
  <time>2011-11-18T08:33:45Z</time>
  <speed>4.460000</speed>
</trkpt>
<trkpt lat="31.759319305" lon="35.367252350">
  <ele>303.041504</ele>
  <time>2011-11-18T08:33:46Z</time>
  <speed>4.350000</speed>
</trkpt>
<trkpt lat="31.759347916" lon="35.367267609">
  <ele>303.018066</ele>
  <time>2011-11-18T08:33:47Z</time>
  <speed>3.420000</speed>
</trkpt>
<trkpt lat="31.759370804" lon="35.367286682">
  <ele>302.885254</ele>
  <time>2011-11-18T08:33:48Z</time>
  <speed>3.730000</speed>
</trkpt>
<trkpt lat="31.759395599" lon="35.367313385">
  <ele>302.502441</ele>
  <time>2011-11-18T08:33:49Z</time>
  <speed>3.860000</speed>
</trkpt>
<trkpt lat="31.759420395" lon="35.367336273">
  <ele>302.768066</ele>
  <time>2011-11-18T08:33:50Z</time>
  <speed>3.600000</speed>
</trkpt>
<trkpt lat="31.759441376" lon="35.367362976">
  <ele>302.119629</ele>
  <time>2011-11-18T08:33:51Z</time>
  <speed>3.430000</speed>
</trkpt>
<trkpt lat="31.759458542" lon="35.367393494">
  <ele>302.260254</ele>
  <time>2011-11-18T08:33:52Z</time>
  <speed>3.510000</speed>
</trkpt>
<trkpt lat="31.759475708" lon="35.367424011">
  <ele>302.221191</ele>
  <time>2011-11-18T08:33:53Z</time>
  <speed>3.800000</speed>
</trkpt>
<trkpt lat="31.759496689" lon="35.367450714">
  <ele>302.518066</ele>
  <time>2011-11-18T08:33:54Z</time>
  <speed>3.880000</speed>
</trkpt>
<trkpt lat="31.759517670" lon="35.367481232">
  <ele>302.510254</ele>
  <time>2011-11-18T08:33:55Z</time>
  <speed>3.690000</speed>
</trkpt>
<trkpt lat="31.759538651" lon="35.367504120">
  <ele>303.127441</ele>
  <time>2011-11-18T08:33:56Z</time>
  <speed>3.560000</speed>
</trkpt>
<trkpt lat="31.759565353" lon="35.367523193">
  <ele>302.650879</ele>
  <time>2011-11-18T08:33:57Z</time>
  <speed>2.920000</speed>
</trkpt>
<trkpt lat="31.759601593" lon="35.367565155">
  <ele>301.674316</ele>
  <time>2011-11-18T08:33:59Z</time>
  <speed>2.940000</speed>
</trkpt>
<trkpt lat="31.759626389" lon="35.367580414">
  <ele>301.408691</ele>
  <time>2011-11-18T08:34:00Z</time>
  <speed>2.970000</speed>
</trkpt>
<trkpt lat="31.759677887" lon="35.367599487">
  <ele>301.994629</ele>
  <time>2011-11-18T08:34:02Z</time>
  <speed>3.590000</speed>
</trkpt>
<trkpt lat="31.759716034" lon="35.367607117">
  <ele>301.775879</ele>
  <time>2011-11-18T08:34:03Z</time>
  <speed>4.790000</speed>
</trkpt>
<trkpt lat="31.759763718" lon="35.367607117">
  <ele>301.236816</ele>
  <time>2011-11-18T08:34:04Z</time>
  <speed>5.390000</speed>
</trkpt>
<trkpt lat="31.759819031" lon="35.367607117">
  <ele>300.650879</ele>
  <time>2011-11-18T08:34:05Z</time>
  <speed>6.540000</speed>
</trkpt>
<trkpt lat="31.759881973" lon="35.367610931">
  <ele>299.760254</ele>
  <time>2011-11-18T08:34:06Z</time>
  <speed>6.330000</speed>
</trkpt>
<trkpt lat="31.759939194" lon="35.367630005">
  <ele>298.979004</ele>
  <time>2011-11-18T08:34:07Z</time>
  <speed>6.470000</speed>
</trkpt>
<trkpt lat="31.759996414" lon="35.367652893">
  <ele>298.369629</ele>
  <time>2011-11-18T08:34:08Z</time>
  <speed>6.850000</speed>
</trkpt>
<trkpt lat="31.760053635" lon="35.367675781">
  <ele>297.979004</ele>
  <time>2011-11-18T08:34:09Z</time>
  <speed>6.910000</speed>
</trkpt>
<trkpt lat="31.760114670" lon="35.367691040">
  <ele>297.682129</ele>
  <time>2011-11-18T08:34:10Z</time>
  <speed>7.200000</speed>
</trkpt>
<trkpt lat="31.760187149" lon="35.367706299">
  <ele>297.775879</ele>
  <time>2011-11-18T08:34:11Z</time>
  <speed>8.050000</speed>
</trkpt>
<trkpt lat="31.760259628" lon="35.367729187">
  <ele>297.502441</ele>
  <time>2011-11-18T08:34:12Z</time>
  <speed>8.380000</speed>
</trkpt>
<trkpt lat="31.760334015" lon="35.367763519">
  <ele>296.361816</ele>
  <time>2011-11-18T08:34:13Z</time>
  <speed>8.510000</speed>
</trkpt>
<trkpt lat="31.760412216" lon="35.367801666">
  <ele>295.174316</ele>
  <time>2011-11-18T08:34:14Z</time>
  <speed>7.630000</speed>
</trkpt>
<trkpt lat="31.760471344" lon="35.367851257">
  <ele>294.869629</ele>
  <time>2011-11-18T08:34:15Z</time>
  <speed>7.000000</speed>
</trkpt>
<trkpt lat="31.760522842" lon="35.367897034">
  <ele>294.369629</ele>
  <time>2011-11-18T08:34:16Z</time>
  <speed>6.970000</speed>
</trkpt>
<trkpt lat="31.760578156" lon="35.367942810">
  <ele>294.197754</ele>
  <time>2011-11-18T08:34:17Z</time>
  <speed>7.150000</speed>
</trkpt>
<trkpt lat="31.760627747" lon="35.367992401">
  <ele>294.127441</ele>
  <time>2011-11-18T08:34:18Z</time>
  <speed>7.330000</speed>
</trkpt>
<trkpt lat="31.760679245" lon="35.368041992">
  <ele>293.502441</ele>
  <time>2011-11-18T08:34:19Z</time>
  <speed>7.450000</speed>
</trkpt>
<trkpt lat="31.760725021" lon="35.368099213">
  <ele>292.666504</ele>
  <time>2011-11-18T08:34:20Z</time>
  <speed>7.590000</speed>
</trkpt>
<trkpt lat="31.760770798" lon="35.368160248">
  <ele>292.135254</ele>
  <time>2011-11-18T08:34:21Z</time>
  <speed>7.340000</speed>
</trkpt>
<trkpt lat="31.760807037" lon="35.368221283">
  <ele>292.127441</ele>
  <time>2011-11-18T08:34:22Z</time>
  <speed>6.260000</speed>
</trkpt>
<trkpt lat="31.760837555" lon="35.368267059">
  <ele>291.893066</ele>
  <time>2011-11-18T08:34:23Z</time>
  <speed>5.350000</speed>
</trkpt>
<trkpt lat="31.760868073" lon="35.368309021">
  <ele>291.400879</ele>
  <time>2011-11-18T08:34:24Z</time>
  <speed>4.350000</speed>
</trkpt>
<trkpt lat="31.760890961" lon="35.368339539">
  <ele>291.822754</ele>
  <time>2011-11-18T08:34:25Z</time>
  <speed>3.690000</speed>
</trkpt>
<trkpt lat="31.760911942" lon="35.368366241">
  <ele>291.596191</ele>
  <time>2011-11-18T08:34:26Z</time>
  <speed>3.480000</speed>
</trkpt>
<trkpt lat="31.760927200" lon="35.368392944">
  <ele>290.627441</ele>
  <time>2011-11-18T08:34:27Z</time>
  <speed>2.800000</speed>
</trkpt>
<trkpt lat="31.760942459" lon="35.368419647">
  <ele>290.322754</ele>
  <time>2011-11-18T08:34:28Z</time>
  <speed>2.650000</speed>
</trkpt>
<trkpt lat="31.760963440" lon="35.368461609">
  <ele>290.025879</ele>
  <time>2011-11-18T08:34:30Z</time>
  <speed>1.810000</speed>
</trkpt>
<trkpt lat="31.760980606" lon="35.368499756">
  <ele>292.104004</ele>
  <time>2011-11-18T08:34:32Z</time>
  <speed>1.680000</speed>
</trkpt>
<trkpt lat="31.761013031" lon="35.368526459">
  <ele>292.697754</ele>
  <time>2011-11-18T08:40:22Z</time>
  <speed>2.270000</speed>
</trkpt>
<trkpt lat="31.761045456" lon="35.368583679">
  <ele>292.846191</ele>
  <time>2011-11-18T08:40:24Z</time>
  <speed>3.030000</speed>
</trkpt>
<trkpt lat="31.761060715" lon="35.368614197">
  <ele>292.518066</ele>
  <time>2011-11-18T08:40:25Z</time>
  <speed>3.370000</speed>
</trkpt>
<trkpt lat="31.761072159" lon="35.368652344">
  <ele>292.533691</ele>
  <time>2011-11-18T08:40:26Z</time>
  <speed>3.440000</speed>
</trkpt>
<trkpt lat="31.761091232" lon="35.368682861">
  <ele>291.221191</ele>
  <time>2011-11-18T08:40:27Z</time>
  <speed>3.270000</speed>
</trkpt>
<trkpt lat="31.761104584" lon="35.368709564">
  <ele>290.791504</ele>
  <time>2011-11-18T08:40:28Z</time>
  <speed>3.000000</speed>
</trkpt>
<trkpt lat="31.761140823" lon="35.368766785">
  <ele>290.650879</ele>
  <time>2011-11-18T08:40:30Z</time>
  <speed>3.340000</speed>
</trkpt>
<trkpt lat="31.761161804" lon="35.368785858">
  <ele>290.330566</ele>
  <time>2011-11-18T08:40:31Z</time>
  <speed>3.310000</speed>
</trkpt>
<trkpt lat="31.761182785" lon="35.368812561">
  <ele>289.947754</ele>
  <time>2011-11-18T08:40:32Z</time>
  <speed>3.660000</speed>
</trkpt>
<trkpt lat="31.761211395" lon="35.368843079">
  <ele>291.002441</ele>
  <time>2011-11-18T08:40:33Z</time>
  <speed>4.220000</speed>
</trkpt>
<trkpt lat="31.761234283" lon="35.368885040">
  <ele>290.885254</ele>
  <time>2011-11-18T08:40:34Z</time>
  <speed>4.810000</speed>
</trkpt>
<trkpt lat="31.761268616" lon="35.368930817">
  <ele>291.119629</ele>
  <time>2011-11-18T08:40:35Z</time>
  <speed>5.210000</speed>
</trkpt>
<trkpt lat="31.761291504" lon="35.368984222">
  <ele>291.385254</ele>
  <time>2011-11-18T08:40:36Z</time>
  <speed>5.540000</speed>
</trkpt>
<trkpt lat="31.761314392" lon="35.369033813">
  <ele>290.697754</ele>
  <time>2011-11-18T08:40:37Z</time>
  <speed>5.340000</speed>
</trkpt>
<trkpt lat="31.761325836" lon="35.369091034">
  <ele>290.346191</ele>
  <time>2011-11-18T08:40:38Z</time>
  <speed>5.820000</speed>
</trkpt>
<trkpt lat="31.761331558" lon="35.369152069">
  <ele>289.596191</ele>
  <time>2011-11-18T08:40:39Z</time>
  <speed>5.920000</speed>
</trkpt>
<trkpt lat="31.761344910" lon="35.369216919">
  <ele>290.057129</ele>
  <time>2011-11-18T08:40:40Z</time>
  <speed>6.180000</speed>
</trkpt>
<trkpt lat="31.761358261" lon="35.369281769">
  <ele>289.666504</ele>
  <time>2011-11-18T08:40:41Z</time>
  <speed>5.770000</speed>
</trkpt>
<trkpt lat="31.761365891" lon="35.369342804">
  <ele>289.650879</ele>
  <time>2011-11-18T08:40:42Z</time>
  <speed>4.690000</speed>
</trkpt>
<trkpt lat="31.761379242" lon="35.369388580">
  <ele>288.791504</ele>
  <time>2011-11-18T08:40:43Z</time>
  <speed>4.180000</speed>
</trkpt>
<trkpt lat="31.761388779" lon="35.369430542">
  <ele>287.666504</ele>
  <time>2011-11-18T08:40:44Z</time>
  <speed>3.850000</speed>
</trkpt>
<trkpt lat="31.761390686" lon="35.369472504">
  <ele>287.814941</ele>
  <time>2011-11-18T08:40:45Z</time>
  <speed>3.650000</speed>
</trkpt>
<trkpt lat="31.761383057" lon="35.369510651">
  <ele>288.900879</ele>
  <time>2011-11-18T08:40:46Z</time>
  <speed>3.860000</speed>
</trkpt>
<trkpt lat="31.761381149" lon="35.369552612">
  <ele>289.822754</ele>
  <time>2011-11-18T08:40:47Z</time>
  <speed>3.400000</speed>
</trkpt>
<trkpt lat="31.761383057" lon="35.369594574">
  <ele>289.408691</ele>
  <time>2011-11-18T08:40:48Z</time>
  <speed>3.440000</speed>
</trkpt>
<trkpt lat="31.761375427" lon="35.369628906">
  <ele>289.580566</ele>
  <time>2011-11-18T08:40:49Z</time>
  <speed>3.360000</speed>
</trkpt>
<trkpt lat="31.761369705" lon="35.369667053">
  <ele>289.494629</ele>
  <time>2011-11-18T08:40:50Z</time>
  <speed>3.630000</speed>
</trkpt>
<trkpt lat="31.761369705" lon="35.369709015">
  <ele>289.424316</ele>
  <time>2011-11-18T08:40:51Z</time>
  <speed>3.550000</speed>
</trkpt>
<trkpt lat="31.761373520" lon="35.369743347">
  <ele>289.979004</ele>
  <time>2011-11-18T08:40:52Z</time>
  <speed>3.060000</speed>
</trkpt>
<trkpt lat="31.761369705" lon="35.369804382">
  <ele>289.330566</ele>
  <time>2011-11-18T08:40:54Z</time>
  <speed>2.560000</speed>
</trkpt>
<trkpt lat="31.761371613" lon="35.369857788">
  <ele>288.979004</ele>
  <time>2011-11-18T08:40:56Z</time>
  <speed>2.410000</speed>
</trkpt>
<trkpt lat="31.761367798" lon="35.369903564">
  <ele>289.557129</ele>
  <time>2011-11-18T08:40:58Z</time>
  <speed>2.150000</speed>
</trkpt>
<trkpt lat="31.761362076" lon="35.369941711">
  <ele>289.697754</ele>
  <time>2011-11-18T08:41:00Z</time>
  <speed>1.920000</speed>
</trkpt>
<trkpt lat="31.761348724" lon="35.369976044">
  <ele>290.096191</ele>
  <time>2011-11-18T08:41:02Z</time>
  <speed>2.080000</speed>
</trkpt>
<trkpt lat="31.761343002" lon="35.370018005">
  <ele>290.619629</ele>
  <time>2011-11-18T08:41:04Z</time>
  <speed>1.790000</speed>
</trkpt>
<trkpt lat="31.761337280" lon="35.370059967">
  <ele>290.768066</ele>
  <time>2011-11-18T08:41:06Z</time>
  <speed>1.610000</speed>
</trkpt>
<trkpt lat="31.761335373" lon="35.370109558">
  <ele>290.666504</ele>
  <time>2011-11-18T08:41:09Z</time>
  <speed>1.830000</speed>
</trkpt>
<trkpt lat="31.761333466" lon="35.370151520">
  <ele>290.877441</ele>
  <time>2011-11-18T08:41:11Z</time>
  <speed>1.540000</speed>
</trkpt>
<trkpt lat="31.761343002" lon="35.370201111">
  <ele>291.900879</ele>
  <time>2011-11-18T08:41:14Z</time>
  <speed>1.980000</speed>
</trkpt>
<trkpt lat="31.761362076" lon="35.370243073">
  <ele>293.080566</ele>
  <time>2011-11-18T08:41:16Z</time>
  <speed>2.160000</speed>
</trkpt>
<trkpt lat="31.761383057" lon="35.370285034">
  <ele>293.752441</ele>
  <time>2011-11-18T08:41:18Z</time>
  <speed>2.350000</speed>
</trkpt>
<trkpt lat="31.761404037" lon="35.370338440">
  <ele>293.854004</ele>
  <time>2011-11-18T08:41:20Z</time>
  <speed>3.070000</speed>
</trkpt>
<trkpt lat="31.761415482" lon="35.370372772">
  <ele>293.322754</ele>
  <time>2011-11-18T08:41:21Z</time>
  <speed>3.590000</speed>
</trkpt>
<trkpt lat="31.761438370" lon="35.370407104">
  <ele>293.166504</ele>
  <time>2011-11-18T08:41:22Z</time>
  <speed>4.180000</speed>
</trkpt>
<trkpt lat="31.761463165" lon="35.370449066">
  <ele>293.275879</ele>
  <time>2011-11-18T08:41:23Z</time>
  <speed>4.770000</speed>
</trkpt>
<trkpt lat="31.761489868" lon="35.370494843">
  <ele>293.510254</ele>
  <time>2011-11-18T08:41:24Z</time>
  <speed>5.080000</speed>
</trkpt>
<trkpt lat="31.761528015" lon="35.370540619">
  <ele>293.596191</ele>
  <time>2011-11-18T08:41:25Z</time>
  <speed>5.210000</speed>
</trkpt>
<trkpt lat="31.761554718" lon="35.370586395">
  <ele>293.799316</ele>
  <time>2011-11-18T08:41:26Z</time>
  <speed>5.310000</speed>
</trkpt>
<trkpt lat="31.761581421" lon="35.370635986">
  <ele>294.072754</ele>
  <time>2011-11-18T08:41:27Z</time>
  <speed>5.510000</speed>
</trkpt>
<trkpt lat="31.761610031" lon="35.370681763">
  <ele>293.627441</ele>
  <time>2011-11-18T08:41:28Z</time>
  <speed>5.310000</speed>
</trkpt>
<trkpt lat="31.761631012" lon="35.370727539">
  <ele>293.861816</ele>
  <time>2011-11-18T08:41:29Z</time>
  <speed>5.220000</speed>
</trkpt>
<trkpt lat="31.761648178" lon="35.370777130">
  <ele>294.338379</ele>
  <time>2011-11-18T08:41:30Z</time>
  <speed>4.830000</speed>
</trkpt>
<trkpt lat="31.761669159" lon="35.370819092">
  <ele>294.963379</ele>
  <time>2011-11-18T08:41:31Z</time>
  <speed>4.400000</speed>
</trkpt>
<trkpt lat="31.761690140" lon="35.370857239">
  <ele>295.189941</ele>
  <time>2011-11-18T08:41:32Z</time>
  <speed>4.050000</speed>
</trkpt>
<trkpt lat="31.761713028" lon="35.370887756">
  <ele>293.846191</ele>
  <time>2011-11-18T08:41:33Z</time>
  <speed>3.200000</speed>
</trkpt>
<trkpt lat="31.761730194" lon="35.370914459">
  <ele>293.791504</ele>
  <time>2011-11-18T08:41:34Z</time>
  <speed>3.000000</speed>
</trkpt>
<trkpt lat="31.761749268" lon="35.370960236">
  <ele>294.963379</ele>
  <time>2011-11-18T08:41:36Z</time>
  <speed>2.410000</speed>
</trkpt>
<trkpt lat="31.761766434" lon="35.371006012">
  <ele>295.783691</ele>
  <time>2011-11-18T08:41:38Z</time>
  <speed>2.200000</speed>
</trkpt>
<trkpt lat="31.761793137" lon="35.371047974">
  <ele>296.830566</ele>
  <time>2011-11-18T08:41:40Z</time>
  <speed>2.540000</speed>
</trkpt>
<trkpt lat="31.761819839" lon="35.371082306">
  <ele>296.252441</ele>
  <time>2011-11-18T08:41:42Z</time>
  <speed>2.440000</speed>
</trkpt>
<trkpt lat="31.761848450" lon="35.371109009">
  <ele>296.408691</ele>
  <time>2011-11-18T08:41:44Z</time>
  <speed>1.600000</speed>
</trkpt>
<trkpt lat="31.761886597" lon="35.371109009">
  <ele>296.111816</ele>
  <time>2011-11-18T08:41:47Z</time>
  <speed>1.380000</speed>
</trkpt>
<trkpt lat="31.761915207" lon="35.371112823">
  <ele>295.689941</ele>
  <time>2011-11-18T08:41:56Z</time>
  <speed>0.030000</speed>
</trkpt>
<trkpt lat="31.761890411" lon="35.371112823">
  <ele>294.150879</ele>
  <time>2011-11-18T08:51:57Z</time>
  <speed>0.310000</speed>
</trkpt>
<trkpt lat="31.761875153" lon="35.371150970">
  <ele>294.564941</ele>
  <time>2011-11-18T08:52:14Z</time>
  <speed>0.960000</speed>
</trkpt>
<trkpt lat="31.761873245" lon="35.371181488">
  <ele>295.135254</ele>
  <time>2011-11-18T08:52:16Z</time>
  <speed>0.650000</speed>
</trkpt>
<trkpt lat="31.761877060" lon="35.371219635">
  <ele>296.104004</ele>
  <time>2011-11-18T08:52:19Z</time>
  <speed>0.970000</speed>
</trkpt>
<trkpt lat="31.761869431" lon="35.371253967">
  <ele>297.018066</ele>
  <time>2011-11-18T08:52:21Z</time>
  <speed>1.010000</speed>
</trkpt>
<trkpt lat="31.761859894" lon="35.371284485">
  <ele>297.783691</ele>
  <time>2011-11-18T08:52:24Z</time>
  <speed>0.710000</speed>
</trkpt>
<trkpt lat="31.761850357" lon="35.371322632">
  <ele>299.494629</ele>
  <time>2011-11-18T08:52:26Z</time>
  <speed>0.140000</speed>
</trkpt>
<trkpt lat="31.761840820" lon="35.371368408">
  <ele>299.182129</ele>
  <time>2011-11-18T08:52:47Z</time>
  <speed>1.610000</speed>
</trkpt>
<trkpt lat="31.761846542" lon="35.371421814">
  <ele>298.080566</ele>
  <time>2011-11-18T08:52:49Z</time>
  <speed>3.600000</speed>
</trkpt>
<trkpt lat="31.761848450" lon="35.371467590">
  <ele>297.471191</ele>
  <time>2011-11-18T08:52:50Z</time>
  <speed>4.930000</speed>
</trkpt>
<trkpt lat="31.761856079" lon="35.371532440">
  <ele>297.096191</ele>
  <time>2011-11-18T08:52:51Z</time>
  <speed>5.680000</speed>
</trkpt>
<trkpt lat="31.761863708" lon="35.371604919">
  <ele>296.424316</ele>
  <time>2011-11-18T08:52:52Z</time>
  <speed>6.680000</speed>
</trkpt>
<trkpt lat="31.761873245" lon="35.371673584">
  <ele>295.471191</ele>
  <time>2011-11-18T08:52:53Z</time>
  <speed>7.350000</speed>
</trkpt>
<trkpt lat="31.761882782" lon="35.371749878">
  <ele>294.596191</ele>
  <time>2011-11-18T08:52:54Z</time>
  <speed>7.190000</speed>
</trkpt>
<trkpt lat="31.761899948" lon="35.371829987">
  <ele>294.846191</ele>
  <time>2011-11-18T08:52:55Z</time>
  <speed>7.440000</speed>
</trkpt>
<trkpt lat="31.761922836" lon="35.371906281">
  <ele>294.689941</ele>
  <time>2011-11-18T08:52:56Z</time>
  <speed>6.970000</speed>
</trkpt>
<trkpt lat="31.761941910" lon="35.371982574">
  <ele>294.924316</ele>
  <time>2011-11-18T08:52:57Z</time>
  <speed>7.000000</speed>
</trkpt>
<trkpt lat="31.761953354" lon="35.372055054">
  <ele>295.447754</ele>
  <time>2011-11-18T08:52:58Z</time>
  <speed>6.740000</speed>
</trkpt>
<trkpt lat="31.761957169" lon="35.372127533">
  <ele>295.885254</ele>
  <time>2011-11-18T08:52:59Z</time>
  <speed>6.440000</speed>
</trkpt>
<trkpt lat="31.761949539" lon="35.372196198">
  <ele>295.986816</ele>
  <time>2011-11-18T08:53:00Z</time>
  <speed>6.280000</speed>
</trkpt>
<trkpt lat="31.761938095" lon="35.372264862">
  <ele>296.299316</ele>
  <time>2011-11-18T08:53:01Z</time>
  <speed>6.280000</speed>
</trkpt>
<trkpt lat="31.761922836" lon="35.372333527">
  <ele>297.135254</ele>
  <time>2011-11-18T08:53:02Z</time>
  <speed>6.330000</speed>
</trkpt>
<trkpt lat="31.761907578" lon="35.372390747">
  <ele>297.549316</ele>
  <time>2011-11-18T08:53:03Z</time>
  <speed>6.100000</speed>
</trkpt>
<trkpt lat="31.761894226" lon="35.372447968">
  <ele>297.713379</ele>
  <time>2011-11-18T08:53:04Z</time>
  <speed>6.200000</speed>
</trkpt>
<trkpt lat="31.761878967" lon="35.372505188">
  <ele>298.174316</ele>
  <time>2011-11-18T08:53:05Z</time>
  <speed>4.370000</speed>
</trkpt>
<trkpt lat="31.761865616" lon="35.372543335">
  <ele>297.814941</ele>
  <time>2011-11-18T08:53:06Z</time>
  <speed>3.790000</speed>
</trkpt>
<trkpt lat="31.761863708" lon="35.372581482">
  <ele>297.064941</ele>
  <time>2011-11-18T08:53:07Z</time>
  <speed>3.620000</speed>
</trkpt>
<trkpt lat="31.761865616" lon="35.372619629">
  <ele>296.682129</ele>
  <time>2011-11-18T08:53:08Z</time>
  <speed>4.010000</speed>
</trkpt>
<trkpt lat="31.761871338" lon="35.372661591">
  <ele>295.947754</ele>
  <time>2011-11-18T08:53:09Z</time>
  <speed>3.690000</speed>
</trkpt>
<trkpt lat="31.761877060" lon="35.372695923">
  <ele>294.275879</ele>
  <time>2011-11-18T08:53:10Z</time>
  <speed>3.500000</speed>
</trkpt>
<trkpt lat="31.761886597" lon="35.372730255">
  <ele>293.939941</ele>
  <time>2011-11-18T08:53:11Z</time>
  <speed>3.680000</speed>
</trkpt>
<trkpt lat="31.761898041" lon="35.372764587">
  <ele>293.197754</ele>
  <time>2011-11-18T08:53:12Z</time>
  <speed>3.470000</speed>
</trkpt>
<trkpt lat="31.761909485" lon="35.372795105">
  <ele>291.689941</ele>
  <time>2011-11-18T08:53:13Z</time>
  <speed>3.430000</speed>
</trkpt>
<trkpt lat="31.761926651" lon="35.372825623">
  <ele>290.439941</ele>
  <time>2011-11-18T08:53:14Z</time>
  <speed>2.840000</speed>
</trkpt>
<trkpt lat="31.761945724" lon="35.372852325">
  <ele>289.463379</ele>
  <time>2011-11-18T08:53:15Z</time>
  <speed>3.210000</speed>
</trkpt>
<trkpt lat="31.761964798" lon="35.372875214">
  <ele>288.932129</ele>
  <time>2011-11-18T08:53:16Z</time>
  <speed>3.400000</speed>
</trkpt>
<trkpt lat="31.761983871" lon="35.372905731">
  <ele>288.424316</ele>
  <time>2011-11-18T08:53:17Z</time>
  <speed>3.600000</speed>
</trkpt>
<trkpt lat="31.762004852" lon="35.372940063">
  <ele>287.424316</ele>
  <time>2011-11-18T08:53:18Z</time>
  <speed>4.320000</speed>
</trkpt>
<trkpt lat="31.762029648" lon="35.372982025">
  <ele>286.244629</ele>
  <time>2011-11-18T08:53:19Z</time>
  <speed>4.830000</speed>
</trkpt>
<trkpt lat="31.762052536" lon="35.373027802">
  <ele>285.541504</ele>
  <time>2011-11-18T08:53:20Z</time>
  <speed>5.280000</speed>
</trkpt>
<trkpt lat="31.762081146" lon="35.373077393">
  <ele>284.627441</ele>
  <time>2011-11-18T08:53:21Z</time>
  <speed>5.880000</speed>
</trkpt>
<trkpt lat="31.762105942" lon="35.373130798">
  <ele>283.486816</ele>
  <time>2011-11-18T08:53:22Z</time>
  <speed>6.160000</speed>
</trkpt>
<trkpt lat="31.762138367" lon="35.373191833">
  <ele>282.939941</ele>
  <time>2011-11-18T08:53:23Z</time>
  <speed>6.370000</speed>
</trkpt>
<trkpt lat="31.762176514" lon="35.373252869">
  <ele>280.705566</ele>
  <time>2011-11-18T08:53:24Z</time>
  <speed>6.530000</speed>
</trkpt>
<trkpt lat="31.762208939" lon="35.373306274">
  <ele>280.416504</ele>
  <time>2011-11-18T08:53:25Z</time>
  <speed>6.620000</speed>
</trkpt>
<trkpt lat="31.762248993" lon="35.373359680">
  <ele>278.791504</ele>
  <time>2011-11-18T08:53:26Z</time>
  <speed>6.680000</speed>
</trkpt>
<trkpt lat="31.762289047" lon="35.373413086">
  <ele>278.025879</ele>
  <time>2011-11-18T08:53:27Z</time>
  <speed>6.300000</speed>
</trkpt>
<trkpt lat="31.762321472" lon="35.373451233">
  <ele>278.096191</ele>
  <time>2011-11-18T08:53:28Z</time>
  <speed>3.960000</speed>
</trkpt>
<trkpt lat="31.762355804" lon="35.373470306">
  <ele>278.721191</ele>
  <time>2011-11-18T08:53:29Z</time>
  <speed>3.580000</speed>
</trkpt>
<trkpt lat="31.762392044" lon="35.373485565">
  <ele>279.432129</ele>
  <time>2011-11-18T08:53:30Z</time>
  <speed>4.230000</speed>
</trkpt>
<trkpt lat="31.762434006" lon="35.373504639">
  <ele>279.604004</ele>
  <time>2011-11-18T08:53:31Z</time>
  <speed>5.360000</speed>
</trkpt>
<trkpt lat="31.762485504" lon="35.373519897">
  <ele>278.775879</ele>
  <time>2011-11-18T08:53:32Z</time>
  <speed>6.090000</speed>
</trkpt>
<trkpt lat="31.762540817" lon="35.373538971">
  <ele>278.244629</ele>
  <time>2011-11-18T08:53:33Z</time>
  <speed>6.760000</speed>
</trkpt>
<trkpt lat="31.762603760" lon="35.373550415">
  <ele>277.830566</ele>
  <time>2011-11-18T08:53:34Z</time>
  <speed>7.110000</speed>
</trkpt>
<trkpt lat="31.762670517" lon="35.373558044">
  <ele>276.479004</ele>
  <time>2011-11-18T08:53:35Z</time>
  <speed>7.400000</speed>
</trkpt>
<trkpt lat="31.762729645" lon="35.373569489">
  <ele>274.705566</ele>
  <time>2011-11-18T08:53:36Z</time>
  <speed>6.430000</speed>
</trkpt>
<trkpt lat="31.762783051" lon="35.373592377">
  <ele>274.729004</ele>
  <time>2011-11-18T08:53:37Z</time>
  <speed>5.970000</speed>
</trkpt>
<trkpt lat="31.762832642" lon="35.373611450">
  <ele>274.182129</ele>
  <time>2011-11-18T08:53:38Z</time>
  <speed>5.490000</speed>
</trkpt>
<trkpt lat="31.762882233" lon="35.373638153">
  <ele>274.049316</ele>
  <time>2011-11-18T08:53:39Z</time>
  <speed>5.690000</speed>
</trkpt>
<trkpt lat="31.762928009" lon="35.373672485">
  <ele>273.486816</ele>
  <time>2011-11-18T08:53:40Z</time>
  <speed>5.690000</speed>
</trkpt>
<trkpt lat="31.762964249" lon="35.373699188">
  <ele>273.150879</ele>
  <time>2011-11-18T08:53:41Z</time>
  <speed>4.980000</speed>
</trkpt>
<trkpt lat="31.763000488" lon="35.373722076">
  <ele>273.486816</ele>
  <time>2011-11-18T08:53:42Z</time>
  <speed>4.460000</speed>
</trkpt>
<trkpt lat="31.763032913" lon="35.373741150">
  <ele>273.955566</ele>
  <time>2011-11-18T08:53:43Z</time>
  <speed>3.700000</speed>
</trkpt>
<trkpt lat="31.763057709" lon="35.373756409">
  <ele>273.979004</ele>
  <time>2011-11-18T08:53:44Z</time>
  <speed>2.850000</speed>
</trkpt>
<trkpt lat="31.763082504" lon="35.373771667">
  <ele>273.760254</ele>
  <time>2011-11-18T08:53:45Z</time>
  <speed>2.700000</speed>
</trkpt>
<trkpt lat="31.763113022" lon="35.373817444">
  <ele>274.064941</ele>
  <time>2011-11-18T08:53:47Z</time>
  <speed>2.920000</speed>
</trkpt>
<trkpt lat="31.763135910" lon="35.373878479">
  <ele>273.900879</ele>
  <time>2011-11-18T08:53:49Z</time>
  <speed>2.920000</speed>
</trkpt>
<trkpt lat="31.763156891" lon="35.373901367">
  <ele>274.205566</ele>
  <time>2011-11-18T08:53:50Z</time>
  <speed>2.340000</speed>
</trkpt>
<trkpt lat="31.763183594" lon="35.373928070">
  <ele>273.744629</ele>
  <time>2011-11-18T08:53:52Z</time>
  <speed>2.130000</speed>
</trkpt>
<trkpt lat="31.763212204" lon="35.373962402">
  <ele>273.338379</ele>
  <time>2011-11-18T08:53:54Z</time>
  <speed>2.530000</speed>
</trkpt>
<trkpt lat="31.763237000" lon="35.374008179">
  <ele>272.299316</ele>
  <time>2011-11-18T08:53:56Z</time>
  <speed>3.540000</speed>
</trkpt>
<trkpt lat="31.763261795" lon="35.374042511">
  <ele>271.268066</ele>
  <time>2011-11-18T08:53:57Z</time>
  <speed>4.100000</speed>
</trkpt>
<trkpt lat="31.763277054" lon="35.374080658">
  <ele>270.877441</ele>
  <time>2011-11-18T08:53:58Z</time>
  <speed>4.500000</speed>
</trkpt>
<trkpt lat="31.763309479" lon="35.374118805">
  <ele>270.518066</ele>
  <time>2011-11-18T08:53:59Z</time>
  <speed>4.860000</speed>
</trkpt>
<trkpt lat="31.763336182" lon="35.374156952">
  <ele>270.807129</ele>
  <time>2011-11-18T08:54:00Z</time>
  <speed>5.130000</speed>
</trkpt>
<trkpt lat="31.763362885" lon="35.374198914">
  <ele>271.166504</ele>
  <time>2011-11-18T08:54:01Z</time>
  <speed>4.760000</speed>
</trkpt>
<trkpt lat="31.763389587" lon="35.374240875">
  <ele>271.557129</ele>
  <time>2011-11-18T08:54:02Z</time>
  <speed>4.450000</speed>
</trkpt>
<trkpt lat="31.763418198" lon="35.374279022">
  <ele>270.807129</ele>
  <time>2011-11-18T08:54:03Z</time>
  <speed>3.800000</speed>
</trkpt>
<trkpt lat="31.763444901" lon="35.374340057">
  <ele>270.799316</ele>
  <time>2011-11-18T08:54:05Z</time>
  <speed>2.880000</speed>
</trkpt>
<trkpt lat="31.763467789" lon="35.374385834">
  <ele>271.869629</ele>
  <time>2011-11-18T08:54:07Z</time>
  <speed>2.110000</speed>
</trkpt>
<trkpt lat="31.763505936" lon="35.374412537">
  <ele>271.768066</ele>
  <time>2011-11-18T08:54:09Z</time>
  <speed>2.370000</speed>
</trkpt>
<trkpt lat="31.763540268" lon="35.374443054">
  <ele>271.338379</ele>
  <time>2011-11-18T08:54:11Z</time>
  <speed>1.900000</speed>
</trkpt>
<trkpt lat="31.763565063" lon="35.374485016">
  <ele>271.268066</ele>
  <time>2011-11-18T08:54:13Z</time>
  <speed>2.890000</speed>
</trkpt>
<trkpt lat="31.763584137" lon="35.374538422">
  <ele>269.580566</ele>
  <time>2011-11-18T08:54:15Z</time>
  <speed>2.800000</speed>
</trkpt>
<trkpt lat="31.763601303" lon="35.374568939">
  <ele>267.986816</ele>
  <time>2011-11-18T08:54:16Z</time>
  <speed>3.130000</speed>
</trkpt>
<trkpt lat="31.763618469" lon="35.374595642">
  <ele>266.713379</ele>
  <time>2011-11-18T08:54:17Z</time>
  <speed>3.470000</speed>
</trkpt>
<trkpt lat="31.763635635" lon="35.374626160">
  <ele>266.080566</ele>
  <time>2011-11-18T08:54:18Z</time>
  <speed>4.010000</speed>
</trkpt>
<trkpt lat="31.763654709" lon="35.374668121">
  <ele>264.752441</ele>
  <time>2011-11-18T08:54:19Z</time>
  <speed>4.800000</speed>
</trkpt>
<trkpt lat="31.763681412" lon="35.374717712">
  <ele>263.588379</ele>
  <time>2011-11-18T08:54:20Z</time>
  <speed>5.670000</speed>
</trkpt>
<trkpt lat="31.763715744" lon="35.374767303">
  <ele>262.166504</ele>
  <time>2011-11-18T08:54:21Z</time>
  <speed>5.790000</speed>
</trkpt>
<trkpt lat="31.763765335" lon="35.374801636">
  <ele>259.963379</ele>
  <time>2011-11-18T08:54:22Z</time>
  <speed>6.490000</speed>
</trkpt>
<trkpt lat="31.763826370" lon="35.374820709">
  <ele>258.205566</ele>
  <time>2011-11-18T08:54:23Z</time>
  <speed>6.860000</speed>
</trkpt>
<trkpt lat="31.763891220" lon="35.374847412">
  <ele>256.299316</ele>
  <time>2011-11-18T08:54:24Z</time>
  <speed>7.700000</speed>
</trkpt>
<trkpt lat="31.763950348" lon="35.374881744">
  <ele>254.985596</ele>
  <time>2011-11-18T08:54:25Z</time>
  <speed>7.290000</speed>
</trkpt>
<trkpt lat="31.763990402" lon="35.374938965">
  <ele>253.981689</ele>
  <time>2011-11-18T08:54:26Z</time>
  <speed>7.110000</speed>
</trkpt>
<trkpt lat="31.764024734" lon="35.375000000">
  <ele>253.563721</ele>
  <time>2011-11-18T08:54:27Z</time>
  <speed>6.550000</speed>
</trkpt>
<trkpt lat="31.764055252" lon="35.375064850">
  <ele>251.954346</ele>
  <time>2011-11-18T08:54:28Z</time>
  <speed>6.320000</speed>
</trkpt>
<trkpt lat="31.764081955" lon="35.375125885">
  <ele>251.399658</ele>
  <time>2011-11-18T08:54:29Z</time>
  <speed>5.840000</speed>
</trkpt>
<trkpt lat="31.764104843" lon="35.375175476">
  <ele>251.786377</ele>
  <time>2011-11-18T08:54:30Z</time>
  <speed>5.190000</speed>
</trkpt>
<trkpt lat="31.764131546" lon="35.375217438">
  <ele>251.954346</ele>
  <time>2011-11-18T08:54:31Z</time>
  <speed>5.120000</speed>
</trkpt>
<trkpt lat="31.764163971" lon="35.375259399">
  <ele>251.719971</ele>
  <time>2011-11-18T08:54:32Z</time>
  <speed>5.240000</speed>
</trkpt>
<trkpt lat="31.764192581" lon="35.375305176">
  <ele>250.813721</ele>
  <time>2011-11-18T08:54:33Z</time>
  <speed>5.310000</speed>
</trkpt>
<trkpt lat="31.764221191" lon="35.375358582">
  <ele>250.344971</ele>
  <time>2011-11-18T08:54:34Z</time>
  <speed>6.120000</speed>
</trkpt>
<trkpt lat="31.764251709" lon="35.375411987">
  <ele>250.321533</ele>
  <time>2011-11-18T08:54:35Z</time>
  <speed>6.320000</speed>
</trkpt>
<trkpt lat="31.764286041" lon="35.375465393">
  <ele>250.747314</ele>
  <time>2011-11-18T08:54:36Z</time>
  <speed>6.100000</speed>
</trkpt>
<trkpt lat="31.764324188" lon="35.375514984">
  <ele>250.059814</ele>
  <time>2011-11-18T08:54:37Z</time>
  <speed>5.820000</speed>
</trkpt>
<trkpt lat="31.764347076" lon="35.375572205">
  <ele>249.790283</ele>
  <time>2011-11-18T08:54:38Z</time>
  <speed>5.790000</speed>
</trkpt>
<trkpt lat="31.764369965" lon="35.375629425">
  <ele>248.528564</ele>
  <time>2011-11-18T08:54:39Z</time>
  <speed>5.830000</speed>
</trkpt>
<trkpt lat="31.764402390" lon="35.375686646">
  <ele>247.321533</ele>
  <time>2011-11-18T08:54:40Z</time>
  <speed>6.220000</speed>
</trkpt>
<trkpt lat="31.764429092" lon="35.375743866">
  <ele>247.395752</ele>
  <time>2011-11-18T08:54:41Z</time>
  <speed>6.050000</speed>
</trkpt>
<trkpt lat="31.764442444" lon="35.375801086">
  <ele>247.860596</ele>
  <time>2011-11-18T08:54:42Z</time>
  <speed>5.550000</speed>
</trkpt>
<trkpt lat="31.764459610" lon="35.375850677">
  <ele>247.313721</ele>
  <time>2011-11-18T08:54:43Z</time>
  <speed>5.200000</speed>
</trkpt>
<trkpt lat="31.764474869" lon="35.375907898">
  <ele>246.122314</ele>
  <time>2011-11-18T08:54:44Z</time>
  <speed>5.580000</speed>
</trkpt>
<trkpt lat="31.764492035" lon="35.375965118">
  <ele>245.969971</ele>
  <time>2011-11-18T08:54:45Z</time>
  <speed>5.770000</speed>
</trkpt>
<trkpt lat="31.764505386" lon="35.376026154">
  <ele>245.911377</ele>
  <time>2011-11-18T08:54:46Z</time>
  <speed>6.120000</speed>
</trkpt>
<trkpt lat="31.764522552" lon="35.376087189">
  <ele>245.821533</ele>
  <time>2011-11-18T08:54:47Z</time>
  <speed>6.170000</speed>
</trkpt>
<trkpt lat="31.764533997" lon="35.376155853">
  <ele>245.423096</ele>
  <time>2011-11-18T08:54:48Z</time>
  <speed>6.210000</speed>
</trkpt>
<trkpt lat="31.764537811" lon="35.376224518">
  <ele>244.563721</ele>
  <time>2011-11-18T08:54:49Z</time>
  <speed>6.660000</speed>
</trkpt>
<trkpt lat="31.764543533" lon="35.376293182">
  <ele>244.282471</ele>
  <time>2011-11-18T08:54:50Z</time>
  <speed>6.310000</speed>
</trkpt>
<trkpt lat="31.764554977" lon="35.376354218">
  <ele>244.177002</ele>
  <time>2011-11-18T08:54:51Z</time>
  <speed>6.300000</speed>
</trkpt>
<trkpt lat="31.764572144" lon="35.376411438">
  <ele>242.919189</ele>
  <time>2011-11-18T08:54:52Z</time>
  <speed>6.060000</speed>
</trkpt>
<trkpt lat="31.764585495" lon="35.376476288">
  <ele>242.497314</ele>
  <time>2011-11-18T08:54:53Z</time>
  <speed>5.780000</speed>
</trkpt>
<trkpt lat="31.764602661" lon="35.376525879">
  <ele>242.137939</ele>
  <time>2011-11-18T08:54:54Z</time>
  <speed>5.160000</speed>
</trkpt>
<trkpt lat="31.764623642" lon="35.376571655">
  <ele>242.719971</ele>
  <time>2011-11-18T08:54:55Z</time>
  <speed>4.710000</speed>
</trkpt>
<trkpt lat="31.764644623" lon="35.376613617">
  <ele>243.298096</ele>
  <time>2011-11-18T08:54:56Z</time>
  <speed>4.770000</speed>
</trkpt>
<trkpt lat="31.764657974" lon="35.376667023">
  <ele>243.216064</ele>
  <time>2011-11-18T08:54:57Z</time>
  <speed>4.790000</speed>
</trkpt>
<trkpt lat="31.764661789" lon="35.376716614">
  <ele>243.348877</ele>
  <time>2011-11-18T08:54:58Z</time>
  <speed>4.700000</speed>
</trkpt>
<trkpt lat="31.764669418" lon="35.376750946">
  <ele>243.180908</ele>
  <time>2011-11-18T08:54:59Z</time>
  <speed>4.140000</speed>
</trkpt>
<trkpt lat="31.764675140" lon="35.376789093">
  <ele>243.364502</ele>
  <time>2011-11-18T08:55:00Z</time>
  <speed>3.470000</speed>
</trkpt>
<trkpt lat="31.764684677" lon="35.376827240">
  <ele>243.544189</ele>
  <time>2011-11-18T08:55:01Z</time>
  <speed>3.920000</speed>
</trkpt>
<trkpt lat="31.764692307" lon="35.376869202">
  <ele>243.329346</ele>
  <time>2011-11-18T08:55:02Z</time>
  <speed>4.010000</speed>
</trkpt>
<trkpt lat="31.764705658" lon="35.376907349">
  <ele>243.411377</ele>
  <time>2011-11-18T08:55:03Z</time>
  <speed>4.000000</speed>
</trkpt>
<trkpt lat="31.764724731" lon="35.376945496">
  <ele>244.067627</ele>
  <time>2011-11-18T08:55:04Z</time>
  <speed>4.190000</speed>
</trkpt>
<trkpt lat="31.764745712" lon="35.376979828">
  <ele>244.130127</ele>
  <time>2011-11-18T08:55:05Z</time>
  <speed>3.790000</speed>
</trkpt>
<trkpt lat="31.764768600" lon="35.377002716">
  <ele>245.052002</ele>
  <time>2011-11-18T08:55:06Z</time>
  <speed>3.430000</speed>
</trkpt>
<trkpt lat="31.764797211" lon="35.377025604">
  <ele>244.923096</ele>
  <time>2011-11-18T08:55:07Z</time>
  <speed>3.700000</speed>
</trkpt>
<trkpt lat="31.764827728" lon="35.377044678">
  <ele>245.235596</ele>
  <time>2011-11-18T08:55:08Z</time>
  <speed>4.070000</speed>
</trkpt>
<trkpt lat="31.764863968" lon="35.377063751">
  <ele>245.622314</ele>
  <time>2011-11-18T08:55:09Z</time>
  <speed>4.490000</speed>
</trkpt>
<trkpt lat="31.764900208" lon="35.377075195">
  <ele>245.587158</ele>
  <time>2011-11-18T08:55:10Z</time>
  <speed>4.690000</speed>
</trkpt>
<trkpt lat="31.764942169" lon="35.377094269">
  <ele>245.407471</ele>
  <time>2011-11-18T08:55:11Z</time>
  <speed>4.630000</speed>
</trkpt>
<trkpt lat="31.764987946" lon="35.377109528">
  <ele>245.286377</ele>
  <time>2011-11-18T08:55:12Z</time>
  <speed>5.260000</speed>
</trkpt>
<trkpt lat="31.765031815" lon="35.377128601">
  <ele>244.860596</ele>
  <time>2011-11-18T08:55:13Z</time>
  <speed>5.730000</speed>
</trkpt>
<trkpt lat="31.765077591" lon="35.377151489">
  <ele>244.071533</ele>
  <time>2011-11-18T08:55:14Z</time>
  <speed>5.270000</speed>
</trkpt>
<trkpt lat="31.765125275" lon="35.377178192">
  <ele>243.591064</ele>
  <time>2011-11-18T08:55:15Z</time>
  <speed>5.540000</speed>
</trkpt>
<trkpt lat="31.765171051" lon="35.377208710">
  <ele>243.700439</ele>
  <time>2011-11-18T08:55:16Z</time>
  <speed>5.310000</speed>
</trkpt>
<trkpt lat="31.765209198" lon="35.377235413">
  <ele>244.180908</ele>
  <time>2011-11-18T08:55:17Z</time>
  <speed>4.870000</speed>
</trkpt>
<trkpt lat="31.765237808" lon="35.377273560">
  <ele>244.118408</ele>
  <time>2011-11-18T08:55:18Z</time>
  <speed>4.900000</speed>
</trkpt>
<trkpt lat="31.765266418" lon="35.377315521">
  <ele>243.594971</ele>
  <time>2011-11-18T08:55:19Z</time>
  <speed>5.140000</speed>
</trkpt>
<trkpt lat="31.765293121" lon="35.377365112">
  <ele>243.302002</ele>
  <time>2011-11-18T08:55:20Z</time>
  <speed>5.480000</speed>
</trkpt>
<trkpt lat="31.765314102" lon="35.377418518">
  <ele>243.579346</ele>
  <time>2011-11-18T08:55:21Z</time>
  <speed>5.760000</speed>
</trkpt>
<trkpt lat="31.765335083" lon="35.377471924">
  <ele>243.665283</ele>
  <time>2011-11-18T08:55:22Z</time>
  <speed>5.490000</speed>
</trkpt>
<trkpt lat="31.765359879" lon="35.377525330">
  <ele>243.927002</ele>
  <time>2011-11-18T08:55:23Z</time>
  <speed>5.690000</speed>
</trkpt>
<trkpt lat="31.765390396" lon="35.377574921">
  <ele>242.997314</ele>
  <time>2011-11-18T08:55:24Z</time>
  <speed>5.260000</speed>
</trkpt>
<trkpt lat="31.765409470" lon="35.377620697">
  <ele>242.704346</ele>
  <time>2011-11-18T08:55:25Z</time>
  <speed>4.610000</speed>
</trkpt>
<trkpt lat="31.765426636" lon="35.377658844">
  <ele>243.122314</ele>
  <time>2011-11-18T08:55:26Z</time>
  <speed>4.140000</speed>
</trkpt>
<trkpt lat="31.765439987" lon="35.377689362">
  <ele>242.829346</ele>
  <time>2011-11-18T08:55:27Z</time>
  <speed>3.720000</speed>
</trkpt>
<trkpt lat="31.765453339" lon="35.377719879">
  <ele>241.704346</ele>
  <time>2011-11-18T08:55:28Z</time>
  <speed>2.980000</speed>
</trkpt>
<trkpt lat="31.765462875" lon="35.377765656">
  <ele>241.040283</ele>
  <time>2011-11-18T08:55:30Z</time>
  <speed>1.510000</speed>
</trkpt>
<trkpt lat="31.765483856" lon="35.377803802">
  <ele>242.329346</ele>
  <time>2011-11-18T08:56:52Z</time>
  <speed>2.970000</speed>
</trkpt>
<trkpt lat="31.765495300" lon="35.377834320">
  <ele>241.962158</ele>
  <time>2011-11-18T08:56:53Z</time>
  <speed>3.500000</speed>
</trkpt>
<trkpt lat="31.765512466" lon="35.377872467">
  <ele>241.895752</ele>
  <time>2011-11-18T08:56:54Z</time>
  <speed>4.590000</speed>
</trkpt>
<trkpt lat="31.765537262" lon="35.377918243">
  <ele>241.094971</ele>
  <time>2011-11-18T08:56:55Z</time>
  <speed>5.490000</speed>
</trkpt>
<trkpt lat="31.765579224" lon="35.377964020">
  <ele>240.684814</ele>
  <time>2011-11-18T08:56:56Z</time>
  <speed>6.130000</speed>
</trkpt>
<trkpt lat="31.765626907" lon="35.377998352">
  <ele>239.923096</ele>
  <time>2011-11-18T08:56:57Z</time>
  <speed>5.990000</speed>
</trkpt>
<trkpt lat="31.765661240" lon="35.378036499">
  <ele>240.427002</ele>
  <time>2011-11-18T08:56:58Z</time>
  <speed>4.110000</speed>
</trkpt>
<trkpt lat="31.765689850" lon="35.378070831">
  <ele>240.040283</ele>
  <time>2011-11-18T08:56:59Z</time>
  <speed>5.090000</speed>
</trkpt>
<trkpt lat="31.765729904" lon="35.378112793">
  <ele>238.872314</ele>
  <time>2011-11-18T08:57:00Z</time>
  <speed>6.110000</speed>
</trkpt>
<trkpt lat="31.765779495" lon="35.378166199">
  <ele>237.520752</ele>
  <time>2011-11-18T08:57:01Z</time>
  <speed>7.350000</speed>
</trkpt>
<trkpt lat="31.765829086" lon="35.378231049">
  <ele>237.219971</ele>
  <time>2011-11-18T08:57:02Z</time>
  <speed>8.060000</speed>
</trkpt>
<trkpt lat="31.765880585" lon="35.378295898">
  <ele>236.454346</ele>
  <time>2011-11-18T08:57:03Z</time>
  <speed>8.150000</speed>
</trkpt>
<trkpt lat="31.765909195" lon="35.378372192">
  <ele>235.661377</ele>
  <time>2011-11-18T08:57:04Z</time>
  <speed>8.250000</speed>
</trkpt>
<trkpt lat="31.765914917" lon="35.378452301">
  <ele>235.055908</ele>
  <time>2011-11-18T08:57:05Z</time>
  <speed>6.900000</speed>
</trkpt>
<trkpt lat="31.765918732" lon="35.378528595">
  <ele>234.130127</ele>
  <time>2011-11-18T08:57:06Z</time>
  <speed>7.340000</speed>
</trkpt>
<trkpt lat="31.765920639" lon="35.378608704">
  <ele>233.196533</ele>
  <time>2011-11-18T08:57:07Z</time>
  <speed>6.710000</speed>
</trkpt>
<trkpt lat="31.765926361" lon="35.378677368">
  <ele>233.696533</ele>
  <time>2011-11-18T08:57:08Z</time>
  <speed>6.130000</speed>
</trkpt>
<trkpt lat="31.765943527" lon="35.378742218">
  <ele>233.341064</ele>
  <time>2011-11-18T08:57:09Z</time>
  <speed>5.860000</speed>
</trkpt>
<trkpt lat="31.765966415" lon="35.378803253">
  <ele>233.485596</ele>
  <time>2011-11-18T08:57:10Z</time>
  <speed>5.550000</speed>
</trkpt>
<trkpt lat="31.765993118" lon="35.378849030">
  <ele>233.040283</ele>
  <time>2011-11-18T08:57:11Z</time>
  <speed>5.250000</speed>
</trkpt>
<trkpt lat="31.766019821" lon="35.378898621">
  <ele>232.880127</ele>
  <time>2011-11-18T08:57:12Z</time>
  <speed>5.420000</speed>
</trkpt>
<trkpt lat="31.766050339" lon="35.378940582">
  <ele>232.044189</ele>
  <time>2011-11-18T08:57:13Z</time>
  <speed>5.480000</speed>
</trkpt>
<trkpt lat="31.766078949" lon="35.378990173">
  <ele>230.594971</ele>
  <time>2011-11-18T08:57:14Z</time>
  <speed>5.870000</speed>
</trkpt>
<trkpt lat="31.766109467" lon="35.379055023">
  <ele>229.294189</ele>
  <time>2011-11-18T08:57:15Z</time>
  <speed>7.100000</speed>
</trkpt>
<trkpt lat="31.766119003" lon="35.379127502">
  <ele>228.454346</ele>
  <time>2011-11-18T08:57:16Z</time>
  <speed>7.200000</speed>
</trkpt>
<trkpt lat="31.766117096" lon="35.379196167">
  <ele>228.415283</ele>
  <time>2011-11-18T08:57:17Z</time>
  <speed>6.080000</speed>
</trkpt>
<trkpt lat="31.766096115" lon="35.379253387">
  <ele>229.134033</ele>
  <time>2011-11-18T08:57:18Z</time>
  <speed>5.160000</speed>
</trkpt>
<trkpt lat="31.766075134" lon="35.379306793">
  <ele>228.837158</ele>
  <time>2011-11-18T08:57:19Z</time>
  <speed>5.430000</speed>
</trkpt>
<trkpt lat="31.766046524" lon="35.379348755">
  <ele>228.559814</ele>
  <time>2011-11-18T08:57:20Z</time>
  <speed>4.920000</speed>
</trkpt>
<trkpt lat="31.766010284" lon="35.379386902">
  <ele>228.395752</ele>
  <time>2011-11-18T08:57:21Z</time>
  <speed>4.920000</speed>
</trkpt>
<trkpt lat="31.765975952" lon="35.379432678">
  <ele>228.278564</ele>
  <time>2011-11-18T08:57:22Z</time>
  <speed>5.150000</speed>
</trkpt>
<trkpt lat="31.765947342" lon="35.379474640">
  <ele>227.759033</ele>
  <time>2011-11-18T08:57:23Z</time>
  <speed>5.150000</speed>
</trkpt>
<trkpt lat="31.765918732" lon="35.379516602">
  <ele>228.032471</ele>
  <time>2011-11-18T08:57:24Z</time>
  <speed>4.880000</speed>
</trkpt>
<trkpt lat="31.765892029" lon="35.379554749">
  <ele>228.446533</ele>
  <time>2011-11-18T08:57:25Z</time>
  <speed>4.440000</speed>
</trkpt>
<trkpt lat="31.765871048" lon="35.379589081">
  <ele>228.864502</ele>
  <time>2011-11-18T08:57:26Z</time>
  <speed>4.300000</speed>
</trkpt>
<trkpt lat="31.765850067" lon="35.379638672">
  <ele>229.509033</ele>
  <time>2011-11-18T08:57:27Z</time>
  <speed>4.820000</speed>
</trkpt>
<trkpt lat="31.765827179" lon="35.379684448">
  <ele>229.302002</ele>
  <time>2011-11-18T08:57:28Z</time>
  <speed>4.990000</speed>
</trkpt>
<trkpt lat="31.765810013" lon="35.379734039">
  <ele>229.747314</ele>
  <time>2011-11-18T08:57:29Z</time>
  <speed>5.360000</speed>
</trkpt>
<trkpt lat="31.765790939" lon="35.379783630">
  <ele>229.454346</ele>
  <time>2011-11-18T08:57:30Z</time>
  <speed>5.160000</speed>
</trkpt>
<trkpt lat="31.765775681" lon="35.379837036">
  <ele>229.309814</ele>
  <time>2011-11-18T08:57:31Z</time>
  <speed>5.190000</speed>
</trkpt>
<trkpt lat="31.765766144" lon="35.379886627">
  <ele>229.188721</ele>
  <time>2011-11-18T08:57:32Z</time>
  <speed>4.180000</speed>
</trkpt>
<trkpt lat="31.765750885" lon="35.379924774">
  <ele>228.454346</ele>
  <time>2011-11-18T08:57:33Z</time>
  <speed>4.070000</speed>
</trkpt>
<trkpt lat="31.765733719" lon="35.379962921">
  <ele>228.512939</ele>
  <time>2011-11-18T08:57:34Z</time>
  <speed>4.160000</speed>
</trkpt>
<trkpt lat="31.765712738" lon="35.380001068">
  <ele>228.618408</ele>
  <time>2011-11-18T08:57:35Z</time>
  <speed>4.010000</speed>
</trkpt>
<trkpt lat="31.765699387" lon="35.380039215">
  <ele>228.774658</ele>
  <time>2011-11-18T08:57:36Z</time>
  <speed>3.920000</speed>
</trkpt>
<trkpt lat="31.765687943" lon="35.380092621">
  <ele>229.630127</ele>
  <time>2011-11-18T08:57:37Z</time>
  <speed>3.890000</speed>
</trkpt>
<trkpt lat="31.765678406" lon="35.380134583">
  <ele>230.188721</ele>
  <time>2011-11-18T08:57:38Z</time>
  <speed>3.820000</speed>
</trkpt>
<trkpt lat="31.765670776" lon="35.380172729">
  <ele>230.356689</ele>
  <time>2011-11-18T08:57:39Z</time>
  <speed>3.710000</speed>
</trkpt>
<trkpt lat="31.765666962" lon="35.380214691">
  <ele>230.813721</ele>
  <time>2011-11-18T08:57:40Z</time>
  <speed>3.590000</speed>
</trkpt>
<trkpt lat="31.765665054" lon="35.380252838">
  <ele>231.048096</ele>
  <time>2011-11-18T08:57:41Z</time>
  <speed>3.600000</speed>
</trkpt>
<trkpt lat="31.765672684" lon="35.380287170">
  <ele>231.278564</ele>
  <time>2011-11-18T08:57:42Z</time>
  <speed>2.690000</speed>
</trkpt>
<trkpt lat="31.765697479" lon="35.380340576">
  <ele>231.462158</ele>
  <time>2011-11-18T08:57:44Z</time>
  <speed>3.150000</speed>
</trkpt>
<trkpt lat="31.765712738" lon="35.380374908">
  <ele>231.895752</ele>
  <time>2011-11-18T08:57:45Z</time>
  <speed>3.370000</speed>
</trkpt>
<trkpt lat="31.765750885" lon="35.380420685">
  <ele>231.122314</ele>
  <time>2011-11-18T08:57:47Z</time>
  <speed>2.730000</speed>
</trkpt>
<trkpt lat="31.765771866" lon="35.380447388">
  <ele>230.969971</ele>
  <time>2011-11-18T08:57:48Z</time>
  <speed>2.910000</speed>
</trkpt>
<trkpt lat="31.765800476" lon="35.380462646">
  <ele>230.579346</ele>
  <time>2011-11-18T08:57:49Z</time>
  <speed>3.330000</speed>
</trkpt>
<trkpt lat="31.765825272" lon="35.380485535">
  <ele>230.391846</ele>
  <time>2011-11-18T08:57:50Z</time>
  <speed>3.350000</speed>
</trkpt>
<trkpt lat="31.765857697" lon="35.380493164">
  <ele>230.364502</ele>
  <time>2011-11-18T08:57:51Z</time>
  <speed>3.070000</speed>
</trkpt>
<trkpt lat="31.765886307" lon="35.380496979">
  <ele>229.786377</ele>
  <time>2011-11-18T08:57:52Z</time>
  <speed>3.510000</speed>
</trkpt>
<trkpt lat="31.765924454" lon="35.380504608">
  <ele>229.251221</ele>
  <time>2011-11-18T08:57:53Z</time>
  <speed>4.390000</speed>
</trkpt>
<trkpt lat="31.765975952" lon="35.380504608">
  <ele>228.536377</ele>
  <time>2011-11-18T08:57:54Z</time>
  <speed>5.150000</speed>
</trkpt>
<trkpt lat="31.766025543" lon="35.380516052">
  <ele>227.919189</ele>
  <time>2011-11-18T08:57:55Z</time>
  <speed>5.590000</speed>
</trkpt>
<trkpt lat="31.766086578" lon="35.380527496">
  <ele>226.024658</ele>
  <time>2011-11-18T08:57:56Z</time>
  <speed>6.820000</speed>
</trkpt>
<trkpt lat="31.766147614" lon="35.380550385">
  <ele>225.516846</ele>
  <time>2011-11-18T08:57:57Z</time>
  <speed>7.110000</speed>
</trkpt>
<trkpt lat="31.766193390" lon="35.380599976">
  <ele>225.067627</ele>
  <time>2011-11-18T08:57:58Z</time>
  <speed>6.080000</speed>
</trkpt>
<trkpt lat="31.766227722" lon="35.380645752">
  <ele>224.071533</ele>
  <time>2011-11-18T08:57:59Z</time>
  <speed>6.230000</speed>
</trkpt>
<trkpt lat="31.766262054" lon="35.380706787">
  <ele>224.231689</ele>
  <time>2011-11-18T08:58:00Z</time>
  <speed>6.120000</speed>
</trkpt>
<trkpt lat="31.766296387" lon="35.380764008">
  <ele>223.645752</ele>
  <time>2011-11-18T08:58:01Z</time>
  <speed>6.410000</speed>
</trkpt>
<trkpt lat="31.766323090" lon="35.380825043">
  <ele>223.341064</ele>
  <time>2011-11-18T08:58:02Z</time>
  <speed>6.680000</speed>
</trkpt>
<trkpt lat="31.766357422" lon="35.380886078">
  <ele>223.098877</ele>
  <time>2011-11-18T08:58:03Z</time>
  <speed>6.620000</speed>
</trkpt>
<trkpt lat="31.766391754" lon="35.380943298">
  <ele>223.091064</ele>
  <time>2011-11-18T08:58:04Z</time>
  <speed>6.480000</speed>
</trkpt>
<trkpt lat="31.766427994" lon="35.381004333">
  <ele>223.755127</ele>
  <time>2011-11-18T08:58:05Z</time>
  <speed>7.060000</speed>
</trkpt>
<trkpt lat="31.766464233" lon="35.381069183">
  <ele>223.637939</ele>
  <time>2011-11-18T08:58:06Z</time>
  <speed>7.360000</speed>
</trkpt>
<trkpt lat="31.766502380" lon="35.381130219">
  <ele>223.251221</ele>
  <time>2011-11-18T08:58:07Z</time>
  <speed>7.620000</speed>
</trkpt>
<trkpt lat="31.766536713" lon="35.381198883">
  <ele>223.993408</ele>
  <time>2011-11-18T08:58:08Z</time>
  <speed>7.080000</speed>
</trkpt>
<trkpt lat="31.766571045" lon="35.381252289">
  <ele>223.880127</ele>
  <time>2011-11-18T08:58:09Z</time>
  <speed>6.510000</speed>
</trkpt>
<trkpt lat="31.766603470" lon="35.381309509">
  <ele>224.977783</ele>
  <time>2011-11-18T08:58:10Z</time>
  <speed>6.090000</speed>
</trkpt>
<trkpt lat="31.766637802" lon="35.381355286">
  <ele>224.942627</ele>
  <time>2011-11-18T08:58:11Z</time>
  <speed>5.500000</speed>
</trkpt>
<trkpt lat="31.766666412" lon="35.381401062">
  <ele>224.891846</ele>
  <time>2011-11-18T08:58:12Z</time>
  <speed>5.510000</speed>
</trkpt>
<trkpt lat="31.766704559" lon="35.381443024">
  <ele>226.184814</ele>
  <time>2011-11-18T08:58:13Z</time>
  <speed>5.460000</speed>
</trkpt>
<trkpt lat="31.766735077" lon="35.381473541">
  <ele>227.790283</ele>
  <time>2011-11-18T08:58:14Z</time>
  <speed>3.860000</speed>
</trkpt>
<trkpt lat="31.766761780" lon="35.381481171">
  <ele>227.880127</ele>
  <time>2011-11-18T08:58:15Z</time>
  <speed>2.650000</speed>
</trkpt>
<trkpt lat="31.766796112" lon="35.381477356">
  <ele>228.071533</ele>
  <time>2011-11-18T08:58:17Z</time>
  <speed>2.260000</speed>
</trkpt>
<trkpt lat="31.766828537" lon="35.381446838">
  <ele>227.923096</ele>
  <time>2011-11-18T08:58:19Z</time>
  <speed>2.510000</speed>
</trkpt>
<trkpt lat="31.766862869" lon="35.381397247">
  <ele>227.759033</ele>
  <time>2011-11-18T08:58:21Z</time>
  <speed>2.990000</speed>
</trkpt>
<trkpt lat="31.766880035" lon="35.381370544">
  <ele>226.825439</ele>
  <time>2011-11-18T08:58:22Z</time>
  <speed>2.690000</speed>
</trkpt>
<trkpt lat="31.766887665" lon="35.381313324">
  <ele>227.333252</ele>
  <time>2011-11-18T08:58:24Z</time>
  <speed>1.860000</speed>
</trkpt>
<trkpt lat="31.766899109" lon="35.381259918">
  <ele>229.141846</ele>
  <time>2011-11-18T08:58:26Z</time>
  <speed>3.140000</speed>
</trkpt>
<trkpt lat="31.766910553" lon="35.381217957">
  <ele>228.997314</ele>
  <time>2011-11-18T08:58:27Z</time>
  <speed>3.980000</speed>
</trkpt>
<trkpt lat="31.766927719" lon="35.381172180">
  <ele>228.762939</ele>
  <time>2011-11-18T08:58:28Z</time>
  <speed>4.730000</speed>
</trkpt>
<trkpt lat="31.766950607" lon="35.381118774">
  <ele>228.165283</ele>
  <time>2011-11-18T08:58:29Z</time>
  <speed>5.400000</speed>
</trkpt>
<trkpt lat="31.766983032" lon="35.381072998">
  <ele>227.360596</ele>
  <time>2011-11-18T08:58:30Z</time>
  <speed>6.170000</speed>
</trkpt>
<trkpt lat="31.767028809" lon="35.381031036">
  <ele>227.005127</ele>
  <time>2011-11-18T08:58:31Z</time>
  <speed>6.010000</speed>
</trkpt>
<trkpt lat="31.767076492" lon="35.380996704">
  <ele>225.419189</ele>
  <time>2011-11-18T08:58:32Z</time>
  <speed>5.890000</speed>
</trkpt>
<trkpt lat="31.767124176" lon="35.380966187">
  <ele>224.934814</ele>
  <time>2011-11-18T08:58:33Z</time>
  <speed>6.200000</speed>
</trkpt>
<trkpt lat="31.767177582" lon="35.380939484">
  <ele>224.415283</ele>
  <time>2011-11-18T08:58:34Z</time>
  <speed>6.380000</speed>
</trkpt>
<trkpt lat="31.767234802" lon="35.380924225">
  <ele>224.063721</ele>
  <time>2011-11-18T08:58:35Z</time>
  <speed>6.410000</speed>
</trkpt>
<trkpt lat="31.767288208" lon="35.380920410">
  <ele>223.442627</ele>
  <time>2011-11-18T08:58:36Z</time>
  <speed>6.140000</speed>
</trkpt>
<trkpt lat="31.767343521" lon="35.380916595">
  <ele>222.852783</ele>
  <time>2011-11-18T08:58:37Z</time>
  <speed>6.160000</speed>
</trkpt>
<trkpt lat="31.767408371" lon="35.380908966">
  <ele>221.887939</ele>
  <time>2011-11-18T08:58:38Z</time>
  <speed>6.460000</speed>
</trkpt>
<trkpt lat="31.767463684" lon="35.380893707">
  <ele>221.387939</ele>
  <time>2011-11-18T08:58:39Z</time>
  <speed>5.870000</speed>
</trkpt>
<trkpt lat="31.767511368" lon="35.380870819">
  <ele>220.837158</ele>
  <time>2011-11-18T08:58:40Z</time>
  <speed>5.550000</speed>
</trkpt>
<trkpt lat="31.767555237" lon="35.380867004">
  <ele>221.352783</ele>
  <time>2011-11-18T08:58:41Z</time>
  <speed>4.540000</speed>
</trkpt>
<trkpt lat="31.767585754" lon="35.380870819">
  <ele>221.239502</ele>
  <time>2011-11-18T08:58:42Z</time>
  <speed>2.930000</speed>
</trkpt>
<trkpt lat="31.767633438" lon="35.380874634">
  <ele>221.243408</ele>
  <time>2011-11-18T08:58:44Z</time>
  <speed>2.420000</speed>
</trkpt>
<trkpt lat="31.767669678" lon="35.380908966">
  <ele>221.579346</ele>
  <time>2011-11-18T08:58:46Z</time>
  <speed>2.530000</speed>
</trkpt>
<trkpt lat="31.767681122" lon="35.380958557">
  <ele>220.860596</ele>
  <time>2011-11-18T08:58:48Z</time>
  <speed>2.160000</speed>
</trkpt>
<trkpt lat="31.767683029" lon="35.381008148">
  <ele>221.567627</ele>
  <time>2011-11-18T08:58:50Z</time>
  <speed>1.820000</speed>
</trkpt>
<trkpt lat="31.767692566" lon="35.381038666">
  <ele>221.614502</ele>
  <time>2011-11-18T08:58:52Z</time>
  <speed>0.690000</speed>
</trkpt>
<trkpt lat="31.767692566" lon="35.381000519">
  <ele>221.040283</ele>
  <time>2011-11-18T08:59:33Z</time>
  <speed>1.780000</speed>
</trkpt>
<trkpt lat="31.767675400" lon="35.380950928">
  <ele>220.559814</ele>
  <time>2011-11-18T08:59:35Z</time>
  <speed>2.410000</speed>
</trkpt>
<trkpt lat="31.767667770" lon="35.380920410">
  <ele>220.716064</ele>
  <time>2011-11-18T08:59:36Z</time>
  <speed>2.910000</speed>
</trkpt>
<trkpt lat="31.767654419" lon="35.380874634">
  <ele>220.610596</ele>
  <time>2011-11-18T08:59:37Z</time>
  <speed>3.930000</speed>
</trkpt>
<trkpt lat="31.767639160" lon="35.380828857">
  <ele>220.934814</ele>
  <time>2011-11-18T08:59:38Z</time>
  <speed>3.990000</speed>
</trkpt>
<trkpt lat="31.767623901" lon="35.380783081">
  <ele>221.091064</ele>
  <time>2011-11-18T08:59:39Z</time>
  <speed>4.260000</speed>
</trkpt>
<trkpt lat="31.767608643" lon="35.380741119">
  <ele>221.395752</ele>
  <time>2011-11-18T08:59:40Z</time>
  <speed>3.600000</speed>
</trkpt>
<trkpt lat="31.767595291" lon="35.380699158">
  <ele>220.993408</ele>
  <time>2011-11-18T08:59:41Z</time>
  <speed>3.580000</speed>
</trkpt>
<trkpt lat="31.767580032" lon="35.380661011">
  <ele>221.305908</ele>
  <time>2011-11-18T08:59:42Z</time>
  <speed>3.420000</speed>
</trkpt>
<trkpt lat="31.767560959" lon="35.380619049">
  <ele>220.805908</ele>
  <time>2011-11-18T08:59:43Z</time>
  <speed>3.870000</speed>
</trkpt>
<trkpt lat="31.767547607" lon="35.380584717">
  <ele>220.907471</ele>
  <time>2011-11-18T08:59:44Z</time>
  <speed>3.260000</speed>
</trkpt>
<trkpt lat="31.767532349" lon="35.380550385">
  <ele>221.227783</ele>
  <time>2011-11-18T08:59:45Z</time>
  <speed>3.730000</speed>
</trkpt>
<trkpt lat="31.767507553" lon="35.380516052">
  <ele>220.770752</ele>
  <time>2011-11-18T08:59:46Z</time>
  <speed>4.170000</speed>
</trkpt>
<trkpt lat="31.767482758" lon="35.380477905">
  <ele>219.821533</ele>
  <time>2011-11-18T08:59:47Z</time>
  <speed>4.690000</speed>
</trkpt>
<trkpt lat="31.767456055" lon="35.380435944">
  <ele>219.079346</ele>
  <time>2011-11-18T08:59:48Z</time>
  <speed>4.830000</speed>
</trkpt>
<trkpt lat="31.767423630" lon="35.380393982">
  <ele>218.825439</ele>
  <time>2011-11-18T08:59:49Z</time>
  <speed>5.010000</speed>
</trkpt>
<trkpt lat="31.767391205" lon="35.380355835">
  <ele>218.583252</ele>
  <time>2011-11-18T08:59:50Z</time>
  <speed>5.000000</speed>
</trkpt>
<trkpt lat="31.767356873" lon="35.380317688">
  <ele>218.485596</ele>
  <time>2011-11-18T08:59:51Z</time>
  <speed>4.660000</speed>
</trkpt>
<trkpt lat="31.767320633" lon="35.380287170">
  <ele>218.184814</ele>
  <time>2011-11-18T08:59:52Z</time>
  <speed>4.760000</speed>
</trkpt>
<trkpt lat="31.767284393" lon="35.380256653">
  <ele>217.774658</ele>
  <time>2011-11-18T08:59:53Z</time>
  <speed>4.750000</speed>
</trkpt>
<trkpt lat="31.767253876" lon="35.380214691">
  <ele>217.567627</ele>
  <time>2011-11-18T08:59:54Z</time>
  <speed>4.460000</speed>
</trkpt>
<trkpt lat="31.767225266" lon="35.380180359">
  <ele>217.177002</ele>
  <time>2011-11-18T08:59:55Z</time>
  <speed>4.290000</speed>
</trkpt>
<trkpt lat="31.767196655" lon="35.380149841">
  <ele>217.083252</ele>
  <time>2011-11-18T08:59:56Z</time>
  <speed>3.820000</speed>
</trkpt>
<trkpt lat="31.767169952" lon="35.380123138">
  <ele>216.950439</ele>
  <time>2011-11-18T08:59:57Z</time>
  <speed>3.260000</speed>
</trkpt>
<trkpt lat="31.767147064" lon="35.380104065">
  <ele>216.747314</ele>
  <time>2011-11-18T08:59:58Z</time>
  <speed>2.820000</speed>
</trkpt>
<trkpt lat="31.767122269" lon="35.380088806">
  <ele>216.696533</ele>
  <time>2011-11-18T08:59:59Z</time>
  <speed>2.140000</speed>
</trkpt>
<trkpt lat="31.767082214" lon="35.380073547">
  <ele>216.216064</ele>
  <time>2011-11-18T09:00:01Z</time>
  <speed>1.860000</speed>
</trkpt>
<trkpt lat="31.767055511" lon="35.380081177">
  <ele>215.993408</ele>
  <time>2011-11-18T09:00:03Z</time>
  <speed>0.650000</speed>
</trkpt>
<trkpt lat="31.767036438" lon="35.380058289">
  <ele>215.887939</ele>
  <time>2011-11-18T09:00:14Z</time>
  <speed>1.010000</speed>
</trkpt>
<trkpt lat="31.767026901" lon="35.380016327">
  <ele>215.384033</ele>
  <time>2011-11-18T09:00:19Z</time>
  <speed>0.990000</speed>
</trkpt>
<trkpt lat="31.767030716" lon="35.379978180">
  <ele>215.239502</ele>
  <time>2011-11-18T09:00:21Z</time>
  <speed>2.040000</speed>
</trkpt>
<trkpt lat="31.767024994" lon="35.379932404">
  <ele>214.969971</ele>
  <time>2011-11-18T09:00:23Z</time>
  <speed>2.210000</speed>
</trkpt>
<trkpt lat="31.767011642" lon="35.379890442">
  <ele>214.544189</ele>
  <time>2011-11-18T09:00:25Z</time>
  <speed>0.850000</speed>
</trkpt>
<trkpt lat="31.767004013" lon="35.379859924">
  <ele>213.669189</ele>
  <time>2011-11-18T09:00:36Z</time>
  <speed>0.710000</speed>
</trkpt>
<trkpt lat="31.767005920" lon="35.379829407">
  <ele>213.727783</ele>
  <time>2011-11-18T09:00:38Z</time>
  <speed>2.040000</speed>
</trkpt>
<trkpt lat="31.767015457" lon="35.379772186">
  <ele>213.368408</ele>
  <time>2011-11-18T09:00:40Z</time>
  <speed>3.550000</speed>
</trkpt>
<trkpt lat="31.767023087" lon="35.379730225">
  <ele>213.352783</ele>
  <time>2011-11-18T09:00:41Z</time>
  <speed>4.040000</speed>
</trkpt>
<trkpt lat="31.767028809" lon="35.379680634">
  <ele>212.884033</ele>
  <time>2011-11-18T09:00:42Z</time>
  <speed>4.670000</speed>
</trkpt>
<trkpt lat="31.767026901" lon="35.379631042">
  <ele>212.442627</ele>
  <time>2011-11-18T09:00:43Z</time>
  <speed>4.370000</speed>
</trkpt>
<trkpt lat="31.767019272" lon="35.379581451">
  <ele>212.122314</ele>
  <time>2011-11-18T09:00:44Z</time>
  <speed>4.860000</speed>
</trkpt>
<trkpt lat="31.767013550" lon="35.379528046">
  <ele>211.626221</ele>
  <time>2011-11-18T09:00:45Z</time>
  <speed>5.360000</speed>
</trkpt>
<trkpt lat="31.767011642" lon="35.379467010">
  <ele>211.337158</ele>
  <time>2011-11-18T09:00:46Z</time>
  <speed>5.780000</speed>
</trkpt>
<trkpt lat="31.767007828" lon="35.379405975">
  <ele>211.329346</ele>
  <time>2011-11-18T09:00:47Z</time>
  <speed>5.770000</speed>
</trkpt>
<trkpt lat="31.766998291" lon="35.379344940">
  <ele>211.126221</ele>
  <time>2011-11-18T09:00:48Z</time>
  <speed>5.670000</speed>
</trkpt>
<trkpt lat="31.766988754" lon="35.379283905">
  <ele>210.958252</ele>
  <time>2011-11-18T09:00:49Z</time>
  <speed>5.220000</speed>
</trkpt>
<trkpt lat="31.766971588" lon="35.379234314">
  <ele>210.852783</ele>
  <time>2011-11-18T09:00:50Z</time>
  <speed>4.970000</speed>
</trkpt>
<trkpt lat="31.766956329" lon="35.379177094">
  <ele>210.520752</ele>
  <time>2011-11-18T09:00:51Z</time>
  <speed>5.530000</speed>
</trkpt>
<trkpt lat="31.766931534" lon="35.379123688">
  <ele>210.489502</ele>
  <time>2011-11-18T09:00:52Z</time>
  <speed>5.510000</speed>
</trkpt>
<trkpt lat="31.766899109" lon="35.379070282">
  <ele>210.509033</ele>
  <time>2011-11-18T09:00:53Z</time>
  <speed>5.920000</speed>
</trkpt>
<trkpt lat="31.766874313" lon="35.379013062">
  <ele>210.973877</ele>
  <time>2011-11-18T09:00:54Z</time>
  <speed>5.840000</speed>
</trkpt>
<trkpt lat="31.766851425" lon="35.378955841">
  <ele>211.032471</ele>
  <time>2011-11-18T09:00:55Z</time>
  <speed>5.520000</speed>
</trkpt>
<trkpt lat="31.766828537" lon="35.378910065">
  <ele>211.427002</ele>
  <time>2011-11-18T09:00:56Z</time>
  <speed>5.040000</speed>
</trkpt>
<trkpt lat="31.766801834" lon="35.378868103">
  <ele>211.469971</ele>
  <time>2011-11-18T09:00:57Z</time>
  <speed>5.310000</speed>
</trkpt>
<trkpt lat="31.766767502" lon="35.378814697">
  <ele>211.317627</ele>
  <time>2011-11-18T09:00:58Z</time>
  <speed>5.570000</speed>
</trkpt>
<trkpt lat="31.766744614" lon="35.378761292">
  <ele>211.766846</ele>
  <time>2011-11-18T09:00:59Z</time>
  <speed>5.630000</speed>
</trkpt>
<trkpt lat="31.766738892" lon="35.378707886">
  <ele>212.188721</ele>
  <time>2011-11-18T09:01:00Z</time>
  <speed>5.010000</speed>
</trkpt>
<trkpt lat="31.766746521" lon="35.378646851">
  <ele>212.438721</ele>
  <time>2011-11-18T09:01:01Z</time>
  <speed>5.970000</speed>
</trkpt>
<trkpt lat="31.766763687" lon="35.378589630">
  <ele>212.798096</ele>
  <time>2011-11-18T09:01:02Z</time>
  <speed>6.050000</speed>
</trkpt>
<trkpt lat="31.766784668" lon="35.378536224">
  <ele>213.333252</ele>
  <time>2011-11-18T09:01:03Z</time>
  <speed>5.340000</speed>
</trkpt>
<trkpt lat="31.766796112" lon="35.378490448">
  <ele>213.497314</ele>
  <time>2011-11-18T09:01:04Z</time>
  <speed>3.860000</speed>
</trkpt>
<trkpt lat="31.766813278" lon="35.378448486">
  <ele>214.446533</ele>
  <time>2011-11-18T09:01:05Z</time>
  <speed>3.500000</speed>
</trkpt>
<trkpt lat="31.766820908" lon="35.378414154">
  <ele>214.380127</ele>
  <time>2011-11-18T09:01:06Z</time>
  <speed>3.240000</speed>
</trkpt>
<trkpt lat="31.766805649" lon="35.378353119">
  <ele>213.524658</ele>
  <time>2011-11-18T09:01:08Z</time>
  <speed>3.800000</speed>
</trkpt>
<trkpt lat="31.766786575" lon="35.378314972">
  <ele>212.989502</ele>
  <time>2011-11-18T09:01:09Z</time>
  <speed>4.870000</speed>
</trkpt>
<trkpt lat="31.766771317" lon="35.378269196">
  <ele>212.704346</ele>
  <time>2011-11-18T09:01:10Z</time>
  <speed>5.010000</speed>
</trkpt>
<trkpt lat="31.766754150" lon="35.378215790">
  <ele>211.509033</ele>
  <time>2011-11-18T09:01:11Z</time>
  <speed>5.670000</speed>
</trkpt>
<trkpt lat="31.766738892" lon="35.378158569">
  <ele>210.145752</ele>
  <time>2011-11-18T09:01:12Z</time>
  <speed>6.060000</speed>
</trkpt>
<trkpt lat="31.766736984" lon="35.378105164">
  <ele>208.782471</ele>
  <time>2011-11-18T09:01:13Z</time>
  <speed>5.690000</speed>
</trkpt>
<trkpt lat="31.766735077" lon="35.378051758">
  <ele>208.395752</ele>
  <time>2011-11-18T09:01:14Z</time>
  <speed>4.810000</speed>
</trkpt>
<trkpt lat="31.766746521" lon="35.378009796">
  <ele>206.200439</ele>
  <time>2011-11-18T09:01:15Z</time>
  <speed>3.820000</speed>
</trkpt>
<trkpt lat="31.766746521" lon="35.377971649">
  <ele>205.407471</ele>
  <time>2011-11-18T09:01:16Z</time>
  <speed>3.480000</speed>
</trkpt>
<trkpt lat="31.766740799" lon="35.377933502">
  <ele>204.477783</ele>
  <time>2011-11-18T09:01:17Z</time>
  <speed>3.500000</speed>
</trkpt>
<trkpt lat="31.766742706" lon="35.377887726">
  <ele>202.954346</ele>
  <time>2011-11-18T09:01:19Z</time>
  <speed>2.480000</speed>
</trkpt>
<trkpt lat="31.766733170" lon="35.377838135">
  <ele>201.692627</ele>
  <time>2011-11-18T09:01:21Z</time>
  <speed>2.450000</speed>
</trkpt>
<trkpt lat="31.766693115" lon="35.377788544">
  <ele>201.200439</ele>
  <time>2011-11-18T09:01:23Z</time>
  <speed>3.080000</speed>
</trkpt>
<trkpt lat="31.766658783" lon="35.377773285">
  <ele>201.212158</ele>
  <time>2011-11-18T09:01:24Z</time>
  <speed>3.740000</speed>
</trkpt>
<trkpt lat="31.766628265" lon="35.377754211">
  <ele>200.829346</ele>
  <time>2011-11-18T09:01:25Z</time>
  <speed>4.030000</speed>
</trkpt>
<trkpt lat="31.766599655" lon="35.377727509">
  <ele>200.454346</ele>
  <time>2011-11-18T09:01:26Z</time>
  <speed>4.000000</speed>
</trkpt>
<trkpt lat="31.766580582" lon="35.377693176">
  <ele>199.770752</ele>
  <time>2011-11-18T09:01:27Z</time>
  <speed>3.490000</speed>
</trkpt>
<trkpt lat="31.766559601" lon="35.377655029">
  <ele>198.844971</ele>
  <time>2011-11-18T09:01:28Z</time>
  <speed>4.650000</speed>
</trkpt>
<trkpt lat="31.766530991" lon="35.377620697">
  <ele>198.001221</ele>
  <time>2011-11-18T09:01:29Z</time>
  <speed>4.320000</speed>
</trkpt>
<trkpt lat="31.766504288" lon="35.377582550">
  <ele>197.419189</ele>
  <time>2011-11-18T09:01:30Z</time>
  <speed>3.840000</speed>
</trkpt>
<trkpt lat="31.766483307" lon="35.377544403">
  <ele>196.001221</ele>
  <time>2011-11-18T09:01:31Z</time>
  <speed>4.260000</speed>
</trkpt>
<trkpt lat="31.766466141" lon="35.377506256">
  <ele>195.727783</ele>
  <time>2011-11-18T09:01:32Z</time>
  <speed>4.070000</speed>
</trkpt>
<trkpt lat="31.766445160" lon="35.377464294">
  <ele>195.407471</ele>
  <time>2011-11-18T09:01:33Z</time>
  <speed>4.790000</speed>
</trkpt>
<trkpt lat="31.766427994" lon="35.377418518">
  <ele>194.212158</ele>
  <time>2011-11-18T09:01:34Z</time>
  <speed>5.000000</speed>
</trkpt>
<trkpt lat="31.766414642" lon="35.377380371">
  <ele>192.122314</ele>
  <time>2011-11-18T09:01:35Z</time>
  <speed>4.950000</speed>
</trkpt>
<trkpt lat="31.766395569" lon="35.377330780">
  <ele>191.071533</ele>
  <time>2011-11-18T09:01:36Z</time>
  <speed>4.520000</speed>
</trkpt>
<trkpt lat="31.766380310" lon="35.377288818">
  <ele>189.841064</ele>
  <time>2011-11-18T09:01:37Z</time>
  <speed>4.510000</speed>
</trkpt>
<trkpt lat="31.766368866" lon="35.377250671">
  <ele>188.985596</ele>
  <time>2011-11-18T09:01:38Z</time>
  <speed>3.800000</speed>
</trkpt>
<trkpt lat="31.766359329" lon="35.377216339">
  <ele>188.700439</ele>
  <time>2011-11-18T09:01:39Z</time>
  <speed>3.030000</speed>
</trkpt>
<trkpt lat="31.766344070" lon="35.377162933">
  <ele>188.587158</ele>
  <time>2011-11-18T09:01:41Z</time>
  <speed>2.270000</speed>
</trkpt>
<trkpt lat="31.766328812" lon="35.377136230">
  <ele>188.091064</ele>
  <time>2011-11-18T09:01:42Z</time>
  <speed>2.720000</speed>
</trkpt>
<trkpt lat="31.766313553" lon="35.377082825">
  <ele>186.196533</ele>
  <time>2011-11-18T09:01:44Z</time>
  <speed>3.110000</speed>
</trkpt>
<trkpt lat="31.766296387" lon="35.377052307">
  <ele>186.309814</ele>
  <time>2011-11-18T09:01:45Z</time>
  <speed>3.410000</speed>
</trkpt>
<trkpt lat="31.766284943" lon="35.377014160">
  <ele>185.606689</ele>
  <time>2011-11-18T09:01:46Z</time>
  <speed>3.980000</speed>
</trkpt>
<trkpt lat="31.766267776" lon="35.376972198">
  <ele>185.102783</ele>
  <time>2011-11-18T09:01:47Z</time>
  <speed>4.150000</speed>
</trkpt>
<trkpt lat="31.766254425" lon="35.376918793">
  <ele>186.048096</ele>
  <time>2011-11-18T09:01:48Z</time>
  <speed>5.060000</speed>
</trkpt>
<trkpt lat="31.766237259" lon="35.376865387">
  <ele>185.626221</ele>
  <time>2011-11-18T09:01:49Z</time>
  <speed>5.300000</speed>
</trkpt>
<trkpt lat="31.766214371" lon="35.376819611">
  <ele>184.634033</ele>
  <time>2011-11-18T09:01:50Z</time>
  <speed>5.210000</speed>
</trkpt>
<trkpt lat="31.766191483" lon="35.376770020">
  <ele>183.829346</ele>
  <time>2011-11-18T09:01:51Z</time>
  <speed>4.780000</speed>
</trkpt>
<trkpt lat="31.766170502" lon="35.376731873">
  <ele>183.356689</ele>
  <time>2011-11-18T09:01:52Z</time>
  <speed>4.600000</speed>
</trkpt>
<trkpt lat="31.766147614" lon="35.376693726">
  <ele>182.563721</ele>
  <time>2011-11-18T09:01:53Z</time>
  <speed>4.540000</speed>
</trkpt>
<trkpt lat="31.766117096" lon="35.376663208">
  <ele>182.001221</ele>
  <time>2011-11-18T09:01:54Z</time>
  <speed>4.320000</speed>
</trkpt>
<trkpt lat="31.766096115" lon="35.376636505">
  <ele>181.825439</ele>
  <time>2011-11-18T09:01:55Z</time>
  <speed>3.240000</speed>
</trkpt>
<trkpt lat="31.766088486" lon="35.376598358">
  <ele>182.024658</ele>
  <time>2011-11-18T09:01:56Z</time>
  <speed>3.570000</speed>
</trkpt>
<trkpt lat="31.766086578" lon="35.376552582">
  <ele>181.325439</ele>
  <time>2011-11-18T09:01:57Z</time>
  <speed>4.240000</speed>
</trkpt>
<trkpt lat="31.766092300" lon="35.376502991">
  <ele>181.036377</ele>
  <time>2011-11-18T09:01:58Z</time>
  <speed>4.440000</speed>
</trkpt>
<trkpt lat="31.766099930" lon="35.376457214">
  <ele>181.259033</ele>
  <time>2011-11-18T09:01:59Z</time>
  <speed>4.510000</speed>
</trkpt>
<trkpt lat="31.766111374" lon="35.376411438">
  <ele>181.137939</ele>
  <time>2011-11-18T09:02:00Z</time>
  <speed>4.200000</speed>
</trkpt>
<trkpt lat="31.766122818" lon="35.376369476">
  <ele>181.243408</ele>
  <time>2011-11-18T09:02:01Z</time>
  <speed>4.230000</speed>
</trkpt>
<trkpt lat="31.766141891" lon="35.376323700">
  <ele>181.977783</ele>
  <time>2011-11-18T09:02:02Z</time>
  <speed>4.520000</speed>
</trkpt>
<trkpt lat="31.766151428" lon="35.376274109">
  <ele>181.708252</ele>
  <time>2011-11-18T09:02:03Z</time>
  <speed>4.960000</speed>
</trkpt>
<trkpt lat="31.766170502" lon="35.376228333">
  <ele>181.489502</ele>
  <time>2011-11-18T09:02:04Z</time>
  <speed>4.620000</speed>
</trkpt>
<trkpt lat="31.766193390" lon="35.376182556">
  <ele>179.594971</ele>
  <time>2011-11-18T09:02:05Z</time>
  <speed>4.680000</speed>
</trkpt>
<trkpt lat="31.766210556" lon="35.376136780">
  <ele>179.591064</ele>
  <time>2011-11-18T09:02:06Z</time>
  <speed>4.870000</speed>
</trkpt>
<trkpt lat="31.766222000" lon="35.376087189">
  <ele>179.555908</ele>
  <time>2011-11-18T09:02:07Z</time>
  <speed>4.900000</speed>
</trkpt>
<trkpt lat="31.766233444" lon="35.376033783">
  <ele>179.438721</ele>
  <time>2011-11-18T09:02:08Z</time>
  <speed>5.200000</speed>
</trkpt>
<trkpt lat="31.766244888" lon="35.375980377">
  <ele>179.012939</ele>
  <time>2011-11-18T09:02:09Z</time>
  <speed>4.250000</speed>
</trkpt>
<trkpt lat="31.766254425" lon="35.375949860">
  <ele>179.032471</ele>
  <time>2011-11-18T09:02:10Z</time>
  <speed>2.300000</speed>
</trkpt>
<trkpt lat="31.766271591" lon="35.375911713">
  <ele>177.981689</ele>
  <time>2011-11-18T09:02:12Z</time>
  <speed>2.470000</speed>
</trkpt>
<trkpt lat="31.766298294" lon="35.375843048">
  <ele>177.727783</ele>
  <time>2011-11-18T09:02:14Z</time>
  <speed>3.950000</speed>
</trkpt>
<trkpt lat="31.766326904" lon="35.375820160">
  <ele>177.610596</ele>
  <time>2011-11-18T09:02:15Z</time>
  <speed>3.880000</speed>
</trkpt>
<trkpt lat="31.766357422" lon="35.375801086">
  <ele>176.989502</ele>
  <time>2011-11-18T09:02:16Z</time>
  <speed>3.550000</speed>
</trkpt>
<trkpt lat="31.766382217" lon="35.375778198">
  <ele>177.231689</ele>
  <time>2011-11-18T09:02:17Z</time>
  <speed>3.140000</speed>
</trkpt>
<trkpt lat="31.766412735" lon="35.375762939">
  <ele>177.856689</ele>
  <time>2011-11-18T09:02:18Z</time>
  <speed>3.700000</speed>
</trkpt>
<trkpt lat="31.766439438" lon="35.375743866">
  <ele>177.594971</ele>
  <time>2011-11-18T09:02:19Z</time>
  <speed>3.770000</speed>
</trkpt>
<trkpt lat="31.766464233" lon="35.375720978">
  <ele>177.723877</ele>
  <time>2011-11-18T09:02:20Z</time>
  <speed>3.500000</speed>
</trkpt>
<trkpt lat="31.766489029" lon="35.375656128">
  <ele>177.739502</ele>
  <time>2011-11-18T09:02:22Z</time>
  <speed>2.980000</speed>
</trkpt>
<trkpt lat="31.766500473" lon="35.375617981">
  <ele>177.848877</ele>
  <time>2011-11-18T09:02:23Z</time>
  <speed>4.040000</speed>
</trkpt>
<trkpt lat="31.766508102" lon="35.375572205">
  <ele>177.821533</ele>
  <time>2011-11-18T09:02:24Z</time>
  <speed>4.810000</speed>
</trkpt>
<trkpt lat="31.766519547" lon="35.375518799">
  <ele>178.157471</ele>
  <time>2011-11-18T09:02:25Z</time>
  <speed>4.760000</speed>
</trkpt>
<trkpt lat="31.766534805" lon="35.375469208">
  <ele>178.555908</ele>
  <time>2011-11-18T09:02:26Z</time>
  <speed>5.030000</speed>
</trkpt>
<trkpt lat="31.766557693" lon="35.375423431">
  <ele>178.719971</ele>
  <time>2011-11-18T09:02:27Z</time>
  <speed>5.410000</speed>
</trkpt>
<trkpt lat="31.766580582" lon="35.375373840">
  <ele>179.216064</ele>
  <time>2011-11-18T09:02:28Z</time>
  <speed>5.140000</speed>
</trkpt>
<trkpt lat="31.766616821" lon="35.375339508">
  <ele>178.575439</ele>
  <time>2011-11-18T09:02:29Z</time>
  <speed>4.380000</speed>
</trkpt>
<trkpt lat="31.766651154" lon="35.375331879">
  <ele>177.626221</ele>
  <time>2011-11-18T09:02:30Z</time>
  <speed>2.730000</speed>
</trkpt>
<trkpt lat="31.766674042" lon="35.375305176">
  <ele>177.911377</ele>
  <time>2011-11-18T09:02:32Z</time>
  <speed>1.840000</speed>
</trkpt>
<trkpt lat="31.766719818" lon="35.375270844">
  <ele>177.505127</ele>
  <time>2011-11-18T09:02:34Z</time>
  <speed>3.710000</speed>
</trkpt>
<trkpt lat="31.766744614" lon="35.375244141">
  <ele>177.231689</ele>
  <time>2011-11-18T09:02:35Z</time>
  <speed>4.350000</speed>
</trkpt>
<trkpt lat="31.766780853" lon="35.375221252">
  <ele>177.122314</ele>
  <time>2011-11-18T09:02:36Z</time>
  <speed>4.370000</speed>
</trkpt>
<trkpt lat="31.766819000" lon="35.375202179">
  <ele>176.954346</ele>
  <time>2011-11-18T09:02:37Z</time>
  <speed>4.590000</speed>
</trkpt>
<trkpt lat="31.766855240" lon="35.375167847">
  <ele>178.001221</ele>
  <time>2011-11-18T09:02:38Z</time>
  <speed>4.730000</speed>
</trkpt>
<trkpt lat="31.766883850" lon="35.375129700">
  <ele>178.302002</ele>
  <time>2011-11-18T09:02:39Z</time>
  <speed>4.840000</speed>
</trkpt>
<trkpt lat="31.766899109" lon="35.375080109">
  <ele>179.786377</ele>
  <time>2011-11-18T09:02:40Z</time>
  <speed>4.600000</speed>
</trkpt>
<trkpt lat="31.766916275" lon="35.375038147">
  <ele>178.805908</ele>
  <time>2011-11-18T09:02:41Z</time>
  <speed>5.320000</speed>
</trkpt>
<trkpt lat="31.766921997" lon="35.374988556">
  <ele>178.380127</ele>
  <time>2011-11-18T09:02:42Z</time>
  <speed>4.470000</speed>
</trkpt>
<trkpt lat="31.766948700" lon="35.374961853">
  <ele>177.110596</ele>
  <time>2011-11-18T09:02:43Z</time>
  <speed>3.750000</speed>
</trkpt>
<trkpt lat="31.766975403" lon="35.374942780">
  <ele>176.973877</ele>
  <time>2011-11-18T09:02:44Z</time>
  <speed>3.700000</speed>
</trkpt>
<trkpt lat="31.767005920" lon="35.374927521">
  <ele>177.032471</ele>
  <time>2011-11-18T09:02:45Z</time>
  <speed>3.930000</speed>
</trkpt>
<trkpt lat="31.767026901" lon="35.374900818">
  <ele>176.614502</ele>
  <time>2011-11-18T09:02:46Z</time>
  <speed>3.660000</speed>
</trkpt>
<trkpt lat="31.767045975" lon="35.374874115">
  <ele>176.290283</ele>
  <time>2011-11-18T09:02:47Z</time>
  <speed>3.660000</speed>
</trkpt>
<trkpt lat="31.767053604" lon="35.374828339">
  <ele>177.427002</ele>
  <time>2011-11-18T09:02:48Z</time>
  <speed>3.610000</speed>
</trkpt>
<trkpt lat="31.767061234" lon="35.374786377">
  <ele>178.106689</ele>
  <time>2011-11-18T09:02:49Z</time>
  <speed>3.520000</speed>
</trkpt>
<trkpt lat="31.767072678" lon="35.374752045">
  <ele>178.594971</ele>
  <time>2011-11-18T09:02:50Z</time>
  <speed>3.330000</speed>
</trkpt>
<trkpt lat="31.767076492" lon="35.374713898">
  <ele>178.055908</ele>
  <time>2011-11-18T09:02:51Z</time>
  <speed>3.610000</speed>
</trkpt>
<trkpt lat="31.767084122" lon="35.374675751">
  <ele>177.735596</ele>
  <time>2011-11-18T09:02:52Z</time>
  <speed>3.850000</speed>
</trkpt>
<trkpt lat="31.767091751" lon="35.374633789">
  <ele>176.594971</ele>
  <time>2011-11-18T09:02:53Z</time>
  <speed>4.430000</speed>
</trkpt>
<trkpt lat="31.767101288" lon="35.374588013">
  <ele>176.052002</ele>
  <time>2011-11-18T09:02:54Z</time>
  <speed>4.800000</speed>
</trkpt>
<trkpt lat="31.767107010" lon="35.374538422">
  <ele>174.938721</ele>
  <time>2011-11-18T09:02:55Z</time>
  <speed>5.120000</speed>
</trkpt>
<trkpt lat="31.767107010" lon="35.374481201">
  <ele>174.048096</ele>
  <time>2011-11-18T09:02:56Z</time>
  <speed>5.540000</speed>
</trkpt>
<trkpt lat="31.767103195" lon="35.374423981">
  <ele>173.450439</ele>
  <time>2011-11-18T09:02:57Z</time>
  <speed>5.050000</speed>
</trkpt>
<trkpt lat="31.767095566" lon="35.374370575">
  <ele>172.438721</ele>
  <time>2011-11-18T09:02:58Z</time>
  <speed>4.650000</speed>
</trkpt>
<trkpt lat="31.767082214" lon="35.374317169">
  <ele>171.540283</ele>
  <time>2011-11-18T09:02:59Z</time>
  <speed>4.670000</speed>
</trkpt>
<trkpt lat="31.767068863" lon="35.374263763">
  <ele>170.790283</ele>
  <time>2011-11-18T09:03:00Z</time>
  <speed>5.190000</speed>
</trkpt>
<trkpt lat="31.767059326" lon="35.374206543">
  <ele>169.598877</ele>
  <time>2011-11-18T09:03:01Z</time>
  <speed>6.140000</speed>
</trkpt>
<trkpt lat="31.767051697" lon="35.374141693">
  <ele>168.743408</ele>
  <time>2011-11-18T09:03:02Z</time>
  <speed>5.980000</speed>
</trkpt>
<trkpt lat="31.767051697" lon="35.374080658">
  <ele>168.231689</ele>
  <time>2011-11-18T09:03:03Z</time>
  <speed>5.830000</speed>
</trkpt>
<trkpt lat="31.767066956" lon="35.374031067">
  <ele>168.294189</ele>
  <time>2011-11-18T09:03:04Z</time>
  <speed>4.690000</speed>
</trkpt>
<trkpt lat="31.767089844" lon="35.373989105">
  <ele>168.766846</ele>
  <time>2011-11-18T09:03:05Z</time>
  <speed>4.340000</speed>
</trkpt>
<trkpt lat="31.767108917" lon="35.373947144">
  <ele>168.641846</ele>
  <time>2011-11-18T09:03:06Z</time>
  <speed>4.720000</speed>
</trkpt>
<trkpt lat="31.767118454" lon="35.373893738">
  <ele>169.259033</ele>
  <time>2011-11-18T09:03:07Z</time>
  <speed>5.240000</speed>
</trkpt>
<trkpt lat="31.767135620" lon="35.373836517">
  <ele>169.180908</ele>
  <time>2011-11-18T09:03:08Z</time>
  <speed>4.970000</speed>
</trkpt>
<trkpt lat="31.767143250" lon="35.373794556">
  <ele>169.919189</ele>
  <time>2011-11-18T09:03:09Z</time>
  <speed>2.900000</speed>
</trkpt>
<trkpt lat="31.767158508" lon="35.373756409">
  <ele>169.884033</ele>
  <time>2011-11-18T09:03:11Z</time>
  <speed>2.530000</speed>
</trkpt>
<trkpt lat="31.767160416" lon="35.373703003">
  <ele>169.294189</ele>
  <time>2011-11-18T09:03:13Z</time>
  <speed>1.980000</speed>
</trkpt>
<trkpt lat="31.767166138" lon="35.373664856">
  <ele>167.528564</ele>
  <time>2011-11-18T09:03:16Z</time>
  <speed>1.660000</speed>
</trkpt>
<trkpt lat="31.767171860" lon="35.373615265">
  <ele>167.302002</ele>
  <time>2011-11-18T09:03:18Z</time>
  <speed>3.030000</speed>
</trkpt>
<trkpt lat="31.767183304" lon="35.373588562">
  <ele>166.731689</ele>
  <time>2011-11-18T09:03:19Z</time>
  <speed>3.180000</speed>
</trkpt>
<trkpt lat="31.767198563" lon="35.373558044">
  <ele>166.704346</ele>
  <time>2011-11-18T09:03:20Z</time>
  <speed>3.000000</speed>
</trkpt>
<trkpt lat="31.767208099" lon="35.373523712">
  <ele>166.376221</ele>
  <time>2011-11-18T09:03:21Z</time>
  <speed>3.180000</speed>
</trkpt>
<trkpt lat="31.767232895" lon="35.373474121">
  <ele>165.110596</ele>
  <time>2011-11-18T09:03:23Z</time>
  <speed>3.370000</speed>
</trkpt>
<trkpt lat="31.767240524" lon="35.373435974">
  <ele>165.454346</ele>
  <time>2011-11-18T09:03:24Z</time>
  <speed>3.600000</speed>
</trkpt>
<trkpt lat="31.767251968" lon="35.373397827">
  <ele>165.571533</ele>
  <time>2011-11-18T09:03:25Z</time>
  <speed>3.590000</speed>
</trkpt>
<trkpt lat="31.767261505" lon="35.373367310">
  <ele>165.575439</ele>
  <time>2011-11-18T09:03:26Z</time>
  <speed>3.150000</speed>
</trkpt>
<trkpt lat="31.767280579" lon="35.373332977">
  <ele>165.692627</ele>
  <time>2011-11-18T09:03:27Z</time>
  <speed>3.690000</speed>
</trkpt>
<trkpt lat="31.767303467" lon="35.373279572">
  <ele>165.169189</ele>
  <time>2011-11-18T09:03:29Z</time>
  <speed>2.560000</speed>
</trkpt>
<trkpt lat="31.767316818" lon="35.373218536">
  <ele>164.415283</ele>
  <time>2011-11-18T09:03:31Z</time>
  <speed>3.110000</speed>
</trkpt>
<trkpt lat="31.767320633" lon="35.373180389">
  <ele>164.716064</ele>
  <time>2011-11-18T09:03:32Z</time>
  <speed>3.540000</speed>
</trkpt>
<trkpt lat="31.767328262" lon="35.373146057">
  <ele>164.759033</ele>
  <time>2011-11-18T09:03:33Z</time>
  <speed>3.960000</speed>
</trkpt>
<trkpt lat="31.767339706" lon="35.373104095">
  <ele>164.645752</ele>
  <time>2011-11-18T09:03:34Z</time>
  <speed>4.060000</speed>
</trkpt>
<trkpt lat="31.767353058" lon="35.373062134">
  <ele>164.817627</ele>
  <time>2011-11-18T09:03:35Z</time>
  <speed>4.040000</speed>
</trkpt>
<trkpt lat="31.767370224" lon="35.373020172">
  <ele>164.571533</ele>
  <time>2011-11-18T09:03:36Z</time>
  <speed>4.140000</speed>
</trkpt>
<trkpt lat="31.767381668" lon="35.372982025">
  <ele>164.778564</ele>
  <time>2011-11-18T09:03:37Z</time>
  <speed>3.910000</speed>
</trkpt>
<trkpt lat="31.767396927" lon="35.372936249">
  <ele>164.477783</ele>
  <time>2011-11-18T09:03:38Z</time>
  <speed>4.350000</speed>
</trkpt>
<trkpt lat="31.767417908" lon="35.372890472">
  <ele>164.137939</ele>
  <time>2011-11-18T09:03:39Z</time>
  <speed>4.860000</speed>
</trkpt>
<trkpt lat="31.767435074" lon="35.372837067">
  <ele>163.829346</ele>
  <time>2011-11-18T09:03:40Z</time>
  <speed>5.740000</speed>
</trkpt>
<trkpt lat="31.767450333" lon="35.372772217">
  <ele>163.516846</ele>
  <time>2011-11-18T09:03:41Z</time>
  <speed>6.280000</speed>
</trkpt>
<trkpt lat="31.767463684" lon="35.372703552">
  <ele>162.415283</ele>
  <time>2011-11-18T09:03:42Z</time>
  <speed>7.070000</speed>
</trkpt>
<trkpt lat="31.767482758" lon="35.372631073">
  <ele>161.770752</ele>
  <time>2011-11-18T09:03:43Z</time>
  <speed>7.400000</speed>
</trkpt>
<trkpt lat="31.767499924" lon="35.372558594">
  <ele>161.555908</ele>
  <time>2011-11-18T09:03:44Z</time>
  <speed>7.180000</speed>
</trkpt>
<trkpt lat="31.767517090" lon="35.372486115">
  <ele>160.942627</ele>
  <time>2011-11-18T09:03:45Z</time>
  <speed>7.810000</speed>
</trkpt>
<trkpt lat="31.767538071" lon="35.372406006">
  <ele>160.067627</ele>
  <time>2011-11-18T09:03:46Z</time>
  <speed>7.710000</speed>
</trkpt>
<trkpt lat="31.767572403" lon="35.372344971">
  <ele>158.610596</ele>
  <time>2011-11-18T09:03:47Z</time>
  <speed>6.850000</speed>
</trkpt>
<trkpt lat="31.767602921" lon="35.372291565">
  <ele>158.134033</ele>
  <time>2011-11-18T09:03:48Z</time>
  <speed>5.560000</speed>
</trkpt>
<trkpt lat="31.767625809" lon="35.372253418">
  <ele>156.880127</ele>
  <time>2011-11-18T09:03:49Z</time>
  <speed>4.590000</speed>
</trkpt>
<trkpt lat="31.767646790" lon="35.372215271">
  <ele>156.821533</ele>
  <time>2011-11-18T09:03:50Z</time>
  <speed>3.970000</speed>
</trkpt>
<trkpt lat="31.767660141" lon="35.372173309">
  <ele>157.255127</ele>
  <time>2011-11-18T09:03:51Z</time>
  <speed>3.890000</speed>
</trkpt>
<trkpt lat="31.767671585" lon="35.372131348">
  <ele>157.489502</ele>
  <time>2011-11-18T09:03:52Z</time>
  <speed>3.290000</speed>
</trkpt>
<trkpt lat="31.767677307" lon="35.372097015">
  <ele>157.782471</ele>
  <time>2011-11-18T09:03:53Z</time>
  <speed>3.380000</speed>
</trkpt>
<trkpt lat="31.767675400" lon="35.372039795">
  <ele>158.274658</ele>
  <time>2011-11-18T09:03:55Z</time>
  <speed>2.040000</speed>
</trkpt>
<trkpt lat="31.767696381" lon="35.372047424">
  <ele>156.032471</ele>
  <time>2011-11-18T09:04:01Z</time>
  <speed>0.030000</speed>
</trkpt>
<trkpt lat="31.767711639" lon="35.372051239">
  <ele>153.372314</ele>
  <time>2011-11-18T09:04:09Z</time>
  <speed>0.010000</speed>
</trkpt>
<trkpt lat="31.767717361" lon="35.372062683">
  <ele>150.364502</ele>
  <time>2011-11-18T09:04:24Z</time>
  <speed>0.010000</speed>
</trkpt>
<trkpt lat="31.767732620" lon="35.372089386">
  <ele>149.020752</ele>
  <time>2011-11-18T09:06:13Z</time>
  <speed>0.710000</speed>
</trkpt>
<trkpt lat="31.767759323" lon="35.372066498">
  <ele>149.860596</ele>
  <time>2011-11-18T09:06:17Z</time>
  <speed>1.220000</speed>
</trkpt>
<trkpt lat="31.767782211" lon="35.372043610">
  <ele>149.923096</ele>
  <time>2011-11-18T09:06:22Z</time>
  <speed>0.680000</speed>
</trkpt>
<trkpt lat="31.767763138" lon="35.372009277">
  <ele>151.833252</ele>
  <time>2011-11-18T09:07:07Z</time>
  <speed>0.440000</speed>
</trkpt>
<trkpt lat="31.767742157" lon="35.371986389">
  <ele>153.243408</ele>
  <time>2011-11-18T09:07:11Z</time>
  <speed>0.680000</speed>
</trkpt>
<trkpt lat="31.767738342" lon="35.371948242">
  <ele>154.348877</ele>
  <time>2011-11-18T09:07:14Z</time>
  <speed>1.180000</speed>
</trkpt>
<trkpt lat="31.767757416" lon="35.371925354">
  <ele>155.583252</ele>
  <time>2011-11-18T09:07:17Z</time>
  <speed>1.180000</speed>
</trkpt>
<trkpt lat="31.767784119" lon="35.371913910">
  <ele>156.938721</ele>
  <time>2011-11-18T09:07:20Z</time>
  <speed>0.550000</speed>
</trkpt>
<trkpt lat="31.767793655" lon="35.371887207">
  <ele>159.403564</ele>
  <time>2011-11-18T09:07:24Z</time>
  <speed>0.710000</speed>
</trkpt>
<trkpt lat="31.767799377" lon="35.371856689">
  <ele>160.450439</ele>
  <time>2011-11-18T09:07:27Z</time>
  <speed>0.870000</speed>
</trkpt>
<trkpt lat="31.767807007" lon="35.371826172">
  <ele>161.559814</ele>
  <time>2011-11-18T09:07:30Z</time>
  <speed>0.940000</speed>
</trkpt>
<trkpt lat="31.767822266" lon="35.371795654">
  <ele>161.962158</ele>
  <time>2011-11-18T09:07:33Z</time>
  <speed>0.920000</speed>
</trkpt>
<trkpt lat="31.767822266" lon="35.371765137">
  <ele>162.946533</ele>
  <time>2011-11-18T09:07:36Z</time>
  <speed>1.050000</speed>
</trkpt>
<trkpt lat="31.767826080" lon="35.371734619">
  <ele>164.028564</ele>
  <time>2011-11-18T09:07:39Z</time>
  <speed>1.000000</speed>
</trkpt>
<trkpt lat="31.767831802" lon="35.371696472">
  <ele>165.735596</ele>
  <time>2011-11-18T09:07:43Z</time>
  <speed>0.960000</speed>
</trkpt>
<trkpt lat="31.767856598" lon="35.371681213">
  <ele>166.993408</ele>
  <time>2011-11-18T09:07:47Z</time>
  <speed>0.490000</speed>
</trkpt>
<trkpt lat="31.767883301" lon="35.371688843">
  <ele>165.860596</ele>
  <time>2011-11-18T09:08:01Z</time>
  <speed>1.120000</speed>
</trkpt>
<trkpt lat="31.767911911" lon="35.371677399">
  <ele>165.704346</ele>
  <time>2011-11-18T09:08:05Z</time>
  <speed>0.030000</speed>
</trkpt>
<trkpt lat="31.767940521" lon="35.371673584">
  <ele>166.071533</ele>
  <time>2011-11-18T09:08:10Z</time>
  <speed>0.750000</speed>
</trkpt>
<trkpt lat="31.767969131" lon="35.371665955">
  <ele>166.200439</ele>
  <time>2011-11-18T09:08:20Z</time>
  <speed>0.090000</speed>
</trkpt>
<trkpt lat="31.768007278" lon="35.371658325">
  <ele>166.024658</ele>
  <time>2011-11-18T09:08:27Z</time>
  <speed>2.190000</speed>
</trkpt>
<trkpt lat="31.768056870" lon="35.371665955">
  <ele>164.735596</ele>
  <time>2011-11-18T09:08:29Z</time>
  <speed>2.640000</speed>
</trkpt>
<trkpt lat="31.768095016" lon="35.371665955">
  <ele>163.348877</ele>
  <time>2011-11-18T09:08:30Z</time>
  <speed>4.150000</speed>
</trkpt>
<trkpt lat="31.768140793" lon="35.371665955">
  <ele>163.184814</ele>
  <time>2011-11-18T09:08:31Z</time>
  <speed>5.620000</speed>
</trkpt>
<trkpt lat="31.768184662" lon="35.371658325">
  <ele>163.712158</ele>
  <time>2011-11-18T09:08:32Z</time>
  <speed>4.650000</speed>
</trkpt>
<trkpt lat="31.768220901" lon="35.371650696">
  <ele>163.325439</ele>
  <time>2011-11-18T09:08:33Z</time>
  <speed>3.690000</speed>
</trkpt>
<trkpt lat="31.768253326" lon="35.371639252">
  <ele>162.466064</ele>
  <time>2011-11-18T09:08:34Z</time>
  <speed>3.220000</speed>
</trkpt>
<trkpt lat="31.768280029" lon="35.371627808">
  <ele>162.313721</ele>
  <time>2011-11-18T09:08:35Z</time>
  <speed>3.250000</speed>
</trkpt>
<trkpt lat="31.768302917" lon="35.371608734">
  <ele>163.098877</ele>
  <time>2011-11-18T09:08:36Z</time>
  <speed>4.060000</speed>
</trkpt>
<trkpt lat="31.768329620" lon="35.371582031">
  <ele>163.469971</ele>
  <time>2011-11-18T09:08:37Z</time>
  <speed>4.130000</speed>
</trkpt>
<trkpt lat="31.768360138" lon="35.371555328">
  <ele>162.973877</ele>
  <time>2011-11-18T09:08:38Z</time>
  <speed>3.590000</speed>
</trkpt>
<trkpt lat="31.768384933" lon="35.371536255">
  <ele>162.649658</ele>
  <time>2011-11-18T09:08:39Z</time>
  <speed>3.230000</speed>
</trkpt>
<trkpt lat="31.768411636" lon="35.371524811">
  <ele>162.536377</ele>
  <time>2011-11-18T09:08:40Z</time>
  <speed>3.020000</speed>
</trkpt>
<trkpt lat="31.768438339" lon="35.371509552">
  <ele>162.059814</ele>
  <time>2011-11-18T09:08:41Z</time>
  <speed>3.450000</speed>
</trkpt>
<trkpt lat="31.768461227" lon="35.371479034">
  <ele>162.204346</ele>
  <time>2011-11-18T09:08:42Z</time>
  <speed>4.140000</speed>
</trkpt>
<trkpt lat="31.768497467" lon="35.371452332">
  <ele>162.575439</ele>
  <time>2011-11-18T09:08:43Z</time>
  <speed>4.700000</speed>
</trkpt>
<trkpt lat="31.768537521" lon="35.371421814">
  <ele>162.708252</ele>
  <time>2011-11-18T09:08:44Z</time>
  <speed>4.210000</speed>
</trkpt>
<trkpt lat="31.768569946" lon="35.371398926">
  <ele>162.571533</ele>
  <time>2011-11-18T09:08:45Z</time>
  <speed>4.240000</speed>
</trkpt>
<trkpt lat="31.768606186" lon="35.371372223">
  <ele>162.079346</ele>
  <time>2011-11-18T09:08:46Z</time>
  <speed>4.290000</speed>
</trkpt>
<trkpt lat="31.768634796" lon="35.371353149">
  <ele>162.196533</ele>
  <time>2011-11-18T09:08:47Z</time>
  <speed>4.350000</speed>
</trkpt>
<trkpt lat="31.768669128" lon="35.371334076">
  <ele>162.473877</ele>
  <time>2011-11-18T09:08:48Z</time>
  <speed>4.120000</speed>
</trkpt>
<trkpt lat="31.768705368" lon="35.371322632">
  <ele>162.364502</ele>
  <time>2011-11-18T09:08:49Z</time>
  <speed>3.630000</speed>
</trkpt>
<trkpt lat="31.768732071" lon="35.371299744">
  <ele>162.173096</ele>
  <time>2011-11-18T09:08:50Z</time>
  <speed>3.800000</speed>
</trkpt>
<trkpt lat="31.768762589" lon="35.371280670">
  <ele>162.602783</ele>
  <time>2011-11-18T09:08:51Z</time>
  <speed>4.010000</speed>
</trkpt>
<trkpt lat="31.768795013" lon="35.371253967">
  <ele>163.223877</ele>
  <time>2011-11-18T09:08:52Z</time>
  <speed>4.490000</speed>
</trkpt>
<trkpt lat="31.768823624" lon="35.371234894">
  <ele>163.891846</ele>
  <time>2011-11-18T09:08:53Z</time>
  <speed>3.940000</speed>
</trkpt>
<trkpt lat="31.768861771" lon="35.371223450">
  <ele>163.602783</ele>
  <time>2011-11-18T09:08:54Z</time>
  <speed>3.430000</speed>
</trkpt>
<trkpt lat="31.768888474" lon="35.371212006">
  <ele>163.637939</ele>
  <time>2011-11-18T09:08:55Z</time>
  <speed>3.000000</speed>
</trkpt>
<trkpt lat="31.768934250" lon="35.371200562">
  <ele>163.485596</ele>
  <time>2011-11-18T09:08:57Z</time>
  <speed>2.450000</speed>
</trkpt>
<trkpt lat="31.768980026" lon="35.371181488">
  <ele>163.610596</ele>
  <time>2011-11-18T09:08:59Z</time>
  <speed>3.080000</speed>
</trkpt>
<trkpt lat="31.769006729" lon="35.371139526">
  <ele>164.934814</ele>
  <time>2011-11-18T09:09:01Z</time>
  <speed>2.990000</speed>
</trkpt>
<trkpt lat="31.769031525" lon="35.371120453">
  <ele>164.200439</ele>
  <time>2011-11-18T09:09:02Z</time>
  <speed>2.530000</speed>
</trkpt>
<trkpt lat="31.769050598" lon="35.371082306">
  <ele>165.794189</ele>
  <time>2011-11-18T09:09:04Z</time>
  <speed>2.540000</speed>
</trkpt>
<trkpt lat="31.769060135" lon="35.371028900">
  <ele>166.634033</ele>
  <time>2011-11-18T09:09:06Z</time>
  <speed>1.970000</speed>
</trkpt>
<trkpt lat="31.769071579" lon="35.370975494">
  <ele>167.239502</ele>
  <time>2011-11-18T09:09:08Z</time>
  <speed>2.710000</speed>
</trkpt>
<trkpt lat="31.769073486" lon="35.370910645">
  <ele>167.380127</ele>
  <time>2011-11-18T09:09:10Z</time>
  <speed>2.930000</speed>
</trkpt>
<trkpt lat="31.769069672" lon="35.370880127">
  <ele>167.594971</ele>
  <time>2011-11-18T09:09:11Z</time>
  <speed>3.160000</speed>
</trkpt>
<trkpt lat="31.769069672" lon="35.370845795">
  <ele>167.798096</ele>
  <time>2011-11-18T09:09:12Z</time>
  <speed>3.190000</speed>
</trkpt>
<trkpt lat="31.769065857" lon="35.370811462">
  <ele>168.118408</ele>
  <time>2011-11-18T09:09:13Z</time>
  <speed>3.350000</speed>
</trkpt>
<trkpt lat="31.769063950" lon="35.370769501">
  <ele>168.098877</ele>
  <time>2011-11-18T09:09:14Z</time>
  <speed>3.470000</speed>
</trkpt>
<trkpt lat="31.769063950" lon="35.370735168">
  <ele>168.399658</ele>
  <time>2011-11-18T09:09:15Z</time>
  <speed>3.210000</speed>
</trkpt>
<trkpt lat="31.769063950" lon="35.370700836">
  <ele>168.778564</ele>
  <time>2011-11-18T09:09:16Z</time>
  <speed>2.760000</speed>
</trkpt>
<trkpt lat="31.769063950" lon="35.370647430">
  <ele>168.880127</ele>
  <time>2011-11-18T09:09:18Z</time>
  <speed>2.050000</speed>
</trkpt>
<trkpt lat="31.769060135" lon="35.370601654">
  <ele>169.356689</ele>
  <time>2011-11-18T09:09:20Z</time>
  <speed>2.130000</speed>
</trkpt>
<trkpt lat="31.769063950" lon="35.370548248">
  <ele>169.317627</ele>
  <time>2011-11-18T09:09:22Z</time>
  <speed>2.490000</speed>
</trkpt>
<trkpt lat="31.769067764" lon="35.370487213">
  <ele>168.700439</ele>
  <time>2011-11-18T09:09:24Z</time>
  <speed>2.560000</speed>
</trkpt>
<trkpt lat="31.769069672" lon="35.370429993">
  <ele>167.587158</ele>
  <time>2011-11-18T09:09:26Z</time>
  <speed>2.910000</speed>
</trkpt>
<trkpt lat="31.769065857" lon="35.370376587">
  <ele>166.696533</ele>
  <time>2011-11-18T09:09:28Z</time>
  <speed>2.700000</speed>
</trkpt>
<trkpt lat="31.769052505" lon="35.370319366">
  <ele>166.302002</ele>
  <time>2011-11-18T09:09:30Z</time>
  <speed>2.760000</speed>
</trkpt>
<trkpt lat="31.769041061" lon="35.370285034">
  <ele>166.747314</ele>
  <time>2011-11-18T09:09:31Z</time>
  <speed>2.920000</speed>
</trkpt>
<trkpt lat="31.769020081" lon="35.370231628">
  <ele>166.450439</ele>
  <time>2011-11-18T09:09:33Z</time>
  <speed>2.540000</speed>
</trkpt>
<trkpt lat="31.769002914" lon="35.370208740">
  <ele>165.958252</ele>
  <time>2011-11-18T09:09:34Z</time>
  <speed>3.300000</speed>
</trkpt>
<trkpt lat="31.768993378" lon="35.370178223">
  <ele>165.016846</ele>
  <time>2011-11-18T09:09:35Z</time>
  <speed>3.680000</speed>
</trkpt>
<trkpt lat="31.768983841" lon="35.370136261">
  <ele>165.368408</ele>
  <time>2011-11-18T09:09:36Z</time>
  <speed>3.790000</speed>
</trkpt>
<trkpt lat="31.768981934" lon="35.370094299">
  <ele>166.298096</ele>
  <time>2011-11-18T09:09:37Z</time>
  <speed>3.280000</speed>
</trkpt>
<trkpt lat="31.768991470" lon="35.370059967">
  <ele>165.770752</ele>
  <time>2011-11-18T09:09:38Z</time>
  <speed>2.980000</speed>
</trkpt>
<trkpt lat="31.769004822" lon="35.369998932">
  <ele>165.536377</ele>
  <time>2011-11-18T09:09:40Z</time>
  <speed>3.030000</speed>
</trkpt>
<trkpt lat="31.769010544" lon="35.369968414">
  <ele>165.786377</ele>
  <time>2011-11-18T09:09:41Z</time>
  <speed>3.340000</speed>
</trkpt>
<trkpt lat="31.769018173" lon="35.369937897">
  <ele>165.352783</ele>
  <time>2011-11-18T09:09:42Z</time>
  <speed>3.120000</speed>
</trkpt>
<trkpt lat="31.769014359" lon="35.369899750">
  <ele>165.020752</ele>
  <time>2011-11-18T09:09:43Z</time>
  <speed>3.530000</speed>
</trkpt>
<trkpt lat="31.769018173" lon="35.369865417">
  <ele>164.571533</ele>
  <time>2011-11-18T09:09:44Z</time>
  <speed>3.740000</speed>
</trkpt>
<trkpt lat="31.769021988" lon="35.369827271">
  <ele>164.544189</ele>
  <time>2011-11-18T09:09:45Z</time>
  <speed>3.560000</speed>
</trkpt>
<trkpt lat="31.769037247" lon="35.369792938">
  <ele>165.126221</ele>
  <time>2011-11-18T09:09:46Z</time>
  <speed>3.520000</speed>
</trkpt>
<trkpt lat="31.769052505" lon="35.369762421">
  <ele>165.200439</ele>
  <time>2011-11-18T09:09:47Z</time>
  <speed>2.740000</speed>
</trkpt>
<trkpt lat="31.769065857" lon="35.369735718">
  <ele>164.891846</ele>
  <time>2011-11-18T09:09:48Z</time>
  <speed>2.950000</speed>
</trkpt>
<trkpt lat="31.769063950" lon="35.369663239">
  <ele>166.907471</ele>
  <time>2011-11-18T09:09:50Z</time>
  <speed>2.700000</speed>
</trkpt>
<trkpt lat="31.769062042" lon="35.369606018">
  <ele>167.852783</ele>
  <time>2011-11-18T09:09:52Z</time>
  <speed>2.140000</speed>
</trkpt>
<trkpt lat="31.769062042" lon="35.369567871">
  <ele>167.509033</ele>
  <time>2011-11-18T09:09:54Z</time>
  <speed>1.860000</speed>
</trkpt>
<trkpt lat="31.769056320" lon="35.369533539">
  <ele>167.294189</ele>
  <time>2011-11-18T09:09:56Z</time>
  <speed>1.610000</speed>
</trkpt>
<trkpt lat="31.769044876" lon="35.369503021">
  <ele>166.735596</ele>
  <time>2011-11-18T09:09:58Z</time>
  <speed>1.870000</speed>
</trkpt>
<trkpt lat="31.769012451" lon="35.369476318">
  <ele>166.278564</ele>
  <time>2011-11-18T09:10:00Z</time>
  <speed>1.950000</speed>
</trkpt>
<trkpt lat="31.768985748" lon="35.369453430">
  <ele>165.102783</ele>
  <time>2011-11-18T09:10:02Z</time>
  <speed>2.310000</speed>
</trkpt>
<trkpt lat="31.768960953" lon="35.369415283">
  <ele>164.716064</ele>
  <time>2011-11-18T09:10:04Z</time>
  <speed>2.160000</speed>
</trkpt>
<trkpt lat="31.768966675" lon="35.369373322">
  <ele>163.923096</ele>
  <time>2011-11-18T09:10:06Z</time>
  <speed>2.280000</speed>
</trkpt>
<trkpt lat="31.768997192" lon="35.369369507">
  <ele>163.868408</ele>
  <time>2011-11-18T09:10:08Z</time>
  <speed>1.440000</speed>
</trkpt>
<trkpt lat="31.769033432" lon="35.369365692">
  <ele>163.852783</ele>
  <time>2011-11-18T09:10:10Z</time>
  <speed>1.970000</speed>
</trkpt>
<trkpt lat="31.769063950" lon="35.369358063">
  <ele>164.782471</ele>
  <time>2011-11-18T09:10:12Z</time>
  <speed>2.420000</speed>
</trkpt>
<trkpt lat="31.769109726" lon="35.369350433">
  <ele>165.981689</ele>
  <time>2011-11-18T09:10:14Z</time>
  <speed>2.070000</speed>
</trkpt>
<trkpt lat="31.769149780" lon="35.369354248">
  <ele>165.891846</ele>
  <time>2011-11-18T09:10:16Z</time>
  <speed>2.220000</speed>
</trkpt>
<trkpt lat="31.769182205" lon="35.369350433">
  <ele>167.012939</ele>
  <time>2011-11-18T09:10:18Z</time>
  <speed>0.620000</speed>
</trkpt>
<trkpt lat="31.769220352" lon="35.369338989">
  <ele>166.977783</ele>
  <time>2011-11-18T09:10:20Z</time>
  <speed>1.000000</speed>
</trkpt>
<trkpt lat="31.769250870" lon="35.369331360">
  <ele>168.063721</ele>
  <time>2011-11-18T09:10:22Z</time>
  <speed>1.520000</speed>
</trkpt>
<trkpt lat="31.769281387" lon="35.369327545">
  <ele>169.012939</ele>
  <time>2011-11-18T09:10:25Z</time>
  <speed>0.990000</speed>
</trkpt>
<trkpt lat="31.769302368" lon="35.369338989">
  <ele>170.384033</ele>
  <time>2011-11-18T09:10:28Z</time>
  <speed>0.720000</speed>
</trkpt>
<trkpt lat="31.769330978" lon="35.369338989">
  <ele>170.837158</ele>
  <time>2011-11-18T09:10:31Z</time>
  <speed>0.910000</speed>
</trkpt>
<trkpt lat="31.769350052" lon="35.369323730">
  <ele>172.989502</ele>
  <time>2011-11-18T09:10:34Z</time>
  <speed>0.960000</speed>
</trkpt>
<trkpt lat="31.769376755" lon="35.369308472">
  <ele>173.114502</ele>
  <time>2011-11-18T09:10:36Z</time>
  <speed>0.890000</speed>
</trkpt>
<trkpt lat="31.769372940" lon="35.369281769">
  <ele>175.532471</ele>
  <time>2011-11-18T09:10:40Z</time>
  <speed>1.280000</speed>
</trkpt>
<trkpt lat="31.769395828" lon="35.369251251">
  <ele>176.575439</ele>
  <time>2011-11-18T09:10:44Z</time>
  <speed>0.920000</speed>
</trkpt>
<trkpt lat="31.769426346" lon="35.369235992">
  <ele>176.790283</ele>
  <time>2011-11-18T09:10:48Z</time>
  <speed>0.930000</speed>
</trkpt>
<trkpt lat="31.769443512" lon="35.369209290">
  <ele>178.415283</ele>
  <time>2011-11-18T09:10:52Z</time>
  <speed>0.850000</speed>
</trkpt>
<trkpt lat="31.769460678" lon="35.369174957">
  <ele>179.192627</ele>
  <time>2011-11-18T09:11:00Z</time>
  <speed>1.720000</speed>
</trkpt>
<trkpt lat="31.769479752" lon="35.369144440">
  <ele>178.884033</ele>
  <time>2011-11-18T09:11:02Z</time>
  <speed>2.490000</speed>
</trkpt>
<trkpt lat="31.769504547" lon="35.369102478">
  <ele>178.985596</ele>
  <time>2011-11-18T09:11:04Z</time>
  <speed>2.810000</speed>
</trkpt>
<trkpt lat="31.769542694" lon="35.369056702">
  <ele>177.411377</ele>
  <time>2011-11-18T09:11:06Z</time>
  <speed>3.380000</speed>
</trkpt>
<trkpt lat="31.769565582" lon="35.369033813">
  <ele>177.356689</ele>
  <time>2011-11-18T09:11:07Z</time>
  <speed>3.440000</speed>
</trkpt>
<trkpt lat="31.769582748" lon="35.368999481">
  <ele>177.329346</ele>
  <time>2011-11-18T09:11:08Z</time>
  <speed>3.550000</speed>
</trkpt>
<trkpt lat="31.769622803" lon="35.368957520">
  <ele>177.528564</ele>
  <time>2011-11-18T09:11:10Z</time>
  <speed>3.130000</speed>
</trkpt>
<trkpt lat="31.769643784" lon="35.368930817">
  <ele>177.387939</ele>
  <time>2011-11-18T09:11:11Z</time>
  <speed>3.370000</speed>
</trkpt>
<trkpt lat="31.769674301" lon="35.368915558">
  <ele>177.766846</ele>
  <time>2011-11-18T09:11:12Z</time>
  <speed>3.530000</speed>
</trkpt>
<trkpt lat="31.769699097" lon="35.368888855">
  <ele>177.251221</ele>
  <time>2011-11-18T09:11:13Z</time>
  <speed>3.520000</speed>
</trkpt>
<trkpt lat="31.769725800" lon="35.368873596">
  <ele>177.321533</ele>
  <time>2011-11-18T09:11:14Z</time>
  <speed>3.290000</speed>
</trkpt>
<trkpt lat="31.769754410" lon="35.368854523">
  <ele>176.348877</ele>
  <time>2011-11-18T09:11:15Z</time>
  <speed>2.960000</speed>
</trkpt>
<trkpt lat="31.769779205" lon="35.368846893">
  <ele>176.735596</ele>
  <time>2011-11-18T09:11:16Z</time>
  <speed>2.530000</speed>
</trkpt>
<trkpt lat="31.769819260" lon="35.368827820">
  <ele>176.446533</ele>
  <time>2011-11-18T09:11:18Z</time>
  <speed>2.240000</speed>
</trkpt>
<trkpt lat="31.769859314" lon="35.368797302">
  <ele>176.825439</ele>
  <time>2011-11-18T09:11:20Z</time>
  <speed>2.180000</speed>
</trkpt>
<trkpt lat="31.769895554" lon="35.368762970">
  <ele>175.880127</ele>
  <time>2011-11-18T09:11:22Z</time>
  <speed>2.560000</speed>
</trkpt>
<trkpt lat="31.769927979" lon="35.368724823">
  <ele>176.966064</ele>
  <time>2011-11-18T09:11:24Z</time>
  <speed>2.630000</speed>
</trkpt>
<trkpt lat="31.769964218" lon="35.368701935">
  <ele>176.708252</ele>
  <time>2011-11-18T09:11:26Z</time>
  <speed>2.390000</speed>
</trkpt>
<trkpt lat="31.770000458" lon="35.368675232">
  <ele>176.469971</ele>
  <time>2011-11-18T09:11:28Z</time>
  <speed>2.200000</speed>
</trkpt>
<trkpt lat="31.770027161" lon="35.368656158">
  <ele>176.329346</ele>
  <time>2011-11-18T09:11:30Z</time>
  <speed>1.730000</speed>
</trkpt>
<trkpt lat="31.770063400" lon="35.368644714">
  <ele>175.344971</ele>
  <time>2011-11-18T09:11:32Z</time>
  <speed>1.930000</speed>
</trkpt>
<trkpt lat="31.770078659" lon="35.368621826">
  <ele>176.969971</ele>
  <time>2011-11-18T09:11:34Z</time>
  <speed>1.410000</speed>
</trkpt>
<trkpt lat="31.770105362" lon="35.368595123">
  <ele>177.192627</ele>
  <time>2011-11-18T09:11:37Z</time>
  <speed>1.570000</speed>
</trkpt>
<trkpt lat="31.770103455" lon="35.368556976">
  <ele>179.618408</ele>
  <time>2011-11-18T09:11:39Z</time>
  <speed>0.600000</speed>
</trkpt>
<trkpt lat="31.770120621" lon="35.368534088">
  <ele>180.403564</ele>
  <time>2011-11-18T09:11:51Z</time>
  <speed>1.410000</speed>
</trkpt>
<trkpt lat="31.770112991" lon="35.368484497">
  <ele>180.583252</ele>
  <time>2011-11-18T09:11:53Z</time>
  <speed>2.220000</speed>
</trkpt>
<trkpt lat="31.770103455" lon="35.368450165">
  <ele>180.509033</ele>
  <time>2011-11-18T09:11:54Z</time>
  <speed>3.840000</speed>
</trkpt>
<trkpt lat="31.770086288" lon="35.368400574">
  <ele>180.040283</ele>
  <time>2011-11-18T09:11:55Z</time>
  <speed>4.610000</speed>
</trkpt>
<trkpt lat="31.770071030" lon="35.368350983">
  <ele>179.630127</ele>
  <time>2011-11-18T09:11:56Z</time>
  <speed>5.080000</speed>
</trkpt>
<trkpt lat="31.770050049" lon="35.368293762">
  <ele>179.274658</ele>
  <time>2011-11-18T09:11:57Z</time>
  <speed>5.830000</speed>
</trkpt>
<trkpt lat="31.770032883" lon="35.368236542">
  <ele>178.973877</ele>
  <time>2011-11-18T09:11:58Z</time>
  <speed>5.720000</speed>
</trkpt>
<trkpt lat="31.770011902" lon="35.368171692">
  <ele>178.594971</ele>
  <time>2011-11-18T09:11:59Z</time>
  <speed>6.470000</speed>
</trkpt>
<trkpt lat="31.769990921" lon="35.368103027">
  <ele>178.540283</ele>
  <time>2011-11-18T09:12:00Z</time>
  <speed>6.690000</speed>
</trkpt>
<trkpt lat="31.769977570" lon="35.368038177">
  <ele>177.446533</ele>
  <time>2011-11-18T09:12:01Z</time>
  <speed>7.150000</speed>
</trkpt>
<trkpt lat="31.769966125" lon="35.367958069">
  <ele>176.825439</ele>
  <time>2011-11-18T09:12:02Z</time>
  <speed>7.140000</speed>
</trkpt>
<trkpt lat="31.769960403" lon="35.367889404">
  <ele>175.778564</ele>
  <time>2011-11-18T09:12:03Z</time>
  <speed>6.950000</speed>
</trkpt>
<trkpt lat="31.769947052" lon="35.367813110">
  <ele>175.352783</ele>
  <time>2011-11-18T09:12:04Z</time>
  <speed>7.030000</speed>
</trkpt>
<trkpt lat="31.769929886" lon="35.367736816">
  <ele>174.442627</ele>
  <time>2011-11-18T09:12:05Z</time>
  <speed>6.980000</speed>
</trkpt>
<trkpt lat="31.769918442" lon="35.367660522">
  <ele>174.294189</ele>
  <time>2011-11-18T09:12:06Z</time>
  <speed>6.740000</speed>
</trkpt>
<trkpt lat="31.769910812" lon="35.367591858">
  <ele>173.630127</ele>
  <time>2011-11-18T09:12:07Z</time>
  <speed>6.640000</speed>
</trkpt>
<trkpt lat="31.769905090" lon="35.367523193">
  <ele>172.950439</ele>
  <time>2011-11-18T09:12:08Z</time>
  <speed>6.590000</speed>
</trkpt>
<trkpt lat="31.769897461" lon="35.367443085">
  <ele>172.985596</ele>
  <time>2011-11-18T09:12:09Z</time>
  <speed>6.820000</speed>
</trkpt>
<trkpt lat="31.769889832" lon="35.367374420">
  <ele>171.669189</ele>
  <time>2011-11-18T09:12:10Z</time>
  <speed>6.550000</speed>
</trkpt>
<trkpt lat="31.769889832" lon="35.367301941">
  <ele>171.532471</ele>
  <time>2011-11-18T09:12:11Z</time>
  <speed>6.500000</speed>
</trkpt>
<trkpt lat="31.769887924" lon="35.367240906">
  <ele>171.118408</ele>
  <time>2011-11-18T09:12:12Z</time>
  <speed>5.940000</speed>
</trkpt>
<trkpt lat="31.769872665" lon="35.367179871">
  <ele>170.458252</ele>
  <time>2011-11-18T09:12:13Z</time>
  <speed>5.060000</speed>
</trkpt>
<trkpt lat="31.769853592" lon="35.367126465">
  <ele>169.575439</ele>
  <time>2011-11-18T09:12:14Z</time>
  <speed>5.440000</speed>
</trkpt>
<trkpt lat="31.769828796" lon="35.367076874">
  <ele>168.841064</ele>
  <time>2011-11-18T09:12:15Z</time>
  <speed>5.320000</speed>
</trkpt>
<trkpt lat="31.769802094" lon="35.367027283">
  <ele>167.575439</ele>
  <time>2011-11-18T09:12:16Z</time>
  <speed>4.870000</speed>
</trkpt>
<trkpt lat="31.769777298" lon="35.367000580">
  <ele>167.071533</ele>
  <time>2011-11-18T09:12:17Z</time>
  <speed>3.880000</speed>
</trkpt>
<trkpt lat="31.769756317" lon="35.366977692">
  <ele>166.469971</ele>
  <time>2011-11-18T09:12:18Z</time>
  <speed>3.120000</speed>
</trkpt>
<trkpt lat="31.769725800" lon="35.366947174">
  <ele>165.411377</ele>
  <time>2011-11-18T09:12:20Z</time>
  <speed>1.410000</speed>
</trkpt>
<trkpt lat="31.769746780" lon="35.366973877">
  <ele>164.473877</ele>
  <time>2011-11-18T09:12:29Z</time>
  <speed>1.270000</speed>
</trkpt>
<trkpt lat="31.769760132" lon="35.367012024">
  <ele>163.950439</ele>
  <time>2011-11-18T09:12:32Z</time>
  <speed>0.750000</speed>
</trkpt>
<trkpt lat="31.769731522" lon="35.367012024">
  <ele>163.137939</ele>
  <time>2011-11-18T09:12:44Z</time>
  <speed>1.210000</speed>
</trkpt>
<trkpt lat="31.769699097" lon="35.366977692">
  <ele>162.712158</ele>
  <time>2011-11-18T09:12:47Z</time>
  <speed>2.100000</speed>
</trkpt>
<trkpt lat="31.769680023" lon="35.366935730">
  <ele>162.458252</ele>
  <time>2011-11-18T09:12:49Z</time>
  <speed>1.600000</speed>
</trkpt>
<trkpt lat="31.769659042" lon="35.366901398">
  <ele>161.891846</ele>
  <time>2011-11-18T09:12:51Z</time>
  <speed>1.890000</speed>
</trkpt>
<trkpt lat="31.769630432" lon="35.366863251">
  <ele>161.583252</ele>
  <time>2011-11-18T09:12:53Z</time>
  <speed>2.380000</speed>
</trkpt>
<trkpt lat="31.769598007" lon="35.366817474">
  <ele>160.223877</ele>
  <time>2011-11-18T09:12:55Z</time>
  <speed>3.420000</speed>
</trkpt>
<trkpt lat="31.769578934" lon="35.366790771">
  <ele>159.653564</ele>
  <time>2011-11-18T09:12:56Z</time>
  <speed>3.120000</speed>
</trkpt>
<trkpt lat="31.769563675" lon="35.366760254">
  <ele>159.266846</ele>
  <time>2011-11-18T09:12:57Z</time>
  <speed>2.690000</speed>
</trkpt>
<trkpt lat="31.769536972" lon="35.366729736">
  <ele>157.891846</ele>
  <time>2011-11-18T09:12:59Z</time>
  <speed>2.240000</speed>
</trkpt>
<trkpt lat="31.769491196" lon="35.366706848">
  <ele>157.184814</ele>
  <time>2011-11-18T09:13:01Z</time>
  <speed>2.580000</speed>
</trkpt>
<trkpt lat="31.769466400" lon="35.366683960">
  <ele>156.790283</ele>
  <time>2011-11-18T09:13:02Z</time>
  <speed>3.090000</speed>
</trkpt>
<trkpt lat="31.769439697" lon="35.366661072">
  <ele>156.384033</ele>
  <time>2011-11-18T09:13:03Z</time>
  <speed>3.250000</speed>
</trkpt>
<trkpt lat="31.769418716" lon="35.366638184">
  <ele>155.759033</ele>
  <time>2011-11-18T09:13:04Z</time>
  <speed>3.110000</speed>
</trkpt>
<trkpt lat="31.769393921" lon="35.366615295">
  <ele>155.110596</ele>
  <time>2011-11-18T09:13:05Z</time>
  <speed>3.720000</speed>
</trkpt>
<trkpt lat="31.769369125" lon="35.366584778">
  <ele>154.716064</ele>
  <time>2011-11-18T09:13:06Z</time>
  <speed>3.810000</speed>
</trkpt>
<trkpt lat="31.769346237" lon="35.366539001">
  <ele>154.262939</ele>
  <time>2011-11-18T09:13:07Z</time>
  <speed>4.310000</speed>
</trkpt>
<trkpt lat="31.769325256" lon="35.366497040">
  <ele>154.094971</ele>
  <time>2011-11-18T09:13:08Z</time>
  <speed>4.040000</speed>
</trkpt>
<trkpt lat="31.769315720" lon="35.366462708">
  <ele>153.341064</ele>
  <time>2011-11-18T09:13:09Z</time>
  <speed>3.310000</speed>
</trkpt>
<trkpt lat="31.769304276" lon="35.366428375">
  <ele>153.036377</ele>
  <time>2011-11-18T09:13:10Z</time>
  <speed>3.190000</speed>
</trkpt>
<trkpt lat="31.769298553" lon="35.366374969">
  <ele>153.477783</ele>
  <time>2011-11-18T09:13:12Z</time>
  <speed>2.030000</speed>
</trkpt>
<trkpt lat="31.769298553" lon="35.366336823">
  <ele>151.485596</ele>
  <time>2011-11-18T09:13:14Z</time>
  <speed>1.460000</speed>
</trkpt>
<trkpt lat="31.769302368" lon="35.366291046">
  <ele>150.723877</ele>
  <time>2011-11-18T09:13:17Z</time>
  <speed>1.260000</speed>
</trkpt>
<trkpt lat="31.769271851" lon="35.366264343">
  <ele>149.368408</ele>
  <time>2011-11-18T09:13:20Z</time>
  <speed>1.780000</speed>
</trkpt>
<trkpt lat="31.769250870" lon="35.366256714">
  <ele>147.532471</ele>
  <time>2011-11-18T09:13:23Z</time>
  <speed>0.790000</speed>
</trkpt>
<trkpt lat="31.769207001" lon="35.366268158">
  <ele>146.118408</ele>
  <time>2011-11-18T09:13:59Z</time>
  <speed>2.300000</speed>
</trkpt>
<trkpt lat="31.769178391" lon="35.366275787">
  <ele>146.118408</ele>
  <time>2011-11-18T09:14:00Z</time>
  <speed>3.140000</speed>
</trkpt>
<trkpt lat="31.769138336" lon="35.366279602">
  <ele>145.993408</ele>
  <time>2011-11-18T09:14:01Z</time>
  <speed>4.730000</speed>
</trkpt>
<trkpt lat="31.769092560" lon="35.366287231">
  <ele>145.829346</ele>
  <time>2011-11-18T09:14:02Z</time>
  <speed>4.220000</speed>
</trkpt>
<trkpt lat="31.769056320" lon="35.366298676">
  <ele>145.723877</ele>
  <time>2011-11-18T09:14:03Z</time>
  <speed>3.800000</speed>
</trkpt>
<trkpt lat="31.769018173" lon="35.366306305">
  <ele>145.516846</ele>
  <time>2011-11-18T09:14:04Z</time>
  <speed>3.440000</speed>
</trkpt>
<trkpt lat="31.768983841" lon="35.366313934">
  <ele>145.415283</ele>
  <time>2011-11-18T09:14:05Z</time>
  <speed>3.460000</speed>
</trkpt>
<trkpt lat="31.768947601" lon="35.366321564">
  <ele>145.344971</ele>
  <time>2011-11-18T09:14:06Z</time>
  <speed>3.840000</speed>
</trkpt>
<trkpt lat="31.768913269" lon="35.366333008">
  <ele>145.212158</ele>
  <time>2011-11-18T09:14:07Z</time>
  <speed>3.070000</speed>
</trkpt>
<trkpt lat="31.768884659" lon="35.366336823">
  <ele>145.200439</ele>
  <time>2011-11-18T09:14:08Z</time>
  <speed>2.930000</speed>
</trkpt>
<trkpt lat="31.768871307" lon="35.366306305">
  <ele>144.458252</ele>
  <time>2011-11-18T09:14:11Z</time>
  <speed>1.360000</speed>
</trkpt>
<trkpt lat="31.768884659" lon="35.366279602">
  <ele>143.438721</ele>
  <time>2011-11-18T09:14:20Z</time>
  <speed>0.070000</speed>
</trkpt>
<trkpt lat="31.768911362" lon="35.366279602">
  <ele>142.528564</ele>
  <time>2011-11-18T09:18:23Z</time>
  <speed>0.070000</speed>
</trkpt>
<trkpt lat="31.768928528" lon="35.366302490">
  <ele>143.516846</ele>
  <time>2011-11-18T09:19:42Z</time>
  <speed>0.150000</speed>
</trkpt>
<trkpt lat="31.768911362" lon="35.366275787">
  <ele>144.212158</ele>
  <time>2011-11-18T09:20:09Z</time>
  <speed>0.100000</speed>
</trkpt>
<trkpt lat="31.768892288" lon="35.366256714">
  <ele>144.786377</ele>
  <time>2011-11-18T09:20:33Z</time>
  <speed>0.100000</speed>
</trkpt>
<trkpt lat="31.768871307" lon="35.366241455">
  <ele>146.462158</ele>
  <time>2011-11-18T09:20:58Z</time>
  <speed>0.110000</speed>
</trkpt>
<trkpt lat="31.768856049" lon="35.366241455">
  <ele>149.192627</ele>
  <time>2011-11-18T09:21:19Z</time>
  <speed>0.040000</speed>
</trkpt>
<trkpt lat="31.768857956" lon="35.366226196">
  <ele>152.063721</ele>
  <time>2011-11-18T09:21:35Z</time>
  <speed>1.740000</speed>
</trkpt>
<trkpt lat="31.768890381" lon="35.366195679">
  <ele>152.106689</ele>
  <time>2011-11-18T09:21:37Z</time>
  <speed>3.020000</speed>
</trkpt>
<trkpt lat="31.768915176" lon="35.366176605">
  <ele>153.001221</ele>
  <time>2011-11-18T09:21:38Z</time>
  <speed>2.910000</speed>
</trkpt>
<trkpt lat="31.768936157" lon="35.366157532">
  <ele>153.692627</ele>
  <time>2011-11-18T09:21:39Z</time>
  <speed>2.550000</speed>
</trkpt>
<trkpt lat="31.768974304" lon="35.366119385">
  <ele>153.704346</ele>
  <time>2011-11-18T09:21:41Z</time>
  <speed>2.730000</speed>
</trkpt>
<trkpt lat="31.769018173" lon="35.366130829">
  <ele>153.032471</ele>
  <time>2011-11-18T09:21:42Z</time>
  <speed>3.140000</speed>
</trkpt>
<trkpt lat="31.769056320" lon="35.366138458">
  <ele>151.911377</ele>
  <time>2011-11-18T09:21:43Z</time>
  <speed>3.120000</speed>
</trkpt>
<trkpt lat="31.769084930" lon="35.366130829">
  <ele>150.512939</ele>
  <time>2011-11-18T09:21:44Z</time>
  <speed>2.670000</speed>
</trkpt>
<trkpt lat="31.769115448" lon="35.366134644">
  <ele>150.341064</ele>
  <time>2011-11-18T09:21:45Z</time>
  <speed>2.950000</speed>
</trkpt>
<trkpt lat="31.769168854" lon="35.366119385">
  <ele>148.528564</ele>
  <time>2011-11-18T09:21:47Z</time>
  <speed>3.300000</speed>
</trkpt>
<trkpt lat="31.769199371" lon="35.366123199">
  <ele>148.364502</ele>
  <time>2011-11-18T09:21:48Z</time>
  <speed>3.260000</speed>
</trkpt>
<trkpt lat="31.769227982" lon="35.366123199">
  <ele>148.384033</ele>
  <time>2011-11-18T09:21:49Z</time>
  <speed>3.130000</speed>
</trkpt>
<trkpt lat="31.769277573" lon="35.366111755">
  <ele>147.966064</ele>
  <time>2011-11-18T09:21:51Z</time>
  <speed>2.940000</speed>
</trkpt>
<trkpt lat="31.769325256" lon="35.366081238">
  <ele>147.462158</ele>
  <time>2011-11-18T09:21:53Z</time>
  <speed>3.070000</speed>
</trkpt>
<trkpt lat="31.769353867" lon="35.366065979">
  <ele>147.813721</ele>
  <time>2011-11-18T09:21:54Z</time>
  <speed>2.660000</speed>
</trkpt>
<trkpt lat="31.769374847" lon="35.366046906">
  <ele>147.622314</ele>
  <time>2011-11-18T09:21:55Z</time>
  <speed>3.250000</speed>
</trkpt>
<trkpt lat="31.769393921" lon="35.366024017">
  <ele>147.091064</ele>
  <time>2011-11-18T09:21:56Z</time>
  <speed>3.310000</speed>
</trkpt>
<trkpt lat="31.769445419" lon="35.365982056">
  <ele>146.130127</ele>
  <time>2011-11-18T09:21:58Z</time>
  <speed>3.740000</speed>
</trkpt>
<trkpt lat="31.769479752" lon="35.365970612">
  <ele>145.841064</ele>
  <time>2011-11-18T09:21:59Z</time>
  <speed>3.420000</speed>
</trkpt>
<trkpt lat="31.769506454" lon="35.365962982">
  <ele>145.446533</ele>
  <time>2011-11-18T09:22:00Z</time>
  <speed>3.730000</speed>
</trkpt>
<trkpt lat="31.769536972" lon="35.365947723">
  <ele>144.915283</ele>
  <time>2011-11-18T09:22:01Z</time>
  <speed>3.640000</speed>
</trkpt>
<trkpt lat="31.769569397" lon="35.365943909">
  <ele>145.282471</ele>
  <time>2011-11-18T09:22:02Z</time>
  <speed>2.710000</speed>
</trkpt>
<trkpt lat="31.769594193" lon="35.365943909">
  <ele>143.673096</ele>
  <time>2011-11-18T09:22:03Z</time>
  <speed>2.070000</speed>
</trkpt>
<trkpt lat="31.769628525" lon="35.365940094">
  <ele>143.001221</ele>
  <time>2011-11-18T09:22:05Z</time>
  <speed>1.690000</speed>
</trkpt>
<trkpt lat="31.769670486" lon="35.365951538">
  <ele>142.880127</ele>
  <time>2011-11-18T09:22:07Z</time>
  <speed>3.000000</speed>
</trkpt>
<trkpt lat="31.769695282" lon="35.365962982">
  <ele>142.540283</ele>
  <time>2011-11-18T09:22:08Z</time>
  <speed>2.740000</speed>
</trkpt>
<trkpt lat="31.769731522" lon="35.365997314">
  <ele>141.641846</ele>
  <time>2011-11-18T09:22:10Z</time>
  <speed>2.890000</speed>
</trkpt>
<trkpt lat="31.769762039" lon="35.366043091">
  <ele>142.594971</ele>
  <time>2011-11-18T09:22:12Z</time>
  <speed>2.510000</speed>
</trkpt>
<trkpt lat="31.769773483" lon="35.366073608">
  <ele>142.923096</ele>
  <time>2011-11-18T09:22:13Z</time>
  <speed>2.880000</speed>
</trkpt>
<trkpt lat="31.769781113" lon="35.366104126">
  <ele>142.860596</ele>
  <time>2011-11-18T09:22:14Z</time>
  <speed>3.350000</speed>
</trkpt>
<trkpt lat="31.769796371" lon="35.366138458">
  <ele>142.649658</ele>
  <time>2011-11-18T09:22:15Z</time>
  <speed>3.730000</speed>
</trkpt>
<trkpt lat="31.769811630" lon="35.366172791">
  <ele>143.036377</ele>
  <time>2011-11-18T09:22:16Z</time>
  <speed>3.730000</speed>
</trkpt>
<trkpt lat="31.769819260" lon="35.366214752">
  <ele>142.192627</ele>
  <time>2011-11-18T09:22:17Z</time>
  <speed>4.060000</speed>
</trkpt>
<trkpt lat="31.769847870" lon="35.366249084">
  <ele>142.559814</ele>
  <time>2011-11-18T09:22:18Z</time>
  <speed>3.580000</speed>
</trkpt>
<trkpt lat="31.769863129" lon="35.366279602">
  <ele>142.325439</ele>
  <time>2011-11-18T09:22:19Z</time>
  <speed>3.540000</speed>
</trkpt>
<trkpt lat="31.769876480" lon="35.366310120">
  <ele>141.708252</ele>
  <time>2011-11-18T09:22:20Z</time>
  <speed>3.150000</speed>
</trkpt>
<trkpt lat="31.769899368" lon="35.366359711">
  <ele>140.677002</ele>
  <time>2011-11-18T09:22:22Z</time>
  <speed>3.120000</speed>
</trkpt>
<trkpt lat="31.769914627" lon="35.366394043">
  <ele>140.907471</ele>
  <time>2011-11-18T09:22:23Z</time>
  <speed>2.900000</speed>
</trkpt>
<trkpt lat="31.769929886" lon="35.366416931">
  <ele>140.704346</ele>
  <time>2011-11-18T09:22:24Z</time>
  <speed>3.240000</speed>
</trkpt>
<trkpt lat="31.769962311" lon="35.366455078">
  <ele>139.376221</ele>
  <time>2011-11-18T09:22:26Z</time>
  <speed>3.310000</speed>
</trkpt>
<trkpt lat="31.769981384" lon="35.366485596">
  <ele>138.829346</ele>
  <time>2011-11-18T09:22:27Z</time>
  <speed>3.410000</speed>
</trkpt>
<trkpt lat="31.770002365" lon="35.366512299">
  <ele>139.173096</ele>
  <time>2011-11-18T09:22:28Z</time>
  <speed>3.050000</speed>
</trkpt>
<trkpt lat="31.770038605" lon="35.366554260">
  <ele>139.087158</ele>
  <time>2011-11-18T09:22:30Z</time>
  <speed>2.980000</speed>
</trkpt>
<trkpt lat="31.770067215" lon="35.366580963">
  <ele>139.587158</ele>
  <time>2011-11-18T09:22:31Z</time>
  <speed>3.680000</speed>
</trkpt>
<trkpt lat="31.770093918" lon="35.366592407">
  <ele>139.309814</ele>
  <time>2011-11-18T09:22:32Z</time>
  <speed>3.660000</speed>
</trkpt>
<trkpt lat="31.770124435" lon="35.366615295">
  <ele>139.126221</ele>
  <time>2011-11-18T09:22:33Z</time>
  <speed>3.530000</speed>
</trkpt>
<trkpt lat="31.770139694" lon="35.366645813">
  <ele>138.844971</ele>
  <time>2011-11-18T09:22:34Z</time>
  <speed>3.740000</speed>
</trkpt>
<trkpt lat="31.770158768" lon="35.366680145">
  <ele>138.692627</ele>
  <time>2011-11-18T09:22:35Z</time>
  <speed>3.810000</speed>
</trkpt>
<trkpt lat="31.770179749" lon="35.366714478">
  <ele>138.739502</ele>
  <time>2011-11-18T09:22:36Z</time>
  <speed>3.820000</speed>
</trkpt>
<trkpt lat="31.770200729" lon="35.366744995">
  <ele>138.778564</ele>
  <time>2011-11-18T09:22:37Z</time>
  <speed>3.560000</speed>
</trkpt>
<trkpt lat="31.770223618" lon="35.366767883">
  <ele>138.594971</ele>
  <time>2011-11-18T09:22:38Z</time>
  <speed>3.600000</speed>
</trkpt>
<trkpt lat="31.770242691" lon="35.366798401">
  <ele>138.512939</ele>
  <time>2011-11-18T09:22:39Z</time>
  <speed>3.410000</speed>
</trkpt>
<trkpt lat="31.770275116" lon="35.366832733">
  <ele>137.954346</ele>
  <time>2011-11-18T09:22:41Z</time>
  <speed>1.940000</speed>
</trkpt>
<trkpt lat="31.770301819" lon="35.366855621">
  <ele>137.997314</ele>
  <time>2011-11-18T09:22:48Z</time>
  <speed>2.210000</speed>
</trkpt>
<trkpt lat="31.770318985" lon="35.366882324">
  <ele>137.985596</ele>
  <time>2011-11-18T09:22:49Z</time>
  <speed>2.860000</speed>
</trkpt>
<trkpt lat="31.770338058" lon="35.366909027">
  <ele>138.071533</ele>
  <time>2011-11-18T09:22:50Z</time>
  <speed>3.280000</speed>
</trkpt>
<trkpt lat="31.770359039" lon="35.366939545">
  <ele>137.880127</ele>
  <time>2011-11-18T09:22:51Z</time>
  <speed>3.610000</speed>
</trkpt>
<trkpt lat="31.770383835" lon="35.366958618">
  <ele>137.294189</ele>
  <time>2011-11-18T09:22:52Z</time>
  <speed>4.460000</speed>
</trkpt>
<trkpt lat="31.770406723" lon="35.366996765">
  <ele>137.040283</ele>
  <time>2011-11-18T09:22:53Z</time>
  <speed>4.760000</speed>
</trkpt>
<trkpt lat="31.770437241" lon="35.367038727">
  <ele>136.809814</ele>
  <time>2011-11-18T09:22:54Z</time>
  <speed>4.850000</speed>
</trkpt>
<trkpt lat="31.770458221" lon="35.367080688">
  <ele>136.723877</ele>
  <time>2011-11-18T09:22:55Z</time>
  <speed>4.580000</speed>
</trkpt>
<trkpt lat="31.770484924" lon="35.367118835">
  <ele>136.387939</ele>
  <time>2011-11-18T09:22:56Z</time>
  <speed>4.820000</speed>
</trkpt>
<trkpt lat="31.770521164" lon="35.367156982">
  <ele>136.407471</ele>
  <time>2011-11-18T09:22:57Z</time>
  <speed>5.260000</speed>
</trkpt>
<trkpt lat="31.770559311" lon="35.367198944">
  <ele>136.208252</ele>
  <time>2011-11-18T09:22:58Z</time>
  <speed>5.350000</speed>
</trkpt>
<trkpt lat="31.770624161" lon="35.367218018">
  <ele>136.520752</ele>
  <time>2011-11-18T09:22:59Z</time>
  <speed>5.120000</speed>
</trkpt>
<trkpt lat="31.770652771" lon="35.367263794">
  <ele>136.368408</ele>
  <time>2011-11-18T09:23:00Z</time>
  <speed>4.900000</speed>
</trkpt>
<trkpt lat="31.770683289" lon="35.367301941">
  <ele>136.294189</ele>
  <time>2011-11-18T09:23:01Z</time>
  <speed>4.760000</speed>
</trkpt>
<trkpt lat="31.770708084" lon="35.367340088">
  <ele>135.876221</ele>
  <time>2011-11-18T09:23:02Z</time>
  <speed>4.430000</speed>
</trkpt>
<trkpt lat="31.770730972" lon="35.367385864">
  <ele>135.641846</ele>
  <time>2011-11-18T09:23:03Z</time>
  <speed>4.560000</speed>
</trkpt>
<trkpt lat="31.770740509" lon="35.367431641">
  <ele>135.290283</ele>
  <time>2011-11-18T09:23:04Z</time>
  <speed>4.640000</speed>
</trkpt>
<trkpt lat="31.770763397" lon="35.367469788">
  <ele>134.907471</ele>
  <time>2011-11-18T09:23:05Z</time>
  <speed>4.560000</speed>
</trkpt>
<trkpt lat="31.770782471" lon="35.367515564">
  <ele>134.684814</ele>
  <time>2011-11-18T09:23:06Z</time>
  <speed>4.220000</speed>
</trkpt>
<trkpt lat="31.770805359" lon="35.367557526">
  <ele>134.802002</ele>
  <time>2011-11-18T09:23:07Z</time>
  <speed>4.220000</speed>
</trkpt>
<trkpt lat="31.770826340" lon="35.367595673">
  <ele>134.591064</ele>
  <time>2011-11-18T09:23:08Z</time>
  <speed>4.200000</speed>
</trkpt>
<trkpt lat="31.770833969" lon="35.367641449">
  <ele>134.509033</ele>
  <time>2011-11-18T09:23:09Z</time>
  <speed>4.270000</speed>
</trkpt>
<trkpt lat="31.770845413" lon="35.367687225">
  <ele>134.395752</ele>
  <time>2011-11-18T09:23:10Z</time>
  <speed>4.750000</speed>
</trkpt>
<trkpt lat="31.770858765" lon="35.367733002">
  <ele>134.497314</ele>
  <time>2011-11-18T09:23:11Z</time>
  <speed>4.760000</speed>
</trkpt>
<trkpt lat="31.770868301" lon="35.367782593">
  <ele>134.559814</ele>
  <time>2011-11-18T09:23:12Z</time>
  <speed>4.800000</speed>
</trkpt>
<trkpt lat="31.770879745" lon="35.367828369">
  <ele>134.673096</ele>
  <time>2011-11-18T09:23:13Z</time>
  <speed>4.780000</speed>
</trkpt>
<trkpt lat="31.770887375" lon="35.367877960">
  <ele>134.259033</ele>
  <time>2011-11-18T09:23:14Z</time>
  <speed>4.800000</speed>
</trkpt>
<trkpt lat="31.770898819" lon="35.367923737">
  <ele>134.126221</ele>
  <time>2011-11-18T09:23:15Z</time>
  <speed>4.670000</speed>
</trkpt>
<trkpt lat="31.770908356" lon="35.367973328">
  <ele>134.024658</ele>
  <time>2011-11-18T09:23:16Z</time>
  <speed>4.730000</speed>
</trkpt>
<trkpt lat="31.770900726" lon="35.368026733">
  <ele>133.278564</ele>
  <time>2011-11-18T09:23:17Z</time>
  <speed>4.450000</speed>
</trkpt>
<trkpt lat="31.770910263" lon="35.368072510">
  <ele>133.290283</ele>
  <time>2011-11-18T09:23:18Z</time>
  <speed>4.850000</speed>
</trkpt>
<trkpt lat="31.770917892" lon="35.368122101">
  <ele>132.696533</ele>
  <time>2011-11-18T09:23:19Z</time>
  <speed>5.360000</speed>
</trkpt>
<trkpt lat="31.770929337" lon="35.368171692">
  <ele>132.493408</ele>
  <time>2011-11-18T09:23:20Z</time>
  <speed>5.110000</speed>
</trkpt>
<trkpt lat="31.770936966" lon="35.368217468">
  <ele>131.856689</ele>
  <time>2011-11-18T09:23:21Z</time>
  <speed>5.200000</speed>
</trkpt>
<trkpt lat="31.770948410" lon="35.368263245">
  <ele>131.594971</ele>
  <time>2011-11-18T09:23:22Z</time>
  <speed>5.050000</speed>
</trkpt>
<trkpt lat="31.770959854" lon="35.368309021">
  <ele>131.188721</ele>
  <time>2011-11-18T09:23:23Z</time>
  <speed>4.720000</speed>
</trkpt>
<trkpt lat="31.770973206" lon="35.368362427">
  <ele>130.825439</ele>
  <time>2011-11-18T09:23:24Z</time>
  <speed>5.410000</speed>
</trkpt>
<trkpt lat="31.770984650" lon="35.368412018">
  <ele>130.579346</ele>
  <time>2011-11-18T09:23:25Z</time>
  <speed>5.080000</speed>
</trkpt>
<trkpt lat="31.770996094" lon="35.368465424">
  <ele>130.091064</ele>
  <time>2011-11-18T09:23:26Z</time>
  <speed>5.140000</speed>
</trkpt>
<trkpt lat="31.771011353" lon="35.368518829">
  <ele>129.852783</ele>
  <time>2011-11-18T09:23:27Z</time>
  <speed>5.480000</speed>
</trkpt>
<trkpt lat="31.771026611" lon="35.368572235">
  <ele>129.255127</ele>
  <time>2011-11-18T09:23:28Z</time>
  <speed>5.270000</speed>
</trkpt>
<trkpt lat="31.771047592" lon="35.368618011">
  <ele>128.880127</ele>
  <time>2011-11-18T09:23:29Z</time>
  <speed>5.110000</speed>
</trkpt>
<trkpt lat="31.771072388" lon="35.368667603">
  <ele>128.485596</ele>
  <time>2011-11-18T09:23:30Z</time>
  <speed>4.870000</speed>
</trkpt>
<trkpt lat="31.771100998" lon="35.368709564">
  <ele>128.618408</ele>
  <time>2011-11-18T09:23:31Z</time>
  <speed>5.020000</speed>
</trkpt>
<trkpt lat="31.771129608" lon="35.368759155">
  <ele>128.399658</ele>
  <time>2011-11-18T09:23:32Z</time>
  <speed>5.200000</speed>
</trkpt>
<trkpt lat="31.771158218" lon="35.368804932">
  <ele>128.278564</ele>
  <time>2011-11-18T09:23:33Z</time>
  <speed>5.070000</speed>
</trkpt>
<trkpt lat="31.771192551" lon="35.368846893">
  <ele>128.302002</ele>
  <time>2011-11-18T09:23:34Z</time>
  <speed>5.740000</speed>
</trkpt>
<trkpt lat="31.771230698" lon="35.368888855">
  <ele>127.932251</ele>
  <time>2011-11-18T09:23:35Z</time>
  <speed>5.610000</speed>
</trkpt>
<trkpt lat="31.771306992" lon="35.368907928">
  <ele>129.005127</ele>
  <time>2011-11-18T09:23:36Z</time>
  <speed>5.530000</speed>
</trkpt>
<trkpt lat="31.771341324" lon="35.368953705">
  <ele>128.934814</ele>
  <time>2011-11-18T09:23:37Z</time>
  <speed>5.440000</speed>
</trkpt>
<trkpt lat="31.771373749" lon="35.368995667">
  <ele>129.067627</ele>
  <time>2011-11-18T09:23:38Z</time>
  <speed>5.090000</speed>
</trkpt>
<trkpt lat="31.771394730" lon="35.369041443">
  <ele>128.962158</ele>
  <time>2011-11-18T09:23:39Z</time>
  <speed>4.810000</speed>
</trkpt>
<trkpt lat="31.771411896" lon="35.369094849">
  <ele>129.071533</ele>
  <time>2011-11-18T09:23:40Z</time>
  <speed>4.960000</speed>
</trkpt>
<trkpt lat="31.771436691" lon="35.369144440">
  <ele>129.489502</ele>
  <time>2011-11-18T09:23:41Z</time>
  <speed>5.100000</speed>
</trkpt>
<trkpt lat="31.771444321" lon="35.369197845">
  <ele>129.380127</ele>
  <time>2011-11-18T09:23:42Z</time>
  <speed>4.980000</speed>
</trkpt>
<trkpt lat="31.771455765" lon="35.369255066">
  <ele>129.704346</ele>
  <time>2011-11-18T09:23:43Z</time>
  <speed>5.550000</speed>
</trkpt>
<trkpt lat="31.771469116" lon="35.369316101">
  <ele>129.505127</ele>
  <time>2011-11-18T09:23:44Z</time>
  <speed>5.590000</speed>
</trkpt>
<trkpt lat="31.771482468" lon="35.369369507">
  <ele>129.450439</ele>
  <time>2011-11-18T09:23:45Z</time>
  <speed>5.520000</speed>
</trkpt>
<trkpt lat="31.771505356" lon="35.369426727">
  <ele>129.161377</ele>
  <time>2011-11-18T09:23:46Z</time>
  <speed>5.270000</speed>
</trkpt>
<trkpt lat="31.771526337" lon="35.369468689">
  <ele>128.997314</ele>
  <time>2011-11-18T09:23:47Z</time>
  <speed>5.490000</speed>
</trkpt>
<trkpt lat="31.771547318" lon="35.369518280">
  <ele>128.872314</ele>
  <time>2011-11-18T09:23:48Z</time>
  <speed>5.440000</speed>
</trkpt>
<trkpt lat="31.771562576" lon="35.369579315">
  <ele>128.821533</ele>
  <time>2011-11-18T09:23:49Z</time>
  <speed>5.890000</speed>
</trkpt>
<trkpt lat="31.771581650" lon="35.369636536">
  <ele>128.661377</ele>
  <time>2011-11-18T09:23:50Z</time>
  <speed>5.770000</speed>
</trkpt>
<trkpt lat="31.771615982" lon="35.369689941">
  <ele>128.591064</ele>
  <time>2011-11-18T09:23:51Z</time>
  <speed>5.310000</speed>
</trkpt>
<trkpt lat="31.771648407" lon="35.369731903">
  <ele>128.501221</ele>
  <time>2011-11-18T09:23:52Z</time>
  <speed>5.640000</speed>
</trkpt>
<trkpt lat="31.771688461" lon="35.369773865">
  <ele>128.126221</ele>
  <time>2011-11-18T09:23:53Z</time>
  <speed>5.520000</speed>
</trkpt>
<trkpt lat="31.771749496" lon="35.369800568">
  <ele>128.673096</ele>
  <time>2011-11-18T09:23:54Z</time>
  <speed>5.440000</speed>
</trkpt>
<trkpt lat="31.771785736" lon="35.369838715">
  <ele>128.434814</ele>
  <time>2011-11-18T09:23:55Z</time>
  <speed>5.630000</speed>
</trkpt>
<trkpt lat="31.771823883" lon="35.369876862">
  <ele>128.192627</ele>
  <time>2011-11-18T09:23:56Z</time>
  <speed>5.590000</speed>
</trkpt>
<trkpt lat="31.771863937" lon="35.369911194">
  <ele>128.118408</ele>
  <time>2011-11-18T09:23:57Z</time>
  <speed>5.310000</speed>
</trkpt>
<trkpt lat="31.771905899" lon="35.369941711">
  <ele>127.576782</ele>
  <time>2011-11-18T09:23:58Z</time>
  <speed>5.420000</speed>
</trkpt>
<trkpt lat="31.771947861" lon="35.369968414">
  <ele>127.844360</ele>
  <time>2011-11-18T09:23:59Z</time>
  <speed>5.230000</speed>
</trkpt>
<trkpt lat="31.771995544" lon="35.369987488">
  <ele>127.567017</ele>
  <time>2011-11-18T09:24:00Z</time>
  <speed>5.820000</speed>
</trkpt>
<trkpt lat="31.772047043" lon="35.370010376">
  <ele>127.354126</ele>
  <time>2011-11-18T09:24:01Z</time>
  <speed>6.500000</speed>
</trkpt>
<trkpt lat="31.772102356" lon="35.370033264">
  <ele>127.293579</ele>
  <time>2011-11-18T09:24:02Z</time>
  <speed>6.370000</speed>
</trkpt>
<trkpt lat="31.772159576" lon="35.370056152">
  <ele>127.193970</ele>
  <time>2011-11-18T09:24:03Z</time>
  <speed>6.670000</speed>
</trkpt>
<trkpt lat="31.772218704" lon="35.370071411">
  <ele>127.428345</ele>
  <time>2011-11-18T09:24:04Z</time>
  <speed>6.470000</speed>
</trkpt>
<trkpt lat="31.772275925" lon="35.370086670">
  <ele>127.543579</ele>
  <time>2011-11-18T09:24:05Z</time>
  <speed>6.310000</speed>
</trkpt>
<trkpt lat="31.772331238" lon="35.370098114">
  <ele>127.443970</ele>
  <time>2011-11-18T09:24:06Z</time>
  <speed>6.410000</speed>
</trkpt>
<trkpt lat="31.772409439" lon="35.370105743">
  <ele>127.992798</ele>
  <time>2011-11-18T09:24:07Z</time>
  <speed>6.240000</speed>
</trkpt>
<trkpt lat="31.772459030" lon="35.370124817">
  <ele>128.106689</ele>
  <time>2011-11-18T09:24:08Z</time>
  <speed>5.610000</speed>
</trkpt>
<trkpt lat="31.772506714" lon="35.370140076">
  <ele>127.684204</ele>
  <time>2011-11-18T09:24:09Z</time>
  <speed>5.720000</speed>
</trkpt>
<trkpt lat="31.772554398" lon="35.370159149">
  <ele>127.254517</ele>
  <time>2011-11-18T09:24:10Z</time>
  <speed>6.080000</speed>
</trkpt>
<trkpt lat="31.772609711" lon="35.370182037">
  <ele>127.274048</ele>
  <time>2011-11-18T09:24:11Z</time>
  <speed>6.400000</speed>
</trkpt>
<trkpt lat="31.772663116" lon="35.370201111">
  <ele>127.027954</ele>
  <time>2011-11-18T09:24:12Z</time>
  <speed>6.570000</speed>
</trkpt>
<trkpt lat="31.772720337" lon="35.370220184">
  <ele>127.391235</ele>
  <time>2011-11-18T09:24:13Z</time>
  <speed>6.680000</speed>
</trkpt>
<trkpt lat="31.772775650" lon="35.370239258">
  <ele>127.469360</ele>
  <time>2011-11-18T09:24:14Z</time>
  <speed>6.380000</speed>
</trkpt>
<trkpt lat="31.772834778" lon="35.370258331">
  <ele>127.943970</ele>
  <time>2011-11-18T09:24:15Z</time>
  <speed>6.280000</speed>
</trkpt>
<trkpt lat="31.772890091" lon="35.370269775">
  <ele>127.768188</ele>
  <time>2011-11-18T09:24:16Z</time>
  <speed>6.560000</speed>
</trkpt>
<trkpt lat="31.772935867" lon="35.370288849">
  <ele>127.414673</ele>
  <time>2011-11-18T09:24:17Z</time>
  <speed>5.720000</speed>
</trkpt>
<trkpt lat="31.772983551" lon="35.370315552">
  <ele>127.072876</ele>
  <time>2011-11-18T09:24:18Z</time>
  <speed>5.480000</speed>
</trkpt>
<trkpt lat="31.773027420" lon="35.370349884">
  <ele>126.998657</ele>
  <time>2011-11-18T09:24:19Z</time>
  <speed>5.850000</speed>
</trkpt>
<trkpt lat="31.773063660" lon="35.370395660">
  <ele>126.434204</ele>
  <time>2011-11-18T09:24:20Z</time>
  <speed>5.540000</speed>
</trkpt>
<trkpt lat="31.773099899" lon="35.370433807">
  <ele>126.213501</ele>
  <time>2011-11-18T09:24:21Z</time>
  <speed>5.380000</speed>
</trkpt>
<trkpt lat="31.773128510" lon="35.370471954">
  <ele>125.914673</ele>
  <time>2011-11-18T09:24:22Z</time>
  <speed>4.840000</speed>
</trkpt>
<trkpt lat="31.773151398" lon="35.370510101">
  <ele>126.151001</ele>
  <time>2011-11-18T09:24:23Z</time>
  <speed>3.720000</speed>
</trkpt>
<trkpt lat="31.773164749" lon="35.370567322">
  <ele>124.244751</ele>
  <time>2011-11-18T09:24:25Z</time>
  <speed>3.230000</speed>
</trkpt>
<trkpt lat="31.773170471" lon="35.370597839">
  <ele>124.121704</ele>
  <time>2011-11-18T09:24:26Z</time>
  <speed>3.200000</speed>
</trkpt>
<trkpt lat="31.773176193" lon="35.370639801">
  <ele>124.297485</ele>
  <time>2011-11-18T09:24:27Z</time>
  <speed>3.900000</speed>
</trkpt>
<trkpt lat="31.773176193" lon="35.370685577">
  <ele>124.162720</ele>
  <time>2011-11-18T09:24:28Z</time>
  <speed>4.500000</speed>
</trkpt>
<trkpt lat="31.773185730" lon="35.370731354">
  <ele>124.127563</ele>
  <time>2011-11-18T09:24:29Z</time>
  <speed>4.290000</speed>
</trkpt>
<trkpt lat="31.773187637" lon="35.370777130">
  <ele>123.975220</ele>
  <time>2011-11-18T09:24:30Z</time>
  <speed>3.860000</speed>
</trkpt>
<trkpt lat="31.773189545" lon="35.370815277">
  <ele>123.565063</ele>
  <time>2011-11-18T09:24:31Z</time>
  <speed>3.710000</speed>
</trkpt>
<trkpt lat="31.773191452" lon="35.370849609">
  <ele>123.260376</ele>
  <time>2011-11-18T09:24:32Z</time>
  <speed>3.700000</speed>
</trkpt>
<trkpt lat="31.773185730" lon="35.370887756">
  <ele>123.125610</ele>
  <time>2011-11-18T09:24:33Z</time>
  <speed>3.400000</speed>
</trkpt>
<trkpt lat="31.773178101" lon="35.370922089">
  <ele>122.828735</ele>
  <time>2011-11-18T09:24:34Z</time>
  <speed>3.500000</speed>
</trkpt>
<trkpt lat="31.773160934" lon="35.370956421">
  <ele>122.826782</ele>
  <time>2011-11-18T09:24:35Z</time>
  <speed>3.180000</speed>
</trkpt>
<trkpt lat="31.773128510" lon="35.370998383">
  <ele>122.371704</ele>
  <time>2011-11-18T09:24:37Z</time>
  <speed>2.900000</speed>
</trkpt>
<trkpt lat="31.773105621" lon="35.371025085">
  <ele>122.379517</ele>
  <time>2011-11-18T09:24:38Z</time>
  <speed>3.260000</speed>
</trkpt>
<trkpt lat="31.773080826" lon="35.371044159">
  <ele>122.422485</ele>
  <time>2011-11-18T09:24:39Z</time>
  <speed>3.270000</speed>
</trkpt>
<trkpt lat="31.773054123" lon="35.371059418">
  <ele>122.686157</ele>
  <time>2011-11-18T09:24:40Z</time>
  <speed>3.010000</speed>
</trkpt>
<trkpt lat="31.773027420" lon="35.371086121">
  <ele>122.524048</ele>
  <time>2011-11-18T09:24:41Z</time>
  <speed>3.730000</speed>
</trkpt>
<trkpt lat="31.773002625" lon="35.371116638">
  <ele>122.506470</ele>
  <time>2011-11-18T09:24:42Z</time>
  <speed>4.430000</speed>
</trkpt>
<trkpt lat="31.772974014" lon="35.371147156">
  <ele>122.602173</ele>
  <time>2011-11-18T09:24:43Z</time>
  <speed>3.910000</speed>
</trkpt>
<trkpt lat="31.772954941" lon="35.371177673">
  <ele>122.776001</ele>
  <time>2011-11-18T09:24:44Z</time>
  <speed>3.740000</speed>
</trkpt>
<trkpt lat="31.772939682" lon="35.371215820">
  <ele>122.715454</ele>
  <time>2011-11-18T09:24:45Z</time>
  <speed>3.570000</speed>
</trkpt>
<trkpt lat="31.772930145" lon="35.371250153">
  <ele>122.781860</ele>
  <time>2011-11-18T09:24:46Z</time>
  <speed>3.560000</speed>
</trkpt>
<trkpt lat="31.772920609" lon="35.371280670">
  <ele>122.945923</ele>
  <time>2011-11-18T09:24:47Z</time>
  <speed>3.640000</speed>
</trkpt>
<trkpt lat="31.772907257" lon="35.371322632">
  <ele>123.043579</ele>
  <time>2011-11-18T09:24:48Z</time>
  <speed>4.230000</speed>
</trkpt>
<trkpt lat="31.772897720" lon="35.371364594">
  <ele>123.031860</ele>
  <time>2011-11-18T09:24:49Z</time>
  <speed>3.800000</speed>
</trkpt>
<trkpt lat="31.772890091" lon="35.371417999">
  <ele>122.901001</ele>
  <time>2011-11-18T09:24:50Z</time>
  <speed>3.840000</speed>
</trkpt>
<trkpt lat="31.772886276" lon="35.371471405">
  <ele>122.904907</ele>
  <time>2011-11-18T09:24:51Z</time>
  <speed>4.010000</speed>
</trkpt>
<trkpt lat="31.772880554" lon="35.371513367">
  <ele>122.924438</ele>
  <time>2011-11-18T09:24:52Z</time>
  <speed>3.420000</speed>
</trkpt>
<trkpt lat="31.772876740" lon="35.371543884">
  <ele>123.133423</ele>
  <time>2011-11-18T09:24:53Z</time>
  <speed>3.240000</speed>
</trkpt>
<trkpt lat="31.772869110" lon="35.371582031">
  <ele>123.385376</ele>
  <time>2011-11-18T09:24:54Z</time>
  <speed>3.740000</speed>
</trkpt>
<trkpt lat="31.772853851" lon="35.371631622">
  <ele>123.707642</ele>
  <time>2011-11-18T09:24:55Z</time>
  <speed>4.230000</speed>
</trkpt>
<trkpt lat="31.772838593" lon="35.371669769">
  <ele>123.871704</ele>
  <time>2011-11-18T09:24:56Z</time>
  <speed>3.730000</speed>
</trkpt>
<trkpt lat="31.772823334" lon="35.371707916">
  <ele>124.045532</ele>
  <time>2011-11-18T09:24:57Z</time>
  <speed>4.220000</speed>
</trkpt>
<trkpt lat="31.772802353" lon="35.371749878">
  <ele>124.152954</ele>
  <time>2011-11-18T09:24:58Z</time>
  <speed>4.320000</speed>
</trkpt>
<trkpt lat="31.772787094" lon="35.371791840">
  <ele>124.402954</ele>
  <time>2011-11-18T09:24:59Z</time>
  <speed>3.920000</speed>
</trkpt>
<trkpt lat="31.772771835" lon="35.371837616">
  <ele>124.666626</ele>
  <time>2011-11-18T09:25:00Z</time>
  <speed>4.280000</speed>
</trkpt>
<trkpt lat="31.772754669" lon="35.371875763">
  <ele>124.942017</ele>
  <time>2011-11-18T09:25:01Z</time>
  <speed>4.320000</speed>
</trkpt>
<trkpt lat="31.772727966" lon="35.371917725">
  <ele>126.428345</ele>
  <time>2011-11-18T09:25:02Z</time>
  <speed>4.510000</speed>
</trkpt>
<trkpt lat="31.772714615" lon="35.371963501">
  <ele>126.334595</ele>
  <time>2011-11-18T09:25:03Z</time>
  <speed>4.130000</speed>
</trkpt>
<trkpt lat="31.772705078" lon="35.372005463">
  <ele>126.197876</ele>
  <time>2011-11-18T09:25:04Z</time>
  <speed>3.960000</speed>
</trkpt>
<trkpt lat="31.772701263" lon="35.372047424">
  <ele>125.666626</ele>
  <time>2011-11-18T09:25:05Z</time>
  <speed>3.990000</speed>
</trkpt>
<trkpt lat="31.772693634" lon="35.372100830">
  <ele>125.961548</ele>
  <time>2011-11-18T09:25:06Z</time>
  <speed>4.290000</speed>
</trkpt>
<trkpt lat="31.772682190" lon="35.372158051">
  <ele>126.092407</ele>
  <time>2011-11-18T09:25:07Z</time>
  <speed>4.900000</speed>
</trkpt>
<trkpt lat="31.772670746" lon="35.372230530">
  <ele>126.268188</ele>
  <time>2011-11-18T09:25:09Z</time>
  <speed>3.900000</speed>
</trkpt>
<trkpt lat="31.772668839" lon="35.372280121">
  <ele>126.162720</ele>
  <time>2011-11-18T09:25:10Z</time>
  <speed>4.300000</speed>
</trkpt>
<trkpt lat="31.772676468" lon="35.372322083">
  <ele>126.190063</ele>
  <time>2011-11-18T09:25:11Z</time>
  <speed>4.430000</speed>
</trkpt>
<trkpt lat="31.772695541" lon="35.372367859">
  <ele>125.762329</ele>
  <time>2011-11-18T09:25:12Z</time>
  <speed>4.370000</speed>
</trkpt>
<trkpt lat="31.772733688" lon="35.372398376">
  <ele>125.738892</ele>
  <time>2011-11-18T09:25:13Z</time>
  <speed>4.180000</speed>
</trkpt>
<trkpt lat="31.772766113" lon="35.372425079">
  <ele>124.852173</ele>
  <time>2011-11-18T09:25:14Z</time>
  <speed>4.200000</speed>
</trkpt>
<trkpt lat="31.772792816" lon="35.372459412">
  <ele>124.758423</ele>
  <time>2011-11-18T09:25:15Z</time>
  <speed>4.280000</speed>
</trkpt>
<trkpt lat="31.772819519" lon="35.372493744">
  <ele>124.113892</ele>
  <time>2011-11-18T09:25:16Z</time>
  <speed>4.310000</speed>
</trkpt>
<trkpt lat="31.772840500" lon="35.372539520">
  <ele>123.443970</ele>
  <time>2011-11-18T09:25:17Z</time>
  <speed>4.110000</speed>
</trkpt>
<trkpt lat="31.772863388" lon="35.372573853">
  <ele>122.936157</ele>
  <time>2011-11-18T09:25:18Z</time>
  <speed>4.300000</speed>
</trkpt>
<trkpt lat="31.772886276" lon="35.372612000">
  <ele>121.836548</ele>
  <time>2011-11-18T09:25:19Z</time>
  <speed>4.510000</speed>
</trkpt>
<trkpt lat="31.772911072" lon="35.372646332">
  <ele>121.348267</ele>
  <time>2011-11-18T09:25:20Z</time>
  <speed>4.620000</speed>
</trkpt>
<trkpt lat="31.772951126" lon="35.372676849">
  <ele>121.486938</ele>
  <time>2011-11-18T09:25:21Z</time>
  <speed>5.070000</speed>
</trkpt>
<trkpt lat="31.772993088" lon="35.372695923">
  <ele>121.568970</ele>
  <time>2011-11-18T09:25:22Z</time>
  <speed>5.320000</speed>
</trkpt>
<trkpt lat="31.773038864" lon="35.372722626">
  <ele>121.088501</ele>
  <time>2011-11-18T09:25:23Z</time>
  <speed>5.600000</speed>
</trkpt>
<trkpt lat="31.773088455" lon="35.372741699">
  <ele>120.461548</ele>
  <time>2011-11-18T09:25:24Z</time>
  <speed>5.600000</speed>
</trkpt>
<trkpt lat="31.773136139" lon="35.372768402">
  <ele>119.957642</ele>
  <time>2011-11-18T09:25:25Z</time>
  <speed>6.150000</speed>
</trkpt>
<trkpt lat="31.773191452" lon="35.372791290">
  <ele>119.701782</ele>
  <time>2011-11-18T09:25:26Z</time>
  <speed>5.510000</speed>
</trkpt>
<trkpt lat="31.773235321" lon="35.372806549">
  <ele>119.733032</ele>
  <time>2011-11-18T09:25:27Z</time>
  <speed>5.270000</speed>
</trkpt>
<trkpt lat="31.773275375" lon="35.372833252">
  <ele>119.488892</ele>
  <time>2011-11-18T09:25:28Z</time>
  <speed>5.100000</speed>
</trkpt>
<trkpt lat="31.773311615" lon="35.372863770">
  <ele>119.522095</ele>
  <time>2011-11-18T09:25:29Z</time>
  <speed>5.110000</speed>
</trkpt>
<trkpt lat="31.773347855" lon="35.372898102">
  <ele>119.408813</ele>
  <time>2011-11-18T09:25:30Z</time>
  <speed>5.020000</speed>
</trkpt>
<trkpt lat="31.773380280" lon="35.372932434">
  <ele>119.151001</ele>
  <time>2011-11-18T09:25:31Z</time>
  <speed>4.630000</speed>
</trkpt>
<trkpt lat="31.773412704" lon="35.372966766">
  <ele>119.322876</ele>
  <time>2011-11-18T09:25:32Z</time>
  <speed>4.790000</speed>
</trkpt>
<trkpt lat="31.773450851" lon="35.372993469">
  <ele>119.254517</ele>
  <time>2011-11-18T09:25:33Z</time>
  <speed>4.570000</speed>
</trkpt>
<trkpt lat="31.773487091" lon="35.373023987">
  <ele>118.549438</ele>
  <time>2011-11-18T09:25:34Z</time>
  <speed>4.840000</speed>
</trkpt>
<trkpt lat="31.773519516" lon="35.373050690">
  <ele>118.190063</ele>
  <time>2011-11-18T09:25:35Z</time>
  <speed>4.170000</speed>
</trkpt>
<trkpt lat="31.773544312" lon="35.373081207">
  <ele>118.086548</ele>
  <time>2011-11-18T09:25:36Z</time>
  <speed>3.930000</speed>
</trkpt>
<trkpt lat="31.773571014" lon="35.373100281">
  <ele>117.664673</ele>
  <time>2011-11-18T09:25:37Z</time>
  <speed>2.900000</speed>
</trkpt>
<trkpt lat="31.773595810" lon="35.373142242">
  <ele>116.803345</ele>
  <time>2011-11-18T09:25:39Z</time>
  <speed>3.060000</speed>
</trkpt>
<trkpt lat="31.773590088" lon="35.373176575">
  <ele>117.096313</ele>
  <time>2011-11-18T09:25:40Z</time>
  <speed>3.500000</speed>
</trkpt>
<trkpt lat="31.773584366" lon="35.373214722">
  <ele>116.699829</ele>
  <time>2011-11-18T09:25:41Z</time>
  <speed>3.320000</speed>
</trkpt>
<trkpt lat="31.773576736" lon="35.373252869">
  <ele>116.779907</ele>
  <time>2011-11-18T09:25:42Z</time>
  <speed>3.830000</speed>
</trkpt>
<trkpt lat="31.773571014" lon="35.373291016">
  <ele>116.699829</ele>
  <time>2011-11-18T09:25:43Z</time>
  <speed>3.520000</speed>
</trkpt>
<trkpt lat="31.773567200" lon="35.373325348">
  <ele>117.293579</ele>
  <time>2011-11-18T09:25:44Z</time>
  <speed>2.830000</speed>
</trkpt>
<trkpt lat="31.773571014" lon="35.373359680">
  <ele>117.332642</ele>
  <time>2011-11-18T09:25:46Z</time>
  <speed>1.220000</speed>
</trkpt>
<trkpt lat="31.773591995" lon="35.373374939">
  <ele>117.826782</ele>
  <time>2011-11-18T09:25:48Z</time>
  <speed>1.370000</speed>
</trkpt>
<trkpt lat="31.773618698" lon="35.373401642">
  <ele>117.721313</ele>
  <time>2011-11-18T09:25:50Z</time>
  <speed>2.580000</speed>
</trkpt>
<trkpt lat="31.773654938" lon="35.373439789">
  <ele>118.151001</ele>
  <time>2011-11-18T09:25:52Z</time>
  <speed>2.920000</speed>
</trkpt>
<trkpt lat="31.773670197" lon="35.373474121">
  <ele>119.024048</ele>
  <time>2011-11-18T09:25:53Z</time>
  <speed>3.050000</speed>
</trkpt>
<trkpt lat="31.773683548" lon="35.373500824">
  <ele>119.516235</ele>
  <time>2011-11-18T09:25:54Z</time>
  <speed>3.050000</speed>
</trkpt>
<trkpt lat="31.773702621" lon="35.373535156">
  <ele>119.945923</ele>
  <time>2011-11-18T09:25:55Z</time>
  <speed>3.160000</speed>
</trkpt>
<trkpt lat="31.773721695" lon="35.373561859">
  <ele>119.914673</ele>
  <time>2011-11-18T09:25:56Z</time>
  <speed>3.400000</speed>
</trkpt>
<trkpt lat="31.773736954" lon="35.373592377">
  <ele>119.881470</ele>
  <time>2011-11-18T09:25:57Z</time>
  <speed>2.850000</speed>
</trkpt>
<trkpt lat="31.773780823" lon="35.373630524">
  <ele>119.904907</ele>
  <time>2011-11-18T09:25:59Z</time>
  <speed>2.500000</speed>
</trkpt>
<trkpt lat="31.773817062" lon="35.373657227">
  <ele>120.053345</ele>
  <time>2011-11-18T09:26:01Z</time>
  <speed>2.570000</speed>
</trkpt>
<trkpt lat="31.773855209" lon="35.373687744">
  <ele>120.938110</ele>
  <time>2011-11-18T09:26:03Z</time>
  <speed>2.300000</speed>
</trkpt>
<trkpt lat="31.773881912" lon="35.373722076">
  <ele>121.221313</ele>
  <time>2011-11-18T09:26:05Z</time>
  <speed>2.430000</speed>
</trkpt>
<trkpt lat="31.773942947" lon="35.373741150">
  <ele>122.318970</ele>
  <time>2011-11-18T09:26:07Z</time>
  <speed>2.370000</speed>
</trkpt>
<trkpt lat="31.773990631" lon="35.373748779">
  <ele>123.065063</ele>
  <time>2011-11-18T09:26:09Z</time>
  <speed>2.060000</speed>
</trkpt>
<trkpt lat="31.774023056" lon="35.373756409">
  <ele>123.336548</ele>
  <time>2011-11-18T09:26:11Z</time>
  <speed>1.540000</speed>
</trkpt>
<trkpt lat="31.774051666" lon="35.373752594">
  <ele>124.086548</ele>
  <time>2011-11-18T09:26:14Z</time>
  <speed>1.390000</speed>
</trkpt>
<trkpt lat="31.774078369" lon="35.373741150">
  <ele>125.024048</ele>
  <time>2011-11-18T09:26:16Z</time>
  <speed>1.530000</speed>
</trkpt>
<trkpt lat="31.774112701" lon="35.373733521">
  <ele>124.725220</ele>
  <time>2011-11-18T09:26:19Z</time>
  <speed>1.870000</speed>
</trkpt>
<trkpt lat="31.774145126" lon="35.373741150">
  <ele>124.397095</ele>
  <time>2011-11-18T09:26:21Z</time>
  <speed>1.730000</speed>
</trkpt>
<trkpt lat="31.774173737" lon="35.373752594">
  <ele>123.799438</ele>
  <time>2011-11-18T09:26:23Z</time>
  <speed>2.010000</speed>
</trkpt>
<trkpt lat="31.774206161" lon="35.373786926">
  <ele>122.285767</ele>
  <time>2011-11-18T09:26:25Z</time>
  <speed>2.590000</speed>
</trkpt>
<trkpt lat="31.774229050" lon="35.373806000">
  <ele>122.309204</ele>
  <time>2011-11-18T09:26:26Z</time>
  <speed>2.710000</speed>
</trkpt>
<trkpt lat="31.774251938" lon="35.373855591">
  <ele>121.912720</ele>
  <time>2011-11-18T09:26:28Z</time>
  <speed>2.720000</speed>
</trkpt>
<trkpt lat="31.774272919" lon="35.373908997">
  <ele>122.051392</ele>
  <time>2011-11-18T09:26:30Z</time>
  <speed>2.140000</speed>
</trkpt>
<trkpt lat="31.774299622" lon="35.373939514">
  <ele>121.492798</ele>
  <time>2011-11-18T09:26:32Z</time>
  <speed>1.790000</speed>
</trkpt>
<trkpt lat="31.774328232" lon="35.373958588">
  <ele>121.992798</ele>
  <time>2011-11-18T09:26:34Z</time>
  <speed>1.350000</speed>
</trkpt>
<trkpt lat="31.774354935" lon="35.373973846">
  <ele>123.272095</ele>
  <time>2011-11-18T09:27:08Z</time>
  <speed>1.590000</speed>
</trkpt>
<trkpt lat="31.774372101" lon="35.373950958">
  <ele>123.242798</ele>
  <time>2011-11-18T09:27:10Z</time>
  <speed>2.050000</speed>
</trkpt>
<trkpt lat="31.774396896" lon="35.373912811">
  <ele>123.500610</ele>
  <time>2011-11-18T09:27:12Z</time>
  <speed>1.580000</speed>
</trkpt>
<trkpt lat="31.774419785" lon="35.373870850">
  <ele>123.192017</ele>
  <time>2011-11-18T09:27:14Z</time>
  <speed>2.160000</speed>
</trkpt>
<trkpt lat="31.774436951" lon="35.373832703">
  <ele>122.844360</ele>
  <time>2011-11-18T09:27:16Z</time>
  <speed>1.980000</speed>
</trkpt>
<trkpt lat="31.774457932" lon="35.373779297">
  <ele>123.108032</ele>
  <time>2011-11-18T09:27:18Z</time>
  <speed>2.440000</speed>
</trkpt>
<trkpt lat="31.774473190" lon="35.373722076">
  <ele>123.092407</ele>
  <time>2011-11-18T09:27:20Z</time>
  <speed>2.940000</speed>
</trkpt>
<trkpt lat="31.774478912" lon="35.373691559">
  <ele>123.621704</ele>
  <time>2011-11-18T09:27:21Z</time>
  <speed>3.000000</speed>
</trkpt>
<trkpt lat="31.774494171" lon="35.373641968">
  <ele>123.463501</ele>
  <time>2011-11-18T09:27:23Z</time>
  <speed>2.100000</speed>
</trkpt>
<trkpt lat="31.774511337" lon="35.373607635">
  <ele>123.543579</ele>
  <time>2011-11-18T09:27:25Z</time>
  <speed>2.090000</speed>
</trkpt>
<trkpt lat="31.774539948" lon="35.373573303">
  <ele>123.533813</ele>
  <time>2011-11-18T09:27:27Z</time>
  <speed>2.230000</speed>
</trkpt>
<trkpt lat="31.774585724" lon="35.373554230">
  <ele>122.852173</ele>
  <time>2011-11-18T09:27:29Z</time>
  <speed>3.390000</speed>
</trkpt>
<trkpt lat="31.774618149" lon="35.373542786">
  <ele>122.379517</ele>
  <time>2011-11-18T09:27:30Z</time>
  <speed>3.810000</speed>
</trkpt>
<trkpt lat="31.774652481" lon="35.373531342">
  <ele>122.139282</ele>
  <time>2011-11-18T09:27:31Z</time>
  <speed>4.340000</speed>
</trkpt>
<trkpt lat="31.774694443" lon="35.373516083">
  <ele>122.233032</ele>
  <time>2011-11-18T09:27:32Z</time>
  <speed>5.040000</speed>
</trkpt>
<trkpt lat="31.774738312" lon="35.373497009">
  <ele>121.858032</ele>
  <time>2011-11-18T09:27:33Z</time>
  <speed>5.210000</speed>
</trkpt>
<trkpt lat="31.774780273" lon="35.373474121">
  <ele>121.570923</ele>
  <time>2011-11-18T09:27:34Z</time>
  <speed>5.590000</speed>
</trkpt>
<trkpt lat="31.774824142" lon="35.373447418">
  <ele>121.315063</ele>
  <time>2011-11-18T09:27:35Z</time>
  <speed>5.700000</speed>
</trkpt>
<trkpt lat="31.774869919" lon="35.373420715">
  <ele>120.719360</ele>
  <time>2011-11-18T09:27:36Z</time>
  <speed>5.590000</speed>
</trkpt>
<trkpt lat="31.774911880" lon="35.373390198">
  <ele>120.336548</ele>
  <time>2011-11-18T09:27:37Z</time>
  <speed>5.280000</speed>
</trkpt>
<trkpt lat="31.774953842" lon="35.373363495">
  <ele>120.002563</ele>
  <time>2011-11-18T09:27:38Z</time>
  <speed>5.210000</speed>
</trkpt>
<trkpt lat="31.774991989" lon="35.373344421">
  <ele>118.660767</ele>
  <time>2011-11-18T09:27:39Z</time>
  <speed>4.580000</speed>
</trkpt>
<trkpt lat="31.775032043" lon="35.373321533">
  <ele>117.352173</ele>
  <time>2011-11-18T09:27:40Z</time>
  <speed>4.900000</speed>
</trkpt>
<trkpt lat="31.775066376" lon="35.373291016">
  <ele>116.063110</ele>
  <time>2011-11-18T09:27:41Z</time>
  <speed>5.120000</speed>
</trkpt>
<trkpt lat="31.775106430" lon="35.373264313">
  <ele>115.098267</ele>
  <time>2011-11-18T09:27:42Z</time>
  <speed>5.260000</speed>
</trkpt>
<trkpt lat="31.775156021" lon="35.373260498">
  <ele>114.006470</ele>
  <time>2011-11-18T09:27:43Z</time>
  <speed>5.660000</speed>
</trkpt>
<trkpt lat="31.775207520" lon="35.373268127">
  <ele>113.281860</ele>
  <time>2011-11-18T09:27:44Z</time>
  <speed>5.530000</speed>
</trkpt>
<trkpt lat="31.775257111" lon="35.373264313">
  <ele>112.274048</ele>
  <time>2011-11-18T09:27:45Z</time>
  <speed>4.910000</speed>
</trkpt>
<trkpt lat="31.775295258" lon="35.373256683">
  <ele>111.510376</ele>
  <time>2011-11-18T09:27:46Z</time>
  <speed>4.970000</speed>
</trkpt>
<trkpt lat="31.775339127" lon="35.373233795">
  <ele>110.734985</ele>
  <time>2011-11-18T09:27:47Z</time>
  <speed>5.370000</speed>
</trkpt>
<trkpt lat="31.775381088" lon="35.373218536">
  <ele>110.121704</ele>
  <time>2011-11-18T09:27:48Z</time>
  <speed>4.960000</speed>
</trkpt>
<trkpt lat="31.775426865" lon="35.373199463">
  <ele>108.955688</ele>
  <time>2011-11-18T09:27:49Z</time>
  <speed>5.270000</speed>
</trkpt>
<trkpt lat="31.775470734" lon="35.373184204">
  <ele>108.076782</ele>
  <time>2011-11-18T09:27:50Z</time>
  <speed>5.040000</speed>
</trkpt>
<trkpt lat="31.775508881" lon="35.373161316">
  <ele>107.483032</ele>
  <time>2011-11-18T09:27:51Z</time>
  <speed>4.580000</speed>
</trkpt>
<trkpt lat="31.775543213" lon="35.373142242">
  <ele>106.781860</ele>
  <time>2011-11-18T09:27:52Z</time>
  <speed>3.780000</speed>
</trkpt>
<trkpt lat="31.775569916" lon="35.373130798">
  <ele>106.652954</ele>
  <time>2011-11-18T09:27:53Z</time>
  <speed>3.340000</speed>
</trkpt>
<trkpt lat="31.775594711" lon="35.373123169">
  <ele>106.377563</ele>
  <time>2011-11-18T09:27:54Z</time>
  <speed>2.420000</speed>
</trkpt>
<trkpt lat="31.775623322" lon="35.373119354">
  <ele>106.256470</ele>
  <time>2011-11-18T09:27:55Z</time>
  <speed>2.880000</speed>
</trkpt>
<trkpt lat="31.775669098" lon="35.373111725">
  <ele>105.590454</ele>
  <time>2011-11-18T09:27:57Z</time>
  <speed>2.570000</speed>
</trkpt>
<trkpt lat="31.775716782" lon="35.373126984">
  <ele>105.217407</ele>
  <time>2011-11-18T09:27:59Z</time>
  <speed>2.660000</speed>
</trkpt>
<trkpt lat="31.775743484" lon="35.373191833">
  <ele>106.777954</ele>
  <time>2011-11-18T09:28:01Z</time>
  <speed>3.530000</speed>
</trkpt>
<trkpt lat="31.775762558" lon="35.373229980">
  <ele>107.680298</ele>
  <time>2011-11-18T09:28:02Z</time>
  <speed>3.570000</speed>
</trkpt>
<trkpt lat="31.775774002" lon="35.373264313">
  <ele>107.764282</ele>
  <time>2011-11-18T09:28:03Z</time>
  <speed>4.230000</speed>
</trkpt>
<trkpt lat="31.775791168" lon="35.373298645">
  <ele>107.811157</ele>
  <time>2011-11-18T09:28:04Z</time>
  <speed>4.050000</speed>
</trkpt>
<trkpt lat="31.775806427" lon="35.373332977">
  <ele>107.984985</ele>
  <time>2011-11-18T09:28:05Z</time>
  <speed>3.670000</speed>
</trkpt>
<trkpt lat="31.775821686" lon="35.373363495">
  <ele>107.680298</ele>
  <time>2011-11-18T09:28:06Z</time>
  <speed>3.630000</speed>
</trkpt>
<trkpt lat="31.775838852" lon="35.373390198">
  <ele>107.242798</ele>
  <time>2011-11-18T09:28:07Z</time>
  <speed>3.610000</speed>
</trkpt>
<trkpt lat="31.775854111" lon="35.373420715">
  <ele>106.537720</ele>
  <time>2011-11-18T09:28:08Z</time>
  <speed>3.780000</speed>
</trkpt>
<trkpt lat="31.775867462" lon="35.373458862">
  <ele>106.662720</ele>
  <time>2011-11-18T09:28:09Z</time>
  <speed>3.660000</speed>
</trkpt>
<trkpt lat="31.775878906" lon="35.373493195">
  <ele>106.877563</ele>
  <time>2011-11-18T09:28:10Z</time>
  <speed>3.440000</speed>
</trkpt>
<trkpt lat="31.775894165" lon="35.373527527">
  <ele>106.803345</ele>
  <time>2011-11-18T09:28:11Z</time>
  <speed>3.400000</speed>
</trkpt>
<trkpt lat="31.775913239" lon="35.373554230">
  <ele>106.520142</ele>
  <time>2011-11-18T09:28:12Z</time>
  <speed>3.570000</speed>
</trkpt>
<trkpt lat="31.775934219" lon="35.373588562">
  <ele>106.338501</ele>
  <time>2011-11-18T09:28:13Z</time>
  <speed>3.730000</speed>
</trkpt>
<trkpt lat="31.775959015" lon="35.373619080">
  <ele>106.401001</ele>
  <time>2011-11-18T09:28:14Z</time>
  <speed>3.850000</speed>
</trkpt>
<trkpt lat="31.775981903" lon="35.373645782">
  <ele>106.408813</ele>
  <time>2011-11-18T09:28:15Z</time>
  <speed>3.730000</speed>
</trkpt>
<trkpt lat="31.775997162" lon="35.373680115">
  <ele>106.149048</ele>
  <time>2011-11-18T09:28:16Z</time>
  <speed>3.920000</speed>
</trkpt>
<trkpt lat="31.776006699" lon="35.373718262">
  <ele>105.666626</ele>
  <time>2011-11-18T09:28:17Z</time>
  <speed>3.390000</speed>
</trkpt>
<trkpt lat="31.776016235" lon="35.373748779">
  <ele>105.334595</ele>
  <time>2011-11-18T09:28:18Z</time>
  <speed>3.290000</speed>
</trkpt>
<trkpt lat="31.776023865" lon="35.373790741">
  <ele>105.305298</ele>
  <time>2011-11-18T09:28:19Z</time>
  <speed>3.580000</speed>
</trkpt>
<trkpt lat="31.776031494" lon="35.373828888">
  <ele>104.936157</ele>
  <time>2011-11-18T09:28:20Z</time>
  <speed>3.200000</speed>
</trkpt>
<trkpt lat="31.776039124" lon="35.373863220">
  <ele>104.760376</ele>
  <time>2011-11-18T09:28:21Z</time>
  <speed>3.330000</speed>
</trkpt>
<trkpt lat="31.776048660" lon="35.373897552">
  <ele>103.721313</ele>
  <time>2011-11-18T09:28:22Z</time>
  <speed>2.760000</speed>
</trkpt>
<trkpt lat="31.776075363" lon="35.373939514">
  <ele>102.557251</ele>
  <time>2011-11-18T09:28:24Z</time>
  <speed>2.090000</speed>
</trkpt>
<trkpt lat="31.776094437" lon="35.373950958">
  <ele>100.891235</ele>
  <time>2011-11-18T09:28:35Z</time>
  <speed>0.640000</speed>
</trkpt>
<trkpt lat="31.776113510" lon="35.373985291">
  <ele>101.182251</ele>
  <time>2011-11-18T09:28:38Z</time>
  <speed>1.740000</speed>
</trkpt>
<trkpt lat="31.776134491" lon="35.374023438">
  <ele>101.637329</ele>
  <time>2011-11-18T09:28:40Z</time>
  <speed>2.820000</speed>
</trkpt>
<trkpt lat="31.776166916" lon="35.374038696">
  <ele>101.981079</ele>
  <time>2011-11-18T09:28:41Z</time>
  <speed>3.060000</speed>
</trkpt>
<trkpt lat="31.776176453" lon="35.374073029">
  <ele>102.574829</ele>
  <time>2011-11-18T09:28:42Z</time>
  <speed>3.420000</speed>
</trkpt>
<trkpt lat="31.776187897" lon="35.374111176">
  <ele>103.035767</ele>
  <time>2011-11-18T09:28:43Z</time>
  <speed>3.910000</speed>
</trkpt>
<trkpt lat="31.776197433" lon="35.374160767">
  <ele>103.471313</ele>
  <time>2011-11-18T09:28:44Z</time>
  <speed>4.390000</speed>
</trkpt>
<trkpt lat="31.776214600" lon="35.374206543">
  <ele>103.727173</ele>
  <time>2011-11-18T09:28:45Z</time>
  <speed>4.060000</speed>
</trkpt>
<trkpt lat="31.776233673" lon="35.374240875">
  <ele>103.830688</ele>
  <time>2011-11-18T09:28:46Z</time>
  <speed>3.930000</speed>
</trkpt>
<trkpt lat="31.776248932" lon="35.374275208">
  <ele>104.029907</ele>
  <time>2011-11-18T09:28:47Z</time>
  <speed>3.580000</speed>
</trkpt>
<trkpt lat="31.776266098" lon="35.374309540">
  <ele>104.029907</ele>
  <time>2011-11-18T09:28:48Z</time>
  <speed>3.740000</speed>
</trkpt>
<trkpt lat="31.776279449" lon="35.374336243">
  <ele>104.070923</ele>
  <time>2011-11-18T09:28:49Z</time>
  <speed>3.550000</speed>
</trkpt>
<trkpt lat="31.776294708" lon="35.374374390">
  <ele>103.629517</ele>
  <time>2011-11-18T09:28:50Z</time>
  <speed>3.880000</speed>
</trkpt>
<trkpt lat="31.776300430" lon="35.374416351">
  <ele>103.791626</ele>
  <time>2011-11-18T09:28:51Z</time>
  <speed>3.670000</speed>
</trkpt>
<trkpt lat="31.776313782" lon="35.374450684">
  <ele>103.608032</ele>
  <time>2011-11-18T09:28:52Z</time>
  <speed>3.720000</speed>
</trkpt>
<trkpt lat="31.776317596" lon="35.374504089">
  <ele>103.348267</ele>
  <time>2011-11-18T09:28:53Z</time>
  <speed>4.400000</speed>
</trkpt>
<trkpt lat="31.776327133" lon="35.374549866">
  <ele>103.035767</ele>
  <time>2011-11-18T09:28:54Z</time>
  <speed>4.060000</speed>
</trkpt>
<trkpt lat="31.776340485" lon="35.374588013">
  <ele>103.176392</ele>
  <time>2011-11-18T09:28:55Z</time>
  <speed>3.700000</speed>
</trkpt>
<trkpt lat="31.776348114" lon="35.374622345">
  <ele>102.793579</ele>
  <time>2011-11-18T09:28:56Z</time>
  <speed>3.520000</speed>
</trkpt>
<trkpt lat="31.776359558" lon="35.374649048">
  <ele>103.361938</ele>
  <time>2011-11-18T09:28:57Z</time>
  <speed>3.150000</speed>
</trkpt>
<trkpt lat="31.776361465" lon="35.374683380">
  <ele>103.483032</ele>
  <time>2011-11-18T09:28:58Z</time>
  <speed>3.320000</speed>
</trkpt>
<trkpt lat="31.776363373" lon="35.374721527">
  <ele>103.557251</ele>
  <time>2011-11-18T09:28:59Z</time>
  <speed>2.760000</speed>
</trkpt>
<trkpt lat="31.776374817" lon="35.374774933">
  <ele>103.553345</ele>
  <time>2011-11-18T09:29:01Z</time>
  <speed>2.800000</speed>
</trkpt>
<trkpt lat="31.776374817" lon="35.374805450">
  <ele>103.383423</ele>
  <time>2011-11-18T09:29:02Z</time>
  <speed>2.210000</speed>
</trkpt>
<trkpt lat="31.776365280" lon="35.374851227">
  <ele>102.850220</ele>
  <time>2011-11-18T09:29:04Z</time>
  <speed>1.210000</speed>
</trkpt>
<trkpt lat="31.776371002" lon="35.374885559">
  <ele>102.764282</ele>
  <time>2011-11-18T09:29:06Z</time>
  <speed>2.100000</speed>
</trkpt>
<trkpt lat="31.776372910" lon="35.374938965">
  <ele>103.293579</ele>
  <time>2011-11-18T09:29:08Z</time>
  <speed>2.740000</speed>
</trkpt>
<trkpt lat="31.776386261" lon="35.375003815">
  <ele>103.522095</ele>
  <time>2011-11-18T09:29:10Z</time>
  <speed>3.030000</speed>
</trkpt>
<trkpt lat="31.776391983" lon="35.375034332">
  <ele>103.707642</ele>
  <time>2011-11-18T09:29:11Z</time>
  <speed>2.830000</speed>
</trkpt>
<trkpt lat="31.776401520" lon="35.375064850">
  <ele>103.949829</ele>
  <time>2011-11-18T09:29:12Z</time>
  <speed>3.100000</speed>
</trkpt>
<trkpt lat="31.776411057" lon="35.375095367">
  <ele>103.869751</ele>
  <time>2011-11-18T09:29:13Z</time>
  <speed>3.060000</speed>
</trkpt>
<trkpt lat="31.776439667" lon="35.375152588">
  <ele>103.408813</ele>
  <time>2011-11-18T09:29:15Z</time>
  <speed>2.880000</speed>
</trkpt>
<trkpt lat="31.776470184" lon="35.375194550">
  <ele>103.725220</ele>
  <time>2011-11-18T09:29:17Z</time>
  <speed>2.400000</speed>
</trkpt>
<trkpt lat="31.776491165" lon="35.375228882">
  <ele>103.729126</ele>
  <time>2011-11-18T09:29:19Z</time>
  <speed>1.830000</speed>
</trkpt>
<trkpt lat="31.776512146" lon="35.375259399">
  <ele>103.777954</ele>
  <time>2011-11-18T09:29:21Z</time>
  <speed>1.710000</speed>
</trkpt>
<trkpt lat="31.776533127" lon="35.375289917">
  <ele>103.414673</ele>
  <time>2011-11-18T09:29:23Z</time>
  <speed>1.890000</speed>
</trkpt>
<trkpt lat="31.776565552" lon="35.375316620">
  <ele>102.867798</ele>
  <time>2011-11-18T09:29:25Z</time>
  <speed>2.040000</speed>
</trkpt>
<trkpt lat="31.776588440" lon="35.375362396">
  <ele>101.707642</ele>
  <time>2011-11-18T09:29:27Z</time>
  <speed>2.950000</speed>
</trkpt>
<trkpt lat="31.776605606" lon="35.375392914">
  <ele>101.238892</ele>
  <time>2011-11-18T09:29:28Z</time>
  <speed>3.110000</speed>
</trkpt>
<trkpt lat="31.776651382" lon="35.375423431">
  <ele>100.182251</ele>
  <time>2011-11-18T09:29:30Z</time>
  <speed>3.050000</speed>
</trkpt>
<trkpt lat="31.776683807" lon="35.375434875">
  <ele>100.725220</ele>
  <time>2011-11-18T09:29:31Z</time>
  <speed>3.220000</speed>
</trkpt>
<trkpt lat="31.776710510" lon="35.375450134">
  <ele>100.615845</ele>
  <time>2011-11-18T09:29:32Z</time>
  <speed>3.320000</speed>
</trkpt>
<trkpt lat="31.776737213" lon="35.375465393">
  <ele>100.565063</ele>
  <time>2011-11-18T09:29:33Z</time>
  <speed>3.140000</speed>
</trkpt>
<trkpt lat="31.776767731" lon="35.375484467">
  <ele>101.002563</ele>
  <time>2011-11-18T09:29:34Z</time>
  <speed>3.260000</speed>
</trkpt>
<trkpt lat="31.776796341" lon="35.375499725">
  <ele>101.242798</ele>
  <time>2011-11-18T09:29:35Z</time>
  <speed>2.960000</speed>
</trkpt>
<trkpt lat="31.776823044" lon="35.375511169">
  <ele>102.555298</ele>
  <time>2011-11-18T09:29:36Z</time>
  <speed>2.860000</speed>
</trkpt>
<trkpt lat="31.776849747" lon="35.375518799">
  <ele>102.151001</ele>
  <time>2011-11-18T09:29:37Z</time>
  <speed>2.990000</speed>
</trkpt>
<trkpt lat="31.776903152" lon="35.375514984">
  <ele>102.504517</ele>
  <time>2011-11-18T09:29:39Z</time>
  <speed>3.270000</speed>
</trkpt>
<trkpt lat="31.776931763" lon="35.375514984">
  <ele>102.336548</ele>
  <time>2011-11-18T09:29:40Z</time>
  <speed>3.240000</speed>
</trkpt>
<trkpt lat="31.776971817" lon="35.375511169">
  <ele>101.289673</ele>
  <time>2011-11-18T09:29:42Z</time>
  <speed>1.270000</speed>
</trkpt>
<trkpt lat="31.777004242" lon="35.375495911">
  <ele>101.078735</ele>
  <time>2011-11-18T09:29:45Z</time>
  <speed>0.930000</speed>
</trkpt>
<trkpt lat="31.777038574" lon="35.375484467">
  <ele>100.838501</ele>
  <time>2011-11-18T09:29:49Z</time>
  <speed>1.500000</speed>
</trkpt>
<trkpt lat="31.777057648" lon="35.375457764">
  <ele>101.918579</ele>
  <time>2011-11-18T09:29:52Z</time>
  <speed>0.550000</speed>
</trkpt>
<trkpt lat="31.777067184" lon="35.375442505">
  <ele>104.229126</ele>
  <time>2011-11-18T09:29:55Z</time>
  <speed>1.020000</speed>
</trkpt>
<trkpt lat="31.777076721" lon="35.375408173">
  <ele>104.512329</ele>
  <time>2011-11-18T09:29:58Z</time>
  <speed>1.020000</speed>
</trkpt>
<trkpt lat="31.777097702" lon="35.375385284">
  <ele>106.098267</ele>
  <time>2011-11-18T09:30:01Z</time>
  <speed>1.020000</speed>
</trkpt>
<trkpt lat="31.777130127" lon="35.375377655">
  <ele>106.727173</ele>
  <time>2011-11-18T09:30:04Z</time>
  <speed>1.040000</speed>
</trkpt>
<trkpt lat="31.777162552" lon="35.375362396">
  <ele>106.051392</ele>
  <time>2011-11-18T09:30:07Z</time>
  <speed>1.340000</speed>
</trkpt>
<trkpt lat="31.777191162" lon="35.375343323">
  <ele>106.496704</ele>
  <time>2011-11-18T09:30:10Z</time>
  <speed>0.460000</speed>
</trkpt>
<trkpt lat="31.777214050" lon="35.375324249">
  <ele>105.676392</ele>
  <time>2011-11-18T09:30:13Z</time>
  <speed>1.280000</speed>
</trkpt>
<trkpt lat="31.777231216" lon="35.375282288">
  <ele>106.026001</ele>
  <time>2011-11-18T09:30:15Z</time>
  <speed>2.350000</speed>
</trkpt>
<trkpt lat="31.777257919" lon="35.375232697">
  <ele>105.668579</ele>
  <time>2011-11-18T09:30:17Z</time>
  <speed>2.670000</speed>
</trkpt>
<trkpt lat="31.777275085" lon="35.375205994">
  <ele>105.463501</ele>
  <time>2011-11-18T09:30:18Z</time>
  <speed>3.140000</speed>
</trkpt>
<trkpt lat="31.777320862" lon="35.375171661">
  <ele>104.836548</ele>
  <time>2011-11-18T09:30:20Z</time>
  <speed>3.370000</speed>
</trkpt>
<trkpt lat="31.777349472" lon="35.375152588">
  <ele>104.418579</ele>
  <time>2011-11-18T09:30:21Z</time>
  <speed>3.750000</speed>
</trkpt>
<trkpt lat="31.777376175" lon="35.375122070">
  <ele>104.010376</ele>
  <time>2011-11-18T09:30:22Z</time>
  <speed>4.230000</speed>
</trkpt>
<trkpt lat="31.777404785" lon="35.375091553">
  <ele>103.326782</ele>
  <time>2011-11-18T09:30:23Z</time>
  <speed>4.480000</speed>
</trkpt>
<trkpt lat="31.777442932" lon="35.375061035">
  <ele>102.992798</ele>
  <time>2011-11-18T09:30:24Z</time>
  <speed>5.290000</speed>
</trkpt>
<trkpt lat="31.777482986" lon="35.375034332">
  <ele>101.977173</ele>
  <time>2011-11-18T09:30:25Z</time>
  <speed>5.170000</speed>
</trkpt>
<trkpt lat="31.777517319" lon="35.375003815">
  <ele>101.543579</ele>
  <time>2011-11-18T09:30:26Z</time>
  <speed>4.880000</speed>
</trkpt>
<trkpt lat="31.777549744" lon="35.374958038">
  <ele>102.250610</ele>
  <time>2011-11-18T09:30:27Z</time>
  <speed>5.460000</speed>
</trkpt>
<trkpt lat="31.777572632" lon="35.374912262">
  <ele>102.137329</ele>
  <time>2011-11-18T09:30:28Z</time>
  <speed>5.190000</speed>
</trkpt>
<trkpt lat="31.777603149" lon="35.374874115">
  <ele>101.311157</ele>
  <time>2011-11-18T09:30:29Z</time>
  <speed>5.340000</speed>
</trkpt>
<trkpt lat="31.777639389" lon="35.374835968">
  <ele>100.750610</ele>
  <time>2011-11-18T09:30:30Z</time>
  <speed>5.700000</speed>
</trkpt>
<trkpt lat="31.777677536" lon="35.374794006">
  <ele>100.598267</ele>
  <time>2011-11-18T09:30:31Z</time>
  <speed>5.280000</speed>
</trkpt>
<trkpt lat="31.777711868" lon="35.374759674">
  <ele>101.125610</ele>
  <time>2011-11-18T09:30:32Z</time>
  <speed>4.890000</speed>
</trkpt>
<trkpt lat="31.777744293" lon="35.374717712">
  <ele>100.723267</ele>
  <time>2011-11-18T09:30:33Z</time>
  <speed>5.200000</speed>
</trkpt>
<trkpt lat="31.777776718" lon="35.374683380">
  <ele>100.859985</ele>
  <time>2011-11-18T09:30:34Z</time>
  <speed>5.470000</speed>
</trkpt>
<trkpt lat="31.777814865" lon="35.374641418">
  <ele>100.731079</ele>
  <time>2011-11-18T09:30:35Z</time>
  <speed>5.750000</speed>
</trkpt>
<trkpt lat="31.777853012" lon="35.374603271">
  <ele>100.242798</ele>
  <time>2011-11-18T09:30:36Z</time>
  <speed>5.790000</speed>
</trkpt>
<trkpt lat="31.777898788" lon="35.374572754">
  <ele>99.615845</ele>
  <time>2011-11-18T09:30:37Z</time>
  <speed>5.930000</speed>
</trkpt>
<trkpt lat="31.777944565" lon="35.374538422">
  <ele>98.840454</ele>
  <time>2011-11-18T09:30:38Z</time>
  <speed>6.220000</speed>
</trkpt>
<trkpt lat="31.777990341" lon="35.374500275">
  <ele>97.902954</ele>
  <time>2011-11-18T09:30:39Z</time>
  <speed>6.260000</speed>
</trkpt>
<trkpt lat="31.778041840" lon="35.374469757">
  <ele>97.123657</ele>
  <time>2011-11-18T09:30:40Z</time>
  <speed>6.750000</speed>
</trkpt>
<trkpt lat="31.778097153" lon="35.374439240">
  <ele>96.936157</ele>
  <time>2011-11-18T09:30:41Z</time>
  <speed>7.090000</speed>
</trkpt>
<trkpt lat="31.778154373" lon="35.374412537">
  <ele>96.801392</ele>
  <time>2011-11-18T09:30:42Z</time>
  <speed>6.540000</speed>
</trkpt>
<trkpt lat="31.778211594" lon="35.374389648">
  <ele>96.674438</ele>
  <time>2011-11-18T09:30:43Z</time>
  <speed>6.850000</speed>
</trkpt>
<trkpt lat="31.778270721" lon="35.374370575">
  <ele>96.506470</ele>
  <time>2011-11-18T09:30:44Z</time>
  <speed>6.640000</speed>
</trkpt>
<trkpt lat="31.778327942" lon="35.374351501">
  <ele>95.746704</ele>
  <time>2011-11-18T09:30:45Z</time>
  <speed>6.480000</speed>
</trkpt>
<trkpt lat="31.778381348" lon="35.374328613">
  <ele>95.336548</ele>
  <time>2011-11-18T09:30:46Z</time>
  <speed>6.330000</speed>
</trkpt>
<trkpt lat="31.778430939" lon="35.374301910">
  <ele>95.137329</ele>
  <time>2011-11-18T09:30:47Z</time>
  <speed>5.720000</speed>
</trkpt>
<trkpt lat="31.778476715" lon="35.374282837">
  <ele>94.938110</ele>
  <time>2011-11-18T09:30:48Z</time>
  <speed>5.380000</speed>
</trkpt>
<trkpt lat="31.778520584" lon="35.374275208">
  <ele>95.043579</ele>
  <time>2011-11-18T09:30:49Z</time>
  <speed>4.380000</speed>
</trkpt>
<trkpt lat="31.778556824" lon="35.374275208">
  <ele>94.629517</ele>
  <time>2011-11-18T09:30:50Z</time>
  <speed>3.770000</speed>
</trkpt>
<trkpt lat="31.778587341" lon="35.374279022">
  <ele>94.586548</ele>
  <time>2011-11-18T09:30:51Z</time>
  <speed>2.970000</speed>
</trkpt>
<trkpt lat="31.778615952" lon="35.374275208">
  <ele>94.543579</ele>
  <time>2011-11-18T09:30:52Z</time>
  <speed>3.430000</speed>
</trkpt>
<trkpt lat="31.778646469" lon="35.374271393">
  <ele>94.250610</ele>
  <time>2011-11-18T09:30:53Z</time>
  <speed>3.230000</speed>
</trkpt>
<trkpt lat="31.778678894" lon="35.374263763">
  <ele>94.719360</ele>
  <time>2011-11-18T09:30:54Z</time>
  <speed>3.210000</speed>
</trkpt>
<trkpt lat="31.778707504" lon="35.374259949">
  <ele>94.760376</ele>
  <time>2011-11-18T09:30:55Z</time>
  <speed>3.190000</speed>
</trkpt>
<trkpt lat="31.778738022" lon="35.374256134">
  <ele>94.848267</ele>
  <time>2011-11-18T09:30:56Z</time>
  <speed>3.280000</speed>
</trkpt>
<trkpt lat="31.778766632" lon="35.374248505">
  <ele>94.943970</ele>
  <time>2011-11-18T09:30:57Z</time>
  <speed>3.190000</speed>
</trkpt>
<trkpt lat="31.778802872" lon="35.374240875">
  <ele>94.342407</ele>
  <time>2011-11-18T09:30:58Z</time>
  <speed>3.320000</speed>
</trkpt>
<trkpt lat="31.778831482" lon="35.374240875">
  <ele>94.115845</ele>
  <time>2011-11-18T09:30:59Z</time>
  <speed>3.240000</speed>
</trkpt>
<trkpt lat="31.778869629" lon="35.374244690">
  <ele>94.063110</ele>
  <time>2011-11-18T09:31:00Z</time>
  <speed>3.510000</speed>
</trkpt>
<trkpt lat="31.778902054" lon="35.374259949">
  <ele>93.567017</ele>
  <time>2011-11-18T09:31:01Z</time>
  <speed>4.060000</speed>
</trkpt>
<trkpt lat="31.778934479" lon="35.374279022">
  <ele>93.102173</ele>
  <time>2011-11-18T09:31:02Z</time>
  <speed>4.630000</speed>
</trkpt>
<trkpt lat="31.778964996" lon="35.374313354">
  <ele>92.324829</ele>
  <time>2011-11-18T09:31:03Z</time>
  <speed>4.990000</speed>
</trkpt>
<trkpt lat="31.778999329" lon="35.374343872">
  <ele>91.858032</ele>
  <time>2011-11-18T09:31:04Z</time>
  <speed>4.170000</speed>
</trkpt>
<trkpt lat="31.779027939" lon="35.374359131">
  <ele>91.379517</ele>
  <time>2011-11-18T09:31:05Z</time>
  <speed>2.890000</speed>
</trkpt>
<trkpt lat="31.779066086" lon="35.374382019">
  <ele>90.840454</ele>
  <time>2011-11-18T09:31:07Z</time>
  <speed>1.960000</speed>
</trkpt>
<trkpt lat="31.779088974" lon="35.374404907">
  <ele>91.068970</ele>
  <time>2011-11-18T09:31:10Z</time>
  <speed>0.080000</speed>
</trkpt>
<trkpt lat="31.779109955" lon="35.374439240">
  <ele>91.137329</ele>
  <time>2011-11-18T09:31:44Z</time>
  <speed>1.470000</speed>
</trkpt>
<trkpt lat="31.779119492" lon="35.374492645">
  <ele>91.430298</ele>
  <time>2011-11-18T09:31:46Z</time>
  <speed>2.630000</speed>
</trkpt>
<trkpt lat="31.779132843" lon="35.374553680">
  <ele>91.494751</ele>
  <time>2011-11-18T09:31:48Z</time>
  <speed>2.480000</speed>
</trkpt>
<trkpt lat="31.779136658" lon="35.374588013">
  <ele>91.606079</ele>
  <time>2011-11-18T09:31:49Z</time>
  <speed>2.370000</speed>
</trkpt>
<trkpt lat="31.779144287" lon="35.374649048">
  <ele>91.738892</ele>
  <time>2011-11-18T09:31:51Z</time>
  <speed>2.880000</speed>
</trkpt>
<trkpt lat="31.779151917" lon="35.374702454">
  <ele>91.688110</ele>
  <time>2011-11-18T09:31:53Z</time>
  <speed>2.690000</speed>
</trkpt>
<trkpt lat="31.779150009" lon="35.374752045">
  <ele>91.973267</ele>
  <time>2011-11-18T09:31:55Z</time>
  <speed>1.830000</speed>
</trkpt>
<trkpt lat="31.779121399" lon="35.374774933">
  <ele>92.186157</ele>
  <time>2011-11-18T09:31:58Z</time>
  <speed>0.940000</speed>
</trkpt>
<trkpt lat="31.779115677" lon="35.374801636">
  <ele>94.178345</ele>
  <time>2011-11-18T09:32:06Z</time>
  <speed>0.650000</speed>
</trkpt>
<trkpt lat="31.779100418" lon="35.374828339">
  <ele>94.899048</ele>
  <time>2011-11-18T09:32:08Z</time>
  <speed>0.770000</speed>
</trkpt>
<trkpt lat="31.779096603" lon="35.374862671">
  <ele>96.621704</ele>
  <time>2011-11-18T09:32:15Z</time>
  <speed>0.730000</speed>
</trkpt>
<trkpt lat="31.779098511" lon="35.374900818">
  <ele>97.252563</ele>
  <time>2011-11-18T09:32:21Z</time>
  <speed>0.630000</speed>
</trkpt>
<trkpt lat="31.779096603" lon="35.374935150">
  <ele>97.840454</ele>
  <time>2011-11-18T09:32:26Z</time>
  <speed>0.240000</speed>
</trkpt>
<trkpt lat="31.779104233" lon="35.374961853">
  <ele>99.057251</ele>
  <time>2011-11-18T09:32:45Z</time>
  <speed>0.380000</speed>
</trkpt>
<trkpt lat="31.779109955" lon="35.374992371">
  <ele>99.654907</ele>
  <time>2011-11-18T09:33:03Z</time>
  <speed>0.390000</speed>
</trkpt>
<trkpt lat="31.779127121" lon="35.375019073">
  <ele>98.389282</ele>
  <time>2011-11-18T09:33:10Z</time>
  <speed>0.420000</speed>
</trkpt>
<trkpt lat="31.779155731" lon="35.375038147">
  <ele>97.986938</ele>
  <time>2011-11-18T09:33:17Z</time>
  <speed>0.540000</speed>
</trkpt>
<trkpt lat="31.779155731" lon="35.375076294">
  <ele>97.971313</ele>
  <time>2011-11-18T09:33:20Z</time>
  <speed>1.310000</speed>
</trkpt>
<trkpt lat="31.779165268" lon="35.375114441">
  <ele>98.440063</ele>
  <time>2011-11-18T09:33:23Z</time>
  <speed>1.220000</speed>
</trkpt>
<trkpt lat="31.779167175" lon="35.375160217">
  <ele>98.244751</ele>
  <time>2011-11-18T09:33:27Z</time>
  <speed>1.230000</speed>
</trkpt>
<trkpt lat="31.779184341" lon="35.375194550">
  <ele>98.297485</ele>
  <time>2011-11-18T09:33:30Z</time>
  <speed>1.190000</speed>
</trkpt>
<trkpt lat="31.779191971" lon="35.375232697">
  <ele>97.738892</ele>
  <time>2011-11-18T09:33:34Z</time>
  <speed>1.090000</speed>
</trkpt>
<trkpt lat="31.779214859" lon="35.375251770">
  <ele>98.192017</ele>
  <time>2011-11-18T09:33:36Z</time>
  <speed>1.030000</speed>
</trkpt>
<trkpt lat="31.779228210" lon="35.375286102">
  <ele>98.563110</ele>
  <time>2011-11-18T09:33:39Z</time>
  <speed>0.970000</speed>
</trkpt>
<trkpt lat="31.779241562" lon="35.375312805">
  <ele>97.715454</ele>
  <time>2011-11-18T09:33:46Z</time>
  <speed>0.990000</speed>
</trkpt>
<trkpt lat="31.779266357" lon="35.375347137">
  <ele>97.807251</ele>
  <time>2011-11-18T09:33:50Z</time>
  <speed>1.250000</speed>
</trkpt>
<trkpt lat="31.779294968" lon="35.375362396">
  <ele>97.426392</ele>
  <time>2011-11-18T09:33:53Z</time>
  <speed>0.880000</speed>
</trkpt>
<trkpt lat="31.779325485" lon="35.375366211">
  <ele>96.201782</ele>
  <time>2011-11-18T09:33:56Z</time>
  <speed>1.480000</speed>
</trkpt>
<trkpt lat="31.779346466" lon="35.375385284">
  <ele>95.871704</ele>
  <time>2011-11-18T09:33:58Z</time>
  <speed>1.350000</speed>
</trkpt>
<trkpt lat="31.779367447" lon="35.375411987">
  <ele>96.352173</ele>
  <time>2011-11-18T09:34:00Z</time>
  <speed>1.520000</speed>
</trkpt>
<trkpt lat="31.779384613" lon="35.375434875">
  <ele>96.869751</ele>
  <time>2011-11-18T09:34:02Z</time>
  <speed>1.480000</speed>
</trkpt>
<trkpt lat="31.779399872" lon="35.375465393">
  <ele>97.475220</ele>
  <time>2011-11-18T09:34:04Z</time>
  <speed>1.530000</speed>
</trkpt>
<trkpt lat="31.779415131" lon="35.375507355">
  <ele>97.666626</ele>
  <time>2011-11-18T09:34:07Z</time>
  <speed>1.120000</speed>
</trkpt>
<trkpt lat="31.779428482" lon="35.375541687">
  <ele>98.219360</ele>
  <time>2011-11-18T09:34:09Z</time>
  <speed>1.850000</speed>
</trkpt>
<trkpt lat="31.779436111" lon="35.375572205">
  <ele>98.389282</ele>
  <time>2011-11-18T09:34:11Z</time>
  <speed>1.130000</speed>
</trkpt>
<trkpt lat="31.779451370" lon="35.375610352">
  <ele>99.320923</ele>
  <time>2011-11-18T09:34:14Z</time>
  <speed>1.360000</speed>
</trkpt>
<trkpt lat="31.779457092" lon="35.375644684">
  <ele>100.182251</ele>
  <time>2011-11-18T09:34:17Z</time>
  <speed>1.090000</speed>
</trkpt>
<trkpt lat="31.779464722" lon="35.375679016">
  <ele>100.779907</ele>
  <time>2011-11-18T09:34:20Z</time>
  <speed>1.410000</speed>
</trkpt>
<trkpt lat="31.779470444" lon="35.375720978">
  <ele>101.385376</ele>
  <time>2011-11-18T09:34:23Z</time>
  <speed>1.240000</speed>
</trkpt>
<trkpt lat="31.779472351" lon="35.375751495">
  <ele>101.926392</ele>
  <time>2011-11-18T09:34:26Z</time>
  <speed>0.730000</speed>
</trkpt>
<trkpt lat="31.779479980" lon="35.375785828">
  <ele>101.719360</ele>
  <time>2011-11-18T09:34:32Z</time>
  <speed>0.870000</speed>
</trkpt>
<trkpt lat="31.779466629" lon="35.375820160">
  <ele>102.711548</ele>
  <time>2011-11-18T09:34:36Z</time>
  <speed>1.200000</speed>
</trkpt>
<trkpt lat="31.779441833" lon="35.375835419">
  <ele>103.543579</ele>
  <time>2011-11-18T09:34:39Z</time>
  <speed>1.140000</speed>
</trkpt>
<trkpt lat="31.779432297" lon="35.375885010">
  <ele>104.277954</ele>
  <time>2011-11-18T09:34:42Z</time>
  <speed>1.410000</speed>
</trkpt>
<trkpt lat="31.779418945" lon="35.375919342">
  <ele>105.291626</ele>
  <time>2011-11-18T09:34:45Z</time>
  <speed>0.970000</speed>
</trkpt>
<trkpt lat="31.779415131" lon="35.375957489">
  <ele>105.408813</ele>
  <time>2011-11-18T09:34:48Z</time>
  <speed>1.380000</speed>
</trkpt>
<trkpt lat="31.779415131" lon="35.375991821">
  <ele>106.147095</ele>
  <time>2011-11-18T09:34:50Z</time>
  <speed>1.370000</speed>
</trkpt>
<trkpt lat="31.779418945" lon="35.376037598">
  <ele>107.746704</ele>
  <time>2011-11-18T09:34:54Z</time>
  <speed>1.030000</speed>
</trkpt>
<trkpt lat="31.779422760" lon="35.376071930">
  <ele>108.754517</ele>
  <time>2011-11-18T09:34:57Z</time>
  <speed>0.890000</speed>
</trkpt>
<trkpt lat="31.779430389" lon="35.376110077">
  <ele>109.789673</ele>
  <time>2011-11-18T09:35:00Z</time>
  <speed>1.200000</speed>
</trkpt>
<trkpt lat="31.779460907" lon="35.376129150">
  <ele>110.469360</ele>
  <time>2011-11-18T09:35:03Z</time>
  <speed>1.050000</speed>
</trkpt>
<trkpt lat="31.779489517" lon="35.376136780">
  <ele>111.090454</ele>
  <time>2011-11-18T09:35:07Z</time>
  <speed>0.340000</speed>
</trkpt>
<trkpt lat="31.779516220" lon="35.376182556">
  <ele>112.055298</ele>
  <time>2011-11-18T09:35:38Z</time>
  <speed>2.960000</speed>
</trkpt>
<trkpt lat="31.779541016" lon="35.376209259">
  <ele>111.611938</ele>
  <time>2011-11-18T09:35:39Z</time>
  <speed>3.270000</speed>
</trkpt>
<trkpt lat="31.779565811" lon="35.376232147">
  <ele>111.149048</ele>
  <time>2011-11-18T09:35:40Z</time>
  <speed>3.620000</speed>
</trkpt>
<trkpt lat="31.779592514" lon="35.376262665">
  <ele>110.248657</ele>
  <time>2011-11-18T09:35:41Z</time>
  <speed>4.090000</speed>
</trkpt>
<trkpt lat="31.779624939" lon="35.376289368">
  <ele>109.293579</ele>
  <time>2011-11-18T09:35:42Z</time>
  <speed>4.460000</speed>
</trkpt>
<trkpt lat="31.779659271" lon="35.376331329">
  <ele>109.322876</ele>
  <time>2011-11-18T09:35:43Z</time>
  <speed>5.450000</speed>
</trkpt>
<trkpt lat="31.779699326" lon="35.376380920">
  <ele>108.858032</ele>
  <time>2011-11-18T09:35:44Z</time>
  <speed>6.740000</speed>
</trkpt>
<trkpt lat="31.779735565" lon="35.376441956">
  <ele>108.192017</ele>
  <time>2011-11-18T09:35:45Z</time>
  <speed>7.150000</speed>
</trkpt>
<trkpt lat="31.779766083" lon="35.376502991">
  <ele>107.342407</ele>
  <time>2011-11-18T09:35:46Z</time>
  <speed>6.900000</speed>
</trkpt>
<trkpt lat="31.779792786" lon="35.376564026">
  <ele>106.920532</ele>
  <time>2011-11-18T09:35:47Z</time>
  <speed>5.380000</speed>
</trkpt>
<trkpt lat="31.779825211" lon="35.376609802">
  <ele>107.133423</ele>
  <time>2011-11-18T09:35:48Z</time>
  <speed>4.660000</speed>
</trkpt>
<trkpt lat="31.779844284" lon="35.376647949">
  <ele>107.826782</ele>
  <time>2011-11-18T09:35:49Z</time>
  <speed>3.850000</speed>
</trkpt>
<trkpt lat="31.779857635" lon="35.376682281">
  <ele>107.781860</ele>
  <time>2011-11-18T09:35:50Z</time>
  <speed>3.540000</speed>
</trkpt>
<trkpt lat="31.779876709" lon="35.376712799">
  <ele>108.031860</ele>
  <time>2011-11-18T09:35:51Z</time>
  <speed>3.460000</speed>
</trkpt>
<trkpt lat="31.779893875" lon="35.376739502">
  <ele>108.010376</ele>
  <time>2011-11-18T09:35:52Z</time>
  <speed>3.560000</speed>
</trkpt>
<trkpt lat="31.779912949" lon="35.376773834">
  <ele>107.988892</ele>
  <time>2011-11-18T09:35:53Z</time>
  <speed>3.960000</speed>
</trkpt>
<trkpt lat="31.779933929" lon="35.376808167">
  <ele>107.889282</ele>
  <time>2011-11-18T09:35:54Z</time>
  <speed>4.310000</speed>
</trkpt>
<trkpt lat="31.779958725" lon="35.376850128">
  <ele>107.559204</ele>
  <time>2011-11-18T09:35:55Z</time>
  <speed>4.460000</speed>
</trkpt>
<trkpt lat="31.779979706" lon="35.376892090">
  <ele>107.063110</ele>
  <time>2011-11-18T09:35:56Z</time>
  <speed>4.360000</speed>
</trkpt>
<trkpt lat="31.780006409" lon="35.376930237">
  <ele>106.764282</ele>
  <time>2011-11-18T09:35:57Z</time>
  <speed>4.280000</speed>
</trkpt>
<trkpt lat="31.780033112" lon="35.376972198">
  <ele>106.041626</ele>
  <time>2011-11-18T09:35:58Z</time>
  <speed>4.330000</speed>
</trkpt>
<trkpt lat="31.780059814" lon="35.377006531">
  <ele>105.713501</ele>
  <time>2011-11-18T09:35:59Z</time>
  <speed>4.880000</speed>
</trkpt>
<trkpt lat="31.780090332" lon="35.377044678">
  <ele>104.945923</ele>
  <time>2011-11-18T09:36:00Z</time>
  <speed>5.030000</speed>
</trkpt>
<trkpt lat="31.780122757" lon="35.377079010">
  <ele>104.838501</ele>
  <time>2011-11-18T09:36:01Z</time>
  <speed>4.760000</speed>
</trkpt>
<trkpt lat="31.780151367" lon="35.377117157">
  <ele>105.061157</ele>
  <time>2011-11-18T09:36:02Z</time>
  <speed>4.510000</speed>
</trkpt>
<trkpt lat="31.780183792" lon="35.377147675">
  <ele>104.973267</ele>
  <time>2011-11-18T09:36:03Z</time>
  <speed>4.670000</speed>
</trkpt>
<trkpt lat="31.780214310" lon="35.377182007">
  <ele>104.891235</ele>
  <time>2011-11-18T09:36:04Z</time>
  <speed>4.640000</speed>
</trkpt>
<trkpt lat="31.780256271" lon="35.377204895">
  <ele>105.182251</ele>
  <time>2011-11-18T09:36:05Z</time>
  <speed>4.510000</speed>
</trkpt>
<trkpt lat="31.780286789" lon="35.377235413">
  <ele>104.199829</ele>
  <time>2011-11-18T09:36:06Z</time>
  <speed>4.420000</speed>
</trkpt>
<trkpt lat="31.780313492" lon="35.377265930">
  <ele>104.283813</ele>
  <time>2011-11-18T09:36:07Z</time>
  <speed>4.140000</speed>
</trkpt>
<trkpt lat="31.780332565" lon="35.377296448">
  <ele>104.094360</ele>
  <time>2011-11-18T09:36:08Z</time>
  <speed>3.810000</speed>
</trkpt>
<trkpt lat="31.780353546" lon="35.377326965">
  <ele>103.639282</ele>
  <time>2011-11-18T09:36:09Z</time>
  <speed>3.150000</speed>
</trkpt>
<trkpt lat="31.780380249" lon="35.377376556">
  <ele>103.717407</ele>
  <time>2011-11-18T09:36:11Z</time>
  <speed>2.810000</speed>
</trkpt>
<trkpt lat="31.780403137" lon="35.377433777">
  <ele>103.074829</ele>
  <time>2011-11-18T09:36:13Z</time>
  <speed>3.310000</speed>
</trkpt>
<trkpt lat="31.780418396" lon="35.377468109">
  <ele>103.272095</ele>
  <time>2011-11-18T09:36:14Z</time>
  <speed>3.800000</speed>
</trkpt>
<trkpt lat="31.780433655" lon="35.377502441">
  <ele>103.127563</ele>
  <time>2011-11-18T09:36:15Z</time>
  <speed>4.080000</speed>
</trkpt>
<trkpt lat="31.780447006" lon="35.377540588">
  <ele>103.027954</ele>
  <time>2011-11-18T09:36:16Z</time>
  <speed>3.420000</speed>
</trkpt>
<trkpt lat="31.780464172" lon="35.377567291">
  <ele>103.022095</ele>
  <time>2011-11-18T09:36:18Z</time>
  <speed>0.430000</speed>
</trkpt>
<trkpt lat="31.780485153" lon="35.377586365">
  <ele>102.119751</ele>
  <time>2011-11-18T09:37:03Z</time>
  <speed>0.560000</speed>
</trkpt>
<trkpt lat="31.780508041" lon="35.377605438">
  <ele>100.838501</ele>
  <time>2011-11-18T09:37:06Z</time>
  <speed>1.430000</speed>
</trkpt>
<trkpt lat="31.780538559" lon="35.377605438">
  <ele>100.158813</ele>
  <time>2011-11-18T09:37:09Z</time>
  <speed>1.080000</speed>
</trkpt>
<trkpt lat="31.780567169" lon="35.377620697">
  <ele>99.752563</ele>
  <time>2011-11-18T09:37:12Z</time>
  <speed>0.690000</speed>
</trkpt>
<trkpt lat="31.780590057" lon="35.377643585">
  <ele>99.635376</ele>
  <time>2011-11-18T09:37:17Z</time>
  <speed>0.820000</speed>
</trkpt>
<trkpt lat="31.780616760" lon="35.377632141">
  <ele>99.402954</ele>
  <time>2011-11-18T09:37:20Z</time>
  <speed>0.610000</speed>
</trkpt>
<trkpt lat="31.780645370" lon="35.377620697">
  <ele>99.250610</ele>
  <time>2011-11-18T09:37:23Z</time>
  <speed>0.580000</speed>
</trkpt>
<trkpt lat="31.780675888" lon="35.377616882">
  <ele>99.371704</ele>
  <time>2011-11-18T09:37:33Z</time>
  <speed>0.680000</speed>
</trkpt>
<trkpt lat="31.780700684" lon="35.377601624">
  <ele>99.274048</ele>
  <time>2011-11-18T09:37:36Z</time>
  <speed>0.690000</speed>
</trkpt>
<trkpt lat="31.780727386" lon="35.377628326">
  <ele>98.781860</ele>
  <time>2011-11-18T09:37:43Z</time>
  <speed>1.200000</speed>
</trkpt>
<trkpt lat="31.780750275" lon="35.377647400">
  <ele>98.109985</ele>
  <time>2011-11-18T09:37:45Z</time>
  <speed>1.460000</speed>
</trkpt>
<trkpt lat="31.780786514" lon="35.377674103">
  <ele>97.600220</ele>
  <time>2011-11-18T09:37:48Z</time>
  <speed>1.530000</speed>
</trkpt>
<trkpt lat="31.780809402" lon="35.377696991">
  <ele>97.346313</ele>
  <time>2011-11-18T09:37:50Z</time>
  <speed>1.460000</speed>
</trkpt>
<trkpt lat="31.780822754" lon="35.377727509">
  <ele>97.057251</ele>
  <time>2011-11-18T09:37:52Z</time>
  <speed>1.380000</speed>
</trkpt>
<trkpt lat="31.780853271" lon="35.377746582">
  <ele>97.457642</ele>
  <time>2011-11-18T09:37:54Z</time>
  <speed>1.330000</speed>
</trkpt>
<trkpt lat="31.780879974" lon="35.377754211">
  <ele>96.721313</ele>
  <time>2011-11-18T09:37:58Z</time>
  <speed>0.980000</speed>
</trkpt>
<trkpt lat="31.780908585" lon="35.377750397">
  <ele>96.412720</ele>
  <time>2011-11-18T09:38:04Z</time>
  <speed>0.700000</speed>
</trkpt>
<trkpt lat="31.780935287" lon="35.377735138">
  <ele>96.955688</ele>
  <time>2011-11-18T09:38:07Z</time>
  <speed>1.470000</speed>
</trkpt>
<trkpt lat="31.780956268" lon="35.377716064">
  <ele>97.223267</ele>
  <time>2011-11-18T09:38:09Z</time>
  <speed>0.840000</speed>
</trkpt>
<trkpt lat="31.780979156" lon="35.377689362">
  <ele>97.729126</ele>
  <time>2011-11-18T09:38:12Z</time>
  <speed>0.920000</speed>
</trkpt>
<trkpt lat="31.781007767" lon="35.377670288">
  <ele>97.545532</ele>
  <time>2011-11-18T09:38:16Z</time>
  <speed>0.840000</speed>
</trkpt>
<trkpt lat="31.781032562" lon="35.377647400">
  <ele>98.203735</ele>
  <time>2011-11-18T09:38:22Z</time>
  <speed>1.180000</speed>
</trkpt>
<trkpt lat="31.781057358" lon="35.377632141">
  <ele>98.416626</ele>
  <time>2011-11-18T09:38:25Z</time>
  <speed>1.360000</speed>
</trkpt>
<trkpt lat="31.781097412" lon="35.377624512">
  <ele>99.127563</ele>
  <time>2011-11-18T09:38:29Z</time>
  <speed>1.060000</speed>
</trkpt>
<trkpt lat="31.781139374" lon="35.377609253">
  <ele>99.305298</ele>
  <time>2011-11-18T09:38:32Z</time>
  <speed>1.620000</speed>
</trkpt>
<trkpt lat="31.781173706" lon="35.377601624">
  <ele>99.867798</ele>
  <time>2011-11-18T09:38:34Z</time>
  <speed>1.510000</speed>
</trkpt>
<trkpt lat="31.781206131" lon="35.377590179">
  <ele>100.229126</ele>
  <time>2011-11-18T09:38:37Z</time>
  <speed>1.450000</speed>
</trkpt>
<trkpt lat="31.781234741" lon="35.377571106">
  <ele>98.930298</ele>
  <time>2011-11-18T09:38:40Z</time>
  <speed>1.380000</speed>
</trkpt>
<trkpt lat="31.781263351" lon="35.377559662">
  <ele>99.652954</ele>
  <time>2011-11-18T09:38:44Z</time>
  <speed>1.000000</speed>
</trkpt>
<trkpt lat="31.781290054" lon="35.377540588">
  <ele>98.803345</ele>
  <time>2011-11-18T09:38:46Z</time>
  <speed>1.850000</speed>
</trkpt>
<trkpt lat="31.781322479" lon="35.377532959">
  <ele>98.682251</ele>
  <time>2011-11-18T09:38:48Z</time>
  <speed>1.610000</speed>
</trkpt>
<trkpt lat="31.781352997" lon="35.377529144">
  <ele>98.826782</ele>
  <time>2011-11-18T09:38:50Z</time>
  <speed>0.870000</speed>
</trkpt>
<trkpt lat="31.781366348" lon="35.377548218">
  <ele>100.738892</ele>
  <time>2011-11-18T09:38:59Z</time>
  <speed>0.670000</speed>
</trkpt>
<trkpt lat="31.781393051" lon="35.377552032">
  <ele>99.565063</ele>
  <time>2011-11-18T09:39:03Z</time>
  <speed>0.930000</speed>
</trkpt>
<trkpt lat="31.781421661" lon="35.377540588">
  <ele>99.442017</ele>
  <time>2011-11-18T09:39:06Z</time>
  <speed>0.660000</speed>
</trkpt>
<trkpt lat="31.781452179" lon="35.377532959">
  <ele>98.043579</ele>
  <time>2011-11-18T09:39:12Z</time>
  <speed>0.780000</speed>
</trkpt>
<trkpt lat="31.781480789" lon="35.377521515">
  <ele>97.309204</ele>
  <time>2011-11-18T09:39:19Z</time>
  <speed>0.860000</speed>
</trkpt>
<trkpt lat="31.781520844" lon="35.377502441">
  <ele>96.858032</ele>
  <time>2011-11-18T09:39:25Z</time>
  <speed>1.820000</speed>
</trkpt>
<trkpt lat="31.781572342" lon="35.377510071">
  <ele>97.199829</ele>
  <time>2011-11-18T09:39:27Z</time>
  <speed>3.400000</speed>
</trkpt>
<trkpt lat="31.781618118" lon="35.377548218">
  <ele>96.926392</ele>
  <time>2011-11-18T09:39:29Z</time>
  <speed>3.430000</speed>
</trkpt>
<trkpt lat="31.781637192" lon="35.377578735">
  <ele>96.484985</ele>
  <time>2011-11-18T09:39:30Z</time>
  <speed>3.920000</speed>
</trkpt>
<trkpt lat="31.781654358" lon="35.377616882">
  <ele>96.082642</ele>
  <time>2011-11-18T09:39:31Z</time>
  <speed>3.920000</speed>
</trkpt>
<trkpt lat="31.781671524" lon="35.377651215">
  <ele>95.979126</ele>
  <time>2011-11-18T09:39:32Z</time>
  <speed>3.220000</speed>
</trkpt>
<trkpt lat="31.781692505" lon="35.377696991">
  <ele>96.094360</ele>
  <time>2011-11-18T09:39:34Z</time>
  <speed>2.080000</speed>
</trkpt>
<trkpt lat="31.781694412" lon="35.377723694">
  <ele>94.147095</ele>
  <time>2011-11-18T09:40:14Z</time>
  <speed>0.500000</speed>
</trkpt>
<trkpt lat="31.781724930" lon="35.377738953">
  <ele>93.846313</ele>
  <time>2011-11-18T09:40:24Z</time>
  <speed>1.010000</speed>
</trkpt>
<trkpt lat="31.781757355" lon="35.377746582">
  <ele>93.824829</ele>
  <time>2011-11-18T09:40:26Z</time>
  <speed>2.340000</speed>
</trkpt>
<trkpt lat="31.781808853" lon="35.377746582">
  <ele>93.658813</ele>
  <time>2011-11-18T09:40:28Z</time>
  <speed>2.750000</speed>
</trkpt>
<trkpt lat="31.781837463" lon="35.377746582">
  <ele>93.533813</ele>
  <time>2011-11-18T09:40:29Z</time>
  <speed>2.980000</speed>
</trkpt>
<trkpt lat="31.781871796" lon="35.377742767">
  <ele>94.137329</ele>
  <time>2011-11-18T09:40:30Z</time>
  <speed>2.790000</speed>
</trkpt>
<trkpt lat="31.781900406" lon="35.377742767">
  <ele>93.965454</ele>
  <time>2011-11-18T09:40:31Z</time>
  <speed>2.860000</speed>
</trkpt>
<trkpt lat="31.781934738" lon="35.377735138">
  <ele>94.545532</ele>
  <time>2011-11-18T09:40:32Z</time>
  <speed>2.850000</speed>
</trkpt>
<trkpt lat="31.781961441" lon="35.377731323">
  <ele>94.172485</ele>
  <time>2011-11-18T09:40:33Z</time>
  <speed>3.200000</speed>
</trkpt>
<trkpt lat="31.781993866" lon="35.377727509">
  <ele>93.951782</ele>
  <time>2011-11-18T09:40:34Z</time>
  <speed>3.440000</speed>
</trkpt>
<trkpt lat="31.782030106" lon="35.377719879">
  <ele>93.627563</ele>
  <time>2011-11-18T09:40:35Z</time>
  <speed>4.010000</speed>
</trkpt>
<trkpt lat="31.782072067" lon="35.377716064">
  <ele>93.723267</ele>
  <time>2011-11-18T09:40:36Z</time>
  <speed>4.530000</speed>
</trkpt>
<trkpt lat="31.782112122" lon="35.377712250">
  <ele>93.895142</ele>
  <time>2011-11-18T09:40:37Z</time>
  <speed>4.410000</speed>
</trkpt>
<trkpt lat="31.782152176" lon="35.377700806">
  <ele>93.838501</ele>
  <time>2011-11-18T09:40:38Z</time>
  <speed>4.010000</speed>
</trkpt>
<trkpt lat="31.782196045" lon="35.377696991">
  <ele>94.807251</ele>
  <time>2011-11-18T09:40:39Z</time>
  <speed>3.750000</speed>
</trkpt>
<trkpt lat="31.782228470" lon="35.377696991">
  <ele>94.809204</ele>
  <time>2011-11-18T09:40:40Z</time>
  <speed>3.590000</speed>
</trkpt>
<trkpt lat="31.782257080" lon="35.377685547">
  <ele>95.346313</ele>
  <time>2011-11-18T09:40:41Z</time>
  <speed>3.290000</speed>
</trkpt>
<trkpt lat="31.782287598" lon="35.377674103">
  <ele>95.363892</ele>
  <time>2011-11-18T09:40:42Z</time>
  <speed>3.270000</speed>
</trkpt>
<trkpt lat="31.782316208" lon="35.377658844">
  <ele>95.777954</ele>
  <time>2011-11-18T09:40:43Z</time>
  <speed>3.280000</speed>
</trkpt>
<trkpt lat="31.782342911" lon="35.377647400">
  <ele>95.438110</ele>
  <time>2011-11-18T09:40:44Z</time>
  <speed>3.140000</speed>
</trkpt>
<trkpt lat="31.782396317" lon="35.377632141">
  <ele>94.996704</ele>
  <time>2011-11-18T09:40:46Z</time>
  <speed>3.250000</speed>
</trkpt>
<trkpt lat="31.782421112" lon="35.377616882">
  <ele>93.981079</ele>
  <time>2011-11-18T09:40:47Z</time>
  <speed>2.920000</speed>
</trkpt>
<trkpt lat="31.782442093" lon="35.377593994">
  <ele>93.811157</ele>
  <time>2011-11-18T09:40:48Z</time>
  <speed>2.730000</speed>
</trkpt>
<trkpt lat="31.782453537" lon="35.377532959">
  <ele>92.848267</ele>
  <time>2011-11-18T09:40:50Z</time>
  <speed>3.650000</speed>
</trkpt>
<trkpt lat="31.782451630" lon="35.377483368">
  <ele>92.164673</ele>
  <time>2011-11-18T09:40:51Z</time>
  <speed>4.780000</speed>
</trkpt>
<trkpt lat="31.782445908" lon="35.377418518">
  <ele>90.977173</ele>
  <time>2011-11-18T09:40:52Z</time>
  <speed>6.450000</speed>
</trkpt>
<trkpt lat="31.782436371" lon="35.377349854">
  <ele>90.102173</ele>
  <time>2011-11-18T09:40:53Z</time>
  <speed>6.460000</speed>
</trkpt>
<trkpt lat="31.782432556" lon="35.377269745">
  <ele>89.041626</ele>
  <time>2011-11-18T09:40:54Z</time>
  <speed>7.490000</speed>
</trkpt>
<trkpt lat="31.782424927" lon="35.377189636">
  <ele>88.424438</ele>
  <time>2011-11-18T09:40:55Z</time>
  <speed>8.020000</speed>
</trkpt>
<trkpt lat="31.782415390" lon="35.377113342">
  <ele>87.774048</ele>
  <time>2011-11-18T09:40:56Z</time>
  <speed>7.350000</speed>
</trkpt>
<trkpt lat="31.782400131" lon="35.377037048">
  <ele>87.449829</ele>
  <time>2011-11-18T09:40:57Z</time>
  <speed>8.040000</speed>
</trkpt>
<trkpt lat="31.782390594" lon="35.376953125">
  <ele>86.959595</ele>
  <time>2011-11-18T09:40:58Z</time>
  <speed>7.500000</speed>
</trkpt>
<trkpt lat="31.782384872" lon="35.376884460">
  <ele>86.397095</ele>
  <time>2011-11-18T09:40:59Z</time>
  <speed>6.220000</speed>
</trkpt>
<trkpt lat="31.782396317" lon="35.376827240">
  <ele>85.774048</ele>
  <time>2011-11-18T09:41:00Z</time>
  <speed>5.690000</speed>
</trkpt>
<trkpt lat="31.782396317" lon="35.376789093">
  <ele>85.467407</ele>
  <time>2011-11-18T09:41:01Z</time>
  <speed>3.000000</speed>
</trkpt>
<trkpt lat="31.782382965" lon="35.376754761">
  <ele>85.043579</ele>
  <time>2011-11-18T09:41:03Z</time>
  <speed>0.540000</speed>
</trkpt>
<trkpt lat="31.782413483" lon="35.376708984">
  <ele>85.024048</ele>
  <time>2011-11-18T09:41:11Z</time>
  <speed>1.660000</speed>
</trkpt>
<trkpt lat="31.782445908" lon="35.376678467">
  <ele>85.893188</ele>
  <time>2011-11-18T09:41:13Z</time>
  <speed>2.110000</speed>
</trkpt>
<trkpt lat="31.782480240" lon="35.376640320">
  <ele>86.926392</ele>
  <time>2011-11-18T09:41:15Z</time>
  <speed>2.600000</speed>
</trkpt>
<trkpt lat="31.782508850" lon="35.376590729">
  <ele>87.338501</ele>
  <time>2011-11-18T09:41:17Z</time>
  <speed>2.650000</speed>
</trkpt>
<trkpt lat="31.782537460" lon="35.376544952">
  <ele>87.506470</ele>
  <time>2011-11-18T09:41:19Z</time>
  <speed>2.550000</speed>
</trkpt>
<trkpt lat="31.782550812" lon="35.376514435">
  <ele>86.397095</ele>
  <time>2011-11-18T09:41:22Z</time>
  <speed>0.230000</speed>
</trkpt>
<trkpt lat="31.782581329" lon="35.376495361">
  <ele>86.443970</ele>
  <time>2011-11-18T09:41:31Z</time>
  <speed>0.820000</speed>
</trkpt>
<trkpt lat="31.782611847" lon="35.376491547">
  <ele>87.018188</ele>
  <time>2011-11-18T09:41:34Z</time>
  <speed>1.950000</speed>
</trkpt>
<trkpt lat="31.782648087" lon="35.376472473">
  <ele>87.277954</ele>
  <time>2011-11-18T09:41:36Z</time>
  <speed>2.030000</speed>
</trkpt>
<trkpt lat="31.782684326" lon="35.376445770">
  <ele>87.793579</ele>
  <time>2011-11-18T09:41:39Z</time>
  <speed>2.260000</speed>
</trkpt>
<trkpt lat="31.782724380" lon="35.376426697">
  <ele>87.836548</ele>
  <time>2011-11-18T09:41:41Z</time>
  <speed>2.960000</speed>
</trkpt>
<trkpt lat="31.782749176" lon="35.376411438">
  <ele>88.289673</ele>
  <time>2011-11-18T09:41:42Z</time>
  <speed>3.050000</speed>
</trkpt>
<trkpt lat="31.782775879" lon="35.376399994">
  <ele>88.223267</ele>
  <time>2011-11-18T09:41:43Z</time>
  <speed>3.130000</speed>
</trkpt>
<trkpt lat="31.782810211" lon="35.376384735">
  <ele>88.723267</ele>
  <time>2011-11-18T09:41:44Z</time>
  <speed>3.210000</speed>
</trkpt>
<trkpt lat="31.782836914" lon="35.376373291">
  <ele>89.012329</ele>
  <time>2011-11-18T09:41:45Z</time>
  <speed>3.240000</speed>
</trkpt>
<trkpt lat="31.782865524" lon="35.376358032">
  <ele>89.086548</ele>
  <time>2011-11-18T09:41:46Z</time>
  <speed>3.040000</speed>
</trkpt>
<trkpt lat="31.782894135" lon="35.376342773">
  <ele>89.375610</ele>
  <time>2011-11-18T09:41:47Z</time>
  <speed>3.060000</speed>
</trkpt>
<trkpt lat="31.782922745" lon="35.376331329">
  <ele>89.508423</ele>
  <time>2011-11-18T09:41:48Z</time>
  <speed>3.000000</speed>
</trkpt>
<trkpt lat="31.782951355" lon="35.376323700">
  <ele>89.822876</ele>
  <time>2011-11-18T09:41:49Z</time>
  <speed>2.900000</speed>
</trkpt>
<trkpt lat="31.782976151" lon="35.376312256">
  <ele>89.084595</ele>
  <time>2011-11-18T09:41:50Z</time>
  <speed>3.320000</speed>
</trkpt>
<trkpt lat="31.783002853" lon="35.376296997">
  <ele>88.555298</ele>
  <time>2011-11-18T09:41:51Z</time>
  <speed>3.540000</speed>
</trkpt>
<trkpt lat="31.783029556" lon="35.376281738">
  <ele>87.934204</ele>
  <time>2011-11-18T09:41:52Z</time>
  <speed>3.640000</speed>
</trkpt>
<trkpt lat="31.783058167" lon="35.376266479">
  <ele>88.358032</ele>
  <time>2011-11-18T09:41:53Z</time>
  <speed>3.010000</speed>
</trkpt>
<trkpt lat="31.783081055" lon="35.376270294">
  <ele>90.815063</ele>
  <time>2011-11-18T09:41:56Z</time>
  <speed>0.660000</speed>
</trkpt>
<trkpt lat="31.783105850" lon="35.376266479">
  <ele>92.053345</ele>
  <time>2011-11-18T09:42:04Z</time>
  <speed>0.100000</speed>
</trkpt>
<trkpt lat="31.783143997" lon="35.376270294">
  <ele>92.279907</ele>
  <time>2011-11-18T09:42:21Z</time>
  <speed>2.150000</speed>
</trkpt>
<trkpt lat="31.783195496" lon="35.376258850">
  <ele>92.805298</ele>
  <time>2011-11-18T09:42:23Z</time>
  <speed>3.030000</speed>
</trkpt>
<trkpt lat="31.783224106" lon="35.376258850">
  <ele>92.545532</ele>
  <time>2011-11-18T09:42:24Z</time>
  <speed>3.120000</speed>
</trkpt>
<trkpt lat="31.783256531" lon="35.376251221">
  <ele>92.711548</ele>
  <time>2011-11-18T09:42:25Z</time>
  <speed>3.490000</speed>
</trkpt>
<trkpt lat="31.783288956" lon="35.376247406">
  <ele>93.092407</ele>
  <time>2011-11-18T09:42:26Z</time>
  <speed>3.600000</speed>
</trkpt>
<trkpt lat="31.783323288" lon="35.376239777">
  <ele>93.266235</ele>
  <time>2011-11-18T09:42:27Z</time>
  <speed>3.860000</speed>
</trkpt>
<trkpt lat="31.783355713" lon="35.376235962">
  <ele>93.725220</ele>
  <time>2011-11-18T09:42:28Z</time>
  <speed>3.720000</speed>
</trkpt>
<trkpt lat="31.783391953" lon="35.376224518">
  <ele>93.848267</ele>
  <time>2011-11-18T09:42:29Z</time>
  <speed>3.890000</speed>
</trkpt>
<trkpt lat="31.783428192" lon="35.376220703">
  <ele>94.283813</ele>
  <time>2011-11-18T09:42:30Z</time>
  <speed>3.710000</speed>
</trkpt>
<trkpt lat="31.783460617" lon="35.376216888">
  <ele>93.990845</ele>
  <time>2011-11-18T09:42:31Z</time>
  <speed>3.470000</speed>
</trkpt>
<trkpt lat="31.783493042" lon="35.376213074">
  <ele>94.627563</ele>
  <time>2011-11-18T09:42:32Z</time>
  <speed>3.260000</speed>
</trkpt>
<trkpt lat="31.783525467" lon="35.376213074">
  <ele>95.162720</ele>
  <time>2011-11-18T09:42:33Z</time>
  <speed>3.830000</speed>
</trkpt>
<trkpt lat="31.783559799" lon="35.376209259">
  <ele>95.076782</ele>
  <time>2011-11-18T09:42:34Z</time>
  <speed>3.350000</speed>
</trkpt>
<trkpt lat="31.783590317" lon="35.376205444">
  <ele>95.820923</ele>
  <time>2011-11-18T09:42:35Z</time>
  <speed>3.070000</speed>
</trkpt>
<trkpt lat="31.783618927" lon="35.376205444">
  <ele>95.871704</ele>
  <time>2011-11-18T09:42:36Z</time>
  <speed>3.320000</speed>
</trkpt>
<trkpt lat="31.783647537" lon="35.376205444">
  <ele>96.229126</ele>
  <time>2011-11-18T09:42:37Z</time>
  <speed>2.820000</speed>
</trkpt>
<trkpt lat="31.783693314" lon="35.376209259">
  <ele>95.703735</ele>
  <time>2011-11-18T09:42:39Z</time>
  <speed>2.560000</speed>
</trkpt>
<trkpt lat="31.783746719" lon="35.376201630">
  <ele>95.715454</ele>
  <time>2011-11-18T09:42:41Z</time>
  <speed>3.140000</speed>
</trkpt>
<trkpt lat="31.783775330" lon="35.376194000">
  <ele>95.803345</ele>
  <time>2011-11-18T09:42:42Z</time>
  <speed>3.090000</speed>
</trkpt>
<trkpt lat="31.783821106" lon="35.376174927">
  <ele>94.697876</ele>
  <time>2011-11-18T09:42:44Z</time>
  <speed>3.010000</speed>
</trkpt>
<trkpt lat="31.783851624" lon="35.376163483">
  <ele>94.492798</ele>
  <time>2011-11-18T09:42:45Z</time>
  <speed>2.990000</speed>
</trkpt>
<trkpt lat="31.783897400" lon="35.376140594">
  <ele>94.412720</ele>
  <time>2011-11-18T09:42:47Z</time>
  <speed>2.700000</speed>
</trkpt>
<trkpt lat="31.783922195" lon="35.376129150">
  <ele>93.637329</ele>
  <time>2011-11-18T09:42:48Z</time>
  <speed>2.930000</speed>
</trkpt>
<trkpt lat="31.783973694" lon="35.376102448">
  <ele>92.871704</ele>
  <time>2011-11-18T09:42:50Z</time>
  <speed>3.910000</speed>
</trkpt>
<trkpt lat="31.784006119" lon="35.376087189">
  <ele>92.801392</ele>
  <time>2011-11-18T09:42:51Z</time>
  <speed>4.010000</speed>
</trkpt>
<trkpt lat="31.784040451" lon="35.376075745">
  <ele>92.445923</ele>
  <time>2011-11-18T09:42:52Z</time>
  <speed>3.650000</speed>
</trkpt>
<trkpt lat="31.784070969" lon="35.376064301">
  <ele>92.188110</ele>
  <time>2011-11-18T09:42:53Z</time>
  <speed>3.440000</speed>
</trkpt>
<trkpt lat="31.784097672" lon="35.376045227">
  <ele>92.094360</ele>
  <time>2011-11-18T09:42:54Z</time>
  <speed>3.350000</speed>
</trkpt>
<trkpt lat="31.784122467" lon="35.376026154">
  <ele>91.451782</ele>
  <time>2011-11-18T09:42:55Z</time>
  <speed>3.290000</speed>
</trkpt>
<trkpt lat="31.784141541" lon="35.375999451">
  <ele>91.461548</ele>
  <time>2011-11-18T09:42:56Z</time>
  <speed>3.370000</speed>
</trkpt>
<trkpt lat="31.784164429" lon="35.375976563">
  <ele>91.174438</ele>
  <time>2011-11-18T09:42:57Z</time>
  <speed>3.160000</speed>
</trkpt>
<trkpt lat="31.784185410" lon="35.375949860">
  <ele>91.410767</ele>
  <time>2011-11-18T09:42:58Z</time>
  <speed>2.810000</speed>
</trkpt>
<trkpt lat="31.784221649" lon="35.375904083">
  <ele>91.293579</ele>
  <time>2011-11-18T09:43:00Z</time>
  <speed>2.910000</speed>
</trkpt>
<trkpt lat="31.784255981" lon="35.375854492">
  <ele>91.328735</ele>
  <time>2011-11-18T09:43:02Z</time>
  <speed>3.080000</speed>
</trkpt>
<trkpt lat="31.784271240" lon="35.375827789">
  <ele>91.502563</ele>
  <time>2011-11-18T09:43:03Z</time>
  <speed>2.770000</speed>
</trkpt>
<trkpt lat="31.784282684" lon="35.375797272">
  <ele>91.277954</ele>
  <time>2011-11-18T09:43:04Z</time>
  <speed>3.120000</speed>
</trkpt>
<trkpt lat="31.784292221" lon="35.375762939">
  <ele>91.885376</ele>
  <time>2011-11-18T09:43:05Z</time>
  <speed>2.880000</speed>
</trkpt>
<trkpt lat="31.784299850" lon="35.375724792">
  <ele>92.276001</ele>
  <time>2011-11-18T09:43:06Z</time>
  <speed>2.880000</speed>
</trkpt>
<trkpt lat="31.784305573" lon="35.375698090">
  <ele>93.063110</ele>
  <time>2011-11-18T09:43:07Z</time>
  <speed>2.750000</speed>
</trkpt>
<trkpt lat="31.784320831" lon="35.375633240">
  <ele>94.053345</ele>
  <time>2011-11-18T09:43:09Z</time>
  <speed>2.780000</speed>
</trkpt>
<trkpt lat="31.784336090" lon="35.375579834">
  <ele>93.914673</ele>
  <time>2011-11-18T09:43:11Z</time>
  <speed>2.530000</speed>
</trkpt>
<trkpt lat="31.784362793" lon="35.375537872">
  <ele>93.451782</ele>
  <time>2011-11-18T09:43:13Z</time>
  <speed>2.500000</speed>
</trkpt>
<trkpt lat="31.784399033" lon="35.375503540">
  <ele>92.861938</ele>
  <time>2011-11-18T09:43:15Z</time>
  <speed>2.960000</speed>
</trkpt>
<trkpt lat="31.784416199" lon="35.375473022">
  <ele>92.326782</ele>
  <time>2011-11-18T09:43:16Z</time>
  <speed>3.580000</speed>
</trkpt>
<trkpt lat="31.784433365" lon="35.375446320">
  <ele>92.432251</ele>
  <time>2011-11-18T09:43:17Z</time>
  <speed>2.750000</speed>
</trkpt>
<trkpt lat="31.784454346" lon="35.375419617">
  <ele>91.736938</ele>
  <time>2011-11-18T09:43:19Z</time>
  <speed>0.550000</speed>
</trkpt>
<trkpt lat="31.784461975" lon="35.375453949">
  <ele>92.192017</ele>
  <time>2011-11-18T09:43:25Z</time>
  <speed>1.460000</speed>
</trkpt>
<trkpt lat="31.784467697" lon="35.375495911">
  <ele>92.582642</ele>
  <time>2011-11-18T09:43:27Z</time>
  <speed>1.350000</speed>
</trkpt>
<trkpt lat="31.784467697" lon="35.375537872">
  <ele>92.746704</ele>
  <time>2011-11-18T09:43:30Z</time>
  <speed>1.100000</speed>
</trkpt>
<trkpt lat="31.784473419" lon="35.375579834">
  <ele>92.768188</ele>
  <time>2011-11-18T09:43:33Z</time>
  <speed>1.300000</speed>
</trkpt>
<trkpt lat="31.784482956" lon="35.375610352">
  <ele>93.338501</ele>
  <time>2011-11-18T09:43:35Z</time>
  <speed>1.630000</speed>
</trkpt>
<trkpt lat="31.784475327" lon="35.375656128">
  <ele>92.895142</ele>
  <time>2011-11-18T09:43:37Z</time>
  <speed>1.690000</speed>
</trkpt>
<trkpt lat="31.784479141" lon="35.375701904">
  <ele>92.776001</ele>
  <time>2011-11-18T09:43:40Z</time>
  <speed>1.640000</speed>
</trkpt>
<trkpt lat="31.784481049" lon="35.375747681">
  <ele>92.893188</ele>
  <time>2011-11-18T09:43:43Z</time>
  <speed>1.590000</speed>
</trkpt>
<trkpt lat="31.784492493" lon="35.375785828">
  <ele>92.854126</ele>
  <time>2011-11-18T09:43:45Z</time>
  <speed>1.620000</speed>
</trkpt>
<trkpt lat="31.784494400" lon="35.375831604">
  <ele>92.783813</ele>
  <time>2011-11-18T09:43:48Z</time>
  <speed>1.370000</speed>
</trkpt>
<trkpt lat="31.784484863" lon="35.375865936">
  <ele>92.750610</ele>
  <time>2011-11-18T09:43:50Z</time>
  <speed>1.350000</speed>
</trkpt>
<trkpt lat="31.784471512" lon="35.375911713">
  <ele>93.283813</ele>
  <time>2011-11-18T09:43:53Z</time>
  <speed>1.440000</speed>
</trkpt>
<trkpt lat="31.784477234" lon="35.375946045">
  <ele>93.262329</ele>
  <time>2011-11-18T09:43:55Z</time>
  <speed>1.430000</speed>
</trkpt>
<trkpt lat="31.784469604" lon="35.375980377">
  <ele>93.473267</ele>
  <time>2011-11-18T09:43:57Z</time>
  <speed>1.950000</speed>
</trkpt>
<trkpt lat="31.784469604" lon="35.376014709">
  <ele>93.977173</ele>
  <time>2011-11-18T09:43:59Z</time>
  <speed>1.480000</speed>
</trkpt>
<trkpt lat="31.784482956" lon="35.376052856">
  <ele>94.465454</ele>
  <time>2011-11-18T09:44:02Z</time>
  <speed>1.430000</speed>
</trkpt>
<trkpt lat="31.784500122" lon="35.376087189">
  <ele>95.192017</ele>
  <time>2011-11-18T09:44:05Z</time>
  <speed>0.610000</speed>
</trkpt>
<trkpt lat="31.784524918" lon="35.376098633">
  <ele>95.436157</ele>
  <time>2011-11-18T09:44:08Z</time>
  <speed>0.880000</speed>
</trkpt>
<trkpt lat="31.784543991" lon="35.376121521">
  <ele>95.467407</ele>
  <time>2011-11-18T09:44:10Z</time>
  <speed>0.920000</speed>
</trkpt>
<trkpt lat="31.784572601" lon="35.376125336">
  <ele>94.924438</ele>
  <time>2011-11-18T09:44:14Z</time>
  <speed>0.650000</speed>
</trkpt>
<trkpt lat="31.784599304" lon="35.376094818">
  <ele>96.299438</ele>
  <time>2011-11-18T09:44:18Z</time>
  <speed>0.930000</speed>
</trkpt>
<trkpt lat="31.784618378" lon="35.376064301">
  <ele>97.293579</ele>
  <time>2011-11-18T09:44:21Z</time>
  <speed>1.510000</speed>
</trkpt>
<trkpt lat="31.784646988" lon="35.376049042">
  <ele>97.348267</ele>
  <time>2011-11-18T09:44:24Z</time>
  <speed>1.420000</speed>
</trkpt>
<trkpt lat="31.784685135" lon="35.376049042">
  <ele>98.725220</ele>
  <time>2011-11-18T09:44:27Z</time>
  <speed>1.420000</speed>
</trkpt>
<trkpt lat="31.784711838" lon="35.376045227">
  <ele>99.733032</ele>
  <time>2011-11-18T09:44:30Z</time>
  <speed>1.110000</speed>
</trkpt>
<trkpt lat="31.784738541" lon="35.376029968">
  <ele>99.803345</ele>
  <time>2011-11-18T09:44:34Z</time>
  <speed>0.950000</speed>
</trkpt>
<trkpt lat="31.784765244" lon="35.376014709">
  <ele>99.875610</ele>
  <time>2011-11-18T09:44:37Z</time>
  <speed>0.650000</speed>
</trkpt>
<trkpt lat="31.784793854" lon="35.376007080">
  <ele>100.096313</ele>
  <time>2011-11-18T09:44:41Z</time>
  <speed>1.020000</speed>
</trkpt>
<trkpt lat="31.784816742" lon="35.375988007">
  <ele>101.207642</ele>
  <time>2011-11-18T09:44:44Z</time>
  <speed>0.880000</speed>
</trkpt>
<trkpt lat="31.784845352" lon="35.375995636">
  <ele>101.143188</ele>
  <time>2011-11-18T09:44:47Z</time>
  <speed>1.050000</speed>
</trkpt>
<trkpt lat="31.784868240" lon="35.376026154">
  <ele>100.500610</ele>
  <time>2011-11-18T09:44:51Z</time>
  <speed>1.640000</speed>
</trkpt>
<trkpt lat="31.784894943" lon="35.376045227">
  <ele>101.469360</ele>
  <time>2011-11-18T09:44:54Z</time>
  <speed>1.030000</speed>
</trkpt>
<trkpt lat="31.784925461" lon="35.376049042">
  <ele>102.207642</ele>
  <time>2011-11-18T09:44:58Z</time>
  <speed>0.960000</speed>
</trkpt>
<trkpt lat="31.784955978" lon="35.376064301">
  <ele>103.315063</ele>
  <time>2011-11-18T09:45:02Z</time>
  <speed>1.080000</speed>
</trkpt>
<trkpt lat="31.784976959" lon="35.376083374">
  <ele>104.604126</ele>
  <time>2011-11-18T09:45:06Z</time>
  <speed>0.770000</speed>
</trkpt>
<trkpt lat="31.785003662" lon="35.376110077">
  <ele>105.899048</ele>
  <time>2011-11-18T09:45:10Z</time>
  <speed>0.800000</speed>
</trkpt>
<trkpt lat="31.785032272" lon="35.376125336">
  <ele>106.371704</ele>
  <time>2011-11-18T09:45:13Z</time>
  <speed>0.830000</speed>
</trkpt>
<trkpt lat="31.785060883" lon="35.376121521">
  <ele>106.524048</ele>
  <time>2011-11-18T09:45:17Z</time>
  <speed>0.920000</speed>
</trkpt>
<trkpt lat="31.785097122" lon="35.376125336">
  <ele>106.084595</ele>
  <time>2011-11-18T09:45:32Z</time>
  <speed>1.450000</speed>
</trkpt>
<trkpt lat="31.785123825" lon="35.376117706">
  <ele>107.002563</ele>
  <time>2011-11-18T09:45:34Z</time>
  <speed>1.770000</speed>
</trkpt>
<trkpt lat="31.785161972" lon="35.376117706">
  <ele>107.256470</ele>
  <time>2011-11-18T09:45:36Z</time>
  <speed>2.250000</speed>
</trkpt>
<trkpt lat="31.785202026" lon="35.376117706">
  <ele>107.963501</ele>
  <time>2011-11-18T09:45:38Z</time>
  <speed>2.230000</speed>
</trkpt>
<trkpt lat="31.785245895" lon="35.376132965">
  <ele>108.246704</ele>
  <time>2011-11-18T09:45:40Z</time>
  <speed>2.440000</speed>
</trkpt>
<trkpt lat="31.785284042" lon="35.376136780">
  <ele>108.287720</ele>
  <time>2011-11-18T09:45:42Z</time>
  <speed>2.130000</speed>
</trkpt>
<trkpt lat="31.785318375" lon="35.376140594">
  <ele>109.182251</ele>
  <time>2011-11-18T09:45:44Z</time>
  <speed>2.000000</speed>
</trkpt>
<trkpt lat="31.785358429" lon="35.376144409">
  <ele>109.615845</ele>
  <time>2011-11-18T09:45:46Z</time>
  <speed>1.990000</speed>
</trkpt>
<trkpt lat="31.785388947" lon="35.376140594">
  <ele>109.322876</ele>
  <time>2011-11-18T09:45:48Z</time>
  <speed>1.800000</speed>
</trkpt>
<trkpt lat="31.785419464" lon="35.376144409">
  <ele>109.703735</ele>
  <time>2011-11-18T09:45:50Z</time>
  <speed>1.840000</speed>
</trkpt>
<trkpt lat="31.785449982" lon="35.376152039">
  <ele>109.826782</ele>
  <time>2011-11-18T09:45:52Z</time>
  <speed>2.050000</speed>
</trkpt>
<trkpt lat="31.785478592" lon="35.376155853">
  <ele>109.858032</ele>
  <time>2011-11-18T09:45:54Z</time>
  <speed>1.700000</speed>
</trkpt>
<trkpt lat="31.785509109" lon="35.376163483">
  <ele>110.453735</ele>
  <time>2011-11-18T09:45:56Z</time>
  <speed>1.440000</speed>
</trkpt>
<trkpt lat="31.785537720" lon="35.376174927">
  <ele>110.598267</ele>
  <time>2011-11-18T09:45:58Z</time>
  <speed>1.440000</speed>
</trkpt>
<trkpt lat="31.785577774" lon="35.376190186">
  <ele>111.067017</ele>
  <time>2011-11-18T09:46:01Z</time>
  <speed>1.610000</speed>
</trkpt>
<trkpt lat="31.785617828" lon="35.376194000">
  <ele>111.465454</ele>
  <time>2011-11-18T09:46:03Z</time>
  <speed>1.660000</speed>
</trkpt>
<trkpt lat="31.785648346" lon="35.376201630">
  <ele>111.699829</ele>
  <time>2011-11-18T09:46:05Z</time>
  <speed>1.640000</speed>
</trkpt>
<trkpt lat="31.785684586" lon="35.376216888">
  <ele>112.266235</ele>
  <time>2011-11-18T09:46:07Z</time>
  <speed>1.980000</speed>
</trkpt>
<trkpt lat="31.785717010" lon="35.376232147">
  <ele>112.660767</ele>
  <time>2011-11-18T09:46:09Z</time>
  <speed>1.800000</speed>
</trkpt>
<trkpt lat="31.785751343" lon="35.376243591">
  <ele>112.733032</ele>
  <time>2011-11-18T09:46:12Z</time>
  <speed>1.750000</speed>
</trkpt>
<trkpt lat="31.785781860" lon="35.376255035">
  <ele>112.272095</ele>
  <time>2011-11-18T09:46:14Z</time>
  <speed>1.660000</speed>
</trkpt>
<trkpt lat="31.785820007" lon="35.376270294">
  <ele>111.707642</ele>
  <time>2011-11-18T09:46:17Z</time>
  <speed>1.700000</speed>
</trkpt>
<trkpt lat="31.785848618" lon="35.376285553">
  <ele>111.287720</ele>
  <time>2011-11-18T09:46:19Z</time>
  <speed>1.740000</speed>
</trkpt>
<trkpt lat="31.785881042" lon="35.376293182">
  <ele>111.100220</ele>
  <time>2011-11-18T09:46:21Z</time>
  <speed>2.000000</speed>
</trkpt>
<trkpt lat="31.785915375" lon="35.376296997">
  <ele>110.971313</ele>
  <time>2011-11-18T09:46:23Z</time>
  <speed>1.780000</speed>
</trkpt>
<trkpt lat="31.785942078" lon="35.376289368">
  <ele>110.955688</ele>
  <time>2011-11-18T09:46:25Z</time>
  <speed>1.820000</speed>
</trkpt>
<trkpt lat="31.785989761" lon="35.376296997">
  <ele>110.748657</ele>
  <time>2011-11-18T09:46:27Z</time>
  <speed>2.610000</speed>
</trkpt>
<trkpt lat="31.786035538" lon="35.376312256">
  <ele>111.180298</ele>
  <time>2011-11-18T09:46:29Z</time>
  <speed>2.300000</speed>
</trkpt>
<trkpt lat="31.786075592" lon="35.376323700">
  <ele>111.350220</ele>
  <time>2011-11-18T09:46:31Z</time>
  <speed>2.290000</speed>
</trkpt>
<trkpt lat="31.786121368" lon="35.376335144">
  <ele>111.719360</ele>
  <time>2011-11-18T09:46:33Z</time>
  <speed>2.280000</speed>
</trkpt>
<trkpt lat="31.786157608" lon="35.376335144">
  <ele>112.174438</ele>
  <time>2011-11-18T09:46:35Z</time>
  <speed>2.240000</speed>
</trkpt>
<trkpt lat="31.786201477" lon="35.376342773">
  <ele>113.268188</ele>
  <time>2011-11-18T09:46:37Z</time>
  <speed>1.890000</speed>
</trkpt>
<trkpt lat="31.786245346" lon="35.376354218">
  <ele>113.731079</ele>
  <time>2011-11-18T09:46:39Z</time>
  <speed>2.300000</speed>
</trkpt>
<trkpt lat="31.786293030" lon="35.376365662">
  <ele>114.217407</ele>
  <time>2011-11-18T09:46:41Z</time>
  <speed>2.360000</speed>
</trkpt>
<trkpt lat="31.786331177" lon="35.376365662">
  <ele>115.582642</ele>
  <time>2011-11-18T09:46:43Z</time>
  <speed>2.210000</speed>
</trkpt>
<trkpt lat="31.786378860" lon="35.376373291">
  <ele>116.408813</ele>
  <time>2011-11-18T09:46:45Z</time>
  <speed>1.760000</speed>
</trkpt>
<trkpt lat="31.786417007" lon="35.376377106">
  <ele>116.768188</ele>
  <time>2011-11-18T09:46:47Z</time>
  <speed>1.940000</speed>
</trkpt>
<trkpt lat="31.786458969" lon="35.376384735">
  <ele>117.828735</ele>
  <time>2011-11-18T09:46:49Z</time>
  <speed>1.900000</speed>
</trkpt>
<trkpt lat="31.786485672" lon="35.376392365">
  <ele>118.020142</ele>
  <time>2011-11-18T09:46:51Z</time>
  <speed>1.820000</speed>
</trkpt>
<trkpt lat="31.786520004" lon="35.376403809">
  <ele>118.279907</ele>
  <time>2011-11-18T09:46:53Z</time>
  <speed>1.900000</speed>
</trkpt>
<trkpt lat="31.786550522" lon="35.376419067">
  <ele>118.401001</ele>
  <time>2011-11-18T09:46:55Z</time>
  <speed>2.030000</speed>
</trkpt>
<trkpt lat="31.786579132" lon="35.376445770">
  <ele>118.899048</ele>
  <time>2011-11-18T09:46:57Z</time>
  <speed>2.040000</speed>
</trkpt>
<trkpt lat="31.786600113" lon="35.376491547">
  <ele>118.717407</ele>
  <time>2011-11-18T09:47:00Z</time>
  <speed>1.880000</speed>
</trkpt>
<trkpt lat="31.786634445" lon="35.376522064">
  <ele>118.918579</ele>
  <time>2011-11-18T09:47:02Z</time>
  <speed>2.160000</speed>
</trkpt>
<trkpt lat="31.786661148" lon="35.376552582">
  <ele>119.434204</ele>
  <time>2011-11-18T09:47:04Z</time>
  <speed>2.240000</speed>
</trkpt>
<trkpt lat="31.786684036" lon="35.376586914">
  <ele>119.443970</ele>
  <time>2011-11-18T09:47:06Z</time>
  <speed>2.030000</speed>
</trkpt>
<trkpt lat="31.786703110" lon="35.376609802">
  <ele>120.414673</ele>
  <time>2011-11-18T09:47:08Z</time>
  <speed>2.210000</speed>
</trkpt>
<trkpt lat="31.786722183" lon="35.376644135">
  <ele>120.754517</ele>
  <time>2011-11-18T09:47:10Z</time>
  <speed>1.890000</speed>
</trkpt>
<trkpt lat="31.786731720" lon="35.376686096">
  <ele>121.498657</ele>
  <time>2011-11-18T09:47:13Z</time>
  <speed>1.690000</speed>
</trkpt>
<trkpt lat="31.786743164" lon="35.376731873">
  <ele>121.820923</ele>
  <time>2011-11-18T09:47:16Z</time>
  <speed>1.910000</speed>
</trkpt>
<trkpt lat="31.786748886" lon="35.376773834">
  <ele>122.461548</ele>
  <time>2011-11-18T09:47:18Z</time>
  <speed>2.090000</speed>
</trkpt>
<trkpt lat="31.786760330" lon="35.376815796">
  <ele>122.996704</ele>
  <time>2011-11-18T09:47:20Z</time>
  <speed>2.070000</speed>
</trkpt>
<trkpt lat="31.786777496" lon="35.376857758">
  <ele>123.438110</ele>
  <time>2011-11-18T09:47:22Z</time>
  <speed>2.220000</speed>
</trkpt>
<trkpt lat="31.786792755" lon="35.376903534">
  <ele>123.492798</ele>
  <time>2011-11-18T09:47:24Z</time>
  <speed>2.150000</speed>
</trkpt>
<trkpt lat="31.786792755" lon="35.376945496">
  <ele>123.723267</ele>
  <time>2011-11-18T09:47:26Z</time>
  <speed>2.200000</speed>
</trkpt>
<trkpt lat="31.786806107" lon="35.376995087">
  <ele>123.926392</ele>
  <time>2011-11-18T09:47:28Z</time>
  <speed>2.430000</speed>
</trkpt>
<trkpt lat="31.786817551" lon="35.377037048">
  <ele>123.908813</ele>
  <time>2011-11-18T09:47:30Z</time>
  <speed>2.230000</speed>
</trkpt>
<trkpt lat="31.786840439" lon="35.377071381">
  <ele>123.106079</ele>
  <time>2011-11-18T09:47:32Z</time>
  <speed>2.030000</speed>
</trkpt>
<trkpt lat="31.786853790" lon="35.377113342">
  <ele>123.213501</ele>
  <time>2011-11-18T09:47:34Z</time>
  <speed>2.130000</speed>
</trkpt>
<trkpt lat="31.786869049" lon="35.377147675">
  <ele>122.815063</ele>
  <time>2011-11-18T09:47:36Z</time>
  <speed>2.020000</speed>
</trkpt>
<trkpt lat="31.786886215" lon="35.377182007">
  <ele>123.045532</ele>
  <time>2011-11-18T09:47:38Z</time>
  <speed>1.950000</speed>
</trkpt>
<trkpt lat="31.786899567" lon="35.377216339">
  <ele>123.166626</ele>
  <time>2011-11-18T09:47:40Z</time>
  <speed>2.260000</speed>
</trkpt>
<trkpt lat="31.786922455" lon="35.377254486">
  <ele>123.707642</ele>
  <time>2011-11-18T09:47:42Z</time>
  <speed>1.850000</speed>
</trkpt>
<trkpt lat="31.786949158" lon="35.377288818">
  <ele>123.633423</ele>
  <time>2011-11-18T09:47:44Z</time>
  <speed>2.210000</speed>
</trkpt>
<trkpt lat="31.786981583" lon="35.377323151">
  <ele>123.557251</ele>
  <time>2011-11-18T09:47:46Z</time>
  <speed>2.100000</speed>
</trkpt>
<trkpt lat="31.787008286" lon="35.377349854">
  <ele>122.709595</ele>
  <time>2011-11-18T09:47:48Z</time>
  <speed>2.010000</speed>
</trkpt>
<trkpt lat="31.787044525" lon="35.377388000">
  <ele>122.725220</ele>
  <time>2011-11-18T09:47:50Z</time>
  <speed>2.320000</speed>
</trkpt>
<trkpt lat="31.787078857" lon="35.377410889">
  <ele>122.629517</ele>
  <time>2011-11-18T09:47:52Z</time>
  <speed>2.050000</speed>
</trkpt>
<trkpt lat="31.787109375" lon="35.377437592">
  <ele>122.158813</ele>
  <time>2011-11-18T09:47:54Z</time>
  <speed>1.950000</speed>
</trkpt>
<trkpt lat="31.787134171" lon="35.377464294">
  <ele>122.352173</ele>
  <time>2011-11-18T09:47:56Z</time>
  <speed>2.050000</speed>
</trkpt>
<trkpt lat="31.787166595" lon="35.377490997">
  <ele>122.410767</ele>
  <time>2011-11-18T09:47:58Z</time>
  <speed>2.230000</speed>
</trkpt>
<trkpt lat="31.787199020" lon="35.377525330">
  <ele>122.738892</ele>
  <time>2011-11-18T09:48:00Z</time>
  <speed>2.000000</speed>
</trkpt>
<trkpt lat="31.787218094" lon="35.377552032">
  <ele>122.654907</ele>
  <time>2011-11-18T09:48:02Z</time>
  <speed>2.140000</speed>
</trkpt>
<trkpt lat="31.787242889" lon="35.377586365">
  <ele>123.004517</ele>
  <time>2011-11-18T09:48:04Z</time>
  <speed>1.690000</speed>
</trkpt>
<trkpt lat="31.787254333" lon="35.377616882">
  <ele>122.854126</ele>
  <time>2011-11-18T09:48:06Z</time>
  <speed>2.250000</speed>
</trkpt>
<trkpt lat="31.787271500" lon="35.377655029">
  <ele>122.813110</ele>
  <time>2011-11-18T09:48:08Z</time>
  <speed>1.910000</speed>
</trkpt>
<trkpt lat="31.787277222" lon="35.377689362">
  <ele>123.543579</ele>
  <time>2011-11-18T09:48:10Z</time>
  <speed>1.730000</speed>
</trkpt>
<trkpt lat="31.787288666" lon="35.377723694">
  <ele>124.283813</ele>
  <time>2011-11-18T09:48:12Z</time>
  <speed>1.450000</speed>
</trkpt>
<trkpt lat="31.787302017" lon="35.377754211">
  <ele>124.955688</ele>
  <time>2011-11-18T09:48:14Z</time>
  <speed>1.810000</speed>
</trkpt>
<trkpt lat="31.787317276" lon="35.377792358">
  <ele>124.643188</ele>
  <time>2011-11-18T09:48:16Z</time>
  <speed>1.740000</speed>
</trkpt>
<trkpt lat="31.787334442" lon="35.377834320">
  <ele>124.631470</ele>
  <time>2011-11-18T09:48:18Z</time>
  <speed>1.910000</speed>
</trkpt>
<trkpt lat="31.787345886" lon="35.377872467">
  <ele>125.324829</ele>
  <time>2011-11-18T09:48:20Z</time>
  <speed>1.900000</speed>
</trkpt>
<trkpt lat="31.787361145" lon="35.377922058">
  <ele>126.152954</ele>
  <time>2011-11-18T09:48:22Z</time>
  <speed>1.830000</speed>
</trkpt>
<trkpt lat="31.787357330" lon="35.377971649">
  <ele>127.549438</ele>
  <time>2011-11-18T09:48:24Z</time>
  <speed>1.780000</speed>
</trkpt>
<trkpt lat="31.787357330" lon="35.378017426">
  <ele>128.489502</ele>
  <time>2011-11-18T09:48:26Z</time>
  <speed>1.780000</speed>
</trkpt>
<trkpt lat="31.787359238" lon="35.378051758">
  <ele>128.899658</ele>
  <time>2011-11-18T09:48:28Z</time>
  <speed>1.510000</speed>
</trkpt>
<trkpt lat="31.787363052" lon="35.378086090">
  <ele>129.677002</ele>
  <time>2011-11-18T09:48:31Z</time>
  <speed>1.160000</speed>
</trkpt>
<trkpt lat="31.787372589" lon="35.378116608">
  <ele>130.009033</ele>
  <time>2011-11-18T09:48:34Z</time>
  <speed>1.200000</speed>
</trkpt>
<trkpt lat="31.787393570" lon="35.378139496">
  <ele>130.040283</ele>
  <time>2011-11-18T09:48:37Z</time>
  <speed>1.290000</speed>
</trkpt>
<trkpt lat="31.787414551" lon="35.378170013">
  <ele>130.212158</ele>
  <time>2011-11-18T09:48:40Z</time>
  <speed>0.630000</speed>
</trkpt>
<trkpt lat="31.787427902" lon="35.378196716">
  <ele>130.126221</ele>
  <time>2011-11-18T09:52:37Z</time>
  <speed>0.310000</speed>
</trkpt>
<trkpt lat="31.787443161" lon="35.378231049">
  <ele>129.817627</ele>
  <time>2011-11-18T09:52:42Z</time>
  <speed>0.990000</speed>
</trkpt>
<trkpt lat="31.787456512" lon="35.378261566">
  <ele>130.286377</ele>
  <time>2011-11-18T09:52:44Z</time>
  <speed>1.520000</speed>
</trkpt>
<trkpt lat="31.787483215" lon="35.378299713">
  <ele>130.192627</ele>
  <time>2011-11-18T09:52:46Z</time>
  <speed>2.290000</speed>
</trkpt>
<trkpt lat="31.787504196" lon="35.378345490">
  <ele>130.501221</ele>
  <time>2011-11-18T09:52:48Z</time>
  <speed>2.170000</speed>
</trkpt>
<trkpt lat="31.787521362" lon="35.378395081">
  <ele>130.688721</ele>
  <time>2011-11-18T09:52:50Z</time>
  <speed>2.690000</speed>
</trkpt>
<trkpt lat="31.787540436" lon="35.378444672">
  <ele>130.766846</ele>
  <time>2011-11-18T09:52:52Z</time>
  <speed>2.380000</speed>
</trkpt>
<trkpt lat="31.787563324" lon="35.378494263">
  <ele>130.700439</ele>
  <time>2011-11-18T09:52:54Z</time>
  <speed>3.260000</speed>
</trkpt>
<trkpt lat="31.787576675" lon="35.378520966">
  <ele>130.876221</ele>
  <time>2011-11-18T09:52:55Z</time>
  <speed>3.030000</speed>
</trkpt>
<trkpt lat="31.787601471" lon="35.378574371">
  <ele>131.040283</ele>
  <time>2011-11-18T09:52:57Z</time>
  <speed>2.890000</speed>
</trkpt>
<trkpt lat="31.787614822" lon="35.378604889">
  <ele>130.903564</ele>
  <time>2011-11-18T09:52:58Z</time>
  <speed>3.080000</speed>
</trkpt>
<trkpt lat="31.787639618" lon="35.378631592">
  <ele>130.778564</ele>
  <time>2011-11-18T09:52:59Z</time>
  <speed>3.400000</speed>
</trkpt>
<trkpt lat="31.787668228" lon="35.378662109">
  <ele>130.716064</ele>
  <time>2011-11-18T09:53:00Z</time>
  <speed>3.610000</speed>
</trkpt>
<trkpt lat="31.787693024" lon="35.378688812">
  <ele>130.153564</ele>
  <time>2011-11-18T09:53:01Z</time>
  <speed>4.290000</speed>
</trkpt>
<trkpt lat="31.787719727" lon="35.378723145">
  <ele>129.106689</ele>
  <time>2011-11-18T09:53:02Z</time>
  <speed>4.720000</speed>
</trkpt>
<trkpt lat="31.787744522" lon="35.378768921">
  <ele>128.466064</ele>
  <time>2011-11-18T09:53:03Z</time>
  <speed>5.120000</speed>
</trkpt>
<trkpt lat="31.787765503" lon="35.378814697">
  <ele>128.356689</ele>
  <time>2011-11-18T09:53:04Z</time>
  <speed>5.410000</speed>
</trkpt>
<trkpt lat="31.787796021" lon="35.378864288">
  <ele>128.005127</ele>
  <time>2011-11-18T09:53:05Z</time>
  <speed>5.160000</speed>
</trkpt>
<trkpt lat="31.787820816" lon="35.378906250">
  <ele>127.850220</ele>
  <time>2011-11-18T09:53:06Z</time>
  <speed>4.850000</speed>
</trkpt>
<trkpt lat="31.787855148" lon="35.378940582">
  <ele>127.293579</ele>
  <time>2011-11-18T09:53:07Z</time>
  <speed>4.350000</speed>
</trkpt>
<trkpt lat="31.787879944" lon="35.378974915">
  <ele>127.242798</ele>
  <time>2011-11-18T09:53:08Z</time>
  <speed>3.890000</speed>
</trkpt>
<trkpt lat="31.787900925" lon="35.379001617">
  <ele>127.311157</ele>
  <time>2011-11-18T09:53:09Z</time>
  <speed>3.390000</speed>
</trkpt>
<trkpt lat="31.787919998" lon="35.379024506">
  <ele>126.951782</ele>
  <time>2011-11-18T09:53:10Z</time>
  <speed>3.010000</speed>
</trkpt>
<trkpt lat="31.787935257" lon="35.379051208">
  <ele>127.131470</ele>
  <time>2011-11-18T09:53:11Z</time>
  <speed>3.280000</speed>
</trkpt>
<trkpt lat="31.787960052" lon="35.379104614">
  <ele>127.984985</ele>
  <time>2011-11-18T09:53:13Z</time>
  <speed>2.750000</speed>
</trkpt>
<trkpt lat="31.787960052" lon="35.379158020">
  <ele>128.911377</ele>
  <time>2011-11-18T09:53:15Z</time>
  <speed>2.490000</speed>
</trkpt>
<trkpt lat="31.787942886" lon="35.379184723">
  <ele>129.794189</ele>
  <time>2011-11-18T09:53:16Z</time>
  <speed>2.600000</speed>
</trkpt>
<trkpt lat="31.787919998" lon="35.379207611">
  <ele>131.337158</ele>
  <time>2011-11-18T09:53:17Z</time>
  <speed>2.760000</speed>
</trkpt>
<trkpt lat="31.787895203" lon="35.379222870">
  <ele>132.567627</ele>
  <time>2011-11-18T09:53:18Z</time>
  <speed>2.790000</speed>
</trkpt>
<trkpt lat="31.787866592" lon="35.379230499">
  <ele>133.391846</ele>
  <time>2011-11-18T09:53:19Z</time>
  <speed>3.260000</speed>
</trkpt>
<trkpt lat="31.787837982" lon="35.379238129">
  <ele>134.665283</ele>
  <time>2011-11-18T09:53:20Z</time>
  <speed>2.550000</speed>
</trkpt>
<trkpt lat="31.787811279" lon="35.379241943">
  <ele>135.688721</ele>
  <time>2011-11-18T09:53:21Z</time>
  <speed>2.550000</speed>
</trkpt>
<trkpt lat="31.787784576" lon="35.379245758">
  <ele>136.536377</ele>
  <time>2011-11-18T09:53:22Z</time>
  <speed>2.160000</speed>
</trkpt>
<trkpt lat="31.787748337" lon="35.379257202">
  <ele>137.528564</ele>
  <time>2011-11-18T09:53:24Z</time>
  <speed>1.890000</speed>
</trkpt>
<trkpt lat="31.787723541" lon="35.379280090">
  <ele>137.817627</ele>
  <time>2011-11-18T09:53:26Z</time>
  <speed>1.830000</speed>
</trkpt>
<trkpt lat="31.787710190" lon="35.379314423">
  <ele>138.262939</ele>
  <time>2011-11-18T09:53:28Z</time>
  <speed>1.780000</speed>
</trkpt>
<trkpt lat="31.787712097" lon="35.379352570">
  <ele>138.751221</ele>
  <time>2011-11-18T09:53:30Z</time>
  <speed>1.760000</speed>
</trkpt>
<trkpt lat="31.787708282" lon="35.379394531">
  <ele>139.489502</ele>
  <time>2011-11-18T09:53:32Z</time>
  <speed>1.970000</speed>
</trkpt>
<trkpt lat="31.787717819" lon="35.379428864">
  <ele>139.489502</ele>
  <time>2011-11-18T09:53:34Z</time>
  <speed>1.610000</speed>
</trkpt>
<trkpt lat="31.787746429" lon="35.379455566">
  <ele>139.239502</ele>
  <time>2011-11-18T09:53:36Z</time>
  <speed>1.560000</speed>
</trkpt>
<trkpt lat="31.787778854" lon="35.379486084">
  <ele>139.423096</ele>
  <time>2011-11-18T09:53:38Z</time>
  <speed>1.960000</speed>
</trkpt>
<trkpt lat="31.787796021" lon="35.379516602">
  <ele>139.559814</ele>
  <time>2011-11-18T09:53:40Z</time>
  <speed>1.800000</speed>
</trkpt>
<trkpt lat="31.787813187" lon="35.379550934">
  <ele>139.251221</ele>
  <time>2011-11-18T09:53:42Z</time>
  <speed>1.850000</speed>
</trkpt>
<trkpt lat="31.787822723" lon="35.379592896">
  <ele>139.360596</ele>
  <time>2011-11-18T09:53:44Z</time>
  <speed>2.100000</speed>
</trkpt>
<trkpt lat="31.787836075" lon="35.379638672">
  <ele>138.485596</ele>
  <time>2011-11-18T09:53:46Z</time>
  <speed>1.880000</speed>
</trkpt>
<trkpt lat="31.787836075" lon="35.379692078">
  <ele>138.016846</ele>
  <time>2011-11-18T09:53:48Z</time>
  <speed>2.610000</speed>
</trkpt>
<trkpt lat="31.787847519" lon="35.379753113">
  <ele>136.954346</ele>
  <time>2011-11-18T09:53:50Z</time>
  <speed>3.400000</speed>
</trkpt>
<trkpt lat="31.787864685" lon="35.379787445">
  <ele>136.934814</ele>
  <time>2011-11-18T09:53:51Z</time>
  <speed>3.950000</speed>
</trkpt>
<trkpt lat="31.787897110" lon="35.379829407">
  <ele>136.262939</ele>
  <time>2011-11-18T09:53:52Z</time>
  <speed>4.930000</speed>
</trkpt>
<trkpt lat="31.787919998" lon="35.379875183">
  <ele>135.907471</ele>
  <time>2011-11-18T09:53:53Z</time>
  <speed>5.350000</speed>
</trkpt>
<trkpt lat="31.787939072" lon="35.379928589">
  <ele>135.852783</ele>
  <time>2011-11-18T09:53:54Z</time>
  <speed>5.500000</speed>
</trkpt>
<trkpt lat="31.787954330" lon="35.379989624">
  <ele>135.567627</ele>
  <time>2011-11-18T09:53:55Z</time>
  <speed>5.470000</speed>
</trkpt>
<trkpt lat="31.787961960" lon="35.380043030">
  <ele>135.634033</ele>
  <time>2011-11-18T09:53:56Z</time>
  <speed>4.900000</speed>
</trkpt>
<trkpt lat="31.787967682" lon="35.380092621">
  <ele>135.602783</ele>
  <time>2011-11-18T09:53:57Z</time>
  <speed>4.270000</speed>
</trkpt>
<trkpt lat="31.787977219" lon="35.380134583">
  <ele>135.516846</ele>
  <time>2011-11-18T09:53:58Z</time>
  <speed>3.780000</speed>
</trkpt>
<trkpt lat="31.787994385" lon="35.380168915">
  <ele>134.548096</ele>
  <time>2011-11-18T09:53:59Z</time>
  <speed>3.360000</speed>
</trkpt>
<trkpt lat="31.788021088" lon="35.380203247">
  <ele>133.208252</ele>
  <time>2011-11-18T09:54:00Z</time>
  <speed>3.310000</speed>
</trkpt>
<trkpt lat="31.788040161" lon="35.380226135">
  <ele>131.778564</ele>
  <time>2011-11-18T09:54:01Z</time>
  <speed>3.380000</speed>
</trkpt>
<trkpt lat="31.788057327" lon="35.380260468">
  <ele>131.098877</ele>
  <time>2011-11-18T09:54:02Z</time>
  <speed>3.500000</speed>
</trkpt>
<trkpt lat="31.788076401" lon="35.380302429">
  <ele>130.091064</ele>
  <time>2011-11-18T09:54:03Z</time>
  <speed>5.490000</speed>
</trkpt>
<trkpt lat="31.788087845" lon="35.380355835">
  <ele>129.649658</ele>
  <time>2011-11-18T09:54:04Z</time>
  <speed>5.930000</speed>
</trkpt>
<trkpt lat="31.788091660" lon="35.380420685">
  <ele>128.805908</ele>
  <time>2011-11-18T09:54:05Z</time>
  <speed>5.870000</speed>
</trkpt>
<trkpt lat="31.788080215" lon="35.380489349">
  <ele>128.942627</ele>
  <time>2011-11-18T09:54:06Z</time>
  <speed>6.640000</speed>
</trkpt>
<trkpt lat="31.788063049" lon="35.380565643">
  <ele>128.977783</ele>
  <time>2011-11-18T09:54:07Z</time>
  <speed>7.180000</speed>
</trkpt>
<trkpt lat="31.788047791" lon="35.380638123">
  <ele>128.481689</ele>
  <time>2011-11-18T09:54:08Z</time>
  <speed>7.520000</speed>
</trkpt>
<trkpt lat="31.788015366" lon="35.380710602">
  <ele>127.781860</ele>
  <time>2011-11-18T09:54:09Z</time>
  <speed>7.580000</speed>
</trkpt>
<trkpt lat="31.787967682" lon="35.380771637">
  <ele>126.617798</ele>
  <time>2011-11-18T09:54:10Z</time>
  <speed>7.610000</speed>
</trkpt>
<trkpt lat="31.787910461" lon="35.380813599">
  <ele>127.024048</ele>
  <time>2011-11-18T09:54:11Z</time>
  <speed>6.500000</speed>
</trkpt>
<trkpt lat="31.787855148" lon="35.380840302">
  <ele>127.123657</ele>
  <time>2011-11-18T09:54:12Z</time>
  <speed>5.910000</speed>
</trkpt>
<trkpt lat="31.787811279" lon="35.380863190">
  <ele>126.813110</ele>
  <time>2011-11-18T09:54:13Z</time>
  <speed>5.260000</speed>
</trkpt>
<trkpt lat="31.787771225" lon="35.380897522">
  <ele>127.248657</ele>
  <time>2011-11-18T09:54:14Z</time>
  <speed>4.430000</speed>
</trkpt>
<trkpt lat="31.787750244" lon="35.380935669">
  <ele>126.797485</ele>
  <time>2011-11-18T09:54:15Z</time>
  <speed>4.270000</speed>
</trkpt>
<trkpt lat="31.787736893" lon="35.380973816">
  <ele>127.303345</ele>
  <time>2011-11-18T09:54:16Z</time>
  <speed>4.020000</speed>
</trkpt>
<trkpt lat="31.787725449" lon="35.381015778">
  <ele>127.608032</ele>
  <time>2011-11-18T09:54:17Z</time>
  <speed>3.610000</speed>
</trkpt>
<trkpt lat="31.787712097" lon="35.381065369">
  <ele>128.411377</ele>
  <time>2011-11-18T09:54:19Z</time>
  <speed>1.510000</speed>
</trkpt>
<trkpt lat="31.787693024" lon="35.381088257">
  <ele>128.817627</ele>
  <time>2011-11-18T09:54:21Z</time>
  <speed>1.440000</speed>
</trkpt>
<trkpt lat="31.787677765" lon="35.381118774">
  <ele>128.727783</ele>
  <time>2011-11-18T09:54:33Z</time>
  <speed>1.400000</speed>
</trkpt>
<trkpt lat="31.787673950" lon="35.381160736">
  <ele>128.645752</ele>
  <time>2011-11-18T09:54:38Z</time>
  <speed>1.080000</speed>
</trkpt>
<trkpt lat="31.787673950" lon="35.381214142">
  <ele>127.807251</ele>
  <time>2011-11-18T09:54:41Z</time>
  <speed>2.360000</speed>
</trkpt>
<trkpt lat="31.787677765" lon="35.381259918">
  <ele>126.885376</ele>
  <time>2011-11-18T09:54:43Z</time>
  <speed>1.970000</speed>
</trkpt>
<trkpt lat="31.787681580" lon="35.381313324">
  <ele>126.008423</ele>
  <time>2011-11-18T09:54:45Z</time>
  <speed>2.690000</speed>
</trkpt>
<trkpt lat="31.787660599" lon="35.381355286">
  <ele>125.147095</ele>
  <time>2011-11-18T09:54:47Z</time>
  <speed>2.180000</speed>
</trkpt>
<trkpt lat="31.787645340" lon="35.381397247">
  <ele>124.590454</ele>
  <time>2011-11-18T09:54:49Z</time>
  <speed>2.420000</speed>
</trkpt>
<trkpt lat="31.787630081" lon="35.381443024">
  <ele>124.260376</ele>
  <time>2011-11-18T09:54:51Z</time>
  <speed>2.240000</speed>
</trkpt>
<trkpt lat="31.787612915" lon="35.381492615">
  <ele>124.053345</ele>
  <time>2011-11-18T09:54:53Z</time>
  <speed>2.740000</speed>
</trkpt>
<trkpt lat="31.787603378" lon="35.381526947">
  <ele>123.557251</ele>
  <time>2011-11-18T09:54:54Z</time>
  <speed>3.500000</speed>
</trkpt>
<trkpt lat="31.787599564" lon="35.381565094">
  <ele>122.645142</ele>
  <time>2011-11-18T09:54:55Z</time>
  <speed>3.760000</speed>
</trkpt>
<trkpt lat="31.787591934" lon="35.381607056">
  <ele>121.524048</ele>
  <time>2011-11-18T09:54:56Z</time>
  <speed>4.120000</speed>
</trkpt>
<trkpt lat="31.787590027" lon="35.381652832">
  <ele>120.268188</ele>
  <time>2011-11-18T09:54:57Z</time>
  <speed>4.410000</speed>
</trkpt>
<trkpt lat="31.787591934" lon="35.381706238">
  <ele>119.945923</ele>
  <time>2011-11-18T09:54:58Z</time>
  <speed>4.250000</speed>
</trkpt>
<trkpt lat="31.787605286" lon="35.381752014">
  <ele>119.279907</ele>
  <time>2011-11-18T09:54:59Z</time>
  <speed>4.320000</speed>
</trkpt>
<trkpt lat="31.787612915" lon="35.381790161">
  <ele>118.418579</ele>
  <time>2011-11-18T09:55:00Z</time>
  <speed>3.700000</speed>
</trkpt>
<trkpt lat="31.787622452" lon="35.381824493">
  <ele>116.940063</ele>
  <time>2011-11-18T09:55:01Z</time>
  <speed>3.700000</speed>
</trkpt>
<trkpt lat="31.787630081" lon="35.381866455">
  <ele>115.797485</ele>
  <time>2011-11-18T09:55:02Z</time>
  <speed>4.450000</speed>
</trkpt>
<trkpt lat="31.787641525" lon="35.381916046">
  <ele>114.856079</ele>
  <time>2011-11-18T09:55:03Z</time>
  <speed>5.170000</speed>
</trkpt>
<trkpt lat="31.787654877" lon="35.381969452">
  <ele>113.748657</ele>
  <time>2011-11-18T09:55:04Z</time>
  <speed>5.490000</speed>
</trkpt>
<trkpt lat="31.787664413" lon="35.382019043">
  <ele>112.496704</ele>
  <time>2011-11-18T09:55:05Z</time>
  <speed>4.830000</speed>
</trkpt>
<trkpt lat="31.787704468" lon="35.382080078">
  <ele>111.379517</ele>
  <time>2011-11-18T09:55:06Z</time>
  <speed>6.400000</speed>
</trkpt>
<trkpt lat="31.787748337" lon="35.382144928">
  <ele>109.684204</ele>
  <time>2011-11-18T09:55:07Z</time>
  <speed>6.730000</speed>
</trkpt>
<trkpt lat="31.787780762" lon="35.382202148">
  <ele>108.715454</ele>
  <time>2011-11-18T09:55:08Z</time>
  <speed>6.320000</speed>
</trkpt>
<trkpt lat="31.787811279" lon="35.382251740">
  <ele>107.705688</ele>
  <time>2011-11-18T09:55:09Z</time>
  <speed>5.260000</speed>
</trkpt>
<trkpt lat="31.787839890" lon="35.382305145">
  <ele>106.781860</ele>
  <time>2011-11-18T09:55:10Z</time>
  <speed>4.620000</speed>
</trkpt>
<trkpt lat="31.787851334" lon="35.382354736">
  <ele>105.567017</ele>
  <time>2011-11-18T09:55:11Z</time>
  <speed>4.860000</speed>
</trkpt>
<trkpt lat="31.787855148" lon="35.382404327">
  <ele>104.709595</ele>
  <time>2011-11-18T09:55:12Z</time>
  <speed>4.830000</speed>
</trkpt>
<trkpt lat="31.787864685" lon="35.382442474">
  <ele>105.875610</ele>
  <time>2011-11-18T09:55:13Z</time>
  <speed>2.500000</speed>
</trkpt>
<trkpt lat="31.787883759" lon="35.382465363">
  <ele>105.971313</ele>
  <time>2011-11-18T09:55:15Z</time>
  <speed>0.350000</speed>
</trkpt>
<trkpt lat="31.787876129" lon="35.382507324">
  <ele>106.828735</ele>
  <time>2011-11-18T09:56:27Z</time>
  <speed>1.660000</speed>
</trkpt>
<trkpt lat="31.787847519" lon="35.382537842">
  <ele>107.084595</ele>
  <time>2011-11-18T09:56:29Z</time>
  <speed>2.210000</speed>
</trkpt>
<trkpt lat="31.787813187" lon="35.382572174">
  <ele>107.356079</ele>
  <time>2011-11-18T09:56:31Z</time>
  <speed>2.620000</speed>
</trkpt>
<trkpt lat="31.787776947" lon="35.382606506">
  <ele>108.180298</ele>
  <time>2011-11-18T09:56:33Z</time>
  <speed>2.740000</speed>
</trkpt>
<trkpt lat="31.787755966" lon="35.382629395">
  <ele>108.557251</ele>
  <time>2011-11-18T09:56:34Z</time>
  <speed>2.570000</speed>
</trkpt>
<trkpt lat="31.787714005" lon="35.382667542">
  <ele>108.873657</ele>
  <time>2011-11-18T09:56:36Z</time>
  <speed>2.840000</speed>
</trkpt>
<trkpt lat="31.787689209" lon="35.382682800">
  <ele>109.346313</ele>
  <time>2011-11-18T09:56:37Z</time>
  <speed>3.020000</speed>
</trkpt>
<trkpt lat="31.787664413" lon="35.382694244">
  <ele>109.684204</ele>
  <time>2011-11-18T09:56:38Z</time>
  <speed>2.780000</speed>
</trkpt>
<trkpt lat="31.787635803" lon="35.382705688">
  <ele>109.912720</ele>
  <time>2011-11-18T09:56:39Z</time>
  <speed>2.770000</speed>
</trkpt>
<trkpt lat="31.787586212" lon="35.382713318">
  <ele>111.479126</ele>
  <time>2011-11-18T09:56:41Z</time>
  <speed>2.790000</speed>
</trkpt>
<trkpt lat="31.787553787" lon="35.382740021">
  <ele>111.984985</ele>
  <time>2011-11-18T09:56:43Z</time>
  <speed>0.260000</speed>
</trkpt>
<trkpt lat="31.787559509" lon="35.382766724">
  <ele>113.699829</ele>
  <time>2011-11-18T09:56:58Z</time>
  <speed>0.360000</speed>
</trkpt>
<trkpt lat="31.787559509" lon="35.382804871">
  <ele>113.311157</ele>
  <time>2011-11-18T09:57:05Z</time>
  <speed>0.380000</speed>
</trkpt>
<trkpt lat="31.787572861" lon="35.382831573">
  <ele>111.510376</ele>
  <time>2011-11-18T09:57:19Z</time>
  <speed>0.420000</speed>
</trkpt>
<trkpt lat="31.787599564" lon="35.382843018">
  <ele>111.311157</ele>
  <time>2011-11-18T09:57:25Z</time>
  <speed>0.030000</speed>
</trkpt>
<trkpt lat="31.787643433" lon="35.382858276">
  <ele>111.570923</ele>
  <time>2011-11-18T09:57:32Z</time>
  <speed>1.730000</speed>
</trkpt>
<trkpt lat="31.787679672" lon="35.382869720">
  <ele>110.609985</ele>
  <time>2011-11-18T09:57:34Z</time>
  <speed>2.080000</speed>
</trkpt>
<trkpt lat="31.787723541" lon="35.382884979">
  <ele>109.539673</ele>
  <time>2011-11-18T09:57:36Z</time>
  <speed>2.640000</speed>
</trkpt>
<trkpt lat="31.787750244" lon="35.382896423">
  <ele>108.885376</ele>
  <time>2011-11-18T09:57:37Z</time>
  <speed>2.360000</speed>
</trkpt>
<trkpt lat="31.787761688" lon="35.382938385">
  <ele>107.084595</ele>
  <time>2011-11-18T09:57:39Z</time>
  <speed>1.880000</speed>
</trkpt>
<trkpt lat="31.787744522" lon="35.382972717">
  <ele>106.824829</ele>
  <time>2011-11-18T09:57:41Z</time>
  <speed>2.150000</speed>
</trkpt>
<trkpt lat="31.787714005" lon="35.383003235">
  <ele>107.096313</ele>
  <time>2011-11-18T09:57:43Z</time>
  <speed>2.110000</speed>
</trkpt>
<trkpt lat="31.787662506" lon="35.383022308">
  <ele>107.818970</ele>
  <time>2011-11-18T09:57:45Z</time>
  <speed>2.540000</speed>
</trkpt>
<trkpt lat="31.787614822" lon="35.383022308">
  <ele>108.217407</ele>
  <time>2011-11-18T09:57:47Z</time>
  <speed>2.330000</speed>
</trkpt>
<trkpt lat="31.787574768" lon="35.383026123">
  <ele>109.092407</ele>
  <time>2011-11-18T09:57:49Z</time>
  <speed>2.470000</speed>
</trkpt>
<trkpt lat="31.787534714" lon="35.383037567">
  <ele>110.006470</ele>
  <time>2011-11-18T09:57:51Z</time>
  <speed>2.250000</speed>
</trkpt>
<trkpt lat="31.787496567" lon="35.383049011">
  <ele>110.473267</ele>
  <time>2011-11-18T09:57:53Z</time>
  <speed>2.120000</speed>
</trkpt>
<trkpt lat="31.787460327" lon="35.383060455">
  <ele>111.315063</ele>
  <time>2011-11-18T09:57:55Z</time>
  <speed>1.920000</speed>
</trkpt>
<trkpt lat="31.787427902" lon="35.383075714">
  <ele>111.951782</ele>
  <time>2011-11-18T09:57:57Z</time>
  <speed>1.930000</speed>
</trkpt>
<trkpt lat="31.787397385" lon="35.383083344">
  <ele>112.758423</ele>
  <time>2011-11-18T09:57:59Z</time>
  <speed>1.560000</speed>
</trkpt>
<trkpt lat="31.787368774" lon="35.383094788">
  <ele>113.891235</ele>
  <time>2011-11-18T09:58:01Z</time>
  <speed>2.100000</speed>
</trkpt>
<trkpt lat="31.787332535" lon="35.383098602">
  <ele>114.479126</ele>
  <time>2011-11-18T09:58:03Z</time>
  <speed>2.040000</speed>
</trkpt>
<trkpt lat="31.787298203" lon="35.383106232">
  <ele>115.192017</ele>
  <time>2011-11-18T09:58:05Z</time>
  <speed>1.520000</speed>
</trkpt>
<trkpt lat="31.787271500" lon="35.383110046">
  <ele>116.768188</ele>
  <time>2011-11-18T09:58:08Z</time>
  <speed>0.340000</speed>
</trkpt>
<trkpt lat="31.787244797" lon="35.383113861">
  <ele>117.754517</ele>
  <time>2011-11-18T09:58:16Z</time>
  <speed>0.860000</speed>
</trkpt>
<trkpt lat="31.787216187" lon="35.383121490">
  <ele>117.996704</ele>
  <time>2011-11-18T09:58:19Z</time>
  <speed>1.270000</speed>
</trkpt>
<trkpt lat="31.787189484" lon="35.383129120">
  <ele>119.164673</ele>
  <time>2011-11-18T09:58:21Z</time>
  <speed>1.070000</speed>
</trkpt>
<trkpt lat="31.787164688" lon="35.383144379">
  <ele>120.438110</ele>
  <time>2011-11-18T09:58:23Z</time>
  <speed>0.840000</speed>
</trkpt>
<trkpt lat="31.787143707" lon="35.383178711">
  <ele>121.309204</ele>
  <time>2011-11-18T09:58:27Z</time>
  <speed>0.950000</speed>
</trkpt>
<trkpt lat="31.787115097" lon="35.383193970">
  <ele>122.096313</ele>
  <time>2011-11-18T09:58:30Z</time>
  <speed>0.970000</speed>
</trkpt>
<trkpt lat="31.787088394" lon="35.383205414">
  <ele>121.959595</ele>
  <time>2011-11-18T09:58:33Z</time>
  <speed>0.950000</speed>
</trkpt>
<trkpt lat="31.787057877" lon="35.383224487">
  <ele>122.201782</ele>
  <time>2011-11-18T09:58:36Z</time>
  <speed>1.080000</speed>
</trkpt>
<trkpt lat="31.787038803" lon="35.383251190">
  <ele>122.783813</ele>
  <time>2011-11-18T09:58:39Z</time>
  <speed>0.950000</speed>
</trkpt>
<trkpt lat="31.787017822" lon="35.383281708">
  <ele>123.178345</ele>
  <time>2011-11-18T09:58:42Z</time>
  <speed>1.070000</speed>
</trkpt>
<trkpt lat="31.787006378" lon="35.383312225">
  <ele>124.375610</ele>
  <time>2011-11-18T09:58:50Z</time>
  <speed>0.440000</speed>
</trkpt>
<trkpt lat="31.786987305" lon="35.383338928">
  <ele>123.254517</ele>
  <time>2011-11-18T09:59:00Z</time>
  <speed>1.140000</speed>
</trkpt>
<trkpt lat="31.786973953" lon="35.383373260">
  <ele>124.219360</ele>
  <time>2011-11-18T09:59:04Z</time>
  <speed>1.020000</speed>
</trkpt>
<trkpt lat="31.786968231" lon="35.383415222">
  <ele>124.774048</ele>
  <time>2011-11-18T09:59:07Z</time>
  <speed>1.000000</speed>
</trkpt>
<trkpt lat="31.786951065" lon="35.383445740">
  <ele>124.465454</ele>
  <time>2011-11-18T09:59:11Z</time>
  <speed>0.930000</speed>
</trkpt>
<trkpt lat="31.786962509" lon="35.383480072">
  <ele>123.889282</ele>
  <time>2011-11-18T09:59:14Z</time>
  <speed>0.550000</speed>
</trkpt>
<trkpt lat="31.786993027" lon="35.383483887">
  <ele>122.863892</ele>
  <time>2011-11-18T09:59:17Z</time>
  <speed>0.800000</speed>
</trkpt>
<trkpt lat="31.787025452" lon="35.383487701">
  <ele>120.481079</ele>
  <time>2011-11-18T09:59:22Z</time>
  <speed>2.110000</speed>
</trkpt>
<trkpt lat="31.787071228" lon="35.383502960">
  <ele>120.020142</ele>
  <time>2011-11-18T09:59:24Z</time>
  <speed>2.780000</speed>
</trkpt>
<trkpt lat="31.787094116" lon="35.383518219">
  <ele>119.508423</ele>
  <time>2011-11-18T09:59:25Z</time>
  <speed>2.910000</speed>
</trkpt>
<trkpt lat="31.787124634" lon="35.383533478">
  <ele>119.010376</ele>
  <time>2011-11-18T09:59:26Z</time>
  <speed>3.890000</speed>
</trkpt>
<trkpt lat="31.787157059" lon="35.383552551">
  <ele>118.410767</ele>
  <time>2011-11-18T09:59:27Z</time>
  <speed>4.090000</speed>
</trkpt>
<trkpt lat="31.787187576" lon="35.383571625">
  <ele>117.633423</ele>
  <time>2011-11-18T09:59:28Z</time>
  <speed>4.140000</speed>
</trkpt>
<trkpt lat="31.787223816" lon="35.383594513">
  <ele>117.776001</ele>
  <time>2011-11-18T09:59:29Z</time>
  <speed>4.240000</speed>
</trkpt>
<trkpt lat="31.787261963" lon="35.383613586">
  <ele>118.035767</ele>
  <time>2011-11-18T09:59:30Z</time>
  <speed>4.170000</speed>
</trkpt>
<trkpt lat="31.787292480" lon="35.383632660">
  <ele>117.043579</ele>
  <time>2011-11-18T09:59:31Z</time>
  <speed>3.970000</speed>
</trkpt>
<trkpt lat="31.787322998" lon="35.383659363">
  <ele>117.440063</ele>
  <time>2011-11-18T09:59:32Z</time>
  <speed>3.770000</speed>
</trkpt>
<trkpt lat="31.787347794" lon="35.383686066">
  <ele>117.498657</ele>
  <time>2011-11-18T09:59:33Z</time>
  <speed>4.320000</speed>
</trkpt>
<trkpt lat="31.787374496" lon="35.383724213">
  <ele>117.371704</ele>
  <time>2011-11-18T09:59:34Z</time>
  <speed>4.130000</speed>
</trkpt>
<trkpt lat="31.787397385" lon="35.383754730">
  <ele>116.715454</ele>
  <time>2011-11-18T09:59:35Z</time>
  <speed>4.350000</speed>
</trkpt>
<trkpt lat="31.787412643" lon="35.383792877">
  <ele>116.799438</ele>
  <time>2011-11-18T09:59:36Z</time>
  <speed>3.870000</speed>
</trkpt>
<trkpt lat="31.787422180" lon="35.383823395">
  <ele>116.863892</ele>
  <time>2011-11-18T09:59:37Z</time>
  <speed>3.710000</speed>
</trkpt>
<trkpt lat="31.787435532" lon="35.383853912">
  <ele>117.361938</ele>
  <time>2011-11-18T09:59:38Z</time>
  <speed>3.260000</speed>
</trkpt>
<trkpt lat="31.787458420" lon="35.383880615">
  <ele>117.598267</ele>
  <time>2011-11-18T09:59:39Z</time>
  <speed>3.290000</speed>
</trkpt>
<trkpt lat="31.787479401" lon="35.383907318">
  <ele>117.904907</ele>
  <time>2011-11-18T09:59:40Z</time>
  <speed>3.130000</speed>
</trkpt>
<trkpt lat="31.787504196" lon="35.383922577">
  <ele>117.082642</ele>
  <time>2011-11-18T09:59:41Z</time>
  <speed>3.370000</speed>
</trkpt>
<trkpt lat="31.787527084" lon="35.383941650">
  <ele>116.664673</ele>
  <time>2011-11-18T09:59:42Z</time>
  <speed>3.190000</speed>
</trkpt>
<trkpt lat="31.787551880" lon="35.383964539">
  <ele>116.705688</ele>
  <time>2011-11-18T09:59:43Z</time>
  <speed>3.550000</speed>
</trkpt>
<trkpt lat="31.787576675" lon="35.383987427">
  <ele>117.123657</ele>
  <time>2011-11-18T09:59:44Z</time>
  <speed>3.550000</speed>
</trkpt>
<trkpt lat="31.787601471" lon="35.384010315">
  <ele>116.744751</ele>
  <time>2011-11-18T09:59:45Z</time>
  <speed>2.830000</speed>
</trkpt>
<trkpt lat="31.787630081" lon="35.384048462">
  <ele>116.238892</ele>
  <time>2011-11-18T09:59:47Z</time>
  <speed>2.580000</speed>
</trkpt>
<trkpt lat="31.787654877" lon="35.384105682">
  <ele>115.727173</ele>
  <time>2011-11-18T09:59:49Z</time>
  <speed>3.110000</speed>
</trkpt>
<trkpt lat="31.787672043" lon="35.384159088">
  <ele>117.377563</ele>
  <time>2011-11-18T09:59:51Z</time>
  <speed>2.940000</speed>
</trkpt>
<trkpt lat="31.787683487" lon="35.384212494">
  <ele>118.037720</ele>
  <time>2011-11-18T09:59:53Z</time>
  <speed>2.300000</speed>
</trkpt>
<trkpt lat="31.787693024" lon="35.384254456">
  <ele>118.557251</ele>
  <time>2011-11-18T09:59:55Z</time>
  <speed>1.970000</speed>
</trkpt>
<trkpt lat="31.787708282" lon="35.384292603">
  <ele>118.914673</ele>
  <time>2011-11-18T09:59:57Z</time>
  <speed>2.340000</speed>
</trkpt>
<trkpt lat="31.787742615" lon="35.384315491">
  <ele>119.813110</ele>
  <time>2011-11-18T09:59:59Z</time>
  <speed>2.100000</speed>
</trkpt>
<trkpt lat="31.787780762" lon="35.384315491">
  <ele>119.211548</ele>
  <time>2011-11-18T10:00:01Z</time>
  <speed>2.910000</speed>
</trkpt>
<trkpt lat="31.787807465" lon="35.384338379">
  <ele>118.754517</ele>
  <time>2011-11-18T10:00:02Z</time>
  <speed>3.610000</speed>
</trkpt>
<trkpt lat="31.787836075" lon="35.384365082">
  <ele>118.338501</ele>
  <time>2011-11-18T10:00:03Z</time>
  <speed>4.030000</speed>
</trkpt>
<trkpt lat="31.787862778" lon="35.384395599">
  <ele>117.631470</ele>
  <time>2011-11-18T10:00:04Z</time>
  <speed>3.870000</speed>
</trkpt>
<trkpt lat="31.787887573" lon="35.384429932">
  <ele>116.865845</ele>
  <time>2011-11-18T10:00:05Z</time>
  <speed>4.170000</speed>
</trkpt>
<trkpt lat="31.787899017" lon="35.384468079">
  <ele>117.440063</ele>
  <time>2011-11-18T10:00:06Z</time>
  <speed>3.420000</speed>
</trkpt>
<trkpt lat="31.787902832" lon="35.384502411">
  <ele>117.652954</ele>
  <time>2011-11-18T10:00:07Z</time>
  <speed>2.690000</speed>
</trkpt>
<trkpt lat="31.787891388" lon="35.384540558">
  <ele>119.402954</ele>
  <time>2011-11-18T10:00:09Z</time>
  <speed>1.800000</speed>
</trkpt>
<trkpt lat="31.787862778" lon="35.384567261">
  <ele>120.574829</ele>
  <time>2011-11-18T10:00:11Z</time>
  <speed>1.600000</speed>
</trkpt>
<trkpt lat="31.787834167" lon="35.384590149">
  <ele>121.133423</ele>
  <time>2011-11-18T10:00:13Z</time>
  <speed>1.800000</speed>
</trkpt>
<trkpt lat="31.787809372" lon="35.384609222">
  <ele>122.320923</ele>
  <time>2011-11-18T10:00:15Z</time>
  <speed>1.900000</speed>
</trkpt>
<trkpt lat="31.787782669" lon="35.384635925">
  <ele>123.041626</ele>
  <time>2011-11-18T10:00:17Z</time>
  <speed>2.000000</speed>
</trkpt>
<trkpt lat="31.787755966" lon="35.384666443">
  <ele>123.678345</ele>
  <time>2011-11-18T10:00:19Z</time>
  <speed>1.740000</speed>
</trkpt>
<trkpt lat="31.787736893" lon="35.384696960">
  <ele>124.756470</ele>
  <time>2011-11-18T10:00:21Z</time>
  <speed>1.920000</speed>
</trkpt>
<trkpt lat="31.787721634" lon="35.384735107">
  <ele>125.348267</ele>
  <time>2011-11-18T10:00:23Z</time>
  <speed>1.850000</speed>
</trkpt>
<trkpt lat="31.787712097" lon="35.384780884">
  <ele>126.902954</ele>
  <time>2011-11-18T10:00:25Z</time>
  <speed>1.640000</speed>
</trkpt>
<trkpt lat="31.787704468" lon="35.384819031">
  <ele>127.996704</ele>
  <time>2011-11-18T10:00:27Z</time>
  <speed>1.890000</speed>
</trkpt>
<trkpt lat="31.787696838" lon="35.384860992">
  <ele>128.130127</ele>
  <time>2011-11-18T10:00:29Z</time>
  <speed>2.020000</speed>
</trkpt>
<trkpt lat="31.787694931" lon="35.384902954">
  <ele>128.415283</ele>
  <time>2011-11-18T10:00:31Z</time>
  <speed>1.950000</speed>
</trkpt>
<trkpt lat="31.787691116" lon="35.384937286">
  <ele>128.454346</ele>
  <time>2011-11-18T10:00:33Z</time>
  <speed>1.610000</speed>
</trkpt>
<trkpt lat="31.787687302" lon="35.384975433">
  <ele>128.438721</ele>
  <time>2011-11-18T10:00:35Z</time>
  <speed>1.850000</speed>
</trkpt>
<trkpt lat="31.787681580" lon="35.385021210">
  <ele>128.966064</ele>
  <time>2011-11-18T10:00:37Z</time>
  <speed>1.950000</speed>
</trkpt>
<trkpt lat="31.787673950" lon="35.385051727">
  <ele>129.751221</ele>
  <time>2011-11-18T10:00:39Z</time>
  <speed>1.880000</speed>
</trkpt>
<trkpt lat="31.787666321" lon="35.385086060">
  <ele>130.052002</ele>
  <time>2011-11-18T10:00:41Z</time>
  <speed>1.490000</speed>
</trkpt>
<trkpt lat="31.787654877" lon="35.385120392">
  <ele>130.891846</ele>
  <time>2011-11-18T10:00:43Z</time>
  <speed>1.560000</speed>
</trkpt>
<trkpt lat="31.787656784" lon="35.385158539">
  <ele>131.196533</ele>
  <time>2011-11-18T10:00:45Z</time>
  <speed>1.850000</speed>
</trkpt>
<trkpt lat="31.787666321" lon="35.385200500">
  <ele>131.868408</ele>
  <time>2011-11-18T10:00:47Z</time>
  <speed>2.040000</speed>
</trkpt>
<trkpt lat="31.787673950" lon="35.385238647">
  <ele>132.126221</ele>
  <time>2011-11-18T10:00:49Z</time>
  <speed>2.160000</speed>
</trkpt>
<trkpt lat="31.787675858" lon="35.385284424">
  <ele>133.427002</ele>
  <time>2011-11-18T10:00:51Z</time>
  <speed>1.980000</speed>
</trkpt>
<trkpt lat="31.787675858" lon="35.385322571">
  <ele>134.286377</ele>
  <time>2011-11-18T10:00:53Z</time>
  <speed>1.960000</speed>
</trkpt>
<trkpt lat="31.787689209" lon="35.385364532">
  <ele>134.895752</ele>
  <time>2011-11-18T10:00:55Z</time>
  <speed>1.980000</speed>
</trkpt>
<trkpt lat="31.787706375" lon="35.385410309">
  <ele>134.630127</ele>
  <time>2011-11-18T10:00:57Z</time>
  <speed>2.190000</speed>
</trkpt>
<trkpt lat="31.787723541" lon="35.385456085">
  <ele>134.192627</ele>
  <time>2011-11-18T10:00:59Z</time>
  <speed>1.910000</speed>
</trkpt>
<trkpt lat="31.787731171" lon="35.385498047">
  <ele>133.837158</ele>
  <time>2011-11-18T10:01:01Z</time>
  <speed>1.890000</speed>
</trkpt>
<trkpt lat="31.787734985" lon="35.385540009">
  <ele>133.864502</ele>
  <time>2011-11-18T10:01:03Z</time>
  <speed>2.080000</speed>
</trkpt>
<trkpt lat="31.787738800" lon="35.385585785">
  <ele>133.805908</ele>
  <time>2011-11-18T10:01:05Z</time>
  <speed>2.260000</speed>
</trkpt>
<trkpt lat="31.787750244" lon="35.385639191">
  <ele>133.567627</ele>
  <time>2011-11-18T10:01:07Z</time>
  <speed>2.720000</speed>
</trkpt>
<trkpt lat="31.787773132" lon="35.385704041">
  <ele>133.399658</ele>
  <time>2011-11-18T10:01:09Z</time>
  <speed>2.990000</speed>
</trkpt>
<trkpt lat="31.787786484" lon="35.385738373">
  <ele>133.348877</ele>
  <time>2011-11-18T10:01:10Z</time>
  <speed>3.560000</speed>
</trkpt>
<trkpt lat="31.787794113" lon="35.385768890">
  <ele>132.997314</ele>
  <time>2011-11-18T10:01:11Z</time>
  <speed>3.330000</speed>
</trkpt>
<trkpt lat="31.787803650" lon="35.385807037">
  <ele>132.540283</ele>
  <time>2011-11-18T10:01:12Z</time>
  <speed>3.660000</speed>
</trkpt>
<trkpt lat="31.787811279" lon="35.385845184">
  <ele>132.454346</ele>
  <time>2011-11-18T10:01:13Z</time>
  <speed>3.640000</speed>
</trkpt>
<trkpt lat="31.787822723" lon="35.385883331">
  <ele>132.516846</ele>
  <time>2011-11-18T10:01:14Z</time>
  <speed>3.700000</speed>
</trkpt>
<trkpt lat="31.787834167" lon="35.385917664">
  <ele>132.231689</ele>
  <time>2011-11-18T10:01:15Z</time>
  <speed>3.770000</speed>
</trkpt>
<trkpt lat="31.787845612" lon="35.385959625">
  <ele>131.391846</ele>
  <time>2011-11-18T10:01:16Z</time>
  <speed>3.860000</speed>
</trkpt>
<trkpt lat="31.787860870" lon="35.385997772">
  <ele>130.614502</ele>
  <time>2011-11-18T10:01:17Z</time>
  <speed>3.980000</speed>
</trkpt>
<trkpt lat="31.787868500" lon="35.386039734">
  <ele>130.567627</ele>
  <time>2011-11-18T10:01:18Z</time>
  <speed>4.010000</speed>
</trkpt>
<trkpt lat="31.787878036" lon="35.386077881">
  <ele>130.094971</ele>
  <time>2011-11-18T10:01:19Z</time>
  <speed>3.400000</speed>
</trkpt>
<trkpt lat="31.787885666" lon="35.386112213">
  <ele>129.766846</ele>
  <time>2011-11-18T10:01:20Z</time>
  <speed>3.020000</speed>
</trkpt>
<trkpt lat="31.787887573" lon="35.386142731">
  <ele>130.259033</ele>
  <time>2011-11-18T10:01:21Z</time>
  <speed>2.730000</speed>
</trkpt>
<trkpt lat="31.787887573" lon="35.386196136">
  <ele>130.134033</ele>
  <time>2011-11-18T10:01:23Z</time>
  <speed>2.680000</speed>
</trkpt>
<trkpt lat="31.787879944" lon="35.386253357">
  <ele>131.391846</ele>
  <time>2011-11-18T10:01:25Z</time>
  <speed>2.630000</speed>
</trkpt>
<trkpt lat="31.787879944" lon="35.386306763">
  <ele>131.997314</ele>
  <time>2011-11-18T10:01:27Z</time>
  <speed>2.470000</speed>
</trkpt>
<trkpt lat="31.787878036" lon="35.386363983">
  <ele>132.387939</ele>
  <time>2011-11-18T10:01:29Z</time>
  <speed>2.640000</speed>
</trkpt>
<trkpt lat="31.787878036" lon="35.386413574">
  <ele>132.469971</ele>
  <time>2011-11-18T10:01:31Z</time>
  <speed>2.600000</speed>
</trkpt>
<trkpt lat="31.787881851" lon="35.386463165">
  <ele>132.653564</ele>
  <time>2011-11-18T10:01:33Z</time>
  <speed>2.790000</speed>
</trkpt>
<trkpt lat="31.787891388" lon="35.386524200">
  <ele>132.630127</ele>
  <time>2011-11-18T10:01:35Z</time>
  <speed>2.970000</speed>
</trkpt>
<trkpt lat="31.787904739" lon="35.386589050">
  <ele>132.887939</ele>
  <time>2011-11-18T10:01:37Z</time>
  <speed>3.130000</speed>
</trkpt>
<trkpt lat="31.787912369" lon="35.386619568">
  <ele>132.876221</ele>
  <time>2011-11-18T10:01:38Z</time>
  <speed>3.270000</speed>
</trkpt>
<trkpt lat="31.787923813" lon="35.386650085">
  <ele>133.157471</ele>
  <time>2011-11-18T10:01:39Z</time>
  <speed>3.370000</speed>
</trkpt>
<trkpt lat="31.787939072" lon="35.386684418">
  <ele>132.946533</ele>
  <time>2011-11-18T10:01:40Z</time>
  <speed>3.290000</speed>
</trkpt>
<trkpt lat="31.787944794" lon="35.386714935">
  <ele>132.630127</ele>
  <time>2011-11-18T10:01:41Z</time>
  <speed>3.270000</speed>
</trkpt>
<trkpt lat="31.787954330" lon="35.386749268">
  <ele>132.622314</ele>
  <time>2011-11-18T10:01:42Z</time>
  <speed>3.250000</speed>
</trkpt>
<trkpt lat="31.787956238" lon="35.386779785">
  <ele>132.552002</ele>
  <time>2011-11-18T10:01:43Z</time>
  <speed>3.090000</speed>
</trkpt>
<trkpt lat="31.787960052" lon="35.386810303">
  <ele>132.829346</ele>
  <time>2011-11-18T10:01:44Z</time>
  <speed>3.300000</speed>
</trkpt>
<trkpt lat="31.787961960" lon="35.386844635">
  <ele>133.286377</ele>
  <time>2011-11-18T10:01:45Z</time>
  <speed>3.200000</speed>
</trkpt>
<trkpt lat="31.787963867" lon="35.386878967">
  <ele>133.333252</ele>
  <time>2011-11-18T10:01:46Z</time>
  <speed>2.940000</speed>
</trkpt>
<trkpt lat="31.787965775" lon="35.386909485">
  <ele>133.469971</ele>
  <time>2011-11-18T10:01:47Z</time>
  <speed>3.120000</speed>
</trkpt>
<trkpt lat="31.787969589" lon="35.386970520">
  <ele>133.126221</ele>
  <time>2011-11-18T10:01:49Z</time>
  <speed>2.970000</speed>
</trkpt>
<trkpt lat="31.787969589" lon="35.387001038">
  <ele>132.966064</ele>
  <time>2011-11-18T10:01:50Z</time>
  <speed>3.040000</speed>
</trkpt>
<trkpt lat="31.787975311" lon="35.387035370">
  <ele>133.204346</ele>
  <time>2011-11-18T10:01:51Z</time>
  <speed>2.950000</speed>
</trkpt>
<trkpt lat="31.787977219" lon="35.387069702">
  <ele>133.567627</ele>
  <time>2011-11-18T10:01:52Z</time>
  <speed>3.150000</speed>
</trkpt>
<trkpt lat="31.787988663" lon="35.387130737">
  <ele>134.489502</ele>
  <time>2011-11-18T10:01:54Z</time>
  <speed>3.160000</speed>
</trkpt>
<trkpt lat="31.787994385" lon="35.387165070">
  <ele>134.423096</ele>
  <time>2011-11-18T10:01:55Z</time>
  <speed>2.980000</speed>
</trkpt>
<trkpt lat="31.788003922" lon="35.387195587">
  <ele>134.516846</ele>
  <time>2011-11-18T10:01:56Z</time>
  <speed>3.090000</speed>
</trkpt>
<trkpt lat="31.788017273" lon="35.387222290">
  <ele>134.313721</ele>
  <time>2011-11-18T10:01:57Z</time>
  <speed>3.310000</speed>
</trkpt>
<trkpt lat="31.788034439" lon="35.387252808">
  <ele>134.173096</ele>
  <time>2011-11-18T10:01:58Z</time>
  <speed>3.690000</speed>
</trkpt>
<trkpt lat="31.788055420" lon="35.387279510">
  <ele>133.989502</ele>
  <time>2011-11-18T10:01:59Z</time>
  <speed>3.730000</speed>
</trkpt>
<trkpt lat="31.788074493" lon="35.387310028">
  <ele>133.661377</ele>
  <time>2011-11-18T10:02:00Z</time>
  <speed>3.650000</speed>
</trkpt>
<trkpt lat="31.788089752" lon="35.387344360">
  <ele>132.852783</ele>
  <time>2011-11-18T10:02:01Z</time>
  <speed>3.970000</speed>
</trkpt>
<trkpt lat="31.788093567" lon="35.387386322">
  <ele>133.372314</ele>
  <time>2011-11-18T10:02:02Z</time>
  <speed>4.300000</speed>
</trkpt>
<trkpt lat="31.788091660" lon="35.387428284">
  <ele>133.981689</ele>
  <time>2011-11-18T10:02:03Z</time>
  <speed>3.860000</speed>
</trkpt>
<trkpt lat="31.788084030" lon="35.387470245">
  <ele>134.544189</ele>
  <time>2011-11-18T10:02:04Z</time>
  <speed>3.550000</speed>
</trkpt>
<trkpt lat="31.788087845" lon="35.387504578">
  <ele>134.626221</ele>
  <time>2011-11-18T10:02:05Z</time>
  <speed>3.270000</speed>
</trkpt>
<trkpt lat="31.788097382" lon="35.387538910">
  <ele>134.196533</ele>
  <time>2011-11-18T10:02:06Z</time>
  <speed>3.160000</speed>
</trkpt>
<trkpt lat="31.788093567" lon="35.387573242">
  <ele>134.227783</ele>
  <time>2011-11-18T10:02:07Z</time>
  <speed>3.300000</speed>
</trkpt>
<trkpt lat="31.788089752" lon="35.387607574">
  <ele>134.469971</ele>
  <time>2011-11-18T10:02:08Z</time>
  <speed>3.190000</speed>
</trkpt>
<trkpt lat="31.788087845" lon="35.387641907">
  <ele>134.895752</ele>
  <time>2011-11-18T10:02:09Z</time>
  <speed>3.310000</speed>
</trkpt>
<trkpt lat="31.788089752" lon="35.387680054">
  <ele>135.282471</ele>
  <time>2011-11-18T10:02:10Z</time>
  <speed>3.030000</speed>
</trkpt>
<trkpt lat="31.788091660" lon="35.387714386">
  <ele>135.723877</ele>
  <time>2011-11-18T10:02:11Z</time>
  <speed>3.010000</speed>
</trkpt>
<trkpt lat="31.788097382" lon="35.387744904">
  <ele>136.052002</ele>
  <time>2011-11-18T10:02:12Z</time>
  <speed>3.000000</speed>
</trkpt>
<trkpt lat="31.788112640" lon="35.387798309">
  <ele>136.688721</ele>
  <time>2011-11-18T10:02:14Z</time>
  <speed>2.950000</speed>
</trkpt>
<trkpt lat="31.788120270" lon="35.387832642">
  <ele>136.934814</ele>
  <time>2011-11-18T10:02:15Z</time>
  <speed>2.840000</speed>
</trkpt>
<trkpt lat="31.788133621" lon="35.387889862">
  <ele>137.184814</ele>
  <time>2011-11-18T10:02:17Z</time>
  <speed>2.870000</speed>
</trkpt>
<trkpt lat="31.788139343" lon="35.387920380">
  <ele>138.055908</ele>
  <time>2011-11-18T10:02:18Z</time>
  <speed>2.880000</speed>
</trkpt>
<trkpt lat="31.788146973" lon="35.387950897">
  <ele>138.333252</ele>
  <time>2011-11-18T10:02:19Z</time>
  <speed>3.070000</speed>
</trkpt>
<trkpt lat="31.788164139" lon="35.388011932">
  <ele>139.208252</ele>
  <time>2011-11-18T10:02:21Z</time>
  <speed>3.100000</speed>
</trkpt>
<trkpt lat="31.788167953" lon="35.388042450">
  <ele>139.598877</ele>
  <time>2011-11-18T10:02:22Z</time>
  <speed>2.960000</speed>
</trkpt>
<trkpt lat="31.788188934" lon="35.388103485">
  <ele>139.048096</ele>
  <time>2011-11-18T10:02:24Z</time>
  <speed>2.810000</speed>
</trkpt>
<trkpt lat="31.788208008" lon="35.388156891">
  <ele>138.860596</ele>
  <time>2011-11-18T10:02:26Z</time>
  <speed>2.520000</speed>
</trkpt>
<trkpt lat="31.788221359" lon="35.388187408">
  <ele>138.927002</ele>
  <time>2011-11-18T10:02:27Z</time>
  <speed>2.690000</speed>
</trkpt>
<trkpt lat="31.788227081" lon="35.388221741">
  <ele>138.520752</ele>
  <time>2011-11-18T10:02:28Z</time>
  <speed>3.180000</speed>
</trkpt>
<trkpt lat="31.788234711" lon="35.388282776">
  <ele>137.966064</ele>
  <time>2011-11-18T10:02:30Z</time>
  <speed>2.740000</speed>
</trkpt>
<trkpt lat="31.788236618" lon="35.388336182">
  <ele>139.227783</ele>
  <time>2011-11-18T10:02:32Z</time>
  <speed>2.370000</speed>
</trkpt>
<trkpt lat="31.788240433" lon="35.388389587">
  <ele>139.005127</ele>
  <time>2011-11-18T10:02:34Z</time>
  <speed>2.640000</speed>
</trkpt>
<trkpt lat="31.788240433" lon="35.388439178">
  <ele>139.204346</ele>
  <time>2011-11-18T10:02:36Z</time>
  <speed>2.490000</speed>
</trkpt>
<trkpt lat="31.788238525" lon="35.388488770">
  <ele>140.169189</ele>
  <time>2011-11-18T10:02:38Z</time>
  <speed>2.360000</speed>
</trkpt>
<trkpt lat="31.788246155" lon="35.388538361">
  <ele>140.059814</ele>
  <time>2011-11-18T10:02:40Z</time>
  <speed>2.550000</speed>
</trkpt>
<trkpt lat="31.788242340" lon="35.388595581">
  <ele>140.048096</ele>
  <time>2011-11-18T10:02:42Z</time>
  <speed>2.970000</speed>
</trkpt>
<trkpt lat="31.788238525" lon="35.388626099">
  <ele>140.235596</ele>
  <time>2011-11-18T10:02:43Z</time>
  <speed>2.880000</speed>
</trkpt>
<trkpt lat="31.788232803" lon="35.388675690">
  <ele>141.594971</ele>
  <time>2011-11-18T10:02:45Z</time>
  <speed>2.030000</speed>
</trkpt>
<trkpt lat="31.788225174" lon="35.388725281">
  <ele>142.364502</ele>
  <time>2011-11-18T10:02:47Z</time>
  <speed>2.640000</speed>
</trkpt>
<trkpt lat="31.788219452" lon="35.388755798">
  <ele>142.302002</ele>
  <time>2011-11-18T10:02:48Z</time>
  <speed>2.510000</speed>
</trkpt>
<trkpt lat="31.788219452" lon="35.388786316">
  <ele>141.196533</ele>
  <time>2011-11-18T10:02:49Z</time>
  <speed>3.320000</speed>
</trkpt>
<trkpt lat="31.788213730" lon="35.388828278">
  <ele>140.884033</ele>
  <time>2011-11-18T10:02:50Z</time>
  <speed>3.820000</speed>
</trkpt>
<trkpt lat="31.788209915" lon="35.388870239">
  <ele>140.227783</ele>
  <time>2011-11-18T10:02:51Z</time>
  <speed>4.270000</speed>
</trkpt>
<trkpt lat="31.788208008" lon="35.388916016">
  <ele>139.563721</ele>
  <time>2011-11-18T10:02:52Z</time>
  <speed>4.610000</speed>
</trkpt>
<trkpt lat="31.788206100" lon="35.388961792">
  <ele>139.516846</ele>
  <time>2011-11-18T10:02:53Z</time>
  <speed>4.530000</speed>
</trkpt>
<trkpt lat="31.788204193" lon="35.389011383">
  <ele>139.516846</ele>
  <time>2011-11-18T10:02:54Z</time>
  <speed>4.890000</speed>
</trkpt>
<trkpt lat="31.788202286" lon="35.389060974">
  <ele>139.177002</ele>
  <time>2011-11-18T10:02:55Z</time>
  <speed>4.740000</speed>
</trkpt>
<trkpt lat="31.788204193" lon="35.389110565">
  <ele>139.204346</ele>
  <time>2011-11-18T10:02:56Z</time>
  <speed>4.620000</speed>
</trkpt>
<trkpt lat="31.788211823" lon="35.389156342">
  <ele>138.848877</ele>
  <time>2011-11-18T10:02:57Z</time>
  <speed>4.490000</speed>
</trkpt>
<trkpt lat="31.788217545" lon="35.389202118">
  <ele>138.106689</ele>
  <time>2011-11-18T10:02:58Z</time>
  <speed>4.670000</speed>
</trkpt>
<trkpt lat="31.788228989" lon="35.389251709">
  <ele>138.270752</ele>
  <time>2011-11-18T10:02:59Z</time>
  <speed>4.560000</speed>
</trkpt>
<trkpt lat="31.788230896" lon="35.389305115">
  <ele>137.942627</ele>
  <time>2011-11-18T10:03:00Z</time>
  <speed>4.450000</speed>
</trkpt>
<trkpt lat="31.788236618" lon="35.389354706">
  <ele>137.341064</ele>
  <time>2011-11-18T10:03:01Z</time>
  <speed>4.620000</speed>
</trkpt>
<trkpt lat="31.788242340" lon="35.389404297">
  <ele>137.583252</ele>
  <time>2011-11-18T10:03:02Z</time>
  <speed>4.690000</speed>
</trkpt>
<trkpt lat="31.788249969" lon="35.389457703">
  <ele>137.473877</ele>
  <time>2011-11-18T10:03:03Z</time>
  <speed>5.090000</speed>
</trkpt>
<trkpt lat="31.788253784" lon="35.389511108">
  <ele>137.614502</ele>
  <time>2011-11-18T10:03:04Z</time>
  <speed>5.220000</speed>
</trkpt>
<trkpt lat="31.788267136" lon="35.389560699">
  <ele>137.239502</ele>
  <time>2011-11-18T10:03:05Z</time>
  <speed>4.930000</speed>
</trkpt>
<trkpt lat="31.788280487" lon="35.389625549">
  <ele>137.098877</ele>
  <time>2011-11-18T10:03:06Z</time>
  <speed>5.110000</speed>
</trkpt>
<trkpt lat="31.788293839" lon="35.389678955">
  <ele>136.942627</ele>
  <time>2011-11-18T10:03:07Z</time>
  <speed>5.190000</speed>
</trkpt>
<trkpt lat="31.788312912" lon="35.389728546">
  <ele>136.630127</ele>
  <time>2011-11-18T10:03:08Z</time>
  <speed>5.060000</speed>
</trkpt>
<trkpt lat="31.788328171" lon="35.389778137">
  <ele>136.552002</ele>
  <time>2011-11-18T10:03:09Z</time>
  <speed>4.870000</speed>
</trkpt>
<trkpt lat="31.788345337" lon="35.389827728">
  <ele>136.626221</ele>
  <time>2011-11-18T10:03:10Z</time>
  <speed>4.620000</speed>
</trkpt>
<trkpt lat="31.788358688" lon="35.389869690">
  <ele>136.555908</ele>
  <time>2011-11-18T10:03:11Z</time>
  <speed>4.320000</speed>
</trkpt>
<trkpt lat="31.788373947" lon="35.389911652">
  <ele>136.145752</ele>
  <time>2011-11-18T10:03:12Z</time>
  <speed>4.110000</speed>
</trkpt>
<trkpt lat="31.788387299" lon="35.389957428">
  <ele>136.544189</ele>
  <time>2011-11-18T10:03:13Z</time>
  <speed>3.920000</speed>
</trkpt>
<trkpt lat="31.788391113" lon="35.389991760">
  <ele>136.716064</ele>
  <time>2011-11-18T10:03:14Z</time>
  <speed>3.830000</speed>
</trkpt>
<trkpt lat="31.788398743" lon="35.390033722">
  <ele>136.962158</ele>
  <time>2011-11-18T10:03:15Z</time>
  <speed>3.990000</speed>
</trkpt>
<trkpt lat="31.788398743" lon="35.390071869">
  <ele>137.989502</ele>
  <time>2011-11-18T10:03:16Z</time>
  <speed>3.780000</speed>
</trkpt>
<trkpt lat="31.788396835" lon="35.390110016">
  <ele>138.180908</ele>
  <time>2011-11-18T10:03:17Z</time>
  <speed>3.530000</speed>
</trkpt>
<trkpt lat="31.788396835" lon="35.390151978">
  <ele>138.802002</ele>
  <time>2011-11-18T10:03:18Z</time>
  <speed>3.610000</speed>
</trkpt>
<trkpt lat="31.788396835" lon="35.390186310">
  <ele>139.665283</ele>
  <time>2011-11-18T10:03:19Z</time>
  <speed>3.320000</speed>
</trkpt>
<trkpt lat="31.788396835" lon="35.390220642">
  <ele>140.298096</ele>
  <time>2011-11-18T10:03:20Z</time>
  <speed>3.330000</speed>
</trkpt>
<trkpt lat="31.788400650" lon="35.390258789">
  <ele>140.923096</ele>
  <time>2011-11-18T10:03:21Z</time>
  <speed>3.440000</speed>
</trkpt>
<trkpt lat="31.788400650" lon="35.390293121">
  <ele>141.079346</ele>
  <time>2011-11-18T10:03:22Z</time>
  <speed>3.450000</speed>
</trkpt>
<trkpt lat="31.788396835" lon="35.390327454">
  <ele>141.157471</ele>
  <time>2011-11-18T10:03:23Z</time>
  <speed>3.190000</speed>
</trkpt>
<trkpt lat="31.788393021" lon="35.390357971">
  <ele>141.368408</ele>
  <time>2011-11-18T10:03:24Z</time>
  <speed>3.280000</speed>
</trkpt>
<trkpt lat="31.788396835" lon="35.390396118">
  <ele>141.602783</ele>
  <time>2011-11-18T10:03:25Z</time>
  <speed>3.440000</speed>
</trkpt>
<trkpt lat="31.788400650" lon="35.390430450">
  <ele>141.571533</ele>
  <time>2011-11-18T10:03:26Z</time>
  <speed>3.310000</speed>
</trkpt>
<trkpt lat="31.788404465" lon="35.390468597">
  <ele>141.641846</ele>
  <time>2011-11-18T10:03:27Z</time>
  <speed>3.130000</speed>
</trkpt>
<trkpt lat="31.788414001" lon="35.390502930">
  <ele>141.704346</ele>
  <time>2011-11-18T10:03:28Z</time>
  <speed>3.350000</speed>
</trkpt>
<trkpt lat="31.788419724" lon="35.390537262">
  <ele>141.555908</ele>
  <time>2011-11-18T10:03:29Z</time>
  <speed>3.520000</speed>
</trkpt>
<trkpt lat="31.788427353" lon="35.390571594">
  <ele>141.559814</ele>
  <time>2011-11-18T10:03:30Z</time>
  <speed>3.440000</speed>
</trkpt>
<trkpt lat="31.788436890" lon="35.390605927">
  <ele>141.462158</ele>
  <time>2011-11-18T10:03:31Z</time>
  <speed>3.420000</speed>
</trkpt>
<trkpt lat="31.788444519" lon="35.390640259">
  <ele>141.501221</ele>
  <time>2011-11-18T10:03:32Z</time>
  <speed>3.610000</speed>
</trkpt>
<trkpt lat="31.788452148" lon="35.390678406">
  <ele>141.020752</ele>
  <time>2011-11-18T10:03:33Z</time>
  <speed>3.840000</speed>
</trkpt>
<trkpt lat="31.788457870" lon="35.390720367">
  <ele>140.755127</ele>
  <time>2011-11-18T10:03:34Z</time>
  <speed>4.090000</speed>
</trkpt>
<trkpt lat="31.788471222" lon="35.390766144">
  <ele>140.298096</ele>
  <time>2011-11-18T10:03:35Z</time>
  <speed>4.560000</speed>
</trkpt>
<trkpt lat="31.788480759" lon="35.390811920">
  <ele>140.262939</ele>
  <time>2011-11-18T10:03:36Z</time>
  <speed>4.720000</speed>
</trkpt>
<trkpt lat="31.788497925" lon="35.390865326">
  <ele>140.298096</ele>
  <time>2011-11-18T10:03:37Z</time>
  <speed>5.100000</speed>
</trkpt>
<trkpt lat="31.788513184" lon="35.390918732">
  <ele>140.130127</ele>
  <time>2011-11-18T10:03:38Z</time>
  <speed>5.460000</speed>
</trkpt>
<trkpt lat="31.788532257" lon="35.390975952">
  <ele>139.384033</ele>
  <time>2011-11-18T10:03:39Z</time>
  <speed>6.220000</speed>
</trkpt>
<trkpt lat="31.788553238" lon="35.391040802">
  <ele>138.798096</ele>
  <time>2011-11-18T10:03:40Z</time>
  <speed>6.460000</speed>
</trkpt>
<trkpt lat="31.788570404" lon="35.391109467">
  <ele>138.016846</ele>
  <time>2011-11-18T10:03:41Z</time>
  <speed>6.670000</speed>
</trkpt>
<trkpt lat="31.788587570" lon="35.391178131">
  <ele>137.364502</ele>
  <time>2011-11-18T10:03:42Z</time>
  <speed>7.180000</speed>
</trkpt>
<trkpt lat="31.788604736" lon="35.391254425">
  <ele>136.704346</ele>
  <time>2011-11-18T10:03:43Z</time>
  <speed>7.700000</speed>
</trkpt>
<trkpt lat="31.788619995" lon="35.391330719">
  <ele>135.794189</ele>
  <time>2011-11-18T10:03:44Z</time>
  <speed>7.600000</speed>
</trkpt>
<trkpt lat="31.788637161" lon="35.391407013">
  <ele>134.684814</ele>
  <time>2011-11-18T10:03:45Z</time>
  <speed>7.330000</speed>
</trkpt>
<trkpt lat="31.788648605" lon="35.391487122">
  <ele>134.841064</ele>
  <time>2011-11-18T10:03:46Z</time>
  <speed>6.830000</speed>
</trkpt>
<trkpt lat="31.788652420" lon="35.391555786">
  <ele>135.372314</ele>
  <time>2011-11-18T10:03:47Z</time>
  <speed>6.070000</speed>
</trkpt>
<trkpt lat="31.788650513" lon="35.391616821">
  <ele>135.817627</ele>
  <time>2011-11-18T10:03:48Z</time>
  <speed>5.280000</speed>
</trkpt>
<trkpt lat="31.788650513" lon="35.391674042">
  <ele>136.614502</ele>
  <time>2011-11-18T10:03:49Z</time>
  <speed>5.130000</speed>
</trkpt>
<trkpt lat="31.788652420" lon="35.391727448">
  <ele>136.856689</ele>
  <time>2011-11-18T10:03:50Z</time>
  <speed>5.030000</speed>
</trkpt>
<trkpt lat="31.788644791" lon="35.391784668">
  <ele>138.016846</ele>
  <time>2011-11-18T10:03:51Z</time>
  <speed>4.530000</speed>
</trkpt>
<trkpt lat="31.788640976" lon="35.391830444">
  <ele>138.680908</ele>
  <time>2011-11-18T10:03:52Z</time>
  <speed>4.260000</speed>
</trkpt>
<trkpt lat="31.788633347" lon="35.391868591">
  <ele>139.708252</ele>
  <time>2011-11-18T10:03:53Z</time>
  <speed>3.620000</speed>
</trkpt>
<trkpt lat="31.788633347" lon="35.391902924">
  <ele>139.606689</ele>
  <time>2011-11-18T10:03:54Z</time>
  <speed>3.190000</speed>
</trkpt>
<trkpt lat="31.788627625" lon="35.391937256">
  <ele>139.841064</ele>
  <time>2011-11-18T10:03:55Z</time>
  <speed>2.910000</speed>
</trkpt>
<trkpt lat="31.788618088" lon="35.391994476">
  <ele>140.591064</ele>
  <time>2011-11-18T10:03:57Z</time>
  <speed>2.780000</speed>
</trkpt>
<trkpt lat="31.788619995" lon="35.392047882">
  <ele>140.915283</ele>
  <time>2011-11-18T10:03:59Z</time>
  <speed>2.730000</speed>
</trkpt>
<trkpt lat="31.788619995" lon="35.392097473">
  <ele>140.930908</ele>
  <time>2011-11-18T10:04:01Z</time>
  <speed>2.510000</speed>
</trkpt>
<trkpt lat="31.788612366" lon="35.392147064">
  <ele>141.833252</ele>
  <time>2011-11-18T10:04:03Z</time>
  <speed>2.300000</speed>
</trkpt>
<trkpt lat="31.788606644" lon="35.392185211">
  <ele>143.454346</ele>
  <time>2011-11-18T10:04:05Z</time>
  <speed>2.140000</speed>
</trkpt>
<trkpt lat="31.788600922" lon="35.392227173">
  <ele>144.153564</ele>
  <time>2011-11-18T10:04:07Z</time>
  <speed>1.780000</speed>
</trkpt>
<trkpt lat="31.788591385" lon="35.392257690">
  <ele>144.356689</ele>
  <time>2011-11-18T10:04:09Z</time>
  <speed>1.870000</speed>
</trkpt>
<trkpt lat="31.788583755" lon="35.392292023">
  <ele>144.489502</ele>
  <time>2011-11-18T10:04:11Z</time>
  <speed>1.950000</speed>
</trkpt>
<trkpt lat="31.788579941" lon="35.392333984">
  <ele>144.391846</ele>
  <time>2011-11-18T10:04:13Z</time>
  <speed>1.970000</speed>
</trkpt>
<trkpt lat="31.788576126" lon="35.392375946">
  <ele>144.313721</ele>
  <time>2011-11-18T10:04:15Z</time>
  <speed>2.150000</speed>
</trkpt>
<trkpt lat="31.788579941" lon="35.392414093">
  <ele>144.309814</ele>
  <time>2011-11-18T10:04:18Z</time>
  <speed>0.510000</speed>
</trkpt>
<trkpt lat="31.788541794" lon="35.392429352">
  <ele>144.473877</ele>
  <time>2011-11-18T10:05:01Z</time>
  <speed>1.900000</speed>
</trkpt>
<trkpt lat="31.788505554" lon="35.392452240">
  <ele>144.270752</ele>
  <time>2011-11-18T10:05:03Z</time>
  <speed>2.830000</speed>
</trkpt>
<trkpt lat="31.788473129" lon="35.392513275">
  <ele>144.731689</ele>
  <time>2011-11-18T10:05:05Z</time>
  <speed>2.860000</speed>
</trkpt>
<trkpt lat="31.788469315" lon="35.392547607">
  <ele>143.677002</ele>
  <time>2011-11-18T10:05:06Z</time>
  <speed>2.990000</speed>
</trkpt>
<trkpt lat="31.788478851" lon="35.392585754">
  <ele>142.802002</ele>
  <time>2011-11-18T10:05:07Z</time>
  <speed>3.350000</speed>
</trkpt>
<trkpt lat="31.788488388" lon="35.392616272">
  <ele>142.219971</ele>
  <time>2011-11-18T10:05:08Z</time>
  <speed>2.870000</speed>
</trkpt>
<trkpt lat="31.788494110" lon="35.392677307">
  <ele>141.954346</ele>
  <time>2011-11-18T10:05:10Z</time>
  <speed>2.850000</speed>
</trkpt>
<trkpt lat="31.788518906" lon="35.392730713">
  <ele>141.247314</ele>
  <time>2011-11-18T10:05:12Z</time>
  <speed>3.170000</speed>
</trkpt>
<trkpt lat="31.788547516" lon="35.392761230">
  <ele>141.192627</ele>
  <time>2011-11-18T10:05:13Z</time>
  <speed>3.440000</speed>
</trkpt>
<trkpt lat="31.788599014" lon="35.392791748">
  <ele>140.841064</ele>
  <time>2011-11-18T10:05:14Z</time>
  <speed>3.970000</speed>
</trkpt>
<trkpt lat="31.788631439" lon="35.392822266">
  <ele>139.071533</ele>
  <time>2011-11-18T10:05:15Z</time>
  <speed>4.620000</speed>
</trkpt>
<trkpt lat="31.788665771" lon="35.392848969">
  <ele>138.344971</ele>
  <time>2011-11-18T10:05:16Z</time>
  <speed>4.650000</speed>
</trkpt>
<trkpt lat="31.788702011" lon="35.392860413">
  <ele>137.231689</ele>
  <time>2011-11-18T10:05:17Z</time>
  <speed>4.580000</speed>
</trkpt>
<trkpt lat="31.788740158" lon="35.392875671">
  <ele>136.387939</ele>
  <time>2011-11-18T10:05:18Z</time>
  <speed>4.260000</speed>
</trkpt>
<trkpt lat="31.788766861" lon="35.392887115">
  <ele>135.239502</ele>
  <time>2011-11-18T10:05:19Z</time>
  <speed>3.880000</speed>
</trkpt>
<trkpt lat="31.788795471" lon="35.392898560">
  <ele>134.458252</ele>
  <time>2011-11-18T10:05:20Z</time>
  <speed>3.220000</speed>
</trkpt>
<trkpt lat="31.788818359" lon="35.392917633">
  <ele>133.805908</ele>
  <time>2011-11-18T10:05:21Z</time>
  <speed>2.330000</speed>
</trkpt>
<trkpt lat="31.788833618" lon="35.392982483">
  <ele>133.661377</ele>
  <time>2011-11-18T10:05:23Z</time>
  <speed>3.350000</speed>
</trkpt>
<trkpt lat="31.788837433" lon="35.393024445">
  <ele>132.891846</ele>
  <time>2011-11-18T10:05:24Z</time>
  <speed>4.150000</speed>
</trkpt>
<trkpt lat="31.788843155" lon="35.393070221">
  <ele>132.505127</ele>
  <time>2011-11-18T10:05:25Z</time>
  <speed>4.130000</speed>
</trkpt>
<trkpt lat="31.788835526" lon="35.393112183">
  <ele>131.825439</ele>
  <time>2011-11-18T10:05:26Z</time>
  <speed>4.250000</speed>
</trkpt>
<trkpt lat="31.788825989" lon="35.393161774">
  <ele>131.321533</ele>
  <time>2011-11-18T10:05:27Z</time>
  <speed>4.730000</speed>
</trkpt>
<trkpt lat="31.788818359" lon="35.393215179">
  <ele>131.684814</ele>
  <time>2011-11-18T10:05:28Z</time>
  <speed>5.080000</speed>
</trkpt>
<trkpt lat="31.788801193" lon="35.393260956">
  <ele>131.766846</ele>
  <time>2011-11-18T10:05:29Z</time>
  <speed>4.460000</speed>
</trkpt>
<trkpt lat="31.788778305" lon="35.393295288">
  <ele>132.309814</ele>
  <time>2011-11-18T10:05:30Z</time>
  <speed>3.920000</speed>
</trkpt>
<trkpt lat="31.788757324" lon="35.393329620">
  <ele>133.239502</ele>
  <time>2011-11-18T10:05:31Z</time>
  <speed>3.200000</speed>
</trkpt>
<trkpt lat="31.788740158" lon="35.393360138">
  <ele>133.692627</ele>
  <time>2011-11-18T10:05:32Z</time>
  <speed>3.200000</speed>
</trkpt>
<trkpt lat="31.788719177" lon="35.393379211">
  <ele>133.938721</ele>
  <time>2011-11-18T10:05:33Z</time>
  <speed>2.910000</speed>
</trkpt>
<trkpt lat="31.788700104" lon="35.393402100">
  <ele>134.520752</ele>
  <time>2011-11-18T10:05:34Z</time>
  <speed>2.890000</speed>
</trkpt>
<trkpt lat="31.788673401" lon="35.393451691">
  <ele>135.001221</ele>
  <time>2011-11-18T10:05:36Z</time>
  <speed>2.360000</speed>
</trkpt>
<trkpt lat="31.788635254" lon="35.393478394">
  <ele>135.993408</ele>
  <time>2011-11-18T10:05:38Z</time>
  <speed>3.060000</speed>
</trkpt>
<trkpt lat="31.788593292" lon="35.393508911">
  <ele>136.887939</ele>
  <time>2011-11-18T10:05:40Z</time>
  <speed>2.640000</speed>
</trkpt>
<trkpt lat="31.788562775" lon="35.393566132">
  <ele>137.610596</ele>
  <time>2011-11-18T10:05:42Z</time>
  <speed>2.340000</speed>
</trkpt>
<trkpt lat="31.788549423" lon="35.393615723">
  <ele>138.122314</ele>
  <time>2011-11-18T10:05:44Z</time>
  <speed>2.390000</speed>
</trkpt>
<trkpt lat="31.788528442" lon="35.393672943">
  <ele>138.415283</ele>
  <time>2011-11-18T10:05:46Z</time>
  <speed>2.390000</speed>
</trkpt>
<trkpt lat="31.788518906" lon="35.393714905">
  <ele>138.669189</ele>
  <time>2011-11-18T10:05:48Z</time>
  <speed>2.270000</speed>
</trkpt>
<trkpt lat="31.788503647" lon="35.393756866">
  <ele>138.110596</ele>
  <time>2011-11-18T10:05:50Z</time>
  <speed>2.780000</speed>
</trkpt>
<trkpt lat="31.788497925" lon="35.393817902">
  <ele>137.255127</ele>
  <time>2011-11-18T10:05:52Z</time>
  <speed>2.960000</speed>
</trkpt>
<trkpt lat="31.788501740" lon="35.393875122">
  <ele>136.907471</ele>
  <time>2011-11-18T10:05:54Z</time>
  <speed>2.130000</speed>
</trkpt>
<trkpt lat="31.788496017" lon="35.393924713">
  <ele>135.602783</ele>
  <time>2011-11-18T10:05:56Z</time>
  <speed>1.640000</speed>
</trkpt>
<trkpt lat="31.788507462" lon="35.393962860">
  <ele>134.579346</ele>
  <time>2011-11-18T10:05:58Z</time>
  <speed>1.830000</speed>
</trkpt>
<trkpt lat="31.788534164" lon="35.393981934">
  <ele>133.977783</ele>
  <time>2011-11-18T10:06:00Z</time>
  <speed>0.730000</speed>
</trkpt>
<trkpt lat="31.788555145" lon="35.393959045">
  <ele>133.223877</ele>
  <time>2011-11-18T10:06:11Z</time>
  <speed>0.310000</speed>
</trkpt>
<trkpt lat="31.788555145" lon="35.393928528">
  <ele>133.122314</ele>
  <time>2011-11-18T10:07:51Z</time>
</trkpt>
<trkpt lat="31.788583755" lon="35.393959045">
  <ele>132.751221</ele>
  <time>2011-11-18T10:08:35Z</time>
  <speed>0.720000</speed>
</trkpt>
<trkpt lat="31.788557053" lon="35.393959045">
  <ele>133.223877</ele>
  <time>2011-11-18T10:09:46Z</time>
  <speed>1.770000</speed>
</trkpt>
<trkpt lat="31.788518906" lon="35.393955231">
  <ele>133.028564</ele>
  <time>2011-11-18T10:09:48Z</time>
  <speed>2.120000</speed>
</trkpt>
<trkpt lat="31.788467407" lon="35.393955231">
  <ele>131.774658</ele>
  <time>2011-11-18T10:09:50Z</time>
  <speed>3.190000</speed>
</trkpt>
<trkpt lat="31.788434982" lon="35.393955231">
  <ele>131.727783</ele>
  <time>2011-11-18T10:09:51Z</time>
  <speed>3.130000</speed>
</trkpt>
<trkpt lat="31.788412094" lon="35.393962860">
  <ele>130.610596</ele>
  <time>2011-11-18T10:09:52Z</time>
  <speed>3.660000</speed>
</trkpt>
<trkpt lat="31.788398743" lon="35.393997192">
  <ele>130.130127</ele>
  <time>2011-11-18T10:09:53Z</time>
  <speed>2.680000</speed>
</trkpt>
<trkpt lat="31.788434982" lon="35.394027710">
  <ele>128.786377</ele>
  <time>2011-11-18T10:09:55Z</time>
  <speed>2.830000</speed>
</trkpt>
<trkpt lat="31.788486481" lon="35.394035339">
  <ele>127.740845</ele>
  <time>2011-11-18T10:09:57Z</time>
  <speed>2.840000</speed>
</trkpt>
<trkpt lat="31.788513184" lon="35.394050598">
  <ele>126.965454</ele>
  <time>2011-11-18T10:09:58Z</time>
  <speed>2.840000</speed>
</trkpt>
<trkpt lat="31.788539886" lon="35.394065857">
  <ele>126.309204</ele>
  <time>2011-11-18T10:09:59Z</time>
  <speed>3.260000</speed>
</trkpt>
<trkpt lat="31.788564682" lon="35.394077301">
  <ele>125.297485</ele>
  <time>2011-11-18T10:10:00Z</time>
  <speed>3.240000</speed>
</trkpt>
<trkpt lat="31.788593292" lon="35.394096375">
  <ele>124.596313</ele>
  <time>2011-11-18T10:10:01Z</time>
  <speed>3.480000</speed>
</trkpt>
<trkpt lat="31.788621902" lon="35.394111633">
  <ele>123.906860</ele>
  <time>2011-11-18T10:10:02Z</time>
  <speed>3.520000</speed>
</trkpt>
<trkpt lat="31.788648605" lon="35.394134521">
  <ele>123.139282</ele>
  <time>2011-11-18T10:10:03Z</time>
  <speed>2.950000</speed>
</trkpt>
<trkpt lat="31.788661957" lon="35.394168854">
  <ele>121.035767</ele>
  <time>2011-11-18T10:10:05Z</time>
  <speed>1.280000</speed>
</trkpt>
<trkpt lat="31.788637161" lon="35.394187927">
  <ele>119.125610</ele>
  <time>2011-11-18T10:10:08Z</time>
  <speed>1.860000</speed>
</trkpt>
<trkpt lat="31.788600922" lon="35.394153595">
  <ele>117.815063</ele>
  <time>2011-11-18T10:10:10Z</time>
  <speed>2.290000</speed>
</trkpt>
<trkpt lat="31.788576126" lon="35.394142151">
  <ele>117.881470</ele>
  <time>2011-11-18T10:10:11Z</time>
  <speed>2.590000</speed>
</trkpt>
<trkpt lat="31.788547516" lon="35.394130707">
  <ele>117.574829</ele>
  <time>2011-11-18T10:10:12Z</time>
  <speed>2.740000</speed>
</trkpt>
<trkpt lat="31.788509369" lon="35.394130707">
  <ele>117.469360</ele>
  <time>2011-11-18T10:10:13Z</time>
  <speed>4.600000</speed>
</trkpt>
<trkpt lat="31.788465500" lon="35.394138336">
  <ele>117.279907</ele>
  <time>2011-11-18T10:10:14Z</time>
  <speed>5.180000</speed>
</trkpt>
<trkpt lat="31.788415909" lon="35.394153595">
  <ele>116.465454</ele>
  <time>2011-11-18T10:10:15Z</time>
  <speed>5.980000</speed>
</trkpt>
<trkpt lat="31.788364410" lon="35.394176483">
  <ele>116.109985</ele>
  <time>2011-11-18T10:10:16Z</time>
  <speed>5.690000</speed>
</trkpt>
<trkpt lat="31.788318634" lon="35.394195557">
  <ele>115.656860</ele>
  <time>2011-11-18T10:10:17Z</time>
  <speed>5.680000</speed>
</trkpt>
<trkpt lat="31.788269043" lon="35.394218445">
  <ele>115.281860</ele>
  <time>2011-11-18T10:10:18Z</time>
  <speed>5.840000</speed>
</trkpt>
<trkpt lat="31.788213730" lon="35.394241333">
  <ele>115.359985</ele>
  <time>2011-11-18T10:10:19Z</time>
  <speed>6.100000</speed>
</trkpt>
<trkpt lat="31.788158417" lon="35.394275665">
  <ele>115.393188</ele>
  <time>2011-11-18T10:10:20Z</time>
  <speed>6.100000</speed>
</trkpt>
<trkpt lat="31.788112640" lon="35.394309998">
  <ele>115.426392</ele>
  <time>2011-11-18T10:10:21Z</time>
  <speed>6.220000</speed>
</trkpt>
<trkpt lat="31.788068771" lon="35.394374847">
  <ele>115.756470</ele>
  <time>2011-11-18T10:10:22Z</time>
  <speed>6.650000</speed>
</trkpt>
<trkpt lat="31.788028717" lon="35.394428253">
  <ele>115.701782</ele>
  <time>2011-11-18T10:10:23Z</time>
  <speed>6.650000</speed>
</trkpt>
<trkpt lat="31.787986755" lon="35.394481659">
  <ele>115.490845</ele>
  <time>2011-11-18T10:10:24Z</time>
  <speed>6.820000</speed>
</trkpt>
<trkpt lat="31.787944794" lon="35.394538879">
  <ele>115.080688</ele>
  <time>2011-11-18T10:10:25Z</time>
  <speed>7.140000</speed>
</trkpt>
<trkpt lat="31.787899017" lon="35.394599915">
  <ele>114.744751</ele>
  <time>2011-11-18T10:10:26Z</time>
  <speed>7.490000</speed>
</trkpt>
<trkpt lat="31.787857056" lon="35.394668579">
  <ele>114.313110</ele>
  <time>2011-11-18T10:10:27Z</time>
  <speed>7.590000</speed>
</trkpt>
<trkpt lat="31.787818909" lon="35.394741058">
  <ele>113.774048</ele>
  <time>2011-11-18T10:10:28Z</time>
  <speed>7.680000</speed>
</trkpt>
<trkpt lat="31.787780762" lon="35.394809723">
  <ele>112.969360</ele>
  <time>2011-11-18T10:10:29Z</time>
  <speed>7.760000</speed>
</trkpt>
<trkpt lat="31.787748337" lon="35.394878387">
  <ele>113.457642</ele>
  <time>2011-11-18T10:10:30Z</time>
  <speed>7.590000</speed>
</trkpt>
<trkpt lat="31.787704468" lon="35.394935608">
  <ele>113.803345</ele>
  <time>2011-11-18T10:10:31Z</time>
  <speed>6.740000</speed>
</trkpt>
<trkpt lat="31.787662506" lon="35.394973755">
  <ele>114.149048</ele>
  <time>2011-11-18T10:10:32Z</time>
  <speed>5.680000</speed>
</trkpt>
<trkpt lat="31.787618637" lon="35.395000458">
  <ele>114.461548</ele>
  <time>2011-11-18T10:10:33Z</time>
  <speed>5.120000</speed>
</trkpt>
<trkpt lat="31.787582397" lon="35.395030975">
  <ele>115.067017</ele>
  <time>2011-11-18T10:10:34Z</time>
  <speed>4.910000</speed>
</trkpt>
<trkpt lat="31.787548065" lon="35.395061493">
  <ele>115.483032</ele>
  <time>2011-11-18T10:10:35Z</time>
  <speed>5.070000</speed>
</trkpt>
<trkpt lat="31.787525177" lon="35.395107269">
  <ele>116.070923</ele>
  <time>2011-11-18T10:10:36Z</time>
  <speed>4.600000</speed>
</trkpt>
<trkpt lat="31.787513733" lon="35.395160675">
  <ele>116.729126</ele>
  <time>2011-11-18T10:10:37Z</time>
  <speed>4.770000</speed>
</trkpt>
<trkpt lat="31.787506104" lon="35.395214081">
  <ele>116.945923</ele>
  <time>2011-11-18T10:10:38Z</time>
  <speed>5.140000</speed>
</trkpt>
<trkpt lat="31.787498474" lon="35.395278931">
  <ele>117.209595</ele>
  <time>2011-11-18T10:10:39Z</time>
  <speed>5.870000</speed>
</trkpt>
<trkpt lat="31.787496567" lon="35.395339966">
  <ele>116.315063</ele>
  <time>2011-11-18T10:10:40Z</time>
  <speed>6.280000</speed>
</trkpt>
<trkpt lat="31.787508011" lon="35.395408630">
  <ele>115.406860</ele>
  <time>2011-11-18T10:10:41Z</time>
  <speed>6.180000</speed>
</trkpt>
<trkpt lat="31.787528992" lon="35.395473480">
  <ele>114.389282</ele>
  <time>2011-11-18T10:10:42Z</time>
  <speed>6.130000</speed>
</trkpt>
<trkpt lat="31.787538528" lon="35.395534515">
  <ele>113.932251</ele>
  <time>2011-11-18T10:10:43Z</time>
  <speed>5.400000</speed>
</trkpt>
<trkpt lat="31.787528992" lon="35.395584106">
  <ele>113.524048</ele>
  <time>2011-11-18T10:10:44Z</time>
  <speed>4.700000</speed>
</trkpt>
<trkpt lat="31.787502289" lon="35.395614624">
  <ele>113.158813</ele>
  <time>2011-11-18T10:10:45Z</time>
  <speed>3.290000</speed>
</trkpt>
<trkpt lat="31.787479401" lon="35.395652771">
  <ele>113.088501</ele>
  <time>2011-11-18T10:10:46Z</time>
  <speed>4.280000</speed>
</trkpt>
<trkpt lat="31.787477493" lon="35.395702362">
  <ele>113.311157</ele>
  <time>2011-11-18T10:10:47Z</time>
  <speed>3.820000</speed>
</trkpt>
<trkpt lat="31.787469864" lon="35.395740509">
  <ele>112.633423</ele>
  <time>2011-11-18T10:10:48Z</time>
  <speed>3.340000</speed>
</trkpt>
<trkpt lat="31.787456512" lon="35.395782471">
  <ele>112.713501</ele>
  <time>2011-11-18T10:10:50Z</time>
  <speed>1.810000</speed>
</trkpt>
<trkpt lat="31.787460327" lon="35.395740509">
  <ele>113.342407</ele>
  <time>2011-11-18T10:11:07Z</time>
  <speed>0.790000</speed>
</trkpt>
<trkpt lat="31.787469864" lon="35.395694733">
  <ele>113.699829</ele>
  <time>2011-11-18T10:11:10Z</time>
  <speed>1.070000</speed>
</trkpt>
<trkpt lat="31.787479401" lon="35.395656586">
  <ele>113.971313</ele>
  <time>2011-11-18T10:11:12Z</time>
  <speed>1.150000</speed>
</trkpt>
<trkpt lat="31.787496567" lon="35.395618439">
  <ele>113.586548</ele>
  <time>2011-11-18T10:11:15Z</time>
  <speed>1.060000</speed>
</trkpt>
<trkpt lat="31.787511826" lon="35.395591736">
  <ele>113.875610</ele>
  <time>2011-11-18T10:11:18Z</time>
  <speed>0.250000</speed>
</trkpt>
<trkpt lat="31.787527084" lon="35.395568848">
  <ele>112.397095</ele>
  <time>2011-11-18T10:11:33Z</time>
  <speed>0.070000</speed>
</trkpt>
<trkpt lat="31.787513733" lon="35.395599365">
  <ele>113.738892</ele>
  <time>2011-11-18T10:11:51Z</time>
  <speed>0.020000</speed>
</trkpt>
<trkpt lat="31.787494659" lon="35.395645142">
  <ele>113.783813</ele>
  <time>2011-11-18T10:12:13Z</time>
  <speed>1.920000</speed>
</trkpt>
<trkpt lat="31.787483215" lon="35.395690918">
  <ele>113.344360</ele>
  <time>2011-11-18T10:12:15Z</time>
  <speed>2.330000</speed>
</trkpt>
<trkpt lat="31.787477493" lon="35.395725250">
  <ele>112.543579</ele>
  <time>2011-11-18T10:12:16Z</time>
  <speed>2.890000</speed>
</trkpt>
<trkpt lat="31.787462234" lon="35.395774841">
  <ele>112.098267</ele>
  <time>2011-11-18T10:12:18Z</time>
  <speed>1.990000</speed>
</trkpt>
<trkpt lat="31.787445068" lon="35.395812988">
  <ele>111.115845</ele>
  <time>2011-11-18T10:12:20Z</time>
  <speed>3.010000</speed>
</trkpt>
<trkpt lat="31.787431717" lon="35.395851135">
  <ele>110.061157</ele>
  <time>2011-11-18T10:12:22Z</time>
  <speed>0.780000</speed>
</trkpt>
<trkpt lat="31.787450790" lon="35.395820618">
  <ele>110.268188</ele>
  <time>2011-11-18T10:12:26Z</time>
  <speed>1.750000</speed>
</trkpt>
<trkpt lat="31.787475586" lon="35.395790100">
  <ele>110.301392</ele>
  <time>2011-11-18T10:12:28Z</time>
  <speed>1.500000</speed>
</trkpt>
<trkpt lat="31.787490845" lon="35.395763397">
  <ele>111.647095</ele>
  <time>2011-11-18T10:12:30Z</time>
  <speed>0.760000</speed>
</trkpt>
<trkpt lat="31.787498474" lon="35.395721436">
  <ele>112.629517</ele>
  <time>2011-11-18T10:12:34Z</time>
  <speed>1.440000</speed>
</trkpt>
<trkpt lat="31.787502289" lon="35.395687103">
  <ele>112.943970</ele>
  <time>2011-11-18T10:12:36Z</time>
  <speed>1.410000</speed>
</trkpt>
<trkpt lat="31.787506104" lon="35.395645142">
  <ele>113.682251</ele>
  <time>2011-11-18T10:12:39Z</time>
  <speed>1.280000</speed>
</trkpt>
<trkpt lat="31.787511826" lon="35.395603180">
  <ele>113.875610</ele>
  <time>2011-11-18T10:12:47Z</time>
  <speed>0.990000</speed>
</trkpt>
<trkpt lat="31.787511826" lon="35.395568848">
  <ele>114.070923</ele>
  <time>2011-11-18T10:12:58Z</time>
  <speed>0.650000</speed>
</trkpt>
<trkpt lat="31.787506104" lon="35.395603180">
  <ele>114.211548</ele>
  <time>2011-11-18T10:13:34Z</time>
  <speed>2.390000</speed>
</trkpt>
<trkpt lat="31.787500381" lon="35.395641327">
  <ele>114.531860</ele>
  <time>2011-11-18T10:13:35Z</time>
  <speed>2.670000</speed>
</trkpt>
<trkpt lat="31.787490845" lon="35.395683289">
  <ele>114.240845</ele>
  <time>2011-11-18T10:13:36Z</time>
  <speed>3.050000</speed>
</trkpt>
<trkpt lat="31.787483215" lon="35.395721436">
  <ele>113.951782</ele>
  <time>2011-11-18T10:13:37Z</time>
  <speed>2.950000</speed>
</trkpt>
<trkpt lat="31.787454605" lon="35.395774841">
  <ele>113.068970</ele>
  <time>2011-11-18T10:13:39Z</time>
  <speed>3.060000</speed>
</trkpt>
<trkpt lat="31.787439346" lon="35.395805359">
  <ele>113.172485</ele>
  <time>2011-11-18T10:13:40Z</time>
  <speed>3.610000</speed>
</trkpt>
<trkpt lat="31.787418365" lon="35.395847321">
  <ele>113.234985</ele>
  <time>2011-11-18T10:13:41Z</time>
  <speed>4.660000</speed>
</trkpt>
<trkpt lat="31.787393570" lon="35.395900726">
  <ele>113.516235</ele>
  <time>2011-11-18T10:13:42Z</time>
  <speed>5.770000</speed>
</trkpt>
<trkpt lat="31.787364960" lon="35.395954132">
  <ele>113.799438</ele>
  <time>2011-11-18T10:13:43Z</time>
  <speed>5.390000</speed>
</trkpt>
<trkpt lat="31.787336349" lon="35.396003723">
  <ele>113.881470</ele>
  <time>2011-11-18T10:13:44Z</time>
  <speed>5.750000</speed>
</trkpt>
<trkpt lat="31.787303925" lon="35.396053314">
  <ele>114.129517</ele>
  <time>2011-11-18T10:13:45Z</time>
  <speed>5.810000</speed>
</trkpt>
<trkpt lat="31.787265778" lon="35.396099091">
  <ele>114.401001</ele>
  <time>2011-11-18T10:13:46Z</time>
  <speed>6.460000</speed>
</trkpt>
<trkpt lat="31.787221909" lon="35.396144867">
  <ele>114.555298</ele>
  <time>2011-11-18T10:13:47Z</time>
  <speed>6.440000</speed>
</trkpt>
<trkpt lat="31.787172318" lon="35.396183014">
  <ele>114.215454</ele>
  <time>2011-11-18T10:13:48Z</time>
  <speed>6.030000</speed>
</trkpt>
<trkpt lat="31.787124634" lon="35.396213531">
  <ele>113.818970</ele>
  <time>2011-11-18T10:13:49Z</time>
  <speed>5.620000</speed>
</trkpt>
<trkpt lat="31.787086487" lon="35.396251678">
  <ele>113.652954</ele>
  <time>2011-11-18T10:13:50Z</time>
  <speed>5.460000</speed>
</trkpt>
<trkpt lat="31.787057877" lon="35.396289825">
  <ele>112.863892</ele>
  <time>2011-11-18T10:13:51Z</time>
  <speed>4.390000</speed>
</trkpt>
<trkpt lat="31.787038803" lon="35.396327972">
  <ele>112.055298</ele>
  <time>2011-11-18T10:13:52Z</time>
  <speed>3.720000</speed>
</trkpt>
<trkpt lat="31.787031174" lon="35.396373749">
  <ele>110.672485</ele>
  <time>2011-11-18T10:13:53Z</time>
  <speed>4.250000</speed>
</trkpt>
<trkpt lat="31.787033081" lon="35.396423340">
  <ele>109.760376</ele>
  <time>2011-11-18T10:13:54Z</time>
  <speed>4.580000</speed>
</trkpt>
<trkpt lat="31.787050247" lon="35.396472931">
  <ele>109.277954</ele>
  <time>2011-11-18T10:13:55Z</time>
  <speed>4.480000</speed>
</trkpt>
<trkpt lat="31.787067413" lon="35.396518707">
  <ele>108.508423</ele>
  <time>2011-11-18T10:13:56Z</time>
  <speed>4.800000</speed>
</trkpt>
<trkpt lat="31.787080765" lon="35.396572113">
  <ele>107.483032</ele>
  <time>2011-11-18T10:13:57Z</time>
  <speed>4.930000</speed>
</trkpt>
<trkpt lat="31.787090302" lon="35.396629333">
  <ele>107.438110</ele>
  <time>2011-11-18T10:13:58Z</time>
  <speed>5.020000</speed>
</trkpt>
<trkpt lat="31.787086487" lon="35.396686554">
  <ele>107.264282</ele>
  <time>2011-11-18T10:13:59Z</time>
  <speed>4.540000</speed>
</trkpt>
<trkpt lat="31.787090302" lon="35.396739960">
  <ele>107.049438</ele>
  <time>2011-11-18T10:14:00Z</time>
  <speed>4.840000</speed>
</trkpt>
<trkpt lat="31.787084579" lon="35.396797180">
  <ele>107.004517</ele>
  <time>2011-11-18T10:14:01Z</time>
  <speed>5.280000</speed>
</trkpt>
<trkpt lat="31.787084579" lon="35.396850586">
  <ele>106.484985</ele>
  <time>2011-11-18T10:14:02Z</time>
  <speed>5.170000</speed>
</trkpt>
<trkpt lat="31.787088394" lon="35.396907806">
  <ele>106.033813</ele>
  <time>2011-11-18T10:14:03Z</time>
  <speed>4.920000</speed>
</trkpt>
<trkpt lat="31.787094116" lon="35.396961212">
  <ele>105.770142</ele>
  <time>2011-11-18T10:14:04Z</time>
  <speed>4.840000</speed>
</trkpt>
<trkpt lat="31.787101746" lon="35.397010803">
  <ele>105.289673</ele>
  <time>2011-11-18T10:14:05Z</time>
  <speed>4.270000</speed>
</trkpt>
<trkpt lat="31.787105560" lon="35.397052765">
  <ele>104.813110</ele>
  <time>2011-11-18T10:14:06Z</time>
  <speed>3.570000</speed>
</trkpt>
<trkpt lat="31.787107468" lon="35.397087097">
  <ele>104.631470</ele>
  <time>2011-11-18T10:14:07Z</time>
  <speed>3.030000</speed>
</trkpt>
<trkpt lat="31.787105560" lon="35.397125244">
  <ele>104.834595</ele>
  <time>2011-11-18T10:14:08Z</time>
  <speed>3.660000</speed>
</trkpt>
<trkpt lat="31.787088394" lon="35.397155762">
  <ele>106.076782</ele>
  <time>2011-11-18T10:14:09Z</time>
  <speed>4.000000</speed>
</trkpt>
<trkpt lat="31.787061691" lon="35.397174835">
  <ele>105.979126</ele>
  <time>2011-11-18T10:14:10Z</time>
  <speed>3.570000</speed>
</trkpt>
<trkpt lat="31.787031174" lon="35.397193909">
  <ele>105.770142</ele>
  <time>2011-11-18T10:14:11Z</time>
  <speed>3.700000</speed>
</trkpt>
<trkpt lat="31.787010193" lon="35.397216797">
  <ele>105.209595</ele>
  <time>2011-11-18T10:14:12Z</time>
  <speed>3.130000</speed>
</trkpt>
<trkpt lat="31.786993027" lon="35.397258759">
  <ele>104.506470</ele>
  <time>2011-11-18T10:14:14Z</time>
  <speed>1.780000</speed>
</trkpt>
<trkpt lat="31.787000656" lon="35.397300720">
  <ele>104.279907</ele>
  <time>2011-11-18T10:14:16Z</time>
  <speed>2.240000</speed>
</trkpt>
<trkpt lat="31.787006378" lon="35.397361755">
  <ele>103.856079</ele>
  <time>2011-11-18T10:14:18Z</time>
  <speed>2.610000</speed>
</trkpt>
<trkpt lat="31.787006378" lon="35.397426605">
  <ele>104.047485</ele>
  <time>2011-11-18T10:14:20Z</time>
  <speed>3.270000</speed>
</trkpt>
<trkpt lat="31.786994934" lon="35.397460938">
  <ele>104.174438</ele>
  <time>2011-11-18T10:14:21Z</time>
  <speed>3.270000</speed>
</trkpt>
<trkpt lat="31.786973953" lon="35.397483826">
  <ele>104.234985</ele>
  <time>2011-11-18T10:14:22Z</time>
  <speed>3.250000</speed>
</trkpt>
<trkpt lat="31.786960602" lon="35.397514343">
  <ele>104.080688</ele>
  <time>2011-11-18T10:14:23Z</time>
  <speed>3.080000</speed>
</trkpt>
<trkpt lat="31.786949158" lon="35.397541046">
  <ele>104.588501</ele>
  <time>2011-11-18T10:14:24Z</time>
  <speed>3.220000</speed>
</trkpt>
<trkpt lat="31.786943436" lon="35.397575378">
  <ele>104.832642</ele>
  <time>2011-11-18T10:14:25Z</time>
  <speed>2.740000</speed>
</trkpt>
<trkpt lat="31.786912918" lon="35.397617340">
  <ele>105.688110</ele>
  <time>2011-11-18T10:14:27Z</time>
  <speed>2.630000</speed>
</trkpt>
<trkpt lat="31.786890030" lon="35.397632599">
  <ele>106.613892</ele>
  <time>2011-11-18T10:14:28Z</time>
  <speed>3.250000</speed>
</trkpt>
<trkpt lat="31.786867142" lon="35.397651672">
  <ele>107.072876</ele>
  <time>2011-11-18T10:14:29Z</time>
  <speed>3.160000</speed>
</trkpt>
<trkpt lat="31.786848068" lon="35.397674561">
  <ele>106.938110</ele>
  <time>2011-11-18T10:14:30Z</time>
  <speed>3.160000</speed>
</trkpt>
<trkpt lat="31.786825180" lon="35.397689819">
  <ele>107.584595</ele>
  <time>2011-11-18T10:14:31Z</time>
  <speed>2.640000</speed>
</trkpt>
<trkpt lat="31.786790848" lon="35.397731781">
  <ele>107.281860</ele>
  <time>2011-11-18T10:14:33Z</time>
  <speed>2.580000</speed>
</trkpt>
<trkpt lat="31.786777496" lon="35.397785187">
  <ele>107.096313</ele>
  <time>2011-11-18T10:14:35Z</time>
  <speed>2.090000</speed>
</trkpt>
<trkpt lat="31.786783218" lon="35.397830963">
  <ele>106.311157</ele>
  <time>2011-11-18T10:14:37Z</time>
  <speed>1.550000</speed>
</trkpt>
<trkpt lat="31.786796570" lon="35.397857666">
  <ele>107.029907</ele>
  <time>2011-11-18T10:14:40Z</time>
  <speed>1.060000</speed>
</trkpt>
<trkpt lat="31.786827087" lon="35.397880554">
  <ele>107.930298</ele>
  <time>2011-11-18T10:14:43Z</time>
  <speed>1.270000</speed>
</trkpt>
<trkpt lat="31.786848068" lon="35.397914886">
  <ele>109.229126</ele>
  <time>2011-11-18T10:14:46Z</time>
  <speed>1.190000</speed>
</trkpt>
<trkpt lat="31.786867142" lon="35.397945404">
  <ele>109.682251</ele>
  <time>2011-11-18T10:14:49Z</time>
  <speed>0.980000</speed>
</trkpt>
<trkpt lat="31.786905289" lon="35.397964478">
  <ele>110.072876</ele>
  <time>2011-11-18T10:14:52Z</time>
  <speed>1.280000</speed>
</trkpt>
<trkpt lat="31.786924362" lon="35.397987366">
  <ele>109.963501</ele>
  <time>2011-11-18T10:14:56Z</time>
  <speed>1.150000</speed>
</trkpt>
<trkpt lat="31.786939621" lon="35.398017883">
  <ele>109.639282</ele>
  <time>2011-11-18T10:14:59Z</time>
  <speed>1.010000</speed>
</trkpt>
<trkpt lat="31.786941528" lon="35.398048401">
  <ele>107.863892</ele>
  <time>2011-11-18T10:15:02Z</time>
  <speed>1.200000</speed>
</trkpt>
<trkpt lat="31.786945343" lon="35.398078918">
  <ele>107.748657</ele>
  <time>2011-11-18T10:15:07Z</time>
  <speed>0.280000</speed>
</trkpt>
<trkpt lat="31.786914825" lon="35.398097992">
  <ele>108.678345</ele>
  <time>2011-11-18T10:15:22Z</time>
  <speed>1.230000</speed>
</trkpt>
<trkpt lat="31.786890030" lon="35.398128510">
  <ele>108.731079</ele>
  <time>2011-11-18T10:15:25Z</time>
  <speed>0.880000</speed>
</trkpt>
<trkpt lat="31.786863327" lon="35.398136139">
  <ele>108.576782</ele>
  <time>2011-11-18T10:15:33Z</time>
  <speed>0.050000</speed>
</trkpt>
<trkpt lat="31.786882401" lon="35.398113251">
  <ele>107.721313</ele>
  <time>2011-11-18T10:15:43Z</time>
  <speed>0.550000</speed>
</trkpt>
<trkpt lat="31.786901474" lon="35.398086548">
  <ele>107.643188</ele>
  <time>2011-11-18T10:15:45Z</time>
  <speed>1.140000</speed>
</trkpt>
<trkpt lat="31.786912918" lon="35.398056030">
  <ele>107.578735</ele>
  <time>2011-11-18T10:15:47Z</time>
  <speed>1.230000</speed>
</trkpt>
<trkpt lat="31.786920547" lon="35.398010254">
  <ele>107.299438</ele>
  <time>2011-11-18T10:15:50Z</time>
  <speed>1.410000</speed>
</trkpt>
<trkpt lat="31.786918640" lon="35.397972107">
  <ele>107.420532</ele>
  <time>2011-11-18T10:15:53Z</time>
  <speed>0.300000</speed>
</trkpt>
<trkpt lat="31.786916733" lon="35.398006439">
  <ele>107.731079</ele>
  <time>2011-11-18T10:16:27Z</time>
  <speed>0.860000</speed>
</trkpt>
<trkpt lat="31.786924362" lon="35.398036957">
  <ele>107.582642</ele>
  <time>2011-11-18T10:16:29Z</time>
  <speed>1.320000</speed>
</trkpt>
<trkpt lat="31.786926270" lon="35.398078918">
  <ele>107.109985</ele>
  <time>2011-11-18T10:16:31Z</time>
  <speed>1.900000</speed>
</trkpt>
<trkpt lat="31.786922455" lon="35.398132324">
  <ele>106.608032</ele>
  <time>2011-11-18T10:16:33Z</time>
  <speed>2.700000</speed>
</trkpt>
<trkpt lat="31.786895752" lon="35.398185730">
  <ele>106.248657</ele>
  <time>2011-11-18T10:16:35Z</time>
  <speed>2.780000</speed>
</trkpt>
<trkpt lat="31.786865234" lon="35.398227692">
  <ele>105.887329</ele>
  <time>2011-11-18T10:16:37Z</time>
  <speed>2.220000</speed>
</trkpt>
<trkpt lat="31.786832809" lon="35.398265839">
  <ele>106.389282</ele>
  <time>2011-11-18T10:16:39Z</time>
  <speed>2.470000</speed>
</trkpt>
<trkpt lat="31.786813736" lon="35.398319244">
  <ele>106.703735</ele>
  <time>2011-11-18T10:16:41Z</time>
  <speed>2.570000</speed>
</trkpt>
<trkpt lat="31.786806107" lon="35.398349762">
  <ele>107.151001</ele>
  <time>2011-11-18T10:16:42Z</time>
  <speed>2.230000</speed>
</trkpt>
<trkpt lat="31.786779404" lon="35.398391724">
  <ele>106.492798</ele>
  <time>2011-11-18T10:16:44Z</time>
  <speed>2.100000</speed>
</trkpt>
<trkpt lat="31.786771774" lon="35.398422241">
  <ele>106.979126</ele>
  <time>2011-11-18T10:16:46Z</time>
  <speed>1.200000</speed>
</trkpt>
<trkpt lat="31.786748886" lon="35.398448944">
  <ele>106.781860</ele>
  <time>2011-11-18T10:16:48Z</time>
  <speed>1.880000</speed>
</trkpt>
<trkpt lat="31.786754608" lon="35.398483276">
  <ele>106.096313</ele>
  <time>2011-11-18T10:16:50Z</time>
  <speed>1.720000</speed>
</trkpt>
<trkpt lat="31.786760330" lon="35.398529053">
  <ele>104.787720</ele>
  <time>2011-11-18T10:16:52Z</time>
  <speed>3.110000</speed>
</trkpt>
<trkpt lat="31.786766052" lon="35.398571014">
  <ele>103.565063</ele>
  <time>2011-11-18T10:16:53Z</time>
  <speed>4.650000</speed>
</trkpt>
<trkpt lat="31.786767960" lon="35.398624420">
  <ele>102.842407</ele>
  <time>2011-11-18T10:16:54Z</time>
  <speed>5.250000</speed>
</trkpt>
<trkpt lat="31.786766052" lon="35.398685455">
  <ele>102.201782</ele>
  <time>2011-11-18T10:16:55Z</time>
  <speed>5.430000</speed>
</trkpt>
<trkpt lat="31.786762238" lon="35.398746490">
  <ele>101.881470</ele>
  <time>2011-11-18T10:16:56Z</time>
  <speed>5.740000</speed>
</trkpt>
<trkpt lat="31.786760330" lon="35.398815155">
  <ele>101.811157</ele>
  <time>2011-11-18T10:16:57Z</time>
  <speed>6.310000</speed>
</trkpt>
<trkpt lat="31.786760330" lon="35.398883820">
  <ele>101.213501</ele>
  <time>2011-11-18T10:16:58Z</time>
  <speed>6.570000</speed>
</trkpt>
<trkpt lat="31.786764145" lon="35.398956299">
  <ele>100.619751</ele>
  <time>2011-11-18T10:16:59Z</time>
  <speed>6.720000</speed>
</trkpt>
<trkpt lat="31.786771774" lon="35.399028778">
  <ele>99.906860</ele>
  <time>2011-11-18T10:17:00Z</time>
  <speed>6.750000</speed>
</trkpt>
<trkpt lat="31.786783218" lon="35.399097443">
  <ele>99.715454</ele>
  <time>2011-11-18T10:17:01Z</time>
  <speed>6.220000</speed>
</trkpt>
<trkpt lat="31.786779404" lon="35.399166107">
  <ele>98.815063</ele>
  <time>2011-11-18T10:17:02Z</time>
  <speed>5.960000</speed>
</trkpt>
<trkpt lat="31.786760330" lon="35.399219513">
  <ele>98.287720</ele>
  <time>2011-11-18T10:17:03Z</time>
  <speed>5.560000</speed>
</trkpt>
<trkpt lat="31.786735535" lon="35.399269104">
  <ele>97.779907</ele>
  <time>2011-11-18T10:17:04Z</time>
  <speed>5.890000</speed>
</trkpt>
<trkpt lat="31.786725998" lon="35.399330139">
  <ele>97.145142</ele>
  <time>2011-11-18T10:17:05Z</time>
  <speed>6.080000</speed>
</trkpt>
<trkpt lat="31.786718369" lon="35.399398804">
  <ele>96.104126</ele>
  <time>2011-11-18T10:17:06Z</time>
  <speed>6.230000</speed>
</trkpt>
<trkpt lat="31.786710739" lon="35.399463654">
  <ele>95.209595</ele>
  <time>2011-11-18T10:17:07Z</time>
  <speed>6.150000</speed>
</trkpt>
<trkpt lat="31.786708832" lon="35.399528503">
  <ele>94.596313</ele>
  <time>2011-11-18T10:17:08Z</time>
  <speed>5.660000</speed>
</trkpt>
<trkpt lat="31.786708832" lon="35.399589539">
  <ele>94.387329</ele>
  <time>2011-11-18T10:17:09Z</time>
  <speed>5.150000</speed>
</trkpt>
<trkpt lat="31.786701202" lon="35.399639130">
  <ele>93.736938</ele>
  <time>2011-11-18T10:17:10Z</time>
  <speed>4.730000</speed>
</trkpt>
<trkpt lat="31.786699295" lon="35.399684906">
  <ele>94.633423</ele>
  <time>2011-11-18T10:17:11Z</time>
  <speed>3.880000</speed>
</trkpt>
<trkpt lat="31.786701202" lon="35.399726868">
  <ele>94.293579</ele>
  <time>2011-11-18T10:17:12Z</time>
  <speed>2.940000</speed>
</trkpt>
<trkpt lat="31.786674500" lon="35.399761200">
  <ele>93.936157</ele>
  <time>2011-11-18T10:17:14Z</time>
  <speed>2.400000</speed>
</trkpt>
<trkpt lat="31.786634445" lon="35.399776459">
  <ele>94.156860</ele>
  <time>2011-11-18T10:17:16Z</time>
  <speed>2.860000</speed>
</trkpt>
<trkpt lat="31.786605835" lon="35.399780273">
  <ele>94.135376</ele>
  <time>2011-11-18T10:17:17Z</time>
  <speed>2.610000</speed>
</trkpt>
<trkpt lat="31.786558151" lon="35.399791718">
  <ele>93.039673</ele>
  <time>2011-11-18T10:17:19Z</time>
  <speed>3.180000</speed>
</trkpt>
<trkpt lat="31.786516190" lon="35.399810791">
  <ele>92.289673</ele>
  <time>2011-11-18T10:17:21Z</time>
  <speed>2.690000</speed>
</trkpt>
<trkpt lat="31.786481857" lon="35.399826050">
  <ele>92.297485</ele>
  <time>2011-11-18T10:17:23Z</time>
  <speed>2.960000</speed>
</trkpt>
<trkpt lat="31.786439896" lon="35.399841309">
  <ele>91.908813</ele>
  <time>2011-11-18T10:17:25Z</time>
  <speed>2.660000</speed>
</trkpt>
<trkpt lat="31.786392212" lon="35.399856567">
  <ele>92.250610</ele>
  <time>2011-11-18T10:17:27Z</time>
  <speed>3.140000</speed>
</trkpt>
<trkpt lat="31.786361694" lon="35.399864197">
  <ele>92.217407</ele>
  <time>2011-11-18T10:17:28Z</time>
  <speed>3.880000</speed>
</trkpt>
<trkpt lat="31.786327362" lon="35.399875641">
  <ele>91.996704</ele>
  <time>2011-11-18T10:17:29Z</time>
  <speed>4.870000</speed>
</trkpt>
<trkpt lat="31.786287308" lon="35.399887085">
  <ele>91.693970</ele>
  <time>2011-11-18T10:17:30Z</time>
  <speed>5.260000</speed>
</trkpt>
<trkpt lat="31.786243439" lon="35.399913788">
  <ele>91.365845</ele>
  <time>2011-11-18T10:17:31Z</time>
  <speed>6.040000</speed>
</trkpt>
<trkpt lat="31.786195755" lon="35.399948120">
  <ele>90.891235</ele>
  <time>2011-11-18T10:17:32Z</time>
  <speed>6.540000</speed>
</trkpt>
<trkpt lat="31.786149979" lon="35.399990082">
  <ele>90.625610</ele>
  <time>2011-11-18T10:17:33Z</time>
  <speed>6.430000</speed>
</trkpt>
<trkpt lat="31.786104202" lon="35.400032043">
  <ele>90.399048</ele>
  <time>2011-11-18T10:17:34Z</time>
  <speed>6.920000</speed>
</trkpt>
<trkpt lat="31.786054611" lon="35.400081635">
  <ele>89.943970</ele>
  <time>2011-11-18T10:17:35Z</time>
  <speed>7.600000</speed>
</trkpt>
<trkpt lat="31.785999298" lon="35.400138855">
  <ele>89.690063</ele>
  <time>2011-11-18T10:17:36Z</time>
  <speed>8.020000</speed>
</trkpt>
<trkpt lat="31.785947800" lon="35.400203705">
  <ele>89.166626</ele>
  <time>2011-11-18T10:17:37Z</time>
  <speed>8.400000</speed>
</trkpt>
<trkpt lat="31.785900116" lon="35.400272369">
  <ele>88.598267</ele>
  <time>2011-11-18T10:17:38Z</time>
  <speed>8.480000</speed>
</trkpt>
<trkpt lat="31.785848618" lon="35.400348663">
  <ele>88.399048</ele>
  <time>2011-11-18T10:17:39Z</time>
  <speed>8.510000</speed>
</trkpt>
<trkpt lat="31.785802841" lon="35.400424957">
  <ele>87.799438</ele>
  <time>2011-11-18T10:17:40Z</time>
  <speed>8.560000</speed>
</trkpt>
<trkpt lat="31.785766602" lon="35.400508881">
  <ele>87.059204</ele>
  <time>2011-11-18T10:17:41Z</time>
  <speed>8.280000</speed>
</trkpt>
<trkpt lat="31.785751343" lon="35.400596619">
  <ele>86.192017</ele>
  <time>2011-11-18T10:17:42Z</time>
  <speed>8.120000</speed>
</trkpt>
<trkpt lat="31.785737991" lon="35.400684357">
  <ele>84.863892</ele>
  <time>2011-11-18T10:17:43Z</time>
  <speed>8.110000</speed>
</trkpt>
<trkpt lat="31.785720825" lon="35.400775909">
  <ele>83.760376</ele>
  <time>2011-11-18T10:17:44Z</time>
  <speed>8.430000</speed>
</trkpt>
<trkpt lat="31.785705566" lon="35.400863647">
  <ele>83.012329</ele>
  <time>2011-11-18T10:17:45Z</time>
  <speed>8.510000</speed>
</trkpt>
<trkpt lat="31.785690308" lon="35.400955200">
  <ele>82.328735</ele>
  <time>2011-11-18T10:17:46Z</time>
  <speed>8.720000</speed>
</trkpt>
<trkpt lat="31.785675049" lon="35.401050568">
  <ele>81.731079</ele>
  <time>2011-11-18T10:17:47Z</time>
  <speed>8.360000</speed>
</trkpt>
<trkpt lat="31.785673141" lon="35.401145935">
  <ele>81.846313</ele>
  <time>2011-11-18T10:17:48Z</time>
  <speed>8.020000</speed>
</trkpt>
<trkpt lat="31.785669327" lon="35.401214600">
  <ele>81.865845</ele>
  <time>2011-11-18T10:17:49Z</time>
  <speed>4.720000</speed>
</trkpt>
<trkpt lat="31.785659790" lon="35.401252747">
  <ele>81.953735</ele>
  <time>2011-11-18T10:17:50Z</time>
  <speed>3.210000</speed>
</trkpt>
<trkpt lat="31.785640717" lon="35.401275635">
  <ele>81.922485</ele>
  <time>2011-11-18T10:17:51Z</time>
  <speed>3.220000</speed>
</trkpt>
<trkpt lat="31.785621643" lon="35.401298523">
  <ele>81.662720</ele>
  <time>2011-11-18T10:17:52Z</time>
  <speed>3.590000</speed>
</trkpt>
<trkpt lat="31.785598755" lon="35.401325226">
  <ele>81.059204</ele>
  <time>2011-11-18T10:17:53Z</time>
  <speed>4.150000</speed>
</trkpt>
<trkpt lat="31.785566330" lon="35.401332855">
  <ele>80.422485</ele>
  <time>2011-11-18T10:17:54Z</time>
  <speed>4.440000</speed>
</trkpt>
<trkpt lat="31.785524368" lon="35.401329041">
  <ele>79.668579</ele>
  <time>2011-11-18T10:17:55Z</time>
  <speed>4.980000</speed>
</trkpt>
<trkpt lat="31.785482407" lon="35.401329041">
  <ele>79.192017</ele>
  <time>2011-11-18T10:17:56Z</time>
  <speed>4.760000</speed>
</trkpt>
<trkpt lat="31.785438538" lon="35.401344299">
  <ele>79.240845</ele>
  <time>2011-11-18T10:17:57Z</time>
  <speed>4.780000</speed>
</trkpt>
<trkpt lat="31.785402298" lon="35.401355743">
  <ele>78.836548</ele>
  <time>2011-11-18T10:17:58Z</time>
  <speed>3.980000</speed>
</trkpt>
<trkpt lat="31.785371780" lon="35.401374817">
  <ele>78.869751</ele>
  <time>2011-11-18T10:17:59Z</time>
  <speed>3.560000</speed>
</trkpt>
<trkpt lat="31.785343170" lon="35.401390076">
  <ele>77.637329</ele>
  <time>2011-11-18T10:18:00Z</time>
  <speed>3.700000</speed>
</trkpt>
<trkpt lat="31.785318375" lon="35.401409149">
  <ele>77.506470</ele>
  <time>2011-11-18T10:18:01Z</time>
  <speed>3.400000</speed>
</trkpt>
<trkpt lat="31.785268784" lon="35.401435852">
  <ele>76.401001</ele>
  <time>2011-11-18T10:18:03Z</time>
  <speed>3.530000</speed>
</trkpt>
<trkpt lat="31.785240173" lon="35.401447296">
  <ele>76.180298</ele>
  <time>2011-11-18T10:18:04Z</time>
  <speed>3.510000</speed>
</trkpt>
<trkpt lat="31.785207748" lon="35.401462555">
  <ele>76.026001</ele>
  <time>2011-11-18T10:18:05Z</time>
  <speed>4.560000</speed>
</trkpt>
<trkpt lat="31.785165787" lon="35.401485443">
  <ele>76.555298</ele>
  <time>2011-11-18T10:18:06Z</time>
  <speed>4.740000</speed>
</trkpt>
<trkpt lat="31.785135269" lon="35.401515961">
  <ele>75.576782</ele>
  <time>2011-11-18T10:18:07Z</time>
  <speed>4.630000</speed>
</trkpt>
<trkpt lat="31.785118103" lon="35.401565552">
  <ele>75.375610</ele>
  <time>2011-11-18T10:18:08Z</time>
  <speed>4.660000</speed>
</trkpt>
<trkpt lat="31.785123825" lon="35.401618958">
  <ele>74.606079</ele>
  <time>2011-11-18T10:18:09Z</time>
  <speed>5.360000</speed>
</trkpt>
<trkpt lat="31.785131454" lon="35.401676178">
  <ele>74.145142</ele>
  <time>2011-11-18T10:18:10Z</time>
  <speed>5.470000</speed>
</trkpt>
<trkpt lat="31.785137177" lon="35.401733398">
  <ele>73.565063</ele>
  <time>2011-11-18T10:18:11Z</time>
  <speed>5.120000</speed>
</trkpt>
<trkpt lat="31.785146713" lon="35.401782990">
  <ele>72.889282</ele>
  <time>2011-11-18T10:18:12Z</time>
  <speed>4.240000</speed>
</trkpt>
<trkpt lat="31.785150528" lon="35.401824951">
  <ele>73.119751</ele>
  <time>2011-11-18T10:18:13Z</time>
  <speed>3.500000</speed>
</trkpt>
<trkpt lat="31.785148621" lon="35.401863098">
  <ele>72.598267</ele>
  <time>2011-11-18T10:18:14Z</time>
  <speed>3.690000</speed>
</trkpt>
<trkpt lat="31.785154343" lon="35.401905060">
  <ele>72.848267</ele>
  <time>2011-11-18T10:18:15Z</time>
  <speed>3.910000</speed>
</trkpt>
<trkpt lat="31.785137177" lon="35.401939392">
  <ele>72.182251</ele>
  <time>2011-11-18T10:18:16Z</time>
  <speed>4.190000</speed>
</trkpt>
<trkpt lat="31.785108566" lon="35.401962280">
  <ele>72.309204</ele>
  <time>2011-11-18T10:18:17Z</time>
  <speed>3.330000</speed>
</trkpt>
<trkpt lat="31.785081863" lon="35.401969910">
  <ele>71.563110</ele>
  <time>2011-11-18T10:18:18Z</time>
  <speed>3.260000</speed>
</trkpt>
<trkpt lat="31.785051346" lon="35.401969910">
  <ele>70.774048</ele>
  <time>2011-11-18T10:18:19Z</time>
  <speed>3.700000</speed>
</trkpt>
<trkpt lat="31.785017014" lon="35.401962280">
  <ele>69.942017</ele>
  <time>2011-11-18T10:18:20Z</time>
  <speed>4.500000</speed>
</trkpt>
<trkpt lat="31.784971237" lon="35.401962280">
  <ele>69.594360</ele>
  <time>2011-11-18T10:18:21Z</time>
  <speed>4.780000</speed>
</trkpt>
<trkpt lat="31.784919739" lon="35.401962280">
  <ele>68.627563</ele>
  <time>2011-11-18T10:18:22Z</time>
  <speed>5.790000</speed>
</trkpt>
<trkpt lat="31.784872055" lon="35.401973724">
  <ele>67.861938</ele>
  <time>2011-11-18T10:18:23Z</time>
  <speed>5.930000</speed>
</trkpt>
<trkpt lat="31.784816742" lon="35.401992798">
  <ele>67.611938</ele>
  <time>2011-11-18T10:18:24Z</time>
  <speed>6.110000</speed>
</trkpt>
<trkpt lat="31.784767151" lon="35.402023315">
  <ele>66.613892</ele>
  <time>2011-11-18T10:18:25Z</time>
  <speed>6.880000</speed>
</trkpt>
<trkpt lat="31.784709930" lon="35.402069092">
  <ele>66.344360</ele>
  <time>2011-11-18T10:18:26Z</time>
  <speed>6.890000</speed>
</trkpt>
<trkpt lat="31.784660339" lon="35.402114868">
  <ele>65.934204</ele>
  <time>2011-11-18T10:18:27Z</time>
  <speed>6.970000</speed>
</trkpt>
<trkpt lat="31.784612656" lon="35.402168274">
  <ele>65.766235</ele>
  <time>2011-11-18T10:18:28Z</time>
  <speed>6.580000</speed>
</trkpt>
<trkpt lat="31.784578323" lon="35.402221680">
  <ele>65.705688</ele>
  <time>2011-11-18T10:18:29Z</time>
  <speed>6.170000</speed>
</trkpt>
<trkpt lat="31.784540176" lon="35.402278900">
  <ele>65.904907</ele>
  <time>2011-11-18T10:18:30Z</time>
  <speed>5.820000</speed>
</trkpt>
<trkpt lat="31.784513474" lon="35.402332306">
  <ele>66.057251</ele>
  <time>2011-11-18T10:18:31Z</time>
  <speed>4.780000</speed>
</trkpt>
<trkpt lat="31.784496307" lon="35.402374268">
  <ele>66.481079</ele>
  <time>2011-11-18T10:18:32Z</time>
  <speed>4.110000</speed>
</trkpt>
<trkpt lat="31.784482956" lon="35.402416229">
  <ele>66.455688</ele>
  <time>2011-11-18T10:18:33Z</time>
  <speed>3.390000</speed>
</trkpt>
<trkpt lat="31.784460068" lon="35.402462006">
  <ele>67.568970</ele>
  <time>2011-11-18T10:18:35Z</time>
  <speed>2.320000</speed>
</trkpt>
<trkpt lat="31.784448624" lon="35.402503967">
  <ele>67.371704</ele>
  <time>2011-11-18T10:18:37Z</time>
  <speed>1.880000</speed>
</trkpt>
<trkpt lat="31.784456253" lon="35.402549744">
  <ele>67.176392</ele>
  <time>2011-11-18T10:18:39Z</time>
  <speed>2.610000</speed>
</trkpt>
<trkpt lat="31.784461975" lon="35.402584076">
  <ele>67.197876</ele>
  <time>2011-11-18T10:18:40Z</time>
  <speed>2.980000</speed>
</trkpt>
<trkpt lat="31.784479141" lon="35.402618408">
  <ele>67.152954</ele>
  <time>2011-11-18T10:18:41Z</time>
  <speed>3.590000</speed>
</trkpt>
<trkpt lat="31.784492493" lon="35.402660370">
  <ele>66.848267</ele>
  <time>2011-11-18T10:18:42Z</time>
  <speed>3.910000</speed>
</trkpt>
<trkpt lat="31.784503937" lon="35.402698517">
  <ele>66.988892</ele>
  <time>2011-11-18T10:18:43Z</time>
  <speed>3.410000</speed>
</trkpt>
<trkpt lat="31.784503937" lon="35.402736664">
  <ele>67.018188</ele>
  <time>2011-11-18T10:18:44Z</time>
  <speed>3.220000</speed>
</trkpt>
<trkpt lat="31.784488678" lon="35.402767181">
  <ele>67.367798</ele>
  <time>2011-11-18T10:18:45Z</time>
  <speed>3.160000</speed>
</trkpt>
<trkpt lat="31.784471512" lon="35.402793884">
  <ele>67.559204</ele>
  <time>2011-11-18T10:18:46Z</time>
  <speed>3.460000</speed>
</trkpt>
<trkpt lat="31.784448624" lon="35.402816772">
  <ele>67.803345</ele>
  <time>2011-11-18T10:18:47Z</time>
  <speed>3.170000</speed>
</trkpt>
<trkpt lat="31.784404755" lon="35.402851105">
  <ele>67.613892</ele>
  <time>2011-11-18T10:18:49Z</time>
  <speed>3.120000</speed>
</trkpt>
<trkpt lat="31.784362793" lon="35.402885437">
  <ele>68.182251</ele>
  <time>2011-11-18T10:18:51Z</time>
  <speed>2.730000</speed>
</trkpt>
<trkpt lat="31.784339905" lon="35.402908325">
  <ele>68.311157</ele>
  <time>2011-11-18T10:18:52Z</time>
  <speed>2.880000</speed>
</trkpt>
<trkpt lat="31.784317017" lon="35.402927399">
  <ele>68.883423</ele>
  <time>2011-11-18T10:18:53Z</time>
  <speed>2.700000</speed>
</trkpt>
<trkpt lat="31.784276962" lon="35.402965546">
  <ele>69.498657</ele>
  <time>2011-11-18T10:18:55Z</time>
  <speed>2.730000</speed>
</trkpt>
<trkpt lat="31.784240723" lon="35.402996063">
  <ele>70.576782</ele>
  <time>2011-11-18T10:18:57Z</time>
  <speed>2.540000</speed>
</trkpt>
<trkpt lat="31.784202576" lon="35.403034210">
  <ele>72.109985</ele>
  <time>2011-11-18T10:18:59Z</time>
  <speed>2.570000</speed>
</trkpt>
<trkpt lat="31.784166336" lon="35.403060913">
  <ele>73.244751</ele>
  <time>2011-11-18T10:19:01Z</time>
  <speed>2.240000</speed>
</trkpt>
<trkpt lat="31.784130096" lon="35.403076172">
  <ele>74.301392</ele>
  <time>2011-11-18T10:19:03Z</time>
  <speed>2.570000</speed>
</trkpt>
<trkpt lat="31.784093857" lon="35.403106689">
  <ele>74.973267</ele>
  <time>2011-11-18T10:19:05Z</time>
  <speed>2.680000</speed>
</trkpt>
<trkpt lat="31.784061432" lon="35.403141022">
  <ele>76.061157</ele>
  <time>2011-11-18T10:19:07Z</time>
  <speed>1.820000</speed>
</trkpt>
<trkpt lat="31.784055710" lon="35.403186798">
  <ele>76.520142</ele>
  <time>2011-11-18T10:19:09Z</time>
  <speed>2.080000</speed>
</trkpt>
<trkpt lat="31.784049988" lon="35.403224945">
  <ele>77.479126</ele>
  <time>2011-11-18T10:19:11Z</time>
  <speed>1.370000</speed>
</trkpt>
<trkpt lat="31.784030914" lon="35.403263092">
  <ele>77.738892</ele>
  <time>2011-11-18T10:19:14Z</time>
  <speed>1.440000</speed>
</trkpt>
<trkpt lat="31.784015656" lon="35.403289795">
  <ele>76.940063</ele>
  <time>2011-11-18T10:19:16Z</time>
  <speed>1.510000</speed>
</trkpt>
<trkpt lat="31.784002304" lon="35.403324127">
  <ele>76.449829</ele>
  <time>2011-11-18T10:19:18Z</time>
  <speed>1.490000</speed>
</trkpt>
<trkpt lat="31.784002304" lon="35.403358459">
  <ele>76.024048</ele>
  <time>2011-11-18T10:19:20Z</time>
  <speed>1.620000</speed>
</trkpt>
<trkpt lat="31.784019470" lon="35.403404236">
  <ele>75.643188</ele>
  <time>2011-11-18T10:19:22Z</time>
  <speed>2.550000</speed>
</trkpt>
<trkpt lat="31.784057617" lon="35.403442383">
  <ele>76.369751</ele>
  <time>2011-11-18T10:19:23Z</time>
  <speed>3.460000</speed>
</trkpt>
<trkpt lat="31.784080505" lon="35.403476715">
  <ele>76.031860</ele>
  <time>2011-11-18T10:19:24Z</time>
  <speed>3.830000</speed>
</trkpt>
<trkpt lat="31.784111023" lon="35.403518677">
  <ele>75.692017</ele>
  <time>2011-11-18T10:19:25Z</time>
  <speed>4.150000</speed>
</trkpt>
<trkpt lat="31.784122467" lon="35.403560638">
  <ele>74.992798</ele>
  <time>2011-11-18T10:19:26Z</time>
  <speed>3.930000</speed>
</trkpt>
<trkpt lat="31.784128189" lon="35.403606415">
  <ele>74.315063</ele>
  <time>2011-11-18T10:19:27Z</time>
  <speed>4.640000</speed>
</trkpt>
<trkpt lat="31.784124374" lon="35.403659821">
  <ele>73.658813</ele>
  <time>2011-11-18T10:19:28Z</time>
  <speed>5.020000</speed>
</trkpt>
<trkpt lat="31.784128189" lon="35.403720856">
  <ele>73.295532</ele>
  <time>2011-11-18T10:19:29Z</time>
  <speed>5.300000</speed>
</trkpt>
<trkpt lat="31.784130096" lon="35.403781891">
  <ele>72.877563</ele>
  <time>2011-11-18T10:19:30Z</time>
  <speed>5.220000</speed>
</trkpt>
<trkpt lat="31.784137726" lon="35.403839111">
  <ele>72.313110</ele>
  <time>2011-11-18T10:19:31Z</time>
  <speed>5.520000</speed>
</trkpt>
<trkpt lat="31.784141541" lon="35.403903961">
  <ele>71.955688</ele>
  <time>2011-11-18T10:19:32Z</time>
  <speed>5.860000</speed>
</trkpt>
<trkpt lat="31.784139633" lon="35.403968811">
  <ele>71.111938</ele>
  <time>2011-11-18T10:19:33Z</time>
  <speed>5.670000</speed>
</trkpt>
<trkpt lat="31.784132004" lon="35.404029846">
  <ele>70.166626</ele>
  <time>2011-11-18T10:19:34Z</time>
  <speed>5.670000</speed>
</trkpt>
<trkpt lat="31.784130096" lon="35.404090881">
  <ele>70.658813</ele>
  <time>2011-11-18T10:19:35Z</time>
  <speed>5.070000</speed>
</trkpt>
<trkpt lat="31.784141541" lon="35.404144287">
  <ele>70.307251</ele>
  <time>2011-11-18T10:19:36Z</time>
  <speed>5.340000</speed>
</trkpt>
<trkpt lat="31.784154892" lon="35.404201508">
  <ele>70.193970</ele>
  <time>2011-11-18T10:19:37Z</time>
  <speed>5.760000</speed>
</trkpt>
<trkpt lat="31.784168243" lon="35.404262543">
  <ele>69.350220</ele>
  <time>2011-11-18T10:19:38Z</time>
  <speed>5.630000</speed>
</trkpt>
<trkpt lat="31.784179688" lon="35.404319763">
  <ele>68.188110</ele>
  <time>2011-11-18T10:19:39Z</time>
  <speed>5.250000</speed>
</trkpt>
<trkpt lat="31.784185410" lon="35.404365540">
  <ele>67.928345</ele>
  <time>2011-11-18T10:19:40Z</time>
  <speed>4.740000</speed>
</trkpt>
<trkpt lat="31.784214020" lon="35.404407501">
  <ele>67.537720</ele>
  <time>2011-11-18T10:19:41Z</time>
  <speed>4.140000</speed>
</trkpt>
<trkpt lat="31.784235001" lon="35.404430389">
  <ele>67.205688</ele>
  <time>2011-11-18T10:19:42Z</time>
  <speed>3.460000</speed>
</trkpt>
<trkpt lat="31.784257889" lon="35.404457092">
  <ele>66.338501</ele>
  <time>2011-11-18T10:19:43Z</time>
  <speed>3.310000</speed>
</trkpt>
<trkpt lat="31.784284592" lon="35.404476166">
  <ele>65.836548</ele>
  <time>2011-11-18T10:19:44Z</time>
  <speed>3.550000</speed>
</trkpt>
<trkpt lat="31.784313202" lon="35.404483795">
  <ele>64.953735</ele>
  <time>2011-11-18T10:19:45Z</time>
  <speed>3.650000</speed>
</trkpt>
<trkpt lat="31.784345627" lon="35.404495239">
  <ele>64.217407</ele>
  <time>2011-11-18T10:19:46Z</time>
  <speed>3.800000</speed>
</trkpt>
<trkpt lat="31.784387589" lon="35.404506683">
  <ele>63.971985</ele>
  <time>2011-11-18T10:19:47Z</time>
  <speed>3.490000</speed>
</trkpt>
<trkpt lat="31.784418106" lon="35.404506683">
  <ele>64.082642</ele>
  <time>2011-11-18T10:19:48Z</time>
  <speed>2.640000</speed>
</trkpt>
<trkpt lat="31.784448624" lon="35.404514313">
  <ele>63.476868</ele>
  <time>2011-11-18T10:19:49Z</time>
  <speed>2.200000</speed>
</trkpt>
<trkpt lat="31.784488678" lon="35.404514313">
  <ele>62.993469</ele>
  <time>2011-11-18T10:19:51Z</time>
  <speed>2.090000</speed>
</trkpt>
<trkpt lat="31.784528732" lon="35.404499054">
  <ele>63.263000</ele>
  <time>2011-11-18T10:19:53Z</time>
  <speed>2.180000</speed>
</trkpt>
<trkpt lat="31.784563065" lon="35.404510498">
  <ele>62.093079</ele>
  <time>2011-11-18T10:19:55Z</time>
  <speed>2.400000</speed>
</trkpt>
<trkpt lat="31.784587860" lon="35.404529572">
  <ele>61.506165</ele>
  <time>2011-11-18T10:19:58Z</time>
  <speed>0.900000</speed>
</trkpt>
<trkpt lat="31.784608841" lon="35.404552460">
  <ele>60.254211</ele>
  <time>2011-11-18T10:20:13Z</time>
  <speed>0.870000</speed>
</trkpt>
<trkpt lat="31.784629822" lon="35.404575348">
  <ele>60.383118</ele>
  <time>2011-11-18T10:20:21Z</time>
  <speed>2.120000</speed>
</trkpt>
<trkpt lat="31.784633636" lon="35.404605865">
  <ele>59.889954</ele>
  <time>2011-11-18T10:20:22Z</time>
  <speed>3.100000</speed>
</trkpt>
<trkpt lat="31.784635544" lon="35.404644012">
  <ele>59.785461</ele>
  <time>2011-11-18T10:20:23Z</time>
  <speed>2.840000</speed>
</trkpt>
<trkpt lat="31.784643173" lon="35.404678345">
  <ele>59.388977</ele>
  <time>2011-11-18T10:20:24Z</time>
  <speed>2.900000</speed>
</trkpt>
<trkpt lat="31.784650803" lon="35.404716492">
  <ele>59.631165</ele>
  <time>2011-11-18T10:20:25Z</time>
  <speed>2.890000</speed>
</trkpt>
<trkpt lat="31.784660339" lon="35.404747009">
  <ele>59.363586</ele>
  <time>2011-11-18T10:20:26Z</time>
  <speed>3.610000</speed>
</trkpt>
<trkpt lat="31.784654617" lon="35.404792786">
  <ele>59.290344</ele>
  <time>2011-11-18T10:20:27Z</time>
  <speed>4.490000</speed>
</trkpt>
<trkpt lat="31.784643173" lon="35.404842377">
  <ele>58.353821</ele>
  <time>2011-11-18T10:20:28Z</time>
  <speed>5.100000</speed>
</trkpt>
<trkpt lat="31.784614563" lon="35.404880524">
  <ele>58.241516</ele>
  <time>2011-11-18T10:20:29Z</time>
  <speed>4.500000</speed>
</trkpt>
<trkpt lat="31.784587860" lon="35.404926300">
  <ele>58.092102</ele>
  <time>2011-11-18T10:20:30Z</time>
  <speed>4.950000</speed>
</trkpt>
<trkpt lat="31.784555435" lon="35.404972076">
  <ele>58.495422</ele>
  <time>2011-11-18T10:20:31Z</time>
  <speed>4.970000</speed>
</trkpt>
<trkpt lat="31.784530640" lon="35.405014038">
  <ele>58.435852</ele>
  <time>2011-11-18T10:20:32Z</time>
  <speed>4.550000</speed>
</trkpt>
<trkpt lat="31.784511566" lon="35.405048370">
  <ele>57.844055</ele>
  <time>2011-11-18T10:20:33Z</time>
  <speed>3.200000</speed>
</trkpt>
<trkpt lat="31.784494400" lon="35.405075073">
  <ele>57.689758</ele>
  <time>2011-11-18T10:20:34Z</time>
  <speed>2.750000</speed>
</trkpt>
<trkpt lat="31.784458160" lon="35.405109406">
  <ele>56.524719</ele>
  <time>2011-11-18T10:20:36Z</time>
  <speed>2.810000</speed>
</trkpt>
<trkpt lat="31.784437180" lon="35.405139923">
  <ele>56.349915</ele>
  <time>2011-11-18T10:20:37Z</time>
  <speed>2.730000</speed>
</trkpt>
<trkpt lat="31.784418106" lon="35.405170441">
  <ele>56.558899</ele>
  <time>2011-11-18T10:20:38Z</time>
  <speed>3.080000</speed>
</trkpt>
<trkpt lat="31.784400940" lon="35.405193329">
  <ele>55.891907</ele>
  <time>2011-11-18T10:20:39Z</time>
  <speed>3.290000</speed>
</trkpt>
<trkpt lat="31.784379959" lon="35.405231476">
  <ele>55.936829</ele>
  <time>2011-11-18T10:20:40Z</time>
  <speed>4.210000</speed>
</trkpt>
<trkpt lat="31.784364700" lon="35.405277252">
  <ele>54.882141</ele>
  <time>2011-11-18T10:20:41Z</time>
  <speed>3.440000</speed>
</trkpt>
<trkpt lat="31.784366608" lon="35.405315399">
  <ele>54.074524</ele>
  <time>2011-11-18T10:20:42Z</time>
  <speed>4.240000</speed>
</trkpt>
<trkpt lat="31.784379959" lon="35.405368805">
  <ele>53.613586</ele>
  <time>2011-11-18T10:20:43Z</time>
  <speed>5.050000</speed>
</trkpt>
<trkpt lat="31.784412384" lon="35.405426025">
  <ele>53.193665</ele>
  <time>2011-11-18T10:20:44Z</time>
  <speed>5.770000</speed>
</trkpt>
<trkpt lat="31.784450531" lon="35.405475616">
  <ele>52.220032</ele>
  <time>2011-11-18T10:20:45Z</time>
  <speed>5.950000</speed>
</trkpt>
<trkpt lat="31.784494400" lon="35.405525208">
  <ele>51.591125</ele>
  <time>2011-11-18T10:20:46Z</time>
  <speed>6.300000</speed>
</trkpt>
<trkpt lat="31.784540176" lon="35.405567169">
  <ele>50.351868</ele>
  <time>2011-11-18T10:20:47Z</time>
  <speed>6.330000</speed>
</trkpt>
<trkpt lat="31.784591675" lon="35.405609131">
  <ele>48.922180</ele>
  <time>2011-11-18T10:20:48Z</time>
  <speed>6.590000</speed>
</trkpt>
<trkpt lat="31.784645081" lon="35.405647278">
  <ele>46.983704</ele>
  <time>2011-11-18T10:20:49Z</time>
  <speed>6.630000</speed>
</trkpt>
<trkpt lat="31.784702301" lon="35.405681610">
  <ele>45.680969</ele>
  <time>2011-11-18T10:20:50Z</time>
  <speed>6.840000</speed>
</trkpt>
<trkpt lat="31.784761429" lon="35.405727386">
  <ele>44.923157</ele>
  <time>2011-11-18T10:20:51Z</time>
  <speed>6.960000</speed>
</trkpt>
<trkpt lat="31.784816742" lon="35.405776978">
  <ele>44.113586</ele>
  <time>2011-11-18T10:20:52Z</time>
  <speed>7.170000</speed>
</trkpt>
<trkpt lat="31.784870148" lon="35.405834198">
  <ele>43.311829</ele>
  <time>2011-11-18T10:20:53Z</time>
  <speed>7.380000</speed>
</trkpt>
<trkpt lat="31.784925461" lon="35.405891418">
  <ele>42.058899</ele>
  <time>2011-11-18T10:20:54Z</time>
  <speed>7.660000</speed>
</trkpt>
<trkpt lat="31.784963608" lon="35.405963898">
  <ele>40.267883</ele>
  <time>2011-11-18T10:20:55Z</time>
  <speed>8.060000</speed>
</trkpt>
<trkpt lat="31.784982681" lon="35.406047821">
  <ele>38.818665</ele>
  <time>2011-11-18T10:20:56Z</time>
  <speed>8.040000</speed>
</trkpt>
<trkpt lat="31.784990311" lon="35.406131744">
  <ele>37.682922</ele>
  <time>2011-11-18T10:20:57Z</time>
  <speed>7.830000</speed>
</trkpt>
<trkpt lat="31.784982681" lon="35.406219482">
  <ele>36.170227</ele>
  <time>2011-11-18T10:20:58Z</time>
  <speed>8.090000</speed>
</trkpt>
<trkpt lat="31.784963608" lon="35.406307220">
  <ele>35.211243</ele>
  <time>2011-11-18T10:20:59Z</time>
  <speed>8.680000</speed>
</trkpt>
<trkpt lat="31.784923553" lon="35.406391144">
  <ele>33.987610</ele>
  <time>2011-11-18T10:21:00Z</time>
  <speed>8.980000</speed>
</trkpt>
<trkpt lat="31.784894943" lon="35.406486511">
  <ele>33.659485</ele>
  <time>2011-11-18T10:21:01Z</time>
  <speed>9.560000</speed>
</trkpt>
<trkpt lat="31.784860611" lon="35.406585693">
  <ele>33.327454</ele>
  <time>2011-11-18T10:21:02Z</time>
  <speed>9.990000</speed>
</trkpt>
<trkpt lat="31.784830093" lon="35.406688690">
  <ele>31.627106</ele>
  <time>2011-11-18T10:21:03Z</time>
  <speed>9.970000</speed>
</trkpt>
<trkpt lat="31.784803391" lon="35.406795502">
  <ele>30.872223</ele>
  <time>2011-11-18T10:21:04Z</time>
  <speed>10.700000</speed>
</trkpt>
<trkpt lat="31.784776688" lon="35.406909943">
  <ele>29.904938</ele>
  <time>2011-11-18T10:21:05Z</time>
  <speed>11.000000</speed>
</trkpt>
<trkpt lat="31.784757614" lon="35.407028198">
  <ele>28.760895</ele>
  <time>2011-11-18T10:21:06Z</time>
  <speed>11.140000</speed>
</trkpt>
<trkpt lat="31.784748077" lon="35.407146454">
  <ele>27.343903</ele>
  <time>2011-11-18T10:21:07Z</time>
  <speed>10.990000</speed>
</trkpt>
<trkpt lat="31.784742355" lon="35.407264709">
  <ele>26.148590</ele>
  <time>2011-11-18T10:21:08Z</time>
  <speed>10.710000</speed>
</trkpt>
<trkpt lat="31.784744263" lon="35.407386780">
  <ele>25.447906</ele>
  <time>2011-11-18T10:21:09Z</time>
  <speed>10.410000</speed>
</trkpt>
<trkpt lat="31.784755707" lon="35.407501221">
  <ele>25.254547</ele>
  <time>2011-11-18T10:21:10Z</time>
  <speed>10.150000</speed>
</trkpt>
<trkpt lat="31.784776688" lon="35.407608032">
  <ele>24.568512</ele>
  <time>2011-11-18T10:21:11Z</time>
  <speed>10.050000</speed>
</trkpt>
<trkpt lat="31.784791946" lon="35.407711029">
  <ele>23.621735</ele>
  <time>2011-11-18T10:21:12Z</time>
  <speed>9.699999</speed>
</trkpt>
<trkpt lat="31.784811020" lon="35.407814026">
  <ele>22.800446</ele>
  <time>2011-11-18T10:21:13Z</time>
  <speed>9.350000</speed>
</trkpt>
<trkpt lat="31.784824371" lon="35.407909393">
  <ele>22.404449</ele>
  <time>2011-11-18T10:21:14Z</time>
  <speed>9.080000</speed>
</trkpt>
<trkpt lat="31.784841537" lon="35.408000946">
  <ele>22.006989</ele>
  <time>2011-11-18T10:21:15Z</time>
  <speed>9.260000</speed>
</trkpt>
<trkpt lat="31.784873962" lon="35.408100128">
  <ele>21.774567</ele>
  <time>2011-11-18T10:21:16Z</time>
  <speed>9.350000</speed>
</trkpt>
<trkpt lat="31.784904480" lon="35.408191681">
  <ele>21.051910</ele>
  <time>2011-11-18T10:21:17Z</time>
  <speed>9.300000</speed>
</trkpt>
<trkpt lat="31.784942627" lon="35.408290863">
  <ele>21.350739</ele>
  <time>2011-11-18T10:21:18Z</time>
  <speed>9.300000</speed>
</trkpt>
<trkpt lat="31.784982681" lon="35.408386230">
  <ele>21.500153</ele>
  <time>2011-11-18T10:21:19Z</time>
  <speed>9.150000</speed>
</trkpt>
<trkpt lat="31.785020828" lon="35.408477783">
  <ele>20.719879</ele>
  <time>2011-11-18T10:21:20Z</time>
  <speed>9.390000</speed>
</trkpt>
<trkpt lat="31.785068512" lon="35.408569336">
  <ele>20.085114</ele>
  <time>2011-11-18T10:21:21Z</time>
  <speed>9.020000</speed>
</trkpt>
<trkpt lat="31.785118103" lon="35.408653259">
  <ele>19.254547</ele>
  <time>2011-11-18T10:21:22Z</time>
  <speed>9.100000</speed>
</trkpt>
<trkpt lat="31.785167694" lon="35.408729553">
  <ele>18.661285</ele>
  <time>2011-11-18T10:21:23Z</time>
  <speed>9.160000</speed>
</trkpt>
<trkpt lat="31.785226822" lon="35.408809662">
  <ele>18.145172</ele>
  <time>2011-11-18T10:21:24Z</time>
  <speed>9.210000</speed>
</trkpt>
<trkpt lat="31.785282135" lon="35.408885956">
  <ele>18.026520</ele>
  <time>2011-11-18T10:21:25Z</time>
  <speed>9.230000</speed>
</trkpt>
<trkpt lat="31.785326004" lon="35.408958435">
  <ele>17.494293</ele>
  <time>2011-11-18T10:21:26Z</time>
  <speed>8.950000</speed>
</trkpt>
<trkpt lat="31.785381317" lon="35.409034729">
  <ele>17.563141</ele>
  <time>2011-11-18T10:21:27Z</time>
  <speed>8.740000</speed>
</trkpt>
<trkpt lat="31.785425186" lon="35.409107208">
  <ele>17.318024</ele>
  <time>2011-11-18T10:21:28Z</time>
  <speed>8.180000</speed>
</trkpt>
<trkpt lat="31.785446167" lon="35.409152985">
  <ele>17.609039</ele>
  <time>2011-11-18T10:21:29Z</time>
  <speed>3.170000</speed>
</trkpt>
<trkpt lat="31.785463333" lon="35.409179688">
  <ele>17.007965</ele>
  <time>2011-11-18T10:21:31Z</time>
  <speed>0.280000</speed>
</trkpt>
<trkpt lat="31.785465240" lon="35.409156799">
  <ele>14.739578</ele>
  <time>2011-11-18T10:23:52Z</time>
  <speed>0.030000</speed>
</trkpt>
<trkpt lat="31.785440445" lon="35.409141541">
  <ele>14.448074</ele>
  <time>2011-11-18T10:24:05Z</time>
</trkpt>
<trkpt lat="31.785436630" lon="35.409111023">
  <ele>14.324783</ele>
  <time>2011-11-18T10:24:25Z</time>
</trkpt>
<trkpt lat="31.785455704" lon="35.409149170">
  <ele>14.898026</ele>
  <time>2011-11-18T10:25:14Z</time>
  <speed>1.770000</speed>
</trkpt>
<trkpt lat="31.785472870" lon="35.409194946">
  <ele>15.024246</ele>
  <time>2011-11-18T10:25:16Z</time>
  <speed>2.350000</speed>
</trkpt>
<trkpt lat="31.785497665" lon="35.409248352">
  <ele>15.276199</ele>
  <time>2011-11-18T10:25:18Z</time>
  <speed>2.260000</speed>
</trkpt>
<trkpt lat="31.785516739" lon="35.409294128">
  <ele>15.459793</ele>
  <time>2011-11-18T10:25:20Z</time>
  <speed>2.630000</speed>
</trkpt>
<trkpt lat="31.785533905" lon="35.409324646">
  <ele>15.657547</ele>
  <time>2011-11-18T10:25:21Z</time>
  <speed>3.420000</speed>
</trkpt>
<trkpt lat="31.785551071" lon="35.409362793">
  <ele>16.041168</ele>
  <time>2011-11-18T10:25:22Z</time>
  <speed>3.470000</speed>
</trkpt>
<trkpt lat="31.785566330" lon="35.409397125">
  <ele>16.364899</ele>
  <time>2011-11-18T10:25:23Z</time>
  <speed>3.460000</speed>
</trkpt>
<trkpt lat="31.785585403" lon="35.409435272">
  <ele>16.789215</ele>
  <time>2011-11-18T10:25:24Z</time>
  <speed>3.590000</speed>
</trkpt>
<trkpt lat="31.785598755" lon="35.409469604">
  <ele>16.844391</ele>
  <time>2011-11-18T10:25:25Z</time>
  <speed>3.420000</speed>
</trkpt>
<trkpt lat="31.785612106" lon="35.409507751">
  <ele>17.105133</ele>
  <time>2011-11-18T10:25:26Z</time>
  <speed>3.150000</speed>
</trkpt>
<trkpt lat="31.785627365" lon="35.409542084">
  <ele>17.067047</ele>
  <time>2011-11-18T10:25:27Z</time>
  <speed>3.190000</speed>
</trkpt>
<trkpt lat="31.785633087" lon="35.409576416">
  <ele>17.257965</ele>
  <time>2011-11-18T10:25:28Z</time>
  <speed>2.980000</speed>
</trkpt>
<trkpt lat="31.785642624" lon="35.409606934">
  <ele>17.627106</ele>
  <time>2011-11-18T10:25:29Z</time>
  <speed>2.730000</speed>
</trkpt>
<trkpt lat="31.785654068" lon="35.409664154">
  <ele>17.812653</ele>
  <time>2011-11-18T10:25:31Z</time>
  <speed>2.510000</speed>
</trkpt>
<trkpt lat="31.785665512" lon="35.409721375">
  <ele>17.663239</ele>
  <time>2011-11-18T10:25:33Z</time>
  <speed>2.560000</speed>
</trkpt>
<trkpt lat="31.785675049" lon="35.409782410">
  <ele>18.647614</ele>
  <time>2011-11-18T10:25:35Z</time>
  <speed>2.430000</speed>
</trkpt>
<trkpt lat="31.785682678" lon="35.409839630">
  <ele>18.973785</ele>
  <time>2011-11-18T10:25:37Z</time>
  <speed>2.530000</speed>
</trkpt>
<trkpt lat="31.785680771" lon="35.409870148">
  <ele>19.430328</ele>
  <time>2011-11-18T10:25:38Z</time>
  <speed>2.430000</speed>
</trkpt>
<trkpt lat="31.785680771" lon="35.409915924">
  <ele>19.567047</ele>
  <time>2011-11-18T10:25:40Z</time>
  <speed>2.180000</speed>
</trkpt>
<trkpt lat="31.785688400" lon="35.409961700">
  <ele>19.604645</ele>
  <time>2011-11-18T10:25:42Z</time>
  <speed>2.050000</speed>
</trkpt>
<trkpt lat="31.785690308" lon="35.410003662">
  <ele>18.788239</ele>
  <time>2011-11-18T10:25:44Z</time>
  <speed>2.050000</speed>
</trkpt>
<trkpt lat="31.785696030" lon="35.410037994">
  <ele>18.114899</ele>
  <time>2011-11-18T10:25:46Z</time>
  <speed>1.720000</speed>
</trkpt>
<trkpt lat="31.785699844" lon="35.410072327">
  <ele>18.462555</ele>
  <time>2011-11-18T10:25:48Z</time>
  <speed>1.920000</speed>
</trkpt>
<trkpt lat="31.785697937" lon="35.410114288">
  <ele>17.412750</ele>
  <time>2011-11-18T10:25:50Z</time>
  <speed>1.590000</speed>
</trkpt>
<trkpt lat="31.785699844" lon="35.410144806">
  <ele>17.111969</ele>
  <time>2011-11-18T10:25:52Z</time>
  <speed>1.500000</speed>
</trkpt>
<trkpt lat="31.785699844" lon="35.410182953">
  <ele>16.863434</ele>
  <time>2011-11-18T10:25:54Z</time>
  <speed>1.970000</speed>
</trkpt>
<trkpt lat="31.785703659" lon="35.410236359">
  <ele>16.565094</ele>
  <time>2011-11-18T10:25:56Z</time>
  <speed>3.260000</speed>
</trkpt>
<trkpt lat="31.785707474" lon="35.410274506">
  <ele>15.775467</ele>
  <time>2011-11-18T10:25:57Z</time>
  <speed>3.620000</speed>
</trkpt>
<trkpt lat="31.785701752" lon="35.410316467">
  <ele>15.537430</ele>
  <time>2011-11-18T10:25:58Z</time>
  <speed>3.990000</speed>
</trkpt>
<trkpt lat="31.785697937" lon="35.410362244">
  <ele>15.087967</ele>
  <time>2011-11-18T10:25:59Z</time>
  <speed>4.570000</speed>
</trkpt>
<trkpt lat="31.785694122" lon="35.410408020">
  <ele>14.651443</ele>
  <time>2011-11-18T10:26:00Z</time>
  <speed>4.410000</speed>
</trkpt>
<trkpt lat="31.785688400" lon="35.410453796">
  <ele>14.336258</ele>
  <time>2011-11-18T10:26:01Z</time>
  <speed>4.320000</speed>
</trkpt>
<trkpt lat="31.785682678" lon="35.410503387">
  <ele>13.790604</ele>
  <time>2011-11-18T10:26:02Z</time>
  <speed>4.490000</speed>
</trkpt>
<trkpt lat="31.785678864" lon="35.410552979">
  <ele>13.087967</ele>
  <time>2011-11-18T10:26:03Z</time>
  <speed>4.780000</speed>
</trkpt>
<trkpt lat="31.785673141" lon="35.410606384">
  <ele>12.619949</ele>
  <time>2011-11-18T10:26:04Z</time>
  <speed>4.930000</speed>
</trkpt>
<trkpt lat="31.785665512" lon="35.410659790">
  <ele>11.728836</ele>
  <time>2011-11-18T10:26:05Z</time>
  <speed>4.970000</speed>
</trkpt>
<trkpt lat="31.785663605" lon="35.410713196">
  <ele>10.866776</ele>
  <time>2011-11-18T10:26:06Z</time>
  <speed>5.130000</speed>
</trkpt>
<trkpt lat="31.785665512" lon="35.410766602">
  <ele>9.438797</ele>
  <time>2011-11-18T10:26:07Z</time>
  <speed>5.310000</speed>
</trkpt>
<trkpt lat="31.785671234" lon="35.410827637">
  <ele>8.607498</ele>
  <time>2011-11-18T10:26:08Z</time>
  <speed>5.980000</speed>
</trkpt>
<trkpt lat="31.785682678" lon="35.410892487">
  <ele>7.677284</ele>
  <time>2011-11-18T10:26:09Z</time>
  <speed>6.130000</speed>
</trkpt>
<trkpt lat="31.785703659" lon="35.410953522">
  <ele>6.830971</ele>
  <time>2011-11-18T10:26:10Z</time>
  <speed>5.550000</speed>
</trkpt>
<trkpt lat="31.785720825" lon="35.411014557">
  <ele>6.489906</ele>
  <time>2011-11-18T10:26:11Z</time>
  <speed>5.970000</speed>
</trkpt>
<trkpt lat="31.785736084" lon="35.411067963">
  <ele>5.582802</ele>
  <time>2011-11-18T10:26:12Z</time>
  <speed>4.720000</speed>
</trkpt>
<trkpt lat="31.785736084" lon="35.411117554">
  <ele>4.521645</ele>
  <time>2011-11-18T10:26:13Z</time>
  <speed>4.950000</speed>
</trkpt>
<trkpt lat="31.785732269" lon="35.411174774">
  <ele>2.868671</ele>
  <time>2011-11-18T10:26:14Z</time>
  <speed>5.350000</speed>
</trkpt>
<trkpt lat="31.785726547" lon="35.411239624">
  <ele>2.271503</ele>
  <time>2011-11-18T10:26:15Z</time>
  <speed>6.690000</speed>
</trkpt>
<trkpt lat="31.785736084" lon="35.411304474">
  <ele>2.328938</ele>
  <time>2011-11-18T10:26:16Z</time>
  <speed>6.120000</speed>
</trkpt>
<trkpt lat="31.785751343" lon="35.411361694">
  <ele>2.457355</ele>
  <time>2011-11-18T10:26:17Z</time>
  <speed>4.890000</speed>
</trkpt>
<trkpt lat="31.785766602" lon="35.411407471">
  <ele>2.406269</ele>
  <time>2011-11-18T10:26:18Z</time>
  <speed>4.710000</speed>
</trkpt>
<trkpt lat="31.785779953" lon="35.411449432">
  <ele>1.803019</ele>
  <time>2011-11-18T10:26:19Z</time>
  <speed>4.540000</speed>
</trkpt>
<trkpt lat="31.785797119" lon="35.411487579">
  <ele>1.451303</ele>
  <time>2011-11-18T10:26:20Z</time>
  <speed>4.300000</speed>
</trkpt>
<trkpt lat="31.785810471" lon="35.411525726">
  <ele>1.809855</ele>
  <time>2011-11-18T10:26:21Z</time>
  <speed>4.420000</speed>
</trkpt>
<trkpt lat="31.785829544" lon="35.411563873">
  <ele>2.284138</ele>
  <time>2011-11-18T10:26:22Z</time>
  <speed>3.990000</speed>
</trkpt>
<trkpt lat="31.785846710" lon="35.411598206">
  <ele>1.963541</ele>
  <time>2011-11-18T10:26:23Z</time>
  <speed>3.700000</speed>
</trkpt>
<trkpt lat="31.785860062" lon="35.411632538">
  <ele>1.793039</ele>
  <time>2011-11-18T10:26:24Z</time>
  <speed>4.380000</speed>
</trkpt>
<trkpt lat="31.785875320" lon="35.411670685">
  <ele>1.762003</ele>
  <time>2011-11-18T10:26:25Z</time>
  <speed>4.500000</speed>
</trkpt>
<trkpt lat="31.785886765" lon="35.411716461">
  <ele>1.649912</ele>
  <time>2011-11-18T10:26:26Z</time>
  <speed>4.560000</speed>
</trkpt>
<trkpt lat="31.785894394" lon="35.411762238">
  <ele>1.836832</ele>
  <time>2011-11-18T10:26:27Z</time>
  <speed>4.300000</speed>
</trkpt>
<trkpt lat="31.785902023" lon="35.411804199">
  <ele>1.857981</ele>
  <time>2011-11-18T10:26:28Z</time>
  <speed>3.880000</speed>
</trkpt>
<trkpt lat="31.785907745" lon="35.411842346">
  <ele>1.611948</ele>
  <time>2011-11-18T10:26:29Z</time>
  <speed>3.700000</speed>
</trkpt>
<trkpt lat="31.785907745" lon="35.411880493">
  <ele>0.956029</ele>
  <time>2011-11-18T10:26:30Z</time>
  <speed>3.850000</speed>
</trkpt>
<trkpt lat="31.785907745" lon="35.411914825">
  <ele>-0.696904</ele>
  <time>2011-11-18T10:26:31Z</time>
  <speed>4.430000</speed>
</trkpt>
<trkpt lat="31.785913467" lon="35.411972046">
  <ele>-0.960500</ele>
  <time>2011-11-18T10:26:32Z</time>
  <speed>4.860000</speed>
</trkpt>
<trkpt lat="31.785905838" lon="35.412025452">
  <ele>-2.144672</ele>
  <time>2011-11-18T10:26:33Z</time>
  <speed>5.100000</speed>
</trkpt>
<trkpt lat="31.785903931" lon="35.412086487">
  <ele>-2.568378</ele>
  <time>2011-11-18T10:26:34Z</time>
  <speed>5.410000</speed>
</trkpt>
<trkpt lat="31.785905838" lon="35.412136078">
  <ele>-4.091713</ele>
  <time>2011-11-18T10:26:35Z</time>
  <speed>4.970000</speed>
</trkpt>
<trkpt lat="31.785913467" lon="35.412181854">
  <ele>-5.905067</ele>
  <time>2011-11-18T10:26:36Z</time>
  <speed>4.930000</speed>
</trkpt>
<trkpt lat="31.785934448" lon="35.412227631">
  <ele>-6.462563</ele>
  <time>2011-11-18T10:26:37Z</time>
  <speed>5.910000</speed>
</trkpt>
<trkpt lat="31.785947800" lon="35.412281036">
  <ele>-8.542313</ele>
  <time>2011-11-18T10:26:38Z</time>
  <speed>5.170000</speed>
</trkpt>
<trkpt lat="31.785959244" lon="35.412326813">
  <ele>-9.916580</ele>
  <time>2011-11-18T10:26:39Z</time>
  <speed>4.970000</speed>
</trkpt>
<trkpt lat="31.785966873" lon="35.412376404">
  <ele>-10.980057</ele>
  <time>2011-11-18T10:26:40Z</time>
  <speed>5.200000</speed>
</trkpt>
<trkpt lat="31.785982132" lon="35.412441254">
  <ele>-11.984940</ele>
  <time>2011-11-18T10:26:41Z</time>
  <speed>6.880000</speed>
</trkpt>
<trkpt lat="31.785999298" lon="35.412513733">
  <ele>-12.646561</ele>
  <time>2011-11-18T10:26:42Z</time>
  <speed>6.990000</speed>
</trkpt>
<trkpt lat="31.786020279" lon="35.412586212">
  <ele>-13.214676</ele>
  <time>2011-11-18T10:26:43Z</time>
  <speed>7.260000</speed>
</trkpt>
<trkpt lat="31.786048889" lon="35.412662506">
  <ele>-13.477615</ele>
  <time>2011-11-18T10:26:44Z</time>
  <speed>7.460000</speed>
</trkpt>
<trkpt lat="31.786075592" lon="35.412727356">
  <ele>-14.030106</ele>
  <time>2011-11-18T10:26:45Z</time>
  <speed>7.830000</speed>
</trkpt>
<trkpt lat="31.786119461" lon="35.412799835">
  <ele>-14.131180</ele>
  <time>2011-11-18T10:26:46Z</time>
  <speed>8.560000</speed>
</trkpt>
<trkpt lat="31.786167145" lon="35.412872314">
  <ele>-15.536453</ele>
  <time>2011-11-18T10:26:47Z</time>
  <speed>9.170000</speed>
</trkpt>
<trkpt lat="31.786216736" lon="35.412952423">
  <ele>-16.245270</ele>
  <time>2011-11-18T10:26:48Z</time>
  <speed>9.020000</speed>
</trkpt>
<trkpt lat="31.786268234" lon="35.413021088">
  <ele>-16.203766</ele>
  <time>2011-11-18T10:26:49Z</time>
  <speed>7.910000</speed>
</trkpt>
<trkpt lat="31.786300659" lon="35.413085938">
  <ele>-15.922195</ele>
  <time>2011-11-18T10:26:50Z</time>
  <speed>6.460000</speed>
</trkpt>
<trkpt lat="31.786317825" lon="35.413143158">
  <ele>-15.301834</ele>
  <time>2011-11-18T10:26:51Z</time>
  <speed>5.940000</speed>
</trkpt>
<trkpt lat="31.786334991" lon="35.413192749">
  <ele>-16.166656</ele>
  <time>2011-11-18T10:26:52Z</time>
  <speed>5.130000</speed>
</trkpt>
<trkpt lat="31.786333084" lon="35.413242340">
  <ele>-17.534821</ele>
  <time>2011-11-18T10:26:53Z</time>
  <speed>4.730000</speed>
</trkpt>
<trkpt lat="31.786329269" lon="35.413288116">
  <ele>-17.625153</ele>
  <time>2011-11-18T10:26:54Z</time>
  <speed>4.680000</speed>
</trkpt>
<trkpt lat="31.786323547" lon="35.413337708">
  <ele>-18.343903</ele>
  <time>2011-11-18T10:26:55Z</time>
  <speed>4.290000</speed>
</trkpt>
<trkpt lat="31.786317825" lon="35.413375854">
  <ele>-18.409332</ele>
  <time>2011-11-18T10:26:56Z</time>
  <speed>3.680000</speed>
</trkpt>
<trkpt lat="31.786310196" lon="35.413410187">
  <ele>-18.920563</ele>
  <time>2011-11-18T10:26:57Z</time>
  <speed>3.430000</speed>
</trkpt>
<trkpt lat="31.786302567" lon="35.413444519">
  <ele>-19.549469</ele>
  <time>2011-11-18T10:26:58Z</time>
  <speed>3.190000</speed>
</trkpt>
<trkpt lat="31.786294937" lon="35.413478851">
  <ele>-20.027985</ele>
  <time>2011-11-18T10:26:59Z</time>
  <speed>2.820000</speed>
</trkpt>
<trkpt lat="31.786270142" lon="35.413516998">
  <ele>-21.440094</ele>
  <time>2011-11-18T10:27:01Z</time>
  <speed>1.970000</speed>
</trkpt>
<trkpt lat="31.786245346" lon="35.413539886">
  <ele>-22.283844</ele>
  <time>2011-11-18T10:27:03Z</time>
  <speed>1.310000</speed>
</trkpt>
<trkpt lat="31.786226273" lon="35.413600922">
  <ele>-22.430328</ele>
  <time>2011-11-18T10:27:51Z</time>
  <speed>5.520000</speed>
</trkpt>
<trkpt lat="31.786230087" lon="35.413673401">
  <ele>-23.847809</ele>
  <time>2011-11-18T10:27:52Z</time>
  <speed>7.150000</speed>
</trkpt>
<trkpt lat="31.786226273" lon="35.413761139">
  <ele>-25.710602</ele>
  <time>2011-11-18T10:27:53Z</time>
  <speed>8.320000</speed>
</trkpt>
<trkpt lat="31.786231995" lon="35.413848877">
  <ele>-26.131012</ele>
  <time>2011-11-18T10:27:54Z</time>
  <speed>7.460000</speed>
</trkpt>
<trkpt lat="31.786243439" lon="35.413921356">
  <ele>-27.075348</ele>
  <time>2011-11-18T10:27:55Z</time>
  <speed>5.860000</speed>
</trkpt>
<trkpt lat="31.786252975" lon="35.413982391">
  <ele>-27.956696</ele>
  <time>2011-11-18T10:27:56Z</time>
  <speed>5.620000</speed>
</trkpt>
<trkpt lat="31.786262512" lon="35.414043427">
  <ele>-28.909821</ele>
  <time>2011-11-18T10:27:57Z</time>
  <speed>5.710000</speed>
</trkpt>
<trkpt lat="31.786272049" lon="35.414108276">
  <ele>-29.461578</ele>
  <time>2011-11-18T10:27:58Z</time>
  <speed>6.180000</speed>
</trkpt>
<trkpt lat="31.786287308" lon="35.414176941">
  <ele>-30.193024</ele>
  <time>2011-11-18T10:27:59Z</time>
  <speed>6.770000</speed>
</trkpt>
<trkpt lat="31.786312103" lon="35.414249420">
  <ele>-31.366852</ele>
  <time>2011-11-18T10:28:00Z</time>
  <speed>7.690000</speed>
</trkpt>
<trkpt lat="31.786336899" lon="35.414329529">
  <ele>-32.923157</ele>
  <time>2011-11-18T10:28:01Z</time>
  <speed>8.230000</speed>
</trkpt>
<trkpt lat="31.786375046" lon="35.414424896">
  <ele>-34.210266</ele>
  <time>2011-11-18T10:28:02Z</time>
  <speed>9.110000</speed>
</trkpt>
<trkpt lat="31.786415100" lon="35.414516449">
  <ele>-34.808899</ele>
  <time>2011-11-18T10:28:03Z</time>
  <speed>8.820000</speed>
</trkpt>
<trkpt lat="31.786447525" lon="35.414604187">
  <ele>-35.806946</ele>
  <time>2011-11-18T10:28:04Z</time>
  <speed>9.040000</speed>
</trkpt>
<trkpt lat="31.786478043" lon="35.414699554">
  <ele>-36.500305</ele>
  <time>2011-11-18T10:28:05Z</time>
  <speed>9.260000</speed>
</trkpt>
<trkpt lat="31.786518097" lon="35.414791107">
  <ele>-37.071594</ele>
  <time>2011-11-18T10:28:06Z</time>
  <speed>9.560000</speed>
</trkpt>
<trkpt lat="31.786548615" lon="35.414886475">
  <ele>-38.630188</ele>
  <time>2011-11-18T10:28:07Z</time>
  <speed>10.030000</speed>
</trkpt>
<trkpt lat="31.786582947" lon="35.414985657">
  <ele>-39.689758</ele>
  <time>2011-11-18T10:28:08Z</time>
  <speed>10.130000</speed>
</trkpt>
<trkpt lat="31.786615372" lon="35.415088654">
  <ele>-40.317688</ele>
  <time>2011-11-18T10:28:09Z</time>
  <speed>10.030000</speed>
</trkpt>
<trkpt lat="31.786642075" lon="35.415180206">
  <ele>-41.160461</ele>
  <time>2011-11-18T10:28:10Z</time>
  <speed>9.150000</speed>
</trkpt>
<trkpt lat="31.786651611" lon="35.415256500">
  <ele>-40.870422</ele>
  <time>2011-11-18T10:28:11Z</time>
  <speed>5.540000</speed>
</trkpt>
<trkpt lat="31.786661148" lon="35.415313721">
  <ele>-40.765930</ele>
  <time>2011-11-18T10:28:12Z</time>
  <speed>5.030000</speed>
</trkpt>
<trkpt lat="31.786672592" lon="35.415363312">
  <ele>-40.552063</ele>
  <time>2011-11-18T10:28:13Z</time>
  <speed>4.200000</speed>
</trkpt>
<trkpt lat="31.786672592" lon="35.415401459">
  <ele>-40.975891</ele>
  <time>2011-11-18T10:28:14Z</time>
  <speed>3.340000</speed>
</trkpt>
<trkpt lat="31.786684036" lon="35.415439606">
  <ele>-40.599915</ele>
  <time>2011-11-18T10:28:15Z</time>
  <speed>2.890000</speed>
</trkpt>
<trkpt lat="31.786689758" lon="35.415493011">
  <ele>-40.783508</ele>
  <time>2011-11-18T10:28:17Z</time>
  <speed>2.920000</speed>
</trkpt>
<trkpt lat="31.786703110" lon="35.415550232">
  <ele>-40.683899</ele>
  <time>2011-11-18T10:28:19Z</time>
  <speed>2.910000</speed>
</trkpt>
<trkpt lat="31.786716461" lon="35.415607452">
  <ele>-41.170227</ele>
  <time>2011-11-18T10:28:21Z</time>
  <speed>2.460000</speed>
</trkpt>
<trkpt lat="31.786733627" lon="35.415630341">
  <ele>-40.444641</ele>
  <time>2011-11-18T10:29:41Z</time>
</trkpt>
<trkpt lat="31.786725998" lon="35.415664673">
  <ele>-38.401672</ele>
  <time>2011-11-18T10:30:47Z</time>
  <speed>1.230000</speed>
</trkpt>
<trkpt lat="31.786714554" lon="35.415699005">
  <ele>-36.617493</ele>
  <time>2011-11-18T10:30:50Z</time>
  <speed>0.990000</speed>
</trkpt>
<trkpt lat="31.786710739" lon="35.415714264">
  <ele>-33.766907</ele>
  <time>2011-11-18T10:30:53Z</time>
  <speed>0.070000</speed>
</trkpt>
<trkpt lat="31.786710739" lon="35.415718079">
  <ele>-30.668610</ele>
  <time>2011-11-18T10:31:03Z</time>
  <speed>0.050000</speed>
</trkpt>
<trkpt lat="31.786689758" lon="35.415729523">
  <ele>-28.675446</ele>
  <time>2011-11-18T10:31:15Z</time>
  <speed>0.640000</speed>
</trkpt>
<trkpt lat="31.786676407" lon="35.415752411">
  <ele>-27.749664</ele>
  <time>2011-11-18T10:31:18Z</time>
  <speed>1.250000</speed>
</trkpt>
<trkpt lat="31.786668777" lon="35.415790558">
  <ele>-27.006012</ele>
  <time>2011-11-18T10:31:22Z</time>
  <speed>0.240000</speed>
</trkpt>
<trkpt lat="31.786663055" lon="35.415824890">
  <ele>-26.992340</ele>
  <time>2011-11-18T10:31:44Z</time>
  <speed>1.130000</speed>
</trkpt>
<trkpt lat="31.786642075" lon="35.415851593">
  <ele>-26.224274</ele>
  <time>2011-11-18T10:31:46Z</time>
  <speed>1.850000</speed>
</trkpt>
<trkpt lat="31.786623001" lon="35.415889740">
  <ele>-25.945465</ele>
  <time>2011-11-18T10:31:48Z</time>
  <speed>2.130000</speed>
</trkpt>
<trkpt lat="31.786594391" lon="35.415939331">
  <ele>-25.880524</ele>
  <time>2011-11-18T10:31:50Z</time>
  <speed>2.490000</speed>
</trkpt>
<trkpt lat="31.786575317" lon="35.416004181">
  <ele>-25.950836</ele>
  <time>2011-11-18T10:31:52Z</time>
  <speed>3.400000</speed>
</trkpt>
<trkpt lat="31.786558151" lon="35.416030884">
  <ele>-25.506012</ele>
  <time>2011-11-18T10:31:53Z</time>
  <speed>2.850000</speed>
</trkpt>
<trkpt lat="31.786533356" lon="35.416049957">
  <ele>-24.735016</ele>
  <time>2011-11-18T10:31:54Z</time>
  <speed>2.460000</speed>
</trkpt>
<trkpt lat="31.786514282" lon="35.416095734">
  <ele>-24.359039</ele>
  <time>2011-11-18T10:31:56Z</time>
  <speed>2.080000</speed>
</trkpt>
<trkpt lat="31.786500931" lon="35.416137695">
  <ele>-24.468903</ele>
  <time>2011-11-18T10:31:58Z</time>
  <speed>2.110000</speed>
</trkpt>
<trkpt lat="31.786493301" lon="35.416172028">
  <ele>-24.938629</ele>
  <time>2011-11-18T10:31:59Z</time>
  <speed>2.860000</speed>
</trkpt>
<trkpt lat="31.786491394" lon="35.416206360">
  <ele>-25.421051</ele>
  <time>2011-11-18T10:32:00Z</time>
  <speed>3.390000</speed>
</trkpt>
<trkpt lat="31.786489487" lon="35.416244507">
  <ele>-25.429840</ele>
  <time>2011-11-18T10:32:01Z</time>
  <speed>3.560000</speed>
</trkpt>
<trkpt lat="31.786483765" lon="35.416282654">
  <ele>-25.740875</ele>
  <time>2011-11-18T10:32:02Z</time>
  <speed>3.470000</speed>
</trkpt>
<trkpt lat="31.786479950" lon="35.416320801">
  <ele>-26.023590</ele>
  <time>2011-11-18T10:32:03Z</time>
  <speed>3.010000</speed>
</trkpt>
<trkpt lat="31.786476135" lon="35.416358948">
  <ele>-25.775543</ele>
  <time>2011-11-18T10:32:04Z</time>
  <speed>3.580000</speed>
</trkpt>
<trkpt lat="31.786474228" lon="35.416400909">
  <ele>-26.083160</ele>
  <time>2011-11-18T10:32:05Z</time>
  <speed>3.510000</speed>
</trkpt>
<trkpt lat="31.786472321" lon="35.416439056">
  <ele>-26.840973</ele>
  <time>2011-11-18T10:32:06Z</time>
  <speed>3.370000</speed>
</trkpt>
<trkpt lat="31.786479950" lon="35.416477203">
  <ele>-28.375641</ele>
  <time>2011-11-18T10:32:07Z</time>
  <speed>3.820000</speed>
</trkpt>
<trkpt lat="31.786493301" lon="35.416519165">
  <ele>-29.287262</ele>
  <time>2011-11-18T10:32:08Z</time>
  <speed>4.450000</speed>
</trkpt>
<trkpt lat="31.786504745" lon="35.416568756">
  <ele>-30.341461</ele>
  <time>2011-11-18T10:32:09Z</time>
  <speed>5.100000</speed>
</trkpt>
<trkpt lat="31.786506653" lon="35.416625977">
  <ele>-30.642731</ele>
  <time>2011-11-18T10:32:10Z</time>
  <speed>5.240000</speed>
</trkpt>
<trkpt lat="31.786497116" lon="35.416675568">
  <ele>-30.031403</ele>
  <time>2011-11-18T10:32:11Z</time>
  <speed>5.110000</speed>
</trkpt>
<trkpt lat="31.786470413" lon="35.416717529">
  <ele>-29.183258</ele>
  <time>2011-11-18T10:32:12Z</time>
  <speed>4.890000</speed>
</trkpt>
<trkpt lat="31.786441803" lon="35.416755676">
  <ele>-28.743805</ele>
  <time>2011-11-18T10:32:13Z</time>
  <speed>4.600000</speed>
</trkpt>
<trkpt lat="31.786422729" lon="35.416793823">
  <ele>-29.093414</ele>
  <time>2011-11-18T10:32:14Z</time>
  <speed>4.770000</speed>
</trkpt>
<trkpt lat="31.786405563" lon="35.416843414">
  <ele>-29.569000</ele>
  <time>2011-11-18T10:32:15Z</time>
  <speed>5.300000</speed>
</trkpt>
<trkpt lat="31.786384583" lon="35.416896820">
  <ele>-30.032867</ele>
  <time>2011-11-18T10:32:16Z</time>
  <speed>5.600000</speed>
</trkpt>
<trkpt lat="31.786363602" lon="35.416954041">
  <ele>-31.617828</ele>
  <time>2011-11-18T10:32:17Z</time>
  <speed>5.900000</speed>
</trkpt>
<trkpt lat="31.786350250" lon="35.417015076">
  <ele>-32.690735</ele>
  <time>2011-11-18T10:32:18Z</time>
  <speed>6.210000</speed>
</trkpt>
<trkpt lat="31.786333084" lon="35.417083740">
  <ele>-33.430969</ele>
  <time>2011-11-18T10:32:19Z</time>
  <speed>6.750000</speed>
</trkpt>
<trkpt lat="31.786315918" lon="35.417160034">
  <ele>-34.211243</ele>
  <time>2011-11-18T10:32:20Z</time>
  <speed>7.020000</speed>
</trkpt>
<trkpt lat="31.786289215" lon="35.417232513">
  <ele>-34.510071</ele>
  <time>2011-11-18T10:32:21Z</time>
  <speed>7.130000</speed>
</trkpt>
<trkpt lat="31.786270142" lon="35.417312622">
  <ele>-35.161438</ele>
  <time>2011-11-18T10:32:22Z</time>
  <speed>7.610000</speed>
</trkpt>
<trkpt lat="31.786252975" lon="35.417392731">
  <ele>-35.194641</ele>
  <time>2011-11-18T10:32:23Z</time>
  <speed>7.450000</speed>
</trkpt>
<trkpt lat="31.786228180" lon="35.417461395">
  <ele>-35.560852</ele>
  <time>2011-11-18T10:32:24Z</time>
  <speed>7.290000</speed>
</trkpt>
<trkpt lat="31.786199570" lon="35.417533875">
  <ele>-35.863586</ele>
  <time>2011-11-18T10:32:25Z</time>
  <speed>6.980000</speed>
</trkpt>
<trkpt lat="31.786170959" lon="35.417591095">
  <ele>-35.946594</ele>
  <time>2011-11-18T10:32:26Z</time>
  <speed>5.520000</speed>
</trkpt>
<trkpt lat="31.786146164" lon="35.417629242">
  <ele>-34.523743</ele>
  <time>2011-11-18T10:32:27Z</time>
  <speed>3.440000</speed>
</trkpt>
<trkpt lat="31.786117554" lon="35.417644501">
  <ele>-33.837219</ele>
  <time>2011-11-18T10:32:28Z</time>
  <speed>3.630000</speed>
</trkpt>
<trkpt lat="31.786088943" lon="35.417667389">
  <ele>-33.879211</ele>
  <time>2011-11-18T10:32:29Z</time>
  <speed>4.050000</speed>
</trkpt>
<trkpt lat="31.786062241" lon="35.417701721">
  <ele>-33.916321</ele>
  <time>2011-11-18T10:32:30Z</time>
  <speed>4.120000</speed>
</trkpt>
<trkpt lat="31.786039352" lon="35.417732239">
  <ele>-33.744446</ele>
  <time>2011-11-18T10:32:31Z</time>
  <speed>4.250000</speed>
</trkpt>
<trkpt lat="31.786018372" lon="35.417770386">
  <ele>-33.539368</ele>
  <time>2011-11-18T10:32:32Z</time>
  <speed>4.520000</speed>
</trkpt>
<trkpt lat="31.785999298" lon="35.417819977">
  <ele>-34.121399</ele>
  <time>2011-11-18T10:32:33Z</time>
  <speed>4.350000</speed>
</trkpt>
<trkpt lat="31.785991669" lon="35.417869568">
  <ele>-34.939758</ele>
  <time>2011-11-18T10:32:34Z</time>
  <speed>4.740000</speed>
</trkpt>
<trkpt lat="31.785985947" lon="35.417926788">
  <ele>-35.228821</ele>
  <time>2011-11-18T10:32:35Z</time>
  <speed>5.010000</speed>
</trkpt>
<trkpt lat="31.785978317" lon="35.417976379">
  <ele>-35.900696</ele>
  <time>2011-11-18T10:32:36Z</time>
  <speed>4.880000</speed>
</trkpt>
<trkpt lat="31.785976410" lon="35.418029785">
  <ele>-36.384094</ele>
  <time>2011-11-18T10:32:37Z</time>
  <speed>4.830000</speed>
</trkpt>
<trkpt lat="31.785974503" lon="35.418079376">
  <ele>-37.385071</ele>
  <time>2011-11-18T10:32:38Z</time>
  <speed>5.120000</speed>
</trkpt>
<trkpt lat="31.785974503" lon="35.418132782">
  <ele>-37.494446</ele>
  <time>2011-11-18T10:32:39Z</time>
  <speed>4.920000</speed>
</trkpt>
<trkpt lat="31.785961151" lon="35.418178558">
  <ele>-36.778625</ele>
  <time>2011-11-18T10:32:40Z</time>
  <speed>4.730000</speed>
</trkpt>
<trkpt lat="31.785938263" lon="35.418216705">
  <ele>-36.036438</ele>
  <time>2011-11-18T10:32:41Z</time>
  <speed>4.600000</speed>
</trkpt>
<trkpt lat="31.785900116" lon="35.418243408">
  <ele>-34.961243</ele>
  <time>2011-11-18T10:32:42Z</time>
  <speed>5.240000</speed>
</trkpt>
<trkpt lat="31.785860062" lon="35.418262482">
  <ele>-34.457336</ele>
  <time>2011-11-18T10:32:43Z</time>
  <speed>3.840000</speed>
</trkpt>
<trkpt lat="31.785831451" lon="35.418273926">
  <ele>-33.400696</ele>
  <time>2011-11-18T10:32:44Z</time>
  <speed>2.750000</speed>
</trkpt>
<trkpt lat="31.785793304" lon="35.418323517">
  <ele>-32.968079</ele>
  <time>2011-11-18T10:32:46Z</time>
  <speed>3.390000</speed>
</trkpt>
<trkpt lat="31.785768509" lon="35.418346405">
  <ele>-32.276672</ele>
  <time>2011-11-18T10:32:47Z</time>
  <speed>3.910000</speed>
</trkpt>
<trkpt lat="31.785747528" lon="35.418376923">
  <ele>-32.094055</ele>
  <time>2011-11-18T10:32:48Z</time>
  <speed>3.850000</speed>
</trkpt>
<trkpt lat="31.785726547" lon="35.418411255">
  <ele>-32.459290</ele>
  <time>2011-11-18T10:32:49Z</time>
  <speed>3.710000</speed>
</trkpt>
<trkpt lat="31.785717010" lon="35.418449402">
  <ele>-32.992493</ele>
  <time>2011-11-18T10:32:50Z</time>
  <speed>3.570000</speed>
</trkpt>
<trkpt lat="31.785709381" lon="35.418479919">
  <ele>-33.172180</ele>
  <time>2011-11-18T10:32:51Z</time>
  <speed>3.280000</speed>
</trkpt>
<trkpt lat="31.785701752" lon="35.418518066">
  <ele>-34.490540</ele>
  <time>2011-11-18T10:32:52Z</time>
  <speed>2.740000</speed>
</trkpt>
<trkpt lat="31.785703659" lon="35.418552399">
  <ele>-35.326477</ele>
  <time>2011-11-18T10:32:53Z</time>
  <speed>2.390000</speed>
</trkpt>
<trkpt lat="31.785713196" lon="35.418601990">
  <ele>-35.220032</ele>
  <time>2011-11-18T10:32:55Z</time>
  <speed>2.310000</speed>
</trkpt>
<trkpt lat="31.785722733" lon="35.418636322">
  <ele>-35.878235</ele>
  <time>2011-11-18T10:32:57Z</time>
  <speed>0.800000</speed>
</trkpt>
<trkpt lat="31.785718918" lon="35.418666840">
  <ele>-34.534485</ele>
  <time>2011-11-18T10:33:14Z</time>
  <speed>0.730000</speed>
</trkpt>
<trkpt lat="31.785711288" lon="35.418701172">
  <ele>-33.310852</ele>
  <time>2011-11-18T10:36:27Z</time>
  <speed>1.380000</speed>
</trkpt>
<trkpt lat="31.785688400" lon="35.418720245">
  <ele>-32.470032</ele>
  <time>2011-11-18T10:36:29Z</time>
  <speed>1.470000</speed>
</trkpt>
<trkpt lat="31.785652161" lon="35.418735504">
  <ele>-31.973785</ele>
  <time>2011-11-18T10:36:32Z</time>
  <speed>1.120000</speed>
</trkpt>
<trkpt lat="31.785615921" lon="35.418750763">
  <ele>-31.070953</ele>
  <time>2011-11-18T10:36:35Z</time>
  <speed>1.170000</speed>
</trkpt>
<trkpt lat="31.785589218" lon="35.418769836">
  <ele>-30.583160</ele>
  <time>2011-11-18T10:36:39Z</time>
  <speed>0.120000</speed>
</trkpt>
<trkpt lat="31.785621643" lon="35.418777466">
  <ele>-33.624329</ele>
  <time>2011-11-18T10:38:36Z</time>
  <speed>1.140000</speed>
</trkpt>
<trkpt lat="31.785644531" lon="35.418796539">
  <ele>-34.498352</ele>
  <time>2011-11-18T10:38:38Z</time>
  <speed>1.630000</speed>
</trkpt>
<trkpt lat="31.785671234" lon="35.418804169">
  <ele>-35.602844</ele>
  <time>2011-11-18T10:38:40Z</time>
  <speed>0.930000</speed>
</trkpt>
<trkpt lat="31.785696030" lon="35.418815613">
  <ele>-36.644836</ele>
  <time>2011-11-18T10:38:42Z</time>
  <speed>1.470000</speed>
</trkpt>
<trkpt lat="31.785728455" lon="35.418823242">
  <ele>-37.386047</ele>
  <time>2011-11-18T10:38:45Z</time>
  <speed>1.010000</speed>
</trkpt>
<trkpt lat="31.785758972" lon="35.418838501">
  <ele>-37.620422</ele>
  <time>2011-11-18T10:38:48Z</time>
  <speed>1.080000</speed>
</trkpt>
<trkpt lat="31.785789490" lon="35.418830872">
  <ele>-39.481750</ele>
  <time>2011-11-18T10:38:52Z</time>
  <speed>0.560000</speed>
</trkpt>
<trkpt lat="31.785823822" lon="35.418834686">
  <ele>-40.304993</ele>
  <time>2011-11-18T10:38:55Z</time>
  <speed>1.850000</speed>
</trkpt>
<trkpt lat="31.785860062" lon="35.418815613">
  <ele>-40.781555</ele>
  <time>2011-11-18T10:38:57Z</time>
  <speed>2.700000</speed>
</trkpt>
<trkpt lat="31.785890579" lon="35.418800354">
  <ele>-40.270813</ele>
  <time>2011-11-18T10:38:58Z</time>
  <speed>3.610000</speed>
</trkpt>
<trkpt lat="31.785932541" lon="35.418781281">
  <ele>-40.130188</ele>
  <time>2011-11-18T10:38:59Z</time>
  <speed>5.730000</speed>
</trkpt>
<trkpt lat="31.785987854" lon="35.418762207">
  <ele>-39.937805</ele>
  <time>2011-11-18T10:39:00Z</time>
  <speed>6.500000</speed>
</trkpt>
<trkpt lat="31.786050797" lon="35.418746948">
  <ele>-39.919250</ele>
  <time>2011-11-18T10:39:01Z</time>
  <speed>7.110000</speed>
</trkpt>
<trkpt lat="31.786117554" lon="35.418724060">
  <ele>-39.894836</ele>
  <time>2011-11-18T10:39:02Z</time>
  <speed>7.540000</speed>
</trkpt>
<trkpt lat="31.786186218" lon="35.418697357">
  <ele>-40.426086</ele>
  <time>2011-11-18T10:39:03Z</time>
  <speed>7.970000</speed>
</trkpt>
<trkpt lat="31.786258698" lon="35.418689728">
  <ele>-41.738586</ele>
  <time>2011-11-18T10:39:04Z</time>
  <speed>8.230000</speed>
</trkpt>
<trkpt lat="31.786325455" lon="35.418704987">
  <ele>-42.548157</ele>
  <time>2011-11-18T10:39:05Z</time>
  <speed>6.690000</speed>
</trkpt>
<trkpt lat="31.786375046" lon="35.418750763">
  <ele>-43.878235</ele>
  <time>2011-11-18T10:39:06Z</time>
  <speed>6.830000</speed>
</trkpt>
<trkpt lat="31.786424637" lon="35.418800354">
  <ele>-43.812805</ele>
  <time>2011-11-18T10:39:07Z</time>
  <speed>7.180000</speed>
</trkpt>
<trkpt lat="31.786468506" lon="35.418849945">
  <ele>-44.265930</ele>
  <time>2011-11-18T10:39:08Z</time>
  <speed>6.770000</speed>
</trkpt>
<trkpt lat="31.786506653" lon="35.418891907">
  <ele>-44.403625</ele>
  <time>2011-11-18T10:39:09Z</time>
  <speed>5.900000</speed>
</trkpt>
<trkpt lat="31.786550522" lon="35.418930054">
  <ele>-44.197571</ele>
  <time>2011-11-18T10:39:10Z</time>
  <speed>6.030000</speed>
</trkpt>
<trkpt lat="31.786590576" lon="35.418964386">
  <ele>-44.400696</ele>
  <time>2011-11-18T10:39:11Z</time>
  <speed>5.340000</speed>
</trkpt>
<trkpt lat="31.786626816" lon="35.418991089">
  <ele>-44.509094</ele>
  <time>2011-11-18T10:39:12Z</time>
  <speed>4.720000</speed>
</trkpt>
<trkpt lat="31.786659241" lon="35.419010162">
  <ele>-44.774719</ele>
  <time>2011-11-18T10:39:13Z</time>
  <speed>3.900000</speed>
</trkpt>
<trkpt lat="31.786705017" lon="35.419040680">
  <ele>-44.772766</ele>
  <time>2011-11-18T10:39:15Z</time>
  <speed>3.360000</speed>
</trkpt>
<trkpt lat="31.786739349" lon="35.419086456">
  <ele>-44.760071</ele>
  <time>2011-11-18T10:39:17Z</time>
  <speed>3.010000</speed>
</trkpt>
<trkpt lat="31.786752701" lon="35.419113159">
  <ele>-45.534485</ele>
  <time>2011-11-18T10:39:18Z</time>
  <speed>3.080000</speed>
</trkpt>
<trkpt lat="31.786771774" lon="35.419143677">
  <ele>-45.461243</ele>
  <time>2011-11-18T10:39:19Z</time>
  <speed>3.260000</speed>
</trkpt>
<trkpt lat="31.786800385" lon="35.419189453">
  <ele>-45.381165</ele>
  <time>2011-11-18T10:39:21Z</time>
  <speed>2.730000</speed>
</trkpt>
<trkpt lat="31.786827087" lon="35.419235229">
  <ele>-45.120422</ele>
  <time>2011-11-18T10:39:23Z</time>
  <speed>2.750000</speed>
</trkpt>
<trkpt lat="31.786846161" lon="35.419258118">
  <ele>-45.272766</ele>
  <time>2011-11-18T10:39:24Z</time>
  <speed>2.920000</speed>
</trkpt>
<trkpt lat="31.786865234" lon="35.419284821">
  <ele>-45.087219</ele>
  <time>2011-11-18T10:39:25Z</time>
  <speed>3.260000</speed>
</trkpt>
<trkpt lat="31.786888123" lon="35.419307709">
  <ele>-44.931946</ele>
  <time>2011-11-18T10:39:26Z</time>
  <speed>3.290000</speed>
</trkpt>
<trkpt lat="31.786911011" lon="35.419334412">
  <ele>-44.740540</ele>
  <time>2011-11-18T10:39:27Z</time>
  <speed>3.620000</speed>
</trkpt>
<trkpt lat="31.786931992" lon="35.419361115">
  <ele>-44.536438</ele>
  <time>2011-11-18T10:39:28Z</time>
  <speed>3.440000</speed>
</trkpt>
<trkpt lat="31.786952972" lon="35.419387817">
  <ele>-44.375305</ele>
  <time>2011-11-18T10:39:29Z</time>
  <speed>3.560000</speed>
</trkpt>
<trkpt lat="31.786973953" lon="35.419414520">
  <ele>-44.373352</ele>
  <time>2011-11-18T10:39:30Z</time>
  <speed>3.380000</speed>
</trkpt>
<trkpt lat="31.786989212" lon="35.419441223">
  <ele>-44.566711</ele>
  <time>2011-11-18T10:39:31Z</time>
  <speed>3.370000</speed>
</trkpt>
<trkpt lat="31.786996841" lon="35.419475555">
  <ele>-44.523743</ele>
  <time>2011-11-18T10:39:32Z</time>
  <speed>3.000000</speed>
</trkpt>
<trkpt lat="31.787008286" lon="35.419509888">
  <ele>-44.483704</ele>
  <time>2011-11-18T10:39:33Z</time>
  <speed>3.300000</speed>
</trkpt>
<trkpt lat="31.787021637" lon="35.419540405">
  <ele>-44.513000</ele>
  <time>2011-11-18T10:39:34Z</time>
  <speed>2.920000</speed>
</trkpt>
<trkpt lat="31.787034988" lon="35.419570923">
  <ele>-44.309875</ele>
  <time>2011-11-18T10:39:35Z</time>
  <speed>2.810000</speed>
</trkpt>
<trkpt lat="31.787057877" lon="35.419624329">
  <ele>-44.178040</ele>
  <time>2011-11-18T10:39:37Z</time>
  <speed>2.980000</speed>
</trkpt>
<trkpt lat="31.787076950" lon="35.419677734">
  <ele>-43.491516</ele>
  <time>2011-11-18T10:39:39Z</time>
  <speed>2.910000</speed>
</trkpt>
<trkpt lat="31.787094116" lon="35.419704437">
  <ele>-43.613586</ele>
  <time>2011-11-18T10:39:40Z</time>
  <speed>2.740000</speed>
</trkpt>
<trkpt lat="31.787132263" lon="35.419746399">
  <ele>-43.472961</ele>
  <time>2011-11-18T10:39:42Z</time>
  <speed>3.140000</speed>
</trkpt>
<trkpt lat="31.787151337" lon="35.419769287">
  <ele>-43.300110</ele>
  <time>2011-11-18T10:39:43Z</time>
  <speed>3.040000</speed>
</trkpt>
<trkpt lat="31.787197113" lon="35.419803619">
  <ele>-43.747375</ele>
  <time>2011-11-18T10:39:45Z</time>
  <speed>3.600000</speed>
</trkpt>
<trkpt lat="31.787220001" lon="35.419815063">
  <ele>-46.096008</ele>
  <time>2011-11-18T10:39:46Z</time>
  <speed>3.770000</speed>
</trkpt>
<trkpt lat="31.787258148" lon="35.419837952">
  <ele>-46.581360</ele>
  <time>2011-11-18T10:39:47Z</time>
  <speed>5.170000</speed>
</trkpt>
<trkpt lat="31.787298203" lon="35.419876099">
  <ele>-47.212219</ele>
  <time>2011-11-18T10:39:48Z</time>
  <speed>6.220000</speed>
</trkpt>
<trkpt lat="31.787328720" lon="35.419925690">
  <ele>-47.230774</ele>
  <time>2011-11-18T10:39:49Z</time>
  <speed>5.050000</speed>
</trkpt>
<trkpt lat="31.787347794" lon="35.419979095">
  <ele>-47.605774</ele>
  <time>2011-11-18T10:39:50Z</time>
  <speed>4.940000</speed>
</trkpt>
<trkpt lat="31.787363052" lon="35.420024872">
  <ele>-47.009094</ele>
  <time>2011-11-18T10:39:51Z</time>
  <speed>3.850000</speed>
</trkpt>
<trkpt lat="31.787370682" lon="35.420066833">
  <ele>-47.109680</ele>
  <time>2011-11-18T10:39:52Z</time>
  <speed>3.990000</speed>
</trkpt>
<trkpt lat="31.787393570" lon="35.420112610">
  <ele>-47.651672</ele>
  <time>2011-11-18T10:39:53Z</time>
  <speed>5.210000</speed>
</trkpt>
<trkpt lat="31.787424088" lon="35.420177460">
  <ele>-47.825500</ele>
  <time>2011-11-18T10:39:54Z</time>
  <speed>7.360000</speed>
</trkpt>
<trkpt lat="31.787450790" lon="35.420242310">
  <ele>-48.719055</ele>
  <time>2011-11-18T10:39:55Z</time>
  <speed>7.220000</speed>
</trkpt>
<trkpt lat="31.787477493" lon="35.420318604">
  <ele>-49.134094</ele>
  <time>2011-11-18T10:39:56Z</time>
  <speed>7.870000</speed>
</trkpt>
<trkpt lat="31.787504196" lon="35.420391083">
  <ele>-49.864563</ele>
  <time>2011-11-18T10:39:57Z</time>
  <speed>7.740000</speed>
</trkpt>
<trkpt lat="31.787542343" lon="35.420467377">
  <ele>-50.231750</ele>
  <time>2011-11-18T10:39:58Z</time>
  <speed>8.060000</speed>
</trkpt>
<trkpt lat="31.787582397" lon="35.420543671">
  <ele>-50.570618</ele>
  <time>2011-11-18T10:39:59Z</time>
  <speed>8.340000</speed>
</trkpt>
<trkpt lat="31.787628174" lon="35.420627594">
  <ele>-50.946594</ele>
  <time>2011-11-18T10:40:00Z</time>
  <speed>9.480000</speed>
</trkpt>
<trkpt lat="31.787670135" lon="35.420711517">
  <ele>-51.896790</ele>
  <time>2011-11-18T10:40:01Z</time>
  <speed>8.950000</speed>
</trkpt>
<trkpt lat="31.787710190" lon="35.420799255">
  <ele>-51.774719</ele>
  <time>2011-11-18T10:40:02Z</time>
  <speed>9.150000</speed>
</trkpt>
<trkpt lat="31.787746429" lon="35.420875549">
  <ele>-51.910461</ele>
  <time>2011-11-18T10:40:03Z</time>
  <speed>7.910000</speed>
</trkpt>
<trkpt lat="31.787780762" lon="35.420944214">
  <ele>-51.899719</ele>
  <time>2011-11-18T10:40:04Z</time>
  <speed>7.250000</speed>
</trkpt>
<trkpt lat="31.787811279" lon="35.421012878">
  <ele>-51.644836</ele>
  <time>2011-11-18T10:40:05Z</time>
  <speed>6.700000</speed>
</trkpt>
<trkpt lat="31.787834167" lon="35.421073914">
  <ele>-51.410461</ele>
  <time>2011-11-18T10:40:06Z</time>
  <speed>5.240000</speed>
</trkpt>
<trkpt lat="31.787847519" lon="35.421119690">
  <ele>-51.088196</ele>
  <time>2011-11-18T10:40:07Z</time>
  <speed>4.190000</speed>
</trkpt>
<trkpt lat="31.787864685" lon="35.421150208">
  <ele>-50.519836</ele>
  <time>2011-11-18T10:40:08Z</time>
  <speed>3.250000</speed>
</trkpt>
<trkpt lat="31.787887573" lon="35.421176910">
  <ele>-50.034485</ele>
  <time>2011-11-18T10:40:09Z</time>
  <speed>3.050000</speed>
</trkpt>
<trkpt lat="31.787914276" lon="35.421195984">
  <ele>-49.557922</ele>
  <time>2011-11-18T10:40:10Z</time>
  <speed>2.640000</speed>
</trkpt>
<trkpt lat="31.787923813" lon="35.421234131">
  <ele>-48.967102</ele>
  <time>2011-11-18T10:40:12Z</time>
  <speed>2.030000</speed>
</trkpt>
<trkpt lat="31.787900925" lon="35.421268463">
  <ele>-48.747375</ele>
  <time>2011-11-18T10:40:14Z</time>
  <speed>2.050000</speed>
</trkpt>
<trkpt lat="31.787879944" lon="35.421291351">
  <ele>-47.228821</ele>
  <time>2011-11-18T10:40:17Z</time>
  <speed>0.720000</speed>
</trkpt>
<trkpt lat="31.787872314" lon="35.421318054">
  <ele>-45.205383</ele>
  <time>2011-11-18T10:40:22Z</time>
  <speed>0.410000</speed>
</trkpt>
<trkpt lat="31.787895203" lon="35.421348572">
  <ele>-44.568665</ele>
  <time>2011-11-18T10:40:26Z</time>
  <speed>1.720000</speed>
</trkpt>
<trkpt lat="31.787923813" lon="35.421379089">
  <ele>-44.820618</ele>
  <time>2011-11-18T10:40:28Z</time>
  <speed>2.250000</speed>
</trkpt>
<trkpt lat="31.787952423" lon="35.421413422">
  <ele>-44.693665</ele>
  <time>2011-11-18T10:40:30Z</time>
  <speed>2.340000</speed>
</trkpt>
<trkpt lat="31.787984848" lon="35.421447754">
  <ele>-43.760071</ele>
  <time>2011-11-18T10:40:32Z</time>
  <speed>2.240000</speed>
</trkpt>
<trkpt lat="31.788013458" lon="35.421485901">
  <ele>-43.554016</ele>
  <time>2011-11-18T10:40:34Z</time>
  <speed>2.280000</speed>
</trkpt>
<trkpt lat="31.788047791" lon="35.421516418">
  <ele>-42.325500</ele>
  <time>2011-11-18T10:40:36Z</time>
  <speed>2.240000</speed>
</trkpt>
<trkpt lat="31.788076401" lon="35.421550751">
  <ele>-41.795227</ele>
  <time>2011-11-18T10:40:38Z</time>
  <speed>2.170000</speed>
</trkpt>
<trkpt lat="31.788110733" lon="35.421573639">
  <ele>-40.531555</ele>
  <time>2011-11-18T10:40:40Z</time>
  <speed>2.080000</speed>
</trkpt>
<trkpt lat="31.788135529" lon="35.421600342">
  <ele>-39.611633</ele>
  <time>2011-11-18T10:40:42Z</time>
  <speed>1.960000</speed>
</trkpt>
<trkpt lat="31.788156509" lon="35.421638489">
  <ele>-39.986633</ele>
  <time>2011-11-18T10:40:44Z</time>
  <speed>2.670000</speed>
</trkpt>
<trkpt lat="31.788166046" lon="35.421695709">
  <ele>-40.497375</ele>
  <time>2011-11-18T10:40:46Z</time>
  <speed>3.050000</speed>
</trkpt>
<trkpt lat="31.788166046" lon="35.421733856">
  <ele>-40.236633</ele>
  <time>2011-11-18T10:40:47Z</time>
  <speed>3.870000</speed>
</trkpt>
<trkpt lat="31.788167953" lon="35.421775818">
  <ele>-40.728821</ele>
  <time>2011-11-18T10:40:48Z</time>
  <speed>4.130000</speed>
</trkpt>
<trkpt lat="31.788160324" lon="35.421829224">
  <ele>-41.114563</ele>
  <time>2011-11-18T10:40:49Z</time>
  <speed>5.100000</speed>
</trkpt>
<trkpt lat="31.788148880" lon="35.421886444">
  <ele>-41.913391</ele>
  <time>2011-11-18T10:40:50Z</time>
  <speed>5.710000</speed>
</trkpt>
<trkpt lat="31.788133621" lon="35.421951294">
  <ele>-42.629211</ele>
  <time>2011-11-18T10:40:51Z</time>
  <speed>6.030000</speed>
</trkpt>
<trkpt lat="31.788124084" lon="35.422016144">
  <ele>-42.809875</ele>
  <time>2011-11-18T10:40:52Z</time>
  <speed>5.880000</speed>
</trkpt>
<trkpt lat="31.788122177" lon="35.422077179">
  <ele>-43.469055</ele>
  <time>2011-11-18T10:40:53Z</time>
  <speed>5.670000</speed>
</trkpt>
<trkpt lat="31.788124084" lon="35.422138214">
  <ele>-43.728821</ele>
  <time>2011-11-18T10:40:54Z</time>
  <speed>5.250000</speed>
</trkpt>
<trkpt lat="31.788131714" lon="35.422191620">
  <ele>-43.994446</ele>
  <time>2011-11-18T10:40:55Z</time>
  <speed>4.830000</speed>
</trkpt>
<trkpt lat="31.788139343" lon="35.422241211">
  <ele>-44.102844</ele>
  <time>2011-11-18T10:40:56Z</time>
  <speed>4.130000</speed>
</trkpt>
<trkpt lat="31.788141251" lon="35.422279358">
  <ele>-44.123352</ele>
  <time>2011-11-18T10:40:57Z</time>
  <speed>3.320000</speed>
</trkpt>
<trkpt lat="31.788143158" lon="35.422313690">
  <ele>-43.568665</ele>
  <time>2011-11-18T10:40:58Z</time>
  <speed>2.580000</speed>
</trkpt>
<trkpt lat="31.788141251" lon="35.422367096">
  <ele>-43.291321</ele>
  <time>2011-11-18T10:41:00Z</time>
  <speed>1.950000</speed>
</trkpt>
<trkpt lat="31.788141251" lon="35.422412872">
  <ele>-43.456360</ele>
  <time>2011-11-18T10:41:02Z</time>
  <speed>2.150000</speed>
</trkpt>
<trkpt lat="31.788145065" lon="35.422454834">
  <ele>-42.179993</ele>
  <time>2011-11-18T10:41:04Z</time>
  <speed>1.810000</speed>
</trkpt>
<trkpt lat="31.788137436" lon="35.422485352">
  <ele>-41.939758</ele>
  <time>2011-11-18T10:41:06Z</time>
  <speed>1.880000</speed>
</trkpt>
<trkpt lat="31.788116455" lon="35.422531128">
  <ele>-42.656555</ele>
  <time>2011-11-18T10:41:08Z</time>
  <speed>2.730000</speed>
</trkpt>
<trkpt lat="31.788089752" lon="35.422573090">
  <ele>-42.675110</ele>
  <time>2011-11-18T10:41:10Z</time>
  <speed>2.490000</speed>
</trkpt>
<trkpt lat="31.788059235" lon="35.422607422">
  <ele>-43.093079</ele>
  <time>2011-11-18T10:41:12Z</time>
  <speed>2.090000</speed>
</trkpt>
<trkpt lat="31.788040161" lon="35.422660828">
  <ele>-43.480774</ele>
  <time>2011-11-18T10:41:14Z</time>
  <speed>3.770000</speed>
</trkpt>
<trkpt lat="31.788028717" lon="35.422698975">
  <ele>-43.886047</ele>
  <time>2011-11-18T10:41:15Z</time>
  <speed>4.050000</speed>
</trkpt>
<trkpt lat="31.788022995" lon="35.422744751">
  <ele>-44.977844</ele>
  <time>2011-11-18T10:41:16Z</time>
  <speed>4.910000</speed>
</trkpt>
<trkpt lat="31.788032532" lon="35.422809601">
  <ele>-46.628235</ele>
  <time>2011-11-18T10:41:17Z</time>
  <speed>6.960000</speed>
</trkpt>
<trkpt lat="31.788061142" lon="35.422878265">
  <ele>-47.672180</ele>
  <time>2011-11-18T10:41:18Z</time>
  <speed>7.700000</speed>
</trkpt>
<trkpt lat="31.788101196" lon="35.422950745">
  <ele>-49.717102</ele>
  <time>2011-11-18T10:41:19Z</time>
  <speed>8.520000</speed>
</trkpt>
<trkpt lat="31.788145065" lon="35.423027039">
  <ele>-52.198547</ele>
  <time>2011-11-18T10:41:20Z</time>
  <speed>9.280000</speed>
</trkpt>
<trkpt lat="31.788190842" lon="35.423107147">
  <ele>-52.294250</ele>
  <time>2011-11-18T10:41:21Z</time>
  <speed>8.790000</speed>
</trkpt>
<trkpt lat="31.788225174" lon="35.423183441">
  <ele>-53.622375</ele>
  <time>2011-11-18T10:41:22Z</time>
  <speed>7.440000</speed>
</trkpt>
<trkpt lat="31.788265228" lon="35.423252106">
  <ele>-52.953430</ele>
  <time>2011-11-18T10:41:23Z</time>
  <speed>7.400000</speed>
</trkpt>
<trkpt lat="31.788293839" lon="35.423309326">
  <ele>-52.977844</ele>
  <time>2011-11-18T10:41:24Z</time>
  <speed>5.450000</speed>
</trkpt>
<trkpt lat="31.788314819" lon="35.423355103">
  <ele>-53.865540</ele>
  <time>2011-11-18T10:41:25Z</time>
  <speed>4.720000</speed>
</trkpt>
<trkpt lat="31.788328171" lon="35.423389435">
  <ele>-53.970032</ele>
  <time>2011-11-18T10:41:26Z</time>
  <speed>2.970000</speed>
</trkpt>
<trkpt lat="31.788341522" lon="35.423423767">
  <ele>-53.930969</ele>
  <time>2011-11-18T10:41:28Z</time>
  <speed>1.380000</speed>
</trkpt>
<trkpt lat="31.788354874" lon="35.423458099">
  <ele>-53.634094</ele>
  <time>2011-11-18T10:41:30Z</time>
  <speed>1.800000</speed>
</trkpt>
<trkpt lat="31.788362503" lon="35.423500061">
  <ele>-53.179993</ele>
  <time>2011-11-18T10:41:32Z</time>
  <speed>2.370000</speed>
</trkpt>
<trkpt lat="31.788372040" lon="35.423542023">
  <ele>-53.392883</ele>
  <time>2011-11-18T10:41:34Z</time>
  <speed>1.720000</speed>
</trkpt>
<trkpt lat="31.788385391" lon="35.423583984">
  <ele>-51.848938</ele>
  <time>2011-11-18T10:41:36Z</time>
  <speed>1.600000</speed>
</trkpt>
<trkpt lat="31.788396835" lon="35.423610687">
  <ele>-51.401672</ele>
  <time>2011-11-18T10:41:38Z</time>
  <speed>1.840000</speed>
</trkpt>
<trkpt lat="31.788408279" lon="35.423645020">
  <ele>-50.963196</ele>
  <time>2011-11-18T10:41:40Z</time>
  <speed>1.870000</speed>
</trkpt>
<trkpt lat="31.788425446" lon="35.423675537">
  <ele>-50.465149</ele>
  <time>2011-11-18T10:41:42Z</time>
  <speed>1.710000</speed>
</trkpt>
<trkpt lat="31.788433075" lon="35.423713684">
  <ele>-50.379211</ele>
  <time>2011-11-18T10:41:44Z</time>
  <speed>1.550000</speed>
</trkpt>
<trkpt lat="31.788427353" lon="35.423751831">
  <ele>-49.963196</ele>
  <time>2011-11-18T10:41:47Z</time>
  <speed>1.030000</speed>
</trkpt>
<trkpt lat="31.788417816" lon="35.423782349">
  <ele>-49.048157</ele>
  <time>2011-11-18T10:41:49Z</time>
  <speed>2.270000</speed>
</trkpt>
<trkpt lat="31.788400650" lon="35.423843384">
  <ele>-48.837219</ele>
  <time>2011-11-18T10:41:51Z</time>
  <speed>3.810000</speed>
</trkpt>
<trkpt lat="31.788385391" lon="35.423889160">
  <ele>-48.860657</ele>
  <time>2011-11-18T10:41:52Z</time>
  <speed>4.580000</speed>
</trkpt>
<trkpt lat="31.788372040" lon="35.423934937">
  <ele>-49.049133</ele>
  <time>2011-11-18T10:41:53Z</time>
  <speed>5.340000</speed>
</trkpt>
<trkpt lat="31.788366318" lon="35.423995972">
  <ele>-48.318665</ele>
  <time>2011-11-18T10:41:54Z</time>
  <speed>5.390000</speed>
</trkpt>
<trkpt lat="31.788362503" lon="35.424053192">
  <ele>-48.019836</ele>
  <time>2011-11-18T10:41:55Z</time>
  <speed>4.870000</speed>
</trkpt>
<trkpt lat="31.788358688" lon="35.424098969">
  <ele>-47.668274</ele>
  <time>2011-11-18T10:41:56Z</time>
  <speed>4.280000</speed>
</trkpt>
<trkpt lat="31.788362503" lon="35.424144745">
  <ele>-47.495422</ele>
  <time>2011-11-18T10:41:57Z</time>
  <speed>3.620000</speed>
</trkpt>
<trkpt lat="31.788362503" lon="35.424175262">
  <ele>-47.100891</ele>
  <time>2011-11-18T10:41:58Z</time>
  <speed>2.930000</speed>
</trkpt>
<trkpt lat="31.788358688" lon="35.424232483">
  <ele>-47.221008</ele>
  <time>2011-11-18T10:42:00Z</time>
  <speed>2.910000</speed>
</trkpt>
<trkpt lat="31.788339615" lon="35.424285889">
  <ele>-47.529602</ele>
  <time>2011-11-18T10:42:02Z</time>
  <speed>2.780000</speed>
</trkpt>
<trkpt lat="31.788322449" lon="35.424312592">
  <ele>-48.846008</ele>
  <time>2011-11-18T10:42:03Z</time>
  <speed>3.070000</speed>
</trkpt>
<trkpt lat="31.788309097" lon="35.424343109">
  <ele>-49.149719</ele>
  <time>2011-11-18T10:42:04Z</time>
  <speed>3.030000</speed>
</trkpt>
<trkpt lat="31.788278580" lon="35.424388885">
  <ele>-49.983704</ele>
  <time>2011-11-18T10:42:06Z</time>
  <speed>2.880000</speed>
</trkpt>
<trkpt lat="31.788249969" lon="35.424400330">
  <ele>-50.362610</ele>
  <time>2011-11-18T10:42:07Z</time>
  <speed>3.280000</speed>
</trkpt>
<trkpt lat="31.788211823" lon="35.424404144">
  <ele>-50.963196</ele>
  <time>2011-11-18T10:42:08Z</time>
  <speed>4.010000</speed>
</trkpt>
<trkpt lat="31.788166046" lon="35.424407959">
  <ele>-51.372375</ele>
  <time>2011-11-18T10:42:09Z</time>
  <speed>4.550000</speed>
</trkpt>
<trkpt lat="31.788131714" lon="35.424423218">
  <ele>-52.108704</ele>
  <time>2011-11-18T10:42:10Z</time>
  <speed>4.720000</speed>
</trkpt>
<trkpt lat="31.788091660" lon="35.424457550">
  <ele>-52.650696</ele>
  <time>2011-11-18T10:42:11Z</time>
  <speed>5.200000</speed>
</trkpt>
<trkpt lat="31.788053513" lon="35.424488068">
  <ele>-53.554993</ele>
  <time>2011-11-18T10:42:12Z</time>
  <speed>4.330000</speed>
</trkpt>
<trkpt lat="31.788015366" lon="35.424510956">
  <ele>-54.748352</ele>
  <time>2011-11-18T10:42:13Z</time>
  <speed>4.310000</speed>
</trkpt>
<trkpt lat="31.787981033" lon="35.424533844">
  <ele>-55.511047</ele>
  <time>2011-11-18T10:42:14Z</time>
  <speed>4.420000</speed>
</trkpt>
<trkpt lat="31.787956238" lon="35.424571991">
  <ele>-55.946594</ele>
  <time>2011-11-18T10:42:15Z</time>
  <speed>4.920000</speed>
</trkpt>
<trkpt lat="31.787942886" lon="35.424633026">
  <ele>-56.028625</ele>
  <time>2011-11-18T10:42:16Z</time>
  <speed>5.440000</speed>
</trkpt>
<trkpt lat="31.787940979" lon="35.424694061">
  <ele>-56.555969</ele>
  <time>2011-11-18T10:42:17Z</time>
  <speed>5.590000</speed>
</trkpt>
<trkpt lat="31.787933350" lon="35.424758911">
  <ele>-57.115540</ele>
  <time>2011-11-18T10:42:18Z</time>
  <speed>6.050000</speed>
</trkpt>
<trkpt lat="31.787927628" lon="35.424823761">
  <ele>-57.729797</ele>
  <time>2011-11-18T10:42:19Z</time>
  <speed>6.100000</speed>
</trkpt>
<trkpt lat="31.787904739" lon="35.424877167">
  <ele>-57.547180</ele>
  <time>2011-11-18T10:42:20Z</time>
  <speed>5.240000</speed>
</trkpt>
<trkpt lat="31.787883759" lon="35.424915314">
  <ele>-57.809875</ele>
  <time>2011-11-18T10:42:21Z</time>
  <speed>3.540000</speed>
</trkpt>
<trkpt lat="31.787855148" lon="35.424934387">
  <ele>-58.239563</ele>
  <time>2011-11-18T10:42:22Z</time>
  <speed>2.800000</speed>
</trkpt>
<trkpt lat="31.787807465" lon="35.424942017">
  <ele>-59.094055</ele>
  <time>2011-11-18T10:42:24Z</time>
  <speed>2.280000</speed>
</trkpt>
<trkpt lat="31.787776947" lon="35.424930573">
  <ele>-59.862610</ele>
  <time>2011-11-18T10:42:25Z</time>
  <speed>2.720000</speed>
</trkpt>
<trkpt lat="31.787746429" lon="35.424926758">
  <ele>-60.182922</ele>
  <time>2011-11-18T10:42:26Z</time>
  <speed>3.140000</speed>
</trkpt>
<trkpt lat="31.787712097" lon="35.424926758">
  <ele>-60.873352</ele>
  <time>2011-11-18T10:42:27Z</time>
  <speed>3.810000</speed>
</trkpt>
<trkpt lat="31.787679672" lon="35.424930573">
  <ele>-61.573547</ele>
  <time>2011-11-18T10:42:28Z</time>
  <speed>3.680000</speed>
</trkpt>
<trkpt lat="31.787647247" lon="35.424926758">
  <ele>-62.684875</ele>
  <time>2011-11-18T10:42:29Z</time>
  <speed>3.180000</speed>
</trkpt>
<trkpt lat="31.787614822" lon="35.424922943">
  <ele>-62.905579</ele>
  <time>2011-11-18T10:42:30Z</time>
  <speed>2.820000</speed>
</trkpt>
<trkpt lat="31.787584305" lon="35.424919128">
  <ele>-63.699524</ele>
  <time>2011-11-18T10:42:31Z</time>
  <speed>3.190000</speed>
</trkpt>
<trkpt lat="31.787530899" lon="35.424934387">
  <ele>-63.890930</ele>
  <time>2011-11-18T10:42:33Z</time>
  <speed>2.460000</speed>
</trkpt>
<trkpt lat="31.787504196" lon="35.424968719">
  <ele>-62.721985</ele>
  <time>2011-11-18T10:42:35Z</time>
  <speed>2.100000</speed>
</trkpt>
<trkpt lat="31.787498474" lon="35.425006866">
  <ele>-61.680969</ele>
  <time>2011-11-18T10:42:37Z</time>
  <speed>1.460000</speed>
</trkpt>
<trkpt lat="31.787509918" lon="35.425048828">
  <ele>-61.652649</ele>
  <time>2011-11-18T10:42:40Z</time>
  <speed>1.440000</speed>
</trkpt>
<trkpt lat="31.787521362" lon="35.425086975">
  <ele>-61.731750</ele>
  <time>2011-11-18T10:42:42Z</time>
  <speed>2.430000</speed>
</trkpt>
<trkpt lat="31.787546158" lon="35.425128937">
  <ele>-61.569641</ele>
  <time>2011-11-18T10:42:44Z</time>
  <speed>2.070000</speed>
</trkpt>
<trkpt lat="31.787576675" lon="35.425155640">
  <ele>-61.586243</ele>
  <time>2011-11-18T10:42:46Z</time>
  <speed>2.010000</speed>
</trkpt>
<trkpt lat="31.787595749" lon="35.425186157">
  <ele>-61.897766</ele>
  <time>2011-11-18T10:42:48Z</time>
  <speed>1.810000</speed>
</trkpt>
<trkpt lat="31.787609100" lon="35.425224304">
  <ele>-61.726868</ele>
  <time>2011-11-18T10:42:50Z</time>
  <speed>1.970000</speed>
</trkpt>
<trkpt lat="31.787612915" lon="35.425270081">
  <ele>-61.420227</ele>
  <time>2011-11-18T10:42:52Z</time>
  <speed>2.440000</speed>
</trkpt>
<trkpt lat="31.787622452" lon="35.425331116">
  <ele>-61.118469</ele>
  <time>2011-11-18T10:42:54Z</time>
  <speed>2.700000</speed>
</trkpt>
<trkpt lat="31.787616730" lon="35.425388336">
  <ele>-62.141907</ele>
  <time>2011-11-18T10:42:56Z</time>
  <speed>2.980000</speed>
</trkpt>
<trkpt lat="31.787605286" lon="35.425422668">
  <ele>-62.251282</ele>
  <time>2011-11-18T10:42:57Z</time>
  <speed>4.070000</speed>
</trkpt>
<trkpt lat="31.787588120" lon="35.425460815">
  <ele>-62.893860</ele>
  <time>2011-11-18T10:42:58Z</time>
  <speed>3.790000</speed>
</trkpt>
<trkpt lat="31.787572861" lon="35.425502777">
  <ele>-62.810852</ele>
  <time>2011-11-18T10:42:59Z</time>
  <speed>4.190000</speed>
</trkpt>
<trkpt lat="31.787555695" lon="35.425544739">
  <ele>-62.523743</ele>
  <time>2011-11-18T10:43:00Z</time>
  <speed>4.470000</speed>
</trkpt>
<trkpt lat="31.787534714" lon="35.425579071">
  <ele>-62.846008</ele>
  <time>2011-11-18T10:43:01Z</time>
  <speed>4.280000</speed>
</trkpt>
<trkpt lat="31.787504196" lon="35.425609589">
  <ele>-63.138977</ele>
  <time>2011-11-18T10:43:02Z</time>
  <speed>3.850000</speed>
</trkpt>
<trkpt lat="31.787467957" lon="35.425621033">
  <ele>-63.634094</ele>
  <time>2011-11-18T10:43:03Z</time>
  <speed>4.480000</speed>
</trkpt>
<trkpt lat="31.787422180" lon="35.425636292">
  <ele>-63.950500</ele>
  <time>2011-11-18T10:43:04Z</time>
  <speed>4.830000</speed>
</trkpt>
<trkpt lat="31.787385941" lon="35.425659180">
  <ele>-64.690063</ele>
  <time>2011-11-18T10:43:05Z</time>
  <speed>4.550000</speed>
</trkpt>
<trkpt lat="31.787368774" lon="35.425701141">
  <ele>-65.041626</ele>
  <time>2011-11-18T10:43:06Z</time>
  <speed>3.640000</speed>
</trkpt>
<trkpt lat="31.787368774" lon="35.425739288">
  <ele>-65.377563</ele>
  <time>2011-11-18T10:43:07Z</time>
  <speed>3.430000</speed>
</trkpt>
<trkpt lat="31.787374496" lon="35.425769806">
  <ele>-65.690063</ele>
  <time>2011-11-18T10:43:08Z</time>
  <speed>3.050000</speed>
</trkpt>
<trkpt lat="31.787376404" lon="35.425819397">
  <ele>-66.162720</ele>
  <time>2011-11-18T10:43:10Z</time>
  <speed>1.470000</speed>
</trkpt>
<trkpt lat="31.787378311" lon="35.425849915">
  <ele>-66.922485</ele>
  <time>2011-11-18T10:43:12Z</time>
  <speed>1.970000</speed>
</trkpt>
<trkpt lat="31.787385941" lon="35.425891876">
  <ele>-68.201782</ele>
  <time>2011-11-18T10:43:14Z</time>
  <speed>2.140000</speed>
</trkpt>
<trkpt lat="31.787389755" lon="35.425941467">
  <ele>-68.369751</ele>
  <time>2011-11-18T10:43:16Z</time>
  <speed>2.560000</speed>
</trkpt>
<trkpt lat="31.787403107" lon="35.425994873">
  <ele>-68.440063</ele>
  <time>2011-11-18T10:43:18Z</time>
  <speed>2.710000</speed>
</trkpt>
<trkpt lat="31.787412643" lon="35.426052094">
  <ele>-68.543579</ele>
  <time>2011-11-18T10:43:20Z</time>
  <speed>2.760000</speed>
</trkpt>
<trkpt lat="31.787420273" lon="35.426101685">
  <ele>-68.951782</ele>
  <time>2011-11-18T10:43:22Z</time>
  <speed>2.750000</speed>
</trkpt>
<trkpt lat="31.787424088" lon="35.426139832">
  <ele>-68.871704</ele>
  <time>2011-11-18T10:43:23Z</time>
  <speed>3.610000</speed>
</trkpt>
<trkpt lat="31.787429810" lon="35.426177979">
  <ele>-70.008423</ele>
  <time>2011-11-18T10:43:24Z</time>
  <speed>3.820000</speed>
</trkpt>
<trkpt lat="31.787431717" lon="35.426216125">
  <ele>-70.254517</ele>
  <time>2011-11-18T10:43:25Z</time>
  <speed>3.930000</speed>
</trkpt>
<trkpt lat="31.787420273" lon="35.426258087">
  <ele>-71.307251</ele>
  <time>2011-11-18T10:43:26Z</time>
  <speed>3.750000</speed>
</trkpt>
<trkpt lat="31.787418365" lon="35.426296234">
  <ele>-71.576782</ele>
  <time>2011-11-18T10:43:27Z</time>
  <speed>3.520000</speed>
</trkpt>
<trkpt lat="31.787414551" lon="35.426334381">
  <ele>-72.481079</ele>
  <time>2011-11-18T10:43:28Z</time>
  <speed>3.420000</speed>
</trkpt>
<trkpt lat="31.787414551" lon="35.426372528">
  <ele>-73.295532</ele>
  <time>2011-11-18T10:43:29Z</time>
  <speed>4.000000</speed>
</trkpt>
<trkpt lat="31.787414551" lon="35.426418304">
  <ele>-73.805298</ele>
  <time>2011-11-18T10:43:30Z</time>
  <speed>3.650000</speed>
</trkpt>
<trkpt lat="31.787410736" lon="35.426452637">
  <ele>-73.350220</ele>
  <time>2011-11-18T10:43:31Z</time>
  <speed>3.520000</speed>
</trkpt>
<trkpt lat="31.787393570" lon="35.426479340">
  <ele>-74.029907</ele>
  <time>2011-11-18T10:43:32Z</time>
  <speed>2.880000</speed>
</trkpt>
<trkpt lat="31.787364960" lon="35.426494598">
  <ele>-74.207642</ele>
  <time>2011-11-18T10:43:33Z</time>
  <speed>2.890000</speed>
</trkpt>
<trkpt lat="31.787321091" lon="35.426509857">
  <ele>-74.162720</ele>
  <time>2011-11-18T10:43:35Z</time>
  <speed>2.810000</speed>
</trkpt>
<trkpt lat="31.787290573" lon="35.426513672">
  <ele>-73.942017</ele>
  <time>2011-11-18T10:43:36Z</time>
  <speed>3.060000</speed>
</trkpt>
<trkpt lat="31.787260056" lon="35.426517487">
  <ele>-74.416626</ele>
  <time>2011-11-18T10:43:37Z</time>
  <speed>2.340000</speed>
</trkpt>
<trkpt lat="31.787231445" lon="35.426521301">
  <ele>-74.377563</ele>
  <time>2011-11-18T10:43:38Z</time>
  <speed>2.720000</speed>
</trkpt>
<trkpt lat="31.787204742" lon="35.426528931">
  <ele>-74.824829</ele>
  <time>2011-11-18T10:43:39Z</time>
  <speed>2.870000</speed>
</trkpt>
<trkpt lat="31.787157059" lon="35.426559448">
  <ele>-74.568970</ele>
  <time>2011-11-18T10:43:41Z</time>
  <speed>3.420000</speed>
</trkpt>
<trkpt lat="31.787132263" lon="35.426582336">
  <ele>-74.881470</ele>
  <time>2011-11-18T10:43:42Z</time>
  <speed>3.630000</speed>
</trkpt>
<trkpt lat="31.787113190" lon="35.426620483">
  <ele>-75.109985</ele>
  <time>2011-11-18T10:43:43Z</time>
  <speed>4.510000</speed>
</trkpt>
<trkpt lat="31.787109375" lon="35.426673889">
  <ele>-74.729126</ele>
  <time>2011-11-18T10:43:44Z</time>
  <speed>5.130000</speed>
</trkpt>
<trkpt lat="31.787111282" lon="35.426727295">
  <ele>-75.346313</ele>
  <time>2011-11-18T10:43:45Z</time>
  <speed>5.390000</speed>
</trkpt>
<trkpt lat="31.787115097" lon="35.426792145">
  <ele>-76.342407</ele>
  <time>2011-11-18T10:43:46Z</time>
  <speed>6.030000</speed>
</trkpt>
<trkpt lat="31.787120819" lon="35.426856995">
  <ele>-76.717407</ele>
  <time>2011-11-18T10:43:47Z</time>
  <speed>6.280000</speed>
</trkpt>
<trkpt lat="31.787132263" lon="35.426929474">
  <ele>-77.391235</ele>
  <time>2011-11-18T10:43:48Z</time>
  <speed>7.190000</speed>
</trkpt>
<trkpt lat="31.787143707" lon="35.427005768">
  <ele>-77.744751</ele>
  <time>2011-11-18T10:43:49Z</time>
  <speed>7.310000</speed>
</trkpt>
<trkpt lat="31.787143707" lon="35.427082062">
  <ele>-78.236938</ele>
  <time>2011-11-18T10:43:50Z</time>
  <speed>6.960000</speed>
</trkpt>
<trkpt lat="31.787132263" lon="35.427154541">
  <ele>-79.553345</ele>
  <time>2011-11-18T10:43:51Z</time>
  <speed>6.620000</speed>
</trkpt>
<trkpt lat="31.787128448" lon="35.427223206">
  <ele>-79.719360</ele>
  <time>2011-11-18T10:43:52Z</time>
  <speed>6.730000</speed>
</trkpt>
<trkpt lat="31.787103653" lon="35.427291870">
  <ele>-80.846313</ele>
  <time>2011-11-18T10:43:53Z</time>
  <speed>6.800000</speed>
</trkpt>
<trkpt lat="31.787071228" lon="35.427356720">
  <ele>-81.922485</ele>
  <time>2011-11-18T10:43:54Z</time>
  <speed>7.320000</speed>
</trkpt>
<trkpt lat="31.787031174" lon="35.427421570">
  <ele>-82.785767</ele>
  <time>2011-11-18T10:43:55Z</time>
  <speed>7.440000</speed>
</trkpt>
<trkpt lat="31.786996841" lon="35.427486420">
  <ele>-83.449829</ele>
  <time>2011-11-18T10:43:56Z</time>
  <speed>7.390000</speed>
</trkpt>
<trkpt lat="31.786966324" lon="35.427555084">
  <ele>-84.143188</ele>
  <time>2011-11-18T10:43:57Z</time>
  <speed>6.780000</speed>
</trkpt>
<trkpt lat="31.786941528" lon="35.427619934">
  <ele>-84.719360</ele>
  <time>2011-11-18T10:43:58Z</time>
  <speed>6.400000</speed>
</trkpt>
<trkpt lat="31.786924362" lon="35.427684784">
  <ele>-85.504517</ele>
  <time>2011-11-18T10:43:59Z</time>
  <speed>6.490000</speed>
</trkpt>
<trkpt lat="31.786903381" lon="35.427761078">
  <ele>-86.276001</ele>
  <time>2011-11-18T10:44:00Z</time>
  <speed>6.840000</speed>
</trkpt>
<trkpt lat="31.786882401" lon="35.427829742">
  <ele>-86.014282</ele>
  <time>2011-11-18T10:44:01Z</time>
  <speed>6.640000</speed>
</trkpt>
<trkpt lat="31.786865234" lon="35.427894592">
  <ele>-86.527954</ele>
  <time>2011-11-18T10:44:02Z</time>
  <speed>6.120000</speed>
</trkpt>
<trkpt lat="31.786851883" lon="35.427959442">
  <ele>-87.061157</ele>
  <time>2011-11-18T10:44:03Z</time>
  <speed>6.750000</speed>
</trkpt>
<trkpt lat="31.786842346" lon="35.428035736">
  <ele>-88.545532</ele>
  <time>2011-11-18T10:44:04Z</time>
  <speed>7.270000</speed>
</trkpt>
<trkpt lat="31.786828995" lon="35.428108215">
  <ele>-90.147095</ele>
  <time>2011-11-18T10:44:05Z</time>
  <speed>7.260000</speed>
</trkpt>
<trkpt lat="31.786815643" lon="35.428184509">
  <ele>-90.719360</ele>
  <time>2011-11-18T10:44:06Z</time>
  <speed>7.680000</speed>
</trkpt>
<trkpt lat="31.786806107" lon="35.428268433">
  <ele>-91.455688</ele>
  <time>2011-11-18T10:44:07Z</time>
  <speed>8.330000</speed>
</trkpt>
<trkpt lat="31.786796570" lon="35.428359985">
  <ele>-92.178345</ele>
  <time>2011-11-18T10:44:08Z</time>
  <speed>8.410000</speed>
</trkpt>
<trkpt lat="31.786788940" lon="35.428451538">
  <ele>-91.777954</ele>
  <time>2011-11-18T10:44:09Z</time>
  <speed>8.410000</speed>
</trkpt>
<trkpt lat="31.786771774" lon="35.428535461">
  <ele>-92.594360</ele>
  <time>2011-11-18T10:44:10Z</time>
  <speed>7.970000</speed>
</trkpt>
<trkpt lat="31.786746979" lon="35.428611755">
  <ele>-92.682251</ele>
  <time>2011-11-18T10:44:11Z</time>
  <speed>7.080000</speed>
</trkpt>
<trkpt lat="31.786727905" lon="35.428676605">
  <ele>-93.266235</ele>
  <time>2011-11-18T10:44:12Z</time>
  <speed>6.270000</speed>
</trkpt>
<trkpt lat="31.786716461" lon="35.428741455">
  <ele>-93.930298</ele>
  <time>2011-11-18T10:44:13Z</time>
  <speed>6.450000</speed>
</trkpt>
<trkpt lat="31.786706924" lon="35.428802490">
  <ele>-94.291626</ele>
  <time>2011-11-18T10:44:14Z</time>
  <speed>6.060000</speed>
</trkpt>
<trkpt lat="31.786699295" lon="35.428863525">
  <ele>-94.369751</ele>
  <time>2011-11-18T10:44:15Z</time>
  <speed>5.870000</speed>
</trkpt>
<trkpt lat="31.786695480" lon="35.428928375">
  <ele>-94.541626</ele>
  <time>2011-11-18T10:44:16Z</time>
  <speed>6.520000</speed>
</trkpt>
<trkpt lat="31.786693573" lon="35.428993225">
  <ele>-94.781860</ele>
  <time>2011-11-18T10:44:17Z</time>
  <speed>6.380000</speed>
</trkpt>
<trkpt lat="31.786687851" lon="35.429058075">
  <ele>-95.318970</ele>
  <time>2011-11-18T10:44:18Z</time>
  <speed>5.910000</speed>
</trkpt>
<trkpt lat="31.786680222" lon="35.429115295">
  <ele>-95.045532</ele>
  <time>2011-11-18T10:44:19Z</time>
  <speed>5.400000</speed>
</trkpt>
<trkpt lat="31.786680222" lon="35.429168701">
  <ele>-94.731079</ele>
  <time>2011-11-18T10:44:20Z</time>
  <speed>4.610000</speed>
</trkpt>
<trkpt lat="31.786674500" lon="35.429206848">
  <ele>-94.867798</ele>
  <time>2011-11-18T10:44:21Z</time>
  <speed>2.170000</speed>
</trkpt>
<trkpt lat="31.786676407" lon="35.429237366">
  <ele>-94.717407</ele>
  <time>2011-11-18T10:44:51Z</time>
  <speed>0.960000</speed>
</trkpt>
<trkpt lat="31.786687851" lon="35.429275513">
  <ele>-94.631470</ele>
  <time>2011-11-18T10:44:55Z</time>
  <speed>0.620000</speed>
</trkpt>
<trkpt lat="31.786676407" lon="35.429309845">
  <ele>-95.225220</ele>
  <time>2011-11-18T10:46:36Z</time>
  <speed>1.870000</speed>
</trkpt>
<trkpt lat="31.786682129" lon="35.429367065">
  <ele>-95.063110</ele>
  <time>2011-11-18T10:46:38Z</time>
  <speed>3.120000</speed>
</trkpt>
<trkpt lat="31.786689758" lon="35.429409027">
  <ele>-95.067017</ele>
  <time>2011-11-18T10:46:39Z</time>
  <speed>3.680000</speed>
</trkpt>
<trkpt lat="31.786703110" lon="35.429454803">
  <ele>-95.076782</ele>
  <time>2011-11-18T10:46:40Z</time>
  <speed>4.500000</speed>
</trkpt>
<trkpt lat="31.786722183" lon="35.429508209">
  <ele>-95.164673</ele>
  <time>2011-11-18T10:46:41Z</time>
  <speed>4.190000</speed>
</trkpt>
<trkpt lat="31.786741257" lon="35.429553986">
  <ele>-95.404907</ele>
  <time>2011-11-18T10:46:42Z</time>
  <speed>4.090000</speed>
</trkpt>
<trkpt lat="31.786762238" lon="35.429592133">
  <ele>-96.943970</ele>
  <time>2011-11-18T10:46:43Z</time>
  <speed>4.500000</speed>
</trkpt>
<trkpt lat="31.786792755" lon="35.429630280">
  <ele>-98.156860</ele>
  <time>2011-11-18T10:46:44Z</time>
  <speed>5.310000</speed>
</trkpt>
<trkpt lat="31.786827087" lon="35.429672241">
  <ele>-99.260376</ele>
  <time>2011-11-18T10:46:45Z</time>
  <speed>5.610000</speed>
</trkpt>
<trkpt lat="31.786851883" lon="35.429718018">
  <ele>-99.305298</ele>
  <time>2011-11-18T10:46:46Z</time>
  <speed>5.140000</speed>
</trkpt>
<trkpt lat="31.786884308" lon="35.429767609">
  <ele>-99.942017</ele>
  <time>2011-11-18T10:46:47Z</time>
  <speed>5.590000</speed>
</trkpt>
<trkpt lat="31.786916733" lon="35.429824829">
  <ele>-100.965454</ele>
  <time>2011-11-18T10:46:48Z</time>
  <speed>6.250000</speed>
</trkpt>
<trkpt lat="31.786952972" lon="35.429882050">
  <ele>-101.611938</ele>
  <time>2011-11-18T10:46:49Z</time>
  <speed>7.050000</speed>
</trkpt>
<trkpt lat="31.786987305" lon="35.429935455">
  <ele>-103.035767</ele>
  <time>2011-11-18T10:46:50Z</time>
  <speed>5.410000</speed>
</trkpt>
<trkpt lat="31.787014008" lon="35.429988861">
  <ele>-103.959595</ele>
  <time>2011-11-18T10:46:51Z</time>
  <speed>5.950000</speed>
</trkpt>
<trkpt lat="31.787046432" lon="35.430046082">
  <ele>-106.137329</ele>
  <time>2011-11-18T10:46:52Z</time>
  <speed>6.660000</speed>
</trkpt>
<trkpt lat="31.787082672" lon="35.430103302">
  <ele>-107.426392</ele>
  <time>2011-11-18T10:46:53Z</time>
  <speed>6.550000</speed>
</trkpt>
<trkpt lat="31.787126541" lon="35.430156708">
  <ele>-108.787720</ele>
  <time>2011-11-18T10:46:54Z</time>
  <speed>6.820000</speed>
</trkpt>
<trkpt lat="31.787174225" lon="35.430206299">
  <ele>-110.166626</ele>
  <time>2011-11-18T10:46:55Z</time>
  <speed>6.350000</speed>
</trkpt>
<trkpt lat="31.787216187" lon="35.430248260">
  <ele>-111.424438</ele>
  <time>2011-11-18T10:46:56Z</time>
  <speed>5.490000</speed>
</trkpt>
<trkpt lat="31.787258148" lon="35.430282593">
  <ele>-110.022095</ele>
  <time>2011-11-18T10:46:57Z</time>
  <speed>4.040000</speed>
</trkpt>
<trkpt lat="31.787288666" lon="35.430305481">
  <ele>-110.443970</ele>
  <time>2011-11-18T10:46:59Z</time>
  <speed>0.490000</speed>
</trkpt>
<trkpt lat="31.787309647" lon="35.430324554">
  <ele>-111.475220</ele>
  <time>2011-11-18T10:47:14Z</time>
  <speed>0.770000</speed>
</trkpt>
<trkpt lat="31.787328720" lon="35.430351257">
  <ele>-111.375610</ele>
  <time>2011-11-18T10:47:35Z</time>
  <speed>0.530000</speed>
</trkpt>
<trkpt lat="31.787343979" lon="35.430381775">
  <ele>-111.555298</ele>
  <time>2011-11-18T10:48:12Z</time>
  <speed>0.880000</speed>
</trkpt>
<trkpt lat="31.787349701" lon="35.430412292">
  <ele>-111.809204</ele>
  <time>2011-11-18T10:48:36Z</time>
  <speed>0.040000</speed>
</trkpt>
<trkpt lat="31.787363052" lon="35.430461884">
  <ele>-112.305298</ele>
  <time>2011-11-18T10:49:45Z</time>
  <speed>2.880000</speed>
</trkpt>
<trkpt lat="31.787378311" lon="35.430492401">
  <ele>-112.391235</ele>
  <time>2011-11-18T10:49:46Z</time>
  <speed>3.200000</speed>
</trkpt>
<trkpt lat="31.787401199" lon="35.430522919">
  <ele>-112.748657</ele>
  <time>2011-11-18T10:49:47Z</time>
  <speed>3.550000</speed>
</trkpt>
<trkpt lat="31.787424088" lon="35.430553436">
  <ele>-112.535767</ele>
  <time>2011-11-18T10:49:48Z</time>
  <speed>3.720000</speed>
</trkpt>
<trkpt lat="31.787446976" lon="35.430587769">
  <ele>-112.526001</ele>
  <time>2011-11-18T10:49:49Z</time>
  <speed>3.860000</speed>
</trkpt>
<trkpt lat="31.787473679" lon="35.430625916">
  <ele>-112.867798</ele>
  <time>2011-11-18T10:49:50Z</time>
  <speed>4.330000</speed>
</trkpt>
<trkpt lat="31.787506104" lon="35.430660248">
  <ele>-112.690063</ele>
  <time>2011-11-18T10:49:51Z</time>
  <speed>4.600000</speed>
</trkpt>
<trkpt lat="31.787530899" lon="35.430694580">
  <ele>-113.373657</ele>
  <time>2011-11-18T10:49:52Z</time>
  <speed>4.610000</speed>
</trkpt>
<trkpt lat="31.787553787" lon="35.430732727">
  <ele>-113.832642</ele>
  <time>2011-11-18T10:49:53Z</time>
  <speed>4.290000</speed>
</trkpt>
<trkpt lat="31.787584305" lon="35.430774689">
  <ele>-113.717407</ele>
  <time>2011-11-18T10:49:54Z</time>
  <speed>4.540000</speed>
</trkpt>
<trkpt lat="31.787616730" lon="35.430812836">
  <ele>-113.961548</ele>
  <time>2011-11-18T10:49:55Z</time>
  <speed>5.250000</speed>
</trkpt>
<trkpt lat="31.787656784" lon="35.430847168">
  <ele>-114.842407</ele>
  <time>2011-11-18T10:49:56Z</time>
  <speed>5.450000</speed>
</trkpt>
<trkpt lat="31.787704468" lon="35.430873871">
  <ele>-115.281860</ele>
  <time>2011-11-18T10:49:57Z</time>
  <speed>6.110000</speed>
</trkpt>
<trkpt lat="31.787754059" lon="35.430904388">
  <ele>-115.586548</ele>
  <time>2011-11-18T10:49:58Z</time>
  <speed>5.600000</speed>
</trkpt>
<trkpt lat="31.787803650" lon="35.430927277">
  <ele>-115.559204</ele>
  <time>2011-11-18T10:49:59Z</time>
  <speed>5.350000</speed>
</trkpt>
<trkpt lat="31.787853241" lon="35.430946350">
  <ele>-116.262329</ele>
  <time>2011-11-18T10:50:00Z</time>
  <speed>5.150000</speed>
</trkpt>
<trkpt lat="31.787900925" lon="35.430961609">
  <ele>-116.516235</ele>
  <time>2011-11-18T10:50:01Z</time>
  <speed>5.560000</speed>
</trkpt>
<trkpt lat="31.787946701" lon="35.430973053">
  <ele>-117.274048</ele>
  <time>2011-11-18T10:50:02Z</time>
  <speed>4.950000</speed>
</trkpt>
<trkpt lat="31.787982941" lon="35.430988312">
  <ele>-116.492798</ele>
  <time>2011-11-18T10:50:03Z</time>
  <speed>3.590000</speed>
</trkpt>
<trkpt lat="31.788005829" lon="35.431007385">
  <ele>-116.637329</ele>
  <time>2011-11-18T10:50:05Z</time>
  <speed>0.930000</speed>
</trkpt>
<trkpt lat="31.788002014" lon="35.431060791">
  <ele>-115.984985</ele>
  <time>2011-11-18T10:51:14Z</time>
  <speed>3.410000</speed>
</trkpt>
<trkpt lat="31.787998199" lon="35.431102753">
  <ele>-116.881470</ele>
  <time>2011-11-18T10:51:15Z</time>
  <speed>4.180000</speed>
</trkpt>
<trkpt lat="31.788013458" lon="35.431152344">
  <ele>-117.908813</ele>
  <time>2011-11-18T10:51:16Z</time>
  <speed>4.650000</speed>
</trkpt>
<trkpt lat="31.788036346" lon="35.431205750">
  <ele>-118.549438</ele>
  <time>2011-11-18T10:51:17Z</time>
  <speed>5.770000</speed>
</trkpt>
<trkpt lat="31.788068771" lon="35.431262970">
  <ele>-119.527954</ele>
  <time>2011-11-18T10:51:18Z</time>
  <speed>6.360000</speed>
</trkpt>
<trkpt lat="31.788097382" lon="35.431320190">
  <ele>-120.250610</ele>
  <time>2011-11-18T10:51:19Z</time>
  <speed>5.770000</speed>
</trkpt>
<trkpt lat="31.788118362" lon="35.431385040">
  <ele>-120.467407</ele>
  <time>2011-11-18T10:51:20Z</time>
  <speed>5.630000</speed>
</trkpt>
<trkpt lat="31.788137436" lon="35.431453705">
  <ele>-121.281860</ele>
  <time>2011-11-18T10:51:21Z</time>
  <speed>6.600000</speed>
</trkpt>
<trkpt lat="31.788166046" lon="35.431526184">
  <ele>-121.776001</ele>
  <time>2011-11-18T10:51:22Z</time>
  <speed>6.820000</speed>
</trkpt>
<trkpt lat="31.788194656" lon="35.431583405">
  <ele>-122.945923</ele>
  <time>2011-11-18T10:51:23Z</time>
  <speed>6.160000</speed>
</trkpt>
<trkpt lat="31.788242340" lon="35.431632996">
  <ele>-123.590454</ele>
  <time>2011-11-18T10:51:24Z</time>
  <speed>6.870000</speed>
</trkpt>
<trkpt lat="31.788293839" lon="35.431671143">
  <ele>-123.922485</ele>
  <time>2011-11-18T10:51:25Z</time>
  <speed>6.150000</speed>
</trkpt>
<trkpt lat="31.788347244" lon="35.431705475">
  <ele>-124.199829</ele>
  <time>2011-11-18T10:51:26Z</time>
  <speed>6.280000</speed>
</trkpt>
<trkpt lat="31.788406372" lon="35.431735992">
  <ele>-124.692017</ele>
  <time>2011-11-18T10:51:27Z</time>
  <speed>6.430000</speed>
</trkpt>
<trkpt lat="31.788463593" lon="35.431758881">
  <ele>-125.104126</ele>
  <time>2011-11-18T10:51:28Z</time>
  <speed>6.630000</speed>
</trkpt>
<trkpt lat="31.788528442" lon="35.431789398">
  <ele>-125.918579</ele>
  <time>2011-11-18T10:51:29Z</time>
  <speed>6.890000</speed>
</trkpt>
<trkpt lat="31.788585663" lon="35.431816101">
  <ele>-126.270142</ele>
  <time>2011-11-18T10:51:30Z</time>
  <speed>6.560000</speed>
</trkpt>
<trkpt lat="31.788635254" lon="35.431846619">
  <ele>-127.748657</ele>
  <time>2011-11-18T10:51:31Z</time>
  <speed>6.340000</speed>
</trkpt>
<trkpt lat="31.788682938" lon="35.431884766">
  <ele>-128.719971</ele>
  <time>2011-11-18T10:51:32Z</time>
  <speed>6.140000</speed>
</trkpt>
<trkpt lat="31.788736343" lon="35.431919098">
  <ele>-128.376221</ele>
  <time>2011-11-18T10:51:33Z</time>
  <speed>6.230000</speed>
</trkpt>
<trkpt lat="31.788784027" lon="35.431953430">
  <ele>-128.622314</ele>
  <time>2011-11-18T10:51:34Z</time>
  <speed>6.470000</speed>
</trkpt>
<trkpt lat="31.788835526" lon="35.431999207">
  <ele>-128.813721</ele>
  <time>2011-11-18T10:51:35Z</time>
  <speed>7.080000</speed>
</trkpt>
<trkpt lat="31.788890839" lon="35.432037354">
  <ele>-129.927002</ele>
  <time>2011-11-18T10:51:36Z</time>
  <speed>6.900000</speed>
</trkpt>
<trkpt lat="31.788940430" lon="35.432086945">
  <ele>-130.469971</ele>
  <time>2011-11-18T10:51:37Z</time>
  <speed>7.150000</speed>
</trkpt>
<trkpt lat="31.788974762" lon="35.432155609">
  <ele>-130.794189</ele>
  <time>2011-11-18T10:51:38Z</time>
  <speed>7.340000</speed>
</trkpt>
<trkpt lat="31.788997650" lon="35.432224274">
  <ele>-131.122314</ele>
  <time>2011-11-18T10:51:39Z</time>
  <speed>6.670000</speed>
</trkpt>
<trkpt lat="31.789011002" lon="35.432289124">
  <ele>-131.278564</ele>
  <time>2011-11-18T10:51:40Z</time>
  <speed>6.120000</speed>
</trkpt>
<trkpt lat="31.789020538" lon="35.432353973">
  <ele>-132.055908</ele>
  <time>2011-11-18T10:51:41Z</time>
  <speed>5.470000</speed>
</trkpt>
<trkpt lat="31.789026260" lon="35.432411194">
  <ele>-131.376221</ele>
  <time>2011-11-18T10:51:42Z</time>
  <speed>4.460000</speed>
</trkpt>
<trkpt lat="31.789049149" lon="35.432453156">
  <ele>-130.727783</ele>
  <time>2011-11-18T10:51:43Z</time>
  <speed>4.410000</speed>
</trkpt>
<trkpt lat="31.789075851" lon="35.432483673">
  <ele>-130.477783</ele>
  <time>2011-11-18T10:51:44Z</time>
  <speed>4.130000</speed>
</trkpt>
<trkpt lat="31.789112091" lon="35.432510376">
  <ele>-131.341064</ele>
  <time>2011-11-18T10:51:45Z</time>
  <speed>4.800000</speed>
</trkpt>
<trkpt lat="31.789150238" lon="35.432529449">
  <ele>-131.626221</ele>
  <time>2011-11-18T10:51:46Z</time>
  <speed>4.240000</speed>
</trkpt>
<trkpt lat="31.789196014" lon="35.432540894">
  <ele>-132.204346</ele>
  <time>2011-11-18T10:51:47Z</time>
  <speed>4.410000</speed>
</trkpt>
<trkpt lat="31.789237976" lon="35.432552338">
  <ele>-132.645752</ele>
  <time>2011-11-18T10:51:48Z</time>
  <speed>4.770000</speed>
</trkpt>
<trkpt lat="31.789293289" lon="35.432559967">
  <ele>-134.040283</ele>
  <time>2011-11-18T10:51:49Z</time>
  <speed>5.180000</speed>
</trkpt>
<trkpt lat="31.789340973" lon="35.432548523">
  <ele>-134.372314</ele>
  <time>2011-11-18T10:51:50Z</time>
  <speed>5.300000</speed>
</trkpt>
<trkpt lat="31.789386749" lon="35.432521820">
  <ele>-134.634033</ele>
  <time>2011-11-18T10:51:51Z</time>
  <speed>6.030000</speed>
</trkpt>
<trkpt lat="31.789432526" lon="35.432498932">
  <ele>-135.833252</ele>
  <time>2011-11-18T10:51:52Z</time>
  <speed>5.440000</speed>
</trkpt>
<trkpt lat="31.789482117" lon="35.432483673">
  <ele>-134.548096</ele>
  <time>2011-11-18T10:51:53Z</time>
  <speed>4.220000</speed>
</trkpt>
<trkpt lat="31.789520264" lon="35.432487488">
  <ele>-134.423096</ele>
  <time>2011-11-18T10:51:54Z</time>
  <speed>3.870000</speed>
</trkpt>
<trkpt lat="31.789554596" lon="35.432502747">
  <ele>-135.637939</ele>
  <time>2011-11-18T10:51:55Z</time>
  <speed>4.270000</speed>
</trkpt>
<trkpt lat="31.789585114" lon="35.432521820">
  <ele>-135.903564</ele>
  <time>2011-11-18T10:51:56Z</time>
  <speed>3.470000</speed>
</trkpt>
<trkpt lat="31.789611816" lon="35.432540894">
  <ele>-136.598877</ele>
  <time>2011-11-18T10:51:57Z</time>
  <speed>3.130000</speed>
</trkpt>
<trkpt lat="31.789636612" lon="35.432556152">
  <ele>-136.899658</ele>
  <time>2011-11-18T10:51:58Z</time>
  <speed>3.270000</speed>
</trkpt>
<trkpt lat="31.789663315" lon="35.432579041">
  <ele>-137.122314</ele>
  <time>2011-11-18T10:51:59Z</time>
  <speed>4.070000</speed>
</trkpt>
<trkpt lat="31.789693832" lon="35.432605743">
  <ele>-137.282471</ele>
  <time>2011-11-18T10:52:00Z</time>
  <speed>4.330000</speed>
</trkpt>
<trkpt lat="31.789722443" lon="35.432636261">
  <ele>-137.391846</ele>
  <time>2011-11-18T10:52:01Z</time>
  <speed>4.350000</speed>
</trkpt>
<trkpt lat="31.789751053" lon="35.432651520">
  <ele>-137.024658</ele>
  <time>2011-11-18T10:52:02Z</time>
  <speed>2.880000</speed>
</trkpt>
<trkpt lat="31.789781570" lon="35.432670593">
  <ele>-136.501221</ele>
  <time>2011-11-18T10:52:03Z</time>
  <speed>3.950000</speed>
</trkpt>
<trkpt lat="31.789821625" lon="35.432689667">
  <ele>-137.391846</ele>
  <time>2011-11-18T10:52:04Z</time>
  <speed>4.780000</speed>
</trkpt>
<trkpt lat="31.789861679" lon="35.432708740">
  <ele>-137.360596</ele>
  <time>2011-11-18T10:52:05Z</time>
  <speed>4.930000</speed>
</trkpt>
<trkpt lat="31.789903641" lon="35.432735443">
  <ele>-137.481689</ele>
  <time>2011-11-18T10:52:06Z</time>
  <speed>5.020000</speed>
</trkpt>
<trkpt lat="31.789941788" lon="35.432762146">
  <ele>-137.173096</ele>
  <time>2011-11-18T10:52:07Z</time>
  <speed>4.980000</speed>
</trkpt>
<trkpt lat="31.789983749" lon="35.432788849">
  <ele>-137.071533</ele>
  <time>2011-11-18T10:52:08Z</time>
  <speed>5.440000</speed>
</trkpt>
<trkpt lat="31.790027618" lon="35.432823181">
  <ele>-137.321533</ele>
  <time>2011-11-18T10:52:09Z</time>
  <speed>5.380000</speed>
</trkpt>
<trkpt lat="31.790065765" lon="35.432857513">
  <ele>-137.298096</ele>
  <time>2011-11-18T10:52:10Z</time>
  <speed>4.880000</speed>
</trkpt>
<trkpt lat="31.790105820" lon="35.432891846">
  <ele>-137.145752</ele>
  <time>2011-11-18T10:52:11Z</time>
  <speed>5.260000</speed>
</trkpt>
<trkpt lat="31.790149689" lon="35.432914734">
  <ele>-137.352783</ele>
  <time>2011-11-18T10:52:12Z</time>
  <speed>5.070000</speed>
</trkpt>
<trkpt lat="31.790189743" lon="35.432941437">
  <ele>-137.540283</ele>
  <time>2011-11-18T10:52:13Z</time>
  <speed>4.790000</speed>
</trkpt>
<trkpt lat="31.790235519" lon="35.432960510">
  <ele>-137.950439</ele>
  <time>2011-11-18T10:52:14Z</time>
  <speed>5.110000</speed>
</trkpt>
<trkpt lat="31.790283203" lon="35.432975769">
  <ele>-138.673096</ele>
  <time>2011-11-18T10:52:15Z</time>
  <speed>5.780000</speed>
</trkpt>
<trkpt lat="31.790330887" lon="35.432991028">
  <ele>-139.294189</ele>
  <time>2011-11-18T10:52:16Z</time>
  <speed>4.940000</speed>
</trkpt>
<trkpt lat="31.790367126" lon="35.433006287">
  <ele>-139.696533</ele>
  <time>2011-11-18T10:52:17Z</time>
  <speed>3.640000</speed>
</trkpt>
<trkpt lat="31.790401459" lon="35.433010101">
  <ele>-140.130127</ele>
  <time>2011-11-18T10:52:18Z</time>
  <speed>3.520000</speed>
</trkpt>
<trkpt lat="31.790430069" lon="35.433010101">
  <ele>-140.614502</ele>
  <time>2011-11-18T10:52:19Z</time>
  <speed>3.280000</speed>
</trkpt>
<trkpt lat="31.790460587" lon="35.433006287">
  <ele>-140.212158</ele>
  <time>2011-11-18T10:52:20Z</time>
  <speed>3.140000</speed>
</trkpt>
<trkpt lat="31.790500641" lon="35.433010101">
  <ele>-140.403564</ele>
  <time>2011-11-18T10:52:21Z</time>
  <speed>4.720000</speed>
</trkpt>
<trkpt lat="31.790550232" lon="35.433032990">
  <ele>-141.450439</ele>
  <time>2011-11-18T10:52:22Z</time>
  <speed>5.700000</speed>
</trkpt>
<trkpt lat="31.790603638" lon="35.433052063">
  <ele>-140.809814</ele>
  <time>2011-11-18T10:52:23Z</time>
  <speed>5.990000</speed>
</trkpt>
<trkpt lat="31.790649414" lon="35.433074951">
  <ele>-141.044189</ele>
  <time>2011-11-18T10:52:24Z</time>
  <speed>4.930000</speed>
</trkpt>
<trkpt lat="31.790689468" lon="35.433097839">
  <ele>-141.266846</ele>
  <time>2011-11-18T10:52:25Z</time>
  <speed>4.360000</speed>
</trkpt>
<trkpt lat="31.790727615" lon="35.433113098">
  <ele>-140.630127</ele>
  <time>2011-11-18T10:52:26Z</time>
  <speed>3.220000</speed>
</trkpt>
<trkpt lat="31.790775299" lon="35.433132172">
  <ele>-139.938721</ele>
  <time>2011-11-18T10:52:28Z</time>
  <speed>3.170000</speed>
</trkpt>
<trkpt lat="31.790800095" lon="35.433151245">
  <ele>-139.731689</ele>
  <time>2011-11-18T10:52:29Z</time>
  <speed>3.030000</speed>
</trkpt>
<trkpt lat="31.790822983" lon="35.433166504">
  <ele>-138.993408</ele>
  <time>2011-11-18T10:52:30Z</time>
  <speed>3.260000</speed>
</trkpt>
<trkpt lat="31.790845871" lon="35.433189392">
  <ele>-138.739502</ele>
  <time>2011-11-18T10:52:31Z</time>
  <speed>3.380000</speed>
</trkpt>
<trkpt lat="31.790863037" lon="35.433216095">
  <ele>-139.157471</ele>
  <time>2011-11-18T10:52:32Z</time>
  <speed>3.040000</speed>
</trkpt>
<trkpt lat="31.790876389" lon="35.433254242">
  <ele>-139.755127</ele>
  <time>2011-11-18T10:52:33Z</time>
  <speed>3.710000</speed>
</trkpt>
<trkpt lat="31.790889740" lon="35.433292389">
  <ele>-140.622314</ele>
  <time>2011-11-18T10:52:34Z</time>
  <speed>4.130000</speed>
</trkpt>
<trkpt lat="31.790903091" lon="35.433338165">
  <ele>-141.536377</ele>
  <time>2011-11-18T10:52:35Z</time>
  <speed>4.410000</speed>
</trkpt>
<trkpt lat="31.790918350" lon="35.433383942">
  <ele>-141.450439</ele>
  <time>2011-11-18T10:52:36Z</time>
  <speed>5.290000</speed>
</trkpt>
<trkpt lat="31.790933609" lon="35.433437347">
  <ele>-141.989502</ele>
  <time>2011-11-18T10:52:37Z</time>
  <speed>5.320000</speed>
</trkpt>
<trkpt lat="31.790952682" lon="35.433494568">
  <ele>-142.782471</ele>
  <time>2011-11-18T10:52:38Z</time>
  <speed>6.220000</speed>
</trkpt>
<trkpt lat="31.790973663" lon="35.433551788">
  <ele>-143.102783</ele>
  <time>2011-11-18T10:52:39Z</time>
  <speed>5.850000</speed>
</trkpt>
<trkpt lat="31.790992737" lon="35.433612823">
  <ele>-143.778564</ele>
  <time>2011-11-18T10:52:40Z</time>
  <speed>6.090000</speed>
</trkpt>
<trkpt lat="31.791013718" lon="35.433677673">
  <ele>-143.841064</ele>
  <time>2011-11-18T10:52:41Z</time>
  <speed>6.450000</speed>
</trkpt>
<trkpt lat="31.791028976" lon="35.433742523">
  <ele>-143.841064</ele>
  <time>2011-11-18T10:52:42Z</time>
  <speed>6.250000</speed>
</trkpt>
<trkpt lat="31.791044235" lon="35.433803558">
  <ele>-144.165283</ele>
  <time>2011-11-18T10:52:43Z</time>
  <speed>5.780000</speed>
</trkpt>
<trkpt lat="31.791067123" lon="35.433856964">
  <ele>-144.384033</ele>
  <time>2011-11-18T10:52:44Z</time>
  <speed>6.150000</speed>
</trkpt>
<trkpt lat="31.791097641" lon="35.433906555">
  <ele>-144.653564</ele>
  <time>2011-11-18T10:52:45Z</time>
  <speed>5.530000</speed>
</trkpt>
<trkpt lat="31.791116714" lon="35.433959961">
  <ele>-144.434814</ele>
  <time>2011-11-18T10:52:46Z</time>
  <speed>5.580000</speed>
</trkpt>
<trkpt lat="31.791135788" lon="35.434020996">
  <ele>-144.278564</ele>
  <time>2011-11-18T10:52:47Z</time>
  <speed>5.820000</speed>
</trkpt>
<trkpt lat="31.791164398" lon="35.434070587">
  <ele>-144.419189</ele>
  <time>2011-11-18T10:52:48Z</time>
  <speed>5.770000</speed>
</trkpt>
<trkpt lat="31.791204453" lon="35.434116364">
  <ele>-144.040283</ele>
  <time>2011-11-18T10:52:49Z</time>
  <speed>6.470000</speed>
</trkpt>
<trkpt lat="31.791246414" lon="35.434154510">
  <ele>-145.602783</ele>
  <time>2011-11-18T10:52:50Z</time>
  <speed>5.820000</speed>
</trkpt>
<trkpt lat="31.791292191" lon="35.434185028">
  <ele>-145.509033</ele>
  <time>2011-11-18T10:52:51Z</time>
  <speed>5.690000</speed>
</trkpt>
<trkpt lat="31.791332245" lon="35.434207916">
  <ele>-146.016846</ele>
  <time>2011-11-18T10:52:52Z</time>
  <speed>4.830000</speed>
</trkpt>
<trkpt lat="31.791379929" lon="35.434234619">
  <ele>-146.145752</ele>
  <time>2011-11-18T10:52:53Z</time>
  <speed>5.190000</speed>
</trkpt>
<trkpt lat="31.791410446" lon="35.434265137">
  <ele>-146.118408</ele>
  <time>2011-11-18T10:52:54Z</time>
  <speed>4.580000</speed>
</trkpt>
<trkpt lat="31.791433334" lon="35.434303284">
  <ele>-145.485596</ele>
  <time>2011-11-18T10:52:55Z</time>
  <speed>4.810000</speed>
</trkpt>
<trkpt lat="31.791448593" lon="35.434349060">
  <ele>-145.337158</ele>
  <time>2011-11-18T10:52:56Z</time>
  <speed>4.900000</speed>
</trkpt>
<trkpt lat="31.791461945" lon="35.434398651">
  <ele>-145.427002</ele>
  <time>2011-11-18T10:52:57Z</time>
  <speed>4.750000</speed>
</trkpt>
<trkpt lat="31.791469574" lon="35.434448242">
  <ele>-145.290283</ele>
  <time>2011-11-18T10:52:58Z</time>
  <speed>4.990000</speed>
</trkpt>
<trkpt lat="31.791477203" lon="35.434497833">
  <ele>-145.251221</ele>
  <time>2011-11-18T10:52:59Z</time>
  <speed>4.830000</speed>
</trkpt>
<trkpt lat="31.791486740" lon="35.434539795">
  <ele>-145.384033</ele>
  <time>2011-11-18T10:53:00Z</time>
  <speed>4.690000</speed>
</trkpt>
<trkpt lat="31.791505814" lon="35.434585571">
  <ele>-145.540283</ele>
  <time>2011-11-18T10:53:01Z</time>
  <speed>4.380000</speed>
</trkpt>
<trkpt lat="31.791530609" lon="35.434627533">
  <ele>-145.180908</ele>
  <time>2011-11-18T10:53:02Z</time>
  <speed>5.270000</speed>
</trkpt>
<trkpt lat="31.791551590" lon="35.434673309">
  <ele>-144.825439</ele>
  <time>2011-11-18T10:53:03Z</time>
  <speed>5.080000</speed>
</trkpt>
<trkpt lat="31.791568756" lon="35.434726715">
  <ele>-145.302002</ele>
  <time>2011-11-18T10:53:04Z</time>
  <speed>5.540000</speed>
</trkpt>
<trkpt lat="31.791584015" lon="35.434776306">
  <ele>-145.262939</ele>
  <time>2011-11-18T10:53:05Z</time>
  <speed>5.230000</speed>
</trkpt>
<trkpt lat="31.791603088" lon="35.434825897">
  <ele>-145.184814</ele>
  <time>2011-11-18T10:53:06Z</time>
  <speed>5.370000</speed>
</trkpt>
<trkpt lat="31.791625977" lon="35.434875488">
  <ele>-145.169189</ele>
  <time>2011-11-18T10:53:07Z</time>
  <speed>5.520000</speed>
</trkpt>
<trkpt lat="31.791646957" lon="35.434921265">
  <ele>-145.626221</ele>
  <time>2011-11-18T10:53:08Z</time>
  <speed>5.070000</speed>
</trkpt>
<trkpt lat="31.791677475" lon="35.434963226">
  <ele>-145.856689</ele>
  <time>2011-11-18T10:53:09Z</time>
  <speed>4.880000</speed>
</trkpt>
<trkpt lat="31.791706085" lon="35.434993744">
  <ele>-146.360596</ele>
  <time>2011-11-18T10:53:10Z</time>
  <speed>4.400000</speed>
</trkpt>
<trkpt lat="31.791742325" lon="35.435024261">
  <ele>-147.009033</ele>
  <time>2011-11-18T10:53:11Z</time>
  <speed>5.030000</speed>
</trkpt>
<trkpt lat="31.791776657" lon="35.435058594">
  <ele>-147.477783</ele>
  <time>2011-11-18T10:53:12Z</time>
  <speed>5.310000</speed>
</trkpt>
<trkpt lat="31.791820526" lon="35.435092926">
  <ele>-148.204346</ele>
  <time>2011-11-18T10:53:13Z</time>
  <speed>6.100000</speed>
</trkpt>
<trkpt lat="31.791856766" lon="35.435131073">
  <ele>-148.169189</ele>
  <time>2011-11-18T10:53:14Z</time>
  <speed>5.640000</speed>
</trkpt>
<trkpt lat="31.791894913" lon="35.435165405">
  <ele>-147.716064</ele>
  <time>2011-11-18T10:53:15Z</time>
  <speed>5.190000</speed>
</trkpt>
<trkpt lat="31.791929245" lon="35.435195923">
  <ele>-147.524658</ele>
  <time>2011-11-18T10:53:16Z</time>
  <speed>4.470000</speed>
</trkpt>
<trkpt lat="31.791955948" lon="35.435226440">
  <ele>-146.821533</ele>
  <time>2011-11-18T10:53:17Z</time>
  <speed>3.860000</speed>
</trkpt>
<trkpt lat="31.791976929" lon="35.435249329">
  <ele>-147.532471</ele>
  <time>2011-11-18T10:53:18Z</time>
  <speed>4.090000</speed>
</trkpt>
<trkpt lat="31.792003632" lon="35.435283661">
  <ele>-147.520752</ele>
  <time>2011-11-18T10:53:19Z</time>
  <speed>4.260000</speed>
</trkpt>
<trkpt lat="31.792030334" lon="35.435314178">
  <ele>-147.919189</ele>
  <time>2011-11-18T10:53:20Z</time>
  <speed>3.910000</speed>
</trkpt>
<trkpt lat="31.792058945" lon="35.435337067">
  <ele>-148.079346</ele>
  <time>2011-11-18T10:53:21Z</time>
  <speed>4.130000</speed>
</trkpt>
<trkpt lat="31.792081833" lon="35.435359955">
  <ele>-148.485596</ele>
  <time>2011-11-18T10:53:22Z</time>
  <speed>3.630000</speed>
</trkpt>
<trkpt lat="31.792104721" lon="35.435382843">
  <ele>-150.278564</ele>
  <time>2011-11-18T10:53:23Z</time>
  <speed>3.780000</speed>
</trkpt>
<trkpt lat="31.792131424" lon="35.435413361">
  <ele>-150.575439</ele>
  <time>2011-11-18T10:53:24Z</time>
  <speed>4.390000</speed>
</trkpt>
<trkpt lat="31.792163849" lon="35.435455322">
  <ele>-150.212158</ele>
  <time>2011-11-18T10:53:25Z</time>
  <speed>4.760000</speed>
</trkpt>
<trkpt lat="31.792194366" lon="35.435497284">
  <ele>-150.637939</ele>
  <time>2011-11-18T10:53:26Z</time>
  <speed>5.100000</speed>
</trkpt>
<trkpt lat="31.792221069" lon="35.435543060">
  <ele>-150.477783</ele>
  <time>2011-11-18T10:53:27Z</time>
  <speed>4.910000</speed>
</trkpt>
<trkpt lat="31.792249680" lon="35.435592651">
  <ele>-151.145752</ele>
  <time>2011-11-18T10:53:28Z</time>
  <speed>5.640000</speed>
</trkpt>
<trkpt lat="31.792284012" lon="35.435642242">
  <ele>-151.454346</ele>
  <time>2011-11-18T10:53:29Z</time>
  <speed>6.070000</speed>
</trkpt>
<trkpt lat="31.792318344" lon="35.435691833">
  <ele>-151.637939</ele>
  <time>2011-11-18T10:53:30Z</time>
  <speed>6.030000</speed>
</trkpt>
<trkpt lat="31.792358398" lon="35.435733795">
  <ele>-151.934814</ele>
  <time>2011-11-18T10:53:31Z</time>
  <speed>5.400000</speed>
</trkpt>
<trkpt lat="31.792388916" lon="35.435760498">
  <ele>-151.329346</ele>
  <time>2011-11-18T10:53:32Z</time>
  <speed>3.180000</speed>
</trkpt>
<trkpt lat="31.792415619" lon="35.435779572">
  <ele>-151.684814</ele>
  <time>2011-11-18T10:53:33Z</time>
  <speed>2.750000</speed>
</trkpt>
<trkpt lat="31.792467117" lon="35.435810089">
  <ele>-152.516846</ele>
  <time>2011-11-18T10:53:35Z</time>
  <speed>4.180000</speed>
</trkpt>
<trkpt lat="31.792493820" lon="35.435832977">
  <ele>-152.661377</ele>
  <time>2011-11-18T10:53:36Z</time>
  <speed>4.070000</speed>
</trkpt>
<trkpt lat="31.792522430" lon="35.435855865">
  <ele>-152.575439</ele>
  <time>2011-11-18T10:53:37Z</time>
  <speed>3.450000</speed>
</trkpt>
<trkpt lat="31.792551041" lon="35.435871124">
  <ele>-154.102783</ele>
  <time>2011-11-18T10:53:38Z</time>
  <speed>3.680000</speed>
</trkpt>
<trkpt lat="31.792585373" lon="35.435886383">
  <ele>-153.782471</ele>
  <time>2011-11-18T10:53:39Z</time>
  <speed>4.170000</speed>
</trkpt>
<trkpt lat="31.792621613" lon="35.435905457">
  <ele>-154.333252</ele>
  <time>2011-11-18T10:53:40Z</time>
  <speed>4.020000</speed>
</trkpt>
<trkpt lat="31.792655945" lon="35.435928345">
  <ele>-154.864502</ele>
  <time>2011-11-18T10:53:41Z</time>
  <speed>4.590000</speed>
</trkpt>
<trkpt lat="31.792695999" lon="35.435951233">
  <ele>-155.438721</ele>
  <time>2011-11-18T10:53:42Z</time>
  <speed>5.500000</speed>
</trkpt>
<trkpt lat="31.792741776" lon="35.435977936">
  <ele>-156.598877</ele>
  <time>2011-11-18T10:53:43Z</time>
  <speed>5.290000</speed>
</trkpt>
<trkpt lat="31.792785645" lon="35.436008453">
  <ele>-157.516846</ele>
  <time>2011-11-18T10:53:44Z</time>
  <speed>4.770000</speed>
</trkpt>
<trkpt lat="31.792827606" lon="35.436038971">
  <ele>-157.380127</ele>
  <time>2011-11-18T10:53:45Z</time>
  <speed>5.040000</speed>
</trkpt>
<trkpt lat="31.792861938" lon="35.436077118">
  <ele>-157.735596</ele>
  <time>2011-11-18T10:53:46Z</time>
  <speed>5.030000</speed>
</trkpt>
<trkpt lat="31.792890549" lon="35.436119080">
  <ele>-157.790283</ele>
  <time>2011-11-18T10:53:47Z</time>
  <speed>4.920000</speed>
</trkpt>
<trkpt lat="31.792907715" lon="35.436164856">
  <ele>-157.040283</ele>
  <time>2011-11-18T10:53:48Z</time>
  <speed>4.350000</speed>
</trkpt>
<trkpt lat="31.792922974" lon="35.436195374">
  <ele>-157.376221</ele>
  <time>2011-11-18T10:53:49Z</time>
  <speed>3.520000</speed>
</trkpt>
<trkpt lat="31.792943954" lon="35.436222076">
  <ele>-156.958252</ele>
  <time>2011-11-18T10:53:50Z</time>
  <speed>3.260000</speed>
</trkpt>
<trkpt lat="31.792966843" lon="35.436244965">
  <ele>-155.973877</ele>
  <time>2011-11-18T10:53:51Z</time>
  <speed>3.010000</speed>
</trkpt>
<trkpt lat="31.793001175" lon="35.436283112">
  <ele>-156.040283</ele>
  <time>2011-11-18T10:53:53Z</time>
  <speed>2.610000</speed>
</trkpt>
<trkpt lat="31.793029785" lon="35.436336517">
  <ele>-156.212158</ele>
  <time>2011-11-18T10:53:55Z</time>
  <speed>2.870000</speed>
</trkpt>
<trkpt lat="31.793043137" lon="35.436386108">
  <ele>-155.231689</ele>
  <time>2011-11-18T10:53:57Z</time>
  <speed>2.370000</speed>
</trkpt>
<trkpt lat="31.793075562" lon="35.436428070">
  <ele>-156.196533</ele>
  <time>2011-11-18T10:53:59Z</time>
  <speed>3.100000</speed>
</trkpt>
<trkpt lat="31.793096542" lon="35.436450958">
  <ele>-157.079346</ele>
  <time>2011-11-18T10:54:00Z</time>
  <speed>3.490000</speed>
</trkpt>
<trkpt lat="31.793123245" lon="35.436473846">
  <ele>-157.634033</ele>
  <time>2011-11-18T10:54:01Z</time>
  <speed>3.280000</speed>
</trkpt>
<trkpt lat="31.793151855" lon="35.436489105">
  <ele>-158.430908</ele>
  <time>2011-11-18T10:54:02Z</time>
  <speed>3.360000</speed>
</trkpt>
<trkpt lat="31.793184280" lon="35.436504364">
  <ele>-157.950439</ele>
  <time>2011-11-18T10:54:03Z</time>
  <speed>3.810000</speed>
</trkpt>
<trkpt lat="31.793210983" lon="35.436523438">
  <ele>-158.434814</ele>
  <time>2011-11-18T10:54:04Z</time>
  <speed>2.780000</speed>
</trkpt>
<trkpt lat="31.793241501" lon="35.436561584">
  <ele>-158.212158</ele>
  <time>2011-11-18T10:54:06Z</time>
  <speed>1.770000</speed>
</trkpt>
<trkpt lat="31.793228149" lon="35.436588287">
  <ele>-159.348877</ele>
  <time>2011-11-18T10:54:14Z</time>
  <speed>0.500000</speed>
</trkpt>
<trkpt lat="31.793218613" lon="35.436630249">
  <ele>-159.489502</ele>
  <time>2011-11-18T10:54:18Z</time>
  <speed>1.050000</speed>
</trkpt>
<trkpt lat="31.793209076" lon="35.436664581">
  <ele>-159.509033</ele>
  <time>2011-11-18T10:54:21Z</time>
  <speed>1.450000</speed>
</trkpt>
<trkpt lat="31.793226242" lon="35.436710358">
  <ele>-159.126221</ele>
  <time>2011-11-18T10:54:24Z</time>
  <speed>1.350000</speed>
</trkpt>
<trkpt lat="31.793249130" lon="35.436725616">
  <ele>-158.927002</ele>
  <time>2011-11-18T10:54:28Z</time>
  <speed>0.690000</speed>
</trkpt>
<trkpt lat="31.793266296" lon="35.436752319">
  <ele>-158.305908</ele>
  <time>2011-11-18T10:54:31Z</time>
  <speed>1.090000</speed>
</trkpt>
<trkpt lat="31.793273926" lon="35.436794281">
  <ele>-158.587158</ele>
  <time>2011-11-18T10:54:35Z</time>
  <speed>1.150000</speed>
</trkpt>
<trkpt lat="31.793283463" lon="35.436824799">
  <ele>-158.587158</ele>
  <time>2011-11-18T10:54:37Z</time>
  <speed>2.080000</speed>
</trkpt>
<trkpt lat="31.793319702" lon="35.436855316">
  <ele>-159.294189</ele>
  <time>2011-11-18T10:54:39Z</time>
  <speed>2.940000</speed>
</trkpt>
<trkpt lat="31.793348312" lon="35.436870575">
  <ele>-159.548096</ele>
  <time>2011-11-18T10:54:40Z</time>
  <speed>3.350000</speed>
</trkpt>
<trkpt lat="31.793382645" lon="35.436882019">
  <ele>-161.052002</ele>
  <time>2011-11-18T10:54:41Z</time>
  <speed>4.420000</speed>
</trkpt>
<trkpt lat="31.793422699" lon="35.436901093">
  <ele>-162.673096</ele>
  <time>2011-11-18T10:54:42Z</time>
  <speed>5.800000</speed>
</trkpt>
<trkpt lat="31.793474197" lon="35.436920166">
  <ele>-164.079346</ele>
  <time>2011-11-18T10:54:43Z</time>
  <speed>5.290000</speed>
</trkpt>
<trkpt lat="31.793512344" lon="35.436916351">
  <ele>-165.368408</ele>
  <time>2011-11-18T10:54:44Z</time>
  <speed>3.460000</speed>
</trkpt>
<trkpt lat="31.793546677" lon="35.436904907">
  <ele>-165.911377</ele>
  <time>2011-11-18T10:54:45Z</time>
  <speed>3.370000</speed>
</trkpt>
<trkpt lat="31.793581009" lon="35.436908722">
  <ele>-165.282471</ele>
  <time>2011-11-18T10:54:46Z</time>
  <speed>2.620000</speed>
</trkpt>
<trkpt lat="31.793632507" lon="35.436931610">
  <ele>-164.466064</ele>
  <time>2011-11-18T10:54:48Z</time>
  <speed>2.970000</speed>
</trkpt>
<trkpt lat="31.793661118" lon="35.436950684">
  <ele>-164.622314</ele>
  <time>2011-11-18T10:54:49Z</time>
  <speed>3.630000</speed>
</trkpt>
<trkpt lat="31.793689728" lon="35.436973572">
  <ele>-164.673096</ele>
  <time>2011-11-18T10:54:50Z</time>
  <speed>3.670000</speed>
</trkpt>
<trkpt lat="31.793720245" lon="35.437000275">
  <ele>-164.462158</ele>
  <time>2011-11-18T10:54:51Z</time>
  <speed>3.880000</speed>
</trkpt>
<trkpt lat="31.793748856" lon="35.437030792">
  <ele>-164.716064</ele>
  <time>2011-11-18T10:54:52Z</time>
  <speed>4.470000</speed>
</trkpt>
<trkpt lat="31.793777466" lon="35.437065125">
  <ele>-164.528564</ele>
  <time>2011-11-18T10:54:53Z</time>
  <speed>4.570000</speed>
</trkpt>
<trkpt lat="31.793807983" lon="35.437099457">
  <ele>-163.841064</ele>
  <time>2011-11-18T10:54:54Z</time>
  <speed>4.670000</speed>
</trkpt>
<trkpt lat="31.793844223" lon="35.437133789">
  <ele>-163.427002</ele>
  <time>2011-11-18T10:54:55Z</time>
  <speed>5.460000</speed>
</trkpt>
<trkpt lat="31.793880463" lon="35.437168121">
  <ele>-163.540283</ele>
  <time>2011-11-18T10:54:56Z</time>
  <speed>5.380000</speed>
</trkpt>
<trkpt lat="31.793912888" lon="35.437210083">
  <ele>-163.911377</ele>
  <time>2011-11-18T10:54:57Z</time>
  <speed>5.350000</speed>
</trkpt>
<trkpt lat="31.793949127" lon="35.437252045">
  <ele>-163.735596</ele>
  <time>2011-11-18T10:54:58Z</time>
  <speed>5.620000</speed>
</trkpt>
<trkpt lat="31.793987274" lon="35.437286377">
  <ele>-164.606689</ele>
  <time>2011-11-18T10:54:59Z</time>
  <speed>5.210000</speed>
</trkpt>
<trkpt lat="31.794029236" lon="35.437320709">
  <ele>-165.235596</ele>
  <time>2011-11-18T10:55:00Z</time>
  <speed>5.800000</speed>
</trkpt>
<trkpt lat="31.794073105" lon="35.437358856">
  <ele>-165.645752</ele>
  <time>2011-11-18T10:55:01Z</time>
  <speed>6.230000</speed>
</trkpt>
<trkpt lat="31.794118881" lon="35.437408447">
  <ele>-165.602783</ele>
  <time>2011-11-18T10:55:02Z</time>
  <speed>6.990000</speed>
</trkpt>
<trkpt lat="31.794158936" lon="35.437458038">
  <ele>-165.567627</ele>
  <time>2011-11-18T10:55:03Z</time>
  <speed>6.470000</speed>
</trkpt>
<trkpt lat="31.794204712" lon="35.437500000">
  <ele>-166.098877</ele>
  <time>2011-11-18T10:55:04Z</time>
  <speed>6.250000</speed>
</trkpt>
<trkpt lat="31.794248581" lon="35.437534332">
  <ele>-166.563721</ele>
  <time>2011-11-18T10:55:05Z</time>
  <speed>6.260000</speed>
</trkpt>
<trkpt lat="31.794292450" lon="35.437572479">
  <ele>-166.790283</ele>
  <time>2011-11-18T10:55:06Z</time>
  <speed>5.900000</speed>
</trkpt>
<trkpt lat="31.794336319" lon="35.437606812">
  <ele>-166.735596</ele>
  <time>2011-11-18T10:55:07Z</time>
  <speed>5.950000</speed>
</trkpt>
<trkpt lat="31.794380188" lon="35.437641144">
  <ele>-167.028564</ele>
  <time>2011-11-18T10:55:08Z</time>
  <speed>5.440000</speed>
</trkpt>
<trkpt lat="31.794425964" lon="35.437664032">
  <ele>-167.079346</ele>
  <time>2011-11-18T10:55:09Z</time>
  <speed>5.980000</speed>
</trkpt>
<trkpt lat="31.794475555" lon="35.437683105">
  <ele>-168.067627</ele>
  <time>2011-11-18T10:55:10Z</time>
  <speed>5.640000</speed>
</trkpt>
<trkpt lat="31.794523239" lon="35.437713623">
  <ele>-167.622314</ele>
  <time>2011-11-18T10:55:11Z</time>
  <speed>5.570000</speed>
</trkpt>
<trkpt lat="31.794572830" lon="35.437740326">
  <ele>-167.891846</ele>
  <time>2011-11-18T10:55:12Z</time>
  <speed>5.710000</speed>
</trkpt>
<trkpt lat="31.794620514" lon="35.437767029">
  <ele>-168.052002</ele>
  <time>2011-11-18T10:55:13Z</time>
  <speed>5.270000</speed>
</trkpt>
<trkpt lat="31.794652939" lon="35.437808990">
  <ele>-168.399658</ele>
  <time>2011-11-18T10:55:14Z</time>
  <speed>5.360000</speed>
</trkpt>
<trkpt lat="31.794677734" lon="35.437854767">
  <ele>-168.942627</ele>
  <time>2011-11-18T10:55:15Z</time>
  <speed>4.590000</speed>
</trkpt>
<trkpt lat="31.794708252" lon="35.437881470">
  <ele>-169.149658</ele>
  <time>2011-11-18T10:55:16Z</time>
  <speed>4.460000</speed>
</trkpt>
<trkpt lat="31.794740677" lon="35.437900543">
  <ele>-169.286377</ele>
  <time>2011-11-18T10:55:17Z</time>
  <speed>3.900000</speed>
</trkpt>
<trkpt lat="31.794776917" lon="35.437915802">
  <ele>-170.141846</ele>
  <time>2011-11-18T10:55:18Z</time>
  <speed>4.550000</speed>
</trkpt>
<trkpt lat="31.794818878" lon="35.437931061">
  <ele>-170.790283</ele>
  <time>2011-11-18T10:55:19Z</time>
  <speed>5.430000</speed>
</trkpt>
<trkpt lat="31.794862747" lon="35.437946320">
  <ele>-170.872314</ele>
  <time>2011-11-18T10:55:20Z</time>
  <speed>5.090000</speed>
</trkpt>
<trkpt lat="31.794908524" lon="35.437961578">
  <ele>-171.044189</ele>
  <time>2011-11-18T10:55:21Z</time>
  <speed>5.130000</speed>
</trkpt>
<trkpt lat="31.794958115" lon="35.437973022">
  <ele>-171.309814</ele>
  <time>2011-11-18T10:55:22Z</time>
  <speed>5.260000</speed>
</trkpt>
<trkpt lat="31.795000076" lon="35.437980652">
  <ele>-171.247314</ele>
  <time>2011-11-18T10:55:23Z</time>
  <speed>4.450000</speed>
</trkpt>
<trkpt lat="31.795038223" lon="35.437988281">
  <ele>-171.563721</ele>
  <time>2011-11-18T10:55:24Z</time>
  <speed>4.100000</speed>
</trkpt>
<trkpt lat="31.795070648" lon="35.438003540">
  <ele>-171.661377</ele>
  <time>2011-11-18T10:55:25Z</time>
  <speed>3.530000</speed>
</trkpt>
<trkpt lat="31.795103073" lon="35.438018799">
  <ele>-171.364502</ele>
  <time>2011-11-18T10:55:26Z</time>
  <speed>3.690000</speed>
</trkpt>
<trkpt lat="31.795133591" lon="35.438030243">
  <ele>-170.563721</ele>
  <time>2011-11-18T10:55:27Z</time>
  <speed>3.810000</speed>
</trkpt>
<trkpt lat="31.795167923" lon="35.438041687">
  <ele>-169.079346</ele>
  <time>2011-11-18T10:55:28Z</time>
  <speed>4.030000</speed>
</trkpt>
<trkpt lat="31.795200348" lon="35.438064575">
  <ele>-168.567627</ele>
  <time>2011-11-18T10:55:29Z</time>
  <speed>4.310000</speed>
</trkpt>
<trkpt lat="31.795232773" lon="35.438095093">
  <ele>-167.282471</ele>
  <time>2011-11-18T10:55:30Z</time>
  <speed>4.630000</speed>
</trkpt>
<trkpt lat="31.795259476" lon="35.438129425">
  <ele>-167.598877</ele>
  <time>2011-11-18T10:55:31Z</time>
  <speed>4.560000</speed>
</trkpt>
<trkpt lat="31.795278549" lon="35.438179016">
  <ele>-168.419189</ele>
  <time>2011-11-18T10:55:32Z</time>
  <speed>4.740000</speed>
</trkpt>
<trkpt lat="31.795293808" lon="35.438228607">
  <ele>-168.282471</ele>
  <time>2011-11-18T10:55:33Z</time>
  <speed>4.910000</speed>
</trkpt>
<trkpt lat="31.795301437" lon="35.438278198">
  <ele>-167.708252</ele>
  <time>2011-11-18T10:55:34Z</time>
  <speed>4.970000</speed>
</trkpt>
<trkpt lat="31.795310974" lon="35.438335419">
  <ele>-167.626221</ele>
  <time>2011-11-18T10:55:35Z</time>
  <speed>4.900000</speed>
</trkpt>
<trkpt lat="31.795312881" lon="35.438392639">
  <ele>-168.235596</ele>
  <time>2011-11-18T10:55:36Z</time>
  <speed>5.050000</speed>
</trkpt>
<trkpt lat="31.795309067" lon="35.438449860">
  <ele>-169.798096</ele>
  <time>2011-11-18T10:55:37Z</time>
  <speed>5.170000</speed>
</trkpt>
<trkpt lat="31.795312881" lon="35.438510895">
  <ele>-170.395752</ele>
  <time>2011-11-18T10:55:38Z</time>
  <speed>6.030000</speed>
</trkpt>
<trkpt lat="31.795322418" lon="35.438575745">
  <ele>-170.485596</ele>
  <time>2011-11-18T10:55:39Z</time>
  <speed>5.850000</speed>
</trkpt>
<trkpt lat="31.795335770" lon="35.438636780">
  <ele>-170.360596</ele>
  <time>2011-11-18T10:55:40Z</time>
  <speed>5.710000</speed>
</trkpt>
<trkpt lat="31.795368195" lon="35.438682556">
  <ele>-170.555908</ele>
  <time>2011-11-18T10:55:41Z</time>
  <speed>5.690000</speed>
</trkpt>
<trkpt lat="31.795398712" lon="35.438724518">
  <ele>-170.856689</ele>
  <time>2011-11-18T10:55:42Z</time>
  <speed>4.890000</speed>
</trkpt>
<trkpt lat="31.795415878" lon="35.438770294">
  <ele>-170.821533</ele>
  <time>2011-11-18T10:55:43Z</time>
  <speed>4.950000</speed>
</trkpt>
<trkpt lat="31.795431137" lon="35.438823700">
  <ele>-170.719971</ele>
  <time>2011-11-18T10:55:44Z</time>
  <speed>5.140000</speed>
</trkpt>
<trkpt lat="31.795444489" lon="35.438873291">
  <ele>-171.044189</ele>
  <time>2011-11-18T10:55:45Z</time>
  <speed>5.100000</speed>
</trkpt>
<trkpt lat="31.795454025" lon="35.438926697">
  <ele>-171.321533</ele>
  <time>2011-11-18T10:55:46Z</time>
  <speed>4.650000</speed>
</trkpt>
<trkpt lat="31.795473099" lon="35.438976288">
  <ele>-171.466064</ele>
  <time>2011-11-18T10:55:47Z</time>
  <speed>4.910000</speed>
</trkpt>
<trkpt lat="31.795492172" lon="35.439029694">
  <ele>-171.548096</ele>
  <time>2011-11-18T10:55:48Z</time>
  <speed>4.770000</speed>
</trkpt>
<trkpt lat="31.795509338" lon="35.439079285">
  <ele>-171.403564</ele>
  <time>2011-11-18T10:55:49Z</time>
  <speed>5.070000</speed>
</trkpt>
<trkpt lat="31.795526505" lon="35.439128876">
  <ele>-170.899658</ele>
  <time>2011-11-18T10:55:50Z</time>
  <speed>4.970000</speed>
</trkpt>
<trkpt lat="31.795543671" lon="35.439178467">
  <ele>-170.645752</ele>
  <time>2011-11-18T10:55:51Z</time>
  <speed>4.610000</speed>
</trkpt>
<trkpt lat="31.795558929" lon="35.439220428">
  <ele>-170.587158</ele>
  <time>2011-11-18T10:55:52Z</time>
  <speed>4.640000</speed>
</trkpt>
<trkpt lat="31.795578003" lon="35.439266205">
  <ele>-170.438721</ele>
  <time>2011-11-18T10:55:53Z</time>
  <speed>4.860000</speed>
</trkpt>
<trkpt lat="31.795595169" lon="35.439315796">
  <ele>-170.262939</ele>
  <time>2011-11-18T10:55:54Z</time>
  <speed>5.200000</speed>
</trkpt>
<trkpt lat="31.795616150" lon="35.439365387">
  <ele>-169.786377</ele>
  <time>2011-11-18T10:55:55Z</time>
  <speed>5.130000</speed>
</trkpt>
<trkpt lat="31.795639038" lon="35.439407349">
  <ele>-169.055908</ele>
  <time>2011-11-18T10:55:56Z</time>
  <speed>4.770000</speed>
</trkpt>
<trkpt lat="31.795652390" lon="35.439445496">
  <ele>-169.247314</ele>
  <time>2011-11-18T10:55:57Z</time>
  <speed>4.050000</speed>
</trkpt>
<trkpt lat="31.795663834" lon="35.439487457">
  <ele>-168.891846</ele>
  <time>2011-11-18T10:55:58Z</time>
  <speed>3.730000</speed>
</trkpt>
<trkpt lat="31.795671463" lon="35.439525604">
  <ele>-168.173096</ele>
  <time>2011-11-18T10:55:59Z</time>
  <speed>3.710000</speed>
</trkpt>
<trkpt lat="31.795675278" lon="35.439563751">
  <ele>-168.028564</ele>
  <time>2011-11-18T10:56:00Z</time>
  <speed>3.350000</speed>
</trkpt>
<trkpt lat="31.795681000" lon="35.439598083">
  <ele>-167.692627</ele>
  <time>2011-11-18T10:56:01Z</time>
  <speed>3.630000</speed>
</trkpt>
<trkpt lat="31.795684814" lon="35.439632416">
  <ele>-167.368408</ele>
  <time>2011-11-18T10:56:02Z</time>
  <speed>3.580000</speed>
</trkpt>
<trkpt lat="31.795692444" lon="35.439670563">
  <ele>-167.501221</ele>
  <time>2011-11-18T10:56:03Z</time>
  <speed>3.760000</speed>
</trkpt>
<trkpt lat="31.795705795" lon="35.439708710">
  <ele>-167.231689</ele>
  <time>2011-11-18T10:56:04Z</time>
  <speed>4.240000</speed>
</trkpt>
<trkpt lat="31.795715332" lon="35.439750671">
  <ele>-167.247314</ele>
  <time>2011-11-18T10:56:05Z</time>
  <speed>4.090000</speed>
</trkpt>
<trkpt lat="31.795724869" lon="35.439792633">
  <ele>-167.110596</ele>
  <time>2011-11-18T10:56:06Z</time>
  <speed>3.980000</speed>
</trkpt>
<trkpt lat="31.795728683" lon="35.439830780">
  <ele>-166.915283</ele>
  <time>2011-11-18T10:56:07Z</time>
  <speed>3.880000</speed>
</trkpt>
<trkpt lat="31.795736313" lon="35.439872742">
  <ele>-166.684814</ele>
  <time>2011-11-18T10:56:08Z</time>
  <speed>4.410000</speed>
</trkpt>
<trkpt lat="31.795738220" lon="35.439922333">
  <ele>-166.552002</ele>
  <time>2011-11-18T10:56:09Z</time>
  <speed>4.610000</speed>
</trkpt>
<trkpt lat="31.795743942" lon="35.439975739">
  <ele>-166.587158</ele>
  <time>2011-11-18T10:56:10Z</time>
  <speed>4.880000</speed>
</trkpt>
<trkpt lat="31.795745850" lon="35.440025330">
  <ele>-167.868408</ele>
  <time>2011-11-18T10:56:11Z</time>
  <speed>5.050000</speed>
</trkpt>
<trkpt lat="31.795745850" lon="35.440082550">
  <ele>-168.286377</ele>
  <time>2011-11-18T10:56:12Z</time>
  <speed>4.930000</speed>
</trkpt>
<trkpt lat="31.795742035" lon="35.440135956">
  <ele>-168.200439</ele>
  <time>2011-11-18T10:56:13Z</time>
  <speed>5.090000</speed>
</trkpt>
<trkpt lat="31.795743942" lon="35.440189362">
  <ele>-168.454346</ele>
  <time>2011-11-18T10:56:14Z</time>
  <speed>5.020000</speed>
</trkpt>
<trkpt lat="31.795753479" lon="35.440227509">
  <ele>-167.954346</ele>
  <time>2011-11-18T10:56:15Z</time>
  <speed>3.160000</speed>
</trkpt>
<trkpt lat="31.795780182" lon="35.440277100">
  <ele>-168.227783</ele>
  <time>2011-11-18T10:56:17Z</time>
  <speed>2.530000</speed>
</trkpt>
<trkpt lat="31.795791626" lon="35.440319061">
  <ele>-168.708252</ele>
  <time>2011-11-18T10:56:19Z</time>
  <speed>1.590000</speed>
</trkpt>
<trkpt lat="31.795797348" lon="35.440353394">
  <ele>-169.020752</ele>
  <time>2011-11-18T10:56:22Z</time>
  <speed>1.490000</speed>
</trkpt>
<trkpt lat="31.795797348" lon="35.440383911">
  <ele>-169.380127</ele>
  <time>2011-11-18T10:56:24Z</time>
  <speed>1.900000</speed>
</trkpt>
<trkpt lat="31.795803070" lon="35.440425873">
  <ele>-169.231689</ele>
  <time>2011-11-18T10:56:26Z</time>
  <speed>1.090000</speed>
</trkpt>
<trkpt lat="31.795801163" lon="35.440464020">
  <ele>-169.536377</ele>
  <time>2011-11-18T10:57:15Z</time>
  <speed>3.080000</speed>
</trkpt>
<trkpt lat="31.795812607" lon="35.440502167">
  <ele>-169.231689</ele>
  <time>2011-11-18T10:57:16Z</time>
  <speed>3.060000</speed>
</trkpt>
<trkpt lat="31.795822144" lon="35.440532684">
  <ele>-169.497314</ele>
  <time>2011-11-18T10:57:17Z</time>
  <speed>3.310000</speed>
</trkpt>
<trkpt lat="31.795839310" lon="35.440559387">
  <ele>-169.614502</ele>
  <time>2011-11-18T10:57:18Z</time>
  <speed>3.260000</speed>
</trkpt>
<trkpt lat="31.795862198" lon="35.440586090">
  <ele>-169.407471</ele>
  <time>2011-11-18T10:57:19Z</time>
  <speed>2.980000</speed>
</trkpt>
<trkpt lat="31.795885086" lon="35.440605164">
  <ele>-169.137939</ele>
  <time>2011-11-18T10:57:20Z</time>
  <speed>2.700000</speed>
</trkpt>
<trkpt lat="31.795915604" lon="35.440647125">
  <ele>-169.516846</ele>
  <time>2011-11-18T10:57:22Z</time>
  <speed>2.050000</speed>
</trkpt>
<trkpt lat="31.795938492" lon="35.440696716">
  <ele>-169.391846</ele>
  <time>2011-11-18T10:57:24Z</time>
  <speed>2.600000</speed>
</trkpt>
<trkpt lat="31.795951843" lon="35.440753937">
  <ele>-170.583252</ele>
  <time>2011-11-18T10:57:26Z</time>
  <speed>3.290000</speed>
</trkpt>
<trkpt lat="31.795963287" lon="35.440792084">
  <ele>-171.196533</ele>
  <time>2011-11-18T10:57:27Z</time>
  <speed>3.260000</speed>
</trkpt>
<trkpt lat="31.795974731" lon="35.440822601">
  <ele>-171.317627</ele>
  <time>2011-11-18T10:57:28Z</time>
  <speed>3.390000</speed>
</trkpt>
<trkpt lat="31.795989990" lon="35.440876007">
  <ele>-171.278564</ele>
  <time>2011-11-18T10:57:30Z</time>
  <speed>2.470000</speed>
</trkpt>
<trkpt lat="31.795999527" lon="35.440906525">
  <ele>-170.591064</ele>
  <time>2011-11-18T10:57:31Z</time>
  <speed>3.000000</speed>
</trkpt>
<trkpt lat="31.796014786" lon="35.440937042">
  <ele>-170.481689</ele>
  <time>2011-11-18T10:57:32Z</time>
  <speed>3.580000</speed>
</trkpt>
<trkpt lat="31.796041489" lon="35.440959930">
  <ele>-170.536377</ele>
  <time>2011-11-18T10:57:33Z</time>
  <speed>3.460000</speed>
</trkpt>
<trkpt lat="31.796075821" lon="35.441009521">
  <ele>-169.911377</ele>
  <time>2011-11-18T10:57:35Z</time>
  <speed>3.380000</speed>
</trkpt>
<trkpt lat="31.796098709" lon="35.441036224">
  <ele>-170.052002</ele>
  <time>2011-11-18T10:57:36Z</time>
  <speed>3.330000</speed>
</trkpt>
<trkpt lat="31.796123505" lon="35.441062927">
  <ele>-169.575439</ele>
  <time>2011-11-18T10:57:37Z</time>
  <speed>3.460000</speed>
</trkpt>
<trkpt lat="31.796146393" lon="35.441089630">
  <ele>-169.563721</ele>
  <time>2011-11-18T10:57:38Z</time>
  <speed>3.110000</speed>
</trkpt>
<trkpt lat="31.796167374" lon="35.441116333">
  <ele>-169.532471</ele>
  <time>2011-11-18T10:57:39Z</time>
  <speed>3.400000</speed>
</trkpt>
<trkpt lat="31.796180725" lon="35.441146851">
  <ele>-169.356689</ele>
  <time>2011-11-18T10:57:40Z</time>
  <speed>3.370000</speed>
</trkpt>
<trkpt lat="31.796188354" lon="35.441181183">
  <ele>-169.337158</ele>
  <time>2011-11-18T10:57:41Z</time>
  <speed>3.320000</speed>
</trkpt>
<trkpt lat="31.796192169" lon="35.441219330">
  <ele>-168.923096</ele>
  <time>2011-11-18T10:57:42Z</time>
  <speed>3.500000</speed>
</trkpt>
<trkpt lat="31.796199799" lon="35.441265106">
  <ele>-169.356689</ele>
  <time>2011-11-18T10:57:43Z</time>
  <speed>3.510000</speed>
</trkpt>
<trkpt lat="31.796205521" lon="35.441307068">
  <ele>-169.774658</ele>
  <time>2011-11-18T10:57:44Z</time>
  <speed>3.960000</speed>
</trkpt>
<trkpt lat="31.796211243" lon="35.441352844">
  <ele>-169.548096</ele>
  <time>2011-11-18T10:57:45Z</time>
  <speed>4.160000</speed>
</trkpt>
<trkpt lat="31.796215057" lon="35.441398621">
  <ele>-169.548096</ele>
  <time>2011-11-18T10:57:46Z</time>
  <speed>4.360000</speed>
</trkpt>
<trkpt lat="31.796213150" lon="35.441444397">
  <ele>-169.321533</ele>
  <time>2011-11-18T10:57:47Z</time>
  <speed>4.460000</speed>
</trkpt>
<trkpt lat="31.796211243" lon="35.441493988">
  <ele>-169.259033</ele>
  <time>2011-11-18T10:57:48Z</time>
  <speed>4.300000</speed>
</trkpt>
<trkpt lat="31.796220779" lon="35.441532135">
  <ele>-169.157471</ele>
  <time>2011-11-18T10:57:49Z</time>
  <speed>3.770000</speed>
</trkpt>
<trkpt lat="31.796228409" lon="35.441570282">
  <ele>-169.384033</ele>
  <time>2011-11-18T10:57:50Z</time>
  <speed>3.420000</speed>
</trkpt>
<trkpt lat="31.796234131" lon="35.441608429">
  <ele>-169.634033</ele>
  <time>2011-11-18T10:57:51Z</time>
  <speed>3.850000</speed>
</trkpt>
<trkpt lat="31.796236038" lon="35.441654205">
  <ele>-170.637939</ele>
  <time>2011-11-18T10:57:52Z</time>
  <speed>4.200000</speed>
</trkpt>
<trkpt lat="31.796236038" lon="35.441699982">
  <ele>-171.075439</ele>
  <time>2011-11-18T10:57:53Z</time>
  <speed>4.650000</speed>
</trkpt>
<trkpt lat="31.796232224" lon="35.441749573">
  <ele>-172.161377</ele>
  <time>2011-11-18T10:57:54Z</time>
  <speed>5.330000</speed>
</trkpt>
<trkpt lat="31.796220779" lon="35.441806793">
  <ele>-172.294189</ele>
  <time>2011-11-18T10:57:55Z</time>
  <speed>5.150000</speed>
</trkpt>
<trkpt lat="31.796216965" lon="35.441856384">
  <ele>-173.130127</ele>
  <time>2011-11-18T10:57:56Z</time>
  <speed>4.970000</speed>
</trkpt>
<trkpt lat="31.796220779" lon="35.441902161">
  <ele>-173.200439</ele>
  <time>2011-11-18T10:57:57Z</time>
  <speed>3.680000</speed>
</trkpt>
<trkpt lat="31.796237946" lon="35.441936493">
  <ele>-172.137939</ele>
  <time>2011-11-18T10:57:58Z</time>
  <speed>3.050000</speed>
</trkpt>
<trkpt lat="31.796291351" lon="35.441963196">
  <ele>-172.794189</ele>
  <time>2011-11-18T10:58:00Z</time>
  <speed>2.700000</speed>
</trkpt>
<trkpt lat="31.796319962" lon="35.441978455">
  <ele>-172.137939</ele>
  <time>2011-11-18T10:58:01Z</time>
  <speed>3.260000</speed>
</trkpt>
<trkpt lat="31.796346664" lon="35.442001343">
  <ele>-172.227783</ele>
  <time>2011-11-18T10:58:02Z</time>
  <speed>3.410000</speed>
</trkpt>
<trkpt lat="31.796369553" lon="35.442035675">
  <ele>-171.895752</ele>
  <time>2011-11-18T10:58:03Z</time>
  <speed>4.100000</speed>
</trkpt>
<trkpt lat="31.796396255" lon="35.442077637">
  <ele>-170.872314</ele>
  <time>2011-11-18T10:58:04Z</time>
  <speed>4.300000</speed>
</trkpt>
<trkpt lat="31.796413422" lon="35.442115784">
  <ele>-170.528564</ele>
  <time>2011-11-18T10:58:05Z</time>
  <speed>4.170000</speed>
</trkpt>
<trkpt lat="31.796438217" lon="35.442150116">
  <ele>-170.009033</ele>
  <time>2011-11-18T10:58:06Z</time>
  <speed>4.050000</speed>
</trkpt>
<trkpt lat="31.796466827" lon="35.442184448">
  <ele>-169.509033</ele>
  <time>2011-11-18T10:58:07Z</time>
  <speed>4.120000</speed>
</trkpt>
<trkpt lat="31.796491623" lon="35.442214966">
  <ele>-169.005127</ele>
  <time>2011-11-18T10:58:08Z</time>
  <speed>3.740000</speed>
</trkpt>
<trkpt lat="31.796510696" lon="35.442249298">
  <ele>-169.094971</ele>
  <time>2011-11-18T10:58:09Z</time>
  <speed>4.170000</speed>
</trkpt>
<trkpt lat="31.796525955" lon="35.442291260">
  <ele>-169.399658</ele>
  <time>2011-11-18T10:58:10Z</time>
  <speed>4.040000</speed>
</trkpt>
<trkpt lat="31.796531677" lon="35.442333221">
  <ele>-170.024658</ele>
  <time>2011-11-18T10:58:11Z</time>
  <speed>4.320000</speed>
</trkpt>
<trkpt lat="31.796545029" lon="35.442375183">
  <ele>-170.098877</ele>
  <time>2011-11-18T10:58:12Z</time>
  <speed>4.520000</speed>
</trkpt>
<trkpt lat="31.796566010" lon="35.442413330">
  <ele>-169.692627</ele>
  <time>2011-11-18T10:58:13Z</time>
  <speed>3.750000</speed>
</trkpt>
<trkpt lat="31.796586990" lon="35.442443848">
  <ele>-170.259033</ele>
  <time>2011-11-18T10:58:14Z</time>
  <speed>3.850000</speed>
</trkpt>
<trkpt lat="31.796611786" lon="35.442474365">
  <ele>-169.661377</ele>
  <time>2011-11-18T10:58:15Z</time>
  <speed>3.790000</speed>
</trkpt>
<trkpt lat="31.796634674" lon="35.442497253">
  <ele>-169.942627</ele>
  <time>2011-11-18T10:58:16Z</time>
  <speed>3.020000</speed>
</trkpt>
<trkpt lat="31.796661377" lon="35.442546844">
  <ele>-170.563721</ele>
  <time>2011-11-18T10:58:18Z</time>
  <speed>2.960000</speed>
</trkpt>
<trkpt lat="31.796670914" lon="35.442577362">
  <ele>-170.661377</ele>
  <time>2011-11-18T10:58:19Z</time>
  <speed>3.400000</speed>
</trkpt>
<trkpt lat="31.796684265" lon="35.442611694">
  <ele>-170.497314</ele>
  <time>2011-11-18T10:58:20Z</time>
  <speed>3.380000</speed>
</trkpt>
<trkpt lat="31.796703339" lon="35.442638397">
  <ele>-171.466064</ele>
  <time>2011-11-18T10:58:21Z</time>
  <speed>3.260000</speed>
</trkpt>
<trkpt lat="31.796726227" lon="35.442665100">
  <ele>-172.087158</ele>
  <time>2011-11-18T10:58:22Z</time>
  <speed>3.580000</speed>
</trkpt>
<trkpt lat="31.796749115" lon="35.442703247">
  <ele>-172.063721</ele>
  <time>2011-11-18T10:58:23Z</time>
  <speed>4.450000</speed>
</trkpt>
<trkpt lat="31.796773911" lon="35.442733765">
  <ele>-173.903564</ele>
  <time>2011-11-18T10:58:24Z</time>
  <speed>3.390000</speed>
</trkpt>
<trkpt lat="31.796806335" lon="35.442749023">
  <ele>-174.657471</ele>
  <time>2011-11-18T10:58:25Z</time>
  <speed>4.110000</speed>
</trkpt>
<trkpt lat="31.796842575" lon="35.442768097">
  <ele>-175.122314</ele>
  <time>2011-11-18T10:58:26Z</time>
  <speed>4.060000</speed>
</trkpt>
<trkpt lat="31.796882629" lon="35.442794800">
  <ele>-175.743408</ele>
  <time>2011-11-18T10:58:27Z</time>
  <speed>4.340000</speed>
</trkpt>
<trkpt lat="31.796911240" lon="35.442821503">
  <ele>-175.505127</ele>
  <time>2011-11-18T10:58:28Z</time>
  <speed>4.450000</speed>
</trkpt>
<trkpt lat="31.796930313" lon="35.442859650">
  <ele>-176.005127</ele>
  <time>2011-11-18T10:58:29Z</time>
  <speed>4.180000</speed>
</trkpt>
<trkpt lat="31.796939850" lon="35.442897797">
  <ele>-176.239502</ele>
  <time>2011-11-18T10:58:30Z</time>
  <speed>4.130000</speed>
</trkpt>
<trkpt lat="31.796962738" lon="35.442935944">
  <ele>-176.298096</ele>
  <time>2011-11-18T10:58:31Z</time>
  <speed>4.560000</speed>
</trkpt>
<trkpt lat="31.796997070" lon="35.442966461">
  <ele>-176.540283</ele>
  <time>2011-11-18T10:58:32Z</time>
  <speed>4.630000</speed>
</trkpt>
<trkpt lat="31.797031403" lon="35.442996979">
  <ele>-176.606689</ele>
  <time>2011-11-18T10:58:33Z</time>
  <speed>3.990000</speed>
</trkpt>
<trkpt lat="31.797063828" lon="35.443019867">
  <ele>-176.641846</ele>
  <time>2011-11-18T10:58:34Z</time>
  <speed>3.490000</speed>
</trkpt>
<trkpt lat="31.797086716" lon="35.443035126">
  <ele>-177.313721</ele>
  <time>2011-11-18T10:58:35Z</time>
  <speed>2.440000</speed>
</trkpt>
<trkpt lat="31.797130585" lon="35.443061829">
  <ele>-176.630127</ele>
  <time>2011-11-18T10:58:37Z</time>
  <speed>2.590000</speed>
</trkpt>
<trkpt lat="31.797168732" lon="35.443096161">
  <ele>-176.512939</ele>
  <time>2011-11-18T10:58:39Z</time>
  <speed>2.270000</speed>
</trkpt>
<trkpt lat="31.797187805" lon="35.443122864">
  <ele>-177.423096</ele>
  <time>2011-11-18T10:58:41Z</time>
  <speed>0.570000</speed>
</trkpt>
<trkpt lat="31.797178268" lon="35.443168640">
  <ele>-176.981689</ele>
  <time>2011-11-18T10:58:52Z</time>
  <speed>2.270000</speed>
</trkpt>
<trkpt lat="31.797145844" lon="35.443222046">
  <ele>-177.223877</ele>
  <time>2011-11-18T10:58:54Z</time>
  <speed>3.260000</speed>
</trkpt>
<trkpt lat="31.797121048" lon="35.443248749">
  <ele>-176.985596</ele>
  <time>2011-11-18T10:58:55Z</time>
  <speed>3.330000</speed>
</trkpt>
<trkpt lat="31.797101974" lon="35.443275452">
  <ele>-177.052002</ele>
  <time>2011-11-18T10:58:56Z</time>
  <speed>3.080000</speed>
</trkpt>
<trkpt lat="31.797084808" lon="35.443309784">
  <ele>-176.930908</ele>
  <time>2011-11-18T10:58:57Z</time>
  <speed>3.500000</speed>
</trkpt>
<trkpt lat="31.797069550" lon="35.443351746">
  <ele>-176.821533</ele>
  <time>2011-11-18T10:58:58Z</time>
  <speed>3.670000</speed>
</trkpt>
<trkpt lat="31.797061920" lon="35.443389893">
  <ele>-177.188721</ele>
  <time>2011-11-18T10:58:59Z</time>
  <speed>3.620000</speed>
</trkpt>
<trkpt lat="31.797060013" lon="35.443431854">
  <ele>-177.274658</ele>
  <time>2011-11-18T10:59:00Z</time>
  <speed>3.980000</speed>
</trkpt>
<trkpt lat="31.797063828" lon="35.443473816">
  <ele>-177.794189</ele>
  <time>2011-11-18T10:59:01Z</time>
  <speed>4.430000</speed>
</trkpt>
<trkpt lat="31.797061920" lon="35.443527222">
  <ele>-177.645752</ele>
  <time>2011-11-18T10:59:02Z</time>
  <speed>4.690000</speed>
</trkpt>
<trkpt lat="31.797060013" lon="35.443572998">
  <ele>-177.501221</ele>
  <time>2011-11-18T10:59:03Z</time>
  <speed>4.020000</speed>
</trkpt>
<trkpt lat="31.797056198" lon="35.443618774">
  <ele>-177.290283</ele>
  <time>2011-11-18T10:59:04Z</time>
  <speed>4.290000</speed>
</trkpt>
<trkpt lat="31.797050476" lon="35.443664551">
  <ele>-177.591064</ele>
  <time>2011-11-18T10:59:05Z</time>
  <speed>4.610000</speed>
</trkpt>
<trkpt lat="31.797044754" lon="35.443717957">
  <ele>-178.458252</ele>
  <time>2011-11-18T10:59:06Z</time>
  <speed>5.600000</speed>
</trkpt>
<trkpt lat="31.797044754" lon="35.443782806">
  <ele>-179.055908</ele>
  <time>2011-11-18T10:59:07Z</time>
  <speed>5.830000</speed>
</trkpt>
<trkpt lat="31.797052383" lon="35.443836212">
  <ele>-180.505127</ele>
  <time>2011-11-18T10:59:08Z</time>
  <speed>5.360000</speed>
</trkpt>
<trkpt lat="31.797088623" lon="35.443881989">
  <ele>-181.524658</ele>
  <time>2011-11-18T10:59:09Z</time>
  <speed>6.890000</speed>
</trkpt>
<trkpt lat="31.797147751" lon="35.443916321">
  <ele>-182.833252</ele>
  <time>2011-11-18T10:59:10Z</time>
  <speed>7.260000</speed>
</trkpt>
<trkpt lat="31.797214508" lon="35.443943024">
  <ele>-183.567627</ele>
  <time>2011-11-18T10:59:11Z</time>
  <speed>7.340000</speed>
</trkpt>
<trkpt lat="31.797281265" lon="35.443958282">
  <ele>-185.454346</ele>
  <time>2011-11-18T10:59:12Z</time>
  <speed>6.990000</speed>
</trkpt>
<trkpt lat="31.797332764" lon="35.443984985">
  <ele>-187.075439</ele>
  <time>2011-11-18T10:59:13Z</time>
  <speed>6.220000</speed>
</trkpt>
<trkpt lat="31.797388077" lon="35.444004059">
  <ele>-188.309814</ele>
  <time>2011-11-18T10:59:14Z</time>
  <speed>5.180000</speed>
</trkpt>
<trkpt lat="31.797433853" lon="35.444015503">
  <ele>-188.751221</ele>
  <time>2011-11-18T10:59:15Z</time>
  <speed>5.170000</speed>
</trkpt>
<trkpt lat="31.797491074" lon="35.444023132">
  <ele>-189.969971</ele>
  <time>2011-11-18T10:59:16Z</time>
  <speed>6.530000</speed>
</trkpt>
<trkpt lat="31.797546387" lon="35.444034576">
  <ele>-192.384033</ele>
  <time>2011-11-18T10:59:17Z</time>
  <speed>6.780000</speed>
</trkpt>
<trkpt lat="31.797616959" lon="35.444042206">
  <ele>-193.852783</ele>
  <time>2011-11-18T10:59:18Z</time>
  <speed>7.930000</speed>
</trkpt>
<trkpt lat="31.797698975" lon="35.444061279">
  <ele>-193.270752</ele>
  <time>2011-11-18T10:59:19Z</time>
  <speed>9.190000</speed>
</trkpt>
<trkpt lat="31.797773361" lon="35.444091797">
  <ele>-191.184814</ele>
  <time>2011-11-18T10:59:20Z</time>
  <speed>7.670000</speed>
</trkpt>
<trkpt lat="31.797834396" lon="35.444133759">
  <ele>-189.696533</ele>
  <time>2011-11-18T10:59:21Z</time>
  <speed>7.320000</speed>
</trkpt>
<trkpt lat="31.797876358" lon="35.444179535">
  <ele>-190.001221</ele>
  <time>2011-11-18T10:59:22Z</time>
  <speed>6.600000</speed>
</trkpt>
<trkpt lat="31.797927856" lon="35.444225311">
  <ele>-189.848877</ele>
  <time>2011-11-18T10:59:23Z</time>
  <speed>6.930000</speed>
</trkpt>
<trkpt lat="31.797977448" lon="35.444267273">
  <ele>-189.372314</ele>
  <time>2011-11-18T10:59:24Z</time>
  <speed>6.670000</speed>
</trkpt>
<trkpt lat="31.798021317" lon="35.444305420">
  <ele>-188.762939</ele>
  <time>2011-11-18T10:59:25Z</time>
  <speed>5.640000</speed>
</trkpt>
<trkpt lat="31.798057556" lon="35.444335938">
  <ele>-188.481689</ele>
  <time>2011-11-18T10:59:26Z</time>
  <speed>4.750000</speed>
</trkpt>
<trkpt lat="31.798078537" lon="35.444366455">
  <ele>-188.782471</ele>
  <time>2011-11-18T10:59:27Z</time>
  <speed>3.750000</speed>
</trkpt>
<trkpt lat="31.798101425" lon="35.444396973">
  <ele>-188.184814</ele>
  <time>2011-11-18T10:59:28Z</time>
  <speed>3.500000</speed>
</trkpt>
<trkpt lat="31.798130035" lon="35.444423676">
  <ele>-187.485596</ele>
  <time>2011-11-18T10:59:29Z</time>
  <speed>3.970000</speed>
</trkpt>
<trkpt lat="31.798154831" lon="35.444446564">
  <ele>-186.536377</ele>
  <time>2011-11-18T10:59:30Z</time>
  <speed>3.620000</speed>
</trkpt>
<trkpt lat="31.798177719" lon="35.444469452">
  <ele>-185.270752</ele>
  <time>2011-11-18T10:59:31Z</time>
  <speed>3.260000</speed>
</trkpt>
<trkpt lat="31.798196793" lon="35.444492340">
  <ele>-184.309814</ele>
  <time>2011-11-18T10:59:32Z</time>
  <speed>2.800000</speed>
</trkpt>
<trkpt lat="31.798221588" lon="35.444534302">
  <ele>-184.852783</ele>
  <time>2011-11-18T10:59:34Z</time>
  <speed>3.110000</speed>
</trkpt>
<trkpt lat="31.798244476" lon="35.444557190">
  <ele>-184.977783</ele>
  <time>2011-11-18T10:59:35Z</time>
  <speed>3.830000</speed>
</trkpt>
<trkpt lat="31.798271179" lon="35.444587708">
  <ele>-184.864502</ele>
  <time>2011-11-18T10:59:36Z</time>
  <speed>4.140000</speed>
</trkpt>
<trkpt lat="31.798305511" lon="35.444618225">
  <ele>-185.235596</ele>
  <time>2011-11-18T10:59:37Z</time>
  <speed>4.850000</speed>
</trkpt>
<trkpt lat="31.798336029" lon="35.444656372">
  <ele>-185.989502</ele>
  <time>2011-11-18T10:59:38Z</time>
  <speed>5.250000</speed>
</trkpt>
<trkpt lat="31.798370361" lon="35.444698334">
  <ele>-186.641846</ele>
  <time>2011-11-18T10:59:39Z</time>
  <speed>6.150000</speed>
</trkpt>
<trkpt lat="31.798404694" lon="35.444747925">
  <ele>-186.579346</ele>
  <time>2011-11-18T10:59:40Z</time>
  <speed>6.380000</speed>
</trkpt>
<trkpt lat="31.798433304" lon="35.444801331">
  <ele>-186.856689</ele>
  <time>2011-11-18T10:59:41Z</time>
  <speed>6.070000</speed>
</trkpt>
<trkpt lat="31.798460007" lon="35.444858551">
  <ele>-187.173096</ele>
  <time>2011-11-18T10:59:42Z</time>
  <speed>6.410000</speed>
</trkpt>
<trkpt lat="31.798480988" lon="35.444919586">
  <ele>-187.579346</ele>
  <time>2011-11-18T10:59:43Z</time>
  <speed>6.720000</speed>
</trkpt>
<trkpt lat="31.798501968" lon="35.444988251">
  <ele>-187.454346</ele>
  <time>2011-11-18T10:59:44Z</time>
  <speed>7.080000</speed>
</trkpt>
<trkpt lat="31.798528671" lon="35.445060730">
  <ele>-187.700439</ele>
  <time>2011-11-18T10:59:45Z</time>
  <speed>7.540000</speed>
</trkpt>
<trkpt lat="31.798555374" lon="35.445133209">
  <ele>-188.337158</ele>
  <time>2011-11-18T10:59:46Z</time>
  <speed>7.910000</speed>
</trkpt>
<trkpt lat="31.798582077" lon="35.445213318">
  <ele>-189.317627</ele>
  <time>2011-11-18T10:59:47Z</time>
  <speed>8.130000</speed>
</trkpt>
<trkpt lat="31.798606873" lon="35.445297241">
  <ele>-189.766846</ele>
  <time>2011-11-18T10:59:48Z</time>
  <speed>8.470000</speed>
</trkpt>
<trkpt lat="31.798625946" lon="35.445384979">
  <ele>-190.762939</ele>
  <time>2011-11-18T10:59:49Z</time>
  <speed>8.510000</speed>
</trkpt>
<trkpt lat="31.798639297" lon="35.445472717">
  <ele>-191.407471</ele>
  <time>2011-11-18T10:59:50Z</time>
  <speed>8.460000</speed>
</trkpt>
<trkpt lat="31.798650742" lon="35.445560455">
  <ele>-192.052002</ele>
  <time>2011-11-18T10:59:51Z</time>
  <speed>8.670000</speed>
</trkpt>
<trkpt lat="31.798666000" lon="35.445652008">
  <ele>-192.634033</ele>
  <time>2011-11-18T10:59:52Z</time>
  <speed>8.750000</speed>
</trkpt>
<trkpt lat="31.798675537" lon="35.445743561">
  <ele>-193.098877</ele>
  <time>2011-11-18T10:59:53Z</time>
  <speed>8.580000</speed>
</trkpt>
<trkpt lat="31.798679352" lon="35.445838928">
  <ele>-193.434814</ele>
  <time>2011-11-18T10:59:54Z</time>
  <speed>8.250000</speed>
</trkpt>
<trkpt lat="31.798681259" lon="35.445926666">
  <ele>-194.161377</ele>
  <time>2011-11-18T10:59:55Z</time>
  <speed>8.590000</speed>
</trkpt>
<trkpt lat="31.798683167" lon="35.446018219">
  <ele>-194.825439</ele>
  <time>2011-11-18T10:59:56Z</time>
  <speed>8.320000</speed>
</trkpt>
<trkpt lat="31.798686981" lon="35.446105957">
  <ele>-195.227783</ele>
  <time>2011-11-18T10:59:57Z</time>
  <speed>8.150000</speed>
</trkpt>
<trkpt lat="31.798686981" lon="35.446174622">
  <ele>-195.704346</ele>
  <time>2011-11-18T10:59:58Z</time>
  <speed>5.210000</speed>
</trkpt>
<trkpt lat="31.798690796" lon="35.446228027">
  <ele>-196.294189</ele>
  <time>2011-11-18T10:59:59Z</time>
  <speed>5.870000</speed>
</trkpt>
<trkpt lat="31.798698425" lon="35.446292877">
  <ele>-196.403564</ele>
  <time>2011-11-18T11:00:00Z</time>
  <speed>6.300000</speed>
</trkpt>
<trkpt lat="31.798698425" lon="35.446357727">
  <ele>-197.497314</ele>
  <time>2011-11-18T11:00:01Z</time>
  <speed>6.870000</speed>
</trkpt>
<trkpt lat="31.798694611" lon="35.446426392">
  <ele>-198.509033</ele>
  <time>2011-11-18T11:00:02Z</time>
  <speed>6.310000</speed>
</trkpt>
<trkpt lat="31.798688889" lon="35.446483612">
  <ele>-199.446533</ele>
  <time>2011-11-18T11:00:03Z</time>
  <speed>4.740000</speed>
</trkpt>
<trkpt lat="31.798688889" lon="35.446525574">
  <ele>-200.610596</ele>
  <time>2011-11-18T11:00:04Z</time>
  <speed>4.000000</speed>
</trkpt>
<trkpt lat="31.798694611" lon="35.446567535">
  <ele>-202.864502</ele>
  <time>2011-11-18T11:00:05Z</time>
  <speed>4.680000</speed>
</trkpt>
<trkpt lat="31.798696518" lon="35.446620941">
  <ele>-204.805908</ele>
  <time>2011-11-18T11:00:06Z</time>
  <speed>5.420000</speed>
</trkpt>
<trkpt lat="31.798696518" lon="35.446685791">
  <ele>-206.969971</ele>
  <time>2011-11-18T11:00:07Z</time>
  <speed>7.710000</speed>
</trkpt>
<trkpt lat="31.798698425" lon="35.446773529">
  <ele>-207.704346</ele>
  <time>2011-11-18T11:00:08Z</time>
  <speed>8.760000</speed>
</trkpt>
<trkpt lat="31.798707962" lon="35.446872711">
  <ele>-208.505127</ele>
  <time>2011-11-18T11:00:09Z</time>
  <speed>8.970000</speed>
</trkpt>
<trkpt lat="31.798721313" lon="35.446964264">
  <ele>-208.895752</ele>
  <time>2011-11-18T11:00:10Z</time>
  <speed>8.740000</speed>
</trkpt>
<trkpt lat="31.798732758" lon="35.447055817">
  <ele>-209.223877</ele>
  <time>2011-11-18T11:00:11Z</time>
  <speed>8.530000</speed>
</trkpt>
<trkpt lat="31.798749924" lon="35.447139740">
  <ele>-210.106689</ele>
  <time>2011-11-18T11:00:12Z</time>
  <speed>8.490000</speed>
</trkpt>
<trkpt lat="31.798763275" lon="35.447227478">
  <ele>-210.052002</ele>
  <time>2011-11-18T11:00:13Z</time>
  <speed>8.600000</speed>
</trkpt>
<trkpt lat="31.798780441" lon="35.447319031">
  <ele>-210.153564</ele>
  <time>2011-11-18T11:00:14Z</time>
  <speed>8.450000</speed>
</trkpt>
<trkpt lat="31.798801422" lon="35.447402954">
  <ele>-210.294189</ele>
  <time>2011-11-18T11:00:15Z</time>
  <speed>8.260000</speed>
</trkpt>
<trkpt lat="31.798824310" lon="35.447483063">
  <ele>-210.680908</ele>
  <time>2011-11-18T11:00:16Z</time>
  <speed>7.930000</speed>
</trkpt>
<trkpt lat="31.798852921" lon="35.447563171">
  <ele>-210.688721</ele>
  <time>2011-11-18T11:00:17Z</time>
  <speed>7.830000</speed>
</trkpt>
<trkpt lat="31.798879623" lon="35.447639465">
  <ele>-211.055908</ele>
  <time>2011-11-18T11:00:18Z</time>
  <speed>7.650000</speed>
</trkpt>
<trkpt lat="31.798900604" lon="35.447715759">
  <ele>-211.134033</ele>
  <time>2011-11-18T11:00:19Z</time>
  <speed>7.170000</speed>
</trkpt>
<trkpt lat="31.798929214" lon="35.447780609">
  <ele>-211.540283</ele>
  <time>2011-11-18T11:00:20Z</time>
  <speed>6.900000</speed>
</trkpt>
<trkpt lat="31.798957825" lon="35.447845459">
  <ele>-212.380127</ele>
  <time>2011-11-18T11:00:21Z</time>
  <speed>6.710000</speed>
</trkpt>
<trkpt lat="31.798986435" lon="35.447902679">
  <ele>-212.571533</ele>
  <time>2011-11-18T11:00:22Z</time>
  <speed>6.260000</speed>
</trkpt>
<trkpt lat="31.799013138" lon="35.447956085">
  <ele>-213.399658</ele>
  <time>2011-11-18T11:00:23Z</time>
  <speed>6.490000</speed>
</trkpt>
<trkpt lat="31.799049377" lon="35.448009491">
  <ele>-213.708252</ele>
  <time>2011-11-18T11:00:24Z</time>
  <speed>6.460000</speed>
</trkpt>
<trkpt lat="31.799091339" lon="35.448066711">
  <ele>-213.684814</ele>
  <time>2011-11-18T11:00:25Z</time>
  <speed>6.620000</speed>
</trkpt>
<trkpt lat="31.799133301" lon="35.448112488">
  <ele>-214.501221</ele>
  <time>2011-11-18T11:00:26Z</time>
  <speed>6.500000</speed>
</trkpt>
<trkpt lat="31.799180984" lon="35.448158264">
  <ele>-214.360596</ele>
  <time>2011-11-18T11:00:27Z</time>
  <speed>6.780000</speed>
</trkpt>
<trkpt lat="31.799230576" lon="35.448192596">
  <ele>-214.927002</ele>
  <time>2011-11-18T11:00:28Z</time>
  <speed>6.230000</speed>
</trkpt>
<trkpt lat="31.799274445" lon="35.448226929">
  <ele>-214.837158</ele>
  <time>2011-11-18T11:00:29Z</time>
  <speed>6.180000</speed>
</trkpt>
<trkpt lat="31.799320221" lon="35.448261261">
  <ele>-215.387939</ele>
  <time>2011-11-18T11:00:30Z</time>
  <speed>6.520000</speed>
</trkpt>
<trkpt lat="31.799369812" lon="35.448295593">
  <ele>-215.255127</ele>
  <time>2011-11-18T11:00:31Z</time>
  <speed>6.820000</speed>
</trkpt>
<trkpt lat="31.799423218" lon="35.448329926">
  <ele>-215.192627</ele>
  <time>2011-11-18T11:00:32Z</time>
  <speed>6.810000</speed>
</trkpt>
<trkpt lat="31.799480438" lon="35.448368073">
  <ele>-215.450439</ele>
  <time>2011-11-18T11:00:33Z</time>
  <speed>6.340000</speed>
</trkpt>
<trkpt lat="31.799530029" lon="35.448406219">
  <ele>-215.466064</ele>
  <time>2011-11-18T11:00:34Z</time>
  <speed>6.490000</speed>
</trkpt>
<trkpt lat="31.799579620" lon="35.448440552">
  <ele>-215.665283</ele>
  <time>2011-11-18T11:00:35Z</time>
  <speed>6.110000</speed>
</trkpt>
<trkpt lat="31.799636841" lon="35.448467255">
  <ele>-215.661377</ele>
  <time>2011-11-18T11:00:36Z</time>
  <speed>6.270000</speed>
</trkpt>
<trkpt lat="31.799684525" lon="35.448478699">
  <ele>-215.934814</ele>
  <time>2011-11-18T11:00:37Z</time>
  <speed>5.100000</speed>
</trkpt>
<trkpt lat="31.799728394" lon="35.448493958">
  <ele>-216.977783</ele>
  <time>2011-11-18T11:00:38Z</time>
  <speed>4.440000</speed>
</trkpt>
<trkpt lat="31.799758911" lon="35.448516846">
  <ele>-219.387939</ele>
  <time>2011-11-18T11:00:39Z</time>
  <speed>4.960000</speed>
</trkpt>
<trkpt lat="31.799791336" lon="35.448558807">
  <ele>-220.985596</ele>
  <time>2011-11-18T11:00:40Z</time>
  <speed>5.380000</speed>
</trkpt>
<trkpt lat="31.799825668" lon="35.448608398">
  <ele>-222.243408</ele>
  <time>2011-11-18T11:00:41Z</time>
  <speed>5.850000</speed>
</trkpt>
<trkpt lat="31.799863815" lon="35.448654175">
  <ele>-222.423096</ele>
  <time>2011-11-18T11:00:42Z</time>
  <speed>5.610000</speed>
</trkpt>
<trkpt lat="31.799898148" lon="35.448699951">
  <ele>-223.415283</ele>
  <time>2011-11-18T11:00:43Z</time>
  <speed>5.760000</speed>
</trkpt>
<trkpt lat="31.799922943" lon="35.448764801">
  <ele>-223.677002</ele>
  <time>2011-11-18T11:00:44Z</time>
  <speed>7.570000</speed>
</trkpt>
<trkpt lat="31.799926758" lon="35.448848724">
  <ele>-224.352783</ele>
  <time>2011-11-18T11:00:45Z</time>
  <speed>7.560000</speed>
</trkpt>
<trkpt lat="31.799924850" lon="35.448932648">
  <ele>-225.895752</ele>
  <time>2011-11-18T11:00:46Z</time>
  <speed>8.270000</speed>
</trkpt>
<trkpt lat="31.799930573" lon="35.449024200">
  <ele>-226.536377</ele>
  <time>2011-11-18T11:00:47Z</time>
  <speed>8.800000</speed>
</trkpt>
<trkpt lat="31.799945831" lon="35.449115753">
  <ele>-226.696533</ele>
  <time>2011-11-18T11:00:48Z</time>
  <speed>8.560000</speed>
</trkpt>
<trkpt lat="31.799962997" lon="35.449211121">
  <ele>-227.794189</ele>
  <time>2011-11-18T11:00:49Z</time>
  <speed>8.780000</speed>
</trkpt>
<trkpt lat="31.799983978" lon="35.449298859">
  <ele>-228.348877</ele>
  <time>2011-11-18T11:00:50Z</time>
  <speed>8.910000</speed>
</trkpt>
<trkpt lat="31.799999237" lon="35.449394226">
  <ele>-229.579346</ele>
  <time>2011-11-18T11:00:51Z</time>
  <speed>8.700000</speed>
</trkpt>
<trkpt lat="31.800008774" lon="35.449485779">
  <ele>-230.446533</ele>
  <time>2011-11-18T11:00:52Z</time>
  <speed>8.610000</speed>
</trkpt>
<trkpt lat="31.800016403" lon="35.449577332">
  <ele>-230.903564</ele>
  <time>2011-11-18T11:00:53Z</time>
  <speed>8.800000</speed>
</trkpt>
<trkpt lat="31.800020218" lon="35.449668884">
  <ele>-231.290283</ele>
  <time>2011-11-18T11:00:54Z</time>
  <speed>8.310000</speed>
</trkpt>
<trkpt lat="31.800025940" lon="35.449745178">
  <ele>-231.887939</ele>
  <time>2011-11-18T11:00:55Z</time>
  <speed>6.450000</speed>
</trkpt>
<trkpt lat="31.800035477" lon="35.449821472">
  <ele>-232.563721</ele>
  <time>2011-11-18T11:00:56Z</time>
  <speed>7.750000</speed>
</trkpt>
<trkpt lat="31.800052643" lon="35.449901581">
  <ele>-233.356689</ele>
  <time>2011-11-18T11:00:57Z</time>
  <speed>8.170000</speed>
</trkpt>
<trkpt lat="31.800065994" lon="35.449985504">
  <ele>-233.516846</ele>
  <time>2011-11-18T11:00:58Z</time>
  <speed>7.300000</speed>
</trkpt>
<trkpt lat="31.800090790" lon="35.450046539">
  <ele>-233.399658</ele>
  <time>2011-11-18T11:00:59Z</time>
  <speed>5.420000</speed>
</trkpt>
<trkpt lat="31.800117493" lon="35.450092316">
  <ele>-233.856689</ele>
  <time>2011-11-18T11:01:00Z</time>
  <speed>5.220000</speed>
</trkpt>
<trkpt lat="31.800153732" lon="35.450122833">
  <ele>-234.364502</ele>
  <time>2011-11-18T11:01:01Z</time>
  <speed>5.420000</speed>
</trkpt>
<trkpt lat="31.800207138" lon="35.450134277">
  <ele>-234.442627</ele>
  <time>2011-11-18T11:01:02Z</time>
  <speed>5.050000</speed>
</trkpt>
<trkpt lat="31.800258636" lon="35.450134277">
  <ele>-234.302002</ele>
  <time>2011-11-18T11:01:03Z</time>
  <speed>4.270000</speed>
</trkpt>
<trkpt lat="31.800300598" lon="35.450138092">
  <ele>-233.532471</ele>
  <time>2011-11-18T11:01:04Z</time>
  <speed>3.530000</speed>
</trkpt>
<trkpt lat="31.800340652" lon="35.450138092">
  <ele>-233.825439</ele>
  <time>2011-11-18T11:01:06Z</time>
  <speed>1.940000</speed>
</trkpt>
<trkpt lat="31.800380707" lon="35.450157166">
  <ele>-233.829346</ele>
  <time>2011-11-18T11:01:08Z</time>
  <speed>2.960000</speed>
</trkpt>
<trkpt lat="31.800436020" lon="35.450168610">
  <ele>-233.684814</ele>
  <time>2011-11-18T11:01:10Z</time>
  <speed>3.070000</speed>
</trkpt>
<trkpt lat="31.800479889" lon="35.450206757">
  <ele>-234.384033</ele>
  <time>2011-11-18T11:01:12Z</time>
  <speed>3.390000</speed>
</trkpt>
<trkpt lat="31.800498962" lon="35.450237274">
  <ele>-234.727783</ele>
  <time>2011-11-18T11:01:13Z</time>
  <speed>4.240000</speed>
</trkpt>
<trkpt lat="31.800521851" lon="35.450279236">
  <ele>-235.114502</ele>
  <time>2011-11-18T11:01:14Z</time>
  <speed>4.760000</speed>
</trkpt>
<trkpt lat="31.800542831" lon="35.450321198">
  <ele>-234.884033</ele>
  <time>2011-11-18T11:01:15Z</time>
  <speed>4.140000</speed>
</trkpt>
<trkpt lat="31.800556183" lon="35.450359344">
  <ele>-235.102783</ele>
  <time>2011-11-18T11:01:16Z</time>
  <speed>4.070000</speed>
</trkpt>
<trkpt lat="31.800563812" lon="35.450393677">
  <ele>-234.755127</ele>
  <time>2011-11-18T11:01:17Z</time>
  <speed>3.330000</speed>
</trkpt>
<trkpt lat="31.800561905" lon="35.450428009">
  <ele>-235.153564</ele>
  <time>2011-11-18T11:01:18Z</time>
  <speed>3.380000</speed>
</trkpt>
<trkpt lat="31.800558090" lon="35.450462341">
  <ele>-234.946533</ele>
  <time>2011-11-18T11:01:19Z</time>
  <speed>3.340000</speed>
</trkpt>
<trkpt lat="31.800548553" lon="35.450500488">
  <ele>-234.977783</ele>
  <time>2011-11-18T11:01:20Z</time>
  <speed>3.500000</speed>
</trkpt>
<trkpt lat="31.800537109" lon="35.450538635">
  <ele>-235.571533</ele>
  <time>2011-11-18T11:01:21Z</time>
  <speed>3.680000</speed>
</trkpt>
<trkpt lat="31.800531387" lon="35.450584412">
  <ele>-235.813721</ele>
  <time>2011-11-18T11:01:22Z</time>
  <speed>3.890000</speed>
</trkpt>
<trkpt lat="31.800525665" lon="35.450626373">
  <ele>-235.973877</ele>
  <time>2011-11-18T11:01:23Z</time>
  <speed>4.140000</speed>
</trkpt>
<trkpt lat="31.800518036" lon="35.450672150">
  <ele>-236.192627</ele>
  <time>2011-11-18T11:01:24Z</time>
  <speed>4.270000</speed>
</trkpt>
<trkpt lat="31.800510406" lon="35.450717926">
  <ele>-236.071533</ele>
  <time>2011-11-18T11:01:25Z</time>
  <speed>4.220000</speed>
</trkpt>
<trkpt lat="31.800508499" lon="35.450763702">
  <ele>-236.141846</ele>
  <time>2011-11-18T11:01:26Z</time>
  <speed>4.230000</speed>
</trkpt>
<trkpt lat="31.800508499" lon="35.450809479">
  <ele>-235.680908</ele>
  <time>2011-11-18T11:01:27Z</time>
  <speed>4.020000</speed>
</trkpt>
<trkpt lat="31.800516129" lon="35.450851440">
  <ele>-235.188721</ele>
  <time>2011-11-18T11:01:28Z</time>
  <speed>4.120000</speed>
</trkpt>
<trkpt lat="31.800525665" lon="35.450889587">
  <ele>-235.130127</ele>
  <time>2011-11-18T11:01:29Z</time>
  <speed>3.600000</speed>
</trkpt>
<trkpt lat="31.800548553" lon="35.450916290">
  <ele>-235.962158</ele>
  <time>2011-11-18T11:01:31Z</time>
  <speed>1.750000</speed>
</trkpt>
<trkpt lat="31.800600052" lon="35.450893402">
  <ele>-235.786377</ele>
  <time>2011-11-18T11:01:33Z</time>
  <speed>2.830000</speed>
</trkpt>
<trkpt lat="31.800626755" lon="35.450878143">
  <ele>-235.934814</ele>
  <time>2011-11-18T11:01:34Z</time>
  <speed>2.660000</speed>
</trkpt>
<trkpt lat="31.800655365" lon="35.450859070">
  <ele>-235.489502</ele>
  <time>2011-11-18T11:01:35Z</time>
  <speed>2.310000</speed>
</trkpt>
<trkpt lat="31.800701141" lon="35.450832367">
  <ele>-234.950439</ele>
  <time>2011-11-18T11:01:37Z</time>
  <speed>2.680000</speed>
</trkpt>
<trkpt lat="31.800724030" lon="35.450817108">
  <ele>-234.106689</ele>
  <time>2011-11-18T11:01:38Z</time>
  <speed>2.790000</speed>
</trkpt>
<trkpt lat="31.800771713" lon="35.450805664">
  <ele>-233.298096</ele>
  <time>2011-11-18T11:01:40Z</time>
  <speed>2.540000</speed>
</trkpt>
<trkpt lat="31.800817490" lon="35.450809479">
  <ele>-233.755127</ele>
  <time>2011-11-18T11:01:42Z</time>
  <speed>2.300000</speed>
</trkpt>
<trkpt lat="31.800861359" lon="35.450832367">
  <ele>-233.790283</ele>
  <time>2011-11-18T11:01:44Z</time>
  <speed>2.590000</speed>
</trkpt>
<trkpt lat="31.800905228" lon="35.450859070">
  <ele>-234.341064</ele>
  <time>2011-11-18T11:01:46Z</time>
  <speed>2.600000</speed>
</trkpt>
<trkpt lat="31.800952911" lon="35.450893402">
  <ele>-233.852783</ele>
  <time>2011-11-18T11:01:48Z</time>
  <speed>3.190000</speed>
</trkpt>
<trkpt lat="31.800975800" lon="35.450916290">
  <ele>-234.368408</ele>
  <time>2011-11-18T11:01:49Z</time>
  <speed>3.230000</speed>
</trkpt>
<trkpt lat="31.800998688" lon="35.450939178">
  <ele>-234.094971</ele>
  <time>2011-11-18T11:01:50Z</time>
  <speed>3.460000</speed>
</trkpt>
<trkpt lat="31.801021576" lon="35.450962067">
  <ele>-234.579346</ele>
  <time>2011-11-18T11:01:51Z</time>
  <speed>3.400000</speed>
</trkpt>
<trkpt lat="31.801046371" lon="35.450981140">
  <ele>-234.188721</ele>
  <time>2011-11-18T11:01:52Z</time>
  <speed>3.280000</speed>
</trkpt>
<trkpt lat="31.801069260" lon="35.451004028">
  <ele>-234.024658</ele>
  <time>2011-11-18T11:01:53Z</time>
  <speed>3.550000</speed>
</trkpt>
<trkpt lat="31.801090240" lon="35.451030731">
  <ele>-233.821533</ele>
  <time>2011-11-18T11:01:54Z</time>
  <speed>3.420000</speed>
</trkpt>
<trkpt lat="31.801107407" lon="35.451057434">
  <ele>-233.677002</ele>
  <time>2011-11-18T11:01:55Z</time>
  <speed>3.390000</speed>
</trkpt>
<trkpt lat="31.801128387" lon="35.451084137">
  <ele>-233.766846</ele>
  <time>2011-11-18T11:01:56Z</time>
  <speed>3.320000</speed>
</trkpt>
<trkpt lat="31.801145554" lon="35.451110840">
  <ele>-234.626221</ele>
  <time>2011-11-18T11:01:57Z</time>
  <speed>2.970000</speed>
</trkpt>
<trkpt lat="31.801156998" lon="35.451141357">
  <ele>-234.786377</ele>
  <time>2011-11-18T11:01:58Z</time>
  <speed>3.360000</speed>
</trkpt>
<trkpt lat="31.801174164" lon="35.451171875">
  <ele>-234.962158</ele>
  <time>2011-11-18T11:01:59Z</time>
  <speed>3.500000</speed>
</trkpt>
<trkpt lat="31.801187515" lon="35.451206207">
  <ele>-235.524658</ele>
  <time>2011-11-18T11:02:00Z</time>
  <speed>3.660000</speed>
</trkpt>
<trkpt lat="31.801193237" lon="35.451244354">
  <ele>-234.907471</ele>
  <time>2011-11-18T11:02:01Z</time>
  <speed>3.680000</speed>
</trkpt>
<trkpt lat="31.801198959" lon="35.451286316">
  <ele>-234.563721</ele>
  <time>2011-11-18T11:02:02Z</time>
  <speed>3.830000</speed>
</trkpt>
<trkpt lat="31.801197052" lon="35.451328278">
  <ele>-234.259033</ele>
  <time>2011-11-18T11:02:03Z</time>
  <speed>3.610000</speed>
</trkpt>
<trkpt lat="31.801198959" lon="35.451366425">
  <ele>-234.079346</ele>
  <time>2011-11-18T11:02:04Z</time>
  <speed>3.540000</speed>
</trkpt>
<trkpt lat="31.801198959" lon="35.451408386">
  <ele>-234.231689</ele>
  <time>2011-11-18T11:02:05Z</time>
  <speed>3.520000</speed>
</trkpt>
<trkpt lat="31.801191330" lon="35.451442719">
  <ele>-234.860596</ele>
  <time>2011-11-18T11:02:06Z</time>
  <speed>3.360000</speed>
</trkpt>
<trkpt lat="31.801181793" lon="35.451480865">
  <ele>-234.391846</ele>
  <time>2011-11-18T11:02:07Z</time>
  <speed>3.390000</speed>
</trkpt>
<trkpt lat="31.801176071" lon="35.451515198">
  <ele>-234.571533</ele>
  <time>2011-11-18T11:02:08Z</time>
  <speed>3.450000</speed>
</trkpt>
<trkpt lat="31.801168442" lon="35.451549530">
  <ele>-233.958252</ele>
  <time>2011-11-18T11:02:09Z</time>
  <speed>3.680000</speed>
</trkpt>
<trkpt lat="31.801156998" lon="35.451583862">
  <ele>-234.329346</ele>
  <time>2011-11-18T11:02:10Z</time>
  <speed>3.420000</speed>
</trkpt>
<trkpt lat="31.801141739" lon="35.451618195">
  <ele>-234.216064</ele>
  <time>2011-11-18T11:02:11Z</time>
  <speed>3.690000</speed>
</trkpt>
<trkpt lat="31.801130295" lon="35.451656342">
  <ele>-234.337158</ele>
  <time>2011-11-18T11:02:12Z</time>
  <speed>3.670000</speed>
</trkpt>
<trkpt lat="31.801120758" lon="35.451686859">
  <ele>-234.649658</ele>
  <time>2011-11-18T11:02:13Z</time>
  <speed>3.740000</speed>
</trkpt>
<trkpt lat="31.801101685" lon="35.451725006">
  <ele>-235.317627</ele>
  <time>2011-11-18T11:02:14Z</time>
  <speed>4.100000</speed>
</trkpt>
<trkpt lat="31.801084518" lon="35.451763153">
  <ele>-235.169189</ele>
  <time>2011-11-18T11:02:15Z</time>
  <speed>4.260000</speed>
</trkpt>
<trkpt lat="31.801069260" lon="35.451808929">
  <ele>-235.208252</ele>
  <time>2011-11-18T11:02:16Z</time>
  <speed>4.420000</speed>
</trkpt>
<trkpt lat="31.801054001" lon="35.451850891">
  <ele>-235.669189</ele>
  <time>2011-11-18T11:02:17Z</time>
  <speed>4.630000</speed>
</trkpt>
<trkpt lat="31.801038742" lon="35.451896667">
  <ele>-235.427002</ele>
  <time>2011-11-18T11:02:18Z</time>
  <speed>4.910000</speed>
</trkpt>
<trkpt lat="31.801023483" lon="35.451950073">
  <ele>-235.700439</ele>
  <time>2011-11-18T11:02:19Z</time>
  <speed>5.050000</speed>
</trkpt>
<trkpt lat="31.801008224" lon="35.451999664">
  <ele>-235.977783</ele>
  <time>2011-11-18T11:02:20Z</time>
  <speed>5.320000</speed>
</trkpt>
<trkpt lat="31.800992966" lon="35.452053070">
  <ele>-236.137939</ele>
  <time>2011-11-18T11:02:21Z</time>
  <speed>5.420000</speed>
</trkpt>
<trkpt lat="31.800975800" lon="35.452110291">
  <ele>-236.165283</ele>
  <time>2011-11-18T11:02:22Z</time>
  <speed>5.610000</speed>
</trkpt>
<trkpt lat="31.800958633" lon="35.452167511">
  <ele>-236.489502</ele>
  <time>2011-11-18T11:02:23Z</time>
  <speed>5.690000</speed>
</trkpt>
<trkpt lat="31.800943375" lon="35.452224731">
  <ele>-236.548096</ele>
  <time>2011-11-18T11:02:24Z</time>
  <speed>5.830000</speed>
</trkpt>
<trkpt lat="31.800926208" lon="35.452281952">
  <ele>-236.977783</ele>
  <time>2011-11-18T11:02:25Z</time>
  <speed>5.910000</speed>
</trkpt>
<trkpt lat="31.800903320" lon="35.452339172">
  <ele>-237.192627</ele>
  <time>2011-11-18T11:02:26Z</time>
  <speed>6.070000</speed>
</trkpt>
<trkpt lat="31.800882339" lon="35.452396393">
  <ele>-237.091064</ele>
  <time>2011-11-18T11:02:27Z</time>
  <speed>5.430000</speed>
</trkpt>
<trkpt lat="31.800865173" lon="35.452449799">
  <ele>-236.755127</ele>
  <time>2011-11-18T11:02:28Z</time>
  <speed>5.460000</speed>
</trkpt>
<trkpt lat="31.800846100" lon="35.452499390">
  <ele>-236.856689</ele>
  <time>2011-11-18T11:02:29Z</time>
  <speed>4.980000</speed>
</trkpt>
<trkpt lat="31.800819397" lon="35.452545166">
  <ele>-237.309814</ele>
  <time>2011-11-18T11:02:30Z</time>
  <speed>4.460000</speed>
</trkpt>
<trkpt lat="31.800796509" lon="35.452579498">
  <ele>-237.622314</ele>
  <time>2011-11-18T11:02:31Z</time>
  <speed>3.830000</speed>
</trkpt>
<trkpt lat="31.800769806" lon="35.452610016">
  <ele>-237.923096</ele>
  <time>2011-11-18T11:02:32Z</time>
  <speed>4.000000</speed>
</trkpt>
<trkpt lat="31.800741196" lon="35.452636719">
  <ele>-238.106689</ele>
  <time>2011-11-18T11:02:33Z</time>
  <speed>3.540000</speed>
</trkpt>
<trkpt lat="31.800714493" lon="35.452659607">
  <ele>-238.403564</ele>
  <time>2011-11-18T11:02:34Z</time>
  <speed>3.270000</speed>
</trkpt>
<trkpt lat="31.800689697" lon="35.452682495">
  <ele>-238.548096</ele>
  <time>2011-11-18T11:02:35Z</time>
  <speed>4.040000</speed>
</trkpt>
<trkpt lat="31.800655365" lon="35.452697754">
  <ele>-239.360596</ele>
  <time>2011-11-18T11:02:36Z</time>
  <speed>3.990000</speed>
</trkpt>
<trkpt lat="31.800621033" lon="35.452716827">
  <ele>-239.520752</ele>
  <time>2011-11-18T11:02:37Z</time>
  <speed>3.760000</speed>
</trkpt>
<trkpt lat="31.800592422" lon="35.452728271">
  <ele>-240.227783</ele>
  <time>2011-11-18T11:02:38Z</time>
  <speed>4.070000</speed>
</trkpt>
<trkpt lat="31.800561905" lon="35.452743530">
  <ele>-240.083252</ele>
  <time>2011-11-18T11:02:39Z</time>
  <speed>3.470000</speed>
</trkpt>
<trkpt lat="31.800531387" lon="35.452758789">
  <ele>-240.239502</ele>
  <time>2011-11-18T11:02:40Z</time>
  <speed>3.430000</speed>
</trkpt>
<trkpt lat="31.800510406" lon="35.452785492">
  <ele>-240.594971</ele>
  <time>2011-11-18T11:02:41Z</time>
  <speed>3.110000</speed>
</trkpt>
<trkpt lat="31.800506592" lon="35.452842712">
  <ele>-240.723877</ele>
  <time>2011-11-18T11:02:43Z</time>
  <speed>2.400000</speed>
</trkpt>
<trkpt lat="31.800540924" lon="35.452869415">
  <ele>-240.958252</ele>
  <time>2011-11-18T11:02:45Z</time>
  <speed>2.070000</speed>
</trkpt>
<trkpt lat="31.800575256" lon="35.452861786">
  <ele>-241.645752</ele>
  <time>2011-11-18T11:02:47Z</time>
  <speed>0.610000</speed>
</trkpt>
<trkpt lat="31.800594330" lon="35.452846527">
  <ele>-243.012939</ele>
  <time>2011-11-18T11:03:01Z</time>
  <speed>0.050000</speed>
</trkpt>
<trkpt lat="31.800590515" lon="35.452812195">
  <ele>-242.630127</ele>
  <time>2011-11-18T11:03:15Z</time>
  <speed>0.030000</speed>
</trkpt>
<trkpt lat="31.800598145" lon="35.452800751">
  <ele>-242.473877</ele>
  <time>2011-11-18T11:03:23Z</time>
  <speed>0.080000</speed>
</trkpt>
</trkseg>
</trk>
</gpx>
